<?xml version='1.0' encoding='UTF-8'?><gpx version="1.1" creator="JPX - https://github.com/jenetics/jpx" xmlns="http://www.topografix.com/GPX/1/1"><trk><trkseg><trkpt lat="43.13670909089277" lon="11.481868497174606"><ele>147.0</ele><time>2026-04-11T02:00:47Z</time></trkpt><trkpt lat="43.136686665231316" lon="11.48175282864112"><ele>147.0</ele><time>2026-04-11T02:00:50Z</time></trkpt><trkpt lat="43.13667271056607" lon="11.481655087026363"><ele>147.0</ele><time>2026-04-11T02:00:52Z</time></trkpt><trkpt lat="43.136638279475825" lon="11.481551367646851"><ele>147.0</ele><time>2026-04-11T02:00:54Z</time></trkpt><trkpt lat="43.13661561061002" lon="11.481439953097507"><ele>147.0</ele><time>2026-04-11T02:00:56Z</time></trkpt><trkpt lat="43.136586467087085" lon="11.481336274319744"><ele>147.0</ele><time>2026-04-11T02:00:58Z</time></trkpt><trkpt lat="43.136560861378904" lon="11.48121645824912"><ele>146.6</ele><time>2026-04-11T02:01:00Z</time></trkpt><trkpt lat="43.13653087512336" lon="11.481091204562512"><ele>146.2</ele><time>2026-04-11T02:01:02Z</time></trkpt><trkpt lat="43.13649937248403" lon="11.480966497540557"><ele>145.8</ele><time>2026-04-11T02:01:04Z</time></trkpt><trkpt lat="43.13645929814156" lon="11.480829326274103"><ele>145.4</ele><time>2026-04-11T02:01:06Z</time></trkpt><trkpt lat="43.13642759147846" lon="11.480689072023388"><ele>145.0</ele><time>2026-04-11T02:01:08Z</time></trkpt><trkpt lat="43.136385692293295" lon="11.480549832549691"><ele>144.8</ele><time>2026-04-11T02:01:10Z</time></trkpt><trkpt lat="43.13634996221862" lon="11.48040573212878"><ele>144.6</ele><time>2026-04-11T02:01:11.999Z</time></trkpt><trkpt lat="43.13631287206708" lon="11.480258684900958"><ele>144.4</ele><time>2026-04-11T02:01:13.999Z</time></trkpt><trkpt lat="43.136273783270916" lon="11.480117356681996"><ele>144.2</ele><time>2026-04-11T02:01:15.999Z</time></trkpt><trkpt lat="43.13623751194215" lon="11.479973958809952"><ele>144.0</ele><time>2026-04-11T02:01:17.999Z</time></trkpt><trkpt lat="43.136200849410756" lon="11.479834499702944"><ele>144.0</ele><time>2026-04-11T02:01:19.999Z</time></trkpt><trkpt lat="43.13616713478952" lon="11.47968898392342"><ele>144.0</ele><time>2026-04-11T02:01:21.999Z</time></trkpt><trkpt lat="43.136130717097124" lon="11.479548865853443"><ele>144.0</ele><time>2026-04-11T02:01:23.999Z</time></trkpt><trkpt lat="43.1360975215555" lon="11.479415075065019"><ele>144.0</ele><time>2026-04-11T02:01:25.999Z</time></trkpt><trkpt lat="43.13606328419125" lon="11.479281971640095"><ele>144.0</ele><time>2026-04-11T02:01:27.999Z</time></trkpt><trkpt lat="43.136030068950014" lon="11.479143015180934"><ele>144.0</ele><time>2026-04-11T02:01:29.999Z</time></trkpt><trkpt lat="43.13599849946073" lon="11.479008104704619"><ele>144.0</ele><time>2026-04-11T02:01:31.999Z</time></trkpt><trkpt lat="43.13596279996176" lon="11.478871994668566"><ele>144.0</ele><time>2026-04-11T02:01:33.999Z</time></trkpt><trkpt lat="43.13592961022524" lon="11.478729151634433"><ele>144.0</ele><time>2026-04-11T02:01:35.999Z</time></trkpt><trkpt lat="43.13589680209055" lon="11.478579923969136"><ele>144.0</ele><time>2026-04-11T02:01:37.999Z</time></trkpt><trkpt lat="43.13586715000105" lon="11.47842094332605"><ele>144.2</ele><time>2026-04-11T02:01:39.999Z</time></trkpt><trkpt lat="43.1358322386687" lon="11.478264761594795"><ele>144.4</ele><time>2026-04-11T02:01:41.999Z</time></trkpt><trkpt lat="43.13579858208433" lon="11.47810872130499"><ele>144.6</ele><time>2026-04-11T02:01:43.999Z</time></trkpt><trkpt lat="43.13576596929163" lon="11.477946227214705"><ele>144.8</ele><time>2026-04-11T02:01:45.999Z</time></trkpt><trkpt lat="43.1357510093277" lon="11.477862399902456"><ele>145.0</ele><time>2026-04-11T02:01:46.999Z</time></trkpt><trkpt lat="43.135733948755956" lon="11.477776312994326"><ele>144.57142857142858</ele><time>2026-04-11T02:01:47.999Z</time></trkpt><trkpt lat="43.13571458467864" lon="11.477688089154187"><ele>144.14285714285717</ele><time>2026-04-11T02:01:48.999Z</time></trkpt><trkpt lat="43.13569380272216" lon="11.477599149901089"><ele>143.71428571428572</ele><time>2026-04-11T02:01:49.999Z</time></trkpt><trkpt lat="43.13567555546504" lon="11.477507379638375"><ele>143.28571428571428</ele><time>2026-04-11T02:01:50.999Z</time></trkpt><trkpt lat="43.135655651743775" lon="11.477416094034519"><ele>142.85714285714283</ele><time>2026-04-11T02:01:51.999Z</time></trkpt><trkpt lat="43.13563598219224" lon="11.477324381646069"><ele>142.42857142857142</ele><time>2026-04-11T02:01:52.999Z</time></trkpt><trkpt lat="43.1356176568709" lon="11.477231847770845"><ele>142.0</ele><time>2026-04-11T02:01:53.999Z</time></trkpt><trkpt lat="43.13559944195549" lon="11.477142223922455"><ele>141.6</ele><time>2026-04-11T02:01:54.999Z</time></trkpt><trkpt lat="43.13558029027133" lon="11.477055606064187"><ele>141.2</ele><time>2026-04-11T02:01:55.999Z</time></trkpt><trkpt lat="43.13556101219982" lon="11.476970828905555"><ele>140.8</ele><time>2026-04-11T02:01:56.999Z</time></trkpt><trkpt lat="43.13552649711814" lon="11.47681351858299"><ele>140.4</ele><time>2026-04-11T02:01:58.999Z</time></trkpt><trkpt lat="43.135488006578186" lon="11.476654946998984"><ele>140.0</ele><time>2026-04-11T02:02:00.999Z</time></trkpt><trkpt lat="43.13545389666457" lon="11.476494012033001"><ele>140.0</ele><time>2026-04-11T02:02:02.999Z</time></trkpt><trkpt lat="43.135417177244996" lon="11.476337590703777"><ele>140.0</ele><time>2026-04-11T02:02:04.999Z</time></trkpt><trkpt lat="43.1353759832795" lon="11.476184192606791"><ele>140.0</ele><time>2026-04-11T02:02:06.999Z</time></trkpt><trkpt lat="43.135334911845135" lon="11.476024670594093"><ele>140.0</ele><time>2026-04-11T02:02:08.999Z</time></trkpt><trkpt lat="43.13529330766132" lon="11.475870179850613"><ele>139.71428571428572</ele><time>2026-04-11T02:02:10.999Z</time></trkpt><trkpt lat="43.135252763884225" lon="11.475714995700114"><ele>139.42857142857144</ele><time>2026-04-11T02:02:12.999Z</time></trkpt><trkpt lat="43.135230126419856" lon="11.475634420076364"><ele>139.14285714285714</ele><time>2026-04-11T02:02:13.999Z</time></trkpt><trkpt lat="43.13520785799494" lon="11.47555295156991"><ele>138.85714285714286</ele><time>2026-04-11T02:02:14.999Z</time></trkpt><trkpt lat="43.13518772249913" lon="11.475469395566304"><ele>138.57142857142858</ele><time>2026-04-11T02:02:15.999Z</time></trkpt><trkpt lat="43.1351678313861" lon="11.475384700396347"><ele>138.28571428571428</ele><time>2026-04-11T02:02:16.999Z</time></trkpt><trkpt lat="43.135144041674735" lon="11.475295220224362"><ele>138.0</ele><time>2026-04-11T02:02:17.999Z</time></trkpt><trkpt lat="43.135121711307406" lon="11.475207217863735"><ele>138.0</ele><time>2026-04-11T02:02:18.999Z</time></trkpt><trkpt lat="43.135101510821855" lon="11.475114446956686"><ele>138.0</ele><time>2026-04-11T02:02:19.999Z</time></trkpt><trkpt lat="43.13508333712377" lon="11.475019613842418"><ele>138.0</ele><time>2026-04-11T02:02:20.999Z</time></trkpt><trkpt lat="43.135066134577926" lon="11.474922972531663"><ele>138.0</ele><time>2026-04-11T02:02:21.999Z</time></trkpt><trkpt lat="43.13504836971589" lon="11.47482704745988"><ele>138.0</ele><time>2026-04-11T02:02:22.999Z</time></trkpt><trkpt lat="43.13502989448016" lon="11.474732560795125"><ele>138.0</ele><time>2026-04-11T02:02:23.999Z</time></trkpt><trkpt lat="43.13501046016572" lon="11.47463920404549"><ele>138.0</ele><time>2026-04-11T02:02:24.999Z</time></trkpt><trkpt lat="43.134992771970005" lon="11.47454688453905"><ele>138.0</ele><time>2026-04-11T02:02:25.999Z</time></trkpt><trkpt lat="43.13497369581117" lon="11.474455199914305"><ele>138.0</ele><time>2026-04-11T02:02:26.999Z</time></trkpt><trkpt lat="43.13495506665796" lon="11.474363265367737"><ele>138.0</ele><time>2026-04-11T02:02:27.999Z</time></trkpt><trkpt lat="43.134937369535315" lon="11.474270634982684"><ele>138.0</ele><time>2026-04-11T02:02:28.999Z</time></trkpt><trkpt lat="43.134921550091065" lon="11.474177729248487"><ele>138.0</ele><time>2026-04-11T02:02:29.999Z</time></trkpt><trkpt lat="43.13490418419491" lon="11.474085071037129"><ele>138.0</ele><time>2026-04-11T02:02:30.999Z</time></trkpt><trkpt lat="43.13488611483163" lon="11.473995834720558"><ele>138.0</ele><time>2026-04-11T02:02:31.999Z</time></trkpt><trkpt lat="43.134868069590354" lon="11.473906116200407"><ele>138.0</ele><time>2026-04-11T02:02:32.999Z</time></trkpt><trkpt lat="43.13484998286077" lon="11.473816191399079"><ele>138.0</ele><time>2026-04-11T02:02:33.999Z</time></trkpt><trkpt lat="43.13483434463406" lon="11.473726203856561"><ele>138.0</ele><time>2026-04-11T02:02:34.999Z</time></trkpt><trkpt lat="43.13481884953065" lon="11.473634871959728"><ele>138.0</ele><time>2026-04-11T02:02:35.999Z</time></trkpt><trkpt lat="43.134801183772765" lon="11.473546207363913"><ele>138.0</ele><time>2026-04-11T02:02:36.999Z</time></trkpt><trkpt lat="43.134783895802016" lon="11.473458892216465"><ele>138.0</ele><time>2026-04-11T02:02:37.999Z</time></trkpt><trkpt lat="43.13476791002301" lon="11.473369398668769"><ele>138.0</ele><time>2026-04-11T02:02:38.999Z</time></trkpt><trkpt lat="43.13475149168094" lon="11.473280836064077"><ele>138.0</ele><time>2026-04-11T02:02:40Z</time></trkpt><trkpt lat="43.13473645403073" lon="11.473194712542076"><ele>138.0</ele><time>2026-04-11T02:02:41Z</time></trkpt><trkpt lat="43.13472126741546" lon="11.473107992618845"><ele>138.0</ele><time>2026-04-11T02:02:42Z</time></trkpt><trkpt lat="43.134704588973264" lon="11.4730238607474"><ele>138.0</ele><time>2026-04-11T02:02:43Z</time></trkpt><trkpt lat="43.134688046903776" lon="11.472939720472333"><ele>138.0</ele><time>2026-04-11T02:02:44Z</time></trkpt><trkpt lat="43.13467130898871" lon="11.472855749563937"><ele>138.0</ele><time>2026-04-11T02:02:45Z</time></trkpt><trkpt lat="43.13465397737368" lon="11.472771180384278"><ele>138.0</ele><time>2026-04-11T02:02:46Z</time></trkpt><trkpt lat="43.134637666115246" lon="11.472686955455542"><ele>138.0</ele><time>2026-04-11T02:02:47Z</time></trkpt><trkpt lat="43.13462174000278" lon="11.472602359156701"><ele>138.0</ele><time>2026-04-11T02:02:48Z</time></trkpt><trkpt lat="43.13460568028265" lon="11.472517379078528"><ele>138.0</ele><time>2026-04-11T02:02:49Z</time></trkpt><trkpt lat="43.134589321993715" lon="11.4724334269952"><ele>138.0</ele><time>2026-04-11T02:02:50Z</time></trkpt><trkpt lat="43.13457248879356" lon="11.472347696688358"><ele>138.0</ele><time>2026-04-11T02:02:51Z</time></trkpt><trkpt lat="43.13455423640555" lon="11.472262987628614"><ele>138.0</ele><time>2026-04-11T02:02:52Z</time></trkpt><trkpt lat="43.13453801172569" lon="11.472176564591129"><ele>138.0</ele><time>2026-04-11T02:02:53Z</time></trkpt><trkpt lat="43.13452165081049" lon="11.47209075786848"><ele>138.0</ele><time>2026-04-11T02:02:54Z</time></trkpt><trkpt lat="43.13450702523146" lon="11.472003623220768"><ele>138.0</ele><time>2026-04-11T02:02:55Z</time></trkpt><trkpt lat="43.13449252961192" lon="11.47191804423853"><ele>138.0</ele><time>2026-04-11T02:02:56Z</time></trkpt><trkpt lat="43.13447550106195" lon="11.471833554463114"><ele>138.0</ele><time>2026-04-11T02:02:57Z</time></trkpt><trkpt lat="43.134455501824085" lon="11.471750778756173"><ele>138.0</ele><time>2026-04-11T02:02:58Z</time></trkpt><trkpt lat="43.13443698434194" lon="11.471668098915286"><ele>138.0</ele><time>2026-04-11T02:02:59Z</time></trkpt><trkpt lat="43.13440539683811" lon="11.47150947624705"><ele>138.0</ele><time>2026-04-11T02:03:01Z</time></trkpt><trkpt lat="43.13440107657713" lon="11.47136666359003"><ele>138.0</ele><time>2026-04-11T02:03:03Z</time></trkpt><trkpt lat="43.13448512182301" lon="11.471304904888388"><ele>138.0</ele><time>2026-04-11T02:03:05Z</time></trkpt><trkpt lat="43.13457725238973" lon="11.471236320581118"><ele>138.0</ele><time>2026-04-11T02:03:07Z</time></trkpt><trkpt lat="43.134673703719045" lon="11.471181559345291"><ele>138.0</ele><time>2026-04-11T02:03:09Z</time></trkpt><trkpt lat="43.134773610377856" lon="11.47113287124692"><ele>138.0</ele><time>2026-04-11T02:03:11Z</time></trkpt><trkpt lat="43.134879006925274" lon="11.471090959692765"><ele>138.5</ele><time>2026-04-11T02:03:13Z</time></trkpt><trkpt lat="43.13497823935506" lon="11.471016471217109"><ele>139.0</ele><time>2026-04-11T02:03:15Z</time></trkpt><trkpt lat="43.13508581032343" lon="11.470956076379544"><ele>139.5</ele><time>2026-04-11T02:03:17Z</time></trkpt><trkpt lat="43.13519305522576" lon="11.4708980977298"><ele>140.0</ele><time>2026-04-11T02:03:19Z</time></trkpt><trkpt lat="43.135297423108646" lon="11.470844081557614"><ele>140.0</ele><time>2026-04-11T02:03:20.999Z</time></trkpt><trkpt lat="43.13540336779144" lon="11.470782079890428"><ele>140.0</ele><time>2026-04-11T02:03:22.999Z</time></trkpt><trkpt lat="43.13551093543211" lon="11.470725573622135"><ele>140.0</ele><time>2026-04-11T02:03:24.999Z</time></trkpt><trkpt lat="43.13562085208155" lon="11.470667024533094"><ele>140.0</ele><time>2026-04-11T02:03:26.999Z</time></trkpt><trkpt lat="43.13573027606553" lon="11.47060601947486"><ele>140.25</ele><time>2026-04-11T02:03:28.999Z</time></trkpt><trkpt lat="43.135838407928695" lon="11.470540951387713"><ele>140.5</ele><time>2026-04-11T02:03:30.999Z</time></trkpt><trkpt lat="43.135952035481374" lon="11.47047936467283"><ele>140.75</ele><time>2026-04-11T02:03:32.999Z</time></trkpt><trkpt lat="43.136064794095084" lon="11.47041769948611"><ele>141.0</ele><time>2026-04-11T02:03:34.999Z</time></trkpt><trkpt lat="43.136178556089135" lon="11.470354799632723"><ele>141.0</ele><time>2026-04-11T02:03:36.999Z</time></trkpt><trkpt lat="43.136291768121744" lon="11.47028962992786"><ele>141.0</ele><time>2026-04-11T02:03:38.999Z</time></trkpt><trkpt lat="43.13640468863481" lon="11.470224062586357"><ele>141.0</ele><time>2026-04-11T02:03:40.999Z</time></trkpt><trkpt lat="43.13651532112758" lon="11.470161513776153"><ele>141.0</ele><time>2026-04-11T02:03:42.999Z</time></trkpt><trkpt lat="43.13662658910041" lon="11.47010230115003"><ele>140.75</ele><time>2026-04-11T02:03:44.999Z</time></trkpt><trkpt lat="43.13673573570199" lon="11.470041555994346"><ele>140.5</ele><time>2026-04-11T02:03:46.999Z</time></trkpt><trkpt lat="43.13683996954186" lon="11.469976522184005"><ele>140.25</ele><time>2026-04-11T02:03:48.999Z</time></trkpt><trkpt lat="43.13694667661328" lon="11.469914906618193"><ele>140.0</ele><time>2026-04-11T02:03:50.999Z</time></trkpt><trkpt lat="43.137054113624636" lon="11.469856362313681"><ele>140.0</ele><time>2026-04-11T02:03:52.999Z</time></trkpt><trkpt lat="43.13715699419104" lon="11.469796568354905"><ele>140.0</ele><time>2026-04-11T02:03:54.999Z</time></trkpt><trkpt lat="43.13726324925018" lon="11.469732122204357"><ele>140.0</ele><time>2026-04-11T02:03:56.999Z</time></trkpt><trkpt lat="43.13736534296629" lon="11.469660176209093"><ele>140.0</ele><time>2026-04-11T02:03:58.999Z</time></trkpt><trkpt lat="43.13745878945422" lon="11.469582150539361"><ele>140.2</ele><time>2026-04-11T02:04:00.999Z</time></trkpt><trkpt lat="43.137548739918955" lon="11.469503706314375"><ele>140.4</ele><time>2026-04-11T02:04:02.999Z</time></trkpt><trkpt lat="43.1376387951979" lon="11.469423957654318"><ele>140.6</ele><time>2026-04-11T02:04:04.999Z</time></trkpt><trkpt lat="43.137727387025976" lon="11.469336892962795"><ele>140.8</ele><time>2026-04-11T02:04:06.999Z</time></trkpt><trkpt lat="43.13781769238032" lon="11.469250815461159"><ele>141.0</ele><time>2026-04-11T02:04:08.999Z</time></trkpt><trkpt lat="43.13790452988187" lon="11.469159504900595"><ele>141.0</ele><time>2026-04-11T02:04:10.999Z</time></trkpt><trkpt lat="43.13799461952486" lon="11.469067108562298"><ele>141.0</ele><time>2026-04-11T02:04:12.999Z</time></trkpt><trkpt lat="43.13808526939606" lon="11.468977159015369"><ele>141.0</ele><time>2026-04-11T02:04:14.999Z</time></trkpt><trkpt lat="43.13817674929019" lon="11.468883624889548"><ele>141.0</ele><time>2026-04-11T02:04:16.999Z</time></trkpt><trkpt lat="43.13826555113231" lon="11.468787587744494"><ele>140.75</ele><time>2026-04-11T02:04:18.999Z</time></trkpt><trkpt lat="43.13835590613695" lon="11.468693367671387"><ele>140.5</ele><time>2026-04-11T02:04:20.999Z</time></trkpt><trkpt lat="43.13844674041707" lon="11.468600576948512"><ele>140.25</ele><time>2026-04-11T02:04:22.999Z</time></trkpt><trkpt lat="43.13853676148812" lon="11.468505072710805"><ele>140.0</ele><time>2026-04-11T02:04:24.999Z</time></trkpt><trkpt lat="43.138626297477366" lon="11.468406280182261"><ele>140.0</ele><time>2026-04-11T02:04:26.999Z</time></trkpt><trkpt lat="43.13872159904049" lon="11.46830822838905"><ele>140.0</ele><time>2026-04-11T02:04:28.999Z</time></trkpt><trkpt lat="43.138816822471604" lon="11.468204916450452"><ele>140.0</ele><time>2026-04-11T02:04:30.999Z</time></trkpt><trkpt lat="43.138908944058095" lon="11.468100694350895"><ele>140.0</ele><time>2026-04-11T02:04:32.999Z</time></trkpt><trkpt lat="43.13900103064486" lon="11.468003761524741"><ele>140.5</ele><time>2026-04-11T02:04:34.999Z</time></trkpt><trkpt lat="43.13909250441857" lon="11.467911726836354"><ele>141.0</ele><time>2026-04-11T02:04:36.999Z</time></trkpt><trkpt lat="43.13918114795268" lon="11.467817225387876"><ele>141.5</ele><time>2026-04-11T02:04:38.999Z</time></trkpt><trkpt lat="43.13927030478402" lon="11.46772233241004"><ele>142.0</ele><time>2026-04-11T02:04:40.999Z</time></trkpt><trkpt lat="43.13935887125273" lon="11.467626482947162"><ele>142.0</ele><time>2026-04-11T02:04:42.999Z</time></trkpt><trkpt lat="43.13944906065388" lon="11.467530564662486"><ele>142.0</ele><time>2026-04-11T02:04:45Z</time></trkpt><trkpt lat="43.13953648819023" lon="11.467440967438794"><ele>142.0</ele><time>2026-04-11T02:04:47Z</time></trkpt><trkpt lat="43.139622248082595" lon="11.467351057727614"><ele>142.0</ele><time>2026-04-11T02:04:49Z</time></trkpt><trkpt lat="43.13971090789659" lon="11.4672579891251"><ele>142.0</ele><time>2026-04-11T02:04:51Z</time></trkpt><trkpt lat="43.13979733315444" lon="11.467163073203832"><ele>142.4</ele><time>2026-04-11T02:04:53Z</time></trkpt><trkpt lat="43.13988704797741" lon="11.467072546585719"><ele>142.79999999999998</ele><time>2026-04-11T02:04:55Z</time></trkpt><trkpt lat="43.13997649257555" lon="11.466979953572702"><ele>143.2</ele><time>2026-04-11T02:04:57Z</time></trkpt><trkpt lat="43.14006117959519" lon="11.466888304433972"><ele>143.6</ele><time>2026-04-11T02:04:59Z</time></trkpt><trkpt lat="43.14015012517047" lon="11.466798847505778"><ele>144.0</ele><time>2026-04-11T02:05:01Z</time></trkpt><trkpt lat="43.14023727103934" lon="11.46670678325906"><ele>144.0</ele><time>2026-04-11T02:05:03Z</time></trkpt><trkpt lat="43.14032438454385" lon="11.466614566821479"><ele>144.0</ele><time>2026-04-11T02:05:05Z</time></trkpt><trkpt lat="43.140413220470165" lon="11.466521448651541"><ele>144.0</ele><time>2026-04-11T02:05:07Z</time></trkpt><trkpt lat="43.14050344951672" lon="11.46642595798257"><ele>144.0</ele><time>2026-04-11T02:05:09Z</time></trkpt><trkpt lat="43.14059043312686" lon="11.466333279436261"><ele>144.0</ele><time>2026-04-11T02:05:11Z</time></trkpt><trkpt lat="43.14067884833679" lon="11.466241178092544"><ele>143.8</ele><time>2026-04-11T02:05:13Z</time></trkpt><trkpt lat="43.14076627499691" lon="11.466142688341392"><ele>143.60000000000002</ele><time>2026-04-11T02:05:15Z</time></trkpt><trkpt lat="43.140858446385614" lon="11.4660520744347"><ele>143.4</ele><time>2026-04-11T02:05:17Z</time></trkpt><trkpt lat="43.14094639721807" lon="11.465955792927952"><ele>143.20000000000002</ele><time>2026-04-11T02:05:19Z</time></trkpt><trkpt lat="43.14103271529365" lon="11.465863103970054"><ele>143.0</ele><time>2026-04-11T02:05:21Z</time></trkpt><trkpt lat="43.141124147055116" lon="11.465771493385967"><ele>143.0</ele><time>2026-04-11T02:05:23Z</time></trkpt><trkpt lat="43.14121358321002" lon="11.465676963811164"><ele>143.0</ele><time>2026-04-11T02:05:25Z</time></trkpt><trkpt lat="43.14130319851337" lon="11.465589689889306"><ele>143.0</ele><time>2026-04-11T02:05:26.999Z</time></trkpt><trkpt lat="43.14139201052487" lon="11.46549765137307"><ele>143.0</ele><time>2026-04-11T02:05:28.999Z</time></trkpt><trkpt lat="43.141478550597604" lon="11.465406674296402"><ele>143.0</ele><time>2026-04-11T02:05:30.999Z</time></trkpt><trkpt lat="43.14156418361274" lon="11.465314042497038"><ele>143.4</ele><time>2026-04-11T02:05:32.999Z</time></trkpt><trkpt lat="43.14165280310562" lon="11.465223615962458"><ele>143.8</ele><time>2026-04-11T02:05:34.999Z</time></trkpt><trkpt lat="43.14173596648052" lon="11.465132263792382"><ele>144.2</ele><time>2026-04-11T02:05:36.999Z</time></trkpt><trkpt lat="43.14182433165361" lon="11.465040112289904"><ele>144.6</ele><time>2026-04-11T02:05:38.999Z</time></trkpt><trkpt lat="43.141910301424964" lon="11.464949323961077"><ele>145.0</ele><time>2026-04-11T02:05:40.999Z</time></trkpt><trkpt lat="43.14200002008529" lon="11.464857177015071"><ele>145.0</ele><time>2026-04-11T02:05:42.999Z</time></trkpt><trkpt lat="43.14208831896465" lon="11.464765037148851"><ele>145.0</ele><time>2026-04-11T02:05:44.999Z</time></trkpt><trkpt lat="43.14217464368399" lon="11.464677716541754"><ele>145.0</ele><time>2026-04-11T02:05:46.999Z</time></trkpt><trkpt lat="43.14225972015169" lon="11.464588056205452"><ele>145.0</ele><time>2026-04-11T02:05:48.999Z</time></trkpt><trkpt lat="43.14234758933367" lon="11.464501584819352"><ele>145.0</ele><time>2026-04-11T02:05:50.999Z</time></trkpt><trkpt lat="43.14243378355308" lon="11.464410944352302"><ele>145.2</ele><time>2026-04-11T02:05:52.999Z</time></trkpt><trkpt lat="43.142517800075844" lon="11.464315906798682"><ele>145.4</ele><time>2026-04-11T02:05:54.999Z</time></trkpt><trkpt lat="43.14259249346635" lon="11.464213265235422"><ele>145.6</ele><time>2026-04-11T02:05:56.999Z</time></trkpt><trkpt lat="43.14267429062254" lon="11.4641172521091"><ele>145.8</ele><time>2026-04-11T02:05:58.999Z</time></trkpt><trkpt lat="43.142721290171494" lon="11.463978495226183"><ele>146.0</ele><time>2026-04-11T02:06:00.999Z</time></trkpt><trkpt lat="43.14277850287214" lon="11.463857520320392"><ele>146.2</ele><time>2026-04-11T02:06:02.999Z</time></trkpt><trkpt lat="43.14283582523363" lon="11.463736242729937"><ele>146.39999999999998</ele><time>2026-04-11T02:06:04.999Z</time></trkpt><trkpt lat="43.142886846914344" lon="11.463611851065567"><ele>146.6</ele><time>2026-04-11T02:06:06.999Z</time></trkpt><trkpt lat="43.142935743591345" lon="11.463490397233155"><ele>146.79999999999998</ele><time>2026-04-11T02:06:08.999Z</time></trkpt><trkpt lat="43.14298637695741" lon="11.463371830608343"><ele>147.0</ele><time>2026-04-11T02:06:10.999Z</time></trkpt><trkpt lat="43.143030565992845" lon="11.4632589323391"><ele>147.0</ele><time>2026-04-11T02:06:12.999Z</time></trkpt><trkpt lat="43.143074549655644" lon="11.46314829161974"><ele>147.0</ele><time>2026-04-11T02:06:14.999Z</time></trkpt><trkpt lat="43.14311359621681" lon="11.46303657867265"><ele>147.0</ele><time>2026-04-11T02:06:16.999Z</time></trkpt><trkpt lat="43.1431587332864" lon="11.462922345993448"><ele>147.0</ele><time>2026-04-11T02:06:18.999Z</time></trkpt><trkpt lat="43.143201680373096" lon="11.46280958241644"><ele>147.0</ele><time>2026-04-11T02:06:20.999Z</time></trkpt><trkpt lat="43.1432428098337" lon="11.46269876613354"><ele>148.0</ele><time>2026-04-11T02:06:22.999Z</time></trkpt><trkpt lat="43.143289429700374" lon="11.462590161273564"><ele>149.0</ele><time>2026-04-11T02:06:24.999Z</time></trkpt><trkpt lat="43.14333444268935" lon="11.462478807398808"><ele>150.0</ele><time>2026-04-11T02:06:26.999Z</time></trkpt><trkpt lat="43.14338017432307" lon="11.462363520807473"><ele>151.0</ele><time>2026-04-11T02:06:28.999Z</time></trkpt><trkpt lat="43.14343544263628" lon="11.462250391446823"><ele>152.0</ele><time>2026-04-11T02:06:30.999Z</time></trkpt><trkpt lat="43.14349060075918" lon="11.462148367971077"><ele>151.66666666666666</ele><time>2026-04-11T02:06:32.999Z</time></trkpt><trkpt lat="43.14354896704698" lon="11.462051461485832"><ele>151.33333333333331</ele><time>2026-04-11T02:06:34.999Z</time></trkpt><trkpt lat="43.14361040221355" lon="11.46196455148597"><ele>151.0</ele><time>2026-04-11T02:06:36.999Z</time></trkpt><trkpt lat="43.143674579479445" lon="11.46188231796346"><ele>150.66666666666666</ele><time>2026-04-11T02:06:38.999Z</time></trkpt><trkpt lat="43.14374785081726" lon="11.461814371771782"><ele>150.33333333333334</ele><time>2026-04-11T02:06:40.999Z</time></trkpt><trkpt lat="43.14382245243986" lon="11.461751073078753"><ele>150.0</ele><time>2026-04-11T02:06:42.999Z</time></trkpt><trkpt lat="43.143897491651835" lon="11.461692482741226"><ele>150.0</ele><time>2026-04-11T02:06:44.999Z</time></trkpt><trkpt lat="43.143976572339575" lon="11.461639168187498"><ele>150.0</ele><time>2026-04-11T02:06:46.999Z</time></trkpt><trkpt lat="43.14405635209302" lon="11.461584803417363"><ele>150.0</ele><time>2026-04-11T02:06:48.999Z</time></trkpt><trkpt lat="43.14413452717375" lon="11.461543486128793"><ele>150.0</ele><time>2026-04-11T02:06:51Z</time></trkpt><trkpt lat="43.144211525550084" lon="11.461504467584945"><ele>150.0</ele><time>2026-04-11T02:06:53Z</time></trkpt><trkpt lat="43.144280571461266" lon="11.461465976242257"><ele>150.0</ele><time>2026-04-11T02:06:55Z</time></trkpt><trkpt lat="43.14435376249271" lon="11.461437706282918"><ele>150.85714285714283</ele><time>2026-04-11T02:06:57Z</time></trkpt><trkpt lat="43.1444241133918" lon="11.461400260132784"><ele>151.71428571428572</ele><time>2026-04-11T02:06:59Z</time></trkpt><trkpt lat="43.144492585032566" lon="11.461372147558837"><ele>152.57142857142856</ele><time>2026-04-11T02:07:01Z</time></trkpt><trkpt lat="43.144564819788755" lon="11.461342795810141"><ele>153.42857142857142</ele><time>2026-04-11T02:07:03Z</time></trkpt><trkpt lat="43.14463599111049" lon="11.461306149067198"><ele>154.28571428571428</ele><time>2026-04-11T02:07:05Z</time></trkpt><trkpt lat="43.14470661074469" lon="11.461269973267921"><ele>155.14285714285714</ele><time>2026-04-11T02:07:07Z</time></trkpt><trkpt lat="43.14477502459469" lon="11.461237651005197"><ele>156.0</ele><time>2026-04-11T02:07:09Z</time></trkpt><trkpt lat="43.14484673635732" lon="11.46120555964236"><ele>157.0</ele><time>2026-04-11T02:07:11Z</time></trkpt><trkpt lat="43.14491561393345" lon="11.461161638210925"><ele>158.0</ele><time>2026-04-11T02:07:13Z</time></trkpt><trkpt lat="43.144986702531185" lon="11.461116014925203"><ele>159.0</ele><time>2026-04-11T02:07:15Z</time></trkpt><trkpt lat="43.1450562577957" lon="11.461064866365177"><ele>160.0</ele><time>2026-04-11T02:07:17Z</time></trkpt><trkpt lat="43.14512353654348" lon="11.461006942441353"><ele>161.0</ele><time>2026-04-11T02:07:19Z</time></trkpt><trkpt lat="43.145188358382455" lon="11.460945894183688"><ele>162.0</ele><time>2026-04-11T02:07:21Z</time></trkpt><trkpt lat="43.1452559244768" lon="11.460884060667297"><ele>162.0</ele><time>2026-04-11T02:07:23Z</time></trkpt><trkpt lat="43.1453384613604" lon="11.460842886539291"><ele>162.0</ele><time>2026-04-11T02:07:25Z</time></trkpt><trkpt lat="43.14543100761903" lon="11.460818718875831"><ele>162.0</ele><time>2026-04-11T02:07:27Z</time></trkpt><trkpt lat="43.14553117512586" lon="11.460821740623718"><ele>162.0</ele><time>2026-04-11T02:07:28.999Z</time></trkpt><trkpt lat="43.1456287409531" lon="11.460812168229436"><ele>162.0</ele><time>2026-04-11T02:07:30.999Z</time></trkpt><trkpt lat="43.145730890972416" lon="11.46078819738975"><ele>162.25</ele><time>2026-04-11T02:07:32.999Z</time></trkpt><trkpt lat="43.14583408153781" lon="11.460762973702536"><ele>162.5</ele><time>2026-04-11T02:07:34.999Z</time></trkpt><trkpt lat="43.14593948778855" lon="11.460731776425646"><ele>162.75</ele><time>2026-04-11T02:07:36.999Z</time></trkpt><trkpt lat="43.14605518569571" lon="11.46069197841805"><ele>163.0</ele><time>2026-04-11T02:07:38.999Z</time></trkpt><trkpt lat="43.14617555668242" lon="11.460653082802487"><ele>163.0</ele><time>2026-04-11T02:07:40.999Z</time></trkpt><trkpt lat="43.1462969570654" lon="11.460611675201116"><ele>163.0</ele><time>2026-04-11T02:07:42.999Z</time></trkpt><trkpt lat="43.14641992285255" lon="11.460575491978663"><ele>163.0</ele><time>2026-04-11T02:07:44.999Z</time></trkpt><trkpt lat="43.14654103206814" lon="11.460539746795124"><ele>163.0</ele><time>2026-04-11T02:07:46.999Z</time></trkpt><trkpt lat="43.146657277666726" lon="11.460496655543759"><ele>162.83333333333334</ele><time>2026-04-11T02:07:48.999Z</time></trkpt><trkpt lat="43.14677807971125" lon="11.460459239734725"><ele>162.66666666666669</ele><time>2026-04-11T02:07:50.999Z</time></trkpt><trkpt lat="43.14683972828774" lon="11.46043992886902"><ele>162.5</ele><time>2026-04-11T02:07:51.999Z</time></trkpt><trkpt lat="43.14690171100992" lon="11.460420129546725"><ele>162.33333333333334</ele><time>2026-04-11T02:07:52.999Z</time></trkpt><trkpt lat="43.14696597144958" lon="11.460398050991545"><ele>162.16666666666666</ele><time>2026-04-11T02:07:53.999Z</time></trkpt><trkpt lat="43.147030188237444" lon="11.46037857419297"><ele>162.0</ele><time>2026-04-11T02:07:54.999Z</time></trkpt><trkpt lat="43.14709654007682" lon="11.46035963964051"><ele>161.71428571428572</ele><time>2026-04-11T02:07:55.999Z</time></trkpt><trkpt lat="43.14716316011789" lon="11.460343072361251"><ele>161.42857142857142</ele><time>2026-04-11T02:07:56.999Z</time></trkpt><trkpt lat="43.14723207451008" lon="11.460325675035815"><ele>161.14285714285714</ele><time>2026-04-11T02:07:57.999Z</time></trkpt><trkpt lat="43.14730148878406" lon="11.460306406241944"><ele>160.85714285714286</ele><time>2026-04-11T02:07:58.999Z</time></trkpt><trkpt lat="43.14737588550313" lon="11.46028968855527"><ele>160.57142857142858</ele><time>2026-04-11T02:07:59.999Z</time></trkpt><trkpt lat="43.147452713997374" lon="11.460275628832242"><ele>160.28571428571428</ele><time>2026-04-11T02:08:00.999Z</time></trkpt><trkpt lat="43.147526922552636" lon="11.460264727097906"><ele>160.0</ele><time>2026-04-11T02:08:01.999Z</time></trkpt><trkpt lat="43.147603014302405" lon="11.460256515647608"><ele>159.0</ele><time>2026-04-11T02:08:02.999Z</time></trkpt><trkpt lat="43.14768190415937" lon="11.460249716730726"><ele>158.0</ele><time>2026-04-11T02:08:03.999Z</time></trkpt><trkpt lat="43.14776212271833" lon="11.460250893093155"><ele>157.0</ele><time>2026-04-11T02:08:04.999Z</time></trkpt><trkpt lat="43.14784419374542" lon="11.46026143786598"><ele>156.0</ele><time>2026-04-11T02:08:05.999Z</time></trkpt><trkpt lat="43.14792504041449" lon="11.460277603435971"><ele>155.0</ele><time>2026-04-11T02:08:06.999Z</time></trkpt><trkpt lat="43.14800522924472" lon="11.460302849765007"><ele>154.0</ele><time>2026-04-11T02:08:07.999Z</time></trkpt><trkpt lat="43.14808199891142" lon="11.460337119398433"><ele>154.0</ele><time>2026-04-11T02:08:08.999Z</time></trkpt><trkpt lat="43.148155717539176" lon="11.460379720675784"><ele>154.0</ele><time>2026-04-11T02:08:09.999Z</time></trkpt><trkpt lat="43.148229245385714" lon="11.460426533404647"><ele>154.0</ele><time>2026-04-11T02:08:10.999Z</time></trkpt><trkpt lat="43.1482950607504" lon="11.460485561082756"><ele>154.0</ele><time>2026-04-11T02:08:11.999Z</time></trkpt><trkpt lat="43.14835301858851" lon="11.460549641320815"><ele>154.0</ele><time>2026-04-11T02:08:12.999Z</time></trkpt><trkpt lat="43.14840925064009" lon="11.460621349746312"><ele>154.0</ele><time>2026-04-11T02:08:13.999Z</time></trkpt><trkpt lat="43.14845891503897" lon="11.460702689696008"><ele>153.66666666666669</ele><time>2026-04-11T02:08:14.999Z</time></trkpt><trkpt lat="43.148503890305975" lon="11.46079412739476"><ele>153.33333333333334</ele><time>2026-04-11T02:08:15.999Z</time></trkpt><trkpt lat="43.1485485192919" lon="11.460895859159987"><ele>153.0</ele><time>2026-04-11T02:08:16.999Z</time></trkpt><trkpt lat="43.14859190745951" lon="11.46100153529799"><ele>152.66666666666666</ele><time>2026-04-11T02:08:17.999Z</time></trkpt><trkpt lat="43.14863290543175" lon="11.461108801131514"><ele>152.33333333333331</ele><time>2026-04-11T02:08:18.999Z</time></trkpt><trkpt lat="43.14867710902325" lon="11.461213046865197"><ele>152.0</ele><time>2026-04-11T02:08:19.999Z</time></trkpt><trkpt lat="43.148722306155705" lon="11.461319873488211"><ele>151.6</ele><time>2026-04-11T02:08:20.999Z</time></trkpt><trkpt lat="43.148767259889695" lon="11.461427183755582"><ele>151.2</ele><time>2026-04-11T02:08:21.999Z</time></trkpt><trkpt lat="43.14881144262488" lon="11.461535652132378"><ele>150.8</ele><time>2026-04-11T02:08:22.999Z</time></trkpt><trkpt lat="43.14885649374806" lon="11.461642654301336"><ele>150.4</ele><time>2026-04-11T02:08:23.999Z</time></trkpt><trkpt lat="43.14890188297817" lon="11.461752248231974"><ele>150.0</ele><time>2026-04-11T02:08:24.999Z</time></trkpt><trkpt lat="43.148947347473715" lon="11.46185931971065"><ele>150.0</ele><time>2026-04-11T02:08:25.999Z</time></trkpt><trkpt lat="43.14899130682065" lon="11.461967316155132"><ele>150.0</ele><time>2026-04-11T02:08:26.999Z</time></trkpt><trkpt lat="43.14903189207119" lon="11.46207504880957"><ele>150.0</ele><time>2026-04-11T02:08:27.999Z</time></trkpt><trkpt lat="43.14907319988933" lon="11.462181469626469"><ele>150.0</ele><time>2026-04-11T02:08:28.999Z</time></trkpt><trkpt lat="43.149119439033974" lon="11.462281484476954"><ele>150.0</ele><time>2026-04-11T02:08:29.999Z</time></trkpt><trkpt lat="43.1491650502612" lon="11.462378517101945"><ele>150.0</ele><time>2026-04-11T02:08:30.999Z</time></trkpt><trkpt lat="43.14920972871285" lon="11.4624754258325"><ele>149.0</ele><time>2026-04-11T02:08:31.999Z</time></trkpt><trkpt lat="43.14925576951396" lon="11.462571876474431"><ele>148.0</ele><time>2026-04-11T02:08:32.999Z</time></trkpt><trkpt lat="43.14930635594655" lon="11.462664559303908"><ele>147.0</ele><time>2026-04-11T02:08:33.999Z</time></trkpt><trkpt lat="43.14936016423462" lon="11.462751603953677"><ele>146.0</ele><time>2026-04-11T02:08:34.999Z</time></trkpt><trkpt lat="43.149416612846935" lon="11.462837168269644"><ele>145.0</ele><time>2026-04-11T02:08:35.999Z</time></trkpt><trkpt lat="43.14947642013178" lon="11.462913076667293"><ele>144.0</ele><time>2026-04-11T02:08:36.999Z</time></trkpt><trkpt lat="43.14954127319483" lon="11.462984651568489"><ele>144.0</ele><time>2026-04-11T02:08:37.999Z</time></trkpt><trkpt lat="43.14960916235169" lon="11.463048485081812"><ele>144.0</ele><time>2026-04-11T02:08:38.999Z</time></trkpt><trkpt lat="43.14968153974679" lon="11.463099713065622"><ele>144.0</ele><time>2026-04-11T02:08:39.999Z</time></trkpt><trkpt lat="43.14975800200214" lon="11.463135404463296"><ele>144.0</ele><time>2026-04-11T02:08:40.999Z</time></trkpt><trkpt lat="43.149838874169006" lon="11.463151760396363"><ele>144.0</ele><time>2026-04-11T02:08:41.999Z</time></trkpt><trkpt lat="43.14991677058762" lon="11.46314612138394"><ele>144.0</ele><time>2026-04-11T02:08:42.999Z</time></trkpt><trkpt lat="43.14999421385759" lon="11.463120187946743"><ele>144.0</ele><time>2026-04-11T02:08:43.999Z</time></trkpt><trkpt lat="43.15006804958686" lon="11.463084067693702"><ele>144.0</ele><time>2026-04-11T02:08:44.999Z</time></trkpt><trkpt lat="43.15014133155771" lon="11.463048626785307"><ele>144.0</ele><time>2026-04-11T02:08:45.999Z</time></trkpt><trkpt lat="43.15021265723854" lon="11.463010239407017"><ele>144.0</ele><time>2026-04-11T02:08:46.999Z</time></trkpt><trkpt lat="43.15028334165529" lon="11.462971561564109"><ele>144.0</ele><time>2026-04-11T02:08:47.999Z</time></trkpt><trkpt lat="43.1503520072133" lon="11.462929274428372"><ele>144.0</ele><time>2026-04-11T02:08:48.999Z</time></trkpt><trkpt lat="43.15042261637641" lon="11.462890968231699"><ele>144.00000000000003</ele><time>2026-04-11T02:08:49.999Z</time></trkpt><trkpt lat="43.1504912216885" lon="11.462849136688863"><ele>144.0</ele><time>2026-04-11T02:08:50.999Z</time></trkpt><trkpt lat="43.15055981137149" lon="11.462808470202173"><ele>144.0</ele><time>2026-04-11T02:08:51.999Z</time></trkpt><trkpt lat="43.15063002439004" lon="11.462772076591008"><ele>144.0</ele><time>2026-04-11T02:08:52.999Z</time></trkpt><trkpt lat="43.150699784679816" lon="11.462736255004712"><ele>144.0</ele><time>2026-04-11T02:08:53.999Z</time></trkpt><trkpt lat="43.15076856827935" lon="11.462697698845556"><ele>144.00000000000003</ele><time>2026-04-11T02:08:54.999Z</time></trkpt><trkpt lat="43.15083790206182" lon="11.462657814485036"><ele>144.0</ele><time>2026-04-11T02:08:56Z</time></trkpt><trkpt lat="43.15090825336026" lon="11.462620623592459"><ele>144.00000000000003</ele><time>2026-04-11T02:08:57Z</time></trkpt><trkpt lat="43.1509760246445" lon="11.462580743180812"><ele>144.0</ele><time>2026-04-11T02:08:58Z</time></trkpt><trkpt lat="43.15104653078448" lon="11.462545924504443"><ele>144.0</ele><time>2026-04-11T02:08:59Z</time></trkpt><trkpt lat="43.15111511155825" lon="11.462508546305154"><ele>144.0</ele><time>2026-04-11T02:09:00Z</time></trkpt><trkpt lat="43.151183206564724" lon="11.462470430577739"><ele>144.0</ele><time>2026-04-11T02:09:01Z</time></trkpt><trkpt lat="43.1512517522989" lon="11.462431665225461"><ele>144.00000000000003</ele><time>2026-04-11T02:09:02Z</time></trkpt><trkpt lat="43.15132169923546" lon="11.46239584273755"><ele>144.0</ele><time>2026-04-11T02:09:03Z</time></trkpt><trkpt lat="43.151390571860084" lon="11.462359630890235"><ele>144.00000000000003</ele><time>2026-04-11T02:09:04Z</time></trkpt><trkpt lat="43.15146021052731" lon="11.462322531427835"><ele>144.0</ele><time>2026-04-11T02:09:05Z</time></trkpt><trkpt lat="43.151528692262715" lon="11.462284474718182"><ele>144.0</ele><time>2026-04-11T02:09:06Z</time></trkpt><trkpt lat="43.151597739233985" lon="11.462247153570383"><ele>144.0</ele><time>2026-04-11T02:09:07Z</time></trkpt><trkpt lat="43.15166772363488" lon="11.46221200704071"><ele>144.0</ele><time>2026-04-11T02:09:08Z</time></trkpt><trkpt lat="43.15173607560595" lon="11.462176504525392"><ele>144.00000000000003</ele><time>2026-04-11T02:09:09Z</time></trkpt><trkpt lat="43.15180576142629" lon="11.462141808834408"><ele>144.0</ele><time>2026-04-11T02:09:10Z</time></trkpt><trkpt lat="43.1518734416535" lon="11.462104013690203"><ele>143.85714285714286</ele><time>2026-04-11T02:09:11Z</time></trkpt><trkpt lat="43.15194336205781" lon="11.462065503818847"><ele>143.71428571428572</ele><time>2026-04-11T02:09:12Z</time></trkpt><trkpt lat="43.152012056939355" lon="11.462027225744107"><ele>143.57142857142856</ele><time>2026-04-11T02:09:13Z</time></trkpt><trkpt lat="43.15208062803391" lon="11.461989886621236"><ele>143.42857142857144</ele><time>2026-04-11T02:09:14Z</time></trkpt><trkpt lat="43.15214934818548" lon="11.461954291113663"><ele>143.28571428571428</ele><time>2026-04-11T02:09:15Z</time></trkpt><trkpt lat="43.15221711552906" lon="11.461916506383671"><ele>143.14285714285714</ele><time>2026-04-11T02:09:16Z</time></trkpt><trkpt lat="43.15228415063098" lon="11.46188201553431"><ele>143.0</ele><time>2026-04-11T02:09:17Z</time></trkpt><trkpt lat="43.152350144554944" lon="11.4618464893139"><ele>143.28571428571428</ele><time>2026-04-11T02:09:18Z</time></trkpt><trkpt lat="43.15241493508433" lon="11.461812162752555"><ele>143.57142857142856</ele><time>2026-04-11T02:09:19Z</time></trkpt><trkpt lat="43.15248048912818" lon="11.461780623074786"><ele>143.85714285714286</ele><time>2026-04-11T02:09:20Z</time></trkpt><trkpt lat="43.15254760227591" lon="11.46174751839933"><ele>144.14285714285714</ele><time>2026-04-11T02:09:21Z</time></trkpt><trkpt lat="43.15261294597039" lon="11.461716901650611"><ele>144.42857142857144</ele><time>2026-04-11T02:09:22Z</time></trkpt><trkpt lat="43.15267710954384" lon="11.46168199183035"><ele>144.71428571428572</ele><time>2026-04-11T02:09:23Z</time></trkpt><trkpt lat="43.152740095042" lon="11.461644513600724"><ele>145.0</ele><time>2026-04-11T02:09:24Z</time></trkpt><trkpt lat="43.15280369633807" lon="11.461608078563092"><ele>145.0</ele><time>2026-04-11T02:09:25Z</time></trkpt><trkpt lat="43.152868345864604" lon="11.461577679411787"><ele>145.0</ele><time>2026-04-11T02:09:26Z</time></trkpt><trkpt lat="43.15293466289294" lon="11.461547506306147"><ele>145.0</ele><time>2026-04-11T02:09:27Z</time></trkpt><trkpt lat="43.1529970368938" lon="11.461514217045154"><ele>145.0</ele><time>2026-04-11T02:09:28Z</time></trkpt><trkpt lat="43.153060129110855" lon="11.461481065554633"><ele>145.0</ele><time>2026-04-11T02:09:28.999Z</time></trkpt><trkpt lat="43.153121104579085" lon="11.461447554066506"><ele>145.0</ele><time>2026-04-11T02:09:29.999Z</time></trkpt><trkpt lat="43.153181515111115" lon="11.461411101988258"><ele>145.0</ele><time>2026-04-11T02:09:30.999Z</time></trkpt><trkpt lat="43.153242535876295" lon="11.461377389840017"><ele>144.83333333333334</ele><time>2026-04-11T02:09:31.999Z</time></trkpt><trkpt lat="43.153304436290945" lon="11.461349439391691"><ele>144.66666666666669</ele><time>2026-04-11T02:09:32.999Z</time></trkpt><trkpt lat="43.1533652597228" lon="11.461322594469436"><ele>144.5</ele><time>2026-04-11T02:09:33.999Z</time></trkpt><trkpt lat="43.15342477636943" lon="11.461293579676783"><ele>144.33333333333334</ele><time>2026-04-11T02:09:34.999Z</time></trkpt><trkpt lat="43.15353904010265" lon="11.461226008044996"><ele>144.16666666666666</ele><time>2026-04-11T02:09:36.999Z</time></trkpt><trkpt lat="43.153653486138275" lon="11.461159153650023"><ele>144.0</ele><time>2026-04-11T02:09:38.999Z</time></trkpt><trkpt lat="43.153771110208176" lon="11.461104015230486"><ele>144.5</ele><time>2026-04-11T02:09:40.999Z</time></trkpt><trkpt lat="43.15388620409336" lon="11.461044673152452"><ele>145.0</ele><time>2026-04-11T02:09:42.999Z</time></trkpt><trkpt lat="43.15400250736574" lon="11.460986627306596"><ele>145.5</ele><time>2026-04-11T02:09:44.999Z</time></trkpt><trkpt lat="43.15411694186172" lon="11.460924969328174"><ele>146.0</ele><time>2026-04-11T02:09:46.999Z</time></trkpt><trkpt lat="43.15423108101793" lon="11.460863540513529"><ele>146.0</ele><time>2026-04-11T02:09:48.999Z</time></trkpt><trkpt lat="43.15434613271975" lon="11.46080312624913"><ele>146.0</ele><time>2026-04-11T02:09:50.999Z</time></trkpt><trkpt lat="43.154458254737875" lon="11.460741461718957"><ele>146.0</ele><time>2026-04-11T02:09:52.999Z</time></trkpt><trkpt lat="43.154573628213655" lon="11.460682355000902"><ele>146.0</ele><time>2026-04-11T02:09:54.999Z</time></trkpt><trkpt lat="43.154684707783574" lon="11.460622758077502"><ele>146.0</ele><time>2026-04-11T02:09:56.999Z</time></trkpt><trkpt lat="43.154801152455015" lon="11.460564330548648"><ele>146.0</ele><time>2026-04-11T02:09:58.999Z</time></trkpt><trkpt lat="43.15491593044753" lon="11.460503256903026"><ele>146.0</ele><time>2026-04-11T02:10:00.999Z</time></trkpt><trkpt lat="43.15502949480967" lon="11.460442993636054"><ele>146.0</ele><time>2026-04-11T02:10:02.999Z</time></trkpt><trkpt lat="43.15514438397486" lon="11.460385667014297"><ele>146.0</ele><time>2026-04-11T02:10:04.999Z</time></trkpt><trkpt lat="43.15525665228838" lon="11.460322628652458"><ele>146.0</ele><time>2026-04-11T02:10:06.999Z</time></trkpt><trkpt lat="43.15536863542154" lon="11.460260239126812"><ele>146.0</ele><time>2026-04-11T02:10:08.999Z</time></trkpt><trkpt lat="43.15548469010847" lon="11.460202062024416"><ele>146.0</ele><time>2026-04-11T02:10:10.999Z</time></trkpt><trkpt lat="43.155598506187594" lon="11.460141834971774"><ele>146.0</ele><time>2026-04-11T02:10:12.999Z</time></trkpt><trkpt lat="43.15571039368927" lon="11.460080452923423"><ele>146.0</ele><time>2026-04-11T02:10:14.999Z</time></trkpt><trkpt lat="43.15582589653741" lon="11.460020222314299"><ele>146.0</ele><time>2026-04-11T02:10:16.999Z</time></trkpt><trkpt lat="43.15594038123945" lon="11.459960850626297"><ele>146.0</ele><time>2026-04-11T02:10:18.999Z</time></trkpt><trkpt lat="43.156052189725166" lon="11.45989588524934"><ele>146.0</ele><time>2026-04-11T02:10:20.999Z</time></trkpt><trkpt lat="43.15616878281508" lon="11.459837160198669"><ele>146.0</ele><time>2026-04-11T02:10:22.999Z</time></trkpt><trkpt lat="43.15628868750776" lon="11.459783402885181"><ele>146.0</ele><time>2026-04-11T02:10:24.999Z</time></trkpt><trkpt lat="43.15640270300845" lon="11.45971922744655"><ele>146.0</ele><time>2026-04-11T02:10:26.999Z</time></trkpt><trkpt lat="43.15646250003898" lon="11.459685492332365"><ele>146.0</ele><time>2026-04-11T02:10:27.999Z</time></trkpt><trkpt lat="43.15652231477582" lon="11.45965487492067"><ele>146.0</ele><time>2026-04-11T02:10:28.999Z</time></trkpt><trkpt lat="43.15658379144028" lon="11.45962327641663"><ele>146.0</ele><time>2026-04-11T02:10:29.999Z</time></trkpt><trkpt lat="43.15664278622105" lon="11.459592119960154"><ele>146.0</ele><time>2026-04-11T02:10:30.999Z</time></trkpt><trkpt lat="43.156703374345405" lon="11.459559076889693"><ele>146.0</ele><time>2026-04-11T02:10:31.999Z</time></trkpt><trkpt lat="43.15682100194888" lon="11.45949898304889"><ele>146.0</ele><time>2026-04-11T02:10:33.999Z</time></trkpt><trkpt lat="43.15688252845068" lon="11.459469166753909"><ele>146.0</ele><time>2026-04-11T02:10:34.999Z</time></trkpt><trkpt lat="43.15694156861929" lon="11.45943693693559"><ele>146.0</ele><time>2026-04-11T02:10:35.999Z</time></trkpt><trkpt lat="43.156999810420885" lon="11.45940069259088"><ele>146.0</ele><time>2026-04-11T02:10:36.999Z</time></trkpt><trkpt lat="43.15705924988848" lon="11.459366747101772"><ele>146.0</ele><time>2026-04-11T02:10:37.999Z</time></trkpt><trkpt lat="43.157177482780554" lon="11.459306753118536"><ele>146.0</ele><time>2026-04-11T02:10:39.999Z</time></trkpt><trkpt lat="43.15723758542496" lon="11.459275121074478"><ele>146.0</ele><time>2026-04-11T02:10:40.999Z</time></trkpt><trkpt lat="43.15729645329107" lon="11.459242919929675"><ele>146.0</ele><time>2026-04-11T02:10:41.999Z</time></trkpt><trkpt lat="43.157356739457136" lon="11.459212069436452"><ele>146.0</ele><time>2026-04-11T02:10:42.999Z</time></trkpt><trkpt lat="43.157416460625456" lon="11.459180505011615"><ele>146.0</ele><time>2026-04-11T02:10:43.999Z</time></trkpt><trkpt lat="43.15747556360274" lon="11.459148660618961"><ele>146.0</ele><time>2026-04-11T02:10:44.999Z</time></trkpt><trkpt lat="43.15753473364673" lon="11.459115129773012"><ele>146.0</ele><time>2026-04-11T02:10:45.999Z</time></trkpt><trkpt lat="43.157593393534945" lon="11.459082818405813"><ele>146.0</ele><time>2026-04-11T02:10:46.999Z</time></trkpt><trkpt lat="43.15765391760173" lon="11.459052529980159"><ele>146.0</ele><time>2026-04-11T02:10:47.999Z</time></trkpt><trkpt lat="43.15771299453766" lon="11.459019475694383"><ele>146.0</ele><time>2026-04-11T02:10:48.999Z</time></trkpt><trkpt lat="43.15777104677926" lon="11.45898458027912"><ele>146.0</ele><time>2026-04-11T02:10:49.999Z</time></trkpt><trkpt lat="43.15782976344363" lon="11.458950227904932"><ele>146.0</ele><time>2026-04-11T02:10:50.999Z</time></trkpt><trkpt lat="43.15794507815879" lon="11.458888301352363"><ele>146.0</ele><time>2026-04-11T02:10:52.999Z</time></trkpt><trkpt lat="43.158005494166396" lon="11.458861869086835"><ele>146.0</ele><time>2026-04-11T02:10:53.999Z</time></trkpt><trkpt lat="43.15812242487993" lon="11.458801012544164"><ele>146.0</ele><time>2026-04-11T02:10:55.999Z</time></trkpt><trkpt lat="43.1581827529926" lon="11.458773954304617"><ele>146.0</ele><time>2026-04-11T02:10:56.999Z</time></trkpt><trkpt lat="43.15824200403457" lon="11.458742804819403"><ele>146.0</ele><time>2026-04-11T02:10:57.999Z</time></trkpt><trkpt lat="43.15830073317318" lon="11.458709108603339"><ele>146.0</ele><time>2026-04-11T02:10:58.999Z</time></trkpt><trkpt lat="43.1583604768603" lon="11.45867633017307"><ele>146.0</ele><time>2026-04-11T02:10:59.999Z</time></trkpt><trkpt lat="43.15847869210909" lon="11.458612316461657"><ele>145.83333333333331</ele><time>2026-04-11T02:11:02Z</time></trkpt><trkpt lat="43.15853866035222" lon="11.458582306122251"><ele>145.66666666666666</ele><time>2026-04-11T02:11:03Z</time></trkpt><trkpt lat="43.15859834791121" lon="11.458548974073096"><ele>145.5</ele><time>2026-04-11T02:11:04Z</time></trkpt><trkpt lat="43.158656606548796" lon="11.45851585628452"><ele>145.33333333333334</ele><time>2026-04-11T02:11:05Z</time></trkpt><trkpt lat="43.15877351380055" lon="11.458453560909037"><ele>145.16666666666669</ele><time>2026-04-11T02:11:07Z</time></trkpt><trkpt lat="43.15889466714872" lon="11.45839797599288"><ele>145.0</ele><time>2026-04-11T02:11:09Z</time></trkpt><trkpt lat="43.15895319055231" lon="11.458362296944399"><ele>145.14285714285714</ele><time>2026-04-11T02:11:10Z</time></trkpt><trkpt lat="43.15907054849617" lon="11.458298638621244"><ele>145.2857142857143</ele><time>2026-04-11T02:11:12Z</time></trkpt><trkpt lat="43.15913039918314" lon="11.458268314962073"><ele>145.42857142857144</ele><time>2026-04-11T02:11:13Z</time></trkpt><trkpt lat="43.15918940744859" lon="11.458237768079188"><ele>145.57142857142858</ele><time>2026-04-11T02:11:14Z</time></trkpt><trkpt lat="43.159248589301086" lon="11.458206804070832"><ele>145.71428571428572</ele><time>2026-04-11T02:11:15Z</time></trkpt><trkpt lat="43.159308117321316" lon="11.458177477546144"><ele>145.85714285714286</ele><time>2026-04-11T02:11:16Z</time></trkpt><trkpt lat="43.15936772067146" lon="11.458146953749665"><ele>146.0</ele><time>2026-04-11T02:11:17Z</time></trkpt><trkpt lat="43.15948182595602" lon="11.458086692449102"><ele>146.0</ele><time>2026-04-11T02:11:19Z</time></trkpt><trkpt lat="43.15959733993589" lon="11.458023165305596"><ele>146.0</ele><time>2026-04-11T02:11:21Z</time></trkpt><trkpt lat="43.159715396032226" lon="11.457962952289066"><ele>146.0</ele><time>2026-04-11T02:11:23Z</time></trkpt><trkpt lat="43.15977404272776" lon="11.457929200526728"><ele>146.0</ele><time>2026-04-11T02:11:24Z</time></trkpt><trkpt lat="43.15988990592405" lon="11.457864289650745"><ele>146.0</ele><time>2026-04-11T02:11:26Z</time></trkpt><trkpt lat="43.16000578515823" lon="11.457803212324093"><ele>146.0</ele><time>2026-04-11T02:11:28Z</time></trkpt><trkpt lat="43.160120130232315" lon="11.457737965246016"><ele>146.0</ele><time>2026-04-11T02:11:30Z</time></trkpt><trkpt lat="43.160179635574" lon="11.457707216244398"><ele>146.0</ele><time>2026-04-11T02:11:31Z</time></trkpt><trkpt lat="43.1602868855407" lon="11.457622027364655"><ele>146.0</ele><time>2026-04-11T02:11:33Z</time></trkpt><trkpt lat="43.160333708407826" lon="11.457563014896708"><ele>146.0</ele><time>2026-04-11T02:11:34Z</time></trkpt><trkpt lat="43.16040193480769" lon="11.457417830047687"><ele>146.0</ele><time>2026-04-11T02:11:35.999Z</time></trkpt><trkpt lat="43.16042318322477" lon="11.457333307605664"><ele>146.0</ele><time>2026-04-11T02:11:36.999Z</time></trkpt><trkpt lat="43.16043387162173" lon="11.45724732419589"><ele>146.0</ele><time>2026-04-11T02:11:37.999Z</time></trkpt><trkpt lat="43.1604483709754" lon="11.457088985774565"><ele>146.0</ele><time>2026-04-11T02:11:39.999Z</time></trkpt><trkpt lat="43.160504046677225" lon="11.456968081098399"><ele>146.0</ele><time>2026-04-11T02:11:41.999Z</time></trkpt><trkpt lat="43.16055592682787" lon="11.456857944475521"><ele>146.0</ele><time>2026-04-11T02:11:43.999Z</time></trkpt><trkpt lat="43.160649985817166" lon="11.45683781172965"><ele>146.4</ele><time>2026-04-11T02:11:45.999Z</time></trkpt><trkpt lat="43.160771639050736" lon="11.456911069514291"><ele>146.8</ele><time>2026-04-11T02:11:48.999Z</time></trkpt><trkpt lat="43.16082920551153" lon="11.456994478000789"><ele>147.20000000000002</ele><time>2026-04-11T02:11:50.999Z</time></trkpt><trkpt lat="43.16086181357426" lon="11.457096429379884"><ele>147.6</ele><time>2026-04-11T02:11:52.999Z</time></trkpt><trkpt lat="43.16089511068777" lon="11.457202285855745"><ele>148.0</ele><time>2026-04-11T02:11:54.999Z</time></trkpt><trkpt lat="43.16092218752545" lon="11.45731033905146"><ele>148.0</ele><time>2026-04-11T02:11:56.999Z</time></trkpt><trkpt lat="43.160946045742136" lon="11.457418401029685"><ele>148.0</ele><time>2026-04-11T02:11:58.999Z</time></trkpt><trkpt lat="43.16098524901633" lon="11.45754834454315"><ele>148.0</ele><time>2026-04-11T02:12:00.999Z</time></trkpt><trkpt lat="43.161018189101036" lon="11.45765107437401"><ele>148.0</ele><time>2026-04-11T02:12:02.999Z</time></trkpt><trkpt lat="43.16105839091372" lon="11.457816660881491"><ele>148.0</ele><time>2026-04-11T02:12:04.999Z</time></trkpt><trkpt lat="43.16109567724654" lon="11.458081634185422"><ele>147.8</ele><time>2026-04-11T02:12:06.999Z</time></trkpt><trkpt lat="43.16110656130501" lon="11.45821169279739"><ele>147.60000000000002</ele><time>2026-04-11T02:12:07.999Z</time></trkpt><trkpt lat="43.161115902470335" lon="11.458339007620182"><ele>147.39999999999998</ele><time>2026-04-11T02:12:08.999Z</time></trkpt><trkpt lat="43.16112421768481" lon="11.45846424980762"><ele>147.2</ele><time>2026-04-11T02:12:09.999Z</time></trkpt><trkpt lat="43.161133328027" lon="11.458598584573721"><ele>147.0</ele><time>2026-04-11T02:12:10.999Z</time></trkpt><trkpt lat="43.16114446214982" lon="11.45873094677974"><ele>146.79999999999998</ele><time>2026-04-11T02:12:11.999Z</time></trkpt><trkpt lat="43.16115794656164" lon="11.458863079492362"><ele>146.6</ele><time>2026-04-11T02:12:12.999Z</time></trkpt><trkpt lat="43.161170846343836" lon="11.458990252804124"><ele>146.39999999999998</ele><time>2026-04-11T02:12:13.999Z</time></trkpt><trkpt lat="43.161180384491" lon="11.459115436935074"><ele>146.2</ele><time>2026-04-11T02:12:14.999Z</time></trkpt><trkpt lat="43.161194473930635" lon="11.45924045378883"><ele>146.0</ele><time>2026-04-11T02:12:15.999Z</time></trkpt><trkpt lat="43.16121441577486" lon="11.459361287341473"><ele>146.0</ele><time>2026-04-11T02:12:16.999Z</time></trkpt><trkpt lat="43.16123375624208" lon="11.459475806619164"><ele>146.0</ele><time>2026-04-11T02:12:17.999Z</time></trkpt><trkpt lat="43.16125194764723" lon="11.459592673099328"><ele>146.0</ele><time>2026-04-11T02:12:18.999Z</time></trkpt><trkpt lat="43.1612543772621" lon="11.459710356468756"><ele>146.0</ele><time>2026-04-11T02:12:19.999Z</time></trkpt><trkpt lat="43.16127405325282" lon="11.459819077485879"><ele>146.0</ele><time>2026-04-11T02:12:20.999Z</time></trkpt><trkpt lat="43.16130873162217" lon="11.459921449499245"><ele>146.0</ele><time>2026-04-11T02:12:21.999Z</time></trkpt><trkpt lat="43.16132765501898" lon="11.460027355409675"><ele>146.0</ele><time>2026-04-11T02:12:22.999Z</time></trkpt><trkpt lat="43.16135739238525" lon="11.460133673377898"><ele>146.0</ele><time>2026-04-11T02:12:23.999Z</time></trkpt><trkpt lat="43.16139735748318" lon="11.46023297681352"><ele>146.0</ele><time>2026-04-11T02:12:24.999Z</time></trkpt><trkpt lat="43.16143930597352" lon="11.460321115898958"><ele>146.0</ele><time>2026-04-11T02:12:25.999Z</time></trkpt><trkpt lat="43.16150133574812" lon="11.460399361250875"><ele>146.0</ele><time>2026-04-11T02:12:26.999Z</time></trkpt><trkpt lat="43.161564985306086" lon="11.460466998250114"><ele>146.0</ele><time>2026-04-11T02:12:27.999Z</time></trkpt><trkpt lat="43.16162834630523" lon="11.460528857365924"><ele>145.83333333333331</ele><time>2026-04-11T02:12:28.999Z</time></trkpt><trkpt lat="43.161693758321974" lon="11.46058828660266"><ele>145.66666666666666</ele><time>2026-04-11T02:12:29.999Z</time></trkpt><trkpt lat="43.161754967781604" lon="11.460655017384886"><ele>145.5</ele><time>2026-04-11T02:12:30.999Z</time></trkpt><trkpt lat="43.16181751694374" lon="11.46071309543054"><ele>145.33333333333334</ele><time>2026-04-11T02:12:31.999Z</time></trkpt><trkpt lat="43.16187773358398" lon="11.460774818461289"><ele>145.16666666666669</ele><time>2026-04-11T02:12:32.999Z</time></trkpt><trkpt lat="43.161936667032855" lon="11.460842125595503"><ele>145.0</ele><time>2026-04-11T02:12:33.999Z</time></trkpt><trkpt lat="43.16199451623335" lon="11.460907894414152"><ele>145.0</ele><time>2026-04-11T02:12:34.999Z</time></trkpt><trkpt lat="43.162054424541765" lon="11.460963797567453"><ele>145.0</ele><time>2026-04-11T02:12:35.999Z</time></trkpt><trkpt lat="43.16211039616431" lon="11.461022119100418"><ele>145.0</ele><time>2026-04-11T02:12:36.999Z</time></trkpt><trkpt lat="43.16216862937867" lon="11.461080616464209"><ele>145.0</ele><time>2026-04-11T02:12:37.999Z</time></trkpt><trkpt lat="43.16222443074084" lon="11.461132461724228"><ele>145.0</ele><time>2026-04-11T02:12:38.999Z</time></trkpt><trkpt lat="43.162280634059286" lon="11.461196655805034"><ele>145.0</ele><time>2026-04-11T02:12:39.999Z</time></trkpt><trkpt lat="43.16233654862995" lon="11.461255078135496"><ele>145.0</ele><time>2026-04-11T02:12:40.999Z</time></trkpt><trkpt lat="43.16239281100046" lon="11.461315106039553"><ele>144.71428571428572</ele><time>2026-04-11T02:12:41.999Z</time></trkpt><trkpt lat="43.162449214741855" lon="11.461371815494159"><ele>144.42857142857144</ele><time>2026-04-11T02:12:42.999Z</time></trkpt><trkpt lat="43.162506058661904" lon="11.461432312237964"><ele>144.14285714285714</ele><time>2026-04-11T02:12:43.999Z</time></trkpt><trkpt lat="43.16256339315351" lon="11.461487767275013"><ele>143.85714285714286</ele><time>2026-04-11T02:12:44.999Z</time></trkpt><trkpt lat="43.16261913300085" lon="11.461549548964477"><ele>143.57142857142856</ele><time>2026-04-11T02:12:45.999Z</time></trkpt><trkpt lat="43.16267671899123" lon="11.461607408652803"><ele>143.28571428571428</ele><time>2026-04-11T02:12:46.999Z</time></trkpt><trkpt lat="43.16273619494585" lon="11.461667123217763"><ele>143.0</ele><time>2026-04-11T02:12:47.999Z</time></trkpt><trkpt lat="43.16279709744086" lon="11.461723038199196"><ele>143.0</ele><time>2026-04-11T02:12:48.999Z</time></trkpt><trkpt lat="43.16285594148964" lon="11.461790054038056"><ele>143.0</ele><time>2026-04-11T02:12:49.999Z</time></trkpt><trkpt lat="43.162917706907514" lon="11.461853269615268"><ele>143.0</ele><time>2026-04-11T02:12:50.999Z</time></trkpt><trkpt lat="43.16297946418208" lon="11.461914514948012"><ele>143.0</ele><time>2026-04-11T02:12:51.999Z</time></trkpt><trkpt lat="43.16304569706892" lon="11.461970035615478"><ele>143.0</ele><time>2026-04-11T02:12:52.999Z</time></trkpt><trkpt lat="43.16311361966549" lon="11.462021425087986"><ele>143.0</ele><time>2026-04-11T02:12:53.999Z</time></trkpt><trkpt lat="43.16318344678614" lon="11.462064321832727"><ele>143.0</ele><time>2026-04-11T02:12:54.999Z</time></trkpt><trkpt lat="43.16325282082726" lon="11.462108076928569"><ele>143.0</ele><time>2026-04-11T02:12:55.999Z</time></trkpt><trkpt lat="43.16332556378332" lon="11.462149393407586"><ele>143.0</ele><time>2026-04-11T02:12:56.999Z</time></trkpt><trkpt lat="43.16339537156678" lon="11.462192237965501"><ele>143.0</ele><time>2026-04-11T02:12:57.999Z</time></trkpt><trkpt lat="43.163463709196385" lon="11.462239423622202"><ele>143.0</ele><time>2026-04-11T02:12:58.999Z</time></trkpt><trkpt lat="43.16352469026586" lon="11.46229743551997"><ele>143.0</ele><time>2026-04-11T02:12:59.999Z</time></trkpt><trkpt lat="43.163556152527384" lon="11.462388027498266"><ele>142.99999999999997</ele><time>2026-04-11T02:13:00.999Z</time></trkpt><trkpt lat="43.16360083849246" lon="11.462464580165602"><ele>143.0</ele><time>2026-04-11T02:13:01.999Z</time></trkpt><trkpt lat="43.16363096986921" lon="11.462549796731919"><ele>143.0</ele><time>2026-04-11T02:13:02.999Z</time></trkpt><trkpt lat="43.163662840001855" lon="11.462633850157813"><ele>143.0</ele><time>2026-04-11T02:13:03.999Z</time></trkpt><trkpt lat="43.16370465594854" lon="11.462708023040419"><ele>143.0</ele><time>2026-04-11T02:13:04.999Z</time></trkpt><trkpt lat="43.16375881611275" lon="11.462775403283997"><ele>142.99999999999997</ele><time>2026-04-11T02:13:05.999Z</time></trkpt><trkpt lat="43.16381728820833" lon="11.462820152880454"><ele>143.0</ele><time>2026-04-11T02:13:07Z</time></trkpt><trkpt lat="43.163875979043894" lon="11.462858951718214"><ele>143.0</ele><time>2026-04-11T02:13:08Z</time></trkpt><trkpt lat="43.16398871635908" lon="11.462927735410792"><ele>143.0</ele><time>2026-04-11T02:13:10Z</time></trkpt><trkpt lat="43.1641039481245" lon="11.462983199266182"><ele>143.0</ele><time>2026-04-11T02:13:12Z</time></trkpt><trkpt lat="43.16421290024486" lon="11.46306434026073"><ele>143.0</ele><time>2026-04-11T02:13:14Z</time></trkpt><trkpt lat="43.164319507400656" lon="11.463158983035617"><ele>143.16666666666666</ele><time>2026-04-11T02:13:16Z</time></trkpt><trkpt lat="43.16437521658265" lon="11.463204172557187"><ele>143.33333333333331</ele><time>2026-04-11T02:13:17Z</time></trkpt><trkpt lat="43.16442808245056" lon="11.46325128713643"><ele>143.5</ele><time>2026-04-11T02:13:18Z</time></trkpt><trkpt lat="43.16447992927647" lon="11.463302072561783"><ele>143.66666666666666</ele><time>2026-04-11T02:13:19Z</time></trkpt><trkpt lat="43.16457723406783" lon="11.463410084852317"><ele>143.83333333333334</ele><time>2026-04-11T02:13:21Z</time></trkpt><trkpt lat="43.16466142901358" lon="11.463513620758619"><ele>144.0</ele><time>2026-04-11T02:13:23Z</time></trkpt><trkpt lat="43.16475612263109" lon="11.463618233111715"><ele>144.00000000000003</ele><time>2026-04-11T02:13:25Z</time></trkpt><trkpt lat="43.164808523879906" lon="11.46367332287976"><ele>144.0</ele><time>2026-04-11T02:13:26Z</time></trkpt><trkpt lat="43.16486585949734" lon="11.463729603754611"><ele>144.0</ele><time>2026-04-11T02:13:27Z</time></trkpt><trkpt lat="43.16492099564662" lon="11.463779209668342"><ele>144.0</ele><time>2026-04-11T02:13:28Z</time></trkpt><trkpt lat="43.16497487122658" lon="11.463830104952425"><ele>144.0</ele><time>2026-04-11T02:13:29Z</time></trkpt><trkpt lat="43.165028844209594" lon="11.463884546567934"><ele>144.00000000000003</ele><time>2026-04-11T02:13:30Z</time></trkpt><trkpt lat="43.16508845173988" lon="11.463936173283548"><ele>144.0</ele><time>2026-04-11T02:13:31Z</time></trkpt><trkpt lat="43.16514893656482" lon="11.463980789876972"><ele>144.14285714285717</ele><time>2026-04-11T02:13:32Z</time></trkpt><trkpt lat="43.16521292608169" lon="11.464022142609158"><ele>144.28571428571428</ele><time>2026-04-11T02:13:33Z</time></trkpt><trkpt lat="43.16527748068383" lon="11.46405460060696"><ele>144.42857142857144</ele><time>2026-04-11T02:13:34Z</time></trkpt><trkpt lat="43.1653353944811" lon="11.464090223614797"><ele>144.57142857142858</ele><time>2026-04-11T02:13:35Z</time></trkpt><trkpt lat="43.16539458853772" lon="11.464128812941816"><ele>144.71428571428572</ele><time>2026-04-11T02:13:35.999Z</time></trkpt><trkpt lat="43.16545080844614" lon="11.46417245580848"><ele>144.85714285714286</ele><time>2026-04-11T02:13:36.999Z</time></trkpt><trkpt lat="43.165507633543974" lon="11.464215081512899"><ele>145.0</ele><time>2026-04-11T02:13:37.999Z</time></trkpt><trkpt lat="43.16561770043754" lon="11.4642908359931"><ele>145.25</ele><time>2026-04-11T02:13:39.999Z</time></trkpt><trkpt lat="43.16572305485844" lon="11.464364640251175"><ele>145.5</ele><time>2026-04-11T02:13:41.999Z</time></trkpt><trkpt lat="43.165825011827216" lon="11.46443541322794"><ele>145.75</ele><time>2026-04-11T02:13:43.999Z</time></trkpt><trkpt lat="43.16593288389575" lon="11.464485133123963"><ele>146.0</ele><time>2026-04-11T02:13:45.999Z</time></trkpt><trkpt lat="43.1660343744999" lon="11.464545712196985"><ele>146.0</ele><time>2026-04-11T02:13:47.999Z</time></trkpt><trkpt lat="43.16610383591635" lon="11.4644202505322"><ele>146.0</ele><time>2026-04-11T02:13:48.999Z</time></trkpt><trkpt lat="43.16617287253427" lon="11.464277423407214"><ele>146.0</ele><time>2026-04-11T02:13:50.999Z</time></trkpt><trkpt lat="43.16624074075828" lon="11.464140922001883"><ele>146.0</ele><time>2026-04-11T02:13:52.999Z</time></trkpt><trkpt lat="43.16631619948864" lon="11.464008081227037"><ele>146.0</ele><time>2026-04-11T02:13:54.999Z</time></trkpt><trkpt lat="43.16640164333874" lon="11.463890399426626"><ele>146.0</ele><time>2026-04-11T02:13:56.999Z</time></trkpt><trkpt lat="43.16649151885376" lon="11.463781416663956"><ele>146.0</ele><time>2026-04-11T02:13:58.999Z</time></trkpt><trkpt lat="43.166585485176405" lon="11.463676889769621"><ele>146.0</ele><time>2026-04-11T02:14:00.999Z</time></trkpt><trkpt lat="43.16663933898418" lon="11.463627339157926"><ele>146.0</ele><time>2026-04-11T02:14:01.999Z</time></trkpt><trkpt lat="43.16669314845143" lon="11.463582387357551"><ele>146.2</ele><time>2026-04-11T02:14:02.999Z</time></trkpt><trkpt lat="43.16674872737492" lon="11.463541138405006"><ele>146.39999999999998</ele><time>2026-04-11T02:14:03.999Z</time></trkpt><trkpt lat="43.166805278170216" lon="11.463498292926113"><ele>146.6</ele><time>2026-04-11T02:14:04.999Z</time></trkpt><trkpt lat="43.166907751370076" lon="11.463416700555532"><ele>146.79999999999998</ele><time>2026-04-11T02:14:06.999Z</time></trkpt><trkpt lat="43.16698893682028" lon="11.463379326313822"><ele>147.0</ele><time>2026-04-11T02:14:08.999Z</time></trkpt><trkpt lat="43.16705186664678" lon="11.463528306151602"><ele>147.0</ele><time>2026-04-11T02:14:09.999Z</time></trkpt><trkpt lat="43.16714311208025" lon="11.463611276008285"><ele>147.0</ele><time>2026-04-11T02:14:11.999Z</time></trkpt><trkpt lat="43.167238811690574" lon="11.463689866484133"><ele>147.0</ele><time>2026-04-11T02:14:13.999Z</time></trkpt><trkpt lat="43.167343661870284" lon="11.463759320203884"><ele>147.0</ele><time>2026-04-11T02:14:15.999Z</time></trkpt><trkpt lat="43.16745343456791" lon="11.463823785744248"><ele>147.25</ele><time>2026-04-11T02:14:17.999Z</time></trkpt><trkpt lat="43.16756398449627" lon="11.463879697727132"><ele>147.5</ele><time>2026-04-11T02:14:19.999Z</time></trkpt><trkpt lat="43.16767374960027" lon="11.463945904451984"><ele>147.75</ele><time>2026-04-11T02:14:21.999Z</time></trkpt><trkpt lat="43.16778240173479" lon="11.464011661120917"><ele>148.0</ele><time>2026-04-11T02:14:23.999Z</time></trkpt><trkpt lat="43.167885077340344" lon="11.464068878233958"><ele>148.0</ele><time>2026-04-11T02:14:25.999Z</time></trkpt><trkpt lat="43.1679832525981" lon="11.464124344457938"><ele>148.0</ele><time>2026-04-11T02:14:27.999Z</time></trkpt><trkpt lat="43.168072797946294" lon="11.464186095925795"><ele>148.0</ele><time>2026-04-11T02:14:29.999Z</time></trkpt><trkpt lat="43.16815124256749" lon="11.464243181476128"><ele>148.0</ele><time>2026-04-11T02:14:31.999Z</time></trkpt><trkpt lat="43.16810454261309" lon="11.464421096503585"><ele>148.0</ele><time>2026-04-11T02:14:34.999Z</time></trkpt><trkpt lat="43.16806710843994" lon="11.464557020773052"><ele>148.25</ele><time>2026-04-11T02:14:36.999Z</time></trkpt><trkpt lat="43.16800932210742" lon="11.4646830057574"><ele>148.5</ele><time>2026-04-11T02:14:38.999Z</time></trkpt><trkpt lat="43.167955159106285" lon="11.464823891295529"><ele>148.75</ele><time>2026-04-11T02:14:40.999Z</time></trkpt><trkpt lat="43.16786904359426" lon="11.464950522463413"><ele>149.0</ele><time>2026-04-11T02:14:42.999Z</time></trkpt><trkpt lat="43.16775841667349" lon="11.465017715845198"><ele>149.0</ele><time>2026-04-11T02:14:44.999Z</time></trkpt><trkpt lat="43.167647435310805" lon="11.46508465769759"><ele>149.0</ele><time>2026-04-11T02:14:46.999Z</time></trkpt><trkpt lat="43.16751449403493" lon="11.465032944832801"><ele>149.0</ele><time>2026-04-11T02:14:48.999Z</time></trkpt><trkpt lat="43.167450162334845" lon="11.465011655949036"><ele>149.0</ele><time>2026-04-11T02:14:49.999Z</time></trkpt><trkpt lat="43.16738784241965" lon="11.464996244562723"><ele>149.0</ele><time>2026-04-11T02:14:50.999Z</time></trkpt><trkpt lat="43.167324579268836" lon="11.464990236269353"><ele>148.8</ele><time>2026-04-11T02:14:51.999Z</time></trkpt><trkpt lat="43.16725834247727" lon="11.464997289023879"><ele>148.60000000000002</ele><time>2026-04-11T02:14:52.999Z</time></trkpt><trkpt lat="43.16719499974922" lon="11.465006032866492"><ele>148.4</ele><time>2026-04-11T02:14:53.999Z</time></trkpt><trkpt lat="43.16707356010565" lon="11.465032304704907"><ele>148.20000000000002</ele><time>2026-04-11T02:14:55.999Z</time></trkpt><trkpt lat="43.1669544741696" lon="11.465072634814483"><ele>148.0</ele><time>2026-04-11T02:14:57.999Z</time></trkpt><trkpt lat="43.166838398321836" lon="11.465123802567911"><ele>148.0</ele><time>2026-04-11T02:14:59.999Z</time></trkpt><trkpt lat="43.16672590509847" lon="11.465185859187871"><ele>148.0</ele><time>2026-04-11T02:15:01.999Z</time></trkpt><trkpt lat="43.16661529323539" lon="11.465267642566893"><ele>148.0</ele><time>2026-04-11T02:15:03.999Z</time></trkpt><trkpt lat="43.16656034837855" lon="11.46531557503941"><ele>148.0</ele><time>2026-04-11T02:15:04.999Z</time></trkpt><trkpt lat="43.16650730547635" lon="11.465369746029689"><ele>148.0</ele><time>2026-04-11T02:15:05.999Z</time></trkpt><trkpt lat="43.166453085297086" lon="11.465425756822292"><ele>148.0</ele><time>2026-04-11T02:15:06.999Z</time></trkpt><trkpt lat="43.16640169173803" lon="11.46548402450517"><ele>147.20000000000002</ele><time>2026-04-11T02:15:07.999Z</time></trkpt><trkpt lat="43.16635129206848" lon="11.465542174693047"><ele>146.4</ele><time>2026-04-11T02:15:08.999Z</time></trkpt><trkpt lat="43.1663052892362" lon="11.465603210337765"><ele>145.60000000000002</ele><time>2026-04-11T02:15:09.999Z</time></trkpt><trkpt lat="43.16621726105304" lon="11.465722176090496"><ele>144.8</ele><time>2026-04-11T02:15:11.999Z</time></trkpt><trkpt lat="43.1661322681787" lon="11.465836329028942"><ele>144.0</ele><time>2026-04-11T02:15:14Z</time></trkpt><trkpt lat="43.16604535492697" lon="11.465952483729053"><ele>144.0</ele><time>2026-04-11T02:15:16Z</time></trkpt><trkpt lat="43.165957220504396" lon="11.466069674302515"><ele>144.0</ele><time>2026-04-11T02:15:18Z</time></trkpt><trkpt lat="43.165865527165295" lon="11.46619243600979"><ele>144.0</ele><time>2026-04-11T02:15:20Z</time></trkpt><trkpt lat="43.165815262793494" lon="11.466263437633172"><ele>144.0</ele><time>2026-04-11T02:15:21Z</time></trkpt><trkpt lat="43.165757318457445" lon="11.466339081406597"><ele>144.0</ele><time>2026-04-11T02:15:22Z</time></trkpt><trkpt lat="43.16568605553359" lon="11.466403204855334"><ele>144.66666666666666</ele><time>2026-04-11T02:15:23Z</time></trkpt><trkpt lat="43.165598583324964" lon="11.466440247855251"><ele>145.33333333333334</ele><time>2026-04-11T02:15:24Z</time></trkpt><trkpt lat="43.165509175367184" lon="11.466476901566248"><ele>146.0</ele><time>2026-04-11T02:15:25Z</time></trkpt><trkpt lat="43.16542612405751" lon="11.466509989336288"><ele>146.66666666666669</ele><time>2026-04-11T02:15:26Z</time></trkpt><trkpt lat="43.165348603925" lon="11.46655480217823"><ele>147.33333333333334</ele><time>2026-04-11T02:15:27Z</time></trkpt><trkpt lat="43.16527438593436" lon="11.466601451283747"><ele>148.0</ele><time>2026-04-11T02:15:28Z</time></trkpt><trkpt lat="43.16520207862536" lon="11.466650566523633"><ele>148.0</ele><time>2026-04-11T02:15:29Z</time></trkpt><trkpt lat="43.16513209308209" lon="11.466698574382223"><ele>148.0</ele><time>2026-04-11T02:15:30Z</time></trkpt><trkpt lat="43.16506384909245" lon="11.466744774659844"><ele>148.0</ele><time>2026-04-11T02:15:31Z</time></trkpt><trkpt lat="43.16499827775092" lon="11.46679114235953"><ele>148.0</ele><time>2026-04-11T02:15:32Z</time></trkpt><trkpt lat="43.16493252947567" lon="11.466837427100721"><ele>148.0</ele><time>2026-04-11T02:15:33Z</time></trkpt><trkpt lat="43.16486833626694" lon="11.466884839186458"><ele>148.0</ele><time>2026-04-11T02:15:34Z</time></trkpt><trkpt lat="43.16480435802506" lon="11.466932507781138"><ele>148.0</ele><time>2026-04-11T02:15:35Z</time></trkpt><trkpt lat="43.164742277323214" lon="11.466980586703386"><ele>147.71428571428572</ele><time>2026-04-11T02:15:36Z</time></trkpt><trkpt lat="43.16467579148763" lon="11.467029743475894"><ele>147.42857142857142</ele><time>2026-04-11T02:15:37Z</time></trkpt><trkpt lat="43.164614295269566" lon="11.467071014262256"><ele>147.14285714285714</ele><time>2026-04-11T02:15:38Z</time></trkpt><trkpt lat="43.1645516247846" lon="11.467115875890427"><ele>146.85714285714286</ele><time>2026-04-11T02:15:39Z</time></trkpt><trkpt lat="43.1644909257489" lon="11.46716072113367"><ele>146.57142857142858</ele><time>2026-04-11T02:15:40Z</time></trkpt><trkpt lat="43.1644330519475" lon="11.467205501393247"><ele>146.28571428571428</ele><time>2026-04-11T02:15:41Z</time></trkpt><trkpt lat="43.16437434978764" lon="11.46725071859311"><ele>146.0</ele><time>2026-04-11T02:15:41.999Z</time></trkpt><trkpt lat="43.16431483637842" lon="11.467293180704445"><ele>146.0</ele><time>2026-04-11T02:15:42.999Z</time></trkpt><trkpt lat="43.16425524549873" lon="11.467333730342943"><ele>146.0</ele><time>2026-04-11T02:15:43.999Z</time></trkpt><trkpt lat="43.16419532846551" lon="11.4673786983469"><ele>146.0</ele><time>2026-04-11T02:15:44.999Z</time></trkpt><trkpt lat="43.16413666330232" lon="11.467424308485995"><ele>146.0</ele><time>2026-04-11T02:15:45.999Z</time></trkpt><trkpt lat="43.16408177283199" lon="11.467471195740373"><ele>146.0</ele><time>2026-04-11T02:15:46.999Z</time></trkpt><trkpt lat="43.16402032037275" lon="11.467497390374106"><ele>146.0</ele><time>2026-04-11T02:15:47.999Z</time></trkpt><trkpt lat="43.163918536598636" lon="11.46756870786123"><ele>146.0</ele><time>2026-04-11T02:15:49.999Z</time></trkpt><trkpt lat="43.163844927952" lon="11.467620283790252"><ele>146.0</ele><time>2026-04-11T02:15:51.999Z</time></trkpt><trkpt lat="43.16389517827536" lon="11.46787786458201"><ele>146.0</ele><time>2026-04-11T02:15:53.999Z</time></trkpt><trkpt lat="43.16393109098449" lon="11.46800882296584"><ele>146.0</ele><time>2026-04-11T02:15:55.999Z</time></trkpt><trkpt lat="43.16397360095358" lon="11.468141273013941"><ele>146.0</ele><time>2026-04-11T02:15:57.999Z</time></trkpt><trkpt lat="43.164012366610486" lon="11.468282078332331"><ele>146.6</ele><time>2026-04-11T02:15:59.999Z</time></trkpt><trkpt lat="43.16405968319795" lon="11.468421905818673"><ele>147.2</ele><time>2026-04-11T02:16:01.999Z</time></trkpt><trkpt lat="43.16409342028207" lon="11.468563716592655"><ele>147.8</ele><time>2026-04-11T02:16:03.999Z</time></trkpt><trkpt lat="43.16410865249232" lon="11.46870416111889"><ele>148.4</ele><time>2026-04-11T02:16:05.999Z</time></trkpt><trkpt lat="43.164078436984184" lon="11.468851057194096"><ele>149.0</ele><time>2026-04-11T02:16:07.999Z</time></trkpt><trkpt lat="43.16401359898824" lon="11.468957317341134"><ele>149.8</ele><time>2026-04-11T02:16:09.999Z</time></trkpt><trkpt lat="43.16392102991458" lon="11.469028424188043"><ele>150.60000000000002</ele><time>2026-04-11T02:16:11.999Z</time></trkpt><trkpt lat="43.163823899271385" lon="11.46904716192648"><ele>151.4</ele><time>2026-04-11T02:16:13.999Z</time></trkpt><trkpt lat="43.16372578233798" lon="11.469067560960001"><ele>152.20000000000002</ele><time>2026-04-11T02:16:15.999Z</time></trkpt><trkpt lat="43.16362527499253" lon="11.469093284166497"><ele>153.0</ele><time>2026-04-11T02:16:17.999Z</time></trkpt><trkpt lat="43.16352938237539" lon="11.469121936982585"><ele>153.0</ele><time>2026-04-11T02:16:19.999Z</time></trkpt><trkpt lat="43.163426683957056" lon="11.469153850838358"><ele>153.0</ele><time>2026-04-11T02:16:21.999Z</time></trkpt><trkpt lat="43.16331968604427" lon="11.469193936499604"><ele>153.0</ele><time>2026-04-11T02:16:23.999Z</time></trkpt><trkpt lat="43.16322604830121" lon="11.469241180025874"><ele>153.0</ele><time>2026-04-11T02:16:25.999Z</time></trkpt><trkpt lat="43.16313560186721" lon="11.4693063024097"><ele>153.0</ele><time>2026-04-11T02:16:27.999Z</time></trkpt><trkpt lat="43.16305722013691" lon="11.469374859520638"><ele>152.83333333333334</ele><time>2026-04-11T02:16:29.999Z</time></trkpt><trkpt lat="43.16299136151845" lon="11.46944511618597"><ele>152.66666666666666</ele><time>2026-04-11T02:16:31.999Z</time></trkpt><trkpt lat="43.162919667268135" lon="11.469513969014615"><ele>152.5</ele><time>2026-04-11T02:16:33.999Z</time></trkpt><trkpt lat="43.16285494334064" lon="11.469582630972539"><ele>152.33333333333331</ele><time>2026-04-11T02:16:35.999Z</time></trkpt><trkpt lat="43.16280034525583" lon="11.469663219451597"><ele>152.16666666666666</ele><time>2026-04-11T02:16:37.999Z</time></trkpt><trkpt lat="43.162760583536624" lon="11.469753668839676"><ele>152.0</ele><time>2026-04-11T02:16:39.999Z</time></trkpt><trkpt lat="43.16272519110404" lon="11.469843671762822"><ele>152.83333333333331</ele><time>2026-04-11T02:16:41.999Z</time></trkpt><trkpt lat="43.16269069787167" lon="11.469940039027447"><ele>153.66666666666666</ele><time>2026-04-11T02:16:43.999Z</time></trkpt><trkpt lat="43.162667991586616" lon="11.470043790743901"><ele>154.5</ele><time>2026-04-11T02:16:45.999Z</time></trkpt><trkpt lat="43.162652477995735" lon="11.470151007618242"><ele>155.33333333333334</ele><time>2026-04-11T02:16:47.999Z</time></trkpt><trkpt lat="43.16264181176367" lon="11.470261388565175"><ele>156.16666666666669</ele><time>2026-04-11T02:16:49.999Z</time></trkpt><trkpt lat="43.16263825181563" lon="11.470367217132914"><ele>157.0</ele><time>2026-04-11T02:16:51.999Z</time></trkpt><trkpt lat="43.162633063753155" lon="11.470468868338875"><ele>157.7142857142857</ele><time>2026-04-11T02:16:53.999Z</time></trkpt><trkpt lat="43.16262759939326" lon="11.47057228772009"><ele>158.42857142857142</ele><time>2026-04-11T02:16:55.999Z</time></trkpt><trkpt lat="43.16262232537964" lon="11.470667798251924"><ele>159.14285714285714</ele><time>2026-04-11T02:16:57.999Z</time></trkpt><trkpt lat="43.16262502134129" lon="11.470758900422117"><ele>159.85714285714283</ele><time>2026-04-11T02:16:59.999Z</time></trkpt><trkpt lat="43.16262349875128" lon="11.470854337800153"><ele>160.57142857142856</ele><time>2026-04-11T02:17:02.999Z</time></trkpt><trkpt lat="43.162617887327414" lon="11.470961042763975"><ele>161.28571428571428</ele><time>2026-04-11T02:17:05.999Z</time></trkpt><trkpt lat="43.16260991030324" lon="11.471068822208071"><ele>162.0</ele><time>2026-04-11T02:17:07.999Z</time></trkpt><trkpt lat="43.162607731870374" lon="11.471159051910112"><ele>162.0</ele><time>2026-04-11T02:17:10.999Z</time></trkpt><trkpt lat="43.16260398965893" lon="11.471257451415045"><ele>162.0</ele><time>2026-04-11T02:17:14.999Z</time></trkpt><trkpt lat="43.162597066255806" lon="11.471364029623299"><ele>162.0</ele><time>2026-04-11T02:17:19Z</time></trkpt><trkpt lat="43.16258486802624" lon="11.471463613918022"><ele>162.0</ele><time>2026-04-11T02:17:23Z</time></trkpt><trkpt lat="43.162567423208735" lon="11.471549817754282"><ele>162.0</ele><time>2026-04-11T02:17:26Z</time></trkpt><trkpt lat="43.162539558036315" lon="11.471632208024042"><ele>162.0</ele><time>2026-04-11T02:17:29Z</time></trkpt><trkpt lat="43.16249987919119" lon="11.47172588184802"><ele>162.0</ele><time>2026-04-11T02:17:32Z</time></trkpt><trkpt lat="43.1624567545822" lon="11.47182338900235"><ele>162.71428571428572</ele><time>2026-04-11T02:17:36Z</time></trkpt><trkpt lat="43.16242021538025" lon="11.471898614467836"><ele>163.42857142857142</ele><time>2026-04-11T02:17:39Z</time></trkpt><trkpt lat="43.16237439871387" lon="11.47198554359113"><ele>164.14285714285714</ele><time>2026-04-11T02:17:42Z</time></trkpt><trkpt lat="43.16233173147434" lon="11.472072786903942"><ele>164.85714285714286</ele><time>2026-04-11T02:17:44.999Z</time></trkpt><trkpt lat="43.16229297446796" lon="11.472157626493257"><ele>165.57142857142858</ele><time>2026-04-11T02:17:47.999Z</time></trkpt><trkpt lat="43.16225017081087" lon="11.472242153217364"><ele>166.28571428571428</ele><time>2026-04-11T02:17:50.999Z</time></trkpt><trkpt lat="43.16220766960693" lon="11.472333397400341"><ele>167.0</ele><time>2026-04-11T02:17:53.999Z</time></trkpt><trkpt lat="43.16216394888653" lon="11.472428081944368"><ele>167.83333333333331</ele><time>2026-04-11T02:17:56.999Z</time></trkpt><trkpt lat="43.162122808635225" lon="11.472518657292587"><ele>168.66666666666666</ele><time>2026-04-11T02:17:59.999Z</time></trkpt><trkpt lat="43.16207313537539" lon="11.472608496760872"><ele>169.5</ele><time>2026-04-11T02:18:02.999Z</time></trkpt><trkpt lat="43.16203409070542" lon="11.47270825232421"><ele>170.33333333333334</ele><time>2026-04-11T02:18:05.999Z</time></trkpt><trkpt lat="43.161980513251315" lon="11.472804402303403"><ele>171.16666666666669</ele><time>2026-04-11T02:18:08.999Z</time></trkpt><trkpt lat="43.161933104361246" lon="11.472907504840448"><ele>172.0</ele><time>2026-04-11T02:18:11.999Z</time></trkpt><trkpt lat="43.16187904212323" lon="11.473007411191514"><ele>173.0</ele><time>2026-04-11T02:18:14.999Z</time></trkpt><trkpt lat="43.16183770819446" lon="11.473120052042596"><ele>174.0</ele><time>2026-04-11T02:18:17.999Z</time></trkpt><trkpt lat="43.161814535060635" lon="11.473208436166587"><ele>175.0</ele><time>2026-04-11T02:18:19.999Z</time></trkpt><trkpt lat="43.16179651310508" lon="11.473298143690633"><ele>176.0</ele><time>2026-04-11T02:18:21.999Z</time></trkpt><trkpt lat="43.16179161792493" lon="11.473420991897855"><ele>177.0</ele><time>2026-04-11T02:18:24.999Z</time></trkpt><trkpt lat="43.16180465343421" lon="11.473523063924805"><ele>178.0</ele><time>2026-04-11T02:18:27.999Z</time></trkpt><trkpt lat="43.161826355813496" lon="11.47362917521617"><ele>177.99999999999997</ele><time>2026-04-11T02:18:31.999Z</time></trkpt><trkpt lat="43.16185443494588" lon="11.47373365643454"><ele>178.0</ele><time>2026-04-11T02:18:34.999Z</time></trkpt><trkpt lat="43.16187638191356" lon="11.473816715529866"><ele>178.0</ele><time>2026-04-11T02:18:37.999Z</time></trkpt><trkpt lat="43.16190185906808" lon="11.473905384650646"><ele>178.0</ele><time>2026-04-11T02:18:40.999Z</time></trkpt><trkpt lat="43.161916559591454" lon="11.473996886644374"><ele>178.0</ele><time>2026-04-11T02:18:43.999Z</time></trkpt><trkpt lat="43.16192055446337" lon="11.47409807206865"><ele>177.99999999999997</ele><time>2026-04-11T02:18:46.999Z</time></trkpt><trkpt lat="43.16190572622761" lon="11.474203671340078"><ele>178.0</ele><time>2026-04-11T02:18:49.999Z</time></trkpt><trkpt lat="43.161907777505704" lon="11.474315005200632"><ele>178.33333333333334</ele><time>2026-04-11T02:18:52.999Z</time></trkpt><trkpt lat="43.16190803863764" lon="11.474436751975126"><ele>178.66666666666669</ele><time>2026-04-11T02:18:55.999Z</time></trkpt><trkpt lat="43.16192867514738" lon="11.474546968479846"><ele>179.0</ele><time>2026-04-11T02:18:58.999Z</time></trkpt><trkpt lat="43.16196341108607" lon="11.474658200216508"><ele>179.33333333333334</ele><time>2026-04-11T02:19:01.999Z</time></trkpt><trkpt lat="43.16202031894228" lon="11.474763751795411"><ele>179.66666666666666</ele><time>2026-04-11T02:19:04.999Z</time></trkpt><trkpt lat="43.16206815363786" lon="11.474825297654855"><ele>180.0</ele><time>2026-04-11T02:19:06.999Z</time></trkpt><trkpt lat="43.162123912682596" lon="11.474876621003535"><ele>180.0</ele><time>2026-04-11T02:19:08.999Z</time></trkpt><trkpt lat="43.16218357996837" lon="11.474918813231962"><ele>180.0</ele><time>2026-04-11T02:19:10.999Z</time></trkpt><trkpt lat="43.162246794400836" lon="11.474948638488675"><ele>180.0</ele><time>2026-04-11T02:19:12.999Z</time></trkpt><trkpt lat="43.1623374127297" lon="11.474973031867506"><ele>180.0</ele><time>2026-04-11T02:19:15.999Z</time></trkpt><trkpt lat="43.16241747773783" lon="11.4749811723683"><ele>180.0</ele><time>2026-04-11T02:19:18.999Z</time></trkpt><trkpt lat="43.1624945351794" lon="11.47498570336943"><ele>180.0</ele><time>2026-04-11T02:19:21.999Z</time></trkpt><trkpt lat="43.16258123627411" lon="11.475001378056973"><ele>182.0</ele><time>2026-04-11T02:19:25Z</time></trkpt><trkpt lat="43.16264382105236" lon="11.47503180580571"><ele>184.0</ele><time>2026-04-11T02:19:28Z</time></trkpt><trkpt lat="43.16270856589214" lon="11.475071759342324"><ele>186.0</ele><time>2026-04-11T02:19:30Z</time></trkpt><trkpt lat="43.16281910802482" lon="11.475148156107004"><ele>188.0</ele><time>2026-04-11T02:19:32Z</time></trkpt><trkpt lat="43.16290586793136" lon="11.475200131942518"><ele>190.0</ele><time>2026-04-11T02:19:34Z</time></trkpt><trkpt lat="43.16299377953567" lon="11.475253215068415"><ele>190.0</ele><time>2026-04-11T02:19:36Z</time></trkpt><trkpt lat="43.163080840719935" lon="11.475304524595847"><ele>190.0</ele><time>2026-04-11T02:19:38Z</time></trkpt><trkpt lat="43.163179221453035" lon="11.475365223831547"><ele>190.0</ele><time>2026-04-11T02:19:40Z</time></trkpt><trkpt lat="43.16329290294942" lon="11.475427561036652"><ele>190.0</ele><time>2026-04-11T02:19:42Z</time></trkpt><trkpt lat="43.163353416503945" lon="11.475460220825726"><ele>190.0</ele><time>2026-04-11T02:19:43Z</time></trkpt><trkpt lat="43.163414544377595" lon="11.475488634758205"><ele>189.5</ele><time>2026-04-11T02:19:44Z</time></trkpt><trkpt lat="43.163476337337755" lon="11.4755140926622"><ele>189.0</ele><time>2026-04-11T02:19:45Z</time></trkpt><trkpt lat="43.16352945344593" lon="11.475562713825912"><ele>188.5</ele><time>2026-04-11T02:19:46Z</time></trkpt><trkpt lat="43.16359615981946" lon="11.475590736687113"><ele>188.0</ele><time>2026-04-11T02:19:46.999Z</time></trkpt><trkpt lat="43.16365756853851" lon="11.475612555403409"><ele>187.5</ele><time>2026-04-11T02:19:47.999Z</time></trkpt><trkpt lat="43.16377198897199" lon="11.475661379774623"><ele>187.0</ele><time>2026-04-11T02:19:49.999Z</time></trkpt><trkpt lat="43.16388233943985" lon="11.475717147509965"><ele>187.0</ele><time>2026-04-11T02:19:51.999Z</time></trkpt><trkpt lat="43.16394046629335" lon="11.475755033493702"><ele>187.0</ele><time>2026-04-11T02:19:52.999Z</time></trkpt><trkpt lat="43.16401238481184" lon="11.475756286570787"><ele>187.0</ele><time>2026-04-11T02:19:53.999Z</time></trkpt><trkpt lat="43.164079816696365" lon="11.475801724575938"><ele>187.0</ele><time>2026-04-11T02:19:54.999Z</time></trkpt><trkpt lat="43.164155435590104" lon="11.475845634093735"><ele>187.0</ele><time>2026-04-11T02:19:55.999Z</time></trkpt><trkpt lat="43.16423230876786" lon="11.475888316071053"><ele>187.0</ele><time>2026-04-11T02:19:56.999Z</time></trkpt><trkpt lat="43.16430104161993" lon="11.475957389785215"><ele>187.0</ele><time>2026-04-11T02:19:57.999Z</time></trkpt><trkpt lat="43.164379027730796" lon="11.475999370445507"><ele>187.0</ele><time>2026-04-11T02:19:58.999Z</time></trkpt><trkpt lat="43.164445199972604" lon="11.47603394745412"><ele>187.0</ele><time>2026-04-11T02:19:59.999Z</time></trkpt><trkpt lat="43.164516703188994" lon="11.476067572604558"><ele>187.0</ele><time>2026-04-11T02:20:00.999Z</time></trkpt><trkpt lat="43.164589526390436" lon="11.476075096308149"><ele>187.0</ele><time>2026-04-11T02:20:01.999Z</time></trkpt><trkpt lat="43.16465135735578" lon="11.476120987813072"><ele>187.0</ele><time>2026-04-11T02:20:02.999Z</time></trkpt><trkpt lat="43.164712552648346" lon="11.476142357610206"><ele>187.0</ele><time>2026-04-11T02:20:03.999Z</time></trkpt><trkpt lat="43.164776393281365" lon="11.476164651152452"><ele>187.0</ele><time>2026-04-11T02:20:04.999Z</time></trkpt><trkpt lat="43.1648397154779" lon="11.476186539329477"><ele>187.0</ele><time>2026-04-11T02:20:05.999Z</time></trkpt><trkpt lat="43.16495947620387" lon="11.476227924535293"><ele>187.0</ele><time>2026-04-11T02:20:07.999Z</time></trkpt><trkpt lat="43.16506643019721" lon="11.476262955483753"><ele>187.0</ele><time>2026-04-11T02:20:09.999Z</time></trkpt><trkpt lat="43.165162972171515" lon="11.476291997780072"><ele>187.0</ele><time>2026-04-11T02:20:11.999Z</time></trkpt><trkpt lat="43.165249912756245" lon="11.476317114144097"><ele>186.39999999999998</ele><time>2026-04-11T02:20:13.999Z</time></trkpt><trkpt lat="43.16533860949141" lon="11.4763448637598"><ele>185.79999999999998</ele><time>2026-04-11T02:20:15.999Z</time></trkpt><trkpt lat="43.16542614313233" lon="11.476385376835399"><ele>185.2</ele><time>2026-04-11T02:20:17.999Z</time></trkpt><trkpt lat="43.165496243250466" lon="11.476436150371283"><ele>184.6</ele><time>2026-04-11T02:20:19.999Z</time></trkpt><trkpt lat="43.16558111989397" lon="11.476494338050847"><ele>184.0</ele><time>2026-04-11T02:20:21.999Z</time></trkpt><trkpt lat="43.16567203688493" lon="11.476556666700775"><ele>185.39999999999998</ele><time>2026-04-11T02:20:23.999Z</time></trkpt><trkpt lat="43.165777517371716" lon="11.476602663985377"><ele>186.8</ele><time>2026-04-11T02:20:25.999Z</time></trkpt><trkpt lat="43.165876424701494" lon="11.476663772266912"><ele>188.2</ele><time>2026-04-11T02:20:27.999Z</time></trkpt><trkpt lat="43.16595474402501" lon="11.476738041088955"><ele>189.60000000000002</ele><time>2026-04-11T02:20:29.999Z</time></trkpt><trkpt lat="43.16604474547931" lon="11.476773583959774"><ele>191.0</ele><time>2026-04-11T02:20:31.999Z</time></trkpt><trkpt lat="43.16615817896574" lon="11.476864306414877"><ele>191.0</ele><time>2026-04-11T02:20:33.999Z</time></trkpt><trkpt lat="43.16623910393482" lon="11.47691948075484"><ele>191.0</ele><time>2026-04-11T02:20:35.999Z</time></trkpt><trkpt lat="43.16632026571937" lon="11.476969572559929"><ele>191.0</ele><time>2026-04-11T02:20:37.999Z</time></trkpt><trkpt lat="43.16639436332581" lon="11.477024182121392"><ele>191.0</ele><time>2026-04-11T02:20:39.999Z</time></trkpt><trkpt lat="43.16646312039631" lon="11.477075820459035"><ele>191.0</ele><time>2026-04-11T02:20:41.999Z</time></trkpt><trkpt lat="43.16653499687489" lon="11.477133875614948"><ele>191.0</ele><time>2026-04-11T02:20:43.999Z</time></trkpt><trkpt lat="43.16659847116067" lon="11.477203424893524"><ele>191.33333333333331</ele><time>2026-04-11T02:20:45.999Z</time></trkpt><trkpt lat="43.16667045125227" lon="11.477274663506599"><ele>191.66666666666666</ele><time>2026-04-11T02:20:47.999Z</time></trkpt><trkpt lat="43.16673949120842" lon="11.477353009451534"><ele>192.0</ele><time>2026-04-11T02:20:49.999Z</time></trkpt><trkpt lat="43.16681601125555" lon="11.477435402561165"><ele>192.33333333333331</ele><time>2026-04-11T02:20:51.999Z</time></trkpt><trkpt lat="43.16688181213951" lon="11.477509000945526"><ele>192.66666666666666</ele><time>2026-04-11T02:20:53.999Z</time></trkpt><trkpt lat="43.1669410021877" lon="11.477564104228716"><ele>193.0</ele><time>2026-04-11T02:20:54.999Z</time></trkpt><trkpt lat="43.16698137509766" lon="11.477632159783063"><ele>193.00000000000003</ele><time>2026-04-11T02:20:55.999Z</time></trkpt><trkpt lat="43.16703838396606" lon="11.477684688650902"><ele>193.0</ele><time>2026-04-11T02:20:56.999Z</time></trkpt><trkpt lat="43.167094800786046" lon="11.477730648093097"><ele>193.0</ele><time>2026-04-11T02:20:57.999Z</time></trkpt><trkpt lat="43.16715774022521" lon="11.4777718344826"><ele>193.0</ele><time>2026-04-11T02:20:58.999Z</time></trkpt><trkpt lat="43.16723258784571" lon="11.477785362736416"><ele>193.0</ele><time>2026-04-11T02:20:59.999Z</time></trkpt><trkpt lat="43.16730089663956" lon="11.47781345353532"><ele>193.00000000000003</ele><time>2026-04-11T02:21:00.999Z</time></trkpt><trkpt lat="43.1673679687218" lon="11.477829762362958"><ele>193.0</ele><time>2026-04-11T02:21:01.999Z</time></trkpt><trkpt lat="43.167437547358546" lon="11.477838998143858"><ele>193.16666666666666</ele><time>2026-04-11T02:21:02.999Z</time></trkpt><trkpt lat="43.16750319045392" lon="11.477842923138859"><ele>193.33333333333331</ele><time>2026-04-11T02:21:03.999Z</time></trkpt><trkpt lat="43.167614346529156" lon="11.477826266116018"><ele>193.5</ele><time>2026-04-11T02:21:05.999Z</time></trkpt><trkpt lat="43.16770379915332" lon="11.477828086438246"><ele>193.66666666666669</ele><time>2026-04-11T02:21:07.999Z</time></trkpt><trkpt lat="43.16778873863352" lon="11.477825650707569"><ele>193.83333333333334</ele><time>2026-04-11T02:21:09.999Z</time></trkpt><trkpt lat="43.1678674591962" lon="11.477823960139618"><ele>194.0</ele><time>2026-04-11T02:21:11.999Z</time></trkpt><trkpt lat="43.167946166016186" lon="11.47783616759087"><ele>194.00000000000003</ele><time>2026-04-11T02:21:13.999Z</time></trkpt><trkpt lat="43.168014500089875" lon="11.47783405902926"><ele>194.0</ele><time>2026-04-11T02:21:15.999Z</time></trkpt><trkpt lat="43.168083466609865" lon="11.477834007409685"><ele>194.0</ele><time>2026-04-11T02:21:17.999Z</time></trkpt><trkpt lat="43.168171410190595" lon="11.47783590396356"><ele>194.0</ele><time>2026-04-11T02:21:19.999Z</time></trkpt><trkpt lat="43.16825422680624" lon="11.47784607491756"><ele>194.00000000000003</ele><time>2026-04-11T02:21:21.999Z</time></trkpt><trkpt lat="43.168343655267265" lon="11.47786407477703"><ele>194.0</ele><time>2026-04-11T02:21:23.999Z</time></trkpt><trkpt lat="43.16843402592152" lon="11.477869869621749"><ele>194.39999999999998</ele><time>2026-04-11T02:21:25.999Z</time></trkpt><trkpt lat="43.16852713060673" lon="11.477893054345166"><ele>194.8</ele><time>2026-04-11T02:21:27.998Z</time></trkpt><trkpt lat="43.16866068344584" lon="11.477934549879041"><ele>195.2</ele><time>2026-04-11T02:21:31Z</time></trkpt><trkpt lat="43.16876276863099" lon="11.477953534730478"><ele>195.60000000000002</ele><time>2026-04-11T02:21:33Z</time></trkpt><trkpt lat="43.16885419579882" lon="11.477972228269707"><ele>196.0</ele><time>2026-04-11T02:21:35Z</time></trkpt><trkpt lat="43.168942988867016" lon="11.477991031931628"><ele>195.99999999999997</ele><time>2026-04-11T02:21:37Z</time></trkpt><trkpt lat="43.16903062672784" lon="11.478024497553575"><ele>196.0</ele><time>2026-04-11T02:21:39Z</time></trkpt><trkpt lat="43.169116392172754" lon="11.478062208151231"><ele>196.0</ele><time>2026-04-11T02:21:41Z</time></trkpt><trkpt lat="43.16919685508428" lon="11.478106482308723"><ele>196.0</ele><time>2026-04-11T02:21:43Z</time></trkpt><trkpt lat="43.16927476172888" lon="11.478162248209944"><ele>195.99999999999997</ele><time>2026-04-11T02:21:45Z</time></trkpt><trkpt lat="43.169344650971425" lon="11.478239249301705"><ele>196.0</ele><time>2026-04-11T02:21:47Z</time></trkpt><trkpt lat="43.169402807446886" lon="11.478332923858483"><ele>195.99999999999997</ele><time>2026-04-11T02:21:49Z</time></trkpt><trkpt lat="43.169457500970005" lon="11.478428046459063"><ele>196.0</ele><time>2026-04-11T02:21:50.999Z</time></trkpt><trkpt lat="43.169500505292284" lon="11.47853596282987"><ele>196.0</ele><time>2026-04-11T02:21:52.999Z</time></trkpt><trkpt lat="43.16954616894774" lon="11.47863162535284"><ele>196.0</ele><time>2026-04-11T02:21:54.999Z</time></trkpt><trkpt lat="43.169594749218305" lon="11.478732051217285"><ele>195.99999999999997</ele><time>2026-04-11T02:21:56.999Z</time></trkpt><trkpt lat="43.169642770439395" lon="11.478832596677876"><ele>196.0</ele><time>2026-04-11T02:21:58.999Z</time></trkpt><trkpt lat="43.169692207190444" lon="11.478934863985774"><ele>196.83333333333331</ele><time>2026-04-11T02:22:00.999Z</time></trkpt><trkpt lat="43.16974718738969" lon="11.479028858770791"><ele>197.66666666666666</ele><time>2026-04-11T02:22:02.999Z</time></trkpt><trkpt lat="43.16979943673701" lon="11.479126031969185"><ele>198.5</ele><time>2026-04-11T02:22:04.999Z</time></trkpt><trkpt lat="43.16986463327369" lon="11.479209355076991"><ele>199.33333333333331</ele><time>2026-04-11T02:22:06.999Z</time></trkpt><trkpt lat="43.16993208994681" lon="11.479287250938981"><ele>200.16666666666666</ele><time>2026-04-11T02:22:08.999Z</time></trkpt><trkpt lat="43.170007458353275" lon="11.47934267076048"><ele>201.0</ele><time>2026-04-11T02:22:10.999Z</time></trkpt><trkpt lat="43.170089550017046" lon="11.479388622285107"><ele>201.0</ele><time>2026-04-11T02:22:12.999Z</time></trkpt><trkpt lat="43.17016819368421" lon="11.479439812767193"><ele>201.0</ele><time>2026-04-11T02:22:14.999Z</time></trkpt><trkpt lat="43.17024386082603" lon="11.479478670380702"><ele>201.0</ele><time>2026-04-11T02:22:16.999Z</time></trkpt><trkpt lat="43.17031793686113" lon="11.479507353306627"><ele>201.0</ele><time>2026-04-11T02:22:18.999Z</time></trkpt><trkpt lat="43.17040272134694" lon="11.47953351251058"><ele>201.0</ele><time>2026-04-11T02:22:20.999Z</time></trkpt><trkpt lat="43.170482823677276" lon="11.479565150109318"><ele>201.0</ele><time>2026-04-11T02:22:22.999Z</time></trkpt><trkpt lat="43.17056471602841" lon="11.47959674858024"><ele>201.60000000000002</ele><time>2026-04-11T02:22:24.999Z</time></trkpt><trkpt lat="43.17063195056474" lon="11.47963892880618"><ele>202.2</ele><time>2026-04-11T02:22:27.999Z</time></trkpt><trkpt lat="43.170754347679676" lon="11.479758081300096"><ele>202.8</ele><time>2026-04-11T02:22:29.999Z</time></trkpt><trkpt lat="43.17082733956411" lon="11.479831951789418"><ele>203.39999999999998</ele><time>2026-04-11T02:22:31.999Z</time></trkpt><trkpt lat="43.17088164751959" lon="11.479930190937212"><ele>204.0</ele><time>2026-04-11T02:22:33.999Z</time></trkpt><trkpt lat="43.17093598393108" lon="11.480059520778461"><ele>204.0</ele><time>2026-04-11T02:22:35.999Z</time></trkpt><trkpt lat="43.17097419019622" lon="11.480196085018806"><ele>204.0</ele><time>2026-04-11T02:22:37.999Z</time></trkpt><trkpt lat="43.17101402524158" lon="11.48033549849589"><ele>204.0</ele><time>2026-04-11T02:22:39.999Z</time></trkpt><trkpt lat="43.17105016541707" lon="11.480463181318576"><ele>204.0</ele><time>2026-04-11T02:22:41.999Z</time></trkpt><trkpt lat="43.17107196915669" lon="11.480592450044385"><ele>204.0</ele><time>2026-04-11T02:22:43.999Z</time></trkpt><trkpt lat="43.171080450430374" lon="11.48072316146095"><ele>203.83333333333334</ele><time>2026-04-11T02:22:45.999Z</time></trkpt><trkpt lat="43.171100507541304" lon="11.480847045702005"><ele>203.66666666666669</ele><time>2026-04-11T02:22:47.999Z</time></trkpt><trkpt lat="43.171116293623186" lon="11.480944348420227"><ele>203.5</ele><time>2026-04-11T02:22:49.999Z</time></trkpt><trkpt lat="43.17113569274911" lon="11.48106026956855"><ele>203.33333333333334</ele><time>2026-04-11T02:22:51.999Z</time></trkpt><trkpt lat="43.17115389177082" lon="11.481165161031443"><ele>203.16666666666669</ele><time>2026-04-11T02:22:53.999Z</time></trkpt><trkpt lat="43.17118793830049" lon="11.481269922091544"><ele>203.0</ele><time>2026-04-11T02:22:55.999Z</time></trkpt><trkpt lat="43.17118996417315" lon="11.48137277410121"><ele>203.00000000000003</ele><time>2026-04-11T02:22:57.999Z</time></trkpt><trkpt lat="43.17122438414205" lon="11.481469817998416"><ele>203.0</ele><time>2026-04-11T02:22:59.999Z</time></trkpt><trkpt lat="43.17122739528955" lon="11.481573587743863"><ele>203.0</ele><time>2026-04-11T02:23:01.999Z</time></trkpt><trkpt lat="43.17125386623374" lon="11.481659669392366"><ele>203.0</ele><time>2026-04-11T02:23:03.999Z</time></trkpt><trkpt lat="43.17127145128257" lon="11.481772479211125"><ele>203.00000000000003</ele><time>2026-04-11T02:23:06.999Z</time></trkpt><trkpt lat="43.17129211134711" lon="11.481878812068516"><ele>203.0</ele><time>2026-04-11T02:23:09.999Z</time></trkpt><trkpt lat="43.171304637461" lon="11.481977679489082"><ele>203.0</ele><time>2026-04-11T02:23:12.999Z</time></trkpt><trkpt lat="43.17132557806361" lon="11.482059385546439"><ele>203.0</ele><time>2026-04-11T02:23:15.999Z</time></trkpt><trkpt lat="43.1713418184363" lon="11.482147881709567"><ele>203.0</ele><time>2026-04-11T02:23:19.999Z</time></trkpt><trkpt lat="43.17136916453801" lon="11.482232783352437"><ele>203.0</ele><time>2026-04-11T02:23:22.999Z</time></trkpt><trkpt lat="43.171401905415465" lon="11.482331337630889"><ele>203.0</ele><time>2026-04-11T02:23:26.999Z</time></trkpt><trkpt lat="43.17143606378957" lon="11.482412231816571"><ele>203.0</ele><time>2026-04-11T02:23:28.999Z</time></trkpt><trkpt lat="43.17147996381768" lon="11.482508083054402"><ele>203.0</ele><time>2026-04-11T02:23:31.998Z</time></trkpt><trkpt lat="43.17151702339054" lon="11.482593823008187"><ele>204.33333333333334</ele><time>2026-04-11T02:23:33.998Z</time></trkpt><trkpt lat="43.17156544347422" lon="11.482683521244974"><ele>205.66666666666669</ele><time>2026-04-11T02:23:35.998Z</time></trkpt><trkpt lat="43.17160843154231" lon="11.482785371237698"><ele>207.0</ele><time>2026-04-11T02:23:38Z</time></trkpt><trkpt lat="43.171652951534654" lon="11.482884610772281"><ele>208.33333333333331</ele><time>2026-04-11T02:23:40Z</time></trkpt><trkpt lat="43.17170154791111" lon="11.48297602816402"><ele>209.66666666666666</ele><time>2026-04-11T02:23:42Z</time></trkpt><trkpt lat="43.17174533078819" lon="11.483068139314799"><ele>211.0</ele><time>2026-04-11T02:23:44Z</time></trkpt><trkpt lat="43.17179863172079" lon="11.483146351960889"><ele>211.0</ele><time>2026-04-11T02:23:46Z</time></trkpt><trkpt lat="43.17186145867056" lon="11.483210367156186"><ele>211.0</ele><time>2026-04-11T02:23:48Z</time></trkpt><trkpt lat="43.17192137518149" lon="11.483268080863855"><ele>211.0</ele><time>2026-04-11T02:23:50Z</time></trkpt><trkpt lat="43.17197272874754" lon="11.483328473525926"><ele>211.0</ele><time>2026-04-11T02:23:52Z</time></trkpt><trkpt lat="43.172032362664716" lon="11.483382644651924"><ele>211.0</ele><time>2026-04-11T02:23:54Z</time></trkpt><trkpt lat="43.17208490098864" lon="11.483437869124167"><ele>211.0</ele><time>2026-04-11T02:23:55.999Z</time></trkpt><trkpt lat="43.1721387315007" lon="11.483490783260283"><ele>211.0</ele><time>2026-04-11T02:23:57.999Z</time></trkpt><trkpt lat="43.17218720511654" lon="11.483550151903353"><ele>210.99999999999997</ele><time>2026-04-11T02:23:59.999Z</time></trkpt><trkpt lat="43.17225682584814" lon="11.483627341826658"><ele>211.0</ele><time>2026-04-11T02:24:02.999Z</time></trkpt><trkpt lat="43.17232463540179" lon="11.483696118655041"><ele>211.0</ele><time>2026-04-11T02:24:05.999Z</time></trkpt><trkpt lat="43.17239704374754" lon="11.483744260778698"><ele>211.0</ele><time>2026-04-11T02:24:08.999Z</time></trkpt><trkpt lat="43.17247172646333" lon="11.483793588340161"><ele>210.99999999999997</ele><time>2026-04-11T02:24:11.999Z</time></trkpt><trkpt lat="43.17254905037315" lon="11.483834922694477"><ele>211.0</ele><time>2026-04-11T02:24:14.999Z</time></trkpt><trkpt lat="43.17262040643996" lon="11.483870453490841"><ele>213.0</ele><time>2026-04-11T02:24:18.999Z</time></trkpt><trkpt lat="43.1726821136945" lon="11.483898567886367"><ele>215.0</ele><time>2026-04-11T02:24:21.999Z</time></trkpt><trkpt lat="43.17274978075692" lon="11.483926877952541"><ele>217.0</ele><time>2026-04-11T02:24:24.999Z</time></trkpt><trkpt lat="43.17281426131244" lon="11.48395371450077"><ele>219.0</ele><time>2026-04-11T02:24:27.999Z</time></trkpt><trkpt lat="43.172875434587496" lon="11.483980706846722"><ele>221.0</ele><time>2026-04-11T02:24:30.999Z</time></trkpt><trkpt lat="43.17294099608248" lon="11.483999190930856"><ele>223.00000000000003</ele><time>2026-04-11T02:24:32.999Z</time></trkpt><trkpt lat="43.173015719457915" lon="11.48402363141906"><ele>225.00000000000003</ele><time>2026-04-11T02:24:35.999Z</time></trkpt><trkpt lat="43.17309187329445" lon="11.48405329771618"><ele>225.0</ele><time>2026-04-11T02:24:38.999Z</time></trkpt><trkpt lat="43.17317389059725" lon="11.484079956309383"><ele>225.0</ele><time>2026-04-11T02:24:41.999Z</time></trkpt><trkpt lat="43.17327130192321" lon="11.484103843719565"><ele>225.0</ele><time>2026-04-11T02:24:44.999Z</time></trkpt><trkpt lat="43.17333275763587" lon="11.48412869840013"><ele>225.0</ele><time>2026-04-11T02:24:46.999Z</time></trkpt><trkpt lat="43.17340545289829" lon="11.484146543418918"><ele>225.0</ele><time>2026-04-11T02:24:48.999Z</time></trkpt><trkpt lat="43.17347332318977" lon="11.484161980930951"><ele>225.0</ele><time>2026-04-11T02:24:50.999Z</time></trkpt><trkpt lat="43.17355017063504" lon="11.484187390367465"><ele>225.66666666666666</ele><time>2026-04-11T02:24:52.999Z</time></trkpt><trkpt lat="43.17363131503237" lon="11.48420949116215"><ele>226.33333333333331</ele><time>2026-04-11T02:24:54.999Z</time></trkpt><trkpt lat="43.17370893074015" lon="11.484235490364942"><ele>227.0</ele><time>2026-04-11T02:24:56.999Z</time></trkpt><trkpt lat="43.173793620195575" lon="11.484267887519492"><ele>227.66666666666666</ele><time>2026-04-11T02:24:58.999Z</time></trkpt><trkpt lat="43.1738686326854" lon="11.484292484472679"><ele>228.33333333333331</ele><time>2026-04-11T02:25:00.999Z</time></trkpt><trkpt lat="43.173938888502505" lon="11.48432475675805"><ele>229.0</ele><time>2026-04-11T02:25:02.999Z</time></trkpt><trkpt lat="43.17401055442962" lon="11.484347332104715"><ele>228.99999999999997</ele><time>2026-04-11T02:25:04.999Z</time></trkpt><trkpt lat="43.17407334284396" lon="11.484363121169075"><ele>229.0</ele><time>2026-04-11T02:25:06.999Z</time></trkpt><trkpt lat="43.17417110355543" lon="11.484387054203976"><ele>229.0</ele><time>2026-04-11T02:25:09.999Z</time></trkpt><trkpt lat="43.17425483901962" lon="11.484414014177334"><ele>229.0</ele><time>2026-04-11T02:25:12.999Z</time></trkpt><trkpt lat="43.17434395702509" lon="11.484438521276122"><ele>228.99999999999997</ele><time>2026-04-11T02:25:15.999Z</time></trkpt><trkpt lat="43.1744079583793" lon="11.48445672696938"><ele>229.0</ele><time>2026-04-11T02:25:17.999Z</time></trkpt><trkpt lat="43.17447344587429" lon="11.484494233973285"><ele>229.0</ele><time>2026-04-11T02:25:19.999Z</time></trkpt><trkpt lat="43.17454861548948" lon="11.484529871936596"><ele>228.99999999999997</ele><time>2026-04-11T02:25:21.999Z</time></trkpt><trkpt lat="43.17462639712627" lon="11.484576824146332"><ele>228.99999999999997</ele><time>2026-04-11T02:25:23.999Z</time></trkpt><trkpt lat="43.174726672321945" lon="11.48463365581377"><ele>229.0</ele><time>2026-04-11T02:25:26.999Z</time></trkpt><trkpt lat="43.174845419489316" lon="11.484707928310353"><ele>229.0</ele><time>2026-04-11T02:25:28.999Z</time></trkpt><trkpt lat="43.174919520868556" lon="11.4847628208476"><ele>228.99999999999997</ele><time>2026-04-11T02:25:30.999Z</time></trkpt><trkpt lat="43.17499551210346" lon="11.484806322943733"><ele>229.0</ele><time>2026-04-11T02:25:32.999Z</time></trkpt><trkpt lat="43.17506837231437" lon="11.484853988585014"><ele>229.0</ele><time>2026-04-11T02:25:34.999Z</time></trkpt><trkpt lat="43.17514599337613" lon="11.484894877519725"><ele>229.0</ele><time>2026-04-11T02:25:36.999Z</time></trkpt><trkpt lat="43.17521963963714" lon="11.4849399595636"><ele>228.99999999999997</ele><time>2026-04-11T02:25:38.998Z</time></trkpt><trkpt lat="43.17529619959196" lon="11.484983786054434"><ele>229.0</ele><time>2026-04-11T02:25:40.998Z</time></trkpt><trkpt lat="43.17537121083384" lon="11.485018951143408"><ele>228.99999999999997</ele><time>2026-04-11T02:25:43Z</time></trkpt><trkpt lat="43.17544358527254" lon="11.48501391699033"><ele>229.0</ele><time>2026-04-11T02:25:45Z</time></trkpt><trkpt lat="43.175504471007216" lon="11.484950919233103"><ele>229.0</ele><time>2026-04-11T02:25:47Z</time></trkpt><trkpt lat="43.175555888460515" lon="11.484829877927261"><ele>229.0</ele><time>2026-04-11T02:25:49Z</time></trkpt><trkpt lat="43.175616016579134" lon="11.484691565575396"><ele>228.99999999999997</ele><time>2026-04-11T02:25:51Z</time></trkpt><trkpt lat="43.17565124792458" lon="11.484615917313263"><ele>229.0</ele><time>2026-04-11T02:25:52Z</time></trkpt><trkpt lat="43.17572077994626" lon="11.484486866203504"><ele>229.0</ele><time>2026-04-11T02:25:54Z</time></trkpt><trkpt lat="43.175777314822646" lon="11.484354207662054"><ele>228.99999999999997</ele><time>2026-04-11T02:25:56Z</time></trkpt><trkpt lat="43.1758136901327" lon="11.48420949603568"><ele>228.99999999999997</ele><time>2026-04-11T02:25:58Z</time></trkpt><trkpt lat="43.175831136001946" lon="11.48404251367431"><ele>229.0</ele><time>2026-04-11T02:26:00Z</time></trkpt><trkpt lat="43.17582661686688" lon="11.48395170452033"><ele>229.0</ele><time>2026-04-11T02:26:01Z</time></trkpt><trkpt lat="43.1758195360313" lon="11.48386241968633"><ele>228.99999999999997</ele><time>2026-04-11T02:26:02Z</time></trkpt><trkpt lat="43.17581172298413" lon="11.48376445163994"><ele>229.0</ele><time>2026-04-11T02:26:03Z</time></trkpt><trkpt lat="43.17581677764017" lon="11.483661079978015"><ele>229.0</ele><time>2026-04-11T02:26:04Z</time></trkpt><trkpt lat="43.1758080349538" lon="11.483555785231749"><ele>229.0</ele><time>2026-04-11T02:26:04.999Z</time></trkpt><trkpt lat="43.17579912347075" lon="11.483448457706503"><ele>228.99999999999997</ele><time>2026-04-11T02:26:05.999Z</time></trkpt><trkpt lat="43.17579119426572" lon="11.483342705963706"><ele>229.0</ele><time>2026-04-11T02:26:06.999Z</time></trkpt><trkpt lat="43.17578393837976" lon="11.483235049260863"><ele>227.39999999999998</ele><time>2026-04-11T02:26:07.999Z</time></trkpt><trkpt lat="43.17577761086221" lon="11.483141167161849"><ele>225.79999999999998</ele><time>2026-04-11T02:26:08.999Z</time></trkpt><trkpt lat="43.175750817575754" lon="11.48298917272377"><ele>224.20000000000002</ele><time>2026-04-11T02:26:10.999Z</time></trkpt><trkpt lat="43.17573965472876" lon="11.48286047995942"><ele>222.60000000000002</ele><time>2026-04-11T02:26:12.999Z</time></trkpt><trkpt lat="43.17570258136791" lon="11.482749593169176"><ele>221.0</ele><time>2026-04-11T02:26:14.999Z</time></trkpt><trkpt lat="43.175644698256484" lon="11.482649210295582"><ele>218.66666666666669</ele><time>2026-04-11T02:26:16.999Z</time></trkpt><trkpt lat="43.17560478322023" lon="11.482472016007732"><ele>216.33333333333334</ele><time>2026-04-11T02:26:18.999Z</time></trkpt><trkpt lat="43.17564334777736" lon="11.482358269567523"><ele>214.0</ele><time>2026-04-11T02:26:19.999Z</time></trkpt><trkpt lat="43.17565508352648" lon="11.482260761448721"><ele>211.66666666666669</ele><time>2026-04-11T02:26:20.999Z</time></trkpt><trkpt lat="43.175653992880946" lon="11.482163197116053"><ele>209.33333333333334</ele><time>2026-04-11T02:26:21.999Z</time></trkpt><trkpt lat="43.175683854911" lon="11.48208069782931"><ele>207.0</ele><time>2026-04-11T02:26:22.999Z</time></trkpt><trkpt lat="43.17571935070852" lon="11.481912475457955"><ele>207.0</ele><time>2026-04-11T02:26:24.999Z</time></trkpt><trkpt lat="43.17574232324831" lon="11.481821074167154"><ele>207.0</ele><time>2026-04-11T02:26:25.999Z</time></trkpt><trkpt lat="43.17581261806555" lon="11.48169253612505"><ele>207.0</ele><time>2026-04-11T02:26:27.999Z</time></trkpt><trkpt lat="43.17590808462806" lon="11.481619552290658"><ele>207.0</ele><time>2026-04-11T02:26:29.999Z</time></trkpt><trkpt lat="43.17596356536807" lon="11.48155922487905"><ele>207.0</ele><time>2026-04-11T02:26:30.999Z</time></trkpt><trkpt lat="43.176016885758585" lon="11.481487372959448"><ele>207.0</ele><time>2026-04-11T02:26:31.999Z</time></trkpt><trkpt lat="43.17605341973034" lon="11.481390864854657"><ele>207.0</ele><time>2026-04-11T02:26:32.999Z</time></trkpt><trkpt lat="43.176063295124194" lon="11.481285197453797"><ele>207.0</ele><time>2026-04-11T02:26:33.999Z</time></trkpt><trkpt lat="43.17608592099198" lon="11.481189049938298"><ele>207.0</ele><time>2026-04-11T02:26:34.999Z</time></trkpt><trkpt lat="43.17611836068266" lon="11.481094446634305"><ele>207.0</ele><time>2026-04-11T02:26:35.999Z</time></trkpt><trkpt lat="43.176132438658904" lon="11.480993957689966"><ele>207.0</ele><time>2026-04-11T02:26:36.999Z</time></trkpt><trkpt lat="43.176143891767346" lon="11.480891285492092"><ele>207.0</ele><time>2026-04-11T02:26:37.999Z</time></trkpt><trkpt lat="43.17615345635617" lon="11.48079152157306"><ele>205.71428571428572</ele><time>2026-04-11T02:26:38.999Z</time></trkpt><trkpt lat="43.17614810321361" lon="11.480691127053333"><ele>204.42857142857144</ele><time>2026-04-11T02:26:39.999Z</time></trkpt><trkpt lat="43.17616473630075" lon="11.480592275825947"><ele>203.14285714285717</ele><time>2026-04-11T02:26:40.999Z</time></trkpt><trkpt lat="43.17617851376967" lon="11.480499058797609"><ele>201.85714285714286</ele><time>2026-04-11T02:26:41.999Z</time></trkpt><trkpt lat="43.17619035703369" lon="11.480411021533838"><ele>200.57142857142856</ele><time>2026-04-11T02:26:42.999Z</time></trkpt><trkpt lat="43.17619927714002" lon="11.48032167448941"><ele>199.2857142857143</ele><time>2026-04-11T02:26:43.999Z</time></trkpt><trkpt lat="43.17621960742105" lon="11.480238434433819"><ele>198.0</ele><time>2026-04-11T02:26:44.999Z</time></trkpt><trkpt lat="43.176253928063886" lon="11.480160848690678"><ele>197.5</ele><time>2026-04-11T02:26:45.999Z</time></trkpt><trkpt lat="43.176304686381236" lon="11.48009016915741"><ele>197.0</ele><time>2026-04-11T02:26:46.999Z</time></trkpt><trkpt lat="43.17636122528883" lon="11.480017778840852"><ele>196.5</ele><time>2026-04-11T02:26:47.999Z</time></trkpt><trkpt lat="43.17641937827432" lon="11.479948644033186"><ele>196.0</ele><time>2026-04-11T02:26:48.999Z</time></trkpt><trkpt lat="43.176478764282265" lon="11.479870203513673"><ele>195.5</ele><time>2026-04-11T02:26:49.999Z</time></trkpt><trkpt lat="43.17653635604435" lon="11.479783946005726"><ele>195.0</ele><time>2026-04-11T02:26:50.999Z</time></trkpt><trkpt lat="43.17659025182847" lon="11.479699484477091"><ele>195.0</ele><time>2026-04-11T02:26:51.999Z</time></trkpt><trkpt lat="43.176637537079614" lon="11.479611853939147"><ele>195.0</ele><time>2026-04-11T02:26:52.999Z</time></trkpt><trkpt lat="43.1766722849684" lon="11.479508803837483"><ele>195.0</ele><time>2026-04-11T02:26:53.999Z</time></trkpt><trkpt lat="43.17670117108762" lon="11.479404705798212"><ele>195.0</ele><time>2026-04-11T02:26:54.999Z</time></trkpt><trkpt lat="43.17671287242321" lon="11.47929979488793"><ele>195.0</ele><time>2026-04-11T02:26:55.999Z</time></trkpt><trkpt lat="43.17671595925871" lon="11.479199766411254"><ele>195.0</ele><time>2026-04-11T02:26:56.999Z</time></trkpt><trkpt lat="43.17670952271823" lon="11.479107340562809"><ele>193.85714285714286</ele><time>2026-04-11T02:26:57.999Z</time></trkpt><trkpt lat="43.1767062872287" lon="11.47902010434957"><ele>192.71428571428572</ele><time>2026-04-11T02:26:58.999Z</time></trkpt><trkpt lat="43.17669756928787" lon="11.478932098802625"><ele>191.57142857142856</ele><time>2026-04-11T02:26:59.999Z</time></trkpt><trkpt lat="43.17668251916239" lon="11.478839866666778"><ele>190.42857142857144</ele><time>2026-04-11T02:27:00.999Z</time></trkpt><trkpt lat="43.176667827997946" lon="11.478746435054262"><ele>189.2857142857143</ele><time>2026-04-11T02:27:01.999Z</time></trkpt><trkpt lat="43.17666160983896" lon="11.478652089472765"><ele>188.14285714285714</ele><time>2026-04-11T02:27:02.999Z</time></trkpt><trkpt lat="43.17665838715772" lon="11.47855996898862"><ele>187.0</ele><time>2026-04-11T02:27:03.999Z</time></trkpt><trkpt lat="43.176657655461376" lon="11.478471698814753"><ele>185.66666666666669</ele><time>2026-04-11T02:27:04.999Z</time></trkpt><trkpt lat="43.176661265939494" lon="11.478375767253699"><ele>184.33333333333334</ele><time>2026-04-11T02:27:05.999Z</time></trkpt><trkpt lat="43.17666859010584" lon="11.478278599517962"><ele>183.0</ele><time>2026-04-11T02:27:06.999Z</time></trkpt><trkpt lat="43.176680539945394" lon="11.47818538003676"><ele>181.66666666666666</ele><time>2026-04-11T02:27:07.999Z</time></trkpt><trkpt lat="43.176705474745546" lon="11.478030919894213"><ele>180.33333333333331</ele><time>2026-04-11T02:27:09.999Z</time></trkpt><trkpt lat="43.17672712899342" lon="11.477888941929645"><ele>179.0</ele><time>2026-04-11T02:27:11.999Z</time></trkpt><trkpt lat="43.17677262000437" lon="11.477766621304669"><ele>177.33333333333331</ele><time>2026-04-11T02:27:13.999Z</time></trkpt><trkpt lat="43.1768211348881" lon="11.477634236876336"><ele>175.66666666666666</ele><time>2026-04-11T02:27:16Z</time></trkpt><trkpt lat="43.176918066665166" lon="11.477553148420267"><ele>174.0</ele><time>2026-04-11T02:27:18Z</time></trkpt><trkpt lat="43.1769848056527" lon="11.477547072170001"><ele>172.33333333333334</ele><time>2026-04-11T02:27:19Z</time></trkpt><trkpt lat="43.177051787006796" lon="11.47752932163383"><ele>170.66666666666669</ele><time>2026-04-11T02:27:20Z</time></trkpt><trkpt lat="43.177126184401914" lon="11.47751187843433"><ele>169.0</ele><time>2026-04-11T02:27:21Z</time></trkpt><trkpt lat="43.17720669627349" lon="11.477494692848028"><ele>169.0</ele><time>2026-04-11T02:27:22Z</time></trkpt><trkpt lat="43.17729426851128" lon="11.477479170962965"><ele>169.0</ele><time>2026-04-11T02:27:23Z</time></trkpt><trkpt lat="43.17738538361044" lon="11.47746374562229"><ele>169.0</ele><time>2026-04-11T02:27:24Z</time></trkpt><trkpt lat="43.177483203228775" lon="11.47744736257953"><ele>169.0</ele><time>2026-04-11T02:27:25Z</time></trkpt><trkpt lat="43.177580783590216" lon="11.477433470581033"><ele>169.0</ele><time>2026-04-11T02:27:26Z</time></trkpt><trkpt lat="43.17767972804191" lon="11.477419721403516"><ele>167.39999999999998</ele><time>2026-04-11T02:27:27Z</time></trkpt><trkpt lat="43.1777824892607" lon="11.477405441846432"><ele>165.8</ele><time>2026-04-11T02:27:28Z</time></trkpt><trkpt lat="43.177886909738426" lon="11.477390504499223"><ele>164.2</ele><time>2026-04-11T02:27:29Z</time></trkpt><trkpt lat="43.177991402525734" lon="11.47737537355645"><ele>162.60000000000002</ele><time>2026-04-11T02:27:30Z</time></trkpt><trkpt lat="43.1780950394537" lon="11.477360366468137"><ele>161.0</ele><time>2026-04-11T02:27:31Z</time></trkpt><trkpt lat="43.17819933262787" lon="11.477344220977445"><ele>160.20000000000002</ele><time>2026-04-11T02:27:32Z</time></trkpt><trkpt lat="43.178301455030194" lon="11.477326242070719"><ele>159.4</ele><time>2026-04-11T02:27:33Z</time></trkpt><trkpt lat="43.1784038477993" lon="11.47730588754984"><ele>158.6</ele><time>2026-04-11T02:27:34Z</time></trkpt><trkpt lat="43.178504874880936" lon="11.477281030644217"><ele>157.8</ele><time>2026-04-11T02:27:35Z</time></trkpt><trkpt lat="43.17860509693032" lon="11.4772539025006"><ele>157.0</ele><time>2026-04-11T02:27:36Z</time></trkpt><trkpt lat="43.178702441590424" lon="11.477225667678297"><ele>157.0</ele><time>2026-04-11T02:27:37Z</time></trkpt><trkpt lat="43.17879921477654" lon="11.477177987487964"><ele>157.0</ele><time>2026-04-11T02:27:38Z</time></trkpt><trkpt lat="43.17889949491424" lon="11.477151437688136"><ele>157.0</ele><time>2026-04-11T02:27:39Z</time></trkpt><trkpt lat="43.17899582610188" lon="11.477118119757879"><ele>157.0</ele><time>2026-04-11T02:27:40Z</time></trkpt><trkpt lat="43.179098491266245" lon="11.477114653045206"><ele>157.0</ele><time>2026-04-11T02:27:41Z</time></trkpt><trkpt lat="43.179194704652915" lon="11.477095542291384"><ele>156.6</ele><time>2026-04-11T02:27:42Z</time></trkpt><trkpt lat="43.17928991735963" lon="11.477091399290057"><ele>156.2</ele><time>2026-04-11T02:27:43Z</time></trkpt><trkpt lat="43.17938467564469" lon="11.477094932723277"><ele>155.8</ele><time>2026-04-11T02:27:43.999Z</time></trkpt><trkpt lat="43.17947461051582" lon="11.477110698427841"><ele>155.4</ele><time>2026-04-11T02:27:44.999Z</time></trkpt><trkpt lat="43.17956132504877" lon="11.477107072849963"><ele>155.0</ele><time>2026-04-11T02:27:45.999Z</time></trkpt><trkpt lat="43.179644989489745" lon="11.47712789440411"><ele>155.0</ele><time>2026-04-11T02:27:46.999Z</time></trkpt><trkpt lat="43.179720765884575" lon="11.47714799747716"><ele>155.0</ele><time>2026-04-11T02:27:48.001Z</time></trkpt><trkpt lat="43.17979038122673" lon="11.477190279181364"><ele>155.0</ele><time>2026-04-11T02:27:49.001Z</time></trkpt><trkpt lat="43.179862521773316" lon="11.47721004769237"><ele>155.0</ele><time>2026-04-11T02:27:50.001Z</time></trkpt><trkpt lat="43.17993425219986" lon="11.477230347864598"><ele>155.0</ele><time>2026-04-11T02:27:51.001Z</time></trkpt><trkpt lat="43.18000792431305" lon="11.477251558373089"><ele>155.0</ele><time>2026-04-11T02:27:52.001Z</time></trkpt><trkpt lat="43.18007737084425" lon="11.477271552323357"><ele>155.0</ele><time>2026-04-11T02:27:53.001Z</time></trkpt><trkpt lat="43.180146905016656" lon="11.4772915715539"><ele>155.0</ele><time>2026-04-11T02:27:54.001Z</time></trkpt><trkpt lat="43.180216729594676" lon="11.47731086373462"><ele>155.0</ele><time>2026-04-11T02:27:55.001Z</time></trkpt><trkpt lat="43.180284472845194" lon="11.477328813183163"><ele>155.0</ele><time>2026-04-11T02:27:56.001Z</time></trkpt><trkpt lat="43.180353777366896" lon="11.477347176234685"><ele>155.0</ele><time>2026-04-11T02:27:57.001Z</time></trkpt><trkpt lat="43.18042382030859" lon="11.477339767365716"><ele>155.0</ele><time>2026-04-11T02:27:58.001Z</time></trkpt><trkpt lat="43.18048911444888" lon="11.477377156493274"><ele>155.0</ele><time>2026-04-11T02:27:59.001Z</time></trkpt><trkpt lat="43.18055818834569" lon="11.477392455666493"><ele>155.0</ele><time>2026-04-11T02:28:00.001Z</time></trkpt><trkpt lat="43.180627483084265" lon="11.477406763118452"><ele>155.16666666666666</ele><time>2026-04-11T02:28:01.001Z</time></trkpt><trkpt lat="43.1806976697532" lon="11.47742111240371"><ele>155.33333333333331</ele><time>2026-04-11T02:28:02.001Z</time></trkpt><trkpt lat="43.18076440580838" lon="11.477434756199944"><ele>155.5</ele><time>2026-04-11T02:28:03.001Z</time></trkpt><trkpt lat="43.180833222711485" lon="11.477425961907759"><ele>155.66666666666666</ele><time>2026-04-11T02:28:04.001Z</time></trkpt><trkpt lat="43.180895437035154" lon="11.477444186271644"><ele>155.83333333333334</ele><time>2026-04-11T02:28:05.001Z</time></trkpt><trkpt lat="43.18101799637109" lon="11.477469668778511"><ele>156.0</ele><time>2026-04-11T02:28:07.001Z</time></trkpt><trkpt lat="43.18107663594852" lon="11.477503421461693"><ele>156.0</ele><time>2026-04-11T02:28:08Z</time></trkpt><trkpt lat="43.18119853635952" lon="11.477533088388824"><ele>156.0</ele><time>2026-04-11T02:28:10Z</time></trkpt><trkpt lat="43.18132261047132" lon="11.477565886238368"><ele>156.0</ele><time>2026-04-11T02:28:12Z</time></trkpt><trkpt lat="43.181384900466014" lon="11.477583484859101"><ele>156.0</ele><time>2026-04-11T02:28:13Z</time></trkpt><trkpt lat="43.18144842303327" lon="11.477601431817295"><ele>156.0</ele><time>2026-04-11T02:28:14Z</time></trkpt><trkpt lat="43.18151064543097" lon="11.477619629241142"><ele>156.0</ele><time>2026-04-11T02:28:15Z</time></trkpt><trkpt lat="43.1815733833863" lon="11.477638193621095"><ele>156.0</ele><time>2026-04-11T02:28:16Z</time></trkpt><trkpt lat="43.18163540648165" lon="11.477656546484804"><ele>156.0</ele><time>2026-04-11T02:28:17Z</time></trkpt><trkpt lat="43.18169762891112" lon="11.47767495834492"><ele>156.0</ele><time>2026-04-11T02:28:18Z</time></trkpt><trkpt lat="43.18175936988492" lon="11.477693227732393"><ele>156.0</ele><time>2026-04-11T02:28:19Z</time></trkpt><trkpt lat="43.18182186526287" lon="11.477711877487515"><ele>156.0</ele><time>2026-04-11T02:28:20Z</time></trkpt><trkpt lat="43.18188415654234" lon="11.477731461912871"><ele>156.0</ele><time>2026-04-11T02:28:21Z</time></trkpt><trkpt lat="43.181945537228195" lon="11.47775076004441"><ele>156.0</ele><time>2026-04-11T02:28:22Z</time></trkpt><trkpt lat="43.18206580006266" lon="11.477788570809556"><ele>156.0</ele><time>2026-04-11T02:28:24Z</time></trkpt><trkpt lat="43.18218639128555" lon="11.477801296841783"><ele>156.0</ele><time>2026-04-11T02:28:26Z</time></trkpt><trkpt lat="43.18229505404567" lon="11.47782694869785"><ele>156.0</ele><time>2026-04-11T02:28:28Z</time></trkpt><trkpt lat="43.1824113105319" lon="11.47785055329826"><ele>156.0</ele><time>2026-04-11T02:28:30Z</time></trkpt><trkpt lat="43.18247122201502" lon="11.477776095681026"><ele>156.0</ele><time>2026-04-11T02:28:31Z</time></trkpt><trkpt lat="43.182531180480865" lon="11.477728737849901"><ele>155.83333333333334</ele><time>2026-04-11T02:28:32Z</time></trkpt><trkpt lat="43.18259052655375" lon="11.477683181216436"><ele>155.66666666666666</ele><time>2026-04-11T02:28:33Z</time></trkpt><trkpt lat="43.1826470980392" lon="11.477631430317127"><ele>155.5</ele><time>2026-04-11T02:28:34Z</time></trkpt><trkpt lat="43.18270206623317" lon="11.47757601470275"><ele>155.33333333333331</ele><time>2026-04-11T02:28:35Z</time></trkpt><trkpt lat="43.182765416276425" lon="11.47754755884731"><ele>155.16666666666666</ele><time>2026-04-11T02:28:36Z</time></trkpt><trkpt lat="43.182819165590466" lon="11.477501478745419"><ele>155.0</ele><time>2026-04-11T02:28:37Z</time></trkpt><trkpt lat="43.18292623454145" lon="11.477409686753438"><ele>155.0</ele><time>2026-04-11T02:28:39Z</time></trkpt><trkpt lat="43.18298322402335" lon="11.477360828773808"><ele>155.0</ele><time>2026-04-11T02:28:40Z</time></trkpt><trkpt lat="43.183038197148974" lon="11.477313699534267"><ele>155.0</ele><time>2026-04-11T02:28:41Z</time></trkpt><trkpt lat="43.18308484765301" lon="11.477247364939226"><ele>155.0</ele><time>2026-04-11T02:28:42Z</time></trkpt><trkpt lat="43.18313935550806" lon="11.47720219386537"><ele>155.0</ele><time>2026-04-11T02:28:43Z</time></trkpt><trkpt lat="43.18320202608437" lon="11.477175319930598"><ele>155.0</ele><time>2026-04-11T02:28:44Z</time></trkpt><trkpt lat="43.18325710906569" lon="11.47713107245605"><ele>155.0</ele><time>2026-04-11T02:28:45Z</time></trkpt><trkpt lat="43.18336496001474" lon="11.477044437275861"><ele>154.6</ele><time>2026-04-11T02:28:47Z</time></trkpt><trkpt lat="43.183471540930135" lon="11.47695882230551"><ele>154.2</ele><time>2026-04-11T02:28:49Z</time></trkpt><trkpt lat="43.1835274686125" lon="11.476913896253452"><ele>153.8</ele><time>2026-04-11T02:28:50Z</time></trkpt><trkpt lat="43.183575605199245" lon="11.476849009147184"><ele>153.4</ele><time>2026-04-11T02:28:51Z</time></trkpt><trkpt lat="43.18368972061536" lon="11.476783561382138"><ele>153.0</ele><time>2026-04-11T02:28:53Z</time></trkpt><trkpt lat="43.183796078864226" lon="11.4766981252605"><ele>153.0</ele><time>2026-04-11T02:28:55Z</time></trkpt><trkpt lat="43.1839017920029" lon="11.476613207284464"><ele>153.0</ele><time>2026-04-11T02:28:57Z</time></trkpt><trkpt lat="43.18401035863174" lon="11.476526214434653"><ele>153.0</ele><time>2026-04-11T02:28:59Z</time></trkpt><trkpt lat="43.18412093560203" lon="11.476438333425572"><ele>153.0</ele><time>2026-04-11T02:29:01Z</time></trkpt><trkpt lat="43.18417730955697" lon="11.476393530169354"><ele>153.0</ele><time>2026-04-11T02:29:02Z</time></trkpt><trkpt lat="43.184234159018885" lon="11.476348349207377"><ele>153.16666666666666</ele><time>2026-04-11T02:29:03Z</time></trkpt><trkpt lat="43.18429525151638" lon="11.4762997958763"><ele>153.33333333333334</ele><time>2026-04-11T02:29:04Z</time></trkpt><trkpt lat="43.184350634016376" lon="11.476255780563614"><ele>153.5</ele><time>2026-04-11T02:29:05Z</time></trkpt><trkpt lat="43.18440624538635" lon="11.476211160446093"><ele>153.66666666666669</ele><time>2026-04-11T02:29:06Z</time></trkpt><trkpt lat="43.184460823863766" lon="11.476166700157231"><ele>153.83333333333334</ele><time>2026-04-11T02:29:07Z</time></trkpt><trkpt lat="43.184569876697616" lon="11.476077864427875"><ele>154.0</ele><time>2026-04-11T02:29:09Z</time></trkpt><trkpt lat="43.18461427010185" lon="11.47601561715865"><ele>154.0</ele><time>2026-04-11T02:29:10Z</time></trkpt><trkpt lat="43.18467532619341" lon="11.475990518417419"><ele>154.0</ele><time>2026-04-11T02:29:11Z</time></trkpt><trkpt lat="43.184784031795516" lon="11.475899758998818"><ele>154.0</ele><time>2026-04-11T02:29:13Z</time></trkpt><trkpt lat="43.1848378133265" lon="11.475854856235365"><ele>154.0</ele><time>2026-04-11T02:29:14Z</time></trkpt><trkpt lat="43.18494259158818" lon="11.475767321510354"><ele>154.0</ele><time>2026-04-11T02:29:16Z</time></trkpt><trkpt lat="43.185048134193636" lon="11.47567866643314"><ele>154.0</ele><time>2026-04-11T02:29:18Z</time></trkpt><trkpt lat="43.18515354181524" lon="11.47559012475827"><ele>154.0</ele><time>2026-04-11T02:29:20Z</time></trkpt><trkpt lat="43.18525960566206" lon="11.475501031801935"><ele>154.0</ele><time>2026-04-11T02:29:22Z</time></trkpt><trkpt lat="43.18536762660636" lon="11.475410294943329"><ele>154.0</ele><time>2026-04-11T02:29:24Z</time></trkpt><trkpt lat="43.1854739316558" lon="11.475320999483182"><ele>154.0</ele><time>2026-04-11T02:29:26Z</time></trkpt><trkpt lat="43.18552880708302" lon="11.475274861886588"><ele>154.0</ele><time>2026-04-11T02:29:27Z</time></trkpt><trkpt lat="43.185582015922556" lon="11.47522819626784"><ele>154.0</ele><time>2026-04-11T02:29:28Z</time></trkpt><trkpt lat="43.18563717906571" lon="11.475179816842795"><ele>154.0</ele><time>2026-04-11T02:29:29Z</time></trkpt><trkpt lat="43.1857405054788" lon="11.475090766992064"><ele>154.0</ele><time>2026-04-11T02:29:31Z</time></trkpt><trkpt lat="43.18584507833613" lon="11.475012490984136"><ele>154.0</ele><time>2026-04-11T02:29:33Z</time></trkpt><trkpt lat="43.18595403239577" lon="11.47494402214982"><ele>154.0</ele><time>2026-04-11T02:29:35Z</time></trkpt><trkpt lat="43.186064355151004" lon="11.474884331248909"><ele>154.0</ele><time>2026-04-11T02:29:37Z</time></trkpt><trkpt lat="43.186175103679915" lon="11.474859025774542"><ele>154.0</ele><time>2026-04-11T02:29:39Z</time></trkpt><trkpt lat="43.18628350995984" lon="11.474849469788367"><ele>154.0</ele><time>2026-04-11T02:29:41Z</time></trkpt><trkpt lat="43.186395637776975" lon="11.47485015506474"><ele>154.25</ele><time>2026-04-11T02:29:43Z</time></trkpt><trkpt lat="43.186513925033736" lon="11.474848855063824"><ele>154.5</ele><time>2026-04-11T02:29:45Z</time></trkpt><trkpt lat="43.186629818245216" lon="11.474846662594047"><ele>154.75</ele><time>2026-04-11T02:29:47Z</time></trkpt><trkpt lat="43.186744476009224" lon="11.474805996969945"><ele>155.0</ele><time>2026-04-11T02:29:48.999Z</time></trkpt><trkpt lat="43.18686110229904" lon="11.474805825651625"><ele>155.0</ele><time>2026-04-11T02:29:50.999Z</time></trkpt><trkpt lat="43.18697417566128" lon="11.474788860247585"><ele>155.0</ele><time>2026-04-11T02:29:52.999Z</time></trkpt><trkpt lat="43.18708311495442" lon="11.474778502808208"><ele>155.0</ele><time>2026-04-11T02:29:55.001Z</time></trkpt><trkpt lat="43.18718165766203" lon="11.474751552212526"><ele>155.0</ele><time>2026-04-11T02:29:57.001Z</time></trkpt><trkpt lat="43.18728031636496" lon="11.474787809577677"><ele>155.0</ele><time>2026-04-11T02:29:59.001Z</time></trkpt><trkpt lat="43.18737782424878" lon="11.474816805269095"><ele>155.8</ele><time>2026-04-11T02:30:01.001Z</time></trkpt><trkpt lat="43.18746307690443" lon="11.474882481723807"><ele>156.6</ele><time>2026-04-11T02:30:03.001Z</time></trkpt><trkpt lat="43.1875466268027" lon="11.474936748736145"><ele>157.4</ele><time>2026-04-11T02:30:05.001Z</time></trkpt><trkpt lat="43.187640591648865" lon="11.474991348408567"><ele>158.2</ele><time>2026-04-11T02:30:07.001Z</time></trkpt><trkpt lat="43.187745688641265" lon="11.475013187376335"><ele>159.0</ele><time>2026-04-11T02:30:09.001Z</time></trkpt><trkpt lat="43.18782701187133" lon="11.474941662778672"><ele>159.0</ele><time>2026-04-11T02:30:11Z</time></trkpt><trkpt lat="43.18787147831856" lon="11.474859646642084"><ele>159.0</ele><time>2026-04-11T02:30:13Z</time></trkpt><trkpt lat="43.187947088360346" lon="11.474618265317003"><ele>159.0</ele><time>2026-04-11T02:30:16Z</time></trkpt><trkpt lat="43.187986672856645" lon="11.474483376675183"><ele>159.0</ele><time>2026-04-11T02:30:18Z</time></trkpt><trkpt lat="43.18805566876092" lon="11.47438661314753"><ele>159.0</ele><time>2026-04-11T02:30:20Z</time></trkpt><trkpt lat="43.18812227337087" lon="11.474290334632428"><ele>159.0</ele><time>2026-04-11T02:30:22Z</time></trkpt><trkpt lat="43.188203888453295" lon="11.474243645449002"><ele>159.0</ele><time>2026-04-11T02:30:24Z</time></trkpt><trkpt lat="43.1882731065524" lon="11.47419590837024"><ele>159.0</ele><time>2026-04-11T02:30:26Z</time></trkpt><trkpt lat="43.18833629098103" lon="11.474133709104438"><ele>159.0</ele><time>2026-04-11T02:30:28Z</time></trkpt><trkpt lat="43.18838804478498" lon="11.474079105633832"><ele>159.0</ele><time>2026-04-11T02:30:30Z</time></trkpt><trkpt lat="43.188447221549445" lon="11.473995151291911"><ele>159.85714285714286</ele><time>2026-04-11T02:30:33Z</time></trkpt><trkpt lat="43.18848294907936" lon="11.473918315854476"><ele>160.71428571428572</ele><time>2026-04-11T02:30:35Z</time></trkpt><trkpt lat="43.18851353614905" lon="11.473825248349206"><ele>161.57142857142858</ele><time>2026-04-11T02:30:38Z</time></trkpt><trkpt lat="43.18854446447999" lon="11.473745858491796"><ele>162.42857142857144</ele><time>2026-04-11T02:30:41Z</time></trkpt><trkpt lat="43.1885742930853" lon="11.473657653949056"><ele>163.28571428571428</ele><time>2026-04-11T02:30:44Z</time></trkpt><trkpt lat="43.18860459061843" lon="11.473564983984144"><ele>164.14285714285717</ele><time>2026-04-11T02:30:47Z</time></trkpt><trkpt lat="43.18863940448679" lon="11.473471694418738"><ele>165.0</ele><time>2026-04-11T02:30:50Z</time></trkpt><trkpt lat="43.18867013748138" lon="11.473368924962884"><ele>165.0</ele><time>2026-04-11T02:30:53Z</time></trkpt><trkpt lat="43.1887059819273" lon="11.473276893074376"><ele>165.0</ele><time>2026-04-11T02:30:56Z</time></trkpt><trkpt lat="43.188745740290585" lon="11.473182649645796"><ele>165.0</ele><time>2026-04-11T02:30:59Z</time></trkpt><trkpt lat="43.18876955380785" lon="11.47309084598801"><ele>165.0</ele><time>2026-04-11T02:31:02Z</time></trkpt><trkpt lat="43.188806621590324" lon="11.473019510927578"><ele>165.0</ele><time>2026-04-11T02:31:04Z</time></trkpt><trkpt lat="43.188878104979196" lon="11.472867580056334"><ele>165.0</ele><time>2026-04-11T02:31:06Z</time></trkpt><trkpt lat="43.18893129229305" lon="11.472717322659243"><ele>165.4</ele><time>2026-04-11T02:31:08Z</time></trkpt><trkpt lat="43.18898103595995" lon="11.472570234771597"><ele>165.8</ele><time>2026-04-11T02:31:10Z</time></trkpt><trkpt lat="43.189015920527076" lon="11.472433945888627"><ele>166.2</ele><time>2026-04-11T02:31:12Z</time></trkpt><trkpt lat="43.18905216847454" lon="11.47230500204181"><ele>166.6</ele><time>2026-04-11T02:31:14Z</time></trkpt><trkpt lat="43.18909036069113" lon="11.47216288200744"><ele>167.0</ele><time>2026-04-11T02:31:16Z</time></trkpt><trkpt lat="43.18913782701861" lon="11.472025376809297"><ele>167.0</ele><time>2026-04-11T02:31:18Z</time></trkpt><trkpt lat="43.189182633448794" lon="11.471890285129918"><ele>167.0</ele><time>2026-04-11T02:31:20Z</time></trkpt><trkpt lat="43.189240351244855" lon="11.471749885912672"><ele>167.0</ele><time>2026-04-11T02:31:22Z</time></trkpt><trkpt lat="43.189315518611764" lon="11.471617004622289"><ele>167.0</ele><time>2026-04-11T02:31:24Z</time></trkpt><trkpt lat="43.189362498683565" lon="11.471548803972901"><ele>167.0</ele><time>2026-04-11T02:31:25Z</time></trkpt><trkpt lat="43.189409854467584" lon="11.471486950743376"><ele>167.0</ele><time>2026-04-11T02:31:26Z</time></trkpt><trkpt lat="43.189461460199674" lon="11.471430203338416"><ele>167.0</ele><time>2026-04-11T02:31:27Z</time></trkpt><trkpt lat="43.189517098551626" lon="11.471377033515134"><ele>167.0</ele><time>2026-04-11T02:31:28Z</time></trkpt><trkpt lat="43.18963628231244" lon="11.471296562412892"><ele>167.0</ele><time>2026-04-11T02:31:30Z</time></trkpt><trkpt lat="43.18969876853122" lon="11.471257340670753"><ele>167.0</ele><time>2026-04-11T02:31:31Z</time></trkpt><trkpt lat="43.18976290118235" lon="11.471218581103303"><ele>167.0</ele><time>2026-04-11T02:31:32Z</time></trkpt><trkpt lat="43.18982555295748" lon="11.471182615184311"><ele>166.71428571428572</ele><time>2026-04-11T02:31:33Z</time></trkpt><trkpt lat="43.18988418170345" lon="11.47112759499615"><ele>166.42857142857144</ele><time>2026-04-11T02:31:34Z</time></trkpt><trkpt lat="43.18995014317482" lon="11.471093821024724"><ele>166.14285714285717</ele><time>2026-04-11T02:31:35Z</time></trkpt><trkpt lat="43.190013101667525" lon="11.471054946859828"><ele>165.85714285714286</ele><time>2026-04-11T02:31:36Z</time></trkpt><trkpt lat="43.190077379629926" lon="11.471010745600589"><ele>165.57142857142858</ele><time>2026-04-11T02:31:37Z</time></trkpt><trkpt lat="43.19013747729353" lon="11.470962142610624"><ele>165.2857142857143</ele><time>2026-04-11T02:31:38Z</time></trkpt><trkpt lat="43.19019388059828" lon="11.470909176780998"><ele>165.0</ele><time>2026-04-11T02:31:39Z</time></trkpt><trkpt lat="43.190254074148264" lon="11.470850551271262"><ele>165.00000000000003</ele><time>2026-04-11T02:31:40Z</time></trkpt><trkpt lat="43.190308532123424" lon="11.470792770953834"><ele>165.0</ele><time>2026-04-11T02:31:41Z</time></trkpt><trkpt lat="43.190360865557906" lon="11.470734070431227"><ele>165.0</ele><time>2026-04-11T02:31:42Z</time></trkpt><trkpt lat="43.19041165164944" lon="11.470671293412083"><ele>165.0</ele><time>2026-04-11T02:31:43Z</time></trkpt><trkpt lat="43.19046332912782" lon="11.470607291337872"><ele>165.0</ele><time>2026-04-11T02:31:44Z</time></trkpt><trkpt lat="43.190510595004184" lon="11.470546711678267"><ele>165.00000000000003</ele><time>2026-04-11T02:31:45Z</time></trkpt><trkpt lat="43.19056168280793" lon="11.47049560947771"><ele>165.0</ele><time>2026-04-11T02:31:46Z</time></trkpt><trkpt lat="43.19061051248832" lon="11.470435068638364"><ele>164.57142857142858</ele><time>2026-04-11T02:31:47Z</time></trkpt><trkpt lat="43.19065821095636" lon="11.470371189348803"><ele>164.14285714285714</ele><time>2026-04-11T02:31:48Z</time></trkpt><trkpt lat="43.190705885843315" lon="11.470304871158678"><ele>163.71428571428572</ele><time>2026-04-11T02:31:48.999Z</time></trkpt><trkpt lat="43.190748798819754" lon="11.470231065199952"><ele>163.28571428571428</ele><time>2026-04-11T02:31:49.999Z</time></trkpt><trkpt lat="43.19079334386809" lon="11.470155070802539"><ele>162.85714285714286</ele><time>2026-04-11T02:31:50.999Z</time></trkpt><trkpt lat="43.19083648184158" lon="11.470075889365289"><ele>162.42857142857144</ele><time>2026-04-11T02:31:51.999Z</time></trkpt><trkpt lat="43.19087568820821" lon="11.469987436815615"><ele>162.0</ele><time>2026-04-11T02:31:52.999Z</time></trkpt><trkpt lat="43.19093172538228" lon="11.469912574302155"><ele>162.0</ele><time>2026-04-11T02:31:53.999Z</time></trkpt><trkpt lat="43.1909714843046" lon="11.469822342055261"><ele>162.0</ele><time>2026-04-11T02:31:54.999Z</time></trkpt><trkpt lat="43.190996787739735" lon="11.469718668874966"><ele>162.0</ele><time>2026-04-11T02:31:55.999Z</time></trkpt><trkpt lat="43.19103161226725" lon="11.469622779141064"><ele>162.0</ele><time>2026-04-11T02:31:56.999Z</time></trkpt><trkpt lat="43.191081793192744" lon="11.469538252839698"><ele>162.0</ele><time>2026-04-11T02:31:57.999Z</time></trkpt><trkpt lat="43.19111809096568" lon="11.469441784727119"><ele>162.0</ele><time>2026-04-11T02:31:59Z</time></trkpt><trkpt lat="43.19115561669533" lon="11.469346194154951"><ele>161.16666666666666</ele><time>2026-04-11T02:32:00Z</time></trkpt><trkpt lat="43.191194883235724" lon="11.469256124496008"><ele>160.33333333333334</ele><time>2026-04-11T02:32:01Z</time></trkpt><trkpt lat="43.19123935221896" lon="11.469169769553524"><ele>159.5</ele><time>2026-04-11T02:32:02Z</time></trkpt><trkpt lat="43.19129072759915" lon="11.469091442347684"><ele>158.66666666666669</ele><time>2026-04-11T02:32:03Z</time></trkpt><trkpt lat="43.19134588004519" lon="11.469022454150585"><ele>157.83333333333334</ele><time>2026-04-11T02:32:04Z</time></trkpt><trkpt lat="43.19139122767815" lon="11.468943839660973"><ele>157.0</ele><time>2026-04-11T02:32:05Z</time></trkpt><trkpt lat="43.191458494524746" lon="11.468902163364351"><ele>157.28571428571428</ele><time>2026-04-11T02:32:06Z</time></trkpt><trkpt lat="43.191507124023936" lon="11.468827976290978"><ele>157.57142857142856</ele><time>2026-04-11T02:32:07Z</time></trkpt><trkpt lat="43.19157362808502" lon="11.468791516880652"><ele>157.85714285714283</ele><time>2026-04-11T02:32:08Z</time></trkpt><trkpt lat="43.1916227238984" lon="11.468720459356623"><ele>158.14285714285714</ele><time>2026-04-11T02:32:09Z</time></trkpt><trkpt lat="43.19168937005555" lon="11.468684866535076"><ele>158.42857142857144</ele><time>2026-04-11T02:32:10Z</time></trkpt><trkpt lat="43.19173335653172" lon="11.468617429995188"><ele>158.7142857142857</ele><time>2026-04-11T02:32:11Z</time></trkpt><trkpt lat="43.19178979315825" lon="11.468571103774202"><ele>159.0</ele><time>2026-04-11T02:32:12Z</time></trkpt><trkpt lat="43.191844343121346" lon="11.46852348189888"><ele>159.0</ele><time>2026-04-11T02:32:13Z</time></trkpt><trkpt lat="43.19189946885324" lon="11.468474240462827"><ele>159.0</ele><time>2026-04-11T02:32:14Z</time></trkpt><trkpt lat="43.19196243863063" lon="11.468434818930122"><ele>159.0</ele><time>2026-04-11T02:32:15Z</time></trkpt><trkpt lat="43.19201597172717" lon="11.468384716213516"><ele>159.0</ele><time>2026-04-11T02:32:16Z</time></trkpt><trkpt lat="43.19206542111276" lon="11.468309003014646"><ele>159.0</ele><time>2026-04-11T02:32:17Z</time></trkpt><trkpt lat="43.19212433767139" lon="11.46824986745618"><ele>159.0</ele><time>2026-04-11T02:32:18Z</time></trkpt><trkpt lat="43.19218343196595" lon="11.468191974493918"><ele>159.0</ele><time>2026-04-11T02:32:19Z</time></trkpt><trkpt lat="43.19224045779886" lon="11.468135934466163"><ele>159.0</ele><time>2026-04-11T02:32:20Z</time></trkpt><trkpt lat="43.19229473225835" lon="11.468087109207222"><ele>159.0</ele><time>2026-04-11T02:32:21Z</time></trkpt><trkpt lat="43.19235274926201" lon="11.468028683755133"><ele>159.0</ele><time>2026-04-11T02:32:22Z</time></trkpt><trkpt lat="43.19240714853652" lon="11.467970226078267"><ele>159.0</ele><time>2026-04-11T02:32:23Z</time></trkpt><trkpt lat="43.19246372623363" lon="11.467914009028153"><ele>159.0</ele><time>2026-04-11T02:32:24Z</time></trkpt><trkpt lat="43.192519194000546" lon="11.467862237911998"><ele>159.0</ele><time>2026-04-11T02:32:25Z</time></trkpt><trkpt lat="43.19257476274177" lon="11.467805769038131"><ele>159.0</ele><time>2026-04-11T02:32:26Z</time></trkpt><trkpt lat="43.192624388801384" lon="11.467750378652948"><ele>158.5</ele><time>2026-04-11T02:32:27Z</time></trkpt><trkpt lat="43.1926789343602" lon="11.467701213704256"><ele>158.0</ele><time>2026-04-11T02:32:28Z</time></trkpt><trkpt lat="43.19273179841602" lon="11.467651330948142"><ele>157.5</ele><time>2026-04-11T02:32:29Z</time></trkpt><trkpt lat="43.19278439984289" lon="11.467601163864392"><ele>157.0</ele><time>2026-04-11T02:32:30Z</time></trkpt><trkpt lat="43.19288561684557" lon="11.46750575803796"><ele>156.5</ele><time>2026-04-11T02:32:32Z</time></trkpt><trkpt lat="43.19298974408115" lon="11.467406249645132"><ele>156.0</ele><time>2026-04-11T02:32:34Z</time></trkpt><trkpt lat="43.1930402353002" lon="11.467353026890729"><ele>156.0</ele><time>2026-04-11T02:32:35Z</time></trkpt><trkpt lat="43.19309151833931" lon="11.467301802785036"><ele>156.0</ele><time>2026-04-11T02:32:36Z</time></trkpt><trkpt lat="43.19319490537242" lon="11.467205376101326"><ele>156.0</ele><time>2026-04-11T02:32:38Z</time></trkpt><trkpt lat="43.193245683457654" lon="11.467151909243505"><ele>156.0</ele><time>2026-04-11T02:32:39Z</time></trkpt><trkpt lat="43.19329873324497" lon="11.467099627708897"><ele>156.0</ele><time>2026-04-11T02:32:40Z</time></trkpt><trkpt lat="43.19335504136334" lon="11.467049959556714"><ele>156.0</ele><time>2026-04-11T02:32:41Z</time></trkpt><trkpt lat="43.19341721249029" lon="11.46701880451545"><ele>156.0</ele><time>2026-04-11T02:32:42Z</time></trkpt><trkpt lat="43.1934710633892" lon="11.466949764807447"><ele>156.0</ele><time>2026-04-11T02:32:43Z</time></trkpt><trkpt lat="43.19352821809285" lon="11.466892947011443"><ele>156.0</ele><time>2026-04-11T02:32:44Z</time></trkpt><trkpt lat="43.19358976914934" lon="11.466835100798606"><ele>156.0</ele><time>2026-04-11T02:32:45Z</time></trkpt><trkpt lat="43.19365497252795" lon="11.466773735928353"><ele>156.0</ele><time>2026-04-11T02:32:46Z</time></trkpt><trkpt lat="43.193721970573144" lon="11.466715699837648"><ele>156.0</ele><time>2026-04-11T02:32:47Z</time></trkpt><trkpt lat="43.1938004414963" lon="11.466671298574504"><ele>156.0</ele><time>2026-04-11T02:32:48Z</time></trkpt><trkpt lat="43.193871067334264" lon="11.466610588897556"><ele>156.0</ele><time>2026-04-11T02:32:49Z</time></trkpt><trkpt lat="43.1939421600661" lon="11.466549477901628"><ele>156.0</ele><time>2026-04-11T02:32:50Z</time></trkpt><trkpt lat="43.19401248994182" lon="11.46648665291278"><ele>156.0</ele><time>2026-04-11T02:32:51Z</time></trkpt><trkpt lat="43.19407596288785" lon="11.466429625381606"><ele>156.0</ele><time>2026-04-11T02:32:52Z</time></trkpt><trkpt lat="43.19413628409611" lon="11.466372032579295"><ele>156.0</ele><time>2026-04-11T02:32:53Z</time></trkpt><trkpt lat="43.194194858196106" lon="11.466313253307991"><ele>155.83333333333334</ele><time>2026-04-11T02:32:54Z</time></trkpt><trkpt lat="43.194236072435295" lon="11.466242027217767"><ele>155.66666666666666</ele><time>2026-04-11T02:32:55Z</time></trkpt><trkpt lat="43.194291665586576" lon="11.466185741958277"><ele>155.5</ele><time>2026-04-11T02:32:56Z</time></trkpt><trkpt lat="43.194355971204466" lon="11.466147403243783"><ele>155.33333333333331</ele><time>2026-04-11T02:32:57Z</time></trkpt><trkpt lat="43.194452153473165" lon="11.466053930532645"><ele>155.16666666666666</ele><time>2026-04-11T02:32:59Z</time></trkpt><trkpt lat="43.19453861230082" lon="11.465974675493486"><ele>155.0</ele><time>2026-04-11T02:33:01Z</time></trkpt><trkpt lat="43.19462386529974" lon="11.465897033696995"><ele>155.0</ele><time>2026-04-11T02:33:03Z</time></trkpt><trkpt lat="43.19470697744291" lon="11.465817613870243"><ele>155.0</ele><time>2026-04-11T02:33:05Z</time></trkpt><trkpt lat="43.19479039035361" lon="11.465731039210194"><ele>155.0</ele><time>2026-04-11T02:33:07Z</time></trkpt><trkpt lat="43.194863822445974" lon="11.465687940703043"><ele>155.0</ele><time>2026-04-11T02:33:09Z</time></trkpt><trkpt lat="43.19494473759492" lon="11.465851720898474"><ele>155.0</ele><time>2026-04-11T02:33:12Z</time></trkpt><trkpt lat="43.19501601225141" lon="11.465925260465452"><ele>155.0</ele><time>2026-04-11T02:33:14Z</time></trkpt><trkpt lat="43.19507862873506" lon="11.466011217294191"><ele>155.0</ele><time>2026-04-11T02:33:16Z</time></trkpt><trkpt lat="43.19513953112843" lon="11.466089854094353"><ele>155.0</ele><time>2026-04-11T02:33:18Z</time></trkpt><trkpt lat="43.19520246475875" lon="11.466174108764687"><ele>155.0</ele><time>2026-04-11T02:33:20Z</time></trkpt><trkpt lat="43.19526566035874" lon="11.46625900875833"><ele>155.0</ele><time>2026-04-11T02:33:22Z</time></trkpt><trkpt lat="43.195322599146486" lon="11.46635010957645"><ele>155.0</ele><time>2026-04-11T02:33:24Z</time></trkpt><trkpt lat="43.19536664508761" lon="11.466462539172344"><ele>155.5</ele><time>2026-04-11T02:33:26Z</time></trkpt><trkpt lat="43.195400844994246" lon="11.466582204917717"><ele>156.0</ele><time>2026-04-11T02:33:28Z</time></trkpt><trkpt lat="43.19541927340718" lon="11.466698723857958"><ele>156.5</ele><time>2026-04-11T02:33:30Z</time></trkpt><trkpt lat="43.19543679131068" lon="11.466818305466111"><ele>157.0</ele><time>2026-04-11T02:33:32Z</time></trkpt><trkpt lat="43.195447666384005" lon="11.466919997431603"><ele>157.5</ele><time>2026-04-11T02:33:34Z</time></trkpt><trkpt lat="43.195455414013495" lon="11.467038590532018"><ele>158.0</ele><time>2026-04-11T02:33:37Z</time></trkpt><trkpt lat="43.19546670801187" lon="11.467137494952555"><ele>158.2857142857143</ele><time>2026-04-11T02:33:40Z</time></trkpt><trkpt lat="43.195479578491046" lon="11.467243787074391"><ele>158.57142857142858</ele><time>2026-04-11T02:33:43Z</time></trkpt><trkpt lat="43.19550151271761" lon="11.467337832914703"><ele>158.85714285714286</ele><time>2026-04-11T02:33:46Z</time></trkpt><trkpt lat="43.19553016122128" lon="11.467428880260295"><ele>159.14285714285717</ele><time>2026-04-11T02:33:49Z</time></trkpt><trkpt lat="43.19556469914914" lon="11.467503941582358"><ele>159.42857142857144</ele><time>2026-04-11T02:33:51.999Z</time></trkpt><trkpt lat="43.195608196013524" lon="11.46756973940157"><ele>159.71428571428572</ele><time>2026-04-11T02:33:54.999Z</time></trkpt><trkpt lat="43.19568211636546" lon="11.467620580372438"><ele>160.0</ele><time>2026-04-11T02:33:58.999Z</time></trkpt><trkpt lat="43.19575863450016" lon="11.467658310336287"><ele>160.71428571428572</ele><time>2026-04-11T02:34:02.999Z</time></trkpt><trkpt lat="43.19582114095446" lon="11.467679289657251"><ele>161.42857142857144</ele><time>2026-04-11T02:34:07Z</time></trkpt><trkpt lat="43.19588937329135" lon="11.467703435114295"><ele>162.14285714285717</ele><time>2026-04-11T02:34:11Z</time></trkpt><trkpt lat="43.19595882147437" lon="11.467729625762015"><ele>162.85714285714286</ele><time>2026-04-11T02:34:15Z</time></trkpt><trkpt lat="43.196027975347924" lon="11.467764870255838"><ele>163.57142857142858</ele><time>2026-04-11T02:34:19Z</time></trkpt><trkpt lat="43.19609388335498" lon="11.467806464399446"><ele>164.2857142857143</ele><time>2026-04-11T02:34:23Z</time></trkpt><trkpt lat="43.19616458180802" lon="11.467861856102957"><ele>165.0</ele><time>2026-04-11T02:34:27Z</time></trkpt><trkpt lat="43.196230384330974" lon="11.467932870791088"><ele>165.2857142857143</ele><time>2026-04-11T02:34:31Z</time></trkpt><trkpt lat="43.1962768623172" lon="11.467999413607966"><ele>165.57142857142858</ele><time>2026-04-11T02:34:34Z</time></trkpt><trkpt lat="43.19632052812449" lon="11.468064392783004"><ele>165.85714285714286</ele><time>2026-04-11T02:34:37Z</time></trkpt><trkpt lat="43.19636121815305" lon="11.468131529575324"><ele>166.14285714285717</ele><time>2026-04-11T02:34:40Z</time></trkpt><trkpt lat="43.19640411206668" lon="11.468199297836449"><ele>166.42857142857144</ele><time>2026-04-11T02:34:43Z</time></trkpt><trkpt lat="43.196445402838116" lon="11.468269245880434"><ele>166.71428571428572</ele><time>2026-04-11T02:34:46Z</time></trkpt><trkpt lat="43.196487656993895" lon="11.46834913931304"><ele>167.0</ele><time>2026-04-11T02:34:49Z</time></trkpt><trkpt lat="43.196526190884896" lon="11.468429823914617"><ele>168.14285714285714</ele><time>2026-04-11T02:34:52Z</time></trkpt><trkpt lat="43.19655856015849" lon="11.468518047504556"><ele>169.28571428571428</ele><time>2026-04-11T02:34:55Z</time></trkpt><trkpt lat="43.19657399607456" lon="11.468617526464024"><ele>170.42857142857144</ele><time>2026-04-11T02:34:58Z</time></trkpt><trkpt lat="43.19658955885139" lon="11.468717746708515"><ele>171.57142857142856</ele><time>2026-04-11T02:35:01Z</time></trkpt><trkpt lat="43.19659898792169" lon="11.468816476985904"><ele>172.71428571428572</ele><time>2026-04-11T02:35:04Z</time></trkpt><trkpt lat="43.1966246409622" lon="11.468908366135986"><ele>173.85714285714286</ele><time>2026-04-11T02:35:07Z</time></trkpt><trkpt lat="43.19665862519718" lon="11.468984568086075"><ele>175.0</ele><time>2026-04-11T02:35:10Z</time></trkpt><trkpt lat="43.19670759708466" lon="11.46907388631897"><ele>175.85714285714286</ele><time>2026-04-11T02:35:14Z</time></trkpt><trkpt lat="43.196757030329486" lon="11.46914651533028"><ele>176.71428571428572</ele><time>2026-04-11T02:35:17Z</time></trkpt><trkpt lat="43.19681159665564" lon="11.469217594401869"><ele>177.57142857142856</ele><time>2026-04-11T02:35:21Z</time></trkpt><trkpt lat="43.196855694919854" lon="11.469294232979326"><ele>178.42857142857144</ele><time>2026-04-11T02:35:25Z</time></trkpt><trkpt lat="43.19690148917962" lon="11.469374135336004"><ele>179.28571428571428</ele><time>2026-04-11T02:35:29Z</time></trkpt><trkpt lat="43.196942492311734" lon="11.46945133968524"><ele>180.14285714285714</ele><time>2026-04-11T02:35:33Z</time></trkpt><trkpt lat="43.196973527740205" lon="11.46953686017475"><ele>181.0</ele><time>2026-04-11T02:35:37Z</time></trkpt><trkpt lat="43.19700882052202" lon="11.469622297278057"><ele>181.16666666666669</ele><time>2026-04-11T02:35:41Z</time></trkpt><trkpt lat="43.197045193426106" lon="11.469707338258905"><ele>181.33333333333334</ele><time>2026-04-11T02:35:44Z</time></trkpt><trkpt lat="43.197082390415815" lon="11.469800768765415"><ele>181.5</ele><time>2026-04-11T02:35:47.999Z</time></trkpt><trkpt lat="43.19711623229502" lon="11.469895078285381"><ele>181.66666666666666</ele><time>2026-04-11T02:35:51.999Z</time></trkpt><trkpt lat="43.19714454142669" lon="11.469989118224406"><ele>181.83333333333331</ele><time>2026-04-11T02:35:55.999Z</time></trkpt><trkpt lat="43.197180573499246" lon="11.470086686005741"><ele>182.0</ele><time>2026-04-11T02:35:59.999Z</time></trkpt><trkpt lat="43.19721264120253" lon="11.470187170536098"><ele>182.0</ele><time>2026-04-11T02:36:03.999Z</time></trkpt><trkpt lat="43.19724810592747" lon="11.470281328146285"><ele>182.0</ele><time>2026-04-11T02:36:07.999Z</time></trkpt><trkpt lat="43.19728951918583" lon="11.470364368535684"><ele>182.0</ele><time>2026-04-11T02:36:12Z</time></trkpt><trkpt lat="43.19734760450779" lon="11.470433376544491"><ele>182.0</ele><time>2026-04-11T02:36:16Z</time></trkpt><trkpt lat="43.197411034104825" lon="11.470490711754403"><ele>182.0</ele><time>2026-04-11T02:36:20Z</time></trkpt><trkpt lat="43.197478352913" lon="11.47052096665317"><ele>182.0</ele><time>2026-04-11T02:36:24Z</time></trkpt><trkpt lat="43.19754583196357" lon="11.470563252324435"><ele>182.0</ele><time>2026-04-11T02:36:28Z</time></trkpt><trkpt lat="43.19762602220324" lon="11.47058236812692"><ele>185.0</ele><time>2026-04-11T02:36:32Z</time></trkpt><trkpt lat="43.19770520400258" lon="11.470596288824636"><ele>188.0</ele><time>2026-04-11T02:36:36Z</time></trkpt><trkpt lat="43.19778508850981" lon="11.470600515762207"><ele>191.0</ele><time>2026-04-11T02:36:40Z</time></trkpt><trkpt lat="43.19786388922498" lon="11.470621568874547"><ele>194.0</ele><time>2026-04-11T02:36:44Z</time></trkpt><trkpt lat="43.1979245045304" lon="11.470652643672175"><ele>197.00000000000003</ele><time>2026-04-11T02:36:48Z</time></trkpt><trkpt lat="43.197994706546275" lon="11.470695043225133"><ele>200.0</ele><time>2026-04-11T02:36:52Z</time></trkpt><trkpt lat="43.198051840685245" lon="11.470746117223348"><ele>200.00000000000003</ele><time>2026-04-11T02:36:56Z</time></trkpt><trkpt lat="43.198106466087154" lon="11.470790593677181"><ele>200.0</ele><time>2026-04-11T02:36:59Z</time></trkpt><trkpt lat="43.19816017297899" lon="11.470846973452005"><ele>200.0</ele><time>2026-04-11T02:37:03Z</time></trkpt><trkpt lat="43.19822622921765" lon="11.47093737781113"><ele>200.0</ele><time>2026-04-11T02:37:07Z</time></trkpt><trkpt lat="43.19827128805456" lon="11.471011797644637"><ele>200.00000000000003</ele><time>2026-04-11T02:37:11Z</time></trkpt><trkpt lat="43.19832235168544" lon="11.471107901972854"><ele>200.0</ele><time>2026-04-11T02:37:15Z</time></trkpt><trkpt lat="43.19836525705636" lon="11.471200196504853"><ele>201.66666666666669</ele><time>2026-04-11T02:37:19Z</time></trkpt><trkpt lat="43.19839668075478" lon="11.47131890905666"><ele>203.33333333333334</ele><time>2026-04-11T02:37:23Z</time></trkpt><trkpt lat="43.19842258859593" lon="11.471415298439664"><ele>205.0</ele><time>2026-04-11T02:37:26Z</time></trkpt><trkpt lat="43.19846098680349" lon="11.471498146553992"><ele>206.66666666666669</ele><time>2026-04-11T02:37:29Z</time></trkpt><trkpt lat="43.198487972947326" lon="11.47157838607985"><ele>208.33333333333334</ele><time>2026-04-11T02:37:32Z</time></trkpt><trkpt lat="43.19851537300055" lon="11.471673615070724"><ele>210.0</ele><time>2026-04-11T02:37:35Z</time></trkpt><trkpt lat="43.19852320377103" lon="11.471774969278284"><ele>210.0</ele><time>2026-04-11T02:37:38Z</time></trkpt><trkpt lat="43.19852543778896" lon="11.471871284574888"><ele>210.0</ele><time>2026-04-11T02:37:41Z</time></trkpt><trkpt lat="43.198525480917944" lon="11.471981168378216"><ele>210.0</ele><time>2026-04-11T02:37:44Z</time></trkpt><trkpt lat="43.198516768963195" lon="11.472078259745743"><ele>210.0</ele><time>2026-04-11T02:37:47Z</time></trkpt><trkpt lat="43.19850854229228" lon="11.47217671219204"><ele>210.0</ele><time>2026-04-11T02:37:50Z</time></trkpt><trkpt lat="43.19849547358317" lon="11.472280156507546"><ele>210.0</ele><time>2026-04-11T02:37:52Z</time></trkpt><trkpt lat="43.1984820917544" lon="11.472380341241935"><ele>210.0</ele><time>2026-04-11T02:37:54Z</time></trkpt><trkpt lat="43.198480570460895" lon="11.472504564076539"><ele>210.6</ele><time>2026-04-11T02:37:55.999Z</time></trkpt><trkpt lat="43.19847058205729" lon="11.472632186318698"><ele>211.2</ele><time>2026-04-11T02:37:57.999Z</time></trkpt><trkpt lat="43.1984808944466" lon="11.472772017049097"><ele>211.8</ele><time>2026-04-11T02:37:59.999Z</time></trkpt><trkpt lat="43.19851441180804" lon="11.472899867585411"><ele>212.4</ele><time>2026-04-11T02:38:01.999Z</time></trkpt><trkpt lat="43.19856463396761" lon="11.473008169259382"><ele>213.0</ele><time>2026-04-11T02:38:03.999Z</time></trkpt><trkpt lat="43.19861162051044" lon="11.473117834166802"><ele>213.16666666666666</ele><time>2026-04-11T02:38:05.999Z</time></trkpt><trkpt lat="43.19866539023565" lon="11.473241523342878"><ele>213.33333333333331</ele><time>2026-04-11T02:38:07.999Z</time></trkpt><trkpt lat="43.19873657577526" lon="11.4733741276919"><ele>213.5</ele><time>2026-04-11T02:38:09.999Z</time></trkpt><trkpt lat="43.19877334562223" lon="11.47344731770851"><ele>213.66666666666666</ele><time>2026-04-11T02:38:10.999Z</time></trkpt><trkpt lat="43.19880816489098" lon="11.473521764192949"><ele>213.83333333333331</ele><time>2026-04-11T02:38:11.999Z</time></trkpt><trkpt lat="43.19883962233905" lon="11.473610281464957"><ele>214.0</ele><time>2026-04-11T02:38:12.999Z</time></trkpt><trkpt lat="43.1988592318377" lon="11.473705398547182"><ele>212.49999999999997</ele><time>2026-04-11T02:38:13.999Z</time></trkpt><trkpt lat="43.19886787783061" lon="11.473813489169801"><ele>211.0</ele><time>2026-04-11T02:38:14.999Z</time></trkpt><trkpt lat="43.198865450339824" lon="11.473916661715768"><ele>209.5</ele><time>2026-04-11T02:38:15.999Z</time></trkpt><trkpt lat="43.19885983229842" lon="11.474017310735455"><ele>208.0</ele><time>2026-04-11T02:38:17Z</time></trkpt><trkpt lat="43.198854299269065" lon="11.474120921655087"><ele>206.49999999999997</ele><time>2026-04-11T02:38:18Z</time></trkpt><trkpt lat="43.19885735077376" lon="11.474223201167447"><ele>205.0</ele><time>2026-04-11T02:38:19Z</time></trkpt><trkpt lat="43.19887332794601" lon="11.474323848296065"><ele>205.0</ele><time>2026-04-11T02:38:20Z</time></trkpt><trkpt lat="43.19889670844684" lon="11.474418925538853"><ele>205.0</ele><time>2026-04-11T02:38:21Z</time></trkpt><trkpt lat="43.19893059108206" lon="11.474504557194445"><ele>205.0</ele><time>2026-04-11T02:38:22Z</time></trkpt><trkpt lat="43.19896963923318" lon="11.474591685618797"><ele>205.0</ele><time>2026-04-11T02:38:23Z</time></trkpt><trkpt lat="43.199011020812556" lon="11.474670760435558"><ele>205.0</ele><time>2026-04-11T02:38:24Z</time></trkpt><trkpt lat="43.19905976828656" lon="11.474748257557977"><ele>205.0</ele><time>2026-04-11T02:38:25Z</time></trkpt><trkpt lat="43.1990954299094" lon="11.474841952514796"><ele>205.0</ele><time>2026-04-11T02:38:26Z</time></trkpt><trkpt lat="43.19915226213947" lon="11.474908129835665"><ele>203.99999999999997</ele><time>2026-04-11T02:38:27Z</time></trkpt><trkpt lat="43.19919359948561" lon="11.474987494587102"><ele>203.0</ele><time>2026-04-11T02:38:28Z</time></trkpt><trkpt lat="43.19923299495029" lon="11.475064892289264"><ele>202.0</ele><time>2026-04-11T02:38:29Z</time></trkpt><trkpt lat="43.19927203514062" lon="11.475134716623836"><ele>201.0</ele><time>2026-04-11T02:38:30Z</time></trkpt><trkpt lat="43.1993135857082" lon="11.475203864428542"><ele>199.99999999999997</ele><time>2026-04-11T02:38:31Z</time></trkpt><trkpt lat="43.199385005928626" lon="11.475339798120679"><ele>199.0</ele><time>2026-04-11T02:38:33Z</time></trkpt><trkpt lat="43.199458434367735" lon="11.475458785691597"><ele>200.16666666666666</ele><time>2026-04-11T02:38:35Z</time></trkpt><trkpt lat="43.19953497137511" lon="11.475542048207407"><ele>201.33333333333331</ele><time>2026-04-11T02:38:37Z</time></trkpt><trkpt lat="43.19959525138395" lon="11.475614646534773"><ele>202.5</ele><time>2026-04-11T02:38:39Z</time></trkpt><trkpt lat="43.19966152762769" lon="11.475670280529892"><ele>203.66666666666669</ele><time>2026-04-11T02:38:41Z</time></trkpt><trkpt lat="43.19972000515208" lon="11.475721974009886"><ele>204.83333333333334</ele><time>2026-04-11T02:38:43Z</time></trkpt><trkpt lat="43.19978359667344" lon="11.475760975774737"><ele>206.0</ele><time>2026-04-11T02:38:45Z</time></trkpt><trkpt lat="43.19984525565237" lon="11.475793313637126"><ele>205.99999999999997</ele><time>2026-04-11T02:38:48Z</time></trkpt><trkpt lat="43.19990690831227" lon="11.475837833320044"><ele>206.0</ele><time>2026-04-11T02:38:50Z</time></trkpt><trkpt lat="43.19999964046016" lon="11.475907052915842"><ele>206.0</ele><time>2026-04-11T02:38:52Z</time></trkpt><trkpt lat="43.20004680227886" lon="11.47597087046926"><ele>206.0</ele><time>2026-04-11T02:38:54Z</time></trkpt><trkpt lat="43.200090194113194" lon="11.476039224007927"><ele>206.0</ele><time>2026-04-11T02:38:56Z</time></trkpt><trkpt lat="43.20013936997864" lon="11.476094926962887"><ele>205.99999999999997</ele><time>2026-04-11T02:38:58Z</time></trkpt><trkpt lat="43.20018879941057" lon="11.47615852020052"><ele>206.0</ele><time>2026-04-11T02:39:00Z</time></trkpt><trkpt lat="43.20024811127471" lon="11.476214365922695"><ele>206.00000000000003</ele><time>2026-04-11T02:39:02Z</time></trkpt><trkpt lat="43.200308659549925" lon="11.476267652353771"><ele>206.0</ele><time>2026-04-11T02:39:04Z</time></trkpt><trkpt lat="43.20036545383017" lon="11.476335792606031"><ele>206.0</ele><time>2026-04-11T02:39:06Z</time></trkpt><trkpt lat="43.20042290666542" lon="11.476388103716195"><ele>206.0</ele><time>2026-04-11T02:39:08Z</time></trkpt><trkpt lat="43.20050579684578" lon="11.476482555795274"><ele>206.00000000000003</ele><time>2026-04-11T02:39:10Z</time></trkpt><trkpt lat="43.20057834969937" lon="11.476565533887767"><ele>206.0</ele><time>2026-04-11T02:39:12Z</time></trkpt><trkpt lat="43.20065080624527" lon="11.476666916648597"><ele>206.0</ele><time>2026-04-11T02:39:14Z</time></trkpt><trkpt lat="43.20071365449871" lon="11.47677453510821"><ele>206.0</ele><time>2026-04-11T02:39:16Z</time></trkpt><trkpt lat="43.200772178217626" lon="11.476882125308185"><ele>206.0</ele><time>2026-04-11T02:39:18Z</time></trkpt><trkpt lat="43.20082734128253" lon="11.476986399775662"><ele>206.0</ele><time>2026-04-11T02:39:20Z</time></trkpt><trkpt lat="43.20087788540353" lon="11.477094004002337"><ele>206.0</ele><time>2026-04-11T02:39:22Z</time></trkpt><trkpt lat="43.20092354247004" lon="11.477207913767923"><ele>206.0</ele><time>2026-04-11T02:39:24Z</time></trkpt><trkpt lat="43.20097018178915" lon="11.477327485903515"><ele>206.0</ele><time>2026-04-11T02:39:26Z</time></trkpt><trkpt lat="43.20101851357909" lon="11.477444630708353"><ele>206.0</ele><time>2026-04-11T02:39:28Z</time></trkpt><trkpt lat="43.20105706701217" lon="11.477542146385332"><ele>206.0</ele><time>2026-04-11T02:39:30Z</time></trkpt><trkpt lat="43.2010966682939" lon="11.477655768822645"><ele>206.0</ele><time>2026-04-11T02:39:32Z</time></trkpt><trkpt lat="43.20113135699538" lon="11.477761036172165"><ele>206.0</ele><time>2026-04-11T02:39:34Z</time></trkpt><trkpt lat="43.201174758826966" lon="11.47787279135775"><ele>206.0</ele><time>2026-04-11T02:39:36Z</time></trkpt><trkpt lat="43.20121734161253" lon="11.47798542332757"><ele>206.0</ele><time>2026-04-11T02:39:38Z</time></trkpt><trkpt lat="43.20125995624744" lon="11.478092391084234"><ele>206.0</ele><time>2026-04-11T02:39:40Z</time></trkpt><trkpt lat="43.20130830599493" lon="11.478199420167735"><ele>206.0</ele><time>2026-04-11T02:39:42Z</time></trkpt><trkpt lat="43.20135374896195" lon="11.478303370257125"><ele>206.50000000000003</ele><time>2026-04-11T02:39:44Z</time></trkpt><trkpt lat="43.20139727385689" lon="11.478410948562797"><ele>207.0</ele><time>2026-04-11T02:39:46Z</time></trkpt><trkpt lat="43.20144155725469" lon="11.478513981201784"><ele>207.5</ele><time>2026-04-11T02:39:48Z</time></trkpt><trkpt lat="43.20148348801761" lon="11.47861875298953"><ele>208.0</ele><time>2026-04-11T02:39:50Z</time></trkpt><trkpt lat="43.20152415868557" lon="11.47872567002339"><ele>208.50000000000003</ele><time>2026-04-11T02:39:52Z</time></trkpt><trkpt lat="43.20156414079895" lon="11.47883304929249"><ele>209.0</ele><time>2026-04-11T02:39:54Z</time></trkpt><trkpt lat="43.20160202783352" lon="11.478946058387134"><ele>209.66666666666669</ele><time>2026-04-11T02:39:56Z</time></trkpt><trkpt lat="43.20163698475818" lon="11.479058566461518"><ele>210.33333333333334</ele><time>2026-04-11T02:39:58Z</time></trkpt><trkpt lat="43.20167374554998" lon="11.479163962446558"><ele>211.0</ele><time>2026-04-11T02:40:00Z</time></trkpt><trkpt lat="43.20170508577255" lon="11.4792734771135"><ele>211.66666666666669</ele><time>2026-04-11T02:40:02Z</time></trkpt><trkpt lat="43.201735784944375" lon="11.479380777477822"><ele>212.33333333333334</ele><time>2026-04-11T02:40:04Z</time></trkpt><trkpt lat="43.20175976449485" lon="11.479494956633445"><ele>213.0</ele><time>2026-04-11T02:40:05.999Z</time></trkpt><trkpt lat="43.201787283360744" lon="11.479594409701628"><ele>212.85714285714283</ele><time>2026-04-11T02:40:07.999Z</time></trkpt><trkpt lat="43.201811832271574" lon="11.479695007629013"><ele>212.71428571428572</ele><time>2026-04-11T02:40:09.999Z</time></trkpt><trkpt lat="43.20183846971528" lon="11.479790297003811"><ele>212.57142857142856</ele><time>2026-04-11T02:40:11.999Z</time></trkpt><trkpt lat="43.20186605073479" lon="11.479883304202518"><ele>212.42857142857142</ele><time>2026-04-11T02:40:13.999Z</time></trkpt><trkpt lat="43.20189551378975" lon="11.479977597429901"><ele>212.28571428571428</ele><time>2026-04-11T02:40:15.999Z</time></trkpt><trkpt lat="43.201927269205555" lon="11.48007194895366"><ele>212.14285714285714</ele><time>2026-04-11T02:40:17.999Z</time></trkpt><trkpt lat="43.201957584351604" lon="11.480162794822112"><ele>212.0</ele><time>2026-04-11T02:40:19.999Z</time></trkpt><trkpt lat="43.20199191343985" lon="11.480256281676574"><ele>212.00000000000003</ele><time>2026-04-11T02:40:23Z</time></trkpt><trkpt lat="43.20205651690032" lon="11.480411029102422"><ele>212.0</ele><time>2026-04-11T02:40:25Z</time></trkpt><trkpt lat="43.202104716894596" lon="11.480505578681443"><ele>212.0</ele><time>2026-04-11T02:40:27Z</time></trkpt><trkpt lat="43.20213784771286" lon="11.48059692703659"><ele>212.0</ele><time>2026-04-11T02:40:29Z</time></trkpt><trkpt lat="43.202164782870824" lon="11.4806915898271"><ele>212.00000000000003</ele><time>2026-04-11T02:40:31Z</time></trkpt><trkpt lat="43.202186300469315" lon="11.480789994221428"><ele>212.0</ele><time>2026-04-11T02:40:33Z</time></trkpt><trkpt lat="43.202208423143844" lon="11.480893745134667"><ele>212.33333333333334</ele><time>2026-04-11T02:40:35Z</time></trkpt><trkpt lat="43.20222175345986" lon="11.480991558158145"><ele>212.66666666666669</ele><time>2026-04-11T02:40:38Z</time></trkpt><trkpt lat="43.20223313041906" lon="11.481118361810445"><ele>213.0</ele><time>2026-04-11T02:40:41Z</time></trkpt><trkpt lat="43.20224691055589" lon="11.481214251174366"><ele>213.33333333333331</ele><time>2026-04-11T02:40:44Z</time></trkpt><trkpt lat="43.20224923644578" lon="11.481313017983886"><ele>213.66666666666666</ele><time>2026-04-11T02:40:47Z</time></trkpt><trkpt lat="43.20226918461024" lon="11.481404560909114"><ele>214.0</ele><time>2026-04-11T02:40:50Z</time></trkpt><trkpt lat="43.202283657690536" lon="11.481507586802824"><ele>214.00000000000003</ele><time>2026-04-11T02:40:53Z</time></trkpt><trkpt lat="43.202291461697065" lon="11.481612147516856"><ele>214.0</ele><time>2026-04-11T02:40:56Z</time></trkpt><trkpt lat="43.202300600242936" lon="11.48170986853963"><ele>214.0</ele><time>2026-04-11T02:40:59Z</time></trkpt><trkpt lat="43.202302304572804" lon="11.481807344350816"><ele>214.0</ele><time>2026-04-11T02:41:01Z</time></trkpt><trkpt lat="43.20229938848867" lon="11.48190252883954"><ele>214.0</ele><time>2026-04-11T02:41:04Z</time></trkpt><trkpt lat="43.20228425500419" lon="11.481988233634784"><ele>214.00000000000003</ele><time>2026-04-11T02:41:07Z</time></trkpt><trkpt lat="43.202268917907524" lon="11.482094576711058"><ele>214.0</ele><time>2026-04-11T02:41:10Z</time></trkpt><trkpt lat="43.20225366502337" lon="11.482182399905529"><ele>215.2857142857143</ele><time>2026-04-11T02:41:13Z</time></trkpt><trkpt lat="43.202230505108176" lon="11.48226847823748"><ele>216.57142857142858</ele><time>2026-04-11T02:41:16Z</time></trkpt><trkpt lat="43.202212741148855" lon="11.482375396652857"><ele>217.85714285714286</ele><time>2026-04-11T02:41:20Z</time></trkpt><trkpt lat="43.202199200983074" lon="11.482460885215522"><ele>219.14285714285717</ele><time>2026-04-11T02:41:23Z</time></trkpt><trkpt lat="43.202186900300966" lon="11.482571386220192"><ele>220.42857142857142</ele><time>2026-04-11T02:41:27Z</time></trkpt><trkpt lat="43.20218399653367" lon="11.482678592362646"><ele>221.71428571428572</ele><time>2026-04-11T02:41:31Z</time></trkpt><trkpt lat="43.20218747814264" lon="11.48278610625765"><ele>223.0</ele><time>2026-04-11T02:41:35Z</time></trkpt><trkpt lat="43.20218909402798" lon="11.482895601118587"><ele>225.0</ele><time>2026-04-11T02:41:39Z</time></trkpt><trkpt lat="43.202189796184605" lon="11.483006557049876"><ele>227.0</ele><time>2026-04-11T02:41:43Z</time></trkpt><trkpt lat="43.20218095967498" lon="11.483118941046477"><ele>229.0</ele><time>2026-04-11T02:41:47Z</time></trkpt><trkpt lat="43.20216374810152" lon="11.483217453784693"><ele>231.0</ele><time>2026-04-11T02:41:50Z</time></trkpt><trkpt lat="43.20212770914564" lon="11.48329413322835"><ele>233.0</ele><time>2026-04-11T02:41:53Z</time></trkpt><trkpt lat="43.20209027116022" lon="11.483371937281326"><ele>234.99999999999997</ele><time>2026-04-11T02:41:57Z</time></trkpt><trkpt lat="43.202047231272026" lon="11.48345399910049"><ele>236.99999999999997</ele><time>2026-04-11T02:42:01Z</time></trkpt><trkpt lat="43.2020004342993" lon="11.483532179464655"><ele>237.0</ele><time>2026-04-11T02:42:05Z</time></trkpt><trkpt lat="43.20195330608143" lon="11.483615280327264"><ele>237.0</ele><time>2026-04-11T02:42:08.999Z</time></trkpt><trkpt lat="43.20190343985598" lon="11.483693320651586"><ele>237.0</ele><time>2026-04-11T02:42:12.999Z</time></trkpt><trkpt lat="43.20185762880952" lon="11.483779764144526"><ele>237.0</ele><time>2026-04-11T02:42:16.999Z</time></trkpt><trkpt lat="43.20181551834279" lon="11.483865007748108"><ele>237.0</ele><time>2026-04-11T02:42:20.999Z</time></trkpt><trkpt lat="43.201785276882106" lon="11.483956611172493"><ele>237.0</ele><time>2026-04-11T02:42:24.999Z</time></trkpt><trkpt lat="43.201774216532094" lon="11.484055511160195"><ele>239.28571428571425</ele><time>2026-04-11T02:42:29Z</time></trkpt><trkpt lat="43.20178748681922" lon="11.484160787608175"><ele>241.57142857142856</ele><time>2026-04-11T02:42:33Z</time></trkpt><trkpt lat="43.20181826054553" lon="11.48424583926851"><ele>243.85714285714286</ele><time>2026-04-11T02:42:37Z</time></trkpt><trkpt lat="43.201857789079185" lon="11.484326472737708"><ele>246.14285714285714</ele><time>2026-04-11T02:42:41Z</time></trkpt><trkpt lat="43.201891763091915" lon="11.484413716113249"><ele>248.42857142857144</ele><time>2026-04-11T02:42:45Z</time></trkpt><trkpt lat="43.20193041674024" lon="11.484502533041459"><ele>250.71428571428575</ele><time>2026-04-11T02:42:49Z</time></trkpt><trkpt lat="43.20196792455015" lon="11.484591628766834"><ele>253.00000000000003</ele><time>2026-04-11T02:42:53Z</time></trkpt><trkpt lat="43.20200366358001" lon="11.484683674879363"><ele>254.28571428571433</ele><time>2026-04-11T02:42:57Z</time></trkpt><trkpt lat="43.20203396924492" lon="11.484769851703026"><ele>255.57142857142858</ele><time>2026-04-11T02:43:00Z</time></trkpt><trkpt lat="43.20205812753084" lon="11.484853850628731"><ele>256.8571428571429</ele><time>2026-04-11T02:43:03Z</time></trkpt><trkpt lat="43.20208151318309" lon="11.484949157880187"><ele>258.14285714285717</ele><time>2026-04-11T02:43:07Z</time></trkpt><trkpt lat="43.20210304786243" lon="11.485034427062697"><ele>259.42857142857144</ele><time>2026-04-11T02:43:10Z</time></trkpt><trkpt lat="43.202120377893024" lon="11.485129989012918"><ele>260.7142857142857</ele><time>2026-04-11T02:43:13Z</time></trkpt><trkpt lat="43.20213602073394" lon="11.485215038402867"><ele>262.0</ele><time>2026-04-11T02:43:16Z</time></trkpt><trkpt lat="43.20215245963813" lon="11.48530609081104"><ele>262.0</ele><time>2026-04-11T02:43:19Z</time></trkpt><trkpt lat="43.20217155470247" lon="11.485407653666664"><ele>262.0</ele><time>2026-04-11T02:43:22Z</time></trkpt><trkpt lat="43.202192530398825" lon="11.485524476569024"><ele>262.0</ele><time>2026-04-11T02:43:25Z</time></trkpt><trkpt lat="43.202206434461644" lon="11.485622801574292"><ele>262.0</ele><time>2026-04-11T02:43:27Z</time></trkpt><trkpt lat="43.202283569250646" lon="11.4858570838923"><ele>262.0</ele><time>2026-04-11T02:43:29Z</time></trkpt><trkpt lat="43.20231678233225" lon="11.485980890027852"><ele>260.8</ele><time>2026-04-11T02:43:31Z</time></trkpt><trkpt lat="43.20236310816992" lon="11.486090022566465"><ele>259.6</ele><time>2026-04-11T02:43:33Z</time></trkpt><trkpt lat="43.20242711445506" lon="11.48619962592716"><ele>258.40000000000003</ele><time>2026-04-11T02:43:35Z</time></trkpt><trkpt lat="43.202498164209395" lon="11.486312532133242"><ele>257.2</ele><time>2026-04-11T02:43:37Z</time></trkpt><trkpt lat="43.20256876021317" lon="11.486419390148901"><ele>256.0</ele><time>2026-04-11T02:43:39Z</time></trkpt><trkpt lat="43.20265487125781" lon="11.486524999187539"><ele>254.0</ele><time>2026-04-11T02:43:41Z</time></trkpt><trkpt lat="43.20274204833976" lon="11.486630275351708"><ele>252.0</ele><time>2026-04-11T02:43:43Z</time></trkpt><trkpt lat="43.20283555896875" lon="11.486730333819917"><ele>250.0</ele><time>2026-04-11T02:43:45Z</time></trkpt><trkpt lat="43.20292049685388" lon="11.48684799390757"><ele>248.0</ele><time>2026-04-11T02:43:47Z</time></trkpt><trkpt lat="43.20299572831686" lon="11.486941650987069"><ele>248.0</ele><time>2026-04-11T02:43:49Z</time></trkpt><trkpt lat="43.2030840515387" lon="11.487053650336083"><ele>248.0</ele><time>2026-04-11T02:43:51Z</time></trkpt><trkpt lat="43.20317120093849" lon="11.48716171720946"><ele>248.0</ele><time>2026-04-11T02:43:53Z</time></trkpt><trkpt lat="43.20325247191876" lon="11.487264834547895"><ele>248.0</ele><time>2026-04-11T02:43:55Z</time></trkpt><trkpt lat="43.20332884989534" lon="11.487364538936088"><ele>248.25</ele><time>2026-04-11T02:43:57Z</time></trkpt><trkpt lat="43.20340675067757" lon="11.487457560794422"><ele>248.5</ele><time>2026-04-11T02:43:59Z</time></trkpt><trkpt lat="43.203482253634085" lon="11.487554122741365"><ele>248.75</ele><time>2026-04-11T02:44:01Z</time></trkpt><trkpt lat="43.203556777671515" lon="11.487645804158154"><ele>249.0</ele><time>2026-04-11T02:44:03Z</time></trkpt><trkpt lat="43.20366034804946" lon="11.487810771528983"><ele>249.0</ele><time>2026-04-11T02:44:06Z</time></trkpt><trkpt lat="43.203709211866965" lon="11.487921066927298"><ele>248.99999999999997</ele><time>2026-04-11T02:44:07.999Z</time></trkpt><trkpt lat="43.203776747483786" lon="11.488040009742512"><ele>248.99999999999997</ele><time>2026-04-11T02:44:09.999Z</time></trkpt><trkpt lat="43.203817531559544" lon="11.48810619396554"><ele>249.0</ele><time>2026-04-11T02:44:10.999Z</time></trkpt><trkpt lat="43.20386097159494" lon="11.488173083402266"><ele>249.0</ele><time>2026-04-11T02:44:11.999Z</time></trkpt><trkpt lat="43.203932273204" lon="11.488316831444514"><ele>248.85714285714283</ele><time>2026-04-11T02:44:13.999Z</time></trkpt><trkpt lat="43.2039751037647" lon="11.488384890136157"><ele>248.7142857142857</ele><time>2026-04-11T02:44:14.999Z</time></trkpt><trkpt lat="43.204013365123785" lon="11.488455809331017"><ele>248.57142857142856</ele><time>2026-04-11T02:44:15.999Z</time></trkpt><trkpt lat="43.20405181193469" lon="11.488526103533315"><ele>248.42857142857144</ele><time>2026-04-11T02:44:16.999Z</time></trkpt><trkpt lat="43.20409501393779" lon="11.488591385746732"><ele>248.2857142857143</ele><time>2026-04-11T02:44:17.999Z</time></trkpt><trkpt lat="43.204176251315566" lon="11.488723900514808"><ele>248.14285714285717</ele><time>2026-04-11T02:44:19.999Z</time></trkpt><trkpt lat="43.20421996050936" lon="11.488786083323193"><ele>248.0</ele><time>2026-04-11T02:44:20.999Z</time></trkpt><trkpt lat="43.20426774129403" lon="11.488845550218388"><ele>248.00000000000003</ele><time>2026-04-11T02:44:21.999Z</time></trkpt><trkpt lat="43.20431484312428" lon="11.488908128550843"><ele>248.0</ele><time>2026-04-11T02:44:22.999Z</time></trkpt><trkpt lat="43.20436378680048" lon="11.488975719075343"><ele>248.0</ele><time>2026-04-11T02:44:23.999Z</time></trkpt><trkpt lat="43.20444680549989" lon="11.48911848143301"><ele>248.0</ele><time>2026-04-11T02:44:25.999Z</time></trkpt><trkpt lat="43.20448526352032" lon="11.489201408345922"><ele>248.00000000000003</ele><time>2026-04-11T02:44:26.999Z</time></trkpt><trkpt lat="43.20452550752301" lon="11.48928790783261"><ele>248.0</ele><time>2026-04-11T02:44:27.999Z</time></trkpt><trkpt lat="43.20455880720171" lon="11.489390890354947"><ele>248.00000000000003</ele><time>2026-04-11T02:44:28.999Z</time></trkpt><trkpt lat="43.20458680284615" lon="11.489492561236526"><ele>248.0</ele><time>2026-04-11T02:44:29.999Z</time></trkpt><trkpt lat="43.20460811851855" lon="11.489593477543892"><ele>248.0</ele><time>2026-04-11T02:44:30.999Z</time></trkpt><trkpt lat="43.204646127662656" lon="11.489695121080654"><ele>248.0</ele><time>2026-04-11T02:44:31.999Z</time></trkpt><trkpt lat="43.20467996464813" lon="11.489792440114904"><ele>248.00000000000003</ele><time>2026-04-11T02:44:32.999Z</time></trkpt><trkpt lat="43.204708624374994" lon="11.48989606347468"><ele>248.0</ele><time>2026-04-11T02:44:33.999Z</time></trkpt><trkpt lat="43.20473306500197" lon="11.49000671799531"><ele>247.50000000000003</ele><time>2026-04-11T02:44:35Z</time></trkpt><trkpt lat="43.20476606773589" lon="11.490112891167264"><ele>247.0</ele><time>2026-04-11T02:44:36Z</time></trkpt><trkpt lat="43.20480868312351" lon="11.4902160551879"><ele>246.5</ele><time>2026-04-11T02:44:37Z</time></trkpt><trkpt lat="43.20486114646828" lon="11.49031632700761"><ele>246.0</ele><time>2026-04-11T02:44:38Z</time></trkpt><trkpt lat="43.20492189620838" lon="11.490405797186247"><ele>245.50000000000003</ele><time>2026-04-11T02:44:39Z</time></trkpt><trkpt lat="43.20498344271058" lon="11.490485551659836"><ele>245.0</ele><time>2026-04-11T02:44:40Z</time></trkpt><trkpt lat="43.20503978239613" lon="11.490559001089219"><ele>245.00000000000003</ele><time>2026-04-11T02:44:41Z</time></trkpt><trkpt lat="43.20509543836282" lon="11.490623193537408"><ele>245.0</ele><time>2026-04-11T02:44:42Z</time></trkpt><trkpt lat="43.20514454702405" lon="11.490682407778893"><ele>245.0</ele><time>2026-04-11T02:44:43Z</time></trkpt><trkpt lat="43.20519714435045" lon="11.490730992592617"><ele>245.0</ele><time>2026-04-11T02:44:44Z</time></trkpt><trkpt lat="43.20528689722508" lon="11.490808889724317"><ele>245.00000000000003</ele><time>2026-04-11T02:44:46Z</time></trkpt><trkpt lat="43.20536537540228" lon="11.49085134591608"><ele>245.0</ele><time>2026-04-11T02:44:48Z</time></trkpt><trkpt lat="43.2054275902183" lon="11.490880538326259"><ele>245.00000000000003</ele><time>2026-04-11T02:44:50Z</time></trkpt><trkpt lat="43.20550022514865" lon="11.490891525010898"><ele>245.0</ele><time>2026-04-11T02:44:53Z</time></trkpt><trkpt lat="43.205575675200244" lon="11.490924839689656"><ele>245.0</ele><time>2026-04-11T02:44:56Z</time></trkpt><trkpt lat="43.205656745299635" lon="11.490928504942454"><ele>245.0</ele><time>2026-04-11T02:44:59Z</time></trkpt><trkpt lat="43.20574336395592" lon="11.490903847599018"><ele>245.00000000000003</ele><time>2026-04-11T02:45:02Z</time></trkpt><trkpt lat="43.20580863912819" lon="11.490888804526476"><ele>245.0</ele><time>2026-04-11T02:45:05Z</time></trkpt><trkpt lat="43.2058789747855" lon="11.49088201180193"><ele>247.16666666666669</ele><time>2026-04-11T02:45:08Z</time></trkpt><trkpt lat="43.20596113568482" lon="11.490863860233254"><ele>249.33333333333334</ele><time>2026-04-11T02:45:12Z</time></trkpt><trkpt lat="43.20603454006429" lon="11.490860802725521"><ele>251.5</ele><time>2026-04-11T02:45:16Z</time></trkpt><trkpt lat="43.206112344196775" lon="11.49087642387215"><ele>253.66666666666669</ele><time>2026-04-11T02:45:20Z</time></trkpt><trkpt lat="43.20619416624858" lon="11.490893316705497"><ele>255.83333333333334</ele><time>2026-04-11T02:45:24Z</time></trkpt><trkpt lat="43.20626468163203" lon="11.490904442908846"><ele>258.0</ele><time>2026-04-11T02:45:27Z</time></trkpt><trkpt lat="43.20634032075059" lon="11.490933123435664"><ele>258.0</ele><time>2026-04-11T02:45:30Z</time></trkpt><trkpt lat="43.2064307954387" lon="11.490969647851344"><ele>258.0</ele><time>2026-04-11T02:45:33Z</time></trkpt><trkpt lat="43.20654110724643" lon="11.491044470537979"><ele>258.0</ele><time>2026-04-11T02:45:34Z</time></trkpt><trkpt lat="43.2066193112006" lon="11.49111606035294"><ele>258.0</ele><time>2026-04-11T02:45:36Z</time></trkpt><trkpt lat="43.20667249915843" lon="11.491223806200933"><ele>258.0</ele><time>2026-04-11T02:45:38Z</time></trkpt><trkpt lat="43.20672891559934" lon="11.491327783106577"><ele>257.0</ele><time>2026-04-11T02:45:40Z</time></trkpt><trkpt lat="43.20677454564638" lon="11.491439518513712"><ele>256.0</ele><time>2026-04-11T02:45:42Z</time></trkpt><trkpt lat="43.206821841895476" lon="11.491565346871303"><ele>255.0</ele><time>2026-04-11T02:45:44Z</time></trkpt><trkpt lat="43.20687839644006" lon="11.491683337998854"><ele>254.0</ele><time>2026-04-11T02:45:46Z</time></trkpt><trkpt lat="43.206934471759645" lon="11.491810048768475"><ele>253.0</ele><time>2026-04-11T02:45:48Z</time></trkpt><trkpt lat="43.20700662668736" lon="11.491942150086647"><ele>252.99999999999997</ele><time>2026-04-11T02:45:50Z</time></trkpt><trkpt lat="43.20710652120673" lon="11.492064050539646"><ele>253.0</ele><time>2026-04-11T02:45:52Z</time></trkpt><trkpt lat="43.20716477618651" lon="11.492127796658973"><ele>253.0</ele><time>2026-04-11T02:45:53Z</time></trkpt><trkpt lat="43.207220326948864" lon="11.4921867361573"><ele>253.0</ele><time>2026-04-11T02:45:54Z</time></trkpt><trkpt lat="43.20728428084357" lon="11.492242488130573"><ele>252.99999999999997</ele><time>2026-04-11T02:45:55Z</time></trkpt><trkpt lat="43.20733849793191" lon="11.49232367535601"><ele>253.0</ele><time>2026-04-11T02:45:56Z</time></trkpt><trkpt lat="43.20740374398952" lon="11.49239016772337"><ele>252.16666666666666</ele><time>2026-04-11T02:45:57Z</time></trkpt><trkpt lat="43.207465727135734" lon="11.492453334828774"><ele>251.33333333333331</ele><time>2026-04-11T02:45:58Z</time></trkpt><trkpt lat="43.20752822183075" lon="11.492517022891914"><ele>250.5</ele><time>2026-04-11T02:45:59Z</time></trkpt><trkpt lat="43.20759064291687" lon="11.49258072311773"><ele>249.66666666666669</ele><time>2026-04-11T02:46:00Z</time></trkpt><trkpt lat="43.20766152447621" lon="11.492625886213581"><ele>248.83333333333334</ele><time>2026-04-11T02:46:01Z</time></trkpt><trkpt lat="43.20772550346435" lon="11.492692878405474"><ele>248.0</ele><time>2026-04-11T02:46:02Z</time></trkpt><trkpt lat="43.20779093482847" lon="11.49276026448731"><ele>248.00000000000003</ele><time>2026-04-11T02:46:03Z</time></trkpt><trkpt lat="43.20785106339188" lon="11.492831488255117"><ele>248.0</ele><time>2026-04-11T02:46:04Z</time></trkpt><trkpt lat="43.207918281793894" lon="11.49289560784803"><ele>248.0</ele><time>2026-04-11T02:46:05Z</time></trkpt><trkpt lat="43.207982013396126" lon="11.492961297540429"><ele>248.0</ele><time>2026-04-11T02:46:06Z</time></trkpt><trkpt lat="43.20803296342685" lon="11.493039377004854"><ele>248.00000000000003</ele><time>2026-04-11T02:46:07Z</time></trkpt><trkpt lat="43.2081057826258" lon="11.493085619853382"><ele>248.0</ele><time>2026-04-11T02:46:08Z</time></trkpt><trkpt lat="43.2081613521079" lon="11.493148719129268"><ele>248.2857142857143</ele><time>2026-04-11T02:46:09Z</time></trkpt><trkpt lat="43.20822244549619" lon="11.493207629029893"><ele>248.5714285714286</ele><time>2026-04-11T02:46:10Z</time></trkpt><trkpt lat="43.20827828487705" lon="11.493265128065733"><ele>248.85714285714286</ele><time>2026-04-11T02:46:10.999Z</time></trkpt><trkpt lat="43.208336872462226" lon="11.493318726663684"><ele>249.14285714285717</ele><time>2026-04-11T02:46:11.999Z</time></trkpt><trkpt lat="43.20839626112667" lon="11.493366799868362"><ele>249.42857142857144</ele><time>2026-04-11T02:46:12.999Z</time></trkpt><trkpt lat="43.20845859601011" lon="11.49341479669393"><ele>249.71428571428572</ele><time>2026-04-11T02:46:13.999Z</time></trkpt><trkpt lat="43.208509964452674" lon="11.493479285914018"><ele>250.0</ele><time>2026-04-11T02:46:14.999Z</time></trkpt><trkpt lat="43.208577042075035" lon="11.49350029783534"><ele>249.99999999999997</ele><time>2026-04-11T02:46:15.999Z</time></trkpt><trkpt lat="43.20863295929751" lon="11.493540086576907"><ele>250.0</ele><time>2026-04-11T02:46:16.999Z</time></trkpt><trkpt lat="43.208724614798435" lon="11.493633958496769"><ele>250.0</ele><time>2026-04-11T02:46:18.999Z</time></trkpt><trkpt lat="43.2087969051615" lon="11.493734812673289"><ele>250.0</ele><time>2026-04-11T02:46:20.999Z</time></trkpt><trkpt lat="43.20885090570996" lon="11.493834005750616"><ele>249.99999999999997</ele><time>2026-04-11T02:46:22.999Z</time></trkpt><trkpt lat="43.20889295379995" lon="11.493911225538147"><ele>250.0</ele><time>2026-04-11T02:46:24.999Z</time></trkpt><trkpt lat="43.20893471713532" lon="11.49400378395299"><ele>251.28571428571428</ele><time>2026-04-11T02:46:27.999Z</time></trkpt><trkpt lat="43.208969519304404" lon="11.494092450180254"><ele>252.57142857142858</ele><time>2026-04-11T02:46:30.999Z</time></trkpt><trkpt lat="43.20899803484359" lon="11.494181741614996"><ele>253.85714285714286</ele><time>2026-04-11T02:46:33.999Z</time></trkpt><trkpt lat="43.20902974281355" lon="11.494269068037028"><ele>255.14285714285714</ele><time>2026-04-11T02:46:36.999Z</time></trkpt><trkpt lat="43.20905843410893" lon="11.494369187999109"><ele>256.42857142857144</ele><time>2026-04-11T02:46:41Z</time></trkpt><trkpt lat="43.20908273498707" lon="11.494466760167015"><ele>257.7142857142857</ele><time>2026-04-11T02:46:44Z</time></trkpt><trkpt lat="43.209111646288854" lon="11.494567158311845"><ele>259.0</ele><time>2026-04-11T02:46:47Z</time></trkpt><trkpt lat="43.20912597415151" lon="11.494661130868407"><ele>259.2857142857143</ele><time>2026-04-11T02:46:50Z</time></trkpt><trkpt lat="43.209147469407306" lon="11.494746311787807"><ele>259.57142857142856</ele><time>2026-04-11T02:46:53Z</time></trkpt><trkpt lat="43.20916453891806" lon="11.494832911199214"><ele>259.8571428571429</ele><time>2026-04-11T02:46:56Z</time></trkpt><trkpt lat="43.209182217705994" lon="11.494933258606649"><ele>260.1428571428571</ele><time>2026-04-11T02:47:00Z</time></trkpt><trkpt lat="43.20919618789601" lon="11.49503932682523"><ele>260.42857142857144</ele><time>2026-04-11T02:47:04Z</time></trkpt><trkpt lat="43.20921163330778" lon="11.49513110207792"><ele>260.7142857142857</ele><time>2026-04-11T02:47:07Z</time></trkpt><trkpt lat="43.209214105441355" lon="11.495242877021633"><ele>261.0</ele><time>2026-04-11T02:47:11Z</time></trkpt><trkpt lat="43.20923309628603" lon="11.495349223651223"><ele>261.2857142857143</ele><time>2026-04-11T02:47:15Z</time></trkpt><trkpt lat="43.20925787554511" lon="11.495448582192807"><ele>261.57142857142856</ele><time>2026-04-11T02:47:19Z</time></trkpt><trkpt lat="43.20928980280321" lon="11.49553184760121"><ele>261.85714285714283</ele><time>2026-04-11T02:47:23Z</time></trkpt><trkpt lat="43.209323647108974" lon="11.495626748866602"><ele>262.1428571428571</ele><time>2026-04-11T02:47:27Z</time></trkpt><trkpt lat="43.20935939059328" lon="11.495700970742607"><ele>262.4285714285714</ele><time>2026-04-11T02:47:30Z</time></trkpt><trkpt lat="43.209388527227205" lon="11.495780519599819"><ele>262.7142857142857</ele><time>2026-04-11T02:47:34Z</time></trkpt><trkpt lat="43.20941805001818" lon="11.495857438803002"><ele>263.0</ele><time>2026-04-11T02:47:37Z</time></trkpt><trkpt lat="43.209449935794275" lon="11.495951573249172"><ele>263.0</ele><time>2026-04-11T02:47:40Z</time></trkpt><trkpt lat="43.20947815434122" lon="11.496053348385363"><ele>263.0</ele><time>2026-04-11T02:47:43Z</time></trkpt><trkpt lat="43.20952476614583" lon="11.496209135190453"><ele>263.0</ele><time>2026-04-11T02:47:46Z</time></trkpt><trkpt lat="43.20956185885308" lon="11.496302341198794"><ele>263.0</ele><time>2026-04-11T02:47:48Z</time></trkpt><trkpt lat="43.2096070560647" lon="11.496406018192243"><ele>263.0</ele><time>2026-04-11T02:47:50Z</time></trkpt><trkpt lat="43.209672629746954" lon="11.496522478876654"><ele>263.4</ele><time>2026-04-11T02:47:52Z</time></trkpt><trkpt lat="43.20975912969932" lon="11.49664109362249"><ele>263.8</ele><time>2026-04-11T02:47:54Z</time></trkpt><trkpt lat="43.20985390214956" lon="11.496748113810845"><ele>264.2</ele><time>2026-04-11T02:47:56Z</time></trkpt><trkpt lat="43.20990942153203" lon="11.496819049537025"><ele>264.6</ele><time>2026-04-11T02:47:57Z</time></trkpt><trkpt lat="43.20997192725128" lon="11.496867822649152"><ele>265.0</ele><time>2026-04-11T02:47:58Z</time></trkpt><trkpt lat="43.21003720293786" lon="11.496919330907918"><ele>265.0</ele><time>2026-04-11T02:47:59Z</time></trkpt><trkpt lat="43.21010397200901" lon="11.496967870424536"><ele>265.0</ele><time>2026-04-11T02:48:00Z</time></trkpt><trkpt lat="43.210175302541195" lon="11.497019726047707"><ele>265.0</ele><time>2026-04-11T02:48:01Z</time></trkpt><trkpt lat="43.21025703219939" lon="11.49705514133704"><ele>265.0</ele><time>2026-04-11T02:48:02Z</time></trkpt><trkpt lat="43.210330926295626" lon="11.4971165232943"><ele>265.0</ele><time>2026-04-11T02:48:03Z</time></trkpt><trkpt lat="43.21039903253446" lon="11.497176005994028"><ele>265.0</ele><time>2026-04-11T02:48:04Z</time></trkpt><trkpt lat="43.21047037901577" lon="11.497233685325954"><ele>264.8333333333333</ele><time>2026-04-11T02:48:05Z</time></trkpt><trkpt lat="43.21054295204606" lon="11.497289014260911"><ele>264.66666666666663</ele><time>2026-04-11T02:48:06Z</time></trkpt><trkpt lat="43.2106168619808" lon="11.497347211793363"><ele>264.5</ele><time>2026-04-11T02:48:07Z</time></trkpt><trkpt lat="43.21068637221296" lon="11.49741191867662"><ele>264.3333333333333</ele><time>2026-04-11T02:48:08Z</time></trkpt><trkpt lat="43.21074487242826" lon="11.497485986840834"><ele>264.1666666666667</ele><time>2026-04-11T02:48:09Z</time></trkpt><trkpt lat="43.2107864077226" lon="11.497560720097715"><ele>264.0</ele><time>2026-04-11T02:48:10Z</time></trkpt><trkpt lat="43.21082072222182" lon="11.49764728028756"><ele>264.0</ele><time>2026-04-11T02:48:11Z</time></trkpt><trkpt lat="43.21084289609911" lon="11.49773460960109"><ele>264.0</ele><time>2026-04-11T02:48:12Z</time></trkpt><trkpt lat="43.210876014078394" lon="11.497907968064112"><ele>264.0</ele><time>2026-04-11T02:48:14Z</time></trkpt><trkpt lat="43.21087639850282" lon="11.49801243158233"><ele>264.0</ele><time>2026-04-11T02:48:15Z</time></trkpt><trkpt lat="43.21089277049894" lon="11.498115751406264"><ele>264.0</ele><time>2026-04-11T02:48:16Z</time></trkpt><trkpt lat="43.21092120863319" lon="11.498223995751449"><ele>264.0</ele><time>2026-04-11T02:48:16.999Z</time></trkpt><trkpt lat="43.21094115815154" lon="11.498327454988635"><ele>263.1666666666667</ele><time>2026-04-11T02:48:17.999Z</time></trkpt><trkpt lat="43.21097034366726" lon="11.498416505826597"><ele>262.3333333333333</ele><time>2026-04-11T02:48:18.999Z</time></trkpt><trkpt lat="43.21101714624194" lon="11.498497945641605"><ele>261.5</ele><time>2026-04-11T02:48:19.999Z</time></trkpt><trkpt lat="43.21107138181215" lon="11.49856312951508"><ele>260.66666666666663</ele><time>2026-04-11T02:48:20.999Z</time></trkpt><trkpt lat="43.211136066335506" lon="11.49860873629088"><ele>259.8333333333333</ele><time>2026-04-11T02:48:21.999Z</time></trkpt><trkpt lat="43.2112425163774" lon="11.498660632409342"><ele>259.0</ele><time>2026-04-11T02:48:23.999Z</time></trkpt><trkpt lat="43.211346294592" lon="11.498682052133969"><ele>259.0</ele><time>2026-04-11T02:48:25.999Z</time></trkpt><trkpt lat="43.211449898738" lon="11.498678506398894"><ele>259.0</ele><time>2026-04-11T02:48:27.999Z</time></trkpt><trkpt lat="43.21156111149179" lon="11.498656720837927"><ele>259.0</ele><time>2026-04-11T02:48:29.999Z</time></trkpt><trkpt lat="43.21168817604564" lon="11.498626986489885"><ele>259.0</ele><time>2026-04-11T02:48:31.999Z</time></trkpt><trkpt lat="43.21175722213738" lon="11.498603730355393"><ele>259.0</ele><time>2026-04-11T02:48:32.999Z</time></trkpt><trkpt lat="43.21182325346844" lon="11.498610723344735"><ele>257.7142857142857</ele><time>2026-04-11T02:48:33.999Z</time></trkpt><trkpt lat="43.21193048997247" lon="11.498596144804434"><ele>256.42857142857144</ele><time>2026-04-11T02:48:35.999Z</time></trkpt><trkpt lat="43.211989031009395" lon="11.498631030763077"><ele>255.14285714285714</ele><time>2026-04-11T02:48:36.999Z</time></trkpt><trkpt lat="43.21204122500824" lon="11.498681668653958"><ele>253.85714285714286</ele><time>2026-04-11T02:48:37.999Z</time></trkpt><trkpt lat="43.21208469122609" lon="11.49874416965026"><ele>252.57142857142858</ele><time>2026-04-11T02:48:38.999Z</time></trkpt><trkpt lat="43.21211154039005" lon="11.498827256278819"><ele>251.28571428571428</ele><time>2026-04-11T02:48:39.999Z</time></trkpt><trkpt lat="43.21214597379438" lon="11.498906653012934"><ele>250.0</ele><time>2026-04-11T02:48:40.999Z</time></trkpt><trkpt lat="43.2121869577815" lon="11.498978766989532"><ele>248.8</ele><time>2026-04-11T02:48:41.999Z</time></trkpt><trkpt lat="43.21221118151953" lon="11.49914013681688"><ele>247.6</ele><time>2026-04-11T02:48:43.999Z</time></trkpt><trkpt lat="43.2122090515333" lon="11.499279497595653"><ele>246.39999999999998</ele><time>2026-04-11T02:48:45.999Z</time></trkpt><trkpt lat="43.212182349285385" lon="11.49940248642441"><ele>245.2</ele><time>2026-04-11T02:48:48Z</time></trkpt><trkpt lat="43.21211461150162" lon="11.499503433817468"><ele>244.0</ele><time>2026-04-11T02:48:50Z</time></trkpt><trkpt lat="43.21206050179051" lon="11.499551346278235"><ele>243.99999999999997</ele><time>2026-04-11T02:48:51Z</time></trkpt><trkpt lat="43.21199763924324" lon="11.499567503638817"><ele>244.0</ele><time>2026-04-11T02:48:52Z</time></trkpt><trkpt lat="43.21192703068669" lon="11.499601655641479"><ele>243.99999999999997</ele><time>2026-04-11T02:48:53Z</time></trkpt><trkpt lat="43.21185931909402" lon="11.499649160460322"><ele>243.99999999999997</ele><time>2026-04-11T02:48:54Z</time></trkpt><trkpt lat="43.21178322531349" lon="11.499669684881889"><ele>244.0</ele><time>2026-04-11T02:48:55Z</time></trkpt><trkpt lat="43.21171021362093" lon="11.499703487473779"><ele>243.99999999999997</ele><time>2026-04-11T02:48:56Z</time></trkpt><trkpt lat="43.21164927069962" lon="11.49976098991032"><ele>243.99999999999997</ele><time>2026-04-11T02:48:57Z</time></trkpt><trkpt lat="43.21160489200441" lon="11.499837662610021"><ele>242.1428571428571</ele><time>2026-04-11T02:48:58Z</time></trkpt><trkpt lat="43.211575436204555" lon="11.499931114039653"><ele>240.28571428571428</ele><time>2026-04-11T02:48:59Z</time></trkpt><trkpt lat="43.21155277100935" lon="11.500029203113728"><ele>238.42857142857142</ele><time>2026-04-11T02:49:00Z</time></trkpt><trkpt lat="43.21153112172923" lon="11.500122178313719"><ele>236.57142857142856</ele><time>2026-04-11T02:49:01Z</time></trkpt><trkpt lat="43.21151014702734" lon="11.500217518052988"><ele>234.71428571428572</ele><time>2026-04-11T02:49:02Z</time></trkpt><trkpt lat="43.21149098990981" lon="11.500314938467074"><ele>232.85714285714286</ele><time>2026-04-11T02:49:03Z</time></trkpt><trkpt lat="43.21147157907411" lon="11.500414055739164"><ele>231.0</ele><time>2026-04-11T02:49:04Z</time></trkpt><trkpt lat="43.211454371630204" lon="11.500510795862875"><ele>229.28571428571428</ele><time>2026-04-11T02:49:05Z</time></trkpt><trkpt lat="43.2114360079597" lon="11.500610996180765"><ele>227.57142857142856</ele><time>2026-04-11T02:49:06Z</time></trkpt><trkpt lat="43.21141388006738" lon="11.500709246901573"><ele>225.85714285714286</ele><time>2026-04-11T02:49:07Z</time></trkpt><trkpt lat="43.211385279496795" lon="11.500805850951043"><ele>224.14285714285714</ele><time>2026-04-11T02:49:08Z</time></trkpt><trkpt lat="43.211344715410206" lon="11.50089484660038"><ele>222.42857142857142</ele><time>2026-04-11T02:49:09Z</time></trkpt><trkpt lat="43.211284153864625" lon="11.500957318267712"><ele>220.71428571428572</ele><time>2026-04-11T02:49:10Z</time></trkpt><trkpt lat="43.211227984440406" lon="11.501014315631092"><ele>219.0</ele><time>2026-04-11T02:49:11Z</time></trkpt><trkpt lat="43.21110582761168" lon="11.501069601697917"><ele>219.0</ele><time>2026-04-11T02:49:13Z</time></trkpt><trkpt lat="43.210998087213675" lon="11.501144023034776"><ele>219.0</ele><time>2026-04-11T02:49:15Z</time></trkpt><trkpt lat="43.21089427158781" lon="11.501213865129733"><ele>219.0</ele><time>2026-04-11T02:49:17Z</time></trkpt><trkpt lat="43.210795036544425" lon="11.501297285676081"><ele>219.0</ele><time>2026-04-11T02:49:19Z</time></trkpt><trkpt lat="43.21070424847343" lon="11.501393995752423"><ele>219.2</ele><time>2026-04-11T02:49:21Z</time></trkpt><trkpt lat="43.21063031066909" lon="11.50149708736344"><ele>219.39999999999998</ele><time>2026-04-11T02:49:23Z</time></trkpt><trkpt lat="43.21056994320792" lon="11.501614417178157"><ele>219.6</ele><time>2026-04-11T02:49:25Z</time></trkpt><trkpt lat="43.21052597822359" lon="11.501746959577396"><ele>219.8</ele><time>2026-04-11T02:49:27Z</time></trkpt><trkpt lat="43.21048151044401" lon="11.501884857608784"><ele>220.0</ele><time>2026-04-11T02:49:29Z</time></trkpt><trkpt lat="43.21044514153136" lon="11.502027151381233"><ele>222.0</ele><time>2026-04-11T02:49:31Z</time></trkpt><trkpt lat="43.210405178942835" lon="11.502149978581024"><ele>224.0</ele><time>2026-04-11T02:49:33Z</time></trkpt><trkpt lat="43.210349231085324" lon="11.50227955263294"><ele>226.0</ele><time>2026-04-11T02:49:35Z</time></trkpt><trkpt lat="43.210265026105766" lon="11.502397755168289"><ele>228.0</ele><time>2026-04-11T02:49:37Z</time></trkpt><trkpt lat="43.210206073923395" lon="11.502448719799098"><ele>230.0</ele><time>2026-04-11T02:49:38Z</time></trkpt><trkpt lat="43.21014433350989" lon="11.502506335222629"><ele>230.00000000000003</ele><time>2026-04-11T02:49:39Z</time></trkpt><trkpt lat="43.210076123402196" lon="11.502568936318477"><ele>230.0</ele><time>2026-04-11T02:49:40Z</time></trkpt><trkpt lat="43.21000669818752" lon="11.502630028450088"><ele>230.0</ele><time>2026-04-11T02:49:41Z</time></trkpt><trkpt lat="43.20993420027467" lon="11.502698832164857"><ele>230.0</ele><time>2026-04-11T02:49:42Z</time></trkpt><trkpt lat="43.20986067047304" lon="11.502769947479438"><ele>230.00000000000003</ele><time>2026-04-11T02:49:43Z</time></trkpt><trkpt lat="43.20978884158466" lon="11.502841759414046"><ele>230.0</ele><time>2026-04-11T02:49:44Z</time></trkpt><trkpt lat="43.209723201418775" lon="11.50291366279866"><ele>228.16666666666669</ele><time>2026-04-11T02:49:45Z</time></trkpt><trkpt lat="43.20965527386906" lon="11.502984841688015"><ele>226.33333333333334</ele><time>2026-04-11T02:49:46Z</time></trkpt><trkpt lat="43.20959133295366" lon="11.503056824773724"><ele>224.5</ele><time>2026-04-11T02:49:47Z</time></trkpt><trkpt lat="43.20952643038265" lon="11.503128713448014"><ele>222.66666666666669</ele><time>2026-04-11T02:49:48Z</time></trkpt><trkpt lat="43.20946221380648" lon="11.503198859156413"><ele>220.83333333333334</ele><time>2026-04-11T02:49:49Z</time></trkpt><trkpt lat="43.209399972423824" lon="11.503273798643049"><ele>219.0</ele><time>2026-04-11T02:49:50Z</time></trkpt><trkpt lat="43.20934038483031" lon="11.50334942406869"><ele>219.0</ele><time>2026-04-11T02:49:51Z</time></trkpt><trkpt lat="43.209283190836736" lon="11.503425634206002"><ele>219.0</ele><time>2026-04-11T02:49:52Z</time></trkpt><trkpt lat="43.20923426564313" lon="11.50350266762691"><ele>219.0</ele><time>2026-04-11T02:49:53Z</time></trkpt><trkpt lat="43.209188052138416" lon="11.503582841256893"><ele>219.0</ele><time>2026-04-11T02:49:54Z</time></trkpt><trkpt lat="43.209142617453594" lon="11.503665028631447"><ele>219.0</ele><time>2026-04-11T02:49:55Z</time></trkpt><trkpt lat="43.209097420423284" lon="11.50374775500608"><ele>219.0</ele><time>2026-04-11T02:49:56Z</time></trkpt><trkpt lat="43.20905080650465" lon="11.503835805313377"><ele>217.42857142857144</ele><time>2026-04-11T02:49:57Z</time></trkpt><trkpt lat="43.20900477527022" lon="11.503922656222867"><ele>215.85714285714283</ele><time>2026-04-11T02:49:58Z</time></trkpt><trkpt lat="43.20896024368302" lon="11.504002625864873"><ele>214.28571428571428</ele><time>2026-04-11T02:49:59Z</time></trkpt><trkpt lat="43.20891839944696" lon="11.504077713942689"><ele>212.71428571428572</ele><time>2026-04-11T02:50:00Z</time></trkpt><trkpt lat="43.2088757345016" lon="11.504149632588366"><ele>211.14285714285717</ele><time>2026-04-11T02:50:01Z</time></trkpt><trkpt lat="43.208828543532654" lon="11.504222918343768"><ele>209.57142857142856</ele><time>2026-04-11T02:50:02Z</time></trkpt><trkpt lat="43.208782015020915" lon="11.504295414083888"><ele>208.0</ele><time>2026-04-11T02:50:03Z</time></trkpt><trkpt lat="43.208734606452516" lon="11.504362527909628"><ele>208.0</ele><time>2026-04-11T02:50:04Z</time></trkpt><trkpt lat="43.208683898677755" lon="11.50442657599349"><ele>208.0</ele><time>2026-04-11T02:50:05Z</time></trkpt><trkpt lat="43.208626428132426" lon="11.50448253129064"><ele>208.0</ele><time>2026-04-11T02:50:06Z</time></trkpt><trkpt lat="43.208563621574484" lon="11.504524358926673"><ele>208.0</ele><time>2026-04-11T02:50:07Z</time></trkpt><trkpt lat="43.20849914989691" lon="11.504543430074248"><ele>208.0</ele><time>2026-04-11T02:50:08Z</time></trkpt><trkpt lat="43.208435223607395" lon="11.504559573817234"><ele>208.0</ele><time>2026-04-11T02:50:09Z</time></trkpt><trkpt lat="43.20837191350294" lon="11.504571483904568"><ele>208.0</ele><time>2026-04-11T02:50:10Z</time></trkpt><trkpt lat="43.20824673880028" lon="11.504581878752367"><ele>205.33333333333331</ele><time>2026-04-11T02:50:12Z</time></trkpt><trkpt lat="43.208178099566446" lon="11.50458701559233"><ele>202.66666666666666</ele><time>2026-04-11T02:50:13Z</time></trkpt><trkpt lat="43.2081088611919" lon="11.504590346535263"><ele>200.0</ele><time>2026-04-11T02:50:14Z</time></trkpt><trkpt lat="43.20803799384655" lon="11.504590959262341"><ele>197.33333333333331</ele><time>2026-04-11T02:50:15Z</time></trkpt><trkpt lat="43.20797274164645" lon="11.504584972019105"><ele>194.66666666666666</ele><time>2026-04-11T02:50:16Z</time></trkpt><trkpt lat="43.20787084891445" lon="11.504546929436877"><ele>192.0</ele><time>2026-04-11T02:50:18Z</time></trkpt><trkpt lat="43.20778343729844" lon="11.504525704785369"><ele>190.0</ele><time>2026-04-11T02:50:19.999Z</time></trkpt><trkpt lat="43.207722496853386" lon="11.504601154444996"><ele>188.0</ele><time>2026-04-11T02:50:21.999Z</time></trkpt><trkpt lat="43.20774896042615" lon="11.504694664996693"><ele>186.0</ele><time>2026-04-11T02:50:23.999Z</time></trkpt><trkpt lat="43.20783577386329" lon="11.504748335624567"><ele>184.0</ele><time>2026-04-11T02:50:25.999Z</time></trkpt><trkpt lat="43.20792763675183" lon="11.50482528463528"><ele>182.0</ele><time>2026-04-11T02:50:27.999Z</time></trkpt><trkpt lat="43.208034879304776" lon="11.504876650199936"><ele>182.0</ele><time>2026-04-11T02:50:29.999Z</time></trkpt><trkpt lat="43.20814223885171" lon="11.50492988897743"><ele>182.0</ele><time>2026-04-11T02:50:31.999Z</time></trkpt><trkpt lat="43.208247493684446" lon="11.504982120634295"><ele>182.0</ele><time>2026-04-11T02:50:33.999Z</time></trkpt><trkpt lat="43.208352218935346" lon="11.505018649120546"><ele>182.0</ele><time>2026-04-11T02:50:35.999Z</time></trkpt><trkpt lat="43.20844239146729" lon="11.505085266692188"><ele>182.0</ele><time>2026-04-11T02:50:37.999Z</time></trkpt><trkpt lat="43.20854309120042" lon="11.505101552326652"><ele>182.6</ele><time>2026-04-11T02:50:39.999Z</time></trkpt><trkpt lat="43.20863812251594" lon="11.505090810655473"><ele>183.2</ele><time>2026-04-11T02:50:41.999Z</time></trkpt><trkpt lat="43.20874313321591" lon="11.505107318911678"><ele>183.8</ele><time>2026-04-11T02:50:43.999Z</time></trkpt><trkpt lat="43.20885353720779" lon="11.505153847582868"><ele>184.4</ele><time>2026-04-11T02:50:45.999Z</time></trkpt><trkpt lat="43.20896958519819" lon="11.505178746994696"><ele>185.0</ele><time>2026-04-11T02:50:47.999Z</time></trkpt><trkpt lat="43.20908587862924" lon="11.5051560050514"><ele>185.0</ele><time>2026-04-11T02:50:49.999Z</time></trkpt><trkpt lat="43.20919283163362" lon="11.505100577623871"><ele>185.0</ele><time>2026-04-11T02:50:51.999Z</time></trkpt><trkpt lat="43.20929332909132" lon="11.505027676487243"><ele>185.0</ele><time>2026-04-11T02:50:54Z</time></trkpt><trkpt lat="43.20938610126396" lon="11.504961518083736"><ele>185.0</ele><time>2026-04-11T02:50:56Z</time></trkpt><trkpt lat="43.20948150337105" lon="11.504934927331059"><ele>185.0</ele><time>2026-04-11T02:50:58Z</time></trkpt><trkpt lat="43.209590985394854" lon="11.504931122069179"><ele>185.0</ele><time>2026-04-11T02:51:00Z</time></trkpt><trkpt lat="43.20970012404869" lon="11.504970504307893"><ele>185.0</ele><time>2026-04-11T02:51:02Z</time></trkpt><trkpt lat="43.20981738946402" lon="11.505053629066657"><ele>185.0</ele><time>2026-04-11T02:51:04Z</time></trkpt><trkpt lat="43.209882280324" lon="11.505107219750494"><ele>185.0</ele><time>2026-04-11T02:51:05Z</time></trkpt><trkpt lat="43.209943733301465" lon="11.50516523383773"><ele>185.0</ele><time>2026-04-11T02:51:06Z</time></trkpt><trkpt lat="43.20999894868572" lon="11.505227558225995"><ele>183.85714285714283</ele><time>2026-04-11T02:51:07Z</time></trkpt><trkpt lat="43.21005495610379" lon="11.505285514615375"><ele>182.71428571428572</ele><time>2026-04-11T02:51:08Z</time></trkpt><trkpt lat="43.210109518749064" lon="11.505332707011844"><ele>181.57142857142856</ele><time>2026-04-11T02:51:09Z</time></trkpt><trkpt lat="43.21016901558336" lon="11.505375719016872"><ele>180.42857142857142</ele><time>2026-04-11T02:51:10Z</time></trkpt><trkpt lat="43.21024029810129" lon="11.505404037851697"><ele>179.28571428571428</ele><time>2026-04-11T02:51:11Z</time></trkpt><trkpt lat="43.210308689540895" lon="11.505426451723933"><ele>178.14285714285714</ele><time>2026-04-11T02:51:12Z</time></trkpt><trkpt lat="43.21037799671655" lon="11.505443006971891"><ele>177.0</ele><time>2026-04-11T02:51:13Z</time></trkpt><trkpt lat="43.210443628354746" lon="11.505457038210123"><ele>176.57142857142858</ele><time>2026-04-11T02:51:14Z</time></trkpt><trkpt lat="43.21050741935417" lon="11.505449045644413"><ele>176.14285714285714</ele><time>2026-04-11T02:51:15Z</time></trkpt><trkpt lat="43.210566397523806" lon="11.505482798625616"><ele>175.71428571428572</ele><time>2026-04-11T02:51:16Z</time></trkpt><trkpt lat="43.21062933317039" lon="11.505489465263985"><ele>175.28571428571428</ele><time>2026-04-11T02:51:17Z</time></trkpt><trkpt lat="43.21069647271119" lon="11.50547955830848"><ele>174.85714285714286</ele><time>2026-04-11T02:51:18Z</time></trkpt><trkpt lat="43.210766611269506" lon="11.505463467041327"><ele>174.42857142857142</ele><time>2026-04-11T02:51:19Z</time></trkpt><trkpt lat="43.210835495555706" lon="11.505442123701343"><ele>174.0</ele><time>2026-04-11T02:51:20Z</time></trkpt><trkpt lat="43.210892153243826" lon="11.50539860801719"><ele>174.0</ele><time>2026-04-11T02:51:21Z</time></trkpt><trkpt lat="43.21100986542997" lon="11.505356542061987"><ele>174.0</ele><time>2026-04-11T02:51:23Z</time></trkpt><trkpt lat="43.21110976300004" lon="11.50533714036367"><ele>174.0</ele><time>2026-04-11T02:51:25Z</time></trkpt><trkpt lat="43.2112096875068" lon="11.505383435790224"><ele>174.0</ele><time>2026-04-11T02:51:27Z</time></trkpt><trkpt lat="43.211306577080144" lon="11.505476995175725"><ele>174.0</ele><time>2026-04-11T02:51:29Z</time></trkpt><trkpt lat="43.211349953744815" lon="11.505546560063165"><ele>172.71428571428572</ele><time>2026-04-11T02:51:30Z</time></trkpt><trkpt lat="43.21137924538243" lon="11.505626523121453"><ele>171.42857142857144</ele><time>2026-04-11T02:51:31Z</time></trkpt><trkpt lat="43.21140414326518" lon="11.505713037522483"><ele>170.14285714285717</ele><time>2026-04-11T02:51:32Z</time></trkpt><trkpt lat="43.21142791336928" lon="11.505800690353437"><ele>168.85714285714286</ele><time>2026-04-11T02:51:33Z</time></trkpt><trkpt lat="43.21145335365413" lon="11.505890023395972"><ele>167.57142857142858</ele><time>2026-04-11T02:51:34Z</time></trkpt><trkpt lat="43.211479018428534" lon="11.505979870487835"><ele>166.2857142857143</ele><time>2026-04-11T02:51:35Z</time></trkpt><trkpt lat="43.21150365877047" lon="11.506066131072076"><ele>165.0</ele><time>2026-04-11T02:51:36Z</time></trkpt><trkpt lat="43.211528183771385" lon="11.506151988005758"><ele>165.0</ele><time>2026-04-11T02:51:37Z</time></trkpt><trkpt lat="43.21155206363238" lon="11.506235586241445"><ele>165.0</ele><time>2026-04-11T02:51:38Z</time></trkpt><trkpt lat="43.21157639748633" lon="11.506320773863129"><ele>165.0</ele><time>2026-04-11T02:51:39Z</time></trkpt><trkpt lat="43.21160035969172" lon="11.506404660494859"><ele>165.0</ele><time>2026-04-11T02:51:40Z</time></trkpt><trkpt lat="43.211624295404185" lon="11.506488454190272"><ele>165.0</ele><time>2026-04-11T02:51:41Z</time></trkpt><trkpt lat="43.21166974824249" lon="11.506647575205143"><ele>165.0</ele><time>2026-04-11T02:51:43Z</time></trkpt><trkpt lat="43.211713363808954" lon="11.506800263838164"><ele>165.0</ele><time>2026-04-11T02:51:45Z</time></trkpt><trkpt lat="43.21177118568998" lon="11.506942607908947"><ele>165.0</ele><time>2026-04-11T02:51:47Z</time></trkpt><trkpt lat="43.21181403051163" lon="11.507094277936535"><ele>165.0</ele><time>2026-04-11T02:51:49Z</time></trkpt><trkpt lat="43.21185191088194" lon="11.507247288678943"><ele>165.0</ele><time>2026-04-11T02:51:51Z</time></trkpt><trkpt lat="43.21189919045466" lon="11.50740087579804"><ele>164.8</ele><time>2026-04-11T02:51:53Z</time></trkpt><trkpt lat="43.211954082889484" lon="11.507554321769781"><ele>164.6</ele><time>2026-04-11T02:51:55Z</time></trkpt><trkpt lat="43.21199528062025" lon="11.507623072891922"><ele>164.39999999999998</ele><time>2026-04-11T02:51:56Z</time></trkpt><trkpt lat="43.21204153165237" lon="11.507682088924614"><ele>164.2</ele><time>2026-04-11T02:51:57Z</time></trkpt><trkpt lat="43.21215218610653" lon="11.50777780282835"><ele>164.0</ele><time>2026-04-11T02:51:59Z</time></trkpt><trkpt lat="43.2122169170172" lon="11.50780854381336"><ele>163.99999999999997</ele><time>2026-04-11T02:52:00Z</time></trkpt><trkpt lat="43.212285050302214" lon="11.50783432643325"><ele>164.0</ele><time>2026-04-11T02:52:01Z</time></trkpt><trkpt lat="43.21235335144767" lon="11.50786998247363"><ele>164.0</ele><time>2026-04-11T02:52:02Z</time></trkpt><trkpt lat="43.21240944555616" lon="11.507931748809707"><ele>164.0</ele><time>2026-04-11T02:52:03Z</time></trkpt><trkpt lat="43.21246792357972" lon="11.507983482610511"><ele>164.0</ele><time>2026-04-11T02:52:04Z</time></trkpt><trkpt lat="43.21252950186727" lon="11.508028734721034"><ele>163.99999999999997</ele><time>2026-04-11T02:52:05Z</time></trkpt><trkpt lat="43.21257478127242" lon="11.50810710933786"><ele>164.0</ele><time>2026-04-11T02:52:06Z</time></trkpt><trkpt lat="43.21261648746661" lon="11.508189455462423"><ele>163.7142857142857</ele><time>2026-04-11T02:52:07Z</time></trkpt><trkpt lat="43.21265370573536" lon="11.508261691371091"><ele>163.42857142857142</ele><time>2026-04-11T02:52:08Z</time></trkpt><trkpt lat="43.21268763317383" lon="11.508344809481631"><ele>163.14285714285714</ele><time>2026-04-11T02:52:09Z</time></trkpt><trkpt lat="43.21272161554704" lon="11.508426201758278"><ele>162.85714285714283</ele><time>2026-04-11T02:52:10Z</time></trkpt><trkpt lat="43.21275427311718" lon="11.508509080243224"><ele>162.57142857142856</ele><time>2026-04-11T02:52:11Z</time></trkpt><trkpt lat="43.21278827791538" lon="11.508586003804078"><ele>162.28571428571428</ele><time>2026-04-11T02:52:12Z</time></trkpt><trkpt lat="43.21282954581342" lon="11.508666672669012"><ele>162.0</ele><time>2026-04-11T02:52:13Z</time></trkpt><trkpt lat="43.21287348585684" lon="11.508742262559952"><ele>161.85714285714286</ele><time>2026-04-11T02:52:14Z</time></trkpt><trkpt lat="43.212898372254344" lon="11.508835691379147"><ele>161.71428571428572</ele><time>2026-04-11T02:52:15Z</time></trkpt><trkpt lat="43.21293721378901" lon="11.508918188686097"><ele>161.57142857142856</ele><time>2026-04-11T02:52:16Z</time></trkpt><trkpt lat="43.212975806031224" lon="11.50899411979847"><ele>161.42857142857144</ele><time>2026-04-11T02:52:17Z</time></trkpt><trkpt lat="43.21301530854053" lon="11.509074375338697"><ele>161.28571428571428</ele><time>2026-04-11T02:52:18Z</time></trkpt><trkpt lat="43.213054246140906" lon="11.509153483144203"><ele>161.14285714285714</ele><time>2026-04-11T02:52:19Z</time></trkpt><trkpt lat="43.213104680407014" lon="11.509219250384872"><ele>161.0</ele><time>2026-04-11T02:52:20Z</time></trkpt><trkpt lat="43.213140943271206" lon="11.509301023193236"><ele>161.33333333333331</ele><time>2026-04-11T02:52:21Z</time></trkpt><trkpt lat="43.21317263794051" lon="11.509376637428359"><ele>161.66666666666666</ele><time>2026-04-11T02:52:22Z</time></trkpt><trkpt lat="43.21321416809516" lon="11.509444811625995"><ele>162.0</ele><time>2026-04-11T02:52:22.999Z</time></trkpt><trkpt lat="43.21325696419438" lon="11.509510527801787"><ele>162.33333333333334</ele><time>2026-04-11T02:52:23.999Z</time></trkpt><trkpt lat="43.21333542991899" lon="11.509636954928954"><ele>162.66666666666669</ele><time>2026-04-11T02:52:25.999Z</time></trkpt><trkpt lat="43.213423213135094" lon="11.509749621685167"><ele>163.0</ele><time>2026-04-11T02:52:27.999Z</time></trkpt><trkpt lat="43.213521625383805" lon="11.509850683861695"><ele>163.0</ele><time>2026-04-11T02:52:29.999Z</time></trkpt><trkpt lat="43.213574378275204" lon="11.509909646592554"><ele>163.0</ele><time>2026-04-11T02:52:30.999Z</time></trkpt><trkpt lat="43.213623767969146" lon="11.509965855321813"><ele>163.0</ele><time>2026-04-11T02:52:31.999Z</time></trkpt><trkpt lat="43.21371414423659" lon="11.510079050444311"><ele>163.0</ele><time>2026-04-11T02:52:33.999Z</time></trkpt><trkpt lat="43.21375951488299" lon="11.510140576198895"><ele>163.0</ele><time>2026-04-11T02:52:34.999Z</time></trkpt><trkpt lat="43.21384645629402" lon="11.51026297184132"><ele>163.0</ele><time>2026-04-11T02:52:36.999Z</time></trkpt><trkpt lat="43.21391804119181" lon="11.51039559763027"><ele>163.25</ele><time>2026-04-11T02:52:38.999Z</time></trkpt><trkpt lat="43.21398127102322" lon="11.510518130199346"><ele>163.5</ele><time>2026-04-11T02:52:40.999Z</time></trkpt><trkpt lat="43.21404749533562" lon="11.51064455059185"><ele>163.75</ele><time>2026-04-11T02:52:42.999Z</time></trkpt><trkpt lat="43.21410383469518" lon="11.510782922395226"><ele>164.0</ele><time>2026-04-11T02:52:44.999Z</time></trkpt><trkpt lat="43.21416899996624" lon="11.510908133268154"><ele>164.0</ele><time>2026-04-11T02:52:46.999Z</time></trkpt><trkpt lat="43.21423346957692" lon="11.511033109445883"><ele>164.0</ele><time>2026-04-11T02:52:48.999Z</time></trkpt><trkpt lat="43.214255174186064" lon="11.511188608152542"><ele>164.0</ele><time>2026-04-11T02:52:50.999Z</time></trkpt><trkpt lat="43.21425048527163" lon="11.511340752010579"><ele>164.0</ele><time>2026-04-11T02:52:52.999Z</time></trkpt><trkpt lat="43.21422682607666" lon="11.511469125675632"><ele>164.0</ele><time>2026-04-11T02:52:54.999Z</time></trkpt><trkpt lat="43.2142036124827" lon="11.511575097878186"><ele>164.28571428571428</ele><time>2026-04-11T02:52:56.999Z</time></trkpt><trkpt lat="43.21418620456304" lon="11.511667390291153"><ele>164.57142857142856</ele><time>2026-04-11T02:52:59Z</time></trkpt><trkpt lat="43.21418185416523" lon="11.511761965448708"><ele>164.85714285714283</ele><time>2026-04-11T02:53:01Z</time></trkpt><trkpt lat="43.214196613835014" lon="11.511874680083276"><ele>165.14285714285714</ele><time>2026-04-11T02:53:04Z</time></trkpt><trkpt lat="43.214216607861324" lon="11.511967744263835"><ele>165.42857142857144</ele><time>2026-04-11T02:53:07Z</time></trkpt><trkpt lat="43.21424021072087" lon="11.512054494341902"><ele>165.7142857142857</ele><time>2026-04-11T02:53:09Z</time></trkpt><trkpt lat="43.214280371424536" lon="11.512150172159222"><ele>166.0</ele><time>2026-04-11T02:53:12Z</time></trkpt><trkpt lat="43.214328651742825" lon="11.51223529330034"><ele>166.28571428571428</ele><time>2026-04-11T02:53:15Z</time></trkpt><trkpt lat="43.21438899858091" lon="11.512313361020524"><ele>166.57142857142858</ele><time>2026-04-11T02:53:19Z</time></trkpt><trkpt lat="43.21445482587698" lon="11.512378979894649"><ele>166.85714285714286</ele><time>2026-04-11T02:53:23Z</time></trkpt><trkpt lat="43.21450849011776" lon="11.512428642172361"><ele>167.14285714285714</ele><time>2026-04-11T02:53:26Z</time></trkpt><trkpt lat="43.21456255723827" lon="11.51247770708326"><ele>167.42857142857144</ele><time>2026-04-11T02:53:29Z</time></trkpt><trkpt lat="43.214617510146255" lon="11.512535799128306"><ele>167.71428571428572</ele><time>2026-04-11T02:53:32Z</time></trkpt><trkpt lat="43.21467166888038" lon="11.512586232793032"><ele>168.0</ele><time>2026-04-11T02:53:35Z</time></trkpt><trkpt lat="43.214726968410496" lon="11.512635246264855"><ele>168.0</ele><time>2026-04-11T02:53:38Z</time></trkpt><trkpt lat="43.21478092930504" lon="11.512693829275104"><ele>168.0</ele><time>2026-04-11T02:53:41Z</time></trkpt><trkpt lat="43.214838548635115" lon="11.512745900884196"><ele>168.0</ele><time>2026-04-11T02:53:44Z</time></trkpt><trkpt lat="43.21489805423513" lon="11.51280299606149"><ele>168.0</ele><time>2026-04-11T02:53:47Z</time></trkpt><trkpt lat="43.21496595780901" lon="11.512871230348793"><ele>168.0</ele><time>2026-04-11T02:53:51Z</time></trkpt><trkpt lat="43.21502131495331" lon="11.512938300844677"><ele>168.0</ele><time>2026-04-11T02:53:55Z</time></trkpt><trkpt lat="43.21508499876659" lon="11.512995151233342"><ele>168.0</ele><time>2026-04-11T02:53:59Z</time></trkpt><trkpt lat="43.21514481358254" lon="11.513064482660445"><ele>169.71428571428572</ele><time>2026-04-11T02:54:03Z</time></trkpt><trkpt lat="43.215206089122766" lon="11.51313998732448"><ele>171.42857142857144</ele><time>2026-04-11T02:54:07Z</time></trkpt><trkpt lat="43.21526511105116" lon="11.513215144262347"><ele>173.14285714285714</ele><time>2026-04-11T02:54:11Z</time></trkpt><trkpt lat="43.21532178541609" lon="11.513298030157456"><ele>174.85714285714286</ele><time>2026-04-11T02:54:15Z</time></trkpt><trkpt lat="43.21535699985005" lon="11.51337155516501"><ele>176.57142857142858</ele><time>2026-04-11T02:54:18Z</time></trkpt><trkpt lat="43.21539084278709" lon="11.513448416851634"><ele>178.28571428571428</ele><time>2026-04-11T02:54:21Z</time></trkpt><trkpt lat="43.21542657084289" lon="11.513531612672404"><ele>180.0</ele><time>2026-04-11T02:54:24Z</time></trkpt><trkpt lat="43.215454174575115" lon="11.513620880183176"><ele>180.0</ele><time>2026-04-11T02:54:27Z</time></trkpt><trkpt lat="43.21546950768005" lon="11.513716301750936"><ele>180.0</ele><time>2026-04-11T02:54:29.999Z</time></trkpt><trkpt lat="43.21548694251523" lon="11.513816448031324"><ele>180.0</ele><time>2026-04-11T02:54:32.999Z</time></trkpt><trkpt lat="43.21550235859663" lon="11.51392028369626"><ele>180.0</ele><time>2026-04-11T02:54:35.999Z</time></trkpt><trkpt lat="43.21555900284897" lon="11.514132165482083"><ele>180.0</ele><time>2026-04-11T02:54:37.999Z</time></trkpt><trkpt lat="43.215581848207975" lon="11.514218602606075"><ele>180.33333333333334</ele><time>2026-04-11T02:54:38.999Z</time></trkpt><trkpt lat="43.21560709200145" lon="11.51430703975506"><ele>180.66666666666666</ele><time>2026-04-11T02:54:39.999Z</time></trkpt><trkpt lat="43.215635938147564" lon="11.514389172831647"><ele>181.0</ele><time>2026-04-11T02:54:40.999Z</time></trkpt><trkpt lat="43.21567085876173" lon="11.514481548108163"><ele>181.33333333333331</ele><time>2026-04-11T02:54:41.999Z</time></trkpt><trkpt lat="43.21570469408805" lon="11.514582864607044"><ele>181.66666666666666</ele><time>2026-04-11T02:54:42.999Z</time></trkpt><trkpt lat="43.215744169676405" lon="11.514698528374907"><ele>182.0</ele><time>2026-04-11T02:54:43.999Z</time></trkpt><trkpt lat="43.215784709728005" lon="11.514811571356063"><ele>180.39999999999998</ele><time>2026-04-11T02:54:44.999Z</time></trkpt><trkpt lat="43.21582362207493" lon="11.514920051954189"><ele>178.79999999999998</ele><time>2026-04-11T02:54:45.999Z</time></trkpt><trkpt lat="43.215863786417714" lon="11.5150356005205"><ele>177.2</ele><time>2026-04-11T02:54:46.999Z</time></trkpt><trkpt lat="43.215906180938056" lon="11.515158762242837"><ele>175.6</ele><time>2026-04-11T02:54:47.999Z</time></trkpt><trkpt lat="43.21595129508466" lon="11.5152871225782"><ele>174.0</ele><time>2026-04-11T02:54:48.999Z</time></trkpt><trkpt lat="43.215995867265605" lon="11.515410261166673"><ele>172.79999999999998</ele><time>2026-04-11T02:54:49.999Z</time></trkpt><trkpt lat="43.216039714151044" lon="11.515533521461446"><ele>171.6</ele><time>2026-04-11T02:54:50.999Z</time></trkpt><trkpt lat="43.21608862631412" lon="11.515655429419049"><ele>170.4</ele><time>2026-04-11T02:54:51.999Z</time></trkpt><trkpt lat="43.216139242742656" lon="11.515776365144063"><ele>169.2</ele><time>2026-04-11T02:54:52.999Z</time></trkpt><trkpt lat="43.216195102059366" lon="11.515891676108149"><ele>168.0</ele><time>2026-04-11T02:54:53.999Z</time></trkpt><trkpt lat="43.2162516932718" lon="11.516005985564535"><ele>168.0</ele><time>2026-04-11T02:54:54.999Z</time></trkpt><trkpt lat="43.21630908582552" lon="11.516117940506152"><ele>168.0</ele><time>2026-04-11T02:54:55.999Z</time></trkpt><trkpt lat="43.21636804730254" lon="11.516225422376836"><ele>168.0</ele><time>2026-04-11T02:54:56.999Z</time></trkpt><trkpt lat="43.216415246703804" lon="11.516320204610325"><ele>168.0</ele><time>2026-04-11T02:54:57.999Z</time></trkpt><trkpt lat="43.216468880584756" lon="11.516415333324868"><ele>168.0</ele><time>2026-04-11T02:54:58.999Z</time></trkpt><trkpt lat="43.2165193115241" lon="11.516511233049327"><ele>168.16666666666666</ele><time>2026-04-11T02:54:59.999Z</time></trkpt><trkpt lat="43.216563760263554" lon="11.516606783191872"><ele>168.33333333333334</ele><time>2026-04-11T02:55:00.999Z</time></trkpt><trkpt lat="43.216607088175756" lon="11.516698891890508"><ele>168.5</ele><time>2026-04-11T02:55:01.999Z</time></trkpt><trkpt lat="43.21664936573222" lon="11.516783632383483"><ele>168.66666666666669</ele><time>2026-04-11T02:55:02.999Z</time></trkpt><trkpt lat="43.21669092175213" lon="11.51686510600859"><ele>168.83333333333334</ele><time>2026-04-11T02:55:03.999Z</time></trkpt><trkpt lat="43.21672638657881" lon="11.51694094741205"><ele>169.0</ele><time>2026-04-11T02:55:05Z</time></trkpt><trkpt lat="43.21678493046909" lon="11.517071224957888"><ele>169.16666666666669</ele><time>2026-04-11T02:55:07Z</time></trkpt><trkpt lat="43.21683041561621" lon="11.517181659751332"><ele>169.33333333333334</ele><time>2026-04-11T02:55:09Z</time></trkpt><trkpt lat="43.21687207376766" lon="11.51728222561861"><ele>169.5</ele><time>2026-04-11T02:55:11Z</time></trkpt><trkpt lat="43.216909446813304" lon="11.517379674348337"><ele>169.66666666666666</ele><time>2026-04-11T02:55:13Z</time></trkpt><trkpt lat="43.216949392147804" lon="11.517472037659003"><ele>169.83333333333331</ele><time>2026-04-11T02:55:15Z</time></trkpt><trkpt lat="43.2169832242658" lon="11.517568315194474"><ele>170.0</ele><time>2026-04-11T02:55:17Z</time></trkpt><trkpt lat="43.21701692470113" lon="11.517661018016197"><ele>170.0</ele><time>2026-04-11T02:55:19Z</time></trkpt><trkpt lat="43.21705319086558" lon="11.517745013516357"><ele>170.0</ele><time>2026-04-11T02:55:21Z</time></trkpt><trkpt lat="43.217084169939604" lon="11.517829624517146"><ele>170.0</ele><time>2026-04-11T02:55:23Z</time></trkpt><trkpt lat="43.217116669156816" lon="11.517914953962276"><ele>170.0</ele><time>2026-04-11T02:55:25Z</time></trkpt><trkpt lat="43.21714867866934" lon="11.517996296347796"><ele>170.0</ele><time>2026-04-11T02:55:27Z</time></trkpt><trkpt lat="43.21717519533492" lon="11.51808197950334"><ele>170.0</ele><time>2026-04-11T02:55:29Z</time></trkpt><trkpt lat="43.217207654216516" lon="11.518163473506375"><ele>170.0</ele><time>2026-04-11T02:55:31Z</time></trkpt><trkpt lat="43.21724483168467" lon="11.518249493651911"><ele>169.8</ele><time>2026-04-11T02:55:33Z</time></trkpt><trkpt lat="43.21728089827968" lon="11.51833709949733"><ele>169.6</ele><time>2026-04-11T02:55:35Z</time></trkpt><trkpt lat="43.217320584583085" lon="11.518443265395831"><ele>169.39999999999998</ele><time>2026-04-11T02:55:37Z</time></trkpt><trkpt lat="43.21736366927321" lon="11.518574172585042"><ele>169.2</ele><time>2026-04-11T02:55:39Z</time></trkpt><trkpt lat="43.2174049322307" lon="11.518716486037828"><ele>169.0</ele><time>2026-04-11T02:55:41Z</time></trkpt><trkpt lat="43.21743939518622" lon="11.518882281093243"><ele>170.0</ele><time>2026-04-11T02:55:43Z</time></trkpt><trkpt lat="43.21746772965156" lon="11.519053903979529"><ele>171.0</ele><time>2026-04-11T02:55:45Z</time></trkpt><trkpt lat="43.21747470720331" lon="11.519142446549608"><ele>172.0</ele><time>2026-04-11T02:55:46Z</time></trkpt><trkpt lat="43.21745923350581" lon="11.519312317980361"><ele>173.0</ele><time>2026-04-11T02:55:48Z</time></trkpt><trkpt lat="43.21745456084211" lon="11.519440244654428"><ele>174.0</ele><time>2026-04-11T02:55:50Z</time></trkpt><trkpt lat="43.21744789790928" lon="11.519551126234202"><ele>174.85714285714286</ele><time>2026-04-11T02:55:52Z</time></trkpt><trkpt lat="43.21744086788927" lon="11.519663967085645"><ele>175.71428571428572</ele><time>2026-04-11T02:55:55Z</time></trkpt><trkpt lat="43.217432672427506" lon="11.519751677259368"><ele>176.57142857142856</ele><time>2026-04-11T02:55:58Z</time></trkpt><trkpt lat="43.2174229934286" lon="11.519862564977656"><ele>177.42857142857144</ele><time>2026-04-11T02:56:02Z</time></trkpt><trkpt lat="43.21742045465375" lon="11.519949012534811"><ele>178.2857142857143</ele><time>2026-04-11T02:56:05Z</time></trkpt><trkpt lat="43.217414847161734" lon="11.52004353489784"><ele>179.14285714285714</ele><time>2026-04-11T02:56:09Z</time></trkpt><trkpt lat="43.2174092826998" lon="11.520144109130086"><ele>180.0</ele><time>2026-04-11T02:56:13Z</time></trkpt><trkpt lat="43.21740131305489" lon="11.52024540246236"><ele>180.0</ele><time>2026-04-11T02:56:17Z</time></trkpt><trkpt lat="43.21739505584499" lon="11.520345524870516"><ele>180.0</ele><time>2026-04-11T02:56:21Z</time></trkpt><trkpt lat="43.21738894583575" lon="11.520449061362568"><ele>180.0</ele><time>2026-04-11T02:56:25Z</time></trkpt><trkpt lat="43.217383994881665" lon="11.520550651712872"><ele>180.0</ele><time>2026-04-11T02:56:29Z</time></trkpt><trkpt lat="43.21738056519856" lon="11.520650164834926"><ele>180.0</ele><time>2026-04-11T02:56:32.999Z</time></trkpt><trkpt lat="43.21738792367287" lon="11.520758374108759"><ele>180.0</ele><time>2026-04-11T02:56:36.999Z</time></trkpt><trkpt lat="43.217411242942084" lon="11.520860963432744"><ele>179.83333333333334</ele><time>2026-04-11T02:56:40.999Z</time></trkpt><trkpt lat="43.21744604520642" lon="11.520965793534229"><ele>179.66666666666666</ele><time>2026-04-11T02:56:44.999Z</time></trkpt><trkpt lat="43.21747904536008" lon="11.521050692124557"><ele>179.5</ele><time>2026-04-11T02:56:47.999Z</time></trkpt><trkpt lat="43.21751797841576" lon="11.521130878540001"><ele>179.33333333333331</ele><time>2026-04-11T02:56:50.999Z</time></trkpt><trkpt lat="43.21757340964234" lon="11.52122813257318"><ele>179.16666666666666</ele><time>2026-04-11T02:56:52.999Z</time></trkpt><trkpt lat="43.217632724583595" lon="11.521309909604577"><ele>179.0</ele><time>2026-04-11T02:56:55.999Z</time></trkpt><trkpt lat="43.21769617657962" lon="11.52136322423401"><ele>179.0</ele><time>2026-04-11T02:56:57.999Z</time></trkpt><trkpt lat="43.217780137715906" lon="11.521426444939994"><ele>179.0</ele><time>2026-04-11T02:56:59.999Z</time></trkpt><trkpt lat="43.217878265024716" lon="11.521479300865398"><ele>179.0</ele><time>2026-04-11T02:57:01.999Z</time></trkpt><trkpt lat="43.217979709590196" lon="11.521538748232519"><ele>179.0</ele><time>2026-04-11T02:57:03.999Z</time></trkpt><trkpt lat="43.21807724600366" lon="11.521631833360287"><ele>179.0</ele><time>2026-04-11T02:57:05.999Z</time></trkpt><trkpt lat="43.21814340878131" lon="11.521775467776681"><ele>179.16666666666666</ele><time>2026-04-11T02:57:07.999Z</time></trkpt><trkpt lat="43.218159282472435" lon="11.521862333782657"><ele>179.33333333333331</ele><time>2026-04-11T02:57:08.999Z</time></trkpt><trkpt lat="43.21816162688572" lon="11.521949729933814"><ele>179.5</ele><time>2026-04-11T02:57:10Z</time></trkpt><trkpt lat="43.21816821946166" lon="11.522120385414198"><ele>179.66666666666666</ele><time>2026-04-11T02:57:12Z</time></trkpt><trkpt lat="43.21817983218598" lon="11.52220638754424"><ele>179.83333333333334</ele><time>2026-04-11T02:57:13Z</time></trkpt><trkpt lat="43.218202787219006" lon="11.522296924480433"><ele>180.0</ele><time>2026-04-11T02:57:14Z</time></trkpt><trkpt lat="43.21822365667821" lon="11.522388421927694"><ele>180.0</ele><time>2026-04-11T02:57:15Z</time></trkpt><trkpt lat="43.21825256008471" lon="11.522488365476525"><ele>180.0</ele><time>2026-04-11T02:57:16Z</time></trkpt><trkpt lat="43.21828449228258" lon="11.522588789264985"><ele>180.0</ele><time>2026-04-11T02:57:17Z</time></trkpt><trkpt lat="43.218314561054484" lon="11.52269100129366"><ele>180.0</ele><time>2026-04-11T02:57:18Z</time></trkpt><trkpt lat="43.218347262942146" lon="11.52279760521701"><ele>180.0</ele><time>2026-04-11T02:57:19Z</time></trkpt><trkpt lat="43.21837859498546" lon="11.52290537519987"><ele>180.0</ele><time>2026-04-11T02:57:20Z</time></trkpt><trkpt lat="43.21841473206264" lon="11.523014148013075"><ele>178.66666666666666</ele><time>2026-04-11T02:57:21Z</time></trkpt><trkpt lat="43.218451834984776" lon="11.523113319003466"><ele>177.33333333333334</ele><time>2026-04-11T02:57:22Z</time></trkpt><trkpt lat="43.21849834715747" lon="11.523212400006068"><ele>176.0</ele><time>2026-04-11T02:57:23Z</time></trkpt><trkpt lat="43.2185450519974" lon="11.523312270347013"><ele>174.66666666666669</ele><time>2026-04-11T02:57:24Z</time></trkpt><trkpt lat="43.218595461270674" lon="11.523408796288884"><ele>173.33333333333334</ele><time>2026-04-11T02:57:25Z</time></trkpt><trkpt lat="43.21864637629391" lon="11.523503819201512"><ele>172.0</ele><time>2026-04-11T02:57:26Z</time></trkpt><trkpt lat="43.21869698219498" lon="11.523597632779365"><ele>172.0</ele><time>2026-04-11T02:57:27Z</time></trkpt><trkpt lat="43.218749023019285" lon="11.52369235535818"><ele>172.0</ele><time>2026-04-11T02:57:28Z</time></trkpt><trkpt lat="43.21880275615102" lon="11.52378735148167"><ele>172.0</ele><time>2026-04-11T02:57:29Z</time></trkpt><trkpt lat="43.218855842320735" lon="11.523885553827245"><ele>172.0</ele><time>2026-04-11T02:57:30Z</time></trkpt><trkpt lat="43.218913533651836" lon="11.523980812764965"><ele>172.0</ele><time>2026-04-11T02:57:31Z</time></trkpt><trkpt lat="43.21897444476534" lon="11.52407844995105"><ele>172.0</ele><time>2026-04-11T02:57:32Z</time></trkpt><trkpt lat="43.21903236818337" lon="11.524174429579897"><ele>172.0</ele><time>2026-04-11T02:57:33Z</time></trkpt><trkpt lat="43.21909142378965" lon="11.524266812933144"><ele>172.0</ele><time>2026-04-11T02:57:34Z</time></trkpt><trkpt lat="43.21914496153978" lon="11.524364032324721"><ele>172.0</ele><time>2026-04-11T02:57:35Z</time></trkpt><trkpt lat="43.21920079080074" lon="11.52445951966605"><ele>172.0</ele><time>2026-04-11T02:57:36Z</time></trkpt><trkpt lat="43.21925959878274" lon="11.524549436599257"><ele>172.0</ele><time>2026-04-11T02:57:37Z</time></trkpt><trkpt lat="43.21931346829639" lon="11.524636247458002"><ele>172.0</ele><time>2026-04-11T02:57:38Z</time></trkpt><trkpt lat="43.21936460327091" lon="11.524719396362554"><ele>171.0</ele><time>2026-04-11T02:57:39Z</time></trkpt><trkpt lat="43.21941604664035" lon="11.524796284120141"><ele>170.0</ele><time>2026-04-11T02:57:40Z</time></trkpt><trkpt lat="43.21946714206098" lon="11.524858569439518"><ele>169.0</ele><time>2026-04-11T02:57:41Z</time></trkpt><trkpt lat="43.21956166405372" lon="11.524953591635764"><ele>168.0</ele><time>2026-04-11T02:57:43Z</time></trkpt><trkpt lat="43.21965690891329" lon="11.525007027411426"><ele>167.0</ele><time>2026-04-11T02:57:45Z</time></trkpt><trkpt lat="43.21973929470743" lon="11.525047932450759"><ele>168.0</ele><time>2026-04-11T02:57:47Z</time></trkpt><trkpt lat="43.21981712166843" lon="11.525056567907477"><ele>169.0</ele><time>2026-04-11T02:57:49Z</time></trkpt><trkpt lat="43.21990236843656" lon="11.525041497596087"><ele>170.0</ele><time>2026-04-11T02:57:51Z</time></trkpt><trkpt lat="43.21997483301956" lon="11.524991158863585"><ele>171.0</ele><time>2026-04-11T02:57:53Z</time></trkpt><trkpt lat="43.22004997357047" lon="11.524959726178668"><ele>172.0</ele><time>2026-04-11T02:57:55Z</time></trkpt><trkpt lat="43.22013437544901" lon="11.524913440659791"><ele>173.0</ele><time>2026-04-11T02:57:58Z</time></trkpt><trkpt lat="43.22022080708056" lon="11.524879822140239"><ele>173.0</ele><time>2026-04-11T02:58:00Z</time></trkpt><trkpt lat="43.22032141874007" lon="11.524846557178977"><ele>173.0</ele><time>2026-04-11T02:58:01Z</time></trkpt><trkpt lat="43.22043261207375" lon="11.524837298963792"><ele>173.0</ele><time>2026-04-11T02:58:03Z</time></trkpt><trkpt lat="43.22055590288819" lon="11.524889710178103"><ele>173.0</ele><time>2026-04-11T02:58:05Z</time></trkpt><trkpt lat="43.22061372007353" lon="11.524933630585997"><ele>173.0</ele><time>2026-04-11T02:58:06Z</time></trkpt><trkpt lat="43.22072339121394" lon="11.525020037600703"><ele>173.7142857142857</ele><time>2026-04-11T02:58:08Z</time></trkpt><trkpt lat="43.22077556647617" lon="11.525069638937136"><ele>174.42857142857144</ele><time>2026-04-11T02:58:09Z</time></trkpt><trkpt lat="43.220833003525975" lon="11.52511849076914"><ele>175.14285714285714</ele><time>2026-04-11T02:58:10Z</time></trkpt><trkpt lat="43.220891780736935" lon="11.525162922747162"><ele>175.85714285714283</ele><time>2026-04-11T02:58:11Z</time></trkpt><trkpt lat="43.22095219661202" lon="11.52519854693927"><ele>176.57142857142856</ele><time>2026-04-11T02:58:12Z</time></trkpt><trkpt lat="43.22101594485369" lon="11.525222867027079"><ele>177.28571428571428</ele><time>2026-04-11T02:58:13Z</time></trkpt><trkpt lat="43.22108119642903" lon="11.525240889127467"><ele>178.0</ele><time>2026-04-11T02:58:14Z</time></trkpt><trkpt lat="43.221146204694165" lon="11.525257123735285"><ele>178.0</ele><time>2026-04-11T02:58:15Z</time></trkpt><trkpt lat="43.22120932244443" lon="11.5252725060772"><ele>178.0</ele><time>2026-04-11T02:58:16Z</time></trkpt><trkpt lat="43.2212720132588" lon="11.525283857347604"><ele>178.0</ele><time>2026-04-11T02:58:17Z</time></trkpt><trkpt lat="43.22139324677491" lon="11.525308466614103"><ele>178.0</ele><time>2026-04-11T02:58:19Z</time></trkpt><trkpt lat="43.22149427201491" lon="11.525339704136554"><ele>178.0</ele><time>2026-04-11T02:58:21Z</time></trkpt><trkpt lat="43.221607885412084" lon="11.525362618802822"><ele>179.2</ele><time>2026-04-11T02:58:23Z</time></trkpt><trkpt lat="43.22171790193611" lon="11.525368817378244"><ele>180.4</ele><time>2026-04-11T02:58:25Z</time></trkpt><trkpt lat="43.22182718911854" lon="11.525389923328202"><ele>181.6</ele><time>2026-04-11T02:58:27Z</time></trkpt><trkpt lat="43.22193091563782" lon="11.52540224076043"><ele>182.79999999999998</ele><time>2026-04-11T02:58:29Z</time></trkpt><trkpt lat="43.222027176979786" lon="11.525415425404619"><ele>184.0</ele><time>2026-04-11T02:58:31Z</time></trkpt><trkpt lat="43.22212283551947" lon="11.525435496975184"><ele>181.39999999999998</ele><time>2026-04-11T02:58:32.999Z</time></trkpt><trkpt lat="43.22222563789043" lon="11.525459732972157"><ele>178.8</ele><time>2026-04-11T02:58:34.999Z</time></trkpt><trkpt lat="43.2223277113475" lon="11.525473941380126"><ele>176.2</ele><time>2026-04-11T02:58:36.999Z</time></trkpt><trkpt lat="43.22243046300837" lon="11.525483194707048"><ele>173.60000000000002</ele><time>2026-04-11T02:58:38.999Z</time></trkpt><trkpt lat="43.222550370282676" lon="11.52548282044429"><ele>171.0</ele><time>2026-04-11T02:58:40.999Z</time></trkpt><trkpt lat="43.222614831410816" lon="11.525481022509194"><ele>170.7142857142857</ele><time>2026-04-11T02:58:41.999Z</time></trkpt><trkpt lat="43.22268105425454" lon="11.525494135950064"><ele>170.42857142857142</ele><time>2026-04-11T02:58:42.999Z</time></trkpt><trkpt lat="43.222744055739156" lon="11.525530298487134"><ele>170.14285714285714</ele><time>2026-04-11T02:58:43.999Z</time></trkpt><trkpt lat="43.222799849654024" lon="11.525576916083539"><ele>169.85714285714283</ele><time>2026-04-11T02:58:44.999Z</time></trkpt><trkpt lat="43.222854659382456" lon="11.5256264653513"><ele>169.57142857142856</ele><time>2026-04-11T02:58:45.999Z</time></trkpt><trkpt lat="43.22289474688876" lon="11.52570028300434"><ele>169.28571428571428</ele><time>2026-04-11T02:58:46.999Z</time></trkpt><trkpt lat="43.22299244918988" lon="11.525781427244096"><ele>169.0</ele><time>2026-04-11T02:58:48.999Z</time></trkpt><trkpt lat="43.22306694102394" lon="11.525861522143158"><ele>169.0</ele><time>2026-04-11T02:58:50.999Z</time></trkpt><trkpt lat="43.22313597343532" lon="11.525912468148308"><ele>169.0</ele><time>2026-04-11T02:58:52.999Z</time></trkpt><trkpt lat="43.223207927602125" lon="11.525952868610759"><ele>169.0</ele><time>2026-04-11T02:58:54.999Z</time></trkpt><trkpt lat="43.22328918363464" lon="11.525976900866393"><ele>169.0</ele><time>2026-04-11T02:58:56.999Z</time></trkpt><trkpt lat="43.223383874002124" lon="11.525980016849887"><ele>169.0</ele><time>2026-04-11T02:58:58.999Z</time></trkpt><trkpt lat="43.22346414041343" lon="11.525985488923904"><ele>169.0</ele><time>2026-04-11T02:59:00.999Z</time></trkpt><trkpt lat="43.2235613887861" lon="11.525980933483535"><ele>170.16666666666669</ele><time>2026-04-11T02:59:02.999Z</time></trkpt><trkpt lat="43.22365201859674" lon="11.525969728520671"><ele>171.33333333333334</ele><time>2026-04-11T02:59:04.999Z</time></trkpt><trkpt lat="43.22373305158017" lon="11.525966623519638"><ele>172.5</ele><time>2026-04-11T02:59:06.999Z</time></trkpt><trkpt lat="43.223814244553566" lon="11.525967179729305"><ele>173.66666666666666</ele><time>2026-04-11T02:59:08.999Z</time></trkpt><trkpt lat="43.22390096885365" lon="11.525955274851595"><ele>174.83333333333331</ele><time>2026-04-11T02:59:10.999Z</time></trkpt><trkpt lat="43.223987641467026" lon="11.525938578794076"><ele>176.0</ele><time>2026-04-11T02:59:12.999Z</time></trkpt><trkpt lat="43.22409148463516" lon="11.525915033760858"><ele>176.20000000000002</ele><time>2026-04-11T02:59:14.999Z</time></trkpt><trkpt lat="43.22415532520675" lon="11.52590828801042"><ele>176.4</ele><time>2026-04-11T02:59:16Z</time></trkpt><trkpt lat="43.224219841933916" lon="11.525925608486203"><ele>176.6</ele><time>2026-04-11T02:59:17Z</time></trkpt><trkpt lat="43.224344198015245" lon="11.525924110345953"><ele>176.8</ele><time>2026-04-11T02:59:19Z</time></trkpt><trkpt lat="43.224465796042054" lon="11.525945852600643"><ele>177.0</ele><time>2026-04-11T02:59:21Z</time></trkpt><trkpt lat="43.224578236054505" lon="11.525979355376021"><ele>177.0</ele><time>2026-04-11T02:59:23Z</time></trkpt><trkpt lat="43.22468459500497" lon="11.526011246767126"><ele>177.0</ele><time>2026-04-11T02:59:25Z</time></trkpt><trkpt lat="43.22478444222204" lon="11.52604118563977"><ele>177.0</ele><time>2026-04-11T02:59:27Z</time></trkpt><trkpt lat="43.2248838503295" lon="11.526048608574278"><ele>177.0</ele><time>2026-04-11T02:59:29Z</time></trkpt><trkpt lat="43.22497954102198" lon="11.526079029507214"><ele>177.0</ele><time>2026-04-11T02:59:31Z</time></trkpt><trkpt lat="43.22507537224574" lon="11.526099609507087"><ele>177.6</ele><time>2026-04-11T02:59:33Z</time></trkpt><trkpt lat="43.22517162077113" lon="11.52612817399466"><ele>178.2</ele><time>2026-04-11T02:59:35Z</time></trkpt><trkpt lat="43.22526602791931" lon="11.526154516874577"><ele>178.8</ele><time>2026-04-11T02:59:37Z</time></trkpt><trkpt lat="43.22536474804708" lon="11.526183404491215"><ele>179.4</ele><time>2026-04-11T02:59:39Z</time></trkpt><trkpt lat="43.22546429292457" lon="11.526212939571586"><ele>180.0</ele><time>2026-04-11T02:59:41Z</time></trkpt><trkpt lat="43.22554632576329" lon="11.526233145997086"><ele>179.16666666666666</ele><time>2026-04-11T02:59:43Z</time></trkpt><trkpt lat="43.2256259531952" lon="11.526254623378403"><ele>178.33333333333334</ele><time>2026-04-11T02:59:45Z</time></trkpt><trkpt lat="43.22570142822295" lon="11.526285894929062"><ele>177.5</ele><time>2026-04-11T02:59:48Z</time></trkpt><trkpt lat="43.225764311709476" lon="11.526307198587144"><ele>176.66666666666669</ele><time>2026-04-11T02:59:50Z</time></trkpt><trkpt lat="43.22584211126489" lon="11.52634223923645"><ele>175.83333333333334</ele><time>2026-04-11T02:59:53Z</time></trkpt><trkpt lat="43.225930050033234" lon="11.52636726018156"><ele>175.0</ele><time>2026-04-11T02:59:56Z</time></trkpt><trkpt lat="43.22599427835109" lon="11.526377486176175"><ele>175.0</ele><time>2026-04-11T02:59:59Z</time></trkpt><trkpt lat="43.226070493869656" lon="11.52638407814493"><ele>175.0</ele><time>2026-04-11T03:00:02Z</time></trkpt><trkpt lat="43.22614238547734" lon="11.526376892675012"><ele>175.0</ele><time>2026-04-11T03:00:05Z</time></trkpt><trkpt lat="43.22622759755969" lon="11.52638404670435"><ele>175.0</ele><time>2026-04-11T03:00:08Z</time></trkpt><trkpt lat="43.226313028486125" lon="11.526369045745485"><ele>175.0</ele><time>2026-04-11T03:00:11Z</time></trkpt><trkpt lat="43.22638649579193" lon="11.526349748983302"><ele>175.0</ele><time>2026-04-11T03:00:13Z</time></trkpt><trkpt lat="43.22645171223146" lon="11.526357901593286"><ele>175.4</ele><time>2026-04-11T03:00:15Z</time></trkpt><trkpt lat="43.22653178143042" lon="11.526350382446342"><ele>175.8</ele><time>2026-04-11T03:00:17Z</time></trkpt><trkpt lat="43.22661353528447" lon="11.526343207020588"><ele>176.2</ele><time>2026-04-11T03:00:19Z</time></trkpt><trkpt lat="43.226702573660255" lon="11.526354672690703"><ele>176.6</ele><time>2026-04-11T03:00:21Z</time></trkpt><trkpt lat="43.22681537079305" lon="11.526353876557414"><ele>177.0</ele><time>2026-04-11T03:00:23Z</time></trkpt><trkpt lat="43.22693032689293" lon="11.526382661379657"><ele>177.0</ele><time>2026-04-11T03:00:25Z</time></trkpt><trkpt lat="43.2270530829123" lon="11.526387911924367"><ele>177.0</ele><time>2026-04-11T03:00:27Z</time></trkpt><trkpt lat="43.227127083896626" lon="11.526381633917389"><ele>177.0</ele><time>2026-04-11T03:00:28Z</time></trkpt><trkpt lat="43.22719268428263" lon="11.526407421753838"><ele>177.0</ele><time>2026-04-11T03:00:29Z</time></trkpt><trkpt lat="43.22726091102392" lon="11.526443829096273"><ele>177.0</ele><time>2026-04-11T03:00:30Z</time></trkpt><trkpt lat="43.22732166290575" lon="11.52648595137933"><ele>177.0</ele><time>2026-04-11T03:00:31Z</time></trkpt><trkpt lat="43.22736281090619" lon="11.526565830770016"><ele>176.33333333333334</ele><time>2026-04-11T03:00:32Z</time></trkpt><trkpt lat="43.227425618032555" lon="11.526605196376275"><ele>175.66666666666666</ele><time>2026-04-11T03:00:33Z</time></trkpt><trkpt lat="43.22747566108368" lon="11.52667631710464"><ele>175.0</ele><time>2026-04-11T03:00:34Z</time></trkpt><trkpt lat="43.227536105043754" lon="11.526735377660602"><ele>174.33333333333331</ele><time>2026-04-11T03:00:35Z</time></trkpt><trkpt lat="43.22760493680086" lon="11.526778571860197"><ele>173.66666666666666</ele><time>2026-04-11T03:00:36Z</time></trkpt><trkpt lat="43.227667373258214" lon="11.526847652102457"><ele>173.0</ele><time>2026-04-11T03:00:37Z</time></trkpt><trkpt lat="43.227731533846004" lon="11.52691439909027"><ele>173.0</ele><time>2026-04-11T03:00:37.999Z</time></trkpt><trkpt lat="43.22779527853377" lon="11.526979727691593"><ele>173.0</ele><time>2026-04-11T03:00:38.999Z</time></trkpt><trkpt lat="43.22786688958245" lon="11.527043527004533"><ele>173.0</ele><time>2026-04-11T03:00:39.999Z</time></trkpt><trkpt lat="43.227928258695876" lon="11.527125429660499"><ele>173.0</ele><time>2026-04-11T03:00:40.999Z</time></trkpt><trkpt lat="43.228000692015215" lon="11.527183343272997"><ele>173.0</ele><time>2026-04-11T03:00:41.999Z</time></trkpt><trkpt lat="43.22807829770927" lon="11.527231618613847"><ele>173.0</ele><time>2026-04-11T03:00:42.999Z</time></trkpt><trkpt lat="43.228155895469605" lon="11.527271805809821"><ele>172.16666666666666</ele><time>2026-04-11T03:00:43.999Z</time></trkpt><trkpt lat="43.22823544615549" lon="11.527290808579231"><ele>171.33333333333331</ele><time>2026-04-11T03:00:44.999Z</time></trkpt><trkpt lat="43.22830971468345" lon="11.527325290859185"><ele>170.5</ele><time>2026-04-11T03:00:45.999Z</time></trkpt><trkpt lat="43.22838096019355" lon="11.52735538578368"><ele>169.66666666666666</ele><time>2026-04-11T03:00:46.999Z</time></trkpt><trkpt lat="43.228454089319314" lon="11.527388879283553"><ele>168.83333333333334</ele><time>2026-04-11T03:00:47.999Z</time></trkpt><trkpt lat="43.22852787507047" lon="11.527420129241788"><ele>168.0</ele><time>2026-04-11T03:00:48.999Z</time></trkpt><trkpt lat="43.22860217008679" lon="11.527455872363422"><ele>168.0</ele><time>2026-04-11T03:00:49.999Z</time></trkpt><trkpt lat="43.2286722853091" lon="11.52749855360241"><ele>168.0</ele><time>2026-04-11T03:00:50.999Z</time></trkpt><trkpt lat="43.2287395041489" lon="11.527559312366206"><ele>168.0</ele><time>2026-04-11T03:00:51.999Z</time></trkpt><trkpt lat="43.2288014265213" lon="11.527626067505128"><ele>168.0</ele><time>2026-04-11T03:00:52.999Z</time></trkpt><trkpt lat="43.22886214570976" lon="11.527695197476667"><ele>168.0</ele><time>2026-04-11T03:00:53.999Z</time></trkpt><trkpt lat="43.228916248280875" lon="11.527764775628594"><ele>168.0</ele><time>2026-04-11T03:00:54.999Z</time></trkpt><trkpt lat="43.228971343425954" lon="11.527831120809166"><ele>169.0</ele><time>2026-04-11T03:00:55.999Z</time></trkpt><trkpt lat="43.22902321251565" lon="11.527887101916223"><ele>170.0</ele><time>2026-04-11T03:00:56.999Z</time></trkpt><trkpt lat="43.22910660520815" lon="11.527993661908267"><ele>171.0</ele><time>2026-04-11T03:00:58.999Z</time></trkpt><trkpt lat="43.22917759316584" lon="11.528083087900397"><ele>172.0</ele><time>2026-04-11T03:01:00.999Z</time></trkpt><trkpt lat="43.229241752841574" lon="11.528153257025378"><ele>173.0</ele><time>2026-04-11T03:01:02.999Z</time></trkpt><trkpt lat="43.22929005370116" lon="11.528212956433661"><ele>174.0</ele><time>2026-04-11T03:01:04.999Z</time></trkpt><trkpt lat="43.22935754919283" lon="11.528297388956968"><ele>174.0</ele><time>2026-04-11T03:01:07.999Z</time></trkpt><trkpt lat="43.229415835985705" lon="11.528375310629661"><ele>174.0</ele><time>2026-04-11T03:01:10.999Z</time></trkpt><trkpt lat="43.22948855504042" lon="11.528448367533445"><ele>174.0</ele><time>2026-04-11T03:01:13.999Z</time></trkpt><trkpt lat="43.22953342177061" lon="11.528513220652085"><ele>174.0</ele><time>2026-04-11T03:01:16.999Z</time></trkpt><trkpt lat="43.229593523592996" lon="11.528571903652637"><ele>174.0</ele><time>2026-04-11T03:01:19.999Z</time></trkpt><trkpt lat="43.22965699538397" lon="11.528624333591427"><ele>174.0</ele><time>2026-04-11T03:01:23Z</time></trkpt><trkpt lat="43.22971575001454" lon="11.528675113018314"><ele>174.0</ele><time>2026-04-11T03:01:26Z</time></trkpt><trkpt lat="43.229789326680454" lon="11.52871838493431"><ele>174.0</ele><time>2026-04-11T03:01:30Z</time></trkpt><trkpt lat="43.22987042845944" lon="11.528768382510382"><ele>174.0</ele><time>2026-04-11T03:01:34Z</time></trkpt><trkpt lat="43.22995746397093" lon="11.528845194164285"><ele>174.0</ele><time>2026-04-11T03:01:37Z</time></trkpt><trkpt lat="43.230029032440605" lon="11.528933138747393"><ele>174.0</ele><time>2026-04-11T03:01:39Z</time></trkpt><trkpt lat="43.230103509428716" lon="11.529032964012004"><ele>174.33333333333334</ele><time>2026-04-11T03:01:41Z</time></trkpt><trkpt lat="43.230172428430805" lon="11.529174535506723"><ele>174.66666666666666</ele><time>2026-04-11T03:01:43Z</time></trkpt><trkpt lat="43.23021819718783" lon="11.529235248392373"><ele>175.0</ele><time>2026-04-11T03:01:44Z</time></trkpt><trkpt lat="43.23026476999896" lon="11.52929704616464"><ele>175.33333333333331</ele><time>2026-04-11T03:01:45Z</time></trkpt><trkpt lat="43.23031650747257" lon="11.529367763935838"><ele>175.66666666666666</ele><time>2026-04-11T03:01:46Z</time></trkpt><trkpt lat="43.230376424158955" lon="11.529449661565986"><ele>176.0</ele><time>2026-04-11T03:01:47Z</time></trkpt><trkpt lat="43.23043350070455" lon="11.529527677140445"><ele>175.33333333333331</ele><time>2026-04-11T03:01:48Z</time></trkpt><trkpt lat="43.2305049035348" lon="11.529593719583845"><ele>174.66666666666666</ele><time>2026-04-11T03:01:49Z</time></trkpt><trkpt lat="43.230549410997156" lon="11.529685650935516"><ele>174.0</ele><time>2026-04-11T03:01:50Z</time></trkpt><trkpt lat="43.23062284628665" lon="11.529755690830358"><ele>173.33333333333334</ele><time>2026-04-11T03:01:51Z</time></trkpt><trkpt lat="43.23068313844395" lon="11.529837530880304"><ele>172.66666666666669</ele><time>2026-04-11T03:01:52Z</time></trkpt><trkpt lat="43.230731851512076" lon="11.529933612385733"><ele>172.0</ele><time>2026-04-11T03:01:53Z</time></trkpt><trkpt lat="43.23079098880307" lon="11.530013988041995"><ele>172.0</ele><time>2026-04-11T03:01:54Z</time></trkpt><trkpt lat="43.230863235325224" lon="11.530099589156373"><ele>172.0</ele><time>2026-04-11T03:01:55Z</time></trkpt><trkpt lat="43.23091669318633" lon="11.530190085152688"><ele>172.0</ele><time>2026-04-11T03:01:56Z</time></trkpt><trkpt lat="43.230979765298734" lon="11.53025098309001"><ele>172.0</ele><time>2026-04-11T03:01:57Z</time></trkpt><trkpt lat="43.231036436908724" lon="11.53032920884164"><ele>172.0</ele><time>2026-04-11T03:01:58Z</time></trkpt><trkpt lat="43.23108627692936" lon="11.530423695030517"><ele>172.0</ele><time>2026-04-11T03:01:59Z</time></trkpt><trkpt lat="43.2311417128405" lon="11.530502939378334"><ele>171.39999999999998</ele><time>2026-04-11T03:02:00Z</time></trkpt><trkpt lat="43.23119365292715" lon="11.530589176102561"><ele>170.79999999999998</ele><time>2026-04-11T03:02:01Z</time></trkpt><trkpt lat="43.231244232736714" lon="11.530679468387977"><ele>170.2</ele><time>2026-04-11T03:02:02Z</time></trkpt><trkpt lat="43.23129061907956" lon="11.530769955449104"><ele>169.6</ele><time>2026-04-11T03:02:03Z</time></trkpt><trkpt lat="43.231329561202244" lon="11.53086522090471"><ele>169.0</ele><time>2026-04-11T03:02:04Z</time></trkpt><trkpt lat="43.2313919390965" lon="11.53106523578692"><ele>169.0</ele><time>2026-04-11T03:02:06Z</time></trkpt><trkpt lat="43.231417391164115" lon="11.531165210622442"><ele>169.0</ele><time>2026-04-11T03:02:07Z</time></trkpt><trkpt lat="43.23144016905796" lon="11.531273504226496"><ele>169.0</ele><time>2026-04-11T03:02:08Z</time></trkpt><trkpt lat="43.231460896741936" lon="11.531377880787813"><ele>169.0</ele><time>2026-04-11T03:02:09Z</time></trkpt><trkpt lat="43.23148155826346" lon="11.531481924091942"><ele>169.0</ele><time>2026-04-11T03:02:10Z</time></trkpt><trkpt lat="43.231501572325854" lon="11.531582445401304"><ele>169.0</ele><time>2026-04-11T03:02:11Z</time></trkpt><trkpt lat="43.231532664982076" lon="11.53168095901251"><ele>169.2</ele><time>2026-04-11T03:02:12Z</time></trkpt><trkpt lat="43.23155710989206" lon="11.531786235514637"><ele>169.39999999999998</ele><time>2026-04-11T03:02:13Z</time></trkpt><trkpt lat="43.231574954393096" lon="11.531881769520597"><ele>169.6</ele><time>2026-04-11T03:02:14Z</time></trkpt><trkpt lat="43.23158914079966" lon="11.531966301589375"><ele>169.8</ele><time>2026-04-11T03:02:15Z</time></trkpt><trkpt lat="43.23161618475193" lon="11.532138370625885"><ele>170.0</ele><time>2026-04-11T03:02:17Z</time></trkpt><trkpt lat="43.231646191685144" lon="11.532297080610673"><ele>170.0</ele><time>2026-04-11T03:02:19Z</time></trkpt><trkpt lat="43.23167488584861" lon="11.532445070730159"><ele>170.0</ele><time>2026-04-11T03:02:21Z</time></trkpt><trkpt lat="43.23170761800166" lon="11.532591469128915"><ele>170.0</ele><time>2026-04-11T03:02:23Z</time></trkpt><trkpt lat="43.231736767790544" lon="11.532734964757001"><ele>170.0</ele><time>2026-04-11T03:02:25Z</time></trkpt><trkpt lat="43.23176545244413" lon="11.532872166309813"><ele>170.0</ele><time>2026-04-11T03:02:27Z</time></trkpt><trkpt lat="43.23179022891838" lon="11.53300781786795"><ele>170.0</ele><time>2026-04-11T03:02:29Z</time></trkpt><trkpt lat="43.23181969732354" lon="11.53314265065498"><ele>170.0</ele><time>2026-04-11T03:02:31Z</time></trkpt><trkpt lat="43.23184923991202" lon="11.53327420472876"><ele>170.0</ele><time>2026-04-11T03:02:33Z</time></trkpt><trkpt lat="43.23187164459147" lon="11.533407250009818"><ele>170.0</ele><time>2026-04-11T03:02:35Z</time></trkpt><trkpt lat="43.23189737556895" lon="11.533536513483657"><ele>170.0</ele><time>2026-04-11T03:02:37Z</time></trkpt><trkpt lat="43.231925065664285" lon="11.533659505067709"><ele>169.6</ele><time>2026-04-11T03:02:38.999Z</time></trkpt><trkpt lat="43.23195672221411" lon="11.533780910296084"><ele>169.2</ele><time>2026-04-11T03:02:40.999Z</time></trkpt><trkpt lat="43.23199320470509" lon="11.53389903308377"><ele>168.8</ele><time>2026-04-11T03:02:42.999Z</time></trkpt><trkpt lat="43.23204196455839" lon="11.53400864075213"><ele>168.4</ele><time>2026-04-11T03:02:44.999Z</time></trkpt><trkpt lat="43.232095981538535" lon="11.534117521777851"><ele>168.0</ele><time>2026-04-11T03:02:46.999Z</time></trkpt><trkpt lat="43.232164656047104" lon="11.534220228915434"><ele>168.0</ele><time>2026-04-11T03:02:48.999Z</time></trkpt><trkpt lat="43.2322372454838" lon="11.534313889590942"><ele>168.0</ele><time>2026-04-11T03:02:50.999Z</time></trkpt><trkpt lat="43.232316680263985" lon="11.534395114777368"><ele>168.0</ele><time>2026-04-11T03:02:52.999Z</time></trkpt><trkpt lat="43.232402582757224" lon="11.53446298246667"><ele>168.0</ele><time>2026-04-11T03:02:54.999Z</time></trkpt><trkpt lat="43.23249000637693" lon="11.534531529984916"><ele>168.0</ele><time>2026-04-11T03:02:56.999Z</time></trkpt><trkpt lat="43.232582350901026" lon="11.534591202341552"><ele>168.4</ele><time>2026-04-11T03:02:58.999Z</time></trkpt><trkpt lat="43.232663912561996" lon="11.534671238072114"><ele>168.8</ele><time>2026-04-11T03:03:00.999Z</time></trkpt><trkpt lat="43.232750437554664" lon="11.534737509146142"><ele>169.2</ele><time>2026-04-11T03:03:02.999Z</time></trkpt><trkpt lat="43.232840722597714" lon="11.534805405555357"><ele>169.6</ele><time>2026-04-11T03:03:04.999Z</time></trkpt><trkpt lat="43.232929620871026" lon="11.534864541683534"><ele>170.0</ele><time>2026-04-11T03:03:06.999Z</time></trkpt><trkpt lat="43.23301801346941" lon="11.53493167889971"><ele>170.0</ele><time>2026-04-11T03:03:08.999Z</time></trkpt><trkpt lat="43.233102769956936" lon="11.534996535580094"><ele>170.0</ele><time>2026-04-11T03:03:10.999Z</time></trkpt><trkpt lat="43.23318946450022" lon="11.535059238131627"><ele>170.0</ele><time>2026-04-11T03:03:12.999Z</time></trkpt><trkpt lat="43.23327196655199" lon="11.5351285993257"><ele>170.0</ele><time>2026-04-11T03:03:14.999Z</time></trkpt><trkpt lat="43.23335414204851" lon="11.535193230192545"><ele>170.0</ele><time>2026-04-11T03:03:16.999Z</time></trkpt><trkpt lat="43.23343631689682" lon="11.535263815162358"><ele>169.8</ele><time>2026-04-11T03:03:18.999Z</time></trkpt><trkpt lat="43.23351251769903" lon="11.535339452985353"><ele>169.6</ele><time>2026-04-11T03:03:20.999Z</time></trkpt><trkpt lat="43.23357613653498" lon="11.535430077267202"><ele>169.39999999999998</ele><time>2026-04-11T03:03:22.999Z</time></trkpt><trkpt lat="43.23363560222766" lon="11.535524468203187"><ele>169.2</ele><time>2026-04-11T03:03:24.999Z</time></trkpt><trkpt lat="43.23369382118724" lon="11.535618785062166"><ele>169.0</ele><time>2026-04-11T03:03:26.999Z</time></trkpt><trkpt lat="43.2337465490595" lon="11.535723142671834"><ele>169.0</ele><time>2026-04-11T03:03:29Z</time></trkpt><trkpt lat="43.23380094236359" lon="11.535829112330115"><ele>169.0</ele><time>2026-04-11T03:03:31Z</time></trkpt><trkpt lat="43.23385905745212" lon="11.535936475529438"><ele>169.0</ele><time>2026-04-11T03:03:33Z</time></trkpt><trkpt lat="43.2339168264489" lon="11.536043508274776"><ele>169.0</ele><time>2026-04-11T03:03:35Z</time></trkpt><trkpt lat="43.233975410860936" lon="11.536151675646853"><ele>169.0</ele><time>2026-04-11T03:03:37Z</time></trkpt><trkpt lat="43.23403586560095" lon="11.536256219172836"><ele>169.6</ele><time>2026-04-11T03:03:39Z</time></trkpt><trkpt lat="43.234090768932624" lon="11.536361886026732"><ele>170.2</ele><time>2026-04-11T03:03:41Z</time></trkpt><trkpt lat="43.23414356730407" lon="11.536468010985335"><ele>170.79999999999998</ele><time>2026-04-11T03:03:43Z</time></trkpt><trkpt lat="43.2342017830693" lon="11.536565412044308"><ele>171.39999999999998</ele><time>2026-04-11T03:03:45Z</time></trkpt><trkpt lat="43.2342548577603" lon="11.536670598292147"><ele>172.0</ele><time>2026-04-11T03:03:47Z</time></trkpt><trkpt lat="43.23430632520613" lon="11.53678211917728"><ele>172.0</ele><time>2026-04-11T03:03:49Z</time></trkpt><trkpt lat="43.23436722277846" lon="11.536881381877434"><ele>172.0</ele><time>2026-04-11T03:03:51Z</time></trkpt><trkpt lat="43.234422209189866" lon="11.536990089891123"><ele>172.0</ele><time>2026-04-11T03:03:53Z</time></trkpt><trkpt lat="43.23447866195704" lon="11.537093969048652"><ele>172.0</ele><time>2026-04-11T03:03:55Z</time></trkpt><trkpt lat="43.23453753755891" lon="11.537202740554216"><ele>172.0</ele><time>2026-04-11T03:03:57Z</time></trkpt><trkpt lat="43.23459695100834" lon="11.537312333151972"><ele>172.0</ele><time>2026-04-11T03:03:59Z</time></trkpt><trkpt lat="43.23465357153649" lon="11.537431877956463"><ele>172.0</ele><time>2026-04-11T03:04:01Z</time></trkpt><trkpt lat="43.234718885251006" lon="11.537554226100507"><ele>172.0</ele><time>2026-04-11T03:04:03Z</time></trkpt><trkpt lat="43.23478959162954" lon="11.537676771100486"><ele>172.0</ele><time>2026-04-11T03:04:05Z</time></trkpt><trkpt lat="43.23486135496495" lon="11.53780081820865"><ele>172.0</ele><time>2026-04-11T03:04:07Z</time></trkpt><trkpt lat="43.23492610281344" lon="11.53792901741454"><ele>172.5</ele><time>2026-04-11T03:04:09Z</time></trkpt><trkpt lat="43.23497518438561" lon="11.538065481354938"><ele>173.0</ele><time>2026-04-11T03:04:11Z</time></trkpt><trkpt lat="43.23505852054674" lon="11.538184692068052"><ele>173.5</ele><time>2026-04-11T03:04:13Z</time></trkpt><trkpt lat="43.23512743519153" lon="11.538320764418593"><ele>174.0</ele><time>2026-04-11T03:04:15Z</time></trkpt><trkpt lat="43.23520279840697" lon="11.53846408736486"><ele>174.0</ele><time>2026-04-11T03:04:17Z</time></trkpt><trkpt lat="43.23528019462405" lon="11.538589158950817"><ele>174.0</ele><time>2026-04-11T03:04:19Z</time></trkpt><trkpt lat="43.23535007188231" lon="11.538730843105332"><ele>174.0</ele><time>2026-04-11T03:04:21Z</time></trkpt><trkpt lat="43.235386523320436" lon="11.538803548113718"><ele>174.0</ele><time>2026-04-11T03:04:22Z</time></trkpt><trkpt lat="43.23542733354022" lon="11.538871981446666"><ele>174.0</ele><time>2026-04-11T03:04:23Z</time></trkpt><trkpt lat="43.23546885368574" lon="11.538941624083511"><ele>174.0</ele><time>2026-04-11T03:04:24Z</time></trkpt><trkpt lat="43.23551027260866" lon="11.539011591107426"><ele>173.85714285714286</ele><time>2026-04-11T03:04:25Z</time></trkpt><trkpt lat="43.23555017107336" lon="11.539087512072458"><ele>173.71428571428572</ele><time>2026-04-11T03:04:26Z</time></trkpt><trkpt lat="43.23559271829406" lon="11.539159914213819"><ele>173.57142857142856</ele><time>2026-04-11T03:04:27Z</time></trkpt><trkpt lat="43.23563171632428" lon="11.53923755778423"><ele>173.42857142857144</ele><time>2026-04-11T03:04:28Z</time></trkpt><trkpt lat="43.23567451656459" lon="11.53931239199597"><ele>173.2857142857143</ele><time>2026-04-11T03:04:29Z</time></trkpt><trkpt lat="43.2357158160299" lon="11.539385742415023"><ele>173.14285714285714</ele><time>2026-04-11T03:04:30Z</time></trkpt><trkpt lat="43.23575665360147" lon="11.539463148374288"><ele>173.0</ele><time>2026-04-11T03:04:31Z</time></trkpt><trkpt lat="43.23579461189384" lon="11.539542500459117"><ele>173.28571428571428</ele><time>2026-04-11T03:04:32Z</time></trkpt><trkpt lat="43.23583042916211" lon="11.539621196036014"><ele>173.57142857142858</ele><time>2026-04-11T03:04:33Z</time></trkpt><trkpt lat="43.23585712449253" lon="11.539708374233443"><ele>173.85714285714286</ele><time>2026-04-11T03:04:34Z</time></trkpt><trkpt lat="43.23587352634432" lon="11.539797226791812"><ele>174.14285714285714</ele><time>2026-04-11T03:04:35Z</time></trkpt><trkpt lat="43.23588511878773" lon="11.539885331401779"><ele>174.42857142857144</ele><time>2026-04-11T03:04:36Z</time></trkpt><trkpt lat="43.23588860851446" lon="11.53997278572523"><ele>174.71428571428572</ele><time>2026-04-11T03:04:37Z</time></trkpt><trkpt lat="43.23588551386808" lon="11.54006201369244"><ele>175.0</ele><time>2026-04-11T03:04:38Z</time></trkpt><trkpt lat="43.235878472193946" lon="11.540153824188724"><ele>175.0</ele><time>2026-04-11T03:04:39Z</time></trkpt><trkpt lat="43.23587419104072" lon="11.540242599446614"><ele>175.0</ele><time>2026-04-11T03:04:40Z</time></trkpt><trkpt lat="43.23587188371734" lon="11.540329933341981"><ele>175.0</ele><time>2026-04-11T03:04:41Z</time></trkpt><trkpt lat="43.235867905480994" lon="11.540416200613185"><ele>175.0</ele><time>2026-04-11T03:04:42Z</time></trkpt><trkpt lat="43.2358558439791" lon="11.540581958724998"><ele>175.0</ele><time>2026-04-11T03:04:43.999Z</time></trkpt><trkpt lat="43.23584886091214" lon="11.540739631831524"><ele>175.0</ele><time>2026-04-11T03:04:45.999Z</time></trkpt><trkpt lat="43.23583926518787" lon="11.540892463512625"><ele>175.0</ele><time>2026-04-11T03:04:47.999Z</time></trkpt><trkpt lat="43.23583401566724" lon="11.541042756941861"><ele>175.0</ele><time>2026-04-11T03:04:49.999Z</time></trkpt><trkpt lat="43.235826859022914" lon="11.541195853392164"><ele>175.0</ele><time>2026-04-11T03:04:51.999Z</time></trkpt><trkpt lat="43.235821267893044" lon="11.541347510138179"><ele>175.0</ele><time>2026-04-11T03:04:53.999Z</time></trkpt><trkpt lat="43.23581786010144" lon="11.541502172055168"><ele>175.0</ele><time>2026-04-11T03:04:55.999Z</time></trkpt><trkpt lat="43.23581053741091" lon="11.541645453355468"><ele>175.8</ele><time>2026-04-11T03:04:57.999Z</time></trkpt><trkpt lat="43.23580355067523" lon="11.541789959067355"><ele>176.6</ele><time>2026-04-11T03:04:59.999Z</time></trkpt><trkpt lat="43.235799797934156" lon="11.541925209767502"><ele>177.39999999999998</ele><time>2026-04-11T03:05:01.999Z</time></trkpt><trkpt lat="43.23579728825845" lon="11.542060578022426"><ele>178.2</ele><time>2026-04-11T03:05:03.999Z</time></trkpt><trkpt lat="43.2357938482774" lon="11.542187542354483"><ele>179.0</ele><time>2026-04-11T03:05:05.999Z</time></trkpt><trkpt lat="43.23578886232071" lon="11.542312325901843"><ele>179.0</ele><time>2026-04-11T03:05:07.999Z</time></trkpt><trkpt lat="43.23578222800017" lon="11.542441258661496"><ele>179.0</ele><time>2026-04-11T03:05:09.999Z</time></trkpt><trkpt lat="43.235776750463735" lon="11.542573111947164"><ele>179.0</ele><time>2026-04-11T03:05:11.999Z</time></trkpt><trkpt lat="43.235771758538476" lon="11.542702458759917"><ele>179.0</ele><time>2026-04-11T03:05:13.999Z</time></trkpt><trkpt lat="43.2357644671479" lon="11.54283052101926"><ele>179.0</ele><time>2026-04-11T03:05:15.999Z</time></trkpt><trkpt lat="43.235758798968696" lon="11.542956395482996"><ele>178.79999999999998</ele><time>2026-04-11T03:05:17.999Z</time></trkpt><trkpt lat="43.23575082309405" lon="11.543083046725563"><ele>178.6</ele><time>2026-04-11T03:05:19.999Z</time></trkpt><trkpt lat="43.23574531372577" lon="11.543214140521961"><ele>178.4</ele><time>2026-04-11T03:05:21.999Z</time></trkpt><trkpt lat="43.23573211126803" lon="11.543341138968374"><ele>178.2</ele><time>2026-04-11T03:05:23.999Z</time></trkpt><trkpt lat="43.23573291046536" lon="11.543475129271657"><ele>178.0</ele><time>2026-04-11T03:05:25.999Z</time></trkpt><trkpt lat="43.2357294413334" lon="11.543610817970654"><ele>177.8</ele><time>2026-04-11T03:05:27.999Z</time></trkpt><trkpt lat="43.23572490689846" lon="11.543738434831873"><ele>177.60000000000002</ele><time>2026-04-11T03:05:29.999Z</time></trkpt><trkpt lat="43.235723086119954" lon="11.543877371232528"><ele>177.39999999999998</ele><time>2026-04-11T03:05:31.999Z</time></trkpt><trkpt lat="43.235715301920344" lon="11.544018647377069"><ele>177.2</ele><time>2026-04-11T03:05:34Z</time></trkpt><trkpt lat="43.23571308454316" lon="11.544162215419886"><ele>177.0</ele><time>2026-04-11T03:05:36Z</time></trkpt><trkpt lat="43.23570814226595" lon="11.544320695637438"><ele>177.0</ele><time>2026-04-11T03:05:38Z</time></trkpt><trkpt lat="43.2357017801306" lon="11.544469588926479"><ele>177.0</ele><time>2026-04-11T03:05:40Z</time></trkpt><trkpt lat="43.23569781195569" lon="11.544627943322434"><ele>177.0</ele><time>2026-04-11T03:05:42Z</time></trkpt><trkpt lat="43.23569699233534" lon="11.544762711700168"><ele>177.0</ele><time>2026-04-11T03:05:44Z</time></trkpt><trkpt lat="43.23570437206186" lon="11.544933419956598"><ele>177.0</ele><time>2026-04-11T03:05:46Z</time></trkpt><trkpt lat="43.235718494150234" lon="11.545022809332506"><ele>176.8</ele><time>2026-04-11T03:05:47Z</time></trkpt><trkpt lat="43.235745406751846" lon="11.545187981351036"><ele>176.6</ele><time>2026-04-11T03:05:49Z</time></trkpt><trkpt lat="43.2357653813258" lon="11.545270202482287"><ele>176.4</ele><time>2026-04-11T03:05:50Z</time></trkpt><trkpt lat="43.235786345488506" lon="11.545353001914176"><ele>176.20000000000002</ele><time>2026-04-11T03:05:51Z</time></trkpt><trkpt lat="43.2358399230879" lon="11.545501767650919"><ele>176.0</ele><time>2026-04-11T03:05:53Z</time></trkpt><trkpt lat="43.235876084656695" lon="11.545654531398675"><ele>176.0</ele><time>2026-04-11T03:05:55Z</time></trkpt><trkpt lat="43.23592302762992" lon="11.545790428282904"><ele>176.0</ele><time>2026-04-11T03:05:57Z</time></trkpt><trkpt lat="43.23596908949934" lon="11.54591591322594"><ele>176.0</ele><time>2026-04-11T03:05:59Z</time></trkpt><trkpt lat="43.23601736653851" lon="11.546037646844951"><ele>176.0</ele><time>2026-04-11T03:06:01Z</time></trkpt><trkpt lat="43.23606968960994" lon="11.546156424213855"><ele>176.0</ele><time>2026-04-11T03:06:03Z</time></trkpt><trkpt lat="43.236130650133674" lon="11.546271163878439"><ele>176.4</ele><time>2026-04-11T03:06:05Z</time></trkpt><trkpt lat="43.236194519505794" lon="11.546381832286146"><ele>176.8</ele><time>2026-04-11T03:06:07Z</time></trkpt><trkpt lat="43.23626948609652" lon="11.546472546066958"><ele>177.20000000000002</ele><time>2026-04-11T03:06:09Z</time></trkpt><trkpt lat="43.23632847916471" lon="11.546590415396302"><ele>177.60000000000002</ele><time>2026-04-11T03:06:11Z</time></trkpt><trkpt lat="43.23639816586189" lon="11.546695516453042"><ele>178.0</ele><time>2026-04-11T03:06:13Z</time></trkpt><trkpt lat="43.236511111661756" lon="11.546835570218585"><ele>178.0</ele><time>2026-04-11T03:06:16Z</time></trkpt><trkpt lat="43.236581524550836" lon="11.546938903551267"><ele>178.0</ele><time>2026-04-11T03:06:18Z</time></trkpt><trkpt lat="43.23665238192413" lon="11.547038198331741"><ele>178.0</ele><time>2026-04-11T03:06:20Z</time></trkpt><trkpt lat="43.23672060787803" lon="11.547139072012229"><ele>178.0</ele><time>2026-04-11T03:06:22Z</time></trkpt><trkpt lat="43.236797023470544" lon="11.547236440539589"><ele>178.0</ele><time>2026-04-11T03:06:24Z</time></trkpt><trkpt lat="43.23686832199485" lon="11.5473405173909"><ele>177.2</ele><time>2026-04-11T03:06:26Z</time></trkpt><trkpt lat="43.236956266612026" lon="11.547418355685842"><ele>176.4</ele><time>2026-04-11T03:06:28Z</time></trkpt><trkpt lat="43.23703720666661" lon="11.547508416239074"><ele>175.6</ele><time>2026-04-11T03:06:30Z</time></trkpt><trkpt lat="43.23711545717304" lon="11.547603020494257"><ele>174.79999999999998</ele><time>2026-04-11T03:06:32Z</time></trkpt><trkpt lat="43.237197750510916" lon="11.547690055839922"><ele>174.0</ele><time>2026-04-11T03:06:34Z</time></trkpt><trkpt lat="43.23727119252392" lon="11.547788677032793"><ele>174.39999999999998</ele><time>2026-04-11T03:06:36Z</time></trkpt><trkpt lat="43.23735306028993" lon="11.547879719215839"><ele>174.8</ele><time>2026-04-11T03:06:37.999Z</time></trkpt><trkpt lat="43.23741911444742" lon="11.54795056982668"><ele>175.2</ele><time>2026-04-11T03:06:39.999Z</time></trkpt><trkpt lat="43.23750948625493" lon="11.548048213496362"><ele>175.60000000000002</ele><time>2026-04-11T03:06:41.999Z</time></trkpt><trkpt lat="43.23759035701467" lon="11.548144080310085"><ele>176.0</ele><time>2026-04-11T03:06:43.999Z</time></trkpt><trkpt lat="43.23767261637586" lon="11.548231567848438"><ele>176.0</ele><time>2026-04-11T03:06:45.999Z</time></trkpt><trkpt lat="43.237752270482304" lon="11.548314347910297"><ele>176.0</ele><time>2026-04-11T03:06:47.999Z</time></trkpt><trkpt lat="43.23782979277865" lon="11.548398282633658"><ele>176.0</ele><time>2026-04-11T03:06:49.999Z</time></trkpt><trkpt lat="43.23791093344095" lon="11.548485639433444"><ele>176.0</ele><time>2026-04-11T03:06:51.999Z</time></trkpt><trkpt lat="43.237996057873616" lon="11.548567632223676"><ele>176.0</ele><time>2026-04-11T03:06:53.999Z</time></trkpt><trkpt lat="43.23807890438388" lon="11.548649892078823"><ele>176.0</ele><time>2026-04-11T03:06:55.999Z</time></trkpt><trkpt lat="43.23815425287315" lon="11.548718372034724"><ele>176.0</ele><time>2026-04-11T03:06:57.999Z</time></trkpt><trkpt lat="43.23821918792221" lon="11.548787905339895"><ele>176.0</ele><time>2026-04-11T03:06:59.999Z</time></trkpt><trkpt lat="43.238295337702354" lon="11.548862399661365"><ele>176.0</ele><time>2026-04-11T03:07:01.999Z</time></trkpt><trkpt lat="43.238349672308445" lon="11.548910308394413"><ele>176.0</ele><time>2026-04-11T03:07:02.999Z</time></trkpt><trkpt lat="43.23841564428283" lon="11.548952990436254"><ele>176.0</ele><time>2026-04-11T03:07:03.999Z</time></trkpt><trkpt lat="43.23850052810757" lon="11.549023361576397"><ele>176.0</ele><time>2026-04-11T03:07:05.999Z</time></trkpt><trkpt lat="43.23858645733262" lon="11.549088014537382"><ele>176.0</ele><time>2026-04-11T03:07:07.999Z</time></trkpt><trkpt lat="43.23867947854901" lon="11.549157352709155"><ele>176.0</ele><time>2026-04-11T03:07:09.999Z</time></trkpt><trkpt lat="43.23877482543954" lon="11.549224925468407"><ele>176.0</ele><time>2026-04-11T03:07:11.999Z</time></trkpt><trkpt lat="43.238869995275245" lon="11.549296207973496"><ele>176.0</ele><time>2026-04-11T03:07:13.999Z</time></trkpt><trkpt lat="43.23896643904897" lon="11.549361167173643"><ele>175.75</ele><time>2026-04-11T03:07:15.999Z</time></trkpt><trkpt lat="43.239060963452104" lon="11.549438086017927"><ele>175.5</ele><time>2026-04-11T03:07:17.999Z</time></trkpt><trkpt lat="43.23915658634148" lon="11.5495247909271"><ele>175.25</ele><time>2026-04-11T03:07:19.999Z</time></trkpt><trkpt lat="43.239255289587994" lon="11.54961802205125"><ele>175.0</ele><time>2026-04-11T03:07:21.999Z</time></trkpt><trkpt lat="43.239346287752845" lon="11.54972672351449"><ele>175.0</ele><time>2026-04-11T03:07:23.999Z</time></trkpt><trkpt lat="43.239438749893644" lon="11.549838265110836"><ele>175.0</ele><time>2026-04-11T03:07:25.999Z</time></trkpt><trkpt lat="43.23953351677647" lon="11.549957540308112"><ele>175.0</ele><time>2026-04-11T03:07:27.999Z</time></trkpt><trkpt lat="43.239626665004316" lon="11.550072214022238"><ele>175.0</ele><time>2026-04-11T03:07:29.999Z</time></trkpt><trkpt lat="43.23970569912274" lon="11.550187184946674"><ele>175.0</ele><time>2026-04-11T03:07:31.999Z</time></trkpt><trkpt lat="43.23979474355583" lon="11.550308263271887"><ele>175.0</ele><time>2026-04-11T03:07:33.999Z</time></trkpt><trkpt lat="43.23983822928962" lon="11.550370764196861"><ele>175.0</ele><time>2026-04-11T03:07:34.999Z</time></trkpt><trkpt lat="43.239924781359555" lon="11.550482546449052"><ele>175.0</ele><time>2026-04-11T03:07:36.999Z</time></trkpt><trkpt lat="43.240005164453926" lon="11.550594978900984"><ele>175.0</ele><time>2026-04-11T03:07:38.999Z</time></trkpt><trkpt lat="43.240089251310444" lon="11.55070941075945"><ele>174.71428571428572</ele><time>2026-04-11T03:07:41Z</time></trkpt><trkpt lat="43.24013611115307" lon="11.550769732141937"><ele>174.42857142857144</ele><time>2026-04-11T03:07:42Z</time></trkpt><trkpt lat="43.2401793080766" lon="11.5508351927361"><ele>174.14285714285714</ele><time>2026-04-11T03:07:43Z</time></trkpt><trkpt lat="43.240226446957" lon="11.550903832449576"><ele>173.85714285714286</ele><time>2026-04-11T03:07:44Z</time></trkpt><trkpt lat="43.24027324682565" lon="11.550967477776444"><ele>173.57142857142858</ele><time>2026-04-11T03:07:45Z</time></trkpt><trkpt lat="43.24031838766182" lon="11.551040455129492"><ele>173.28571428571428</ele><time>2026-04-11T03:07:46Z</time></trkpt><trkpt lat="43.240366762434" lon="11.551100092479023"><ele>173.0</ele><time>2026-04-11T03:07:47Z</time></trkpt><trkpt lat="43.24041508757096" lon="11.551168568339827"><ele>172.7142857142857</ele><time>2026-04-11T03:07:48Z</time></trkpt><trkpt lat="43.240462911533726" lon="11.5512375706924"><ele>172.42857142857144</ele><time>2026-04-11T03:07:49Z</time></trkpt><trkpt lat="43.24051345487024" lon="11.551303622930636"><ele>172.14285714285714</ele><time>2026-04-11T03:07:50Z</time></trkpt><trkpt lat="43.240561226334584" lon="11.551369874772407"><ele>171.85714285714283</ele><time>2026-04-11T03:07:51Z</time></trkpt><trkpt lat="43.24061058078287" lon="11.551435584633822"><ele>171.57142857142856</ele><time>2026-04-11T03:07:52Z</time></trkpt><trkpt lat="43.240657126883455" lon="11.551501993160297"><ele>171.28571428571428</ele><time>2026-04-11T03:07:53Z</time></trkpt><trkpt lat="43.24070308840188" lon="11.551567252249201"><ele>171.0</ele><time>2026-04-11T03:07:54Z</time></trkpt><trkpt lat="43.240746918666204" lon="11.55163293142584"><ele>172.33333333333334</ele><time>2026-04-11T03:07:55Z</time></trkpt><trkpt lat="43.24078832690662" lon="11.551701539417014"><ele>173.66666666666666</ele><time>2026-04-11T03:07:56Z</time></trkpt><trkpt lat="43.2408212238191" lon="11.551779443513674"><ele>175.0</ele><time>2026-04-11T03:07:57Z</time></trkpt><trkpt lat="43.24083404010041" lon="11.551866295218714"><ele>176.33333333333331</ele><time>2026-04-11T03:07:58Z</time></trkpt><trkpt lat="43.2407977109614" lon="11.552035875586661"><ele>177.66666666666666</ele><time>2026-04-11T03:08:00Z</time></trkpt><trkpt lat="43.24075010269283" lon="11.552096800634802"><ele>179.0</ele><time>2026-04-11T03:08:01Z</time></trkpt><trkpt lat="43.24069623476584" lon="11.552244865802976"><ele>179.2</ele><time>2026-04-11T03:08:03Z</time></trkpt><trkpt lat="43.24064006395727" lon="11.552385373555415"><ele>179.39999999999998</ele><time>2026-04-11T03:08:05Z</time></trkpt><trkpt lat="43.240578488036824" lon="11.55251825517618"><ele>179.6</ele><time>2026-04-11T03:08:07Z</time></trkpt><trkpt lat="43.24051953511703" lon="11.552646665784641"><ele>179.8</ele><time>2026-04-11T03:08:09Z</time></trkpt><trkpt lat="43.240464669885675" lon="11.552770252669713"><ele>180.0</ele><time>2026-04-11T03:08:11Z</time></trkpt><trkpt lat="43.24040911385687" lon="11.552876597655553"><ele>179.0</ele><time>2026-04-11T03:08:13Z</time></trkpt><trkpt lat="43.24034882234735" lon="11.552953610902339"><ele>178.0</ele><time>2026-04-11T03:08:15Z</time></trkpt><trkpt lat="43.24043037182589" lon="11.553122180834519"><ele>177.0</ele><time>2026-04-11T03:08:19Z</time></trkpt><trkpt lat="43.24049480949205" lon="11.55315986174601"><ele>176.0</ele><time>2026-04-11T03:08:21Z</time></trkpt><trkpt lat="43.24055855489278" lon="11.553203168324595"><ele>175.0</ele><time>2026-04-11T03:08:23Z</time></trkpt><trkpt lat="43.24064237150373" lon="11.553264174364383"><ele>175.0</ele><time>2026-04-11T03:08:26Z</time></trkpt><trkpt lat="43.240724149856725" lon="11.553323301172988"><ele>175.0</ele><time>2026-04-11T03:08:28Z</time></trkpt><trkpt lat="43.240816323069524" lon="11.553384813201513"><ele>175.0</ele><time>2026-04-11T03:08:31Z</time></trkpt><trkpt lat="43.24088193193833" lon="11.553449330436782"><ele>175.0</ele><time>2026-04-11T03:08:33Z</time></trkpt><trkpt lat="43.24094348809672" lon="11.55350372565744"><ele>175.0</ele><time>2026-04-11T03:08:35Z</time></trkpt><trkpt lat="43.241005404580456" lon="11.553543124934988"><ele>175.0</ele><time>2026-04-11T03:08:36.999Z</time></trkpt><trkpt lat="43.241069583480225" lon="11.553584138898994"><ele>175.0</ele><time>2026-04-11T03:08:38.999Z</time></trkpt><trkpt lat="43.241125671947366" lon="11.553642936727218"><ele>175.0</ele><time>2026-04-11T03:08:40.999Z</time></trkpt><trkpt lat="43.241183400356235" lon="11.553692218102716"><ele>175.0</ele><time>2026-04-11T03:08:42.999Z</time></trkpt><trkpt lat="43.24124335069495" lon="11.55372590707167"><ele>175.0</ele><time>2026-04-11T03:08:44.999Z</time></trkpt><trkpt lat="43.24130081715379" lon="11.553770132808287"><ele>175.0</ele><time>2026-04-11T03:08:46.999Z</time></trkpt><trkpt lat="43.24137951640116" lon="11.553803035060568"><ele>175.0</ele><time>2026-04-11T03:08:50.999Z</time></trkpt><trkpt lat="43.24144820761711" lon="11.55382516789189"><ele>175.0</ele><time>2026-04-11T03:08:53.999Z</time></trkpt><trkpt lat="43.24151522536518" lon="11.55383654297364"><ele>175.42857142857142</ele><time>2026-04-11T03:08:56.999Z</time></trkpt><trkpt lat="43.241580155848276" lon="11.553831340049182"><ele>175.85714285714286</ele><time>2026-04-11T03:08:59.999Z</time></trkpt><trkpt lat="43.241657513924956" lon="11.553821660066621"><ele>176.28571428571428</ele><time>2026-04-11T03:09:03.999Z</time></trkpt><trkpt lat="43.24172543768662" lon="11.553811654395718"><ele>176.71428571428572</ele><time>2026-04-11T03:09:06.999Z</time></trkpt><trkpt lat="43.241801389567684" lon="11.553823425160104"><ele>177.14285714285714</ele><time>2026-04-11T03:09:10.999Z</time></trkpt><trkpt lat="43.24186974943256" lon="11.553831743202169"><ele>177.57142857142856</ele><time>2026-04-11T03:09:14.999Z</time></trkpt><trkpt lat="43.241933761964354" lon="11.55385436840823"><ele>178.0</ele><time>2026-04-11T03:09:17.999Z</time></trkpt><trkpt lat="43.242002537570166" lon="11.553884217363068"><ele>177.99999999999997</ele><time>2026-04-11T03:09:21.999Z</time></trkpt><trkpt lat="43.24206730669688" lon="11.553920332021645"><ele>178.0</ele><time>2026-04-11T03:09:25.999Z</time></trkpt><trkpt lat="43.242127509107476" lon="11.553968456439161"><ele>178.0</ele><time>2026-04-11T03:09:29.999Z</time></trkpt><trkpt lat="43.24218960803431" lon="11.554011522408326"><ele>178.0</ele><time>2026-04-11T03:09:33.999Z</time></trkpt><trkpt lat="43.24224438143774" lon="11.554059454968632"><ele>178.0</ele><time>2026-04-11T03:09:37.999Z</time></trkpt><trkpt lat="43.24230491963455" lon="11.554099968087277"><ele>177.99999999999997</ele><time>2026-04-11T03:09:41.999Z</time></trkpt><trkpt lat="43.24236477131474" lon="11.55413993792459"><ele>178.0</ele><time>2026-04-11T03:09:46Z</time></trkpt><trkpt lat="43.24241708706792" lon="11.554190243415476"><ele>180.66666666666669</ele><time>2026-04-11T03:09:50Z</time></trkpt><trkpt lat="43.24247509517056" lon="11.554233429483883"><ele>183.33333333333334</ele><time>2026-04-11T03:09:54Z</time></trkpt><trkpt lat="43.24253521938811" lon="11.554286344065172"><ele>186.0</ele><time>2026-04-11T03:09:58Z</time></trkpt><trkpt lat="43.24259774244547" lon="11.554343143649435"><ele>188.66666666666669</ele><time>2026-04-11T03:10:02Z</time></trkpt><trkpt lat="43.24267165678534" lon="11.554399585756872"><ele>191.33333333333334</ele><time>2026-04-11T03:10:06Z</time></trkpt><trkpt lat="43.24274121808129" lon="11.55444375927183"><ele>194.0</ele><time>2026-04-11T03:10:10Z</time></trkpt><trkpt lat="43.24281565879288" lon="11.55448000876893"><ele>194.00000000000003</ele><time>2026-04-11T03:10:14Z</time></trkpt><trkpt lat="43.24288895122723" lon="11.554490459281299"><ele>194.0</ele><time>2026-04-11T03:10:18Z</time></trkpt><trkpt lat="43.24295844574599" lon="11.554515519833245"><ele>194.0</ele><time>2026-04-11T03:10:22Z</time></trkpt><trkpt lat="43.243020983107144" lon="11.554530792313527"><ele>194.0</ele><time>2026-04-11T03:10:25Z</time></trkpt><trkpt lat="43.24309706013221" lon="11.554533895860503"><ele>194.00000000000003</ele><time>2026-04-11T03:10:28Z</time></trkpt><trkpt lat="43.243166213812316" lon="11.554536923266419"><ele>194.0</ele><time>2026-04-11T03:10:31Z</time></trkpt><trkpt lat="43.243266046121505" lon="11.55452572084068"><ele>195.2</ele><time>2026-04-11T03:10:33Z</time></trkpt><trkpt lat="43.24333114825393" lon="11.554511679560202"><ele>196.39999999999998</ele><time>2026-04-11T03:10:34Z</time></trkpt><trkpt lat="43.243453194789105" lon="11.554493638132751"><ele>197.6</ele><time>2026-04-11T03:10:36Z</time></trkpt><trkpt lat="43.24357613101961" lon="11.554470233169779"><ele>198.8</ele><time>2026-04-11T03:10:38Z</time></trkpt><trkpt lat="43.24370225466906" lon="11.554465579102846"><ele>200.0</ele><time>2026-04-11T03:10:40Z</time></trkpt><trkpt lat="43.24378023025812" lon="11.554455332370155"><ele>200.00000000000003</ele><time>2026-04-11T03:10:41Z</time></trkpt><trkpt lat="43.243865345631136" lon="11.554446886194441"><ele>200.0</ele><time>2026-04-11T03:10:42Z</time></trkpt><trkpt lat="43.24394649578315" lon="11.554442634356292"><ele>200.0</ele><time>2026-04-11T03:10:42.999Z</time></trkpt><trkpt lat="43.244027073891544" lon="11.55443058685386"><ele>200.0</ele><time>2026-04-11T03:10:43.999Z</time></trkpt><trkpt lat="43.24411167777996" lon="11.554412824602055"><ele>200.00000000000003</ele><time>2026-04-11T03:10:44.999Z</time></trkpt><trkpt lat="43.244200052918245" lon="11.554399018324942"><ele>200.0</ele><time>2026-04-11T03:10:45.999Z</time></trkpt><trkpt lat="43.244290861383995" lon="11.554388452284126"><ele>198.33333333333334</ele><time>2026-04-11T03:10:46.999Z</time></trkpt><trkpt lat="43.244380308701665" lon="11.554377710135949"><ele>196.66666666666669</ele><time>2026-04-11T03:10:47.999Z</time></trkpt><trkpt lat="43.24446922449036" lon="11.554363277873053"><ele>195.0</ele><time>2026-04-11T03:10:48.999Z</time></trkpt><trkpt lat="43.244561264023325" lon="11.554352499396357"><ele>193.33333333333334</ele><time>2026-04-11T03:10:49.999Z</time></trkpt><trkpt lat="43.244649112732844" lon="11.554342935310578"><ele>191.66666666666669</ele><time>2026-04-11T03:10:50.999Z</time></trkpt><trkpt lat="43.244732700310045" lon="11.554333609734329"><ele>190.0</ele><time>2026-04-11T03:10:51.999Z</time></trkpt><trkpt lat="43.24481939095574" lon="11.554323959824737"><ele>189.2</ele><time>2026-04-11T03:10:52.999Z</time></trkpt><trkpt lat="43.24496334902724" lon="11.554310730010734"><ele>188.4</ele><time>2026-04-11T03:10:54.999Z</time></trkpt><trkpt lat="43.24504944094133" lon="11.554297375906344"><ele>187.60000000000002</ele><time>2026-04-11T03:10:55.999Z</time></trkpt><trkpt lat="43.24513818800616" lon="11.554282827738788"><ele>186.8</ele><time>2026-04-11T03:10:56.999Z</time></trkpt><trkpt lat="43.24522954499803" lon="11.554266008750625"><ele>186.0</ele><time>2026-04-11T03:10:57.999Z</time></trkpt><trkpt lat="43.245322940599365" lon="11.554252674755068"><ele>186.0</ele><time>2026-04-11T03:10:58.999Z</time></trkpt><trkpt lat="43.24541898253858" lon="11.554235665468697"><ele>186.0</ele><time>2026-04-11T03:10:59.999Z</time></trkpt><trkpt lat="43.24551808817328" lon="11.554239198332745"><ele>186.0</ele><time>2026-04-11T03:11:00.999Z</time></trkpt><trkpt lat="43.24561115500688" lon="11.554225617645436"><ele>186.0</ele><time>2026-04-11T03:11:01.999Z</time></trkpt><trkpt lat="43.24570508420358" lon="11.554212056836278"><ele>186.0</ele><time>2026-04-11T03:11:02.999Z</time></trkpt><trkpt lat="43.2458072882504" lon="11.554198069747434"><ele>184.20000000000002</ele><time>2026-04-11T03:11:03.999Z</time></trkpt><trkpt lat="43.24590118025899" lon="11.554185220191137"><ele>182.4</ele><time>2026-04-11T03:11:04.999Z</time></trkpt><trkpt lat="43.24599376772653" lon="11.554149842949359"><ele>180.6</ele><time>2026-04-11T03:11:05.999Z</time></trkpt><trkpt lat="43.246087081553995" lon="11.55413988856282"><ele>178.8</ele><time>2026-04-11T03:11:06.999Z</time></trkpt><trkpt lat="43.24618044754016" lon="11.55413187025288"><ele>177.0</ele><time>2026-04-11T03:11:07.999Z</time></trkpt><trkpt lat="43.24628006826618" lon="11.554120273013146"><ele>177.0</ele><time>2026-04-11T03:11:08.999Z</time></trkpt><trkpt lat="43.24637946294874" lon="11.554112060677745"><ele>177.0</ele><time>2026-04-11T03:11:09.999Z</time></trkpt><trkpt lat="43.24647233705405" lon="11.554107332016034"><ele>177.0</ele><time>2026-04-11T03:11:10.999Z</time></trkpt><trkpt lat="43.24655929316218" lon="11.554119250785478"><ele>177.0</ele><time>2026-04-11T03:11:11.999Z</time></trkpt><trkpt lat="43.24664528440892" lon="11.554141774183355"><ele>177.0</ele><time>2026-04-11T03:11:12.999Z</time></trkpt><trkpt lat="43.246724888429" lon="11.554176284431602"><ele>176.16666666666666</ele><time>2026-04-11T03:11:13.999Z</time></trkpt><trkpt lat="43.24679570783734" lon="11.554218640705503"><ele>175.33333333333334</ele><time>2026-04-11T03:11:14.999Z</time></trkpt><trkpt lat="43.24687001118707" lon="11.55425766785436"><ele>174.5</ele><time>2026-04-11T03:11:15.999Z</time></trkpt><trkpt lat="43.2469410669547" lon="11.554300954906983"><ele>173.66666666666669</ele><time>2026-04-11T03:11:16.999Z</time></trkpt><trkpt lat="43.24700111220938" lon="11.55434353709271"><ele>172.83333333333334</ele><time>2026-04-11T03:11:17.999Z</time></trkpt><trkpt lat="43.24705748198119" lon="11.554382855291967"><ele>172.0</ele><time>2026-04-11T03:11:18.999Z</time></trkpt><trkpt lat="43.247149447209715" lon="11.55445581495369"><ele>172.00000000000003</ele><time>2026-04-11T03:11:20.999Z</time></trkpt><trkpt lat="43.24721215734057" lon="11.554509890390573"><ele>172.0</ele><time>2026-04-11T03:11:22.999Z</time></trkpt><trkpt lat="43.247280939018516" lon="11.554557556804042"><ele>172.0</ele><time>2026-04-11T03:11:25.999Z</time></trkpt><trkpt lat="43.24734380100675" lon="11.55460875796262"><ele>172.0</ele><time>2026-04-11T03:11:28.999Z</time></trkpt><trkpt lat="43.24740328184645" lon="11.554638876530621"><ele>172.0</ele><time>2026-04-11T03:11:31.999Z</time></trkpt><trkpt lat="43.247470727443954" lon="11.554699310111292"><ele>172.00000000000003</ele><time>2026-04-11T03:11:35.999Z</time></trkpt><trkpt lat="43.24753384029529" lon="11.554747939896496"><ele>172.0</ele><time>2026-04-11T03:11:39.999Z</time></trkpt><trkpt lat="43.247595304476405" lon="11.554793560869097"><ele>173.00000000000003</ele><time>2026-04-11T03:11:43.999Z</time></trkpt><trkpt lat="43.247650978687474" lon="11.554838450226754"><ele>174.0</ele><time>2026-04-11T03:11:47.999Z</time></trkpt><trkpt lat="43.24771491279512" lon="11.554882505088226"><ele>175.0</ele><time>2026-04-11T03:11:53Z</time></trkpt><trkpt lat="43.24778460255892" lon="11.554936030470511"><ele>176.0</ele><time>2026-04-11T03:11:58Z</time></trkpt><trkpt lat="43.247833320553326" lon="11.55499885875919"><ele>177.0</ele><time>2026-04-11T03:12:02Z</time></trkpt><trkpt lat="43.247879634325415" lon="11.555072318819255"><ele>178.00000000000003</ele><time>2026-04-11T03:12:06Z</time></trkpt><trkpt lat="43.24791956396197" lon="11.555158696220014"><ele>179.0</ele><time>2026-04-11T03:12:10Z</time></trkpt><trkpt lat="43.24795577131606" lon="11.555237773728068"><ele>179.0</ele><time>2026-04-11T03:12:13Z</time></trkpt><trkpt lat="43.2480057584516" lon="11.55532885715877"><ele>179.0</ele><time>2026-04-11T03:12:17Z</time></trkpt><trkpt lat="43.24805051659376" lon="11.555401196913234"><ele>179.0</ele><time>2026-04-11T03:12:20Z</time></trkpt><trkpt lat="43.24810715449294" lon="11.555470771018339"><ele>179.0</ele><time>2026-04-11T03:12:23Z</time></trkpt><trkpt lat="43.248167196954476" lon="11.555541690449273"><ele>179.0</ele><time>2026-04-11T03:12:26Z</time></trkpt><trkpt lat="43.24822574206178" lon="11.555606493021124"><ele>179.0</ele><time>2026-04-11T03:12:28Z</time></trkpt><trkpt lat="43.24830498381759" lon="11.555674716217705"><ele>180.14285714285717</ele><time>2026-04-11T03:12:31Z</time></trkpt><trkpt lat="43.24836024660315" lon="11.555723092932489"><ele>181.28571428571428</ele><time>2026-04-11T03:12:33Z</time></trkpt><trkpt lat="43.24841887779502" lon="11.555766854114788"><ele>182.42857142857144</ele><time>2026-04-11T03:12:35Z</time></trkpt><trkpt lat="43.24847921950077" lon="11.555811763524561"><ele>183.57142857142858</ele><time>2026-04-11T03:12:37Z</time></trkpt><trkpt lat="43.24854612569324" lon="11.555866822475013"><ele>184.71428571428572</ele><time>2026-04-11T03:12:39Z</time></trkpt><trkpt lat="43.24861527919413" lon="11.555920550586736"><ele>185.85714285714286</ele><time>2026-04-11T03:12:41Z</time></trkpt><trkpt lat="43.24869590175635" lon="11.555973273202476"><ele>187.0</ele><time>2026-04-11T03:12:43Z</time></trkpt><trkpt lat="43.24878281414149" lon="11.55602985729588"><ele>187.0</ele><time>2026-04-11T03:12:45Z</time></trkpt><trkpt lat="43.24887743293883" lon="11.556073415600746"><ele>187.0</ele><time>2026-04-11T03:12:47Z</time></trkpt><trkpt lat="43.24897139983215" lon="11.556095408149133"><ele>187.0</ele><time>2026-04-11T03:12:49Z</time></trkpt><trkpt lat="43.24905948389212" lon="11.55608756994802"><ele>187.0</ele><time>2026-04-11T03:12:51Z</time></trkpt><trkpt lat="43.24913641992298" lon="11.556071598130517"><ele>187.0</ele><time>2026-04-11T03:12:53Z</time></trkpt><trkpt lat="43.24920979432765" lon="11.556051666806617"><ele>187.0</ele><time>2026-04-11T03:12:55Z</time></trkpt><trkpt lat="43.24928163899639" lon="11.556039343679002"><ele>188.5</ele><time>2026-04-11T03:12:57Z</time></trkpt><trkpt lat="43.24935115537303" lon="11.556025109639222"><ele>190.0</ele><time>2026-04-11T03:12:58.999Z</time></trkpt><trkpt lat="43.24942218851868" lon="11.556009858436614"><ele>191.5</ele><time>2026-04-11T03:13:00.999Z</time></trkpt><trkpt lat="43.249494007269824" lon="11.555993298763134"><ele>193.0</ele><time>2026-04-11T03:13:02.999Z</time></trkpt><trkpt lat="43.249571149082236" lon="11.555985014687192"><ele>194.49999999999997</ele><time>2026-04-11T03:13:04.999Z</time></trkpt><trkpt lat="43.249654669318375" lon="11.55598808528056"><ele>196.0</ele><time>2026-04-11T03:13:06.999Z</time></trkpt><trkpt lat="43.24974302903247" lon="11.555988106960026"><ele>196.49999999999997</ele><time>2026-04-11T03:13:08.999Z</time></trkpt><trkpt lat="43.249837068991006" lon="11.555976301982215"><ele>197.0</ele><time>2026-04-11T03:13:10.999Z</time></trkpt><trkpt lat="43.24992969503143" lon="11.555964955135968"><ele>197.5</ele><time>2026-04-11T03:13:12.999Z</time></trkpt><trkpt lat="43.25001282275711" lon="11.55593872737854"><ele>198.0</ele><time>2026-04-11T03:13:14.999Z</time></trkpt><trkpt lat="43.25007462032898" lon="11.555900254149028"><ele>198.49999999999997</ele><time>2026-04-11T03:13:16.999Z</time></trkpt><trkpt lat="43.25013274019447" lon="11.555863981840718"><ele>199.0</ele><time>2026-04-11T03:13:19.999Z</time></trkpt><trkpt lat="43.25019386632373" lon="11.555820686517565"><ele>198.99999999999997</ele><time>2026-04-11T03:13:23.999Z</time></trkpt><trkpt lat="43.250250358845555" lon="11.555768323039123"><ele>199.0</ele><time>2026-04-11T03:13:27.999Z</time></trkpt><trkpt lat="43.25030159195277" lon="11.5557122605519"><ele>199.0</ele><time>2026-04-11T03:13:31.999Z</time></trkpt><trkpt lat="43.25035953962749" lon="11.555656084155048"><ele>199.0</ele><time>2026-04-11T03:13:36.999Z</time></trkpt><trkpt lat="43.25041853246824" lon="11.555608093561467"><ele>199.0</ele><time>2026-04-11T03:13:41.999Z</time></trkpt><trkpt lat="43.25046950699668" lon="11.555553901589732"><ele>198.99999999999997</ele><time>2026-04-11T03:13:46.999Z</time></trkpt><trkpt lat="43.25052028131908" lon="11.555495160412592"><ele>199.0</ele><time>2026-04-11T03:13:52.999Z</time></trkpt><trkpt lat="43.25057445972011" lon="11.555434220184821"><ele>198.99999999999997</ele><time>2026-04-11T03:13:59Z</time></trkpt><trkpt lat="43.25061983128805" lon="11.55537130546085"><ele>199.0</ele><time>2026-04-11T03:14:04Z</time></trkpt><trkpt lat="43.25068184723099" lon="11.555313512274674"><ele>199.0</ele><time>2026-04-11T03:14:10Z</time></trkpt><trkpt lat="43.25073171675605" lon="11.555237001992538"><ele>199.0</ele><time>2026-04-11T03:14:16Z</time></trkpt><trkpt lat="43.25079123823001" lon="11.555181278790224"><ele>199.0</ele><time>2026-04-11T03:14:23Z</time></trkpt><trkpt lat="43.250845612428655" lon="11.555118461281959"><ele>198.99999999999997</ele><time>2026-04-11T03:14:29Z</time></trkpt><trkpt lat="43.25090557756399" lon="11.555062190347144"><ele>199.0</ele><time>2026-04-11T03:14:35Z</time></trkpt><trkpt lat="43.250973770766144" lon="11.555020020337004"><ele>201.66666666666666</ele><time>2026-04-11T03:14:41Z</time></trkpt><trkpt lat="43.25104162988215" lon="11.554980281569701"><ele>204.33333333333331</ele><time>2026-04-11T03:14:46Z</time></trkpt><trkpt lat="43.25111306972224" lon="11.554932845328729"><ele>207.0</ele><time>2026-04-11T03:14:51Z</time></trkpt><trkpt lat="43.25117107743797" lon="11.554894996241716"><ele>209.66666666666669</ele><time>2026-04-11T03:14:55Z</time></trkpt><trkpt lat="43.25124924971074" lon="11.554862895245245"><ele>212.33333333333334</ele><time>2026-04-11T03:14:59Z</time></trkpt><trkpt lat="43.25133372551767" lon="11.554828407463019"><ele>215.0</ele><time>2026-04-11T03:15:03Z</time></trkpt><trkpt lat="43.25140249436314" lon="11.554800156903836"><ele>214.7142857142857</ele><time>2026-04-11T03:15:06Z</time></trkpt><trkpt lat="43.251471862966035" lon="11.554777484712433"><ele>214.42857142857144</ele><time>2026-04-11T03:15:09Z</time></trkpt><trkpt lat="43.25153517282146" lon="11.554761070684062"><ele>214.14285714285714</ele><time>2026-04-11T03:15:11.999Z</time></trkpt><trkpt lat="43.25160791969846" lon="11.554736082383116"><ele>213.85714285714283</ele><time>2026-04-11T03:15:15.999Z</time></trkpt><trkpt lat="43.25167678879414" lon="11.554716274776043"><ele>213.57142857142856</ele><time>2026-04-11T03:15:19.999Z</time></trkpt><trkpt lat="43.25174075243306" lon="11.554696862640464"><ele>213.28571428571428</ele><time>2026-04-11T03:15:23.999Z</time></trkpt><trkpt lat="43.25181277063397" lon="11.554676108094025"><ele>213.0</ele><time>2026-04-11T03:15:28.999Z</time></trkpt><trkpt lat="43.251874877591156" lon="11.55464414796108"><ele>212.99999999999997</ele><time>2026-04-11T03:15:33.999Z</time></trkpt><trkpt lat="43.25194955932224" lon="11.554645132021712"><ele>213.0</ele><time>2026-04-11T03:15:39.999Z</time></trkpt><trkpt lat="43.25201857813502" lon="11.554620437863662"><ele>213.0</ele><time>2026-04-11T03:15:44.999Z</time></trkpt><trkpt lat="43.25209249982239" lon="11.554615105833005"><ele>213.0</ele><time>2026-04-11T03:15:48.999Z</time></trkpt><trkpt lat="43.252167022076" lon="11.554623062000855"><ele>213.0</ele><time>2026-04-11T03:15:51.999Z</time></trkpt><trkpt lat="43.25223676261465" lon="11.554640771340573"><ele>212.99999999999997</ele><time>2026-04-11T03:15:54.999Z</time></trkpt><trkpt lat="43.252316220087884" lon="11.55467508786092"><ele>213.0</ele><time>2026-04-11T03:15:56.999Z</time></trkpt><trkpt lat="43.25239470404557" lon="11.554700408708385"><ele>213.14285714285714</ele><time>2026-04-11T03:15:58.999Z</time></trkpt><trkpt lat="43.25246306435639" lon="11.554708407189498"><ele>213.28571428571428</ele><time>2026-04-11T03:16:00.999Z</time></trkpt><trkpt lat="43.252541825175435" lon="11.554734034763865"><ele>213.42857142857144</ele><time>2026-04-11T03:16:04Z</time></trkpt><trkpt lat="43.25262438600047" lon="11.554749567574381"><ele>213.57142857142856</ele><time>2026-04-11T03:16:08Z</time></trkpt><trkpt lat="43.252697474305236" lon="11.554741371917714"><ele>213.71428571428572</ele><time>2026-04-11T03:16:12Z</time></trkpt><trkpt lat="43.25276623879128" lon="11.554744868740732"><ele>213.85714285714286</ele><time>2026-04-11T03:16:17Z</time></trkpt><trkpt lat="43.252831764629" lon="11.554727897610697"><ele>214.0</ele><time>2026-04-11T03:16:21Z</time></trkpt><trkpt lat="43.25290171536634" lon="11.554721306792063"><ele>214.00000000000003</ele><time>2026-04-11T03:16:25Z</time></trkpt><trkpt lat="43.25297006256605" lon="11.554705402589086"><ele>214.0</ele><time>2026-04-11T03:16:29Z</time></trkpt><trkpt lat="43.25303515947044" lon="11.554677968921771"><ele>214.0</ele><time>2026-04-11T03:16:33Z</time></trkpt><trkpt lat="43.25311160352669" lon="11.554653429069583"><ele>214.0</ele><time>2026-04-11T03:16:38Z</time></trkpt><trkpt lat="43.25318576006193" lon="11.554629336399096"><ele>214.0</ele><time>2026-04-11T03:16:43Z</time></trkpt><trkpt lat="43.25325398935893" lon="11.55459871069542"><ele>214.00000000000003</ele><time>2026-04-11T03:16:48Z</time></trkpt><trkpt lat="43.25332248711368" lon="11.554558585965438"><ele>214.0</ele><time>2026-04-11T03:16:53Z</time></trkpt><trkpt lat="43.2533771417326" lon="11.554514656490799"><ele>216.57142857142858</ele><time>2026-04-11T03:16:58Z</time></trkpt><trkpt lat="43.25343653573862" lon="11.554466568293382"><ele>219.14285714285717</ele><time>2026-04-11T03:17:04Z</time></trkpt><trkpt lat="43.25350109264275" lon="11.554418433615375"><ele>221.71428571428572</ele><time>2026-04-11T03:17:10Z</time></trkpt><trkpt lat="43.25356605283432" lon="11.554386007866531"><ele>224.2857142857143</ele><time>2026-04-11T03:17:15Z</time></trkpt><trkpt lat="43.25362317616886" lon="11.554347163190851"><ele>226.85714285714286</ele><time>2026-04-11T03:17:19.999Z</time></trkpt><trkpt lat="43.25369216579848" lon="11.554291183473518"><ele>229.42857142857147</ele><time>2026-04-11T03:17:24.999Z</time></trkpt><trkpt lat="43.25375779561705" lon="11.554228849680657"><ele>232.00000000000003</ele><time>2026-04-11T03:17:28.999Z</time></trkpt><trkpt lat="43.25383075782803" lon="11.554177447621932"><ele>232.00000000000003</ele><time>2026-04-11T03:17:32.999Z</time></trkpt><trkpt lat="43.25388338937264" lon="11.554114017657236"><ele>232.0</ele><time>2026-04-11T03:17:35.999Z</time></trkpt><trkpt lat="43.25393140519427" lon="11.554041130396142"><ele>232.00000000000003</ele><time>2026-04-11T03:17:37.999Z</time></trkpt><trkpt lat="43.253968857018315" lon="11.553963052760432"><ele>232.00000000000003</ele><time>2026-04-11T03:17:40.999Z</time></trkpt><trkpt lat="43.25400162644308" lon="11.553865937535134"><ele>232.0</ele><time>2026-04-11T03:17:44.999Z</time></trkpt><trkpt lat="43.25402413019502" lon="11.553758927848662"><ele>232.00000000000003</ele><time>2026-04-11T03:17:48.999Z</time></trkpt><trkpt lat="43.254047391244384" lon="11.553663015211304"><ele>232.00000000000003</ele><time>2026-04-11T03:17:53.999Z</time></trkpt><trkpt lat="43.254052809112586" lon="11.553561198016302"><ele>233.8571428571429</ele><time>2026-04-11T03:17:58.999Z</time></trkpt><trkpt lat="43.254050393706144" lon="11.55346406438075"><ele>235.71428571428572</ele><time>2026-04-11T03:18:03.999Z</time></trkpt><trkpt lat="43.25405478960225" lon="11.553362675551112"><ele>237.57142857142858</ele><time>2026-04-11T03:18:09Z</time></trkpt><trkpt lat="43.25406934159277" lon="11.553257530298728"><ele>239.42857142857144</ele><time>2026-04-11T03:18:14Z</time></trkpt><trkpt lat="43.254104507865044" lon="11.553157834207195"><ele>241.28571428571428</ele><time>2026-04-11T03:18:19Z</time></trkpt><trkpt lat="43.254145751717516" lon="11.553080299559682"><ele>243.14285714285714</ele><time>2026-04-11T03:18:23Z</time></trkpt><trkpt lat="43.25420060288725" lon="11.553027086898432"><ele>245.0</ele><time>2026-04-11T03:18:27Z</time></trkpt><trkpt lat="43.25426066106744" lon="11.552982915934415"><ele>245.00000000000003</ele><time>2026-04-11T03:18:31Z</time></trkpt><trkpt lat="43.25433089323905" lon="11.552952182524361"><ele>245.0</ele><time>2026-04-11T03:18:35Z</time></trkpt><trkpt lat="43.254396702500856" lon="11.552940740199096"><ele>245.0</ele><time>2026-04-11T03:18:39Z</time></trkpt><trkpt lat="43.25447033090012" lon="11.55294082111957"><ele>245.0</ele><time>2026-04-11T03:18:43Z</time></trkpt><trkpt lat="43.25455480609627" lon="11.552938075876405"><ele>245.00000000000003</ele><time>2026-04-11T03:18:47Z</time></trkpt><trkpt lat="43.25462624752585" lon="11.552936213863504"><ele>245.0</ele><time>2026-04-11T03:18:50Z</time></trkpt><trkpt lat="43.25470734748961" lon="11.552933206111646"><ele>245.50000000000003</ele><time>2026-04-11T03:18:53Z</time></trkpt><trkpt lat="43.25479821439011" lon="11.552930533881574"><ele>246.0</ele><time>2026-04-11T03:18:56Z</time></trkpt><trkpt lat="43.25489733688752" lon="11.552935459169515"><ele>246.5</ele><time>2026-04-11T03:18:59Z</time></trkpt><trkpt lat="43.25500771052856" lon="11.552923842048559"><ele>247.0</ele><time>2026-04-11T03:19:00Z</time></trkpt><trkpt lat="43.25508084527888" lon="11.552922930817362"><ele>247.50000000000003</ele><time>2026-04-11T03:19:02Z</time></trkpt><trkpt lat="43.25514971721928" lon="11.552915517191941"><ele>248.0</ele><time>2026-04-11T03:19:04Z</time></trkpt><trkpt lat="43.2552158753924" lon="11.552913816582583"><ele>248.00000000000003</ele><time>2026-04-11T03:19:06Z</time></trkpt><trkpt lat="43.25528747687088" lon="11.552917882341049"><ele>248.0</ele><time>2026-04-11T03:19:08Z</time></trkpt><trkpt lat="43.255366094374494" lon="11.552908761709414"><ele>248.0</ele><time>2026-04-11T03:19:10Z</time></trkpt><trkpt lat="43.25545534315553" lon="11.552912164092737"><ele>248.0</ele><time>2026-04-11T03:19:12Z</time></trkpt><trkpt lat="43.255552467810766" lon="11.552940369350853"><ele>248.00000000000003</ele><time>2026-04-11T03:19:14Z</time></trkpt><trkpt lat="43.25565225562034" lon="11.55297267253632"><ele>248.0</ele><time>2026-04-11T03:19:16Z</time></trkpt><trkpt lat="43.255748524264504" lon="11.553028671167928"><ele>248.8</ele><time>2026-04-11T03:19:18Z</time></trkpt><trkpt lat="43.2558309769785" lon="11.553083458925105"><ele>249.60000000000002</ele><time>2026-04-11T03:19:20Z</time></trkpt><trkpt lat="43.25592835457314" lon="11.553149541527496"><ele>250.39999999999998</ele><time>2026-04-11T03:19:22Z</time></trkpt><trkpt lat="43.25603247770469" lon="11.553216629310107"><ele>251.2</ele><time>2026-04-11T03:19:24Z</time></trkpt><trkpt lat="43.25614291217501" lon="11.553286299741403"><ele>252.0</ele><time>2026-04-11T03:19:26Z</time></trkpt><trkpt lat="43.256200595108034" lon="11.553323651921993"><ele>252.0</ele><time>2026-04-11T03:19:27Z</time></trkpt><trkpt lat="43.256313953965304" lon="11.553396582119278"><ele>252.0</ele><time>2026-04-11T03:19:28.999Z</time></trkpt><trkpt lat="43.25637174468512" lon="11.553435372844238"><ele>252.0</ele><time>2026-04-11T03:19:29.999Z</time></trkpt><trkpt lat="43.25642856675261" lon="11.553474518042421"><ele>252.0</ele><time>2026-04-11T03:19:30.999Z</time></trkpt><trkpt lat="43.25653881992856" lon="11.553551246811828"><ele>252.0</ele><time>2026-04-11T03:19:32.999Z</time></trkpt><trkpt lat="43.25664774499884" lon="11.553624945939376"><ele>251.75</ele><time>2026-04-11T03:19:34.999Z</time></trkpt><trkpt lat="43.256755777051566" lon="11.55368560233165"><ele>251.5</ele><time>2026-04-11T03:19:36.999Z</time></trkpt><trkpt lat="43.25687011366575" lon="11.55372174046827"><ele>251.25</ele><time>2026-04-11T03:19:38.999Z</time></trkpt><trkpt lat="43.256985911987975" lon="11.553732384515538"><ele>251.0</ele><time>2026-04-11T03:19:40.999Z</time></trkpt><trkpt lat="43.257095606782904" lon="11.55371959489708"><ele>251.0</ele><time>2026-04-11T03:19:42.999Z</time></trkpt><trkpt lat="43.25719739037369" lon="11.55369503396298"><ele>251.00000000000003</ele><time>2026-04-11T03:19:44.999Z</time></trkpt><trkpt lat="43.25729645965718" lon="11.553667077016247"><ele>251.00000000000003</ele><time>2026-04-11T03:19:46.999Z</time></trkpt><trkpt lat="43.257393418195555" lon="11.553637433554726"><ele>251.0</ele><time>2026-04-11T03:19:48.999Z</time></trkpt><trkpt lat="43.25749754865194" lon="11.553604022580155"><ele>251.0</ele><time>2026-04-11T03:19:50.999Z</time></trkpt><trkpt lat="43.257604534531005" lon="11.553557524632122"><ele>251.25</ele><time>2026-04-11T03:19:52.999Z</time></trkpt><trkpt lat="43.2577116046003" lon="11.553502809680454"><ele>251.5</ele><time>2026-04-11T03:19:54.999Z</time></trkpt><trkpt lat="43.257815565747514" lon="11.553443308946166"><ele>251.75</ele><time>2026-04-11T03:19:56.999Z</time></trkpt><trkpt lat="43.25792270271729" lon="11.553386553323827"><ele>252.0</ele><time>2026-04-11T03:19:58.999Z</time></trkpt><trkpt lat="43.25803196743287" lon="11.553338629497457"><ele>252.0</ele><time>2026-04-11T03:20:00.999Z</time></trkpt><trkpt lat="43.258147322850185" lon="11.55329960788102"><ele>252.0</ele><time>2026-04-11T03:20:02.999Z</time></trkpt><trkpt lat="43.258209936743754" lon="11.553286119726724"><ele>252.0</ele><time>2026-04-11T03:20:03.999Z</time></trkpt><trkpt lat="43.25827548597677" lon="11.553270017166543"><ele>252.0</ele><time>2026-04-11T03:20:04.999Z</time></trkpt><trkpt lat="43.25834754721577" lon="11.553248008498283"><ele>252.0</ele><time>2026-04-11T03:20:05.999Z</time></trkpt><trkpt lat="43.25842409212593" lon="11.553227749572192"><ele>252.0</ele><time>2026-04-11T03:20:06.999Z</time></trkpt><trkpt lat="43.25850528075723" lon="11.553210513059412"><ele>252.0</ele><time>2026-04-11T03:20:07.999Z</time></trkpt><trkpt lat="43.25858863971617" lon="11.553189574626495"><ele>252.0</ele><time>2026-04-11T03:20:08.999Z</time></trkpt><trkpt lat="43.25867694010096" lon="11.553170847436371"><ele>252.0</ele><time>2026-04-11T03:20:09.999Z</time></trkpt><trkpt lat="43.258766984171515" lon="11.5531444793812"><ele>252.0</ele><time>2026-04-11T03:20:10.999Z</time></trkpt><trkpt lat="43.258857101306205" lon="11.553110101381574"><ele>252.0</ele><time>2026-04-11T03:20:11.999Z</time></trkpt><trkpt lat="43.25894473401662" lon="11.553059931779826"><ele>251.0</ele><time>2026-04-11T03:20:12.999Z</time></trkpt><trkpt lat="43.25902587743751" lon="11.552998248524405"><ele>250.0</ele><time>2026-04-11T03:20:13.999Z</time></trkpt><trkpt lat="43.25910019318587" lon="11.55293076882692"><ele>249.0</ele><time>2026-04-11T03:20:15Z</time></trkpt><trkpt lat="43.25916297436917" lon="11.552855084922491"><ele>248.0</ele><time>2026-04-11T03:20:16Z</time></trkpt><trkpt lat="43.25923492179798" lon="11.552805182233854"><ele>247.0</ele><time>2026-04-11T03:20:17Z</time></trkpt><trkpt lat="43.25929076181762" lon="11.552739193176542"><ele>246.0</ele><time>2026-04-11T03:20:18Z</time></trkpt><trkpt lat="43.259342734904" lon="11.552672361152501"><ele>246.0</ele><time>2026-04-11T03:20:19Z</time></trkpt><trkpt lat="43.259389014590695" lon="11.552603446141287"><ele>246.0</ele><time>2026-04-11T03:20:20Z</time></trkpt><trkpt lat="43.25941703862373" lon="11.552517437573771"><ele>246.0</ele><time>2026-04-11T03:20:21Z</time></trkpt><trkpt lat="43.25945266512773" lon="11.55244415675061"><ele>246.0</ele><time>2026-04-11T03:20:22Z</time></trkpt><trkpt lat="43.259479222744424" lon="11.552364995957538"><ele>246.0</ele><time>2026-04-11T03:20:23Z</time></trkpt><trkpt lat="43.25952012201366" lon="11.552221166820935"><ele>246.0</ele><time>2026-04-11T03:20:25Z</time></trkpt><trkpt lat="43.25955741771783" lon="11.552092294823368"><ele>246.0</ele><time>2026-04-11T03:20:27Z</time></trkpt><trkpt lat="43.25958052525185" lon="11.551993902852027"><ele>246.0</ele><time>2026-04-11T03:20:29Z</time></trkpt><trkpt lat="43.259608616054166" lon="11.551878968352874"><ele>246.0</ele><time>2026-04-11T03:20:33Z</time></trkpt><trkpt lat="43.25964259359553" lon="11.55174865250736"><ele>246.0</ele><time>2026-04-11T03:20:36Z</time></trkpt><trkpt lat="43.25965958792526" lon="11.551660824642955"><ele>246.0</ele><time>2026-04-11T03:20:39Z</time></trkpt><trkpt lat="43.259679765647945" lon="11.551563553996955"><ele>246.0</ele><time>2026-04-11T03:20:42Z</time></trkpt><trkpt lat="43.25970182787939" lon="11.551462323091902"><ele>246.0</ele><time>2026-04-11T03:20:45Z</time></trkpt><trkpt lat="43.25973629156832" lon="11.5513657301706"><ele>246.0</ele><time>2026-04-11T03:20:47Z</time></trkpt><trkpt lat="43.2597733835177" lon="11.551241506391396"><ele>246.0</ele><time>2026-04-11T03:20:49Z</time></trkpt><trkpt lat="43.2598306606351" lon="11.551093101966742"><ele>246.0</ele><time>2026-04-11T03:20:50Z</time></trkpt><trkpt lat="43.25987075697002" lon="11.551007775575142"><ele>246.0</ele><time>2026-04-11T03:20:51Z</time></trkpt><trkpt lat="43.25991121670334" lon="11.550926371963415"><ele>246.0</ele><time>2026-04-11T03:20:52Z</time></trkpt><trkpt lat="43.25995337412425" lon="11.550846090175638"><ele>246.33333333333334</ele><time>2026-04-11T03:20:53Z</time></trkpt><trkpt lat="43.25999787398127" lon="11.55076134752251"><ele>246.66666666666669</ele><time>2026-04-11T03:20:54Z</time></trkpt><trkpt lat="43.26004304350933" lon="11.550676559689377"><ele>247.0</ele><time>2026-04-11T03:20:55Z</time></trkpt><trkpt lat="43.26008168874065" lon="11.55057141272304"><ele>247.33333333333334</ele><time>2026-04-11T03:20:56Z</time></trkpt><trkpt lat="43.26013648973305" lon="11.550482018053549"><ele>247.66666666666669</ele><time>2026-04-11T03:20:57Z</time></trkpt><trkpt lat="43.26020219815117" lon="11.550412204876634"><ele>248.0</ele><time>2026-04-11T03:20:58Z</time></trkpt><trkpt lat="43.26025966164243" lon="11.55032646381056"><ele>246.60000000000002</ele><time>2026-04-11T03:20:59Z</time></trkpt><trkpt lat="43.26032531966638" lon="11.550236518270747"><ele>245.20000000000002</ele><time>2026-04-11T03:21:00Z</time></trkpt><trkpt lat="43.26039872845961" lon="11.55012597516082"><ele>243.8</ele><time>2026-04-11T03:21:01Z</time></trkpt><trkpt lat="43.26049332488096" lon="11.550053006373643"><ele>242.4</ele><time>2026-04-11T03:21:02Z</time></trkpt><trkpt lat="43.26059095305263" lon="11.549998001769584"><ele>241.0</ele><time>2026-04-11T03:21:03Z</time></trkpt><trkpt lat="43.26069790008928" lon="11.549955299356595"><ele>239.4</ele><time>2026-04-11T03:21:04Z</time></trkpt><trkpt lat="43.260811835117146" lon="11.549945319646001"><ele>237.8</ele><time>2026-04-11T03:21:05Z</time></trkpt><trkpt lat="43.2609168503439" lon="11.549943953133203"><ele>236.20000000000002</ele><time>2026-04-11T03:21:06Z</time></trkpt><trkpt lat="43.261016841431285" lon="11.549956666312804"><ele>234.60000000000002</ele><time>2026-04-11T03:21:07Z</time></trkpt><trkpt lat="43.26110256468675" lon="11.549978085287918"><ele>233.0</ele><time>2026-04-11T03:21:08Z</time></trkpt><trkpt lat="43.26117651814076" lon="11.54999202397987"><ele>233.00000000000003</ele><time>2026-04-11T03:21:09Z</time></trkpt><trkpt lat="43.26128220226167" lon="11.549998783924316"><ele>233.0</ele><time>2026-04-11T03:21:11Z</time></trkpt><trkpt lat="43.26138626537919" lon="11.549977332948087"><ele>233.0</ele><time>2026-04-11T03:21:13Z</time></trkpt><trkpt lat="43.261467992379714" lon="11.549970291175885"><ele>233.0</ele><time>2026-04-11T03:21:15Z</time></trkpt><trkpt lat="43.26154011175564" lon="11.549947956074542"><ele>233.00000000000003</ele><time>2026-04-11T03:21:17Z</time></trkpt><trkpt lat="43.26161104996237" lon="11.549928114555973"><ele>233.0</ele><time>2026-04-11T03:21:19Z</time></trkpt><trkpt lat="43.26167691106777" lon="11.549900763940421"><ele>233.28571428571428</ele><time>2026-04-11T03:21:21Z</time></trkpt><trkpt lat="43.26173847907697" lon="11.549873335849886"><ele>233.57142857142856</ele><time>2026-04-11T03:21:23Z</time></trkpt><trkpt lat="43.26179703159631" lon="11.54983811668675"><ele>233.85714285714283</ele><time>2026-04-11T03:21:25Z</time></trkpt><trkpt lat="43.26187289400832" lon="11.549787459094517"><ele>234.14285714285714</ele><time>2026-04-11T03:21:28Z</time></trkpt><trkpt lat="43.261955400671326" lon="11.549725056094864"><ele>234.4285714285714</ele><time>2026-04-11T03:21:31Z</time></trkpt><trkpt lat="43.26201091891954" lon="11.549674838655879"><ele>234.7142857142857</ele><time>2026-04-11T03:21:33Z</time></trkpt><trkpt lat="43.262061292788076" lon="11.54961857591139"><ele>235.0</ele><time>2026-04-11T03:21:35Z</time></trkpt><trkpt lat="43.26211813740145" lon="11.549554718573749"><ele>235.33333333333331</ele><time>2026-04-11T03:21:37.999Z</time></trkpt><trkpt lat="43.2621896767769" lon="11.549476497317144"><ele>235.66666666666666</ele><time>2026-04-11T03:21:40.999Z</time></trkpt><trkpt lat="43.26225612369296" lon="11.549403961351167"><ele>236.0</ele><time>2026-04-11T03:21:43.999Z</time></trkpt><trkpt lat="43.26231382599749" lon="11.549336950506218"><ele>236.33333333333331</ele><time>2026-04-11T03:21:46.999Z</time></trkpt><trkpt lat="43.26236438846159" lon="11.54927171945546"><ele>236.66666666666666</ele><time>2026-04-11T03:21:49.999Z</time></trkpt><trkpt lat="43.26241050107921" lon="11.549201865229467"><ele>237.0</ele><time>2026-04-11T03:21:52.999Z</time></trkpt><trkpt lat="43.2624664567421" lon="11.549124658027948"><ele>238.28571428571425</ele><time>2026-04-11T03:21:56.999Z</time></trkpt><trkpt lat="43.262515064234364" lon="11.549044221959523"><ele>239.57142857142856</ele><time>2026-04-11T03:22:00.999Z</time></trkpt><trkpt lat="43.26256132271056" lon="11.548965941315167"><ele>240.85714285714286</ele><time>2026-04-11T03:22:04.999Z</time></trkpt><trkpt lat="43.26259780789562" lon="11.548893673641283"><ele>242.14285714285714</ele><time>2026-04-11T03:22:07.999Z</time></trkpt><trkpt lat="43.262636053676175" lon="11.548799097243053"><ele>243.42857142857144</ele><time>2026-04-11T03:22:11.999Z</time></trkpt><trkpt lat="43.26268060312445" lon="11.548715893467557"><ele>244.71428571428575</ele><time>2026-04-11T03:22:15.999Z</time></trkpt><trkpt lat="43.262727650396016" lon="11.548629619756028"><ele>246.00000000000003</ele><time>2026-04-11T03:22:19.999Z</time></trkpt><trkpt lat="43.26277268055431" lon="11.548549132267421"><ele>247.14285714285717</ele><time>2026-04-11T03:22:24Z</time></trkpt><trkpt lat="43.26281975533226" lon="11.548473178408642"><ele>248.28571428571428</ele><time>2026-04-11T03:22:28Z</time></trkpt><trkpt lat="43.262868930748624" lon="11.548393478188277"><ele>249.42857142857144</ele><time>2026-04-11T03:22:33Z</time></trkpt><trkpt lat="43.26291223271421" lon="11.548316749025998"><ele>250.57142857142858</ele><time>2026-04-11T03:22:38Z</time></trkpt><trkpt lat="43.26294848367149" lon="11.548242819431406"><ele>251.71428571428572</ele><time>2026-04-11T03:22:43Z</time></trkpt><trkpt lat="43.26298322312977" lon="11.548165519113008"><ele>252.85714285714286</ele><time>2026-04-11T03:22:48Z</time></trkpt><trkpt lat="43.26301310344317" lon="11.54808900879225"><ele>254.0</ele><time>2026-04-11T03:22:53Z</time></trkpt><trkpt lat="43.26304203192272" lon="11.548005379963689"><ele>254.0</ele><time>2026-04-11T03:22:58Z</time></trkpt><trkpt lat="43.26306693740553" lon="11.547905737168582"><ele>254.0</ele><time>2026-04-11T03:23:04Z</time></trkpt><trkpt lat="43.263117239329006" lon="11.547831026233844"><ele>254.0</ele><time>2026-04-11T03:23:09Z</time></trkpt><trkpt lat="43.26315354102502" lon="11.547738641806658"><ele>254.0</ele><time>2026-04-11T03:23:14Z</time></trkpt><trkpt lat="43.26318748639648" lon="11.54765746815006"><ele>254.0</ele><time>2026-04-11T03:23:18Z</time></trkpt><trkpt lat="43.263228554969324" lon="11.547576681261537"><ele>254.0</ele><time>2026-04-11T03:23:22Z</time></trkpt><trkpt lat="43.263279881822086" lon="11.54749005934817"><ele>254.0</ele><time>2026-04-11T03:23:26Z</time></trkpt><trkpt lat="43.26333757255089" lon="11.547407456890877"><ele>255.66666666666669</ele><time>2026-04-11T03:23:30Z</time></trkpt><trkpt lat="43.26339773324241" lon="11.547330643815336"><ele>257.33333333333337</ele><time>2026-04-11T03:23:34Z</time></trkpt><trkpt lat="43.26344711364248" lon="11.547268891076197"><ele>259.0</ele><time>2026-04-11T03:23:36.999Z</time></trkpt><trkpt lat="43.263514164596884" lon="11.54719975989428"><ele>260.6666666666667</ele><time>2026-04-11T03:23:39.999Z</time></trkpt><trkpt lat="43.26356941333797" lon="11.547144667401826"><ele>262.3333333333333</ele><time>2026-04-11T03:23:41.999Z</time></trkpt><trkpt lat="43.26366743356672" lon="11.547038177284046"><ele>264.0</ele><time>2026-04-11T03:23:44.999Z</time></trkpt><trkpt lat="43.263773327724564" lon="11.546951416716944"><ele>264.0</ele><time>2026-04-11T03:23:45.999Z</time></trkpt><trkpt lat="43.26387141592388" lon="11.546855150768602"><ele>264.0</ele><time>2026-04-11T03:23:47.999Z</time></trkpt><trkpt lat="43.26392833982188" lon="11.546810853427228"><ele>264.0</ele><time>2026-04-11T03:23:48.999Z</time></trkpt><trkpt lat="43.264001982494875" lon="11.546745587877714"><ele>264.0</ele><time>2026-04-11T03:23:49.999Z</time></trkpt><trkpt lat="43.264056947524075" lon="11.546685277712035"><ele>264.0</ele><time>2026-04-11T03:23:50.999Z</time></trkpt><trkpt lat="43.26411153178804" lon="11.54662918525564"><ele>264.0</ele><time>2026-04-11T03:23:51.999Z</time></trkpt><trkpt lat="43.26416412016436" lon="11.546571792530509"><ele>264.0</ele><time>2026-04-11T03:23:52.999Z</time></trkpt><trkpt lat="43.26421286212701" lon="11.546512439877208"><ele>264.0</ele><time>2026-04-11T03:23:53.999Z</time></trkpt><trkpt lat="43.26430198318599" lon="11.546391724864833"><ele>264.0</ele><time>2026-04-11T03:23:55.999Z</time></trkpt><trkpt lat="43.26437662453321" lon="11.546257175150746"><ele>264.0</ele><time>2026-04-11T03:23:57.999Z</time></trkpt><trkpt lat="43.26443599779281" lon="11.546120064094898"><ele>264.0</ele><time>2026-04-11T03:23:59.999Z</time></trkpt><trkpt lat="43.26448244276798" lon="11.545971713409884"><ele>266.4</ele><time>2026-04-11T03:24:01.999Z</time></trkpt><trkpt lat="43.2645128683611" lon="11.545824939197393"><ele>268.79999999999995</ele><time>2026-04-11T03:24:03.999Z</time></trkpt><trkpt lat="43.26453583119181" lon="11.545698672123294"><ele>271.20000000000005</ele><time>2026-04-11T03:24:05.999Z</time></trkpt><trkpt lat="43.2645535912889" lon="11.545570254701621"><ele>273.6</ele><time>2026-04-11T03:24:07.999Z</time></trkpt><trkpt lat="43.2645774524365" lon="11.545446431808337"><ele>276.0</ele><time>2026-04-11T03:24:09.999Z</time></trkpt><trkpt lat="43.26459436215451" lon="11.545315074650137"><ele>276.2</ele><time>2026-04-11T03:24:11.999Z</time></trkpt><trkpt lat="43.26463323276531" lon="11.54510551146984"><ele>276.40000000000003</ele><time>2026-04-11T03:24:14.999Z</time></trkpt><trkpt lat="43.26465114396379" lon="11.544957261581496"><ele>276.6</ele><time>2026-04-11T03:24:16.999Z</time></trkpt><trkpt lat="43.26467732864435" lon="11.544873622470428"><ele>276.8</ele><time>2026-04-11T03:24:17.999Z</time></trkpt><trkpt lat="43.26469194611367" lon="11.54478606248175"><ele>277.0</ele><time>2026-04-11T03:24:18.999Z</time></trkpt><trkpt lat="43.26471092677382" lon="11.544703368102335"><ele>277.0</ele><time>2026-04-11T03:24:19.999Z</time></trkpt><trkpt lat="43.26476615883333" lon="11.544558109254599"><ele>277.0</ele><time>2026-04-11T03:24:21.999Z</time></trkpt><trkpt lat="43.26480142784751" lon="11.544480149578883"><ele>277.0</ele><time>2026-04-11T03:24:22.999Z</time></trkpt><trkpt lat="43.26483983728334" lon="11.544402505051393"><ele>277.0</ele><time>2026-04-11T03:24:23.999Z</time></trkpt><trkpt lat="43.26487040234307" lon="11.544315350596248"><ele>277.0</ele><time>2026-04-11T03:24:24.999Z</time></trkpt><trkpt lat="43.26491895629361" lon="11.544237011407686"><ele>277.0</ele><time>2026-04-11T03:24:25.999Z</time></trkpt><trkpt lat="43.264965991872266" lon="11.544156247964967"><ele>272.2</ele><time>2026-04-11T03:24:27Z</time></trkpt><trkpt lat="43.26501448043656" lon="11.544059014175563"><ele>267.4</ele><time>2026-04-11T03:24:28Z</time></trkpt><trkpt lat="43.26506229954729" lon="11.54393570755662"><ele>262.6</ele><time>2026-04-11T03:24:29Z</time></trkpt><trkpt lat="43.26510087445976" lon="11.543814805221459"><ele>257.8</ele><time>2026-04-11T03:24:30Z</time></trkpt><trkpt lat="43.265154151166186" lon="11.543710975393145"><ele>253.0</ele><time>2026-04-11T03:24:31Z</time></trkpt><trkpt lat="43.2651906136962" lon="11.543593956533583"><ele>251.2</ele><time>2026-04-11T03:24:32Z</time></trkpt><trkpt lat="43.26522240562519" lon="11.543480414518896"><ele>249.4</ele><time>2026-04-11T03:24:33Z</time></trkpt><trkpt lat="43.265229679941065" lon="11.543349570483109"><ele>247.59999999999997</ele><time>2026-04-11T03:24:34Z</time></trkpt><trkpt lat="43.26524759331629" lon="11.543211794048517"><ele>245.79999999999998</ele><time>2026-04-11T03:24:35Z</time></trkpt><trkpt lat="43.26524683008346" lon="11.543061119388982"><ele>244.0</ele><time>2026-04-11T03:24:36Z</time></trkpt><trkpt lat="43.26521533153934" lon="11.542905904731136"><ele>242.6</ele><time>2026-04-11T03:24:37Z</time></trkpt><trkpt lat="43.26520194705467" lon="11.542756774789696"><ele>241.2</ele><time>2026-04-11T03:24:38Z</time></trkpt><trkpt lat="43.26520037418419" lon="11.542610122602763"><ele>239.79999999999998</ele><time>2026-04-11T03:24:39Z</time></trkpt><trkpt lat="43.26522683439355" lon="11.542482460434517"><ele>238.39999999999998</ele><time>2026-04-11T03:24:40Z</time></trkpt><trkpt lat="43.26525684130621" lon="11.542363246196109"><ele>237.0</ele><time>2026-04-11T03:24:41Z</time></trkpt><trkpt lat="43.26529536989434" lon="11.54226641527517"><ele>237.0</ele><time>2026-04-11T03:24:42Z</time></trkpt><trkpt lat="43.26532775363947" lon="11.542178189180659"><ele>237.0</ele><time>2026-04-11T03:24:43Z</time></trkpt><trkpt lat="43.265354994349366" lon="11.542098717424176"><ele>237.0</ele><time>2026-04-11T03:24:44Z</time></trkpt><trkpt lat="43.265390319803004" lon="11.541952460266389"><ele>237.0</ele><time>2026-04-11T03:24:46Z</time></trkpt><trkpt lat="43.26542993234597" lon="11.541811715827807"><ele>237.0</ele><time>2026-04-11T03:24:48Z</time></trkpt><trkpt lat="43.26546547303146" lon="11.54166484018477"><ele>237.2</ele><time>2026-04-11T03:24:50Z</time></trkpt><trkpt lat="43.265504354832466" lon="11.541529488224938"><ele>237.39999999999998</ele><time>2026-04-11T03:24:52Z</time></trkpt><trkpt lat="43.265506759340425" lon="11.541388294053975"><ele>237.60000000000002</ele><time>2026-04-11T03:24:54Z</time></trkpt><trkpt lat="43.26552205265036" lon="11.541260263048809"><ele>237.8</ele><time>2026-04-11T03:24:56Z</time></trkpt><trkpt lat="43.26555059159741" lon="11.541137628692953"><ele>238.0</ele><time>2026-04-11T03:24:58Z</time></trkpt><trkpt lat="43.26555795923871" lon="11.541021697446501"><ele>238.0</ele><time>2026-04-11T03:25:00Z</time></trkpt><trkpt lat="43.26556467786338" lon="11.54091489222392"><ele>238.0</ele><time>2026-04-11T03:25:02Z</time></trkpt><trkpt lat="43.26557307988523" lon="11.540809797786917"><ele>238.0</ele><time>2026-04-11T03:25:04Z</time></trkpt><trkpt lat="43.26558781454574" lon="11.540710181955003"><ele>238.0</ele><time>2026-04-11T03:25:06Z</time></trkpt><trkpt lat="43.26561547016652" lon="11.540616481148065"><ele>238.0</ele><time>2026-04-11T03:25:08Z</time></trkpt><trkpt lat="43.265650050930766" lon="11.540540308298542"><ele>238.0</ele><time>2026-04-11T03:25:10Z</time></trkpt><trkpt lat="43.265692427444044" lon="11.540463320294377"><ele>238.0</ele><time>2026-04-11T03:25:12Z</time></trkpt><trkpt lat="43.265740557206634" lon="11.54037194021636"><ele>239.8</ele><time>2026-04-11T03:25:14Z</time></trkpt><trkpt lat="43.26584431168114" lon="11.540226329738399"><ele>241.60000000000002</ele><time>2026-04-11T03:25:16Z</time></trkpt><trkpt lat="43.26590401272798" lon="11.54013231104338"><ele>243.39999999999998</ele><time>2026-04-11T03:25:17Z</time></trkpt><trkpt lat="43.265966760550654" lon="11.540066667054697"><ele>245.2</ele><time>2026-04-11T03:25:18Z</time></trkpt><trkpt lat="43.26600868261076" lon="11.539971957297412"><ele>247.0</ele><time>2026-04-11T03:25:19Z</time></trkpt><trkpt lat="43.266065734443266" lon="11.539891428108787"><ele>246.99999999999997</ele><time>2026-04-11T03:25:20Z</time></trkpt><trkpt lat="43.26612147256044" lon="11.539806994219278"><ele>247.0</ele><time>2026-04-11T03:25:21Z</time></trkpt><trkpt lat="43.26617208507881" lon="11.539732863360697"><ele>247.0</ele><time>2026-04-11T03:25:22Z</time></trkpt><trkpt lat="43.266217126083056" lon="11.539664676566803"><ele>247.0</ele><time>2026-04-11T03:25:23Z</time></trkpt><trkpt lat="43.26626436442129" lon="11.539590852559408"><ele>246.99999999999997</ele><time>2026-04-11T03:25:24Z</time></trkpt><trkpt lat="43.266310663977194" lon="11.539508263632541"><ele>247.0</ele><time>2026-04-11T03:25:25Z</time></trkpt><trkpt lat="43.26635792341097" lon="11.539411342648442"><ele>247.83333333333331</ele><time>2026-04-11T03:25:26Z</time></trkpt><trkpt lat="43.26640324101322" lon="11.539310364884557"><ele>248.66666666666666</ele><time>2026-04-11T03:25:27Z</time></trkpt><trkpt lat="43.26646449525939" lon="11.539234996853494"><ele>249.5</ele><time>2026-04-11T03:25:28Z</time></trkpt><trkpt lat="43.26651128684082" lon="11.539162003269656"><ele>250.33333333333331</ele><time>2026-04-11T03:25:29Z</time></trkpt><trkpt lat="43.26656527430391" lon="11.539103460074957"><ele>251.16666666666666</ele><time>2026-04-11T03:25:30Z</time></trkpt><trkpt lat="43.26667758932607" lon="11.539023897083837"><ele>252.0</ele><time>2026-04-11T03:25:32Z</time></trkpt><trkpt lat="43.2668008124957" lon="11.538971105075957"><ele>251.0</ele><time>2026-04-11T03:25:34Z</time></trkpt><trkpt lat="43.26686755610562" lon="11.538935241567398"><ele>250.0</ele><time>2026-04-11T03:25:34.999Z</time></trkpt><trkpt lat="43.2669322194477" lon="11.538874137583585"><ele>249.0</ele><time>2026-04-11T03:25:35.999Z</time></trkpt><trkpt lat="43.267007345536186" lon="11.53883028452157"><ele>248.0</ele><time>2026-04-11T03:25:36.999Z</time></trkpt><trkpt lat="43.267086410398" lon="11.538781404802355"><ele>247.0</ele><time>2026-04-11T03:25:37.999Z</time></trkpt><trkpt lat="43.267161001513955" lon="11.538731901072929"><ele>246.0</ele><time>2026-04-11T03:25:38.999Z</time></trkpt><trkpt lat="43.26724490707933" lon="11.538701570231792"><ele>243.83333333333334</ele><time>2026-04-11T03:25:39.999Z</time></trkpt><trkpt lat="43.2673233281096" lon="11.53864940857378"><ele>241.66666666666669</ele><time>2026-04-11T03:25:40.999Z</time></trkpt><trkpt lat="43.26739845985076" lon="11.53859860412227"><ele>239.5</ele><time>2026-04-11T03:25:41.999Z</time></trkpt><trkpt lat="43.267472717247" lon="11.538547378014547"><ele>237.33333333333334</ele><time>2026-04-11T03:25:42.999Z</time></trkpt><trkpt lat="43.26754932667489" lon="11.538494359418213"><ele>235.16666666666669</ele><time>2026-04-11T03:25:43.999Z</time></trkpt><trkpt lat="43.267623664415964" lon="11.53844291299317"><ele>233.0</ele><time>2026-04-11T03:25:44.999Z</time></trkpt><trkpt lat="43.26768484043972" lon="11.53840057529436"><ele>233.00000000000003</ele><time>2026-04-11T03:25:45.999Z</time></trkpt><trkpt lat="43.26779915997118" lon="11.538321201918313"><ele>233.0</ele><time>2026-04-11T03:25:47.999Z</time></trkpt><trkpt lat="43.267866136550225" lon="11.538273433614329"><ele>233.0</ele><time>2026-04-11T03:25:48.999Z</time></trkpt><trkpt lat="43.267935337866646" lon="11.538224078599981"><ele>233.0</ele><time>2026-04-11T03:25:49.999Z</time></trkpt><trkpt lat="43.268004512648055" lon="11.53817474249929"><ele>233.00000000000003</ele><time>2026-04-11T03:25:50.999Z</time></trkpt><trkpt lat="43.26807236041194" lon="11.538124876843023"><ele>233.0</ele><time>2026-04-11T03:25:51.999Z</time></trkpt><trkpt lat="43.268143867698235" lon="11.538072105092441"><ele>230.83333333333334</ele><time>2026-04-11T03:25:52.999Z</time></trkpt><trkpt lat="43.268213288848266" lon="11.538020872899127"><ele>228.66666666666669</ele><time>2026-04-11T03:25:53.999Z</time></trkpt><trkpt lat="43.268283984842085" lon="11.53796869988092"><ele>226.5</ele><time>2026-04-11T03:25:54.999Z</time></trkpt><trkpt lat="43.26835097159557" lon="11.537899192327512"><ele>224.33333333333331</ele><time>2026-04-11T03:25:55.999Z</time></trkpt><trkpt lat="43.26842844846475" lon="11.537847844714472"><ele>222.16666666666666</ele><time>2026-04-11T03:25:56.999Z</time></trkpt><trkpt lat="43.26850165597866" lon="11.537793335596485"><ele>220.0</ele><time>2026-04-11T03:25:57.999Z</time></trkpt><trkpt lat="43.26857459343158" lon="11.53774289256061"><ele>219.49999999999997</ele><time>2026-04-11T03:25:58.999Z</time></trkpt><trkpt lat="43.26865274863828" lon="11.537707593289166"><ele>219.0</ele><time>2026-04-11T03:25:59.999Z</time></trkpt><trkpt lat="43.26873770164877" lon="11.537690381765115"><ele>218.5</ele><time>2026-04-11T03:26:00.999Z</time></trkpt><trkpt lat="43.26882400617252" lon="11.53769483179769"><ele>218.0</ele><time>2026-04-11T03:26:01.999Z</time></trkpt><trkpt lat="43.268899805979835" lon="11.537717367708114"><ele>217.49999999999997</ele><time>2026-04-11T03:26:02.999Z</time></trkpt><trkpt lat="43.26896334408147" lon="11.537767854348772"><ele>217.0</ele><time>2026-04-11T03:26:03.999Z</time></trkpt><trkpt lat="43.26902718143666" lon="11.53779586037259"><ele>214.66666666666666</ele><time>2026-04-11T03:26:04.999Z</time></trkpt><trkpt lat="43.2690918704796" lon="11.537820239101356"><ele>212.33333333333331</ele><time>2026-04-11T03:26:05.999Z</time></trkpt><trkpt lat="43.269168262384106" lon="11.537819468174455"><ele>210.0</ele><time>2026-04-11T03:26:06.999Z</time></trkpt><trkpt lat="43.269245494007485" lon="11.537828179046134"><ele>207.66666666666669</ele><time>2026-04-11T03:26:07.999Z</time></trkpt><trkpt lat="43.269325322093565" lon="11.537829032504098"><ele>205.33333333333334</ele><time>2026-04-11T03:26:08.999Z</time></trkpt><trkpt lat="43.269408979040016" lon="11.537819894161093"><ele>203.0</ele><time>2026-04-11T03:26:09.999Z</time></trkpt><trkpt lat="43.269492394626816" lon="11.537800844213209"><ele>203.00000000000003</ele><time>2026-04-11T03:26:10.999Z</time></trkpt><trkpt lat="43.2695714670858" lon="11.53777462364598"><ele>203.0</ele><time>2026-04-11T03:26:11.999Z</time></trkpt><trkpt lat="43.26965174815948" lon="11.53774289224714"><ele>203.0</ele><time>2026-04-11T03:26:12.999Z</time></trkpt><trkpt lat="43.269731449259005" lon="11.537699942567514"><ele>203.0</ele><time>2026-04-11T03:26:13.999Z</time></trkpt><trkpt lat="43.2698083817693" lon="11.537653439873486"><ele>203.00000000000003</ele><time>2026-04-11T03:26:14.999Z</time></trkpt><trkpt lat="43.269884076144386" lon="11.53760497024798"><ele>203.0</ele><time>2026-04-11T03:26:15.999Z</time></trkpt><trkpt lat="43.269961991579905" lon="11.53756771316148"><ele>200.83333333333334</ele><time>2026-04-11T03:26:16.999Z</time></trkpt><trkpt lat="43.27005036282245" lon="11.53754798083165"><ele>198.66666666666669</ele><time>2026-04-11T03:26:17.999Z</time></trkpt><trkpt lat="43.27013811938599" lon="11.5375805951563"><ele>196.5</ele><time>2026-04-11T03:26:18.999Z</time></trkpt><trkpt lat="43.27021656131016" lon="11.537613721455964"><ele>194.33333333333334</ele><time>2026-04-11T03:26:19.999Z</time></trkpt><trkpt lat="43.27029560226798" lon="11.537655149289867"><ele>192.16666666666669</ele><time>2026-04-11T03:26:20.999Z</time></trkpt><trkpt lat="43.27037937166448" lon="11.537685551243863"><ele>190.0</ele><time>2026-04-11T03:26:21.999Z</time></trkpt><trkpt lat="43.270470875367735" lon="11.53768400431415"><ele>190.0</ele><time>2026-04-11T03:26:22.999Z</time></trkpt><trkpt lat="43.27055550823559" lon="11.53769893880275"><ele>190.0</ele><time>2026-04-11T03:26:23.999Z</time></trkpt><trkpt lat="43.27062468951753" lon="11.537735156248242"><ele>190.0</ele><time>2026-04-11T03:26:24.999Z</time></trkpt><trkpt lat="43.270692875401615" lon="11.537741361295431"><ele>190.0</ele><time>2026-04-11T03:26:25.999Z</time></trkpt><trkpt lat="43.27076586722206" lon="11.53778895308262"><ele>190.0</ele><time>2026-04-11T03:26:26.999Z</time></trkpt><trkpt lat="43.270847978533894" lon="11.53784661410182"><ele>190.0</ele><time>2026-04-11T03:26:27.999Z</time></trkpt><trkpt lat="43.27093305483774" lon="11.537911940143024"><ele>188.83333333333334</ele><time>2026-04-11T03:26:28.999Z</time></trkpt><trkpt lat="43.27101766060711" lon="11.53798475110521"><ele>187.66666666666669</ele><time>2026-04-11T03:26:29.999Z</time></trkpt><trkpt lat="43.27107686274151" lon="11.538086813951455"><ele>186.5</ele><time>2026-04-11T03:26:30.999Z</time></trkpt><trkpt lat="43.27113455387359" lon="11.5381769404333"><ele>185.33333333333334</ele><time>2026-04-11T03:26:31.999Z</time></trkpt><trkpt lat="43.271186577026135" lon="11.538269553756736"><ele>184.16666666666666</ele><time>2026-04-11T03:26:33Z</time></trkpt><trkpt lat="43.271232189035324" lon="11.538362295934"><ele>183.0</ele><time>2026-04-11T03:26:34Z</time></trkpt><trkpt lat="43.271271819739354" lon="11.53844905058614"><ele>183.0</ele><time>2026-04-11T03:26:35Z</time></trkpt><trkpt lat="43.271305868028435" lon="11.538525506965016"><ele>183.0</ele><time>2026-04-11T03:26:36Z</time></trkpt><trkpt lat="43.271357336036296" lon="11.53864466753148"><ele>183.0</ele><time>2026-04-11T03:26:38Z</time></trkpt><trkpt lat="43.271398740567676" lon="11.538741193037254"><ele>183.0</ele><time>2026-04-11T03:26:40Z</time></trkpt><trkpt lat="43.271433523828286" lon="11.538823297961814"><ele>183.0</ele><time>2026-04-11T03:26:42Z</time></trkpt><trkpt lat="43.271478401618204" lon="11.538887955876142"><ele>183.0</ele><time>2026-04-11T03:26:44Z</time></trkpt><trkpt lat="43.27152036838304" lon="11.5389988986698"><ele>183.66666666666666</ele><time>2026-04-11T03:26:47Z</time></trkpt><trkpt lat="43.27155911236285" lon="11.539102937409401"><ele>184.33333333333334</ele><time>2026-04-11T03:26:50Z</time></trkpt><trkpt lat="43.27159800621756" lon="11.5391979813462"><ele>185.0</ele><time>2026-04-11T03:26:53Z</time></trkpt><trkpt lat="43.27163632184423" lon="11.539284298879773"><ele>185.66666666666669</ele><time>2026-04-11T03:26:56Z</time></trkpt><trkpt lat="43.27166576658916" lon="11.539374052301694"><ele>186.33333333333334</ele><time>2026-04-11T03:26:59Z</time></trkpt><trkpt lat="43.271703753157546" lon="11.539461409724272"><ele>187.0</ele><time>2026-04-11T03:27:02Z</time></trkpt><trkpt lat="43.271738705927596" lon="11.539539094785143"><ele>187.33333333333334</ele><time>2026-04-11T03:27:05Z</time></trkpt><trkpt lat="43.27176846211051" lon="11.539628666979553"><ele>187.66666666666669</ele><time>2026-04-11T03:27:08Z</time></trkpt><trkpt lat="43.2718064244422" lon="11.539711676970867"><ele>188.0</ele><time>2026-04-11T03:27:11Z</time></trkpt><trkpt lat="43.27184258044045" lon="11.539799664723263"><ele>188.33333333333334</ele><time>2026-04-11T03:27:14Z</time></trkpt><trkpt lat="43.27188655656" lon="11.539900491120543"><ele>188.66666666666666</ele><time>2026-04-11T03:27:18Z</time></trkpt><trkpt lat="43.271920427710874" lon="11.53999010530579"><ele>189.0</ele><time>2026-04-11T03:27:21Z</time></trkpt><trkpt lat="43.271957173048825" lon="11.540082738884141"><ele>189.0</ele><time>2026-04-11T03:27:24Z</time></trkpt><trkpt lat="43.27199291357829" lon="11.540178250050484"><ele>189.0</ele><time>2026-04-11T03:27:27Z</time></trkpt><trkpt lat="43.27203371152847" lon="11.540277189503612"><ele>189.0</ele><time>2026-04-11T03:27:30Z</time></trkpt><trkpt lat="43.27207031326419" lon="11.540376731687276"><ele>189.0</ele><time>2026-04-11T03:27:33Z</time></trkpt><trkpt lat="43.272108466447655" lon="11.540475673904817"><ele>189.0</ele><time>2026-04-11T03:27:35.999Z</time></trkpt><trkpt lat="43.272146431115665" lon="11.540569891604662"><ele>189.0</ele><time>2026-04-11T03:27:38.999Z</time></trkpt><trkpt lat="43.272182634995175" lon="11.540662978557448"><ele>189.33333333333334</ele><time>2026-04-11T03:27:41.999Z</time></trkpt><trkpt lat="43.27222029541286" lon="11.540753393007044"><ele>189.66666666666666</ele><time>2026-04-11T03:27:44.999Z</time></trkpt><trkpt lat="43.27226143161291" lon="11.540846750473033"><ele>190.0</ele><time>2026-04-11T03:27:47.999Z</time></trkpt><trkpt lat="43.272296953218806" lon="11.540941816345104"><ele>190.33333333333331</ele><time>2026-04-11T03:27:50.999Z</time></trkpt><trkpt lat="43.27233229849801" lon="11.541035091792573"><ele>190.66666666666666</ele><time>2026-04-11T03:27:53.999Z</time></trkpt><trkpt lat="43.27235734053116" lon="11.541130142930859"><ele>191.0</ele><time>2026-04-11T03:27:56.999Z</time></trkpt><trkpt lat="43.27238203215244" lon="11.54123602559325"><ele>192.71428571428572</ele><time>2026-04-11T03:27:59.999Z</time></trkpt><trkpt lat="43.272407953993394" lon="11.541339911347636"><ele>194.42857142857142</ele><time>2026-04-11T03:28:03.999Z</time></trkpt><trkpt lat="43.2724301141038" lon="11.541427793978489"><ele>196.14285714285714</ele><time>2026-04-11T03:28:07.999Z</time></trkpt><trkpt lat="43.272442649345685" lon="11.54151447870436"><ele>197.85714285714286</ele><time>2026-04-11T03:28:11.999Z</time></trkpt><trkpt lat="43.27246553967526" lon="11.541610105136398"><ele>199.57142857142856</ele><time>2026-04-11T03:28:16.999Z</time></trkpt><trkpt lat="43.27247348903378" lon="11.541701734089735"><ele>201.28571428571428</ele><time>2026-04-11T03:28:21.999Z</time></trkpt><trkpt lat="43.272481735904755" lon="11.54179591332344"><ele>203.0</ele><time>2026-04-11T03:28:26.999Z</time></trkpt><trkpt lat="43.27249044930939" lon="11.541894112119236"><ele>203.0</ele><time>2026-04-11T03:28:31.999Z</time></trkpt><trkpt lat="43.27250304313147" lon="11.541994795720791"><ele>203.0</ele><time>2026-04-11T03:28:36.999Z</time></trkpt><trkpt lat="43.272512925032146" lon="11.542089018929776"><ele>203.0</ele><time>2026-04-11T03:28:42Z</time></trkpt><trkpt lat="43.27252026572615" lon="11.54218751642955"><ele>203.0</ele><time>2026-04-11T03:28:47Z</time></trkpt><trkpt lat="43.27253038846016" lon="11.542285995114485"><ele>203.0</ele><time>2026-04-11T03:28:52Z</time></trkpt><trkpt lat="43.272545318227195" lon="11.542379321741024"><ele>203.0</ele><time>2026-04-11T03:28:57Z</time></trkpt><trkpt lat="43.27256583596371" lon="11.542469299336341"><ele>203.0</ele><time>2026-04-11T03:29:02Z</time></trkpt><trkpt lat="43.272577431875675" lon="11.542558349499597"><ele>204.14285714285714</ele><time>2026-04-11T03:29:07Z</time></trkpt><trkpt lat="43.272598699334274" lon="11.542643310653157"><ele>205.28571428571428</ele><time>2026-04-11T03:29:12Z</time></trkpt><trkpt lat="43.27262632227476" lon="11.542732335178787"><ele>206.42857142857144</ele><time>2026-04-11T03:29:18Z</time></trkpt><trkpt lat="43.27264675341953" lon="11.542814194423638"><ele>207.57142857142856</ele><time>2026-04-11T03:29:23Z</time></trkpt><trkpt lat="43.27268618076796" lon="11.542898572217798"><ele>208.71428571428572</ele><time>2026-04-11T03:29:29Z</time></trkpt><trkpt lat="43.272739852004065" lon="11.542962881492185"><ele>209.85714285714286</ele><time>2026-04-11T03:29:34.999Z</time></trkpt><trkpt lat="43.272802857163136" lon="11.542980885279317"><ele>211.0</ele><time>2026-04-11T03:29:39.999Z</time></trkpt><trkpt lat="43.27286639177995" lon="11.542972447185841"><ele>212.28571428571428</ele><time>2026-04-11T03:29:44.999Z</time></trkpt><trkpt lat="43.272929485754894" lon="11.542938173602177"><ele>213.57142857142858</ele><time>2026-04-11T03:29:49.999Z</time></trkpt><trkpt lat="43.2729931967279" lon="11.542916228170888"><ele>214.85714285714283</ele><time>2026-04-11T03:29:54.999Z</time></trkpt><trkpt lat="43.27306055053791" lon="11.542894704705606"><ele>216.14285714285714</ele><time>2026-04-11T03:29:59.999Z</time></trkpt><trkpt lat="43.273124154431606" lon="11.542902758763079"><ele>217.42857142857142</ele><time>2026-04-11T03:30:04.999Z</time></trkpt><trkpt lat="43.273190728934644" lon="11.542944489477637"><ele>218.7142857142857</ele><time>2026-04-11T03:30:10.999Z</time></trkpt><trkpt lat="43.27325506571811" lon="11.542977937047262"><ele>220.0</ele><time>2026-04-11T03:30:16.999Z</time></trkpt><trkpt lat="43.273313370918025" lon="11.543029432673086"><ele>221.7142857142857</ele><time>2026-04-11T03:30:22.999Z</time></trkpt><trkpt lat="43.273376575241734" lon="11.543079152991819"><ele>223.42857142857144</ele><time>2026-04-11T03:30:28.999Z</time></trkpt><trkpt lat="43.2734367049839" lon="11.543124418439128"><ele>225.14285714285717</ele><time>2026-04-11T03:30:34.999Z</time></trkpt><trkpt lat="43.27348936324652" lon="11.54318989797598"><ele>226.85714285714286</ele><time>2026-04-11T03:30:40.999Z</time></trkpt><trkpt lat="43.273547969750986" lon="11.543236832478243"><ele>228.57142857142858</ele><time>2026-04-11T03:30:47Z</time></trkpt><trkpt lat="43.273583937778085" lon="11.54332479902509"><ele>230.2857142857143</ele><time>2026-04-11T03:30:52Z</time></trkpt><trkpt lat="43.27362188073895" lon="11.543401623358212"><ele>232.00000000000003</ele><time>2026-04-11T03:30:56Z</time></trkpt><trkpt lat="43.27365091194418" lon="11.54350740771322"><ele>232.00000000000003</ele><time>2026-04-11T03:31:01Z</time></trkpt><trkpt lat="43.27364292996462" lon="11.543601251802945"><ele>232.0</ele><time>2026-04-11T03:31:05Z</time></trkpt><trkpt lat="43.27363293850435" lon="11.543689353432587"><ele>232.00000000000003</ele><time>2026-04-11T03:31:09Z</time></trkpt><trkpt lat="43.27359502435833" lon="11.543764552350343"><ele>232.00000000000003</ele><time>2026-04-11T03:31:13Z</time></trkpt><trkpt lat="43.27355839433253" lon="11.543840219266361"><ele>232.0</ele><time>2026-04-11T03:31:17Z</time></trkpt><trkpt lat="43.273517981258685" lon="11.543912978767123"><ele>232.00000000000003</ele><time>2026-04-11T03:31:21Z</time></trkpt><trkpt lat="43.27347378968244" lon="11.543974696999664"><ele>232.00000000000003</ele><time>2026-04-11T03:31:25Z</time></trkpt><trkpt lat="43.27342248849205" lon="11.544050952300259"><ele>233.14285714285717</ele><time>2026-04-11T03:31:30Z</time></trkpt><trkpt lat="43.273369741951846" lon="11.54411844733969"><ele>234.28571428571428</ele><time>2026-04-11T03:31:34.999Z</time></trkpt><trkpt lat="43.27332602696039" lon="11.544197689124623"><ele>235.42857142857144</ele><time>2026-04-11T03:31:39.999Z</time></trkpt><trkpt lat="43.27328784739477" lon="11.5442794067316"><ele>236.57142857142858</ele><time>2026-04-11T03:31:44.999Z</time></trkpt><trkpt lat="43.27324247622013" lon="11.544357535453718"><ele>237.71428571428572</ele><time>2026-04-11T03:31:49.999Z</time></trkpt><trkpt lat="43.273208926225614" lon="11.544450963338727"><ele>238.85714285714286</ele><time>2026-04-11T03:31:54.999Z</time></trkpt><trkpt lat="43.273192030306916" lon="11.544552095912286"><ele>240.0</ele><time>2026-04-11T03:31:59.999Z</time></trkpt><trkpt lat="43.27318178818976" lon="11.544642609289058"><ele>240.71428571428572</ele><time>2026-04-11T03:32:03.999Z</time></trkpt><trkpt lat="43.27317609192421" lon="11.544736260060382"><ele>241.42857142857142</ele><time>2026-04-11T03:32:07.999Z</time></trkpt><trkpt lat="43.27317358979312" lon="11.544835145812133"><ele>242.14285714285714</ele><time>2026-04-11T03:32:11.999Z</time></trkpt><trkpt lat="43.273169850010596" lon="11.544937646929371"><ele>242.85714285714286</ele><time>2026-04-11T03:32:15.999Z</time></trkpt><trkpt lat="43.27317141334087" lon="11.545040528743565"><ele>243.57142857142856</ele><time>2026-04-11T03:32:19.999Z</time></trkpt><trkpt lat="43.273172308451365" lon="11.545144113180031"><ele>244.28571428571428</ele><time>2026-04-11T03:32:23.999Z</time></trkpt><trkpt lat="43.273162978697535" lon="11.545247102199454"><ele>245.0</ele><time>2026-04-11T03:32:27.999Z</time></trkpt><trkpt lat="43.27315720825887" lon="11.545344680743952"><ele>246.0</ele><time>2026-04-11T03:32:30.999Z</time></trkpt><trkpt lat="43.27315279211389" lon="11.54543147236096"><ele>247.0</ele><time>2026-04-11T03:32:33.999Z</time></trkpt><trkpt lat="43.27315363616579" lon="11.545547764850834"><ele>248.0</ele><time>2026-04-11T03:32:37.999Z</time></trkpt><trkpt lat="43.27315142683206" lon="11.545636379286968"><ele>249.0</ele><time>2026-04-11T03:32:40.999Z</time></trkpt><trkpt lat="43.27315491552873" lon="11.545745483276114"><ele>250.0</ele><time>2026-04-11T03:32:44.999Z</time></trkpt><trkpt lat="43.2731642281471" lon="11.54583316900045"><ele>251.0</ele><time>2026-04-11T03:32:47.999Z</time></trkpt><trkpt lat="43.27318054080528" lon="11.545944523149311"><ele>252.0</ele><time>2026-04-11T03:32:52Z</time></trkpt><trkpt lat="43.273204261359915" lon="11.546044869312688"><ele>252.0</ele><time>2026-04-11T03:32:56Z</time></trkpt><trkpt lat="43.27322530206243" lon="11.546139777448083"><ele>252.0</ele><time>2026-04-11T03:33:00Z</time></trkpt><trkpt lat="43.273245334165104" lon="11.5462317934127"><ele>252.0</ele><time>2026-04-11T03:33:04Z</time></trkpt><trkpt lat="43.27326315016397" lon="11.546334301522778"><ele>252.0</ele><time>2026-04-11T03:33:08Z</time></trkpt><trkpt lat="43.273294511423664" lon="11.546437939363226"><ele>252.0</ele><time>2026-04-11T03:33:12.999Z</time></trkpt><trkpt lat="43.27333261444711" lon="11.546507548597905"><ele>252.0</ele><time>2026-04-11T03:33:16.999Z</time></trkpt><trkpt lat="43.273365164430714" lon="11.546596799564576"><ele>252.0</ele><time>2026-04-11T03:33:20.999Z</time></trkpt><trkpt lat="43.273401388688676" lon="11.546670346480893"><ele>253.28571428571428</ele><time>2026-04-11T03:33:24.999Z</time></trkpt><trkpt lat="43.27342835773463" lon="11.546749554845082"><ele>254.57142857142856</ele><time>2026-04-11T03:33:27.999Z</time></trkpt><trkpt lat="43.273475910433405" lon="11.546824134384051"><ele>255.85714285714286</ele><time>2026-04-11T03:33:31.999Z</time></trkpt><trkpt lat="43.27351888823062" lon="11.546896659097692"><ele>257.1428571428571</ele><time>2026-04-11T03:33:35.999Z</time></trkpt><trkpt lat="43.2735676088824" lon="11.546967565812555"><ele>258.42857142857144</ele><time>2026-04-11T03:33:39.999Z</time></trkpt><trkpt lat="43.27362278890426" lon="11.54702409518546"><ele>259.7142857142857</ele><time>2026-04-11T03:33:43.999Z</time></trkpt><trkpt lat="43.27368991546178" lon="11.547066132490608"><ele>261.0</ele><time>2026-04-11T03:33:47.999Z</time></trkpt><trkpt lat="43.27375943069454" lon="11.547096385979575"><ele>262.0</ele><time>2026-04-11T03:33:51.999Z</time></trkpt><trkpt lat="43.273833210391764" lon="11.547106996765695"><ele>263.0</ele><time>2026-04-11T03:33:55.999Z</time></trkpt><trkpt lat="43.273900797251045" lon="11.547118590183693"><ele>264.0</ele><time>2026-04-11T03:33:59.999Z</time></trkpt><trkpt lat="43.27396806241687" lon="11.54712540854107"><ele>265.0</ele><time>2026-04-11T03:34:03.999Z</time></trkpt><trkpt lat="43.27403553198097" lon="11.547124674974528"><ele>266.0</ele><time>2026-04-11T03:34:07.999Z</time></trkpt><trkpt lat="43.2740999960369" lon="11.547117948968687"><ele>267.0</ele><time>2026-04-11T03:34:11.999Z</time></trkpt><trkpt lat="43.2741666009157" lon="11.547115692629767"><ele>268.0</ele><time>2026-04-11T03:34:15.999Z</time></trkpt><trkpt lat="43.27423159010068" lon="11.54711716729457"><ele>269.57142857142856</ele><time>2026-04-11T03:34:19.999Z</time></trkpt><trkpt lat="43.274299430138264" lon="11.54710823682189"><ele>271.1428571428571</ele><time>2026-04-11T03:34:23.999Z</time></trkpt><trkpt lat="43.27436653819501" lon="11.547102249170223"><ele>272.71428571428567</ele><time>2026-04-11T03:34:27.999Z</time></trkpt><trkpt lat="43.274436706549174" lon="11.547080717837552"><ele>274.2857142857143</ele><time>2026-04-11T03:34:31.998Z</time></trkpt><trkpt lat="43.2745041368097" lon="11.547081469474865"><ele>275.85714285714283</ele><time>2026-04-11T03:34:35.998Z</time></trkpt><trkpt lat="43.27458268790304" lon="11.547087595062518"><ele>277.4285714285714</ele><time>2026-04-11T03:34:40.998Z</time></trkpt><trkpt lat="43.27464614103008" lon="11.547116592794957"><ele>279.0</ele><time>2026-04-11T03:34:44.998Z</time></trkpt><trkpt lat="43.2747034876274" lon="11.54715785718732"><ele>278.99999999999994</ele><time>2026-04-11T03:34:48.998Z</time></trkpt><trkpt lat="43.274762590680666" lon="11.547195510358726"><ele>279.0</ele><time>2026-04-11T03:34:52.998Z</time></trkpt><trkpt lat="43.2748297623889" lon="11.547249282328027"><ele>279.0</ele><time>2026-04-11T03:34:57.999Z</time></trkpt><trkpt lat="43.2748942613683" lon="11.547302545870439"><ele>279.0</ele><time>2026-04-11T03:35:02.999Z</time></trkpt><trkpt lat="43.27495137601046" lon="11.547354449596373"><ele>279.0</ele><time>2026-04-11T03:35:08Z</time></trkpt><trkpt lat="43.275010556117" lon="11.547418002366795"><ele>278.99999999999994</ele><time>2026-04-11T03:35:14Z</time></trkpt><trkpt lat="43.27506551497629" lon="11.547463226398035"><ele>279.0</ele><time>2026-04-11T03:35:19Z</time></trkpt><trkpt lat="43.27512519164091" lon="11.547508961434234"><ele>279.99999999999994</ele><time>2026-04-11T03:35:25Z</time></trkpt><trkpt lat="43.27519382641336" lon="11.547552183138913"><ele>281.0</ele><time>2026-04-11T03:35:31Z</time></trkpt><trkpt lat="43.27526338391732" lon="11.547603944216235"><ele>282.0</ele><time>2026-04-11T03:35:36.999Z</time></trkpt><trkpt lat="43.27531762603512" lon="11.547659195004783"><ele>283.0</ele><time>2026-04-11T03:35:41.999Z</time></trkpt><trkpt lat="43.27537475156394" lon="11.54771608961635"><ele>284.0</ele><time>2026-04-11T03:35:46.999Z</time></trkpt><trkpt lat="43.27543288899183" lon="11.54776547714038"><ele>284.99999999999994</ele><time>2026-04-11T03:35:51.999Z</time></trkpt><trkpt lat="43.27549504041966" lon="11.547825019030041"><ele>286.0</ele><time>2026-04-11T03:35:56.999Z</time></trkpt><trkpt lat="43.27555297169224" lon="11.547871359314442"><ele>288.1428571428571</ele><time>2026-04-11T03:36:00.999Z</time></trkpt><trkpt lat="43.275617852841016" lon="11.547921576290449"><ele>290.2857142857143</ele><time>2026-04-11T03:36:04.999Z</time></trkpt><trkpt lat="43.27568082465919" lon="11.547956763654375"><ele>292.42857142857144</ele><time>2026-04-11T03:36:07.999Z</time></trkpt><trkpt lat="43.2757411311733" lon="11.547988720117548"><ele>294.57142857142856</ele><time>2026-04-11T03:36:10.999Z</time></trkpt><trkpt lat="43.275818848435605" lon="11.54802503845143"><ele>296.7142857142857</ele><time>2026-04-11T03:36:14.999Z</time></trkpt><trkpt lat="43.275882595974466" lon="11.548057450946088"><ele>298.85714285714283</ele><time>2026-04-11T03:36:17.999Z</time></trkpt><trkpt lat="43.2759517140654" lon="11.548091099191419"><ele>301.0</ele><time>2026-04-11T03:36:20.999Z</time></trkpt><trkpt lat="43.276030530476916" lon="11.54811805020439"><ele>301.0</ele><time>2026-04-11T03:36:23.999Z</time></trkpt><trkpt lat="43.276121613567504" lon="11.548155852598779"><ele>301.0</ele><time>2026-04-11T03:36:26.999Z</time></trkpt><trkpt lat="43.27619762020272" lon="11.548179110877932"><ele>301.0</ele><time>2026-04-11T03:36:28.999Z</time></trkpt><trkpt lat="43.27626407029061" lon="11.548203626234"><ele>301.0</ele><time>2026-04-11T03:36:30.999Z</time></trkpt><trkpt lat="43.27635044162643" lon="11.548232875257279"><ele>301.0</ele><time>2026-04-11T03:36:33.999Z</time></trkpt><trkpt lat="43.27641553562346" lon="11.548251858321748"><ele>301.0</ele><time>2026-04-11T03:36:35.999Z</time></trkpt><trkpt lat="43.276490002193576" lon="11.548298077705939"><ele>299.6</ele><time>2026-04-11T03:36:38.999Z</time></trkpt><trkpt lat="43.2766082310063" lon="11.54836082488508"><ele>298.20000000000005</ele><time>2026-04-11T03:36:40.999Z</time></trkpt><trkpt lat="43.276701970532564" lon="11.548422182238571"><ele>296.79999999999995</ele><time>2026-04-11T03:36:42.999Z</time></trkpt><trkpt lat="43.276801572963166" lon="11.548490845030278"><ele>295.4</ele><time>2026-04-11T03:36:44.999Z</time></trkpt><trkpt lat="43.27685039157703" lon="11.548545696122668"><ele>294.0</ele><time>2026-04-11T03:36:45.999Z</time></trkpt><trkpt lat="43.27691367163123" lon="11.548610945678632"><ele>294.0</ele><time>2026-04-11T03:36:46.999Z</time></trkpt><trkpt lat="43.276964603148734" lon="11.54866698975987"><ele>294.0</ele><time>2026-04-11T03:36:47.999Z</time></trkpt><trkpt lat="43.277020887816114" lon="11.548728999974273"><ele>294.0</ele><time>2026-04-11T03:36:48.999Z</time></trkpt><trkpt lat="43.27708257672519" lon="11.548793066571013"><ele>294.0</ele><time>2026-04-11T03:36:49.999Z</time></trkpt><trkpt lat="43.27714397828004" lon="11.548846682031835"><ele>294.0</ele><time>2026-04-11T03:36:50.999Z</time></trkpt><trkpt lat="43.27720250280214" lon="11.548897839405518"><ele>294.0</ele><time>2026-04-11T03:36:51.999Z</time></trkpt><trkpt lat="43.27726315101086" lon="11.548943176175598"><ele>294.0</ele><time>2026-04-11T03:36:52.999Z</time></trkpt><trkpt lat="43.2773630514437" lon="11.549032385379789"><ele>293.0</ele><time>2026-04-11T03:36:54.999Z</time></trkpt><trkpt lat="43.277463541746286" lon="11.549110898538547"><ele>292.0</ele><time>2026-04-11T03:36:56.999Z</time></trkpt><trkpt lat="43.27756672426386" lon="11.549210200500516"><ele>291.0</ele><time>2026-04-11T03:36:58.999Z</time></trkpt><trkpt lat="43.27762636644596" lon="11.549267363851628"><ele>290.0</ele><time>2026-04-11T03:36:59.999Z</time></trkpt><trkpt lat="43.27769404040203" lon="11.549329704690471"><ele>289.0</ele><time>2026-04-11T03:37:00.999Z</time></trkpt><trkpt lat="43.277757127080704" lon="11.549376564634198"><ele>289.0</ele><time>2026-04-11T03:37:02Z</time></trkpt><trkpt lat="43.27782592466936" lon="11.549417580030422"><ele>289.0</ele><time>2026-04-11T03:37:03Z</time></trkpt><trkpt lat="43.27789643945402" lon="11.549437175637122"><ele>289.0</ele><time>2026-04-11T03:37:04Z</time></trkpt><trkpt lat="43.277983351011464" lon="11.549422986615092"><ele>289.0</ele><time>2026-04-11T03:37:05Z</time></trkpt><trkpt lat="43.2780625217601" lon="11.549444790006596"><ele>289.0</ele><time>2026-04-11T03:37:06Z</time></trkpt><trkpt lat="43.278144834768504" lon="11.549445769213778"><ele>289.0</ele><time>2026-04-11T03:37:07Z</time></trkpt><trkpt lat="43.27822768646728" lon="11.549446757553492"><ele>286.5</ele><time>2026-04-11T03:37:08Z</time></trkpt><trkpt lat="43.27831540106916" lon="11.549447803905164"><ele>284.0</ele><time>2026-04-11T03:37:09Z</time></trkpt><trkpt lat="43.27840669817391" lon="11.549430061961989"><ele>281.5</ele><time>2026-04-11T03:37:10Z</time></trkpt><trkpt lat="43.27849081693325" lon="11.549435922886671"><ele>279.0</ele><time>2026-04-11T03:37:11Z</time></trkpt><trkpt lat="43.27857612270918" lon="11.549439928717538"><ele>276.5</ele><time>2026-04-11T03:37:12Z</time></trkpt><trkpt lat="43.278664163669575" lon="11.549441223663793"><ele>274.0</ele><time>2026-04-11T03:37:13Z</time></trkpt><trkpt lat="43.2787525876702" lon="11.54944885668378"><ele>274.00000000000006</ele><time>2026-04-11T03:37:14Z</time></trkpt><trkpt lat="43.27883446410203" lon="11.549467287663687"><ele>274.0</ele><time>2026-04-11T03:37:15Z</time></trkpt><trkpt lat="43.278909397966395" lon="11.549497479064408"><ele>274.0</ele><time>2026-04-11T03:37:16Z</time></trkpt><trkpt lat="43.2789655795057" lon="11.549539862146686"><ele>274.0</ele><time>2026-04-11T03:37:17Z</time></trkpt><trkpt lat="43.27901961904609" lon="11.54958555980443"><ele>274.0</ele><time>2026-04-11T03:37:18Z</time></trkpt><trkpt lat="43.27907848832534" lon="11.549627950731484"><ele>274.00000000000006</ele><time>2026-04-11T03:37:19Z</time></trkpt><trkpt lat="43.27914269909378" lon="11.54967330420381"><ele>274.0</ele><time>2026-04-11T03:37:20Z</time></trkpt><trkpt lat="43.279211529492365" lon="11.549721663825805"><ele>273.66666666666663</ele><time>2026-04-11T03:37:21Z</time></trkpt><trkpt lat="43.27928688161746" lon="11.549772605581703"><ele>273.3333333333333</ele><time>2026-04-11T03:37:22Z</time></trkpt><trkpt lat="43.279366381241786" lon="11.54982206809205"><ele>273.0</ele><time>2026-04-11T03:37:23Z</time></trkpt><trkpt lat="43.27945004095983" lon="11.549865515434883"><ele>272.6666666666667</ele><time>2026-04-11T03:37:24Z</time></trkpt><trkpt lat="43.279535469212824" lon="11.549897683015782"><ele>272.33333333333337</ele><time>2026-04-11T03:37:25Z</time></trkpt><trkpt lat="43.279620899823485" lon="11.549921783023374"><ele>272.0</ele><time>2026-04-11T03:37:26Z</time></trkpt><trkpt lat="43.27970181769908" lon="11.549931594921443"><ele>271.5</ele><time>2026-04-11T03:37:27Z</time></trkpt><trkpt lat="43.279775762399055" lon="11.549927245309684"><ele>271.0</ele><time>2026-04-11T03:37:28Z</time></trkpt><trkpt lat="43.27984232665996" lon="11.54994468015029"><ele>270.5</ele><time>2026-04-11T03:37:29Z</time></trkpt><trkpt lat="43.27996513495274" lon="11.549927698653287"><ele>270.0</ele><time>2026-04-11T03:37:31Z</time></trkpt><trkpt lat="43.280029475464616" lon="11.54988561476924"><ele>269.5</ele><time>2026-04-11T03:37:32Z</time></trkpt><trkpt lat="43.280097586343224" lon="11.549864265389859"><ele>269.0</ele><time>2026-04-11T03:37:33Z</time></trkpt><trkpt lat="43.28016460935815" lon="11.54983368039449"><ele>269.0</ele><time>2026-04-11T03:37:34Z</time></trkpt><trkpt lat="43.28022220730578" lon="11.549795911492078"><ele>269.0</ele><time>2026-04-11T03:37:35Z</time></trkpt><trkpt lat="43.280318560389595" lon="11.549728531475026"><ele>269.0</ele><time>2026-04-11T03:37:37Z</time></trkpt><trkpt lat="43.28039733136617" lon="11.549683163972004"><ele>269.0</ele><time>2026-04-11T03:37:39Z</time></trkpt><trkpt lat="43.28046243558448" lon="11.549640654680864"><ele>269.0</ele><time>2026-04-11T03:37:40.999Z</time></trkpt><trkpt lat="43.280530067285596" lon="11.549592159166039"><ele>269.0</ele><time>2026-04-11T03:37:43.999Z</time></trkpt><trkpt lat="43.280587586930004" lon="11.54954770527253"><ele>270.7142857142857</ele><time>2026-04-11T03:37:46.999Z</time></trkpt><trkpt lat="43.28064805791675" lon="11.549475869601222"><ele>272.42857142857144</ele><time>2026-04-11T03:37:50.999Z</time></trkpt><trkpt lat="43.2807066370567" lon="11.54939659543155"><ele>274.14285714285717</ele><time>2026-04-11T03:37:54.999Z</time></trkpt><trkpt lat="43.280754382466384" lon="11.549324341074854"><ele>275.8571428571429</ele><time>2026-04-11T03:37:58.999Z</time></trkpt><trkpt lat="43.28079836328111" lon="11.549236141043364"><ele>277.57142857142856</ele><time>2026-04-11T03:38:03.999Z</time></trkpt><trkpt lat="43.280839454035686" lon="11.54916744195231"><ele>279.28571428571433</ele><time>2026-04-11T03:38:08.999Z</time></trkpt><trkpt lat="43.28087740711759" lon="11.549085212585448"><ele>281.0</ele><time>2026-04-11T03:38:13.999Z</time></trkpt><trkpt lat="43.28091861785219" lon="11.549009676257057"><ele>281.00000000000006</ele><time>2026-04-11T03:38:18.999Z</time></trkpt><trkpt lat="43.28096505270067" lon="11.548948368363426"><ele>281.0</ele><time>2026-04-11T03:38:23.999Z</time></trkpt><trkpt lat="43.281011694713065" lon="11.548883961917946"><ele>281.0</ele><time>2026-04-11T03:38:28.999Z</time></trkpt><trkpt lat="43.28106006440866" lon="11.548815562567622"><ele>281.0</ele><time>2026-04-11T03:38:33.999Z</time></trkpt><trkpt lat="43.28112046782676" lon="11.548755408737998"><ele>281.0</ele><time>2026-04-11T03:38:38.999Z</time></trkpt><trkpt lat="43.2811840474979" lon="11.548698713291824"><ele>281.00000000000006</ele><time>2026-04-11T03:38:43.999Z</time></trkpt><trkpt lat="43.28122967100245" lon="11.548636795493277"><ele>281.0</ele><time>2026-04-11T03:38:47.999Z</time></trkpt><trkpt lat="43.28128483693702" lon="11.548577327398672"><ele>280.8571428571429</ele><time>2026-04-11T03:38:51.999Z</time></trkpt><trkpt lat="43.2813413761133" lon="11.548533547122487"><ele>280.7142857142857</ele><time>2026-04-11T03:38:55.999Z</time></trkpt><trkpt lat="43.28139764951392" lon="11.548476161389837"><ele>280.57142857142856</ele><time>2026-04-11T03:38:59.999Z</time></trkpt><trkpt lat="43.28144629851719" lon="11.548405500592574"><ele>280.42857142857144</ele><time>2026-04-11T03:39:03.999Z</time></trkpt><trkpt lat="43.2815017487518" lon="11.548345810288179"><ele>280.2857142857143</ele><time>2026-04-11T03:39:08Z</time></trkpt><trkpt lat="43.28155567347992" lon="11.54829505106506"><ele>280.14285714285717</ele><time>2026-04-11T03:39:12Z</time></trkpt><trkpt lat="43.28161027316618" lon="11.54824650013138"><ele>280.0</ele><time>2026-04-11T03:39:16Z</time></trkpt><trkpt lat="43.281672764158245" lon="11.548192407318242"><ele>283.0</ele><time>2026-04-11T03:39:20Z</time></trkpt><trkpt lat="43.28173204040376" lon="11.548161026100901"><ele>286.0</ele><time>2026-04-11T03:39:24Z</time></trkpt><trkpt lat="43.281795135612384" lon="11.548135071354436"><ele>289.0</ele><time>2026-04-11T03:39:28Z</time></trkpt><trkpt lat="43.281874742427995" lon="11.548130133252007"><ele>292.0</ele><time>2026-04-11T03:39:32Z</time></trkpt><trkpt lat="43.28194026915275" lon="11.548136197253195"><ele>295.0</ele><time>2026-04-11T03:39:35Z</time></trkpt><trkpt lat="43.28201486135193" lon="11.548175643008719"><ele>298.0</ele><time>2026-04-11T03:39:39Z</time></trkpt><trkpt lat="43.282072553178935" lon="11.548218523892782"><ele>301.0</ele><time>2026-04-11T03:39:43Z</time></trkpt><trkpt lat="43.282133873039704" lon="11.548153389522792"><ele>301.0</ele><time>2026-04-11T03:42:41.999Z</time></trkpt><trkpt lat="43.282234625329096" lon="11.548147794947331"><ele>301.0</ele><time>2026-04-11T03:42:44.999Z</time></trkpt><trkpt lat="43.28232016841413" lon="11.548159585382589"><ele>301.0</ele><time>2026-04-11T03:42:46.999Z</time></trkpt><trkpt lat="43.28240206581761" lon="11.548162917968241"><ele>301.0</ele><time>2026-04-11T03:42:48.999Z</time></trkpt><trkpt lat="43.28249040438739" lon="11.548175133189115"><ele>301.0</ele><time>2026-04-11T03:42:50.999Z</time></trkpt><trkpt lat="43.28258728391381" lon="11.548188546779532"><ele>302.40000000000003</ele><time>2026-04-11T03:42:52.999Z</time></trkpt><trkpt lat="43.28268846041039" lon="11.548213106185129"><ele>303.8</ele><time>2026-04-11T03:42:54.999Z</time></trkpt><trkpt lat="43.28279064837762" lon="11.548252521730365"><ele>305.20000000000005</ele><time>2026-04-11T03:42:56.999Z</time></trkpt><trkpt lat="43.28289221321078" lon="11.548306257162357"><ele>306.6</ele><time>2026-04-11T03:42:58.999Z</time></trkpt><trkpt lat="43.28298708250725" lon="11.548366480070932"><ele>308.0</ele><time>2026-04-11T03:43:00.999Z</time></trkpt><trkpt lat="43.28308522395389" lon="11.548438992843767"><ele>309.6</ele><time>2026-04-11T03:43:02.999Z</time></trkpt><trkpt lat="43.28318478632104" lon="11.54853486232745"><ele>311.20000000000005</ele><time>2026-04-11T03:43:04.999Z</time></trkpt><trkpt lat="43.28328446987635" lon="11.548617225609306"><ele>312.8</ele><time>2026-04-11T03:43:06.999Z</time></trkpt><trkpt lat="43.283340763680506" lon="11.548660555145423"><ele>314.40000000000003</ele><time>2026-04-11T03:43:07.999Z</time></trkpt><trkpt lat="43.28344905464805" lon="11.548722910224637"><ele>316.0</ele><time>2026-04-11T03:43:09.999Z</time></trkpt><trkpt lat="43.28356146583164" lon="11.548777818865277"><ele>316.0</ele><time>2026-04-11T03:43:11.999Z</time></trkpt><trkpt lat="43.28368472797652" lon="11.5488109283307"><ele>316.0</ele><time>2026-04-11T03:43:13.999Z</time></trkpt><trkpt lat="43.2837510295151" lon="11.548828606239548"><ele>316.0</ele><time>2026-04-11T03:43:14.999Z</time></trkpt><trkpt lat="43.28381751983069" lon="11.548843621362627"><ele>316.0</ele><time>2026-04-11T03:43:15.999Z</time></trkpt><trkpt lat="43.28388557583415" lon="11.548852902809616"><ele>316.0</ele><time>2026-04-11T03:43:16.999Z</time></trkpt><trkpt lat="43.283958051500264" lon="11.548862061632983"><ele>316.0</ele><time>2026-04-11T03:43:17.999Z</time></trkpt><trkpt lat="43.28402800221808" lon="11.548862648099156"><ele>313.28571428571433</ele><time>2026-04-11T03:43:18.999Z</time></trkpt><trkpt lat="43.28409185796202" lon="11.548841284898536"><ele>310.57142857142856</ele><time>2026-04-11T03:43:20Z</time></trkpt><trkpt lat="43.284157800808394" lon="11.54880997554296"><ele>307.8571428571429</ele><time>2026-04-11T03:43:21Z</time></trkpt><trkpt lat="43.284220058804124" lon="11.548766026095286"><ele>305.14285714285717</ele><time>2026-04-11T03:43:22Z</time></trkpt><trkpt lat="43.28427437417961" lon="11.548716483438769"><ele>302.42857142857144</ele><time>2026-04-11T03:43:23Z</time></trkpt><trkpt lat="43.284324465297715" lon="11.548657569907444"><ele>299.7142857142857</ele><time>2026-04-11T03:43:24Z</time></trkpt><trkpt lat="43.284365518829624" lon="11.54858771350178"><ele>297.0</ele><time>2026-04-11T03:43:25Z</time></trkpt><trkpt lat="43.28442742007259" lon="11.548440251979663"><ele>296.6</ele><time>2026-04-11T03:43:27Z</time></trkpt><trkpt lat="43.28448412771073" lon="11.54829267130766"><ele>296.2</ele><time>2026-04-11T03:43:29Z</time></trkpt><trkpt lat="43.28453664174346" lon="11.548158470533556"><ele>295.8</ele><time>2026-04-11T03:43:31Z</time></trkpt><trkpt lat="43.284581459147184" lon="11.548036654176512"><ele>295.4</ele><time>2026-04-11T03:43:33Z</time></trkpt><trkpt lat="43.284628098115334" lon="11.547924373313162"><ele>295.0</ele><time>2026-04-11T03:43:35Z</time></trkpt><trkpt lat="43.28466323973159" lon="11.547826360299114"><ele>293.5714285714286</ele><time>2026-04-11T03:43:37Z</time></trkpt><trkpt lat="43.284695415273816" lon="11.547739174423661"><ele>292.14285714285717</ele><time>2026-04-11T03:43:39Z</time></trkpt><trkpt lat="43.2847158818808" lon="11.547652100579223"><ele>290.7142857142857</ele><time>2026-04-11T03:43:41Z</time></trkpt><trkpt lat="43.28472710721367" lon="11.54756316444469"><ele>289.28571428571433</ele><time>2026-04-11T03:43:43Z</time></trkpt><trkpt lat="43.28473587822557" lon="11.547470670126456"><ele>287.8571428571429</ele><time>2026-04-11T03:43:45Z</time></trkpt><trkpt lat="43.28474267516848" lon="11.547380223355406"><ele>286.42857142857144</ele><time>2026-04-11T03:43:47Z</time></trkpt><trkpt lat="43.28474854515062" lon="11.54725287941103"><ele>285.0</ele><time>2026-04-11T03:43:50Z</time></trkpt><trkpt lat="43.28476442782323" lon="11.547137409727027"><ele>289.1666666666667</ele><time>2026-04-11T03:43:53Z</time></trkpt><trkpt lat="43.284791805932635" lon="11.547030185365378"><ele>293.3333333333333</ele><time>2026-04-11T03:43:56Z</time></trkpt><trkpt lat="43.284824966469714" lon="11.546939088828204"><ele>297.5</ele><time>2026-04-11T03:43:59Z</time></trkpt><trkpt lat="43.284875789338415" lon="11.546857336790266"><ele>301.66666666666663</ele><time>2026-04-11T03:44:02.999Z</time></trkpt><trkpt lat="43.284939177711955" lon="11.546782225997074"><ele>305.8333333333333</ele><time>2026-04-11T03:44:06.999Z</time></trkpt><trkpt lat="43.28499620825478" lon="11.546710720592648"><ele>310.0</ele><time>2026-04-11T03:44:10.999Z</time></trkpt><trkpt lat="43.285050190323936" lon="11.546657627462693"><ele>310.0</ele><time>2026-04-11T03:44:13.999Z</time></trkpt><trkpt lat="43.28511850839833" lon="11.546613363658206"><ele>310.0</ele><time>2026-04-11T03:44:17.999Z</time></trkpt><trkpt lat="43.28518621796937" lon="11.546565137097991"><ele>310.0</ele><time>2026-04-11T03:44:21.999Z</time></trkpt><trkpt lat="43.28525190154651" lon="11.546532351255216"><ele>310.0</ele><time>2026-04-11T03:44:25.999Z</time></trkpt><trkpt lat="43.285328448597866" lon="11.54650446074779"><ele>310.0</ele><time>2026-04-11T03:44:29.999Z</time></trkpt><trkpt lat="43.28539050212773" lon="11.546475486852179"><ele>310.0</ele><time>2026-04-11T03:44:31.999Z</time></trkpt><trkpt lat="43.285478113021384" lon="11.546437375504881"><ele>310.0</ele><time>2026-04-11T03:44:34.999Z</time></trkpt><trkpt lat="43.28554326013666" lon="11.54640207332809"><ele>310.0</ele><time>2026-04-11T03:44:36.999Z</time></trkpt><trkpt lat="43.28560553852193" lon="11.546365682316729"><ele>310.0</ele><time>2026-04-11T03:44:38.999Z</time></trkpt><trkpt lat="43.28567370208335" lon="11.546320196693603"><ele>310.0</ele><time>2026-04-11T03:44:40.999Z</time></trkpt><trkpt lat="43.285732726168696" lon="11.54627373506654"><ele>310.0</ele><time>2026-04-11T03:44:43.999Z</time></trkpt><trkpt lat="43.28581940206042" lon="11.546234815457673"><ele>310.0</ele><time>2026-04-11T03:44:44.999Z</time></trkpt><trkpt lat="43.28589094512864" lon="11.546164740673074"><ele>310.8</ele><time>2026-04-11T03:44:46.999Z</time></trkpt><trkpt lat="43.285968208508955" lon="11.546084632171583"><ele>311.6</ele><time>2026-04-11T03:44:48.999Z</time></trkpt><trkpt lat="43.28606112331676" lon="11.546013051813425"><ele>312.4</ele><time>2026-04-11T03:44:50.999Z</time></trkpt><trkpt lat="43.286164108774926" lon="11.545926603698216"><ele>313.2</ele><time>2026-04-11T03:44:52.999Z</time></trkpt><trkpt lat="43.286225922284" lon="11.54590053213544"><ele>314.0</ele><time>2026-04-11T03:44:53.999Z</time></trkpt><trkpt lat="43.286348402614536" lon="11.545869050497796"><ele>313.59999999999997</ele><time>2026-04-11T03:44:55.999Z</time></trkpt><trkpt lat="43.28645189525267" lon="11.545892238378372"><ele>313.2</ele><time>2026-04-11T03:44:57.999Z</time></trkpt><trkpt lat="43.28654700012334" lon="11.545937733647008"><ele>312.79999999999995</ele><time>2026-04-11T03:44:59.999Z</time></trkpt><trkpt lat="43.286622440242496" lon="11.54603118022206"><ele>312.4</ele><time>2026-04-11T03:45:01.999Z</time></trkpt><trkpt lat="43.28670906050556" lon="11.546106859976454"><ele>312.0</ele><time>2026-04-11T03:45:03.999Z</time></trkpt><trkpt lat="43.28681779682948" lon="11.546166202383725"><ele>312.0</ele><time>2026-04-11T03:45:05.999Z</time></trkpt><trkpt lat="43.28688071720956" lon="11.54618033635404"><ele>312.0</ele><time>2026-04-11T03:45:06.999Z</time></trkpt><trkpt lat="43.286944984190754" lon="11.546170659595933"><ele>312.0</ele><time>2026-04-11T03:45:07.999Z</time></trkpt><trkpt lat="43.28701423022384" lon="11.546160145531154"><ele>312.0</ele><time>2026-04-11T03:45:08.999Z</time></trkpt><trkpt lat="43.28708240609172" lon="11.546134850669235"><ele>312.0</ele><time>2026-04-11T03:45:09.999Z</time></trkpt><trkpt lat="43.2871453110431" lon="11.546098706233336"><ele>312.0</ele><time>2026-04-11T03:45:10.999Z</time></trkpt><trkpt lat="43.287200196975185" lon="11.546050418747434"><ele>312.0</ele><time>2026-04-11T03:45:11.999Z</time></trkpt><trkpt lat="43.28724354778651" lon="11.545972860866419"><ele>310.1666666666667</ele><time>2026-04-11T03:45:12.999Z</time></trkpt><trkpt lat="43.2872710440239" lon="11.545880132007332"><ele>308.3333333333333</ele><time>2026-04-11T03:45:13.999Z</time></trkpt><trkpt lat="43.28728295940667" lon="11.545761797105737"><ele>306.5</ele><time>2026-04-11T03:45:14.999Z</time></trkpt><trkpt lat="43.287304862561506" lon="11.545654973496873"><ele>304.66666666666663</ele><time>2026-04-11T03:45:15.999Z</time></trkpt><trkpt lat="43.28733055621053" lon="11.545541948860558"><ele>302.8333333333333</ele><time>2026-04-11T03:45:16.999Z</time></trkpt><trkpt lat="43.28735378381407" lon="11.545425873625705"><ele>301.0</ele><time>2026-04-11T03:45:17.999Z</time></trkpt><trkpt lat="43.287366243166666" lon="11.54530826363473"><ele>301.0</ele><time>2026-04-11T03:45:18.999Z</time></trkpt><trkpt lat="43.28738284592009" lon="11.545185424782884"><ele>301.0</ele><time>2026-04-11T03:45:19.999Z</time></trkpt><trkpt lat="43.28739011373056" lon="11.545065219673006"><ele>301.0</ele><time>2026-04-11T03:45:20.999Z</time></trkpt><trkpt lat="43.28739259666268" lon="11.54494740709045"><ele>301.0</ele><time>2026-04-11T03:45:21.999Z</time></trkpt><trkpt lat="43.28739864632061" lon="11.544829594898495"><ele>301.0</ele><time>2026-04-11T03:45:22.999Z</time></trkpt><trkpt lat="43.28741083282645" lon="11.544718404661499"><ele>301.0</ele><time>2026-04-11T03:45:23.999Z</time></trkpt><trkpt lat="43.287434569986225" lon="11.54461232227374"><ele>300.66666666666663</ele><time>2026-04-11T03:45:24.999Z</time></trkpt><trkpt lat="43.287452407587" lon="11.544505619522802"><ele>300.3333333333333</ele><time>2026-04-11T03:45:26Z</time></trkpt><trkpt lat="43.28747052450424" lon="11.54440628907898"><ele>300.0</ele><time>2026-04-11T03:45:27Z</time></trkpt><trkpt lat="43.28749879151365" lon="11.544305739601148"><ele>299.6666666666667</ele><time>2026-04-11T03:45:28Z</time></trkpt><trkpt lat="43.287534263453075" lon="11.544207855829491"><ele>299.33333333333337</ele><time>2026-04-11T03:45:29Z</time></trkpt><trkpt lat="43.28757034616475" lon="11.544112134030582"><ele>299.0</ele><time>2026-04-11T03:45:30Z</time></trkpt><trkpt lat="43.287604011178644" lon="11.544017782455118"><ele>299.0</ele><time>2026-04-11T03:45:31Z</time></trkpt><trkpt lat="43.287628309025315" lon="11.54391968903257"><ele>299.0</ele><time>2026-04-11T03:45:32Z</time></trkpt><trkpt lat="43.28763526422561" lon="11.543813450834053"><ele>299.0</ele><time>2026-04-11T03:45:33Z</time></trkpt><trkpt lat="43.28763266702014" lon="11.543701119249482"><ele>299.0</ele><time>2026-04-11T03:45:34Z</time></trkpt><trkpt lat="43.28762526204107" lon="11.5435860786909"><ele>299.0</ele><time>2026-04-11T03:45:35Z</time></trkpt><trkpt lat="43.28762054530945" lon="11.543473723286427"><ele>299.0</ele><time>2026-04-11T03:45:36Z</time></trkpt><trkpt lat="43.287624789339205" lon="11.54335901553902"><ele>298.1666666666667</ele><time>2026-04-11T03:45:37Z</time></trkpt><trkpt lat="43.287637363221336" lon="11.543243839000441"><ele>297.33333333333337</ele><time>2026-04-11T03:45:38Z</time></trkpt><trkpt lat="43.28765930094829" lon="11.543133837439614"><ele>296.5</ele><time>2026-04-11T03:45:39Z</time></trkpt><trkpt lat="43.28768535526625" lon="11.543034289002241"><ele>295.6666666666667</ele><time>2026-04-11T03:45:40Z</time></trkpt><trkpt lat="43.287713633469814" lon="11.542944985751273"><ele>294.8333333333333</ele><time>2026-04-11T03:45:41Z</time></trkpt><trkpt lat="43.28773747916687" lon="11.542861769367823"><ele>294.0</ele><time>2026-04-11T03:45:42Z</time></trkpt><trkpt lat="43.287771396847376" lon="11.542713214364523"><ele>292.0</ele><time>2026-04-11T03:45:44Z</time></trkpt><trkpt lat="43.28780933022854" lon="11.542598170916621"><ele>290.0</ele><time>2026-04-11T03:45:46Z</time></trkpt><trkpt lat="43.28787159124196" lon="11.542521010520465"><ele>288.0</ele><time>2026-04-11T03:45:48Z</time></trkpt><trkpt lat="43.28792493768667" lon="11.542429758024701"><ele>286.0</ele><time>2026-04-11T03:45:50Z</time></trkpt><trkpt lat="43.287964240963426" lon="11.542323765536084"><ele>284.0</ele><time>2026-04-11T03:45:52Z</time></trkpt><trkpt lat="43.28801600241483" lon="11.542235547230458"><ele>282.0</ele><time>2026-04-11T03:45:54Z</time></trkpt><trkpt lat="43.28806912789758" lon="11.542153694587826"><ele>285.6</ele><time>2026-04-11T03:45:56Z</time></trkpt><trkpt lat="43.28811485364893" lon="11.542066501717242"><ele>289.2</ele><time>2026-04-11T03:45:58Z</time></trkpt><trkpt lat="43.28815799454962" lon="11.541972250218286"><ele>292.8</ele><time>2026-04-11T03:46:00Z</time></trkpt><trkpt lat="43.288202678600854" lon="11.541863706535294"><ele>296.4</ele><time>2026-04-11T03:46:03Z</time></trkpt><trkpt lat="43.288232301077585" lon="11.541775216985158"><ele>300.0</ele><time>2026-04-11T03:46:04.999Z</time></trkpt><trkpt lat="43.28827759110508" lon="11.541606913547383"><ele>300.3333333333333</ele><time>2026-04-11T03:46:06.999Z</time></trkpt><trkpt lat="43.28833610550408" lon="11.541526062177786"><ele>300.6666666666667</ele><time>2026-04-11T03:46:08.999Z</time></trkpt><trkpt lat="43.28838397892412" lon="11.54143004179838"><ele>301.0</ele><time>2026-04-11T03:46:10.999Z</time></trkpt><trkpt lat="43.28845725343837" lon="11.541363989357954"><ele>301.33333333333337</ele><time>2026-04-11T03:46:12.999Z</time></trkpt><trkpt lat="43.288533993002716" lon="11.541310517410446"><ele>301.6666666666667</ele><time>2026-04-11T03:46:14.999Z</time></trkpt><trkpt lat="43.28861149036058" lon="11.541260550000825"><ele>302.0</ele><time>2026-04-11T03:46:16.999Z</time></trkpt><trkpt lat="43.28870204897673" lon="11.541232186117083"><ele>302.0</ele><time>2026-04-11T03:46:18.999Z</time></trkpt><trkpt lat="43.28879075553565" lon="11.541212193558907"><ele>302.0</ele><time>2026-04-11T03:46:20.999Z</time></trkpt><trkpt lat="43.28887432501897" lon="11.541193470367773"><ele>302.0</ele><time>2026-04-11T03:46:22.999Z</time></trkpt><trkpt lat="43.288974956865765" lon="11.54116231894982"><ele>302.0</ele><time>2026-04-11T03:46:25.999Z</time></trkpt><trkpt lat="43.289058979605194" lon="11.541138016822577"><ele>302.0</ele><time>2026-04-11T03:46:28.999Z</time></trkpt><trkpt lat="43.28913008582158" lon="11.541115711144913"><ele>302.0</ele><time>2026-04-11T03:46:29.999Z</time></trkpt><trkpt lat="43.28920674058534" lon="11.541097718907986"><ele>302.0</ele><time>2026-04-11T03:46:31.999Z</time></trkpt><trkpt lat="43.28928605273801" lon="11.541092171890988"><ele>302.0</ele><time>2026-04-11T03:46:33.999Z</time></trkpt><trkpt lat="43.28936223920592" lon="11.541096307884656"><ele>302.0</ele><time>2026-04-11T03:46:35.999Z</time></trkpt><trkpt lat="43.28943260819292" lon="11.541124243120734"><ele>302.0</ele><time>2026-04-11T03:46:37.999Z</time></trkpt><trkpt lat="43.289499381321534" lon="11.541148809466987"><ele>302.0</ele><time>2026-04-11T03:46:39.999Z</time></trkpt><trkpt lat="43.28957333543209" lon="11.541171991926351"><ele>302.0</ele><time>2026-04-11T03:46:41.999Z</time></trkpt><trkpt lat="43.28964732081424" lon="11.54119916754477"><ele>302.0</ele><time>2026-04-11T03:46:43.999Z</time></trkpt><trkpt lat="43.289720739736" lon="11.541220246310232"><ele>302.0</ele><time>2026-04-11T03:46:45.999Z</time></trkpt><trkpt lat="43.28979381394737" lon="11.541222249783196"><ele>302.0</ele><time>2026-04-11T03:46:47.999Z</time></trkpt><trkpt lat="43.28985756366943" lon="11.541228063852188"><ele>302.0</ele><time>2026-04-11T03:46:49.999Z</time></trkpt><trkpt lat="43.289983890092884" lon="11.541199526842508"><ele>302.0</ele><time>2026-04-11T03:46:52.999Z</time></trkpt><trkpt lat="43.29006064382785" lon="11.54119477946478"><ele>302.0</ele><time>2026-04-11T03:46:54.999Z</time></trkpt><trkpt lat="43.29014470947564" lon="11.541191178717892"><ele>302.0</ele><time>2026-04-11T03:46:56.999Z</time></trkpt><trkpt lat="43.29023404770601" lon="11.541199150696373"><ele>302.0</ele><time>2026-04-11T03:46:58.999Z</time></trkpt><trkpt lat="43.29033780688256" lon="11.541220495135274"><ele>302.0</ele><time>2026-04-11T03:47:00.999Z</time></trkpt><trkpt lat="43.29043672906587" lon="11.541245036853502"><ele>302.0</ele><time>2026-04-11T03:47:02.999Z</time></trkpt><trkpt lat="43.29053243934005" lon="11.541289113329736"><ele>302.0</ele><time>2026-04-11T03:47:04.999Z</time></trkpt><trkpt lat="43.290641437772194" lon="11.541336666888753"><ele>303.6</ele><time>2026-04-11T03:47:06.999Z</time></trkpt><trkpt lat="43.290750873415405" lon="11.54138137113301"><ele>305.2</ele><time>2026-04-11T03:47:08.999Z</time></trkpt><trkpt lat="43.29087396385402" lon="11.54140107231149"><ele>306.8</ele><time>2026-04-11T03:47:10.999Z</time></trkpt><trkpt lat="43.29099426775962" lon="11.541394220411869"><ele>308.4</ele><time>2026-04-11T03:47:12.999Z</time></trkpt><trkpt lat="43.29105476759022" lon="11.541365151938187"><ele>310.0</ele><time>2026-04-11T03:47:13.999Z</time></trkpt><trkpt lat="43.291143269542694" lon="11.541278188643156"><ele>308.8</ele><time>2026-04-11T03:47:15.999Z</time></trkpt><trkpt lat="43.291219142818946" lon="11.54118068583006"><ele>307.6</ele><time>2026-04-11T03:47:17.999Z</time></trkpt><trkpt lat="43.29128197091724" lon="11.541079895238"><ele>306.4</ele><time>2026-04-11T03:47:19.999Z</time></trkpt><trkpt lat="43.29134094939604" lon="11.540984645153426"><ele>305.2</ele><time>2026-04-11T03:47:21.999Z</time></trkpt><trkpt lat="43.29134155696333" lon="11.540853290588204"><ele>304.0</ele><time>2026-04-11T03:47:23.999Z</time></trkpt><trkpt lat="43.291340761169074" lon="11.540739244894437"><ele>304.0</ele><time>2026-04-11T03:47:25.999Z</time></trkpt><trkpt lat="43.29132812914801" lon="11.540634163528889"><ele>304.0</ele><time>2026-04-11T03:47:27.999Z</time></trkpt><trkpt lat="43.29132077573663" lon="11.540539635777964"><ele>304.0</ele><time>2026-04-11T03:47:29.999Z</time></trkpt><trkpt lat="43.29131546183906" lon="11.540448075013249"><ele>304.0</ele><time>2026-04-11T03:47:32Z</time></trkpt><trkpt lat="43.291312057860665" lon="11.540312323745828"><ele>304.0</ele><time>2026-04-11T03:47:35Z</time></trkpt><trkpt lat="43.291318386678334" lon="11.540191466380842"><ele>304.0</ele><time>2026-04-11T03:47:38Z</time></trkpt><trkpt lat="43.29132901162649" lon="11.540104844987713"><ele>303.66666666666663</ele><time>2026-04-11T03:47:40Z</time></trkpt><trkpt lat="43.291346708749465" lon="11.540017698823554"><ele>303.3333333333333</ele><time>2026-04-11T03:47:42Z</time></trkpt><trkpt lat="43.2913830091302" lon="11.539899924201404"><ele>303.0</ele><time>2026-04-11T03:47:45Z</time></trkpt><trkpt lat="43.2914276319244" lon="11.539788206522816"><ele>302.6666666666667</ele><time>2026-04-11T03:47:48Z</time></trkpt><trkpt lat="43.29146443114802" lon="11.53967979844741"><ele>302.33333333333337</ele><time>2026-04-11T03:47:52Z</time></trkpt><trkpt lat="43.29150863612924" lon="11.539570770953778"><ele>302.0</ele><time>2026-04-11T03:47:55Z</time></trkpt><trkpt lat="43.2915627078381" lon="11.53943197044852"><ele>304.5</ele><time>2026-04-11T03:47:58Z</time></trkpt><trkpt lat="43.29160190322433" lon="11.539324887411432"><ele>307.0</ele><time>2026-04-11T03:48:01Z</time></trkpt><trkpt lat="43.29163711143078" lon="11.539228214668546"><ele>309.5</ele><time>2026-04-11T03:48:03.999Z</time></trkpt><trkpt lat="43.29167542892705" lon="11.53913271657438"><ele>312.0</ele><time>2026-04-11T03:48:05.999Z</time></trkpt><trkpt lat="43.29171988272593" lon="11.539026580890583"><ele>314.5</ele><time>2026-04-11T03:48:07.999Z</time></trkpt><trkpt lat="43.291761059138146" lon="11.538956257441578"><ele>317.0</ele><time>2026-04-11T03:48:09.999Z</time></trkpt><trkpt lat="43.29181572057413" lon="11.538899748405946"><ele>317.0</ele><time>2026-04-11T03:48:11.999Z</time></trkpt><trkpt lat="43.29187479280487" lon="11.538851454904368"><ele>317.0</ele><time>2026-04-11T03:48:13.999Z</time></trkpt><trkpt lat="43.29193789903985" lon="11.538832027719245"><ele>317.0</ele><time>2026-04-11T03:48:15.999Z</time></trkpt><trkpt lat="43.292004695582186" lon="11.538819659465476"><ele>317.0</ele><time>2026-04-11T03:48:17.999Z</time></trkpt><trkpt lat="43.29209663726127" lon="11.53882119580193"><ele>317.0</ele><time>2026-04-11T03:48:20.999Z</time></trkpt><trkpt lat="43.292185410513014" lon="11.538858070135513"><ele>317.0</ele><time>2026-04-11T03:48:23.999Z</time></trkpt><trkpt lat="43.2922665182675" lon="11.538879477245665"><ele>317.0</ele><time>2026-04-11T03:48:26.999Z</time></trkpt><trkpt lat="43.29233075577585" lon="11.538902373988895"><ele>317.0</ele><time>2026-04-11T03:48:28.999Z</time></trkpt><trkpt lat="43.2923966904135" lon="11.53891916526435"><ele>317.0</ele><time>2026-04-11T03:48:30.999Z</time></trkpt><trkpt lat="43.29246164951718" lon="11.538923260647048"><ele>317.0</ele><time>2026-04-11T03:48:32.999Z</time></trkpt><trkpt lat="43.29252781026019" lon="11.538929152783531"><ele>317.0</ele><time>2026-04-11T03:48:34.999Z</time></trkpt><trkpt lat="43.29259218095861" lon="11.53892562212458"><ele>317.0</ele><time>2026-04-11T03:48:36.999Z</time></trkpt><trkpt lat="43.29267458562141" lon="11.538906076048006"><ele>317.0</ele><time>2026-04-11T03:48:38.999Z</time></trkpt><trkpt lat="43.29275999104529" lon="11.538856331118991"><ele>317.0</ele><time>2026-04-11T03:48:41.999Z</time></trkpt><trkpt lat="43.292820710310956" lon="11.53880075104578"><ele>317.0</ele><time>2026-04-11T03:48:43.999Z</time></trkpt><trkpt lat="43.2928923713809" lon="11.53872928322421"><ele>317.0</ele><time>2026-04-11T03:48:45.999Z</time></trkpt><trkpt lat="43.29298358804401" lon="11.5386413252184"><ele>317.0</ele><time>2026-04-11T03:48:47.999Z</time></trkpt><trkpt lat="43.29308297200427" lon="11.538538186572445"><ele>317.0</ele><time>2026-04-11T03:48:49.999Z</time></trkpt><trkpt lat="43.29313837024559" lon="11.538490528138562"><ele>316.1666666666667</ele><time>2026-04-11T03:48:50.999Z</time></trkpt><trkpt lat="43.29319681932822" lon="11.53844016731125"><ele>315.33333333333337</ele><time>2026-04-11T03:48:51.999Z</time></trkpt><trkpt lat="43.2932542383413" lon="11.538388133422314"><ele>314.5</ele><time>2026-04-11T03:48:52.999Z</time></trkpt><trkpt lat="43.293314322603486" lon="11.538335837072605"><ele>313.6666666666667</ele><time>2026-04-11T03:48:53.999Z</time></trkpt><trkpt lat="43.29337874901702" lon="11.538278881564535"><ele>312.8333333333333</ele><time>2026-04-11T03:48:54.999Z</time></trkpt><trkpt lat="43.29344815704126" lon="11.538218122376628"><ele>312.0</ele><time>2026-04-11T03:48:55.999Z</time></trkpt><trkpt lat="43.29352083355216" lon="11.538156567339241"><ele>312.0</ele><time>2026-04-11T03:48:56.999Z</time></trkpt><trkpt lat="43.293595476106624" lon="11.53809093562743"><ele>312.0</ele><time>2026-04-11T03:48:57.999Z</time></trkpt><trkpt lat="43.2936669258303" lon="11.538020891490985"><ele>312.0</ele><time>2026-04-11T03:48:58.999Z</time></trkpt><trkpt lat="43.29373827505151" lon="11.53795015670631"><ele>312.0</ele><time>2026-04-11T03:48:59.999Z</time></trkpt><trkpt lat="43.29381651873242" lon="11.537903294837285"><ele>312.0</ele><time>2026-04-11T03:49:00.999Z</time></trkpt><trkpt lat="43.29388396745062" lon="11.537844201543646"><ele>312.0</ele><time>2026-04-11T03:49:01.999Z</time></trkpt><trkpt lat="43.29393946695872" lon="11.537767018744631"><ele>312.1666666666667</ele><time>2026-04-11T03:49:02.999Z</time></trkpt><trkpt lat="43.294000308252016" lon="11.53771132979371"><ele>312.3333333333333</ele><time>2026-04-11T03:49:03.999Z</time></trkpt><trkpt lat="43.29405787489915" lon="11.537656691661567"><ele>312.5</ele><time>2026-04-11T03:49:04.999Z</time></trkpt><trkpt lat="43.29410943830233" lon="11.537599578494959"><ele>312.66666666666663</ele><time>2026-04-11T03:49:05.999Z</time></trkpt><trkpt lat="43.294191822864356" lon="11.537488091620087"><ele>312.8333333333333</ele><time>2026-04-11T03:49:07.999Z</time></trkpt><trkpt lat="43.29426359735001" lon="11.537393040791336"><ele>313.0</ele><time>2026-04-11T03:49:09.999Z</time></trkpt><trkpt lat="43.294321896641755" lon="11.537312649131936"><ele>313.0</ele><time>2026-04-11T03:49:11.999Z</time></trkpt><trkpt lat="43.29437420890457" lon="11.5372454890628"><ele>313.0</ele><time>2026-04-11T03:49:13.999Z</time></trkpt><trkpt lat="43.29442286894972" lon="11.537187435144237"><ele>313.0</ele><time>2026-04-11T03:49:15.999Z</time></trkpt><trkpt lat="43.29447207686378" lon="11.53713189926227"><ele>313.0</ele><time>2026-04-11T03:49:17.999Z</time></trkpt><trkpt lat="43.29452541279478" lon="11.537084758915599"><ele>313.0</ele><time>2026-04-11T03:49:19.999Z</time></trkpt><trkpt lat="43.294600665569284" lon="11.537016867879208"><ele>313.0</ele><time>2026-04-11T03:49:22.999Z</time></trkpt><trkpt lat="43.29468739874684" lon="11.536977903124189"><ele>313.0</ele><time>2026-04-11T03:49:25.999Z</time></trkpt><trkpt lat="43.29474863351692" lon="11.536939711777862"><ele>311.8</ele><time>2026-04-11T03:49:27.999Z</time></trkpt><trkpt lat="43.29482191734553" lon="11.536904972998247"><ele>310.6</ele><time>2026-04-11T03:49:29.999Z</time></trkpt><trkpt lat="43.2949179890782" lon="11.53684205805295"><ele>309.4</ele><time>2026-04-11T03:49:31.999Z</time></trkpt><trkpt lat="43.29503568726441" lon="11.536785085866473"><ele>308.2</ele><time>2026-04-11T03:49:33.999Z</time></trkpt><trkpt lat="43.29510442723621" lon="11.536801541216365"><ele>307.0</ele><time>2026-04-11T03:49:34.999Z</time></trkpt><trkpt lat="43.29517252948902" lon="11.536772934200709"><ele>306.99999999999994</ele><time>2026-04-11T03:49:35.999Z</time></trkpt><trkpt lat="43.295244084198735" lon="11.536789584773976"><ele>307.0</ele><time>2026-04-11T03:49:36.999Z</time></trkpt><trkpt lat="43.29531489765504" lon="11.536742125820203"><ele>307.0</ele><time>2026-04-11T03:49:38Z</time></trkpt><trkpt lat="43.29538808580986" lon="11.53671817986638"><ele>307.0</ele><time>2026-04-11T03:49:39Z</time></trkpt><trkpt lat="43.29544000232007" lon="11.536636997344972"><ele>307.0</ele><time>2026-04-11T03:49:40Z</time></trkpt><trkpt lat="43.295488653064936" lon="11.53656909131418"><ele>306.99999999999994</ele><time>2026-04-11T03:49:41Z</time></trkpt><trkpt lat="43.295526899717274" lon="11.536495696782149"><ele>307.0</ele><time>2026-04-11T03:49:42Z</time></trkpt><trkpt lat="43.29558019007185" lon="11.536356985770375"><ele>308.0</ele><time>2026-04-11T03:49:44Z</time></trkpt><trkpt lat="43.29561939498114" lon="11.536233331938869"><ele>309.0</ele><time>2026-04-11T03:49:46Z</time></trkpt><trkpt lat="43.29567192919575" lon="11.536127612962883"><ele>310.0</ele><time>2026-04-11T03:49:48Z</time></trkpt><trkpt lat="43.29570763117197" lon="11.53602529723235"><ele>311.0</ele><time>2026-04-11T03:49:50Z</time></trkpt><trkpt lat="43.295737517433295" lon="11.535929022168078"><ele>312.0</ele><time>2026-04-11T03:49:52Z</time></trkpt><trkpt lat="43.295767766826124" lon="11.53583968889262"><ele>313.0</ele><time>2026-04-11T03:49:54Z</time></trkpt><trkpt lat="43.29579077575751" lon="11.535734171899186"><ele>314.42857142857144</ele><time>2026-04-11T03:49:57Z</time></trkpt><trkpt lat="43.29580475152999" lon="11.535623543768788"><ele>315.8571428571429</ele><time>2026-04-11T03:50:01Z</time></trkpt><trkpt lat="43.29580812235504" lon="11.535535395538338"><ele>317.28571428571433</ele><time>2026-04-11T03:50:03.999Z</time></trkpt><trkpt lat="43.2958138354785" lon="11.5354444414784"><ele>318.7142857142857</ele><time>2026-04-11T03:50:05.999Z</time></trkpt><trkpt lat="43.295818863025055" lon="11.535342858762474"><ele>320.14285714285717</ele><time>2026-04-11T03:50:09.999Z</time></trkpt><trkpt lat="43.295830486241705" lon="11.53523381008316"><ele>321.5714285714286</ele><time>2026-04-11T03:50:13.999Z</time></trkpt><trkpt lat="43.29583865982891" lon="11.535140396571792"><ele>323.0</ele><time>2026-04-11T03:50:16.999Z</time></trkpt><trkpt lat="43.29584855324463" lon="11.535053395452637"><ele>323.5714285714286</ele><time>2026-04-11T03:50:18.999Z</time></trkpt><trkpt lat="43.295850389256536" lon="11.534966844124199"><ele>324.14285714285717</ele><time>2026-04-11T03:50:21.999Z</time></trkpt><trkpt lat="43.29584176218051" lon="11.534856896433054"><ele>324.7142857142857</ele><time>2026-04-11T03:50:25.999Z</time></trkpt><trkpt lat="43.29581681129971" lon="11.53477266474491"><ele>325.28571428571433</ele><time>2026-04-11T03:50:28.999Z</time></trkpt><trkpt lat="43.295779306687564" lon="11.534690485890364"><ele>325.8571428571429</ele><time>2026-04-11T03:50:31.999Z</time></trkpt><trkpt lat="43.295723173448366" lon="11.534644549805684"><ele>326.42857142857144</ele><time>2026-04-11T03:50:34.999Z</time></trkpt><trkpt lat="43.295667346519636" lon="11.534591933416966"><ele>327.0</ele><time>2026-04-11T03:50:37.999Z</time></trkpt><trkpt lat="43.29561255553153" lon="11.534548668023564"><ele>327.42857142857144</ele><time>2026-04-11T03:50:40.999Z</time></trkpt><trkpt lat="43.29555765714658" lon="11.534496807579801"><ele>327.8571428571429</ele><time>2026-04-11T03:50:43.999Z</time></trkpt><trkpt lat="43.29549747360602" lon="11.534456981578362"><ele>328.28571428571433</ele><time>2026-04-11T03:50:46.999Z</time></trkpt><trkpt lat="43.295436638662665" lon="11.534415095566562"><ele>328.7142857142857</ele><time>2026-04-11T03:50:49.999Z</time></trkpt><trkpt lat="43.29537852339296" lon="11.534358435948976"><ele>329.14285714285717</ele><time>2026-04-11T03:50:52.999Z</time></trkpt><trkpt lat="43.29531608494563" lon="11.534295879008058"><ele>329.5714285714286</ele><time>2026-04-11T03:50:55.999Z</time></trkpt><trkpt lat="43.295252226994116" lon="11.534218594731513"><ele>330.0</ele><time>2026-04-11T03:50:58.999Z</time></trkpt><trkpt lat="43.29520814374267" lon="11.534152356623519"><ele>330.0</ele><time>2026-04-11T03:51:00.999Z</time></trkpt><trkpt lat="43.29514944801044" lon="11.534068767495798"><ele>330.0</ele><time>2026-04-11T03:51:02.999Z</time></trkpt><trkpt lat="43.295056877414275" lon="11.533940500394671"><ele>330.0</ele><time>2026-04-11T03:51:04.999Z</time></trkpt><trkpt lat="43.29495001054642" lon="11.533870356695795"><ele>330.0</ele><time>2026-04-11T03:51:06.999Z</time></trkpt><trkpt lat="43.29488805190707" lon="11.533845148771967"><ele>330.0</ele><time>2026-04-11T03:51:07.999Z</time></trkpt><trkpt lat="43.2948269593918" lon="11.53382181698213"><ele>330.00000000000006</ele><time>2026-04-11T03:51:08.999Z</time></trkpt><trkpt lat="43.29477172497412" lon="11.533769297243229"><ele>330.0</ele><time>2026-04-11T03:51:09.999Z</time></trkpt><trkpt lat="43.29470634745739" lon="11.533758104557325"><ele>330.0</ele><time>2026-04-11T03:51:10.999Z</time></trkpt><trkpt lat="43.29464591851288" lon="11.533717781666995"><ele>330.0</ele><time>2026-04-11T03:51:11.999Z</time></trkpt><trkpt lat="43.29459052765901" lon="11.53366462901597"><ele>330.0</ele><time>2026-04-11T03:51:12.999Z</time></trkpt><trkpt lat="43.294539067354165" lon="11.533599693248856"><ele>330.00000000000006</ele><time>2026-04-11T03:51:13.999Z</time></trkpt><trkpt lat="43.2944989977337" lon="11.533518578795926"><ele>330.0</ele><time>2026-04-11T03:51:14.999Z</time></trkpt><trkpt lat="43.2944747084418" lon="11.533425610714199"><ele>329.1666666666667</ele><time>2026-04-11T03:51:15.999Z</time></trkpt><trkpt lat="43.294462808386335" lon="11.533328517282916"><ele>328.3333333333333</ele><time>2026-04-11T03:51:16.999Z</time></trkpt><trkpt lat="43.2944788718474" lon="11.533229320894504"><ele>327.5</ele><time>2026-04-11T03:51:17.999Z</time></trkpt><trkpt lat="43.29448650492829" lon="11.533127363796114"><ele>326.66666666666663</ele><time>2026-04-11T03:51:18.999Z</time></trkpt><trkpt lat="43.29448219793288" lon="11.533021376214753"><ele>325.8333333333333</ele><time>2026-04-11T03:51:19.999Z</time></trkpt><trkpt lat="43.294461904105084" lon="11.532912692000865"><ele>325.0</ele><time>2026-04-11T03:51:20.999Z</time></trkpt><trkpt lat="43.29446151168208" lon="11.532798793364215"><ele>325.0</ele><time>2026-04-11T03:51:21.999Z</time></trkpt><trkpt lat="43.29446615694365" lon="11.532680464158702"><ele>325.0</ele><time>2026-04-11T03:51:22.999Z</time></trkpt><trkpt lat="43.29447661830744" lon="11.532561245436861"><ele>325.0</ele><time>2026-04-11T03:51:23.999Z</time></trkpt><trkpt lat="43.29451727929339" lon="11.53244601538222"><ele>325.0</ele><time>2026-04-11T03:51:24.999Z</time></trkpt><trkpt lat="43.29452836133324" lon="11.532321784513593"><ele>325.0</ele><time>2026-04-11T03:51:25.999Z</time></trkpt><trkpt lat="43.29455910272018" lon="11.532198093301607"><ele>325.0</ele><time>2026-04-11T03:51:26.999Z</time></trkpt><trkpt lat="43.29459226656293" lon="11.532074505616512"><ele>325.0</ele><time>2026-04-11T03:51:27.999Z</time></trkpt><trkpt lat="43.294648195656244" lon="11.531964077255799"><ele>325.0</ele><time>2026-04-11T03:51:28.999Z</time></trkpt><trkpt lat="43.29469465119175" lon="11.531851774502888"><ele>325.0</ele><time>2026-04-11T03:51:29.999Z</time></trkpt><trkpt lat="43.29474480349676" lon="11.531752766810875"><ele>325.0</ele><time>2026-04-11T03:51:30.999Z</time></trkpt><trkpt lat="43.29479408202426" lon="11.531656350965507"><ele>324.16666666666663</ele><time>2026-04-11T03:51:31.999Z</time></trkpt><trkpt lat="43.29484319355136" lon="11.531560261956697"><ele>323.3333333333333</ele><time>2026-04-11T03:51:32.999Z</time></trkpt><trkpt lat="43.294889484771566" lon="11.531470769119544"><ele>322.5</ele><time>2026-04-11T03:51:33.999Z</time></trkpt><trkpt lat="43.294937055429756" lon="11.531381350264619"><ele>321.6666666666667</ele><time>2026-04-11T03:51:34.999Z</time></trkpt><trkpt lat="43.294988151821634" lon="11.531286889755844"><ele>320.83333333333337</ele><time>2026-04-11T03:51:35.999Z</time></trkpt><trkpt lat="43.295041640789144" lon="11.531196160728891"><ele>320.0</ele><time>2026-04-11T03:51:36.999Z</time></trkpt><trkpt lat="43.29509266433998" lon="11.531118587338895"><ele>320.0</ele><time>2026-04-11T03:51:37.999Z</time></trkpt><trkpt lat="43.29514796549123" lon="11.531042856416132"><ele>320.0</ele><time>2026-04-11T03:51:38.999Z</time></trkpt><trkpt lat="43.29521171317576" lon="11.530976052159188"><ele>320.0</ele><time>2026-04-11T03:51:39.999Z</time></trkpt><trkpt lat="43.295281735578" lon="11.530910363550522"><ele>320.0</ele><time>2026-04-11T03:51:40.999Z</time></trkpt><trkpt lat="43.29535737349277" lon="11.530849126345641"><ele>320.0</ele><time>2026-04-11T03:51:41.999Z</time></trkpt><trkpt lat="43.29543660932814" lon="11.530790496910907"><ele>320.0</ele><time>2026-04-11T03:51:42.999Z</time></trkpt><trkpt lat="43.29551985747093" lon="11.530733440584232"><ele>317.0</ele><time>2026-04-11T03:51:44Z</time></trkpt><trkpt lat="43.295603028681455" lon="11.530682496362921"><ele>314.0</ele><time>2026-04-11T03:51:45Z</time></trkpt><trkpt lat="43.29568734862171" lon="11.530633018259941"><ele>311.0</ele><time>2026-04-11T03:51:46Z</time></trkpt><trkpt lat="43.295775158138284" lon="11.530587956138005"><ele>308.0</ele><time>2026-04-11T03:51:47Z</time></trkpt><trkpt lat="43.295866460871245" lon="11.530544192608167"><ele>305.0</ele><time>2026-04-11T03:51:48Z</time></trkpt><trkpt lat="43.29595835922983" lon="11.530505511183009"><ele>305.0</ele><time>2026-04-11T03:51:49Z</time></trkpt><trkpt lat="43.296054212752836" lon="11.530465773232693"><ele>305.0</ele><time>2026-04-11T03:51:50Z</time></trkpt><trkpt lat="43.29614396769038" lon="11.530407774176046"><ele>305.0</ele><time>2026-04-11T03:51:51Z</time></trkpt><trkpt lat="43.296233416571084" lon="11.530372172671356"><ele>305.0</ele><time>2026-04-11T03:51:52Z</time></trkpt><trkpt lat="43.29632677022997" lon="11.530358690781764"><ele>305.0</ele><time>2026-04-11T03:51:53Z</time></trkpt><trkpt lat="43.29641352503401" lon="11.530319798529128"><ele>303.7142857142857</ele><time>2026-04-11T03:51:54Z</time></trkpt><trkpt lat="43.29648159705296" lon="11.530263263528846"><ele>302.4285714285714</ele><time>2026-04-11T03:51:55Z</time></trkpt><trkpt lat="43.29654324282588" lon="11.530226539251382"><ele>301.1428571428571</ele><time>2026-04-11T03:51:56Z</time></trkpt><trkpt lat="43.29659960536276" lon="11.530167750464676"><ele>299.8571428571429</ele><time>2026-04-11T03:51:57Z</time></trkpt><trkpt lat="43.29665226895443" lon="11.530118014055699"><ele>298.57142857142856</ele><time>2026-04-11T03:51:58Z</time></trkpt><trkpt lat="43.29665568343155" lon="11.530006371400043"><ele>297.2857142857143</ele><time>2026-04-11T03:51:59Z</time></trkpt><trkpt lat="43.29664088548892" lon="11.529909337183842"><ele>296.0</ele><time>2026-04-11T03:52:00Z</time></trkpt><trkpt lat="43.296596295793826" lon="11.529833049783598"><ele>296.0</ele><time>2026-04-11T03:52:01Z</time></trkpt><trkpt lat="43.29653171790527" lon="11.529781034943937"><ele>296.0</ele><time>2026-04-11T03:52:02Z</time></trkpt><trkpt lat="43.29646296988155" lon="11.52974332138567"><ele>296.0</ele><time>2026-04-11T03:52:03Z</time></trkpt><trkpt lat="43.29639003108496" lon="11.529706884727092"><ele>296.0</ele><time>2026-04-11T03:52:04Z</time></trkpt><trkpt lat="43.296317000517426" lon="11.529671459414734"><ele>296.0</ele><time>2026-04-11T03:52:04.999Z</time></trkpt><trkpt lat="43.29624294742336" lon="11.52964030412085"><ele>296.0</ele><time>2026-04-11T03:52:05.999Z</time></trkpt><trkpt lat="43.29616596687077" lon="11.529617347760727"><ele>295.6666666666667</ele><time>2026-04-11T03:52:06.999Z</time></trkpt><trkpt lat="43.296087992683525" lon="11.529604241589672"><ele>295.33333333333337</ele><time>2026-04-11T03:52:07.999Z</time></trkpt><trkpt lat="43.296011508881996" lon="11.529588750243537"><ele>295.0</ele><time>2026-04-11T03:52:08.999Z</time></trkpt><trkpt lat="43.29593488128629" lon="11.529561991937324"><ele>294.6666666666667</ele><time>2026-04-11T03:52:09.999Z</time></trkpt><trkpt lat="43.295858683720624" lon="11.529524466685784"><ele>294.3333333333333</ele><time>2026-04-11T03:52:10.999Z</time></trkpt><trkpt lat="43.2957894759534" lon="11.529471498094415"><ele>294.0</ele><time>2026-04-11T03:52:11.999Z</time></trkpt><trkpt lat="43.29572114338" lon="11.529410702192662"><ele>294.0</ele><time>2026-04-11T03:52:12.999Z</time></trkpt><trkpt lat="43.295648376676645" lon="11.529360544672484"><ele>294.0</ele><time>2026-04-11T03:52:13.999Z</time></trkpt><trkpt lat="43.29556876142315" lon="11.52931882452156"><ele>294.0</ele><time>2026-04-11T03:52:14.999Z</time></trkpt><trkpt lat="43.29548908887947" lon="11.529288453480818"><ele>294.0</ele><time>2026-04-11T03:52:15.999Z</time></trkpt><trkpt lat="43.29541528330526" lon="11.529255912867388"><ele>294.0</ele><time>2026-04-11T03:52:16.999Z</time></trkpt><trkpt lat="43.29535546022445" lon="11.529215737235761"><ele>294.0</ele><time>2026-04-11T03:52:17.999Z</time></trkpt><trkpt lat="43.295307310007985" lon="11.529150688854473"><ele>294.0</ele><time>2026-04-11T03:52:18.999Z</time></trkpt><trkpt lat="43.295298553340224" lon="11.528995631491496"><ele>294.0</ele><time>2026-04-11T03:52:20.999Z</time></trkpt><trkpt lat="43.295400999695694" lon="11.528904156886474"><ele>294.0</ele><time>2026-04-11T03:52:22.999Z</time></trkpt><trkpt lat="43.2955018164857" lon="11.528834060835758"><ele>294.0</ele><time>2026-04-11T03:52:24.999Z</time></trkpt><trkpt lat="43.295604578258775" lon="11.528741371351044"><ele>293.6666666666667</ele><time>2026-04-11T03:52:26.999Z</time></trkpt><trkpt lat="43.29570971626206" lon="11.528653462901227"><ele>293.3333333333333</ele><time>2026-04-11T03:52:28.999Z</time></trkpt><trkpt lat="43.29576042024754" lon="11.52860002726093"><ele>293.0</ele><time>2026-04-11T03:52:29.999Z</time></trkpt><trkpt lat="43.295805800625985" lon="11.528537360479387"><ele>292.66666666666663</ele><time>2026-04-11T03:52:30.999Z</time></trkpt><trkpt lat="43.29584951060762" lon="11.52846422021731"><ele>292.3333333333333</ele><time>2026-04-11T03:52:31.999Z</time></trkpt><trkpt lat="43.295885494609195" lon="11.528379040633647"><ele>292.0</ele><time>2026-04-11T03:52:32.999Z</time></trkpt><trkpt lat="43.295911367577574" lon="11.528281180569053"><ele>292.0</ele><time>2026-04-11T03:52:33.999Z</time></trkpt><trkpt lat="43.29592395509324" lon="11.528173347212917"><ele>292.0</ele><time>2026-04-11T03:52:34.999Z</time></trkpt><trkpt lat="43.29592938383344" lon="11.528054538093116"><ele>292.0</ele><time>2026-04-11T03:52:35.999Z</time></trkpt><trkpt lat="43.29595477733194" lon="11.527941444799469"><ele>292.0</ele><time>2026-04-11T03:52:36.999Z</time></trkpt><trkpt lat="43.29596675759267" lon="11.527825690922347"><ele>292.0</ele><time>2026-04-11T03:52:37.999Z</time></trkpt><trkpt lat="43.29596471380538" lon="11.527708307458974"><ele>292.0</ele><time>2026-04-11T03:52:38.999Z</time></trkpt><trkpt lat="43.29598110026339" lon="11.527599153585216"><ele>292.0</ele><time>2026-04-11T03:52:39.999Z</time></trkpt><trkpt lat="43.29599492856819" lon="11.52748929639616"><ele>292.0</ele><time>2026-04-11T03:52:40.999Z</time></trkpt><trkpt lat="43.296006319086786" lon="11.527376473885074"><ele>292.0</ele><time>2026-04-11T03:52:41.999Z</time></trkpt><trkpt lat="43.29603675765692" lon="11.527277604646697"><ele>292.0</ele><time>2026-04-11T03:52:42.999Z</time></trkpt><trkpt lat="43.29606432695439" lon="11.527177414322473"><ele>292.0</ele><time>2026-04-11T03:52:43.999Z</time></trkpt><trkpt lat="43.29609865775507" lon="11.527080098041736"><ele>292.0</ele><time>2026-04-11T03:52:44.999Z</time></trkpt><trkpt lat="43.29613703939014" lon="11.526995851995947"><ele>291.5</ele><time>2026-04-11T03:52:45.999Z</time></trkpt><trkpt lat="43.29617957327437" lon="11.526913902186068"><ele>291.0</ele><time>2026-04-11T03:52:46.999Z</time></trkpt><trkpt lat="43.29622395534269" lon="11.526839660324994"><ele>290.5</ele><time>2026-04-11T03:52:47.999Z</time></trkpt><trkpt lat="43.296267459988606" lon="11.526768863776274"><ele>290.0</ele><time>2026-04-11T03:52:48.999Z</time></trkpt><trkpt lat="43.2963085918161" lon="11.526701891968324"><ele>289.5</ele><time>2026-04-11T03:52:49.999Z</time></trkpt><trkpt lat="43.29637994029525" lon="11.526585720680705"><ele>289.0</ele><time>2026-04-11T03:52:51.999Z</time></trkpt><trkpt lat="43.296421601315906" lon="11.52651788711828"><ele>289.0</ele><time>2026-04-11T03:52:52.999Z</time></trkpt><trkpt lat="43.29647528879413" lon="11.526430471839223"><ele>289.0</ele><time>2026-04-11T03:52:54.999Z</time></trkpt><trkpt lat="43.29653077593184" lon="11.526344366910918"><ele>289.0</ele><time>2026-04-11T03:52:56.999Z</time></trkpt><trkpt lat="43.29658826893924" lon="11.52628029580643"><ele>289.0</ele><time>2026-04-11T03:52:58.999Z</time></trkpt><trkpt lat="43.29663447574597" lon="11.526203551938819"><ele>289.0</ele><time>2026-04-11T03:53:00.999Z</time></trkpt><trkpt lat="43.29669412472682" lon="11.526145587810307"><ele>289.0</ele><time>2026-04-11T03:53:02.999Z</time></trkpt><trkpt lat="43.29675277223013" lon="11.526077663077535"><ele>289.0</ele><time>2026-04-11T03:53:04.999Z</time></trkpt><trkpt lat="43.296780828755054" lon="11.525983268366563"><ele>289.0</ele><time>2026-04-11T03:53:06.999Z</time></trkpt><trkpt lat="43.29677469087917" lon="11.525871886747327"><ele>289.0</ele><time>2026-04-11T03:53:08.999Z</time></trkpt><trkpt lat="43.29676758350616" lon="11.525775664504923"><ele>289.0</ele><time>2026-04-11T03:53:10.999Z</time></trkpt><trkpt lat="43.2967421637536" lon="11.525646605617785"><ele>289.0</ele><time>2026-04-11T03:53:13.999Z</time></trkpt><trkpt lat="43.29673725300884" lon="11.525549582293424"><ele>289.0</ele><time>2026-04-11T03:53:15.999Z</time></trkpt><trkpt lat="43.29673856280044" lon="11.525446913704267"><ele>289.5</ele><time>2026-04-11T03:53:17.999Z</time></trkpt><trkpt lat="43.29674445905604" lon="11.52533551676268"><ele>290.0</ele><time>2026-04-11T03:53:19.999Z</time></trkpt><trkpt lat="43.296758462964895" lon="11.525218304207984"><ele>290.5</ele><time>2026-04-11T03:53:21.999Z</time></trkpt><trkpt lat="43.2967670946533" lon="11.525099056659409"><ele>291.0</ele><time>2026-04-11T03:53:23.999Z</time></trkpt><trkpt lat="43.29675814120002" lon="11.524978062525495"><ele>291.5</ele><time>2026-04-11T03:53:25.999Z</time></trkpt><trkpt lat="43.29672863029059" lon="11.524865873314804"><ele>292.0</ele><time>2026-04-11T03:53:27.999Z</time></trkpt><trkpt lat="43.296686087890365" lon="11.524764590542363"><ele>292.0</ele><time>2026-04-11T03:53:29.999Z</time></trkpt><trkpt lat="43.296650423622914" lon="11.524662802852504"><ele>292.0</ele><time>2026-04-11T03:53:31.999Z</time></trkpt><trkpt lat="43.29661825127062" lon="11.524570939467067"><ele>292.0</ele><time>2026-04-11T03:53:33.999Z</time></trkpt><trkpt lat="43.29658849312685" lon="11.524465917708458"><ele>292.0</ele><time>2026-04-11T03:53:35.999Z</time></trkpt><trkpt lat="43.29656815888509" lon="11.524367287310236"><ele>292.0</ele><time>2026-04-11T03:53:37.999Z</time></trkpt><trkpt lat="43.29656084163592" lon="11.524261039900678"><ele>292.0</ele><time>2026-04-11T03:53:39.999Z</time></trkpt><trkpt lat="43.29655047565889" lon="11.524156690676193"><ele>293.42857142857144</ele><time>2026-04-11T03:53:41.999Z</time></trkpt><trkpt lat="43.29653809487539" lon="11.524054062864012"><ele>294.8571428571429</ele><time>2026-04-11T03:53:43.999Z</time></trkpt><trkpt lat="43.29652607258003" lon="11.523954187618283"><ele>296.28571428571433</ele><time>2026-04-11T03:53:45.999Z</time></trkpt><trkpt lat="43.296514092039786" lon="11.523859133627132"><ele>297.7142857142857</ele><time>2026-04-11T03:53:47.998Z</time></trkpt><trkpt lat="43.29649838586691" lon="11.523763210912499"><ele>299.14285714285717</ele><time>2026-04-11T03:53:50Z</time></trkpt><trkpt lat="43.2964811239419" lon="11.523666019235886"><ele>300.5714285714286</ele><time>2026-04-11T03:53:52Z</time></trkpt><trkpt lat="43.296466027299765" lon="11.5235608409559"><ele>302.0</ele><time>2026-04-11T03:53:54Z</time></trkpt><trkpt lat="43.296448535849" lon="11.52345675113368"><ele>302.6666666666667</ele><time>2026-04-11T03:53:56Z</time></trkpt><trkpt lat="43.29643798458563" lon="11.523353156431254"><ele>303.33333333333337</ele><time>2026-04-11T03:53:58Z</time></trkpt><trkpt lat="43.296428437337035" lon="11.523257803902338"><ele>304.0</ele><time>2026-04-11T03:54:00Z</time></trkpt><trkpt lat="43.29642631113309" lon="11.523151276658162"><ele>304.6666666666667</ele><time>2026-04-11T03:54:01Z</time></trkpt><trkpt lat="43.29642340026506" lon="11.52302391753217"><ele>305.3333333333333</ele><time>2026-04-11T03:54:03Z</time></trkpt><trkpt lat="43.29642526675471" lon="11.522887628825401"><ele>306.0</ele><time>2026-04-11T03:54:05Z</time></trkpt><trkpt lat="43.29643712811057" lon="11.522746043521588"><ele>306.0</ele><time>2026-04-11T03:54:07Z</time></trkpt><trkpt lat="43.296466903585916" lon="11.522610498846356"><ele>306.0</ele><time>2026-04-11T03:54:09Z</time></trkpt><trkpt lat="43.296513453134594" lon="11.52248399354288"><ele>306.0</ele><time>2026-04-11T03:54:11Z</time></trkpt><trkpt lat="43.296592366242464" lon="11.522384413429224"><ele>306.0</ele><time>2026-04-11T03:54:12.999Z</time></trkpt><trkpt lat="43.296655438512516" lon="11.5222576048792"><ele>306.0</ele><time>2026-04-11T03:54:14.999Z</time></trkpt><trkpt lat="43.296684317034405" lon="11.522116618022718"><ele>304.0</ele><time>2026-04-11T03:54:16.999Z</time></trkpt><trkpt lat="43.29671860276286" lon="11.521985504315117"><ele>302.0</ele><time>2026-04-11T03:54:18.999Z</time></trkpt><trkpt lat="43.29673423408991" lon="11.521842286004953"><ele>300.0</ele><time>2026-04-11T03:54:20.999Z</time></trkpt><trkpt lat="43.296765928731574" lon="11.52169643208563"><ele>298.0</ele><time>2026-04-11T03:54:22.999Z</time></trkpt><trkpt lat="43.296841055860206" lon="11.521578177234524"><ele>296.0</ele><time>2026-04-11T03:54:24.999Z</time></trkpt><trkpt lat="43.29693797348696" lon="11.521503015853392"><ele>296.0</ele><time>2026-04-11T03:54:26.999Z</time></trkpt><trkpt lat="43.29703594666374" lon="11.521448136462434"><ele>296.0</ele><time>2026-04-11T03:54:28.999Z</time></trkpt><trkpt lat="43.297136599906885" lon="11.521397324819539"><ele>296.0</ele><time>2026-04-11T03:54:30.999Z</time></trkpt><trkpt lat="43.297249597239954" lon="11.521358880749938"><ele>296.0</ele><time>2026-04-11T03:54:32.999Z</time></trkpt><trkpt lat="43.29737115776614" lon="11.521347107292886"><ele>298.0</ele><time>2026-04-11T03:54:34.999Z</time></trkpt><trkpt lat="43.29749352089346" lon="11.52136131695515"><ele>300.0</ele><time>2026-04-11T03:54:36.999Z</time></trkpt><trkpt lat="43.297605808168335" lon="11.52142140393624"><ele>302.0</ele><time>2026-04-11T03:54:38.999Z</time></trkpt><trkpt lat="43.29769471846989" lon="11.52152928162568"><ele>304.0</ele><time>2026-04-11T03:54:40.999Z</time></trkpt><trkpt lat="43.297785660508026" lon="11.521623411163667"><ele>304.0</ele><time>2026-04-11T03:54:42.999Z</time></trkpt><trkpt lat="43.297878130509886" lon="11.521728812605689"><ele>304.0</ele><time>2026-04-11T03:54:44.999Z</time></trkpt><trkpt lat="43.29796424173997" lon="11.521837551366149"><ele>304.0</ele><time>2026-04-11T03:54:46.999Z</time></trkpt><trkpt lat="43.29804473070819" lon="11.521945676610502"><ele>304.0</ele><time>2026-04-11T03:54:48.999Z</time></trkpt><trkpt lat="43.298105832956914" lon="11.522086662571963"><ele>304.16666666666663</ele><time>2026-04-11T03:54:50.999Z</time></trkpt><trkpt lat="43.29817220175679" lon="11.52221909117279"><ele>304.3333333333333</ele><time>2026-04-11T03:54:52.999Z</time></trkpt><trkpt lat="43.298270681271894" lon="11.52230302003762"><ele>304.5</ele><time>2026-04-11T03:54:54.999Z</time></trkpt><trkpt lat="43.29832690027664" lon="11.52234416469689"><ele>304.6666666666667</ele><time>2026-04-11T03:54:55.999Z</time></trkpt><trkpt lat="43.298393600982614" lon="11.522318479364364"><ele>304.83333333333337</ele><time>2026-04-11T03:54:56.999Z</time></trkpt><trkpt lat="43.298456743067455" lon="11.522299253504642"><ele>305.0</ele><time>2026-04-11T03:54:57.999Z</time></trkpt><trkpt lat="43.29857947295905" lon="11.522256450285608"><ele>305.0</ele><time>2026-04-11T03:54:59.999Z</time></trkpt><trkpt lat="43.29864483985096" lon="11.522255537647036"><ele>305.0</ele><time>2026-04-11T03:55:00.999Z</time></trkpt><trkpt lat="43.29875060944693" lon="11.522314651571593"><ele>305.0</ele><time>2026-04-11T03:55:02.999Z</time></trkpt><trkpt lat="43.2988344689265" lon="11.522419493531224"><ele>305.0</ele><time>2026-04-11T03:55:04.999Z</time></trkpt><trkpt lat="43.29893761224578" lon="11.522508337368915"><ele>305.0</ele><time>2026-04-11T03:55:06.999Z</time></trkpt><trkpt lat="43.29904267816466" lon="11.522530610254082"><ele>303.25</ele><time>2026-04-11T03:55:08.999Z</time></trkpt><trkpt lat="43.29915332744311" lon="11.522529375610208"><ele>301.5</ele><time>2026-04-11T03:55:10.999Z</time></trkpt><trkpt lat="43.29927815489808" lon="11.522520026299505"><ele>299.75</ele><time>2026-04-11T03:55:12.999Z</time></trkpt><trkpt lat="43.29939410887682" lon="11.52249464917861"><ele>298.0</ele><time>2026-04-11T03:55:14.999Z</time></trkpt><trkpt lat="43.29950642687238" lon="11.522434680969706"><ele>298.0</ele><time>2026-04-11T03:55:16.999Z</time></trkpt><trkpt lat="43.299616151916716" lon="11.522342230404458"><ele>298.0</ele><time>2026-04-11T03:55:18.999Z</time></trkpt><trkpt lat="43.29968621191158" lon="11.522289711147376"><ele>298.0</ele><time>2026-04-11T03:55:19.999Z</time></trkpt><trkpt lat="43.299773467485245" lon="11.522245423801966"><ele>298.0</ele><time>2026-04-11T03:55:20.999Z</time></trkpt><trkpt lat="43.29987712399458" lon="11.522243283649646"><ele>298.0</ele><time>2026-04-11T03:55:21.999Z</time></trkpt><trkpt lat="43.299977246535654" lon="11.522216311758937"><ele>298.16666666666663</ele><time>2026-04-11T03:55:22.999Z</time></trkpt><trkpt lat="43.30007394967133" lon="11.522253451034626"><ele>298.3333333333333</ele><time>2026-04-11T03:55:23.999Z</time></trkpt><trkpt lat="43.30016760620724" lon="11.522273550572072"><ele>298.5</ele><time>2026-04-11T03:55:24.999Z</time></trkpt><trkpt lat="43.30025097955209" lon="11.522296789958721"><ele>298.6666666666667</ele><time>2026-04-11T03:55:25.999Z</time></trkpt><trkpt lat="43.30031636482679" lon="11.522324196950393"><ele>298.83333333333337</ele><time>2026-04-11T03:55:26.999Z</time></trkpt><trkpt lat="43.30040317494754" lon="11.522344708308825"><ele>299.0</ele><time>2026-04-11T03:55:28.999Z</time></trkpt><trkpt lat="43.30046492893081" lon="11.522383843053786"><ele>299.0</ele><time>2026-04-11T03:55:30.999Z</time></trkpt><trkpt lat="43.30053985517979" lon="11.52242447292699"><ele>299.0</ele><time>2026-04-11T03:55:33.999Z</time></trkpt><trkpt lat="43.30062578266069" lon="11.522466781123955"><ele>299.0</ele><time>2026-04-11T03:55:36.999Z</time></trkpt><trkpt lat="43.30071655752036" lon="11.522481314563214"><ele>299.0</ele><time>2026-04-11T03:55:39.999Z</time></trkpt><trkpt lat="43.30080395276076" lon="11.52251213743434"><ele>299.0</ele><time>2026-04-11T03:55:42.999Z</time></trkpt><trkpt lat="43.30086682252909" lon="11.522524835343006"><ele>299.0</ele><time>2026-04-11T03:55:45.999Z</time></trkpt><trkpt lat="43.30094492258381" lon="11.522545064198184"><ele>298.1666666666667</ele><time>2026-04-11T03:55:48.999Z</time></trkpt><trkpt lat="43.30101891374287" lon="11.522576979474513"><ele>297.33333333333337</ele><time>2026-04-11T03:55:51.999Z</time></trkpt><trkpt lat="43.30109419152329" lon="11.52260839658989"><ele>296.5</ele><time>2026-04-11T03:55:55Z</time></trkpt><trkpt lat="43.30116234966429" lon="11.522647359943772"><ele>295.6666666666667</ele><time>2026-04-11T03:55:58Z</time></trkpt><trkpt lat="43.30123356502808" lon="11.522691632424976"><ele>294.8333333333333</ele><time>2026-04-11T03:56:01Z</time></trkpt><trkpt lat="43.30130320966539" lon="11.52274052963321"><ele>294.0</ele><time>2026-04-11T03:56:04Z</time></trkpt><trkpt lat="43.30136523455268" lon="11.52280683046648"><ele>293.3333333333333</ele><time>2026-04-11T03:56:08Z</time></trkpt><trkpt lat="43.3014269341938" lon="11.522850664950315"><ele>292.6666666666667</ele><time>2026-04-11T03:56:10Z</time></trkpt><trkpt lat="43.3015122884986" lon="11.522854847791058"><ele>292.0</ele><time>2026-04-11T03:56:12Z</time></trkpt><trkpt lat="43.30159406733536" lon="11.522873150491318"><ele>291.33333333333337</ele><time>2026-04-11T03:56:14Z</time></trkpt><trkpt lat="43.301668658604" lon="11.522903974625638"><ele>290.6666666666667</ele><time>2026-04-11T03:56:15.999Z</time></trkpt><trkpt lat="43.30176941070694" lon="11.522935529163483"><ele>290.0</ele><time>2026-04-11T03:56:17.999Z</time></trkpt><trkpt lat="43.30187839895551" lon="11.522948010878249"><ele>290.33333333333337</ele><time>2026-04-11T03:56:19.999Z</time></trkpt><trkpt lat="43.30196623169069" lon="11.52295270177737"><ele>290.6666666666667</ele><time>2026-04-11T03:56:21.999Z</time></trkpt><trkpt lat="43.30205040377442" lon="11.522947949767614"><ele>291.0</ele><time>2026-04-11T03:56:23.999Z</time></trkpt><trkpt lat="43.30211559488519" lon="11.522946354177655"><ele>291.3333333333333</ele><time>2026-04-11T03:56:25.999Z</time></trkpt><trkpt lat="43.30220902810398" lon="11.522919272015415"><ele>291.66666666666663</ele><time>2026-04-11T03:56:27.999Z</time></trkpt><trkpt lat="43.30230142130215" lon="11.522874809972036"><ele>292.0</ele><time>2026-04-11T03:56:29.999Z</time></trkpt><trkpt lat="43.302400638269624" lon="11.52283833287242"><ele>292.0</ele><time>2026-04-11T03:56:31.999Z</time></trkpt><trkpt lat="43.30249466712799" lon="11.522794356327212"><ele>292.0</ele><time>2026-04-11T03:56:33.999Z</time></trkpt><trkpt lat="43.30260796631451" lon="11.522749148998514"><ele>292.0</ele><time>2026-04-11T03:56:35.999Z</time></trkpt><trkpt lat="43.30272918934312" lon="11.522725283300794"><ele>292.0</ele><time>2026-04-11T03:56:37.999Z</time></trkpt><trkpt lat="43.30279403769747" lon="11.522713647103938"><ele>292.0</ele><time>2026-04-11T03:56:38.999Z</time></trkpt><trkpt lat="43.302908911088615" lon="11.522702619711861"><ele>292.0</ele><time>2026-04-11T03:56:40.999Z</time></trkpt><trkpt lat="43.30301412643593" lon="11.522691686068391"><ele>292.0</ele><time>2026-04-11T03:56:42.999Z</time></trkpt><trkpt lat="43.3031193287142" lon="11.522697899381779"><ele>292.0</ele><time>2026-04-11T03:56:44.999Z</time></trkpt><trkpt lat="43.30323296286435" lon="11.52271832730165"><ele>292.0</ele><time>2026-04-11T03:56:46.999Z</time></trkpt><trkpt lat="43.30333013864414" lon="11.522770596291117"><ele>292.0</ele><time>2026-04-11T03:56:48.999Z</time></trkpt><trkpt lat="43.30340722661637" lon="11.522855721516136"><ele>295.2</ele><time>2026-04-11T03:56:50.999Z</time></trkpt><trkpt lat="43.3034760892499" lon="11.522951595382038"><ele>298.4</ele><time>2026-04-11T03:56:53Z</time></trkpt><trkpt lat="43.30353396178589" lon="11.523055151367927"><ele>301.6</ele><time>2026-04-11T03:56:55Z</time></trkpt><trkpt lat="43.303587948695444" lon="11.523160713767458"><ele>304.8</ele><time>2026-04-11T03:56:57Z</time></trkpt><trkpt lat="43.30364772223643" lon="11.523265010060321"><ele>308.0</ele><time>2026-04-11T03:56:59Z</time></trkpt><trkpt lat="43.30370480195868" lon="11.523368498979574"><ele>308.0</ele><time>2026-04-11T03:57:01Z</time></trkpt><trkpt lat="43.303760254571316" lon="11.523472814145325"><ele>308.0</ele><time>2026-04-11T03:57:03Z</time></trkpt><trkpt lat="43.30381961185401" lon="11.523585033335236"><ele>308.0</ele><time>2026-04-11T03:57:05Z</time></trkpt><trkpt lat="43.30388898780289" lon="11.523676510689675"><ele>308.0</ele><time>2026-04-11T03:57:07Z</time></trkpt><trkpt lat="43.3039615069932" lon="11.52377305539428"><ele>308.0</ele><time>2026-04-11T03:57:09Z</time></trkpt><trkpt lat="43.304049431376114" lon="11.523835787428414"><ele>305.2</ele><time>2026-04-11T03:57:11Z</time></trkpt><trkpt lat="43.304158941129124" lon="11.523851972918386"><ele>302.4</ele><time>2026-04-11T03:57:13Z</time></trkpt><trkpt lat="43.30422125183357" lon="11.523865530925585"><ele>299.59999999999997</ele><time>2026-04-11T03:57:14Z</time></trkpt><trkpt lat="43.30431951184512" lon="11.523810225281837"><ele>296.8</ele><time>2026-04-11T03:57:16Z</time></trkpt><trkpt lat="43.30439767266247" lon="11.523760915612177"><ele>294.0</ele><time>2026-04-11T03:57:18Z</time></trkpt><trkpt lat="43.304463380516516" lon="11.52366804427082"><ele>294.0</ele><time>2026-04-11T03:57:21Z</time></trkpt><trkpt lat="43.304505630587215" lon="11.523602784108668"><ele>294.0</ele><time>2026-04-11T03:57:23Z</time></trkpt><trkpt lat="43.304552285857646" lon="11.523523360239224"><ele>294.0</ele><time>2026-04-11T03:57:26Z</time></trkpt><trkpt lat="43.3046106224796" lon="11.523449709496738"><ele>294.0</ele><time>2026-04-11T03:57:29Z</time></trkpt><trkpt lat="43.304663546794465" lon="11.5233706940281"><ele>294.0</ele><time>2026-04-11T03:57:33Z</time></trkpt><trkpt lat="43.30469783932182" lon="11.523290097436231"><ele>294.0</ele><time>2026-04-11T03:57:35Z</time></trkpt><trkpt lat="43.30475674215344" lon="11.523230182457798"><ele>294.0</ele><time>2026-04-11T03:57:38Z</time></trkpt><trkpt lat="43.30483229334328" lon="11.523175683580726"><ele>296.0</ele><time>2026-04-11T03:57:42Z</time></trkpt><trkpt lat="43.304894363176" lon="11.52312523463617"><ele>298.0</ele><time>2026-04-11T03:57:45Z</time></trkpt><trkpt lat="43.30496033499379" lon="11.523078830874818"><ele>300.0</ele><time>2026-04-11T03:57:47Z</time></trkpt><trkpt lat="43.30503241165548" lon="11.523041209228328"><ele>302.0</ele><time>2026-04-11T03:57:51Z</time></trkpt><trkpt lat="43.30511577618135" lon="11.523002915416562"><ele>304.0</ele><time>2026-04-11T03:57:53Z</time></trkpt><trkpt lat="43.305192041695776" lon="11.52296809891356"><ele>306.0</ele><time>2026-04-11T03:57:56Z</time></trkpt><trkpt lat="43.30527978922349" lon="11.522928719108824"><ele>305.42857142857144</ele><time>2026-04-11T03:57:59.999Z</time></trkpt><trkpt lat="43.305340635290285" lon="11.522891569382589"><ele>304.8571428571429</ele><time>2026-04-11T03:58:04Z</time></trkpt><trkpt lat="43.305408982252516" lon="11.522860802976448"><ele>304.28571428571433</ele><time>2026-04-11T03:58:07Z</time></trkpt><trkpt lat="43.305480792518395" lon="11.52282707320218"><ele>303.7142857142857</ele><time>2026-04-11T03:58:11Z</time></trkpt><trkpt lat="43.30554794898036" lon="11.522800751197867"><ele>303.14285714285717</ele><time>2026-04-11T03:58:15Z</time></trkpt><trkpt lat="43.305623746867134" lon="11.52278534585024"><ele>302.5714285714286</ele><time>2026-04-11T03:58:19Z</time></trkpt><trkpt lat="43.30570453119483" lon="11.522789952794863"><ele>302.0</ele><time>2026-04-11T03:58:23Z</time></trkpt><trkpt lat="43.305770302552745" lon="11.522809426246784"><ele>304.0</ele><time>2026-04-11T03:58:26Z</time></trkpt><trkpt lat="43.305839498954896" lon="11.522830233856192"><ele>306.0</ele><time>2026-04-11T03:58:30Z</time></trkpt><trkpt lat="43.30592997377098" lon="11.522870564827539"><ele>308.0</ele><time>2026-04-11T03:58:34Z</time></trkpt><trkpt lat="43.3059996881766" lon="11.522901530937206"><ele>310.0</ele><time>2026-04-11T03:58:38Z</time></trkpt><trkpt lat="43.306063963141156" lon="11.522927118684175"><ele>312.0</ele><time>2026-04-11T03:58:41Z</time></trkpt><trkpt lat="43.306147120511724" lon="11.522956738181154"><ele>314.0</ele><time>2026-04-11T03:58:45Z</time></trkpt><trkpt lat="43.306212808708764" lon="11.522968148099197"><ele>314.57142857142856</ele><time>2026-04-11T03:58:48Z</time></trkpt><trkpt lat="43.30628443779792" lon="11.522969282897462"><ele>315.1428571428571</ele><time>2026-04-11T03:58:51Z</time></trkpt><trkpt lat="43.30635289208797" lon="11.52299014866833"><ele>315.71428571428567</ele><time>2026-04-11T03:58:54Z</time></trkpt><trkpt lat="43.30641667545032" lon="11.522995600176511"><ele>316.2857142857143</ele><time>2026-04-11T03:58:57Z</time></trkpt><trkpt lat="43.30649902061418" lon="11.523008896229513"><ele>316.8571428571429</ele><time>2026-04-11T03:59:01Z</time></trkpt><trkpt lat="43.30657856336344" lon="11.523026141016336"><ele>317.4285714285714</ele><time>2026-04-11T03:59:05Z</time></trkpt><trkpt lat="43.30665864358627" lon="11.523023059563673"><ele>318.0</ele><time>2026-04-11T03:59:09Z</time></trkpt><trkpt lat="43.30673627108898" lon="11.523030202296043"><ele>319.0</ele><time>2026-04-11T03:59:13Z</time></trkpt><trkpt lat="43.306813997783806" lon="11.523044529641972"><ele>320.0</ele><time>2026-04-11T03:59:17Z</time></trkpt><trkpt lat="43.306889106000696" lon="11.523059256124347"><ele>321.0</ele><time>2026-04-11T03:59:21Z</time></trkpt><trkpt lat="43.30696535709295" lon="11.523068619674389"><ele>322.0</ele><time>2026-04-11T03:59:25Z</time></trkpt><trkpt lat="43.30703576179743" lon="11.523069062321555"><ele>323.0</ele><time>2026-04-11T03:59:29Z</time></trkpt><trkpt lat="43.307114247057" lon="11.523062978879814"><ele>324.0</ele><time>2026-04-11T03:59:33Z</time></trkpt><trkpt lat="43.30717845223342" lon="11.523067836641353"><ele>325.0</ele><time>2026-04-11T03:59:36Z</time></trkpt><trkpt lat="43.307251539192066" lon="11.52307890403023"><ele>325.1428571428571</ele><time>2026-04-11T03:59:39Z</time></trkpt><trkpt lat="43.30731779936798" lon="11.52309997336821"><ele>325.28571428571433</ele><time>2026-04-11T03:59:42Z</time></trkpt><trkpt lat="43.307399532880446" lon="11.523133417240086"><ele>325.42857142857144</ele><time>2026-04-11T03:59:46Z</time></trkpt><trkpt lat="43.30745963534371" lon="11.52316408089717"><ele>325.57142857142856</ele><time>2026-04-11T03:59:49Z</time></trkpt><trkpt lat="43.307507380039695" lon="11.523231546747093"><ele>325.71428571428567</ele><time>2026-04-11T03:59:52Z</time></trkpt><trkpt lat="43.307561059932155" lon="11.523294687726057"><ele>325.8571428571429</ele><time>2026-04-11T03:59:55Z</time></trkpt><trkpt lat="43.30762365205323" lon="11.523353870405517"><ele>326.0</ele><time>2026-04-11T03:59:58Z</time></trkpt><trkpt lat="43.30769582503824" lon="11.523414332768201"><ele>326.0</ele><time>2026-04-11T04:00:01Z</time></trkpt><trkpt lat="43.30777938272606" lon="11.523470036220997"><ele>326.0</ele><time>2026-04-11T04:00:03.999Z</time></trkpt><trkpt lat="43.30787094087686" lon="11.523522622276616"><ele>326.0</ele><time>2026-04-11T04:00:04.999Z</time></trkpt><trkpt lat="43.30793433384297" lon="11.52357718012475"><ele>326.0</ele><time>2026-04-11T04:00:07Z</time></trkpt><trkpt lat="43.30799966069651" lon="11.523629124191444"><ele>326.0</ele><time>2026-04-11T04:00:09Z</time></trkpt><trkpt lat="43.30806228438558" lon="11.52367783051836"><ele>326.0</ele><time>2026-04-11T04:00:11Z</time></trkpt><trkpt lat="43.30812183023809" lon="11.523726113885216"><ele>326.0</ele><time>2026-04-11T04:00:13Z</time></trkpt><trkpt lat="43.308184615957664" lon="11.523774229530812"><ele>326.0</ele><time>2026-04-11T04:00:15Z</time></trkpt><trkpt lat="43.30825447930326" lon="11.523824049345675"><ele>326.0</ele><time>2026-04-11T04:00:17Z</time></trkpt><trkpt lat="43.30831557587808" lon="11.523866703932276"><ele>326.0</ele><time>2026-04-11T04:00:19Z</time></trkpt><trkpt lat="43.30837322125009" lon="11.523904151622311"><ele>326.0</ele><time>2026-04-11T04:00:21Z</time></trkpt><trkpt lat="43.30843940152924" lon="11.52396187724729"><ele>326.0</ele><time>2026-04-11T04:00:23Z</time></trkpt><trkpt lat="43.30850947098605" lon="11.52405360167505"><ele>326.0</ele><time>2026-04-11T04:00:25Z</time></trkpt><trkpt lat="43.308568805288544" lon="11.52414380903128"><ele>326.0</ele><time>2026-04-11T04:00:27Z</time></trkpt><trkpt lat="43.3086251028823" lon="11.52423326562194"><ele>326.0</ele><time>2026-04-11T04:00:29Z</time></trkpt><trkpt lat="43.30868282606475" lon="11.524328777411467"><ele>326.0</ele><time>2026-04-11T04:00:31Z</time></trkpt><trkpt lat="43.308737356951674" lon="11.52441794912149"><ele>326.0</ele><time>2026-04-11T04:00:33Z</time></trkpt><trkpt lat="43.30876394008935" lon="11.524497410633511"><ele>326.0</ele><time>2026-04-11T04:00:35Z</time></trkpt><trkpt lat="43.30881357545092" lon="11.52444103909293"><ele>326.0</ele><time>2026-04-11T04:05:30Z</time></trkpt><trkpt lat="43.30885138583743" lon="11.524319345459963"><ele>326.0</ele><time>2026-04-11T04:05:33Z</time></trkpt><trkpt lat="43.3088790283363" lon="11.524202866902044"><ele>326.0</ele><time>2026-04-11T04:05:35Z</time></trkpt><trkpt lat="43.3088955266682" lon="11.524072167715463"><ele>326.0</ele><time>2026-04-11T04:05:37Z</time></trkpt><trkpt lat="43.308919081553164" lon="11.52393137592758"><ele>326.0</ele><time>2026-04-11T04:05:39Z</time></trkpt><trkpt lat="43.30891150066269" lon="11.523783945345825"><ele>326.20000000000005</ele><time>2026-04-11T04:05:41Z</time></trkpt><trkpt lat="43.30888775254102" lon="11.523633880151523"><ele>326.40000000000003</ele><time>2026-04-11T04:05:43Z</time></trkpt><trkpt lat="43.308869093763846" lon="11.52347959881271"><ele>326.6</ele><time>2026-04-11T04:05:45Z</time></trkpt><trkpt lat="43.30885187272553" lon="11.523318989017099"><ele>326.8</ele><time>2026-04-11T04:05:47Z</time></trkpt><trkpt lat="43.308866787227494" lon="11.52323364100524"><ele>327.0</ele><time>2026-04-11T04:05:48Z</time></trkpt><trkpt lat="43.30890753329459" lon="11.523165441068818"><ele>325.1666666666667</ele><time>2026-04-11T04:05:49Z</time></trkpt><trkpt lat="43.308956251192626" lon="11.52310102328484"><ele>323.3333333333333</ele><time>2026-04-11T04:05:50Z</time></trkpt><trkpt lat="43.30900626288707" lon="11.523037427152468"><ele>321.5</ele><time>2026-04-11T04:05:51Z</time></trkpt><trkpt lat="43.3090630200542" lon="11.522974321309743"><ele>319.66666666666663</ele><time>2026-04-11T04:05:52Z</time></trkpt><trkpt lat="43.30912789237303" lon="11.52290644461691"><ele>317.8333333333333</ele><time>2026-04-11T04:05:53Z</time></trkpt><trkpt lat="43.30919396617506" lon="11.522845197853776"><ele>316.0</ele><time>2026-04-11T04:05:54Z</time></trkpt><trkpt lat="43.30926546270562" lon="11.52278874989378"><ele>315.0</ele><time>2026-04-11T04:05:55Z</time></trkpt><trkpt lat="43.309344800666146" lon="11.522733088849757"><ele>314.0</ele><time>2026-04-11T04:05:56Z</time></trkpt><trkpt lat="43.3094190941971" lon="11.522667907104363"><ele>313.0</ele><time>2026-04-11T04:05:57Z</time></trkpt><trkpt lat="43.30950289338766" lon="11.522617517609472"><ele>312.0</ele><time>2026-04-11T04:05:58Z</time></trkpt><trkpt lat="43.30958245782707" lon="11.522560987210396"><ele>311.0</ele><time>2026-04-11T04:05:59Z</time></trkpt><trkpt lat="43.309655330424555" lon="11.522497834608062"><ele>310.0</ele><time>2026-04-11T04:06:00Z</time></trkpt><trkpt lat="43.30971774246862" lon="11.522424962732956"><ele>309.5</ele><time>2026-04-11T04:06:01Z</time></trkpt><trkpt lat="43.30977135753267" lon="11.522344260446431"><ele>309.0</ele><time>2026-04-11T04:06:02Z</time></trkpt><trkpt lat="43.30981473429339" lon="11.522256456698846"><ele>308.5</ele><time>2026-04-11T04:06:03Z</time></trkpt><trkpt lat="43.3098518277542" lon="11.522161278808618"><ele>308.0</ele><time>2026-04-11T04:06:04Z</time></trkpt><trkpt lat="43.309874618818036" lon="11.522056127631258"><ele>307.5</ele><time>2026-04-11T04:06:04.999Z</time></trkpt><trkpt lat="43.30987993237797" lon="11.52195127893789"><ele>307.0</ele><time>2026-04-11T04:06:05.999Z</time></trkpt><trkpt lat="43.309879451864134" lon="11.521840842666254"><ele>306.66666666666663</ele><time>2026-04-11T04:06:06.999Z</time></trkpt><trkpt lat="43.30987113669932" lon="11.521732809296305"><ele>306.3333333333333</ele><time>2026-04-11T04:06:07.999Z</time></trkpt><trkpt lat="43.30984767323357" lon="11.521628799209552"><ele>306.0</ele><time>2026-04-11T04:06:08.999Z</time></trkpt><trkpt lat="43.309814927515134" lon="11.521526315700353"><ele>305.6666666666667</ele><time>2026-04-11T04:06:09.999Z</time></trkpt><trkpt lat="43.30977937693634" lon="11.521422847929855"><ele>305.33333333333337</ele><time>2026-04-11T04:06:10.999Z</time></trkpt><trkpt lat="43.30974406576709" lon="11.52131764145513"><ele>305.0</ele><time>2026-04-11T04:06:11.999Z</time></trkpt><trkpt lat="43.30972250231686" lon="11.52120000081798"><ele>301.6</ele><time>2026-04-11T04:06:12.999Z</time></trkpt><trkpt lat="43.30971034412879" lon="11.52107484316399"><ele>298.2</ele><time>2026-04-11T04:06:13.999Z</time></trkpt><trkpt lat="43.30970362832287" lon="11.5209429068808"><ele>294.8</ele><time>2026-04-11T04:06:14.999Z</time></trkpt><trkpt lat="43.309694399668984" lon="11.520807107476603"><ele>291.4</ele><time>2026-04-11T04:06:15.999Z</time></trkpt><trkpt lat="43.30969015630833" lon="11.520667015214206"><ele>288.0</ele><time>2026-04-11T04:06:16.999Z</time></trkpt><trkpt lat="43.3096892839407" lon="11.520523698071967"><ele>289.6</ele><time>2026-04-11T04:06:17.999Z</time></trkpt><trkpt lat="43.309682422043444" lon="11.520374849987768"><ele>291.20000000000005</ele><time>2026-04-11T04:06:18.999Z</time></trkpt><trkpt lat="43.30966763411975" lon="11.520224258319146"><ele>292.8</ele><time>2026-04-11T04:06:19.999Z</time></trkpt><trkpt lat="43.30965177921564" lon="11.520074930388805"><ele>294.40000000000003</ele><time>2026-04-11T04:06:20.999Z</time></trkpt><trkpt lat="43.30964616132147" lon="11.519922382834968"><ele>296.0</ele><time>2026-04-11T04:06:21.999Z</time></trkpt><trkpt lat="43.30966272604613" lon="11.51976910550777"><ele>296.0</ele><time>2026-04-11T04:06:22.999Z</time></trkpt><trkpt lat="43.30970250808926" lon="11.51962047188134"><ele>296.0</ele><time>2026-04-11T04:06:24Z</time></trkpt><trkpt lat="43.309753272579904" lon="11.519484285422733"><ele>296.0</ele><time>2026-04-11T04:06:25Z</time></trkpt><trkpt lat="43.30980372781015" lon="11.519353920507418"><ele>296.0</ele><time>2026-04-11T04:06:26Z</time></trkpt><trkpt lat="43.309856585196734" lon="11.519229901712013"><ele>296.0</ele><time>2026-04-11T04:06:27Z</time></trkpt><trkpt lat="43.30989687956124" lon="11.519105119329726"><ele>296.0</ele><time>2026-04-11T04:06:28Z</time></trkpt><trkpt lat="43.30992762473233" lon="11.518980121257494"><ele>296.0</ele><time>2026-04-11T04:06:29Z</time></trkpt><trkpt lat="43.30994637266988" lon="11.51885278445393"><ele>296.0</ele><time>2026-04-11T04:06:30Z</time></trkpt><trkpt lat="43.30995161892037" lon="11.518727285425395"><ele>296.0</ele><time>2026-04-11T04:06:31Z</time></trkpt><trkpt lat="43.30994580990487" lon="11.51860365884455"><ele>296.0</ele><time>2026-04-11T04:06:32Z</time></trkpt><trkpt lat="43.30992573221248" lon="11.518485370522782"><ele>295.83333333333337</ele><time>2026-04-11T04:06:33Z</time></trkpt><trkpt lat="43.30989722255057" lon="11.518376294213422"><ele>295.6666666666667</ele><time>2026-04-11T04:06:34Z</time></trkpt><trkpt lat="43.309869120851495" lon="11.518267910021144"><ele>295.5</ele><time>2026-04-11T04:06:35Z</time></trkpt><trkpt lat="43.30983646494947" lon="11.518164068828115"><ele>295.3333333333333</ele><time>2026-04-11T04:06:36Z</time></trkpt><trkpt lat="43.30980268447498" lon="11.518062894370736"><ele>295.16666666666663</ele><time>2026-04-11T04:06:37Z</time></trkpt><trkpt lat="43.30977105330265" lon="11.51796320074198"><ele>295.0</ele><time>2026-04-11T04:06:38Z</time></trkpt><trkpt lat="43.30973160440829" lon="11.517868518461517"><ele>294.16666666666663</ele><time>2026-04-11T04:06:39Z</time></trkpt><trkpt lat="43.30968252920088" lon="11.517784809822011"><ele>293.3333333333333</ele><time>2026-04-11T04:06:40Z</time></trkpt><trkpt lat="43.30962805227841" lon="11.517705372645915"><ele>292.5</ele><time>2026-04-11T04:06:41Z</time></trkpt><trkpt lat="43.30957161600795" lon="11.517627718095"><ele>291.6666666666667</ele><time>2026-04-11T04:06:42Z</time></trkpt><trkpt lat="43.30951110646543" lon="11.517556293041354"><ele>290.83333333333337</ele><time>2026-04-11T04:06:43Z</time></trkpt><trkpt lat="43.309445670121136" lon="11.517490531428594"><ele>290.0</ele><time>2026-04-11T04:06:44Z</time></trkpt><trkpt lat="43.309382576322065" lon="11.517422877458353"><ele>290.0</ele><time>2026-04-11T04:06:45Z</time></trkpt><trkpt lat="43.30932073872673" lon="11.51734960710397"><ele>290.0</ele><time>2026-04-11T04:06:46Z</time></trkpt><trkpt lat="43.30926825226488" lon="11.517270107249892"><ele>290.0</ele><time>2026-04-11T04:06:47Z</time></trkpt><trkpt lat="43.309226384668655" lon="11.517183034371893"><ele>290.0</ele><time>2026-04-11T04:06:48Z</time></trkpt><trkpt lat="43.309195050531926" lon="11.517094232616664"><ele>290.0</ele><time>2026-04-11T04:06:49Z</time></trkpt><trkpt lat="43.30917498045462" lon="11.517004346984574"><ele>290.0</ele><time>2026-04-11T04:06:50Z</time></trkpt><trkpt lat="43.30916596733253" lon="11.516916266567453"><ele>290.0</ele><time>2026-04-11T04:06:51Z</time></trkpt><trkpt lat="43.30916739768923" lon="11.516829026358053"><ele>291.0</ele><time>2026-04-11T04:06:52Z</time></trkpt><trkpt lat="43.30920730753852" lon="11.516672006493904"><ele>292.0</ele><time>2026-04-11T04:06:54Z</time></trkpt><trkpt lat="43.30928466187883" lon="11.516554101143075"><ele>293.0</ele><time>2026-04-11T04:06:56Z</time></trkpt><trkpt lat="43.30935999282195" lon="11.516434833345045"><ele>294.0</ele><time>2026-04-11T04:06:58Z</time></trkpt><trkpt lat="43.30944906410417" lon="11.516328747414116"><ele>294.0</ele><time>2026-04-11T04:07:00Z</time></trkpt><trkpt lat="43.30949380913128" lon="11.516266165030114"><ele>294.0</ele><time>2026-04-11T04:07:01Z</time></trkpt><trkpt lat="43.30954447229669" lon="11.51620560869795"><ele>294.0</ele><time>2026-04-11T04:07:02Z</time></trkpt><trkpt lat="43.309593858588414" lon="11.516142509042266"><ele>294.0</ele><time>2026-04-11T04:07:03Z</time></trkpt><trkpt lat="43.30964631084708" lon="11.516072609759812"><ele>294.0</ele><time>2026-04-11T04:07:04Z</time></trkpt><trkpt lat="43.309698971365854" lon="11.516003783363109"><ele>294.0</ele><time>2026-04-11T04:07:05Z</time></trkpt><trkpt lat="43.30975408419944" lon="11.515934023795475"><ele>294.0</ele><time>2026-04-11T04:07:06Z</time></trkpt><trkpt lat="43.30981195258662" lon="11.515861373200442"><ele>293.1666666666667</ele><time>2026-04-11T04:07:07Z</time></trkpt><trkpt lat="43.30987459593251" lon="11.515784708468981"><ele>292.3333333333333</ele><time>2026-04-11T04:07:08Z</time></trkpt><trkpt lat="43.309933204000075" lon="11.515708503905477"><ele>291.5</ele><time>2026-04-11T04:07:09Z</time></trkpt><trkpt lat="43.30999520128895" lon="11.51563319755792"><ele>290.66666666666663</ele><time>2026-04-11T04:07:10Z</time></trkpt><trkpt lat="43.31006383086429" lon="11.515562637381223"><ele>289.8333333333333</ele><time>2026-04-11T04:07:11Z</time></trkpt><trkpt lat="43.31014148016772" lon="11.515497144358472"><ele>289.0</ele><time>2026-04-11T04:07:12Z</time></trkpt><trkpt lat="43.310224541796764" lon="11.5154398462017"><ele>287.8</ele><time>2026-04-11T04:07:13Z</time></trkpt><trkpt lat="43.31031165002884" lon="11.515388982585575"><ele>286.59999999999997</ele><time>2026-04-11T04:07:14Z</time></trkpt><trkpt lat="43.310399865484754" lon="11.515349125317728"><ele>285.4</ele><time>2026-04-11T04:07:15Z</time></trkpt><trkpt lat="43.31049242743642" lon="11.515314512793257"><ele>284.2</ele><time>2026-04-11T04:07:16Z</time></trkpt><trkpt lat="43.31058584279784" lon="11.515282559554128"><ele>283.0</ele><time>2026-04-11T04:07:17Z</time></trkpt><trkpt lat="43.310679758297496" lon="11.515252185042693"><ele>283.0</ele><time>2026-04-11T04:07:18Z</time></trkpt><trkpt lat="43.3107743398355" lon="11.51522198980008"><ele>283.0</ele><time>2026-04-11T04:07:19Z</time></trkpt><trkpt lat="43.310863809517606" lon="11.515196929391333"><ele>283.0</ele><time>2026-04-11T04:07:20Z</time></trkpt><trkpt lat="43.31095181380596" lon="11.51517787368615"><ele>283.0</ele><time>2026-04-11T04:07:21Z</time></trkpt><trkpt lat="43.31103398815752" lon="11.515165415133374"><ele>283.0</ele><time>2026-04-11T04:07:22Z</time></trkpt><trkpt lat="43.31111246812828" lon="11.515156545937272"><ele>283.0</ele><time>2026-04-11T04:07:23Z</time></trkpt><trkpt lat="43.311187112224495" lon="11.515174411608783"><ele>283.0</ele><time>2026-04-11T04:07:24Z</time></trkpt><trkpt lat="43.311257406992844" lon="11.51517484089577"><ele>283.0</ele><time>2026-04-11T04:07:25Z</time></trkpt><trkpt lat="43.31132464008549" lon="11.515174401684483"><ele>283.0</ele><time>2026-04-11T04:07:26Z</time></trkpt><trkpt lat="43.31138880371468" lon="11.515153172854006"><ele>283.0</ele><time>2026-04-11T04:07:27Z</time></trkpt><trkpt lat="43.311507800603295" lon="11.515161239552583"><ele>283.0</ele><time>2026-04-11T04:07:29Z</time></trkpt><trkpt lat="43.31161788695121" lon="11.515160694476647"><ele>283.0</ele><time>2026-04-11T04:07:31Z</time></trkpt><trkpt lat="43.31172733929687" lon="11.51516121897598"><ele>284.6</ele><time>2026-04-11T04:07:33Z</time></trkpt><trkpt lat="43.31183485823307" lon="11.515156889740227"><ele>286.20000000000005</ele><time>2026-04-11T04:07:35Z</time></trkpt><trkpt lat="43.31193194527323" lon="11.515112926303933"><ele>287.8</ele><time>2026-04-11T04:07:37Z</time></trkpt><trkpt lat="43.31201343850569" lon="11.515042269776508"><ele>289.40000000000003</ele><time>2026-04-11T04:07:39Z</time></trkpt><trkpt lat="43.31208538697429" lon="11.514961568555055"><ele>291.0</ele><time>2026-04-11T04:07:41Z</time></trkpt><trkpt lat="43.3121355944205" lon="11.5148810591414"><ele>291.0</ele><time>2026-04-11T04:07:43Z</time></trkpt><trkpt lat="43.31217074901794" lon="11.514805309891056"><ele>291.0</ele><time>2026-04-11T04:07:45Z</time></trkpt><trkpt lat="43.31220200862732" lon="11.514727051965483"><ele>291.0</ele><time>2026-04-11T04:07:47Z</time></trkpt><trkpt lat="43.31224134176762" lon="11.514648083254688"><ele>291.0</ele><time>2026-04-11T04:07:49Z</time></trkpt><trkpt lat="43.31229342359808" lon="11.514541356300887"><ele>291.0</ele><time>2026-04-11T04:07:52Z</time></trkpt><trkpt lat="43.31232541546994" lon="11.514464288132896"><ele>291.0</ele><time>2026-04-11T04:07:54Z</time></trkpt><trkpt lat="43.3123631669691" lon="11.514393234130537"><ele>291.0</ele><time>2026-04-11T04:07:56Z</time></trkpt><trkpt lat="43.31240783177742" lon="11.514295839706376"><ele>292.0</ele><time>2026-04-11T04:07:59Z</time></trkpt><trkpt lat="43.31246979318591" lon="11.514233788616162"><ele>293.0</ele><time>2026-04-11T04:08:02Z</time></trkpt><trkpt lat="43.312543376527614" lon="11.514163330892774"><ele>294.0</ele><time>2026-04-11T04:08:05Z</time></trkpt><trkpt lat="43.312602218253254" lon="11.514114372958689"><ele>295.0</ele><time>2026-04-11T04:08:07Z</time></trkpt><trkpt lat="43.31267571539125" lon="11.514045809203356"><ele>296.0</ele><time>2026-04-11T04:08:09Z</time></trkpt><trkpt lat="43.31274446643086" lon="11.513999807178342"><ele>297.0</ele><time>2026-04-11T04:08:11Z</time></trkpt><trkpt lat="43.31282277229462" lon="11.5139490889969"><ele>297.0</ele><time>2026-04-11T04:08:13Z</time></trkpt><trkpt lat="43.31288809902923" lon="11.513893359623422"><ele>297.0</ele><time>2026-04-11T04:08:15Z</time></trkpt><trkpt lat="43.31298880070117" lon="11.513862373610134"><ele>297.0</ele><time>2026-04-11T04:08:17.999Z</time></trkpt><trkpt lat="43.313056244981496" lon="11.51385777829387"><ele>297.0</ele><time>2026-04-11T04:08:19.999Z</time></trkpt><trkpt lat="43.31312826449549" lon="11.513844632747974"><ele>297.0</ele><time>2026-04-11T04:08:22.999Z</time></trkpt><trkpt lat="43.313202788190324" lon="11.513871750936062"><ele>297.0</ele><time>2026-04-11T04:08:25.999Z</time></trkpt><trkpt lat="43.313284588808834" lon="11.513880616920975"><ele>297.3333333333333</ele><time>2026-04-11T04:08:28.999Z</time></trkpt><trkpt lat="43.313360568319005" lon="11.513905639737123"><ele>297.6666666666667</ele><time>2026-04-11T04:08:32Z</time></trkpt><trkpt lat="43.3134290546178" lon="11.51394958362522"><ele>298.0</ele><time>2026-04-11T04:08:35Z</time></trkpt><trkpt lat="43.31349630695982" lon="11.513982446243284"><ele>298.33333333333337</ele><time>2026-04-11T04:08:38Z</time></trkpt><trkpt lat="43.313559191486384" lon="11.51402192177151"><ele>298.6666666666667</ele><time>2026-04-11T04:08:40Z</time></trkpt><trkpt lat="43.31362677972323" lon="11.514074094379334"><ele>299.0</ele><time>2026-04-11T04:08:43Z</time></trkpt><trkpt lat="43.313705742703426" lon="11.514131635817769"><ele>299.0</ele><time>2026-04-11T04:08:46Z</time></trkpt><trkpt lat="43.3137724351764" lon="11.514209816846897"><ele>299.0</ele><time>2026-04-11T04:08:49Z</time></trkpt><trkpt lat="43.31383972962488" lon="11.514271516663388"><ele>299.0</ele><time>2026-04-11T04:08:52Z</time></trkpt><trkpt lat="43.31389674076765" lon="11.51433211048106"><ele>299.0</ele><time>2026-04-11T04:08:54Z</time></trkpt><trkpt lat="43.31394706865724" lon="11.514396001077369"><ele>299.0</ele><time>2026-04-11T04:08:56Z</time></trkpt><trkpt lat="43.313995404694666" lon="11.514470957794497"><ele>299.0</ele><time>2026-04-11T04:08:58Z</time></trkpt><trkpt lat="43.314045597496545" lon="11.514539452259623"><ele>299.0</ele><time>2026-04-11T04:09:00Z</time></trkpt><trkpt lat="43.314107677621436" lon="11.514605458478847"><ele>299.0</ele><time>2026-04-11T04:09:02Z</time></trkpt><trkpt lat="43.31416936255288" lon="11.514665767473206"><ele>299.0</ele><time>2026-04-11T04:09:04Z</time></trkpt><trkpt lat="43.31425417537478" lon="11.514669313203292"><ele>299.0</ele><time>2026-04-11T04:09:06Z</time></trkpt><trkpt lat="43.31433774813646" lon="11.51466495798295"><ele>299.0</ele><time>2026-04-11T04:09:08Z</time></trkpt><trkpt lat="43.314412173945534" lon="11.514606377861677"><ele>299.0</ele><time>2026-04-11T04:09:10Z</time></trkpt><trkpt lat="43.31448801919417" lon="11.514548846037913"><ele>299.2</ele><time>2026-04-11T04:09:12Z</time></trkpt><trkpt lat="43.314565091165456" lon="11.514477903180067"><ele>299.4</ele><time>2026-04-11T04:09:14Z</time></trkpt><trkpt lat="43.31461928905743" lon="11.514354067152402"><ele>299.6</ele><time>2026-04-11T04:09:16Z</time></trkpt><trkpt lat="43.31467689389934" lon="11.514236646431845"><ele>299.8</ele><time>2026-04-11T04:09:18Z</time></trkpt><trkpt lat="43.31472672510872" lon="11.514099378164557"><ele>300.0</ele><time>2026-04-11T04:09:20Z</time></trkpt><trkpt lat="43.31480901967814" lon="11.513973212819163"><ele>300.6666666666667</ele><time>2026-04-11T04:09:22Z</time></trkpt><trkpt lat="43.314869162995876" lon="11.513925753410687"><ele>301.3333333333333</ele><time>2026-04-11T04:09:23Z</time></trkpt><trkpt lat="43.31493928060831" lon="11.513898246713548"><ele>302.0</ele><time>2026-04-11T04:09:24Z</time></trkpt><trkpt lat="43.31501478262911" lon="11.513877660528035"><ele>302.66666666666663</ele><time>2026-04-11T04:09:25Z</time></trkpt><trkpt lat="43.315093568355756" lon="11.513867948025327"><ele>303.3333333333333</ele><time>2026-04-11T04:09:26Z</time></trkpt><trkpt lat="43.31517487777566" lon="11.51388903547944"><ele>304.0</ele><time>2026-04-11T04:09:27Z</time></trkpt><trkpt lat="43.315258648321475" lon="11.513867854360281"><ele>304.0</ele><time>2026-04-11T04:09:28Z</time></trkpt><trkpt lat="43.31534482296364" lon="11.513880974833718"><ele>304.0</ele><time>2026-04-11T04:09:29Z</time></trkpt><trkpt lat="43.31543389613075" lon="11.513905845932978"><ele>304.0</ele><time>2026-04-11T04:09:30Z</time></trkpt><trkpt lat="43.315514232193074" lon="11.513958135259143"><ele>304.0</ele><time>2026-04-11T04:09:31Z</time></trkpt><trkpt lat="43.31556509997503" lon="11.514058921544075"><ele>304.0</ele><time>2026-04-11T04:09:32Z</time></trkpt><trkpt lat="43.31555137192396" lon="11.51418573600761"><ele>304.0</ele><time>2026-04-11T04:09:33Z</time></trkpt><trkpt lat="43.31556085384587" lon="11.51428230804597"><ele>304.0</ele><time>2026-04-11T04:09:34Z</time></trkpt><trkpt lat="43.31556961221366" lon="11.51437714244883"><ele>304.0</ele><time>2026-04-11T04:09:35Z</time></trkpt><trkpt lat="43.31558486152555" lon="11.514469500347067"><ele>304.0</ele><time>2026-04-11T04:09:36Z</time></trkpt><trkpt lat="43.315590101497946" lon="11.514558897507625"><ele>304.0</ele><time>2026-04-11T04:09:37Z</time></trkpt><trkpt lat="43.31562069625879" lon="11.514728783458727"><ele>304.0</ele><time>2026-04-11T04:09:39Z</time></trkpt><trkpt lat="43.31564252877764" lon="11.514810308493047"><ele>304.0</ele><time>2026-04-11T04:09:40Z</time></trkpt><trkpt lat="43.315701030372416" lon="11.514960798714375"><ele>302.75</ele><time>2026-04-11T04:09:42Z</time></trkpt><trkpt lat="43.31577387843443" lon="11.515091663621014"><ele>301.5</ele><time>2026-04-11T04:09:44Z</time></trkpt><trkpt lat="43.315863684179384" lon="11.515188056815596"><ele>300.25</ele><time>2026-04-11T04:09:46Z</time></trkpt><trkpt lat="43.31596277729696" lon="11.515263639396553"><ele>299.0</ele><time>2026-04-11T04:09:48Z</time></trkpt><trkpt lat="43.31606883329731" lon="11.515313656333575"><ele>299.0</ele><time>2026-04-11T04:09:50Z</time></trkpt><trkpt lat="43.31618093762332" lon="11.515312379175228"><ele>299.0</ele><time>2026-04-11T04:09:52Z</time></trkpt><trkpt lat="43.316292689275464" lon="11.515283083615184"><ele>299.0</ele><time>2026-04-11T04:09:54Z</time></trkpt><trkpt lat="43.316407620108414" lon="11.515250438401694"><ele>299.0</ele><time>2026-04-11T04:09:56Z</time></trkpt><trkpt lat="43.316525373592874" lon="11.515213806019245"><ele>299.25</ele><time>2026-04-11T04:09:58Z</time></trkpt><trkpt lat="43.3166399270562" lon="11.51515847711151"><ele>299.5</ele><time>2026-04-11T04:10:00Z</time></trkpt><trkpt lat="43.31675267195918" lon="11.51510731487587"><ele>299.75</ele><time>2026-04-11T04:10:02Z</time></trkpt><trkpt lat="43.316868691618396" lon="11.515054602197553"><ele>300.0</ele><time>2026-04-11T04:10:04Z</time></trkpt><trkpt lat="43.31698115729125" lon="11.514997073797288"><ele>300.0</ele><time>2026-04-11T04:10:06Z</time></trkpt><trkpt lat="43.31708795645999" lon="11.514953251556843"><ele>300.0</ele><time>2026-04-11T04:10:08Z</time></trkpt><trkpt lat="43.3171969123954" lon="11.514910650357661"><ele>300.0</ele><time>2026-04-11T04:10:10Z</time></trkpt><trkpt lat="43.3173049768224" lon="11.514859082589124"><ele>300.0</ele><time>2026-04-11T04:10:12Z</time></trkpt><trkpt lat="43.31740602027797" lon="11.514800942641028"><ele>300.0</ele><time>2026-04-11T04:10:14Z</time></trkpt><trkpt lat="43.317484816629886" lon="11.514697854109007"><ele>300.1666666666667</ele><time>2026-04-11T04:10:16Z</time></trkpt><trkpt lat="43.31755603155265" lon="11.514568726417398"><ele>300.3333333333333</ele><time>2026-04-11T04:10:18Z</time></trkpt><trkpt lat="43.317616842617895" lon="11.514417107620833"><ele>300.5</ele><time>2026-04-11T04:10:20Z</time></trkpt><trkpt lat="43.31763666446" lon="11.5143337646075"><ele>300.66666666666663</ele><time>2026-04-11T04:10:21Z</time></trkpt><trkpt lat="43.3176614337826" lon="11.514250384529262"><ele>300.8333333333333</ele><time>2026-04-11T04:10:22Z</time></trkpt><trkpt lat="43.317687791791954" lon="11.514163874217358"><ele>301.0</ele><time>2026-04-11T04:10:22.999Z</time></trkpt><trkpt lat="43.317708149272974" lon="11.514070222047879"><ele>301.0</ele><time>2026-04-11T04:10:23.999Z</time></trkpt><trkpt lat="43.31772395568367" lon="11.513971239268436"><ele>301.0</ele><time>2026-04-11T04:10:24.999Z</time></trkpt><trkpt lat="43.31773838806882" lon="11.513869209443234"><ele>301.0</ele><time>2026-04-11T04:10:25.999Z</time></trkpt><trkpt lat="43.317756597162116" lon="11.513769504428204"><ele>301.0</ele><time>2026-04-11T04:10:26.999Z</time></trkpt><trkpt lat="43.31778656946168" lon="11.513675041188565"><ele>301.0</ele><time>2026-04-11T04:10:27.999Z</time></trkpt><trkpt lat="43.31783141729909" lon="11.513582816175418"><ele>301.0</ele><time>2026-04-11T04:10:28.999Z</time></trkpt><trkpt lat="43.31788947979269" lon="11.513505587139091"><ele>300.5</ele><time>2026-04-11T04:10:29.999Z</time></trkpt><trkpt lat="43.31797056048206" lon="11.513469527685135"><ele>300.0</ele><time>2026-04-11T04:10:30.999Z</time></trkpt><trkpt lat="43.318048568330305" lon="11.513438674324226"><ele>299.5</ele><time>2026-04-11T04:10:31.999Z</time></trkpt><trkpt lat="43.31812335699959" lon="11.513394840710758"><ele>299.0</ele><time>2026-04-11T04:10:32.999Z</time></trkpt><trkpt lat="43.31820657517951" lon="11.513383440100723"><ele>298.5</ele><time>2026-04-11T04:10:33.999Z</time></trkpt><trkpt lat="43.31829006234804" lon="11.513376183756689"><ele>298.0</ele><time>2026-04-11T04:10:34.999Z</time></trkpt><trkpt lat="43.31837383915106" lon="11.51337962590614"><ele>298.0</ele><time>2026-04-11T04:10:36Z</time></trkpt><trkpt lat="43.31845335604178" lon="11.513402916003088"><ele>298.0</ele><time>2026-04-11T04:10:37Z</time></trkpt><trkpt lat="43.31853189379955" lon="11.51344534110653"><ele>298.0</ele><time>2026-04-11T04:10:38Z</time></trkpt><trkpt lat="43.318602910868506" lon="11.513494192592605"><ele>298.0</ele><time>2026-04-11T04:10:39Z</time></trkpt><trkpt lat="43.31866382458153" lon="11.513561474239483"><ele>298.0</ele><time>2026-04-11T04:10:40Z</time></trkpt><trkpt lat="43.31870905192971" lon="11.513649652038541"><ele>298.0</ele><time>2026-04-11T04:10:41Z</time></trkpt><trkpt lat="43.31874261134406" lon="11.513747850643893"><ele>298.3333333333333</ele><time>2026-04-11T04:10:42Z</time></trkpt><trkpt lat="43.318760217548316" lon="11.513855131938017"><ele>298.66666666666663</ele><time>2026-04-11T04:10:43Z</time></trkpt><trkpt lat="43.31876377610935" lon="11.513964579428913"><ele>299.0</ele><time>2026-04-11T04:10:44Z</time></trkpt><trkpt lat="43.31875509464631" lon="11.514074838121003"><ele>299.3333333333333</ele><time>2026-04-11T04:10:45Z</time></trkpt><trkpt lat="43.318732793556386" lon="11.514184361511624"><ele>299.6666666666667</ele><time>2026-04-11T04:10:46Z</time></trkpt><trkpt lat="43.31869577368628" lon="11.514289498492179"><ele>300.0</ele><time>2026-04-11T04:10:47Z</time></trkpt><trkpt lat="43.31864120515638" lon="11.514385149678404"><ele>300.0</ele><time>2026-04-11T04:10:48Z</time></trkpt><trkpt lat="43.318572596292604" lon="11.514466740722343"><ele>300.0</ele><time>2026-04-11T04:10:49Z</time></trkpt><trkpt lat="43.31849849070877" lon="11.51453743447026"><ele>300.0</ele><time>2026-04-11T04:10:50Z</time></trkpt><trkpt lat="43.318426171852295" lon="11.5146046002588"><ele>300.0</ele><time>2026-04-11T04:10:51Z</time></trkpt><trkpt lat="43.31836429694669" lon="11.514688073436139"><ele>300.0</ele><time>2026-04-11T04:10:52Z</time></trkpt><trkpt lat="43.31831894494774" lon="11.514786064316088"><ele>300.0</ele><time>2026-04-11T04:10:53Z</time></trkpt><trkpt lat="43.31831862983218" lon="11.514897839216207"><ele>299.6666666666667</ele><time>2026-04-11T04:10:54Z</time></trkpt><trkpt lat="43.31835001249772" lon="11.514999859112512"><ele>299.3333333333333</ele><time>2026-04-11T04:10:55Z</time></trkpt><trkpt lat="43.31844343456317" lon="11.515036397315518"><ele>299.0</ele><time>2026-04-11T04:10:56Z</time></trkpt><trkpt lat="43.31852949455005" lon="11.515019958348935"><ele>298.66666666666663</ele><time>2026-04-11T04:10:57Z</time></trkpt><trkpt lat="43.31859809965517" lon="11.514952822886842"><ele>298.3333333333333</ele><time>2026-04-11T04:10:58Z</time></trkpt><trkpt lat="43.31863006185924" lon="11.514846471415515"><ele>298.0</ele><time>2026-04-11T04:10:59Z</time></trkpt><trkpt lat="43.3186842138285" lon="11.514773413893678"><ele>298.0</ele><time>2026-04-11T04:11:00Z</time></trkpt><trkpt lat="43.318724209054224" lon="11.514683254596509"><ele>298.0</ele><time>2026-04-11T04:11:01Z</time></trkpt><trkpt lat="43.31877230018468" lon="11.514596890696376"><ele>298.0</ele><time>2026-04-11T04:11:02Z</time></trkpt><trkpt lat="43.3188197182784" lon="11.51451217344181"><ele>298.0</ele><time>2026-04-11T04:11:03Z</time></trkpt><trkpt lat="43.31887236581664" lon="11.514434328306137"><ele>298.0</ele><time>2026-04-11T04:11:04Z</time></trkpt><trkpt lat="43.3189226382778" lon="11.514350672892334"><ele>298.0</ele><time>2026-04-11T04:11:05Z</time></trkpt><trkpt lat="43.318965418681906" lon="11.514261929007958"><ele>297.16666666666663</ele><time>2026-04-11T04:11:06Z</time></trkpt><trkpt lat="43.318997030879565" lon="11.514167046510696"><ele>296.3333333333333</ele><time>2026-04-11T04:11:07Z</time></trkpt><trkpt lat="43.319015526456795" lon="11.51406325873465"><ele>295.5</ele><time>2026-04-11T04:11:08Z</time></trkpt><trkpt lat="43.319017740530185" lon="11.513952793845995"><ele>294.6666666666667</ele><time>2026-04-11T04:11:09Z</time></trkpt><trkpt lat="43.319011280983744" lon="11.513841002515985"><ele>293.83333333333337</ele><time>2026-04-11T04:11:10Z</time></trkpt><trkpt lat="43.31900067447073" lon="11.513730465995188"><ele>293.0</ele><time>2026-04-11T04:11:11Z</time></trkpt><trkpt lat="43.31899691750611" lon="11.513609266605162"><ele>292.4</ele><time>2026-04-11T04:11:12Z</time></trkpt><trkpt lat="43.318992756358725" lon="11.51348437171153"><ele>291.8</ele><time>2026-04-11T04:11:13Z</time></trkpt><trkpt lat="43.31900397021414" lon="11.513353202189029"><ele>291.2</ele><time>2026-04-11T04:11:14Z</time></trkpt><trkpt lat="43.31904076224724" lon="11.513218038988109"><ele>290.6</ele><time>2026-04-11T04:11:15Z</time></trkpt><trkpt lat="43.319104590131076" lon="11.513087363168937"><ele>290.0</ele><time>2026-04-11T04:11:16Z</time></trkpt><trkpt lat="43.3191796136395" lon="11.512952672357853"><ele>287.75</ele><time>2026-04-11T04:11:17Z</time></trkpt><trkpt lat="43.319242358921386" lon="11.512795957951917"><ele>285.5</ele><time>2026-04-11T04:11:18Z</time></trkpt><trkpt lat="43.3192722651686" lon="11.512610399762998"><ele>283.25</ele><time>2026-04-11T04:11:19Z</time></trkpt><trkpt lat="43.3192733852544" lon="11.512412578952171"><ele>281.0</ele><time>2026-04-11T04:11:20Z</time></trkpt><trkpt lat="43.31926340010719" lon="11.512208597796516"><ele>279.0</ele><time>2026-04-11T04:11:21Z</time></trkpt><trkpt lat="43.319247074316486" lon="11.512008172065043"><ele>277.0</ele><time>2026-04-11T04:11:22Z</time></trkpt><trkpt lat="43.319221680106395" lon="11.511815331194322"><ele>275.0</ele><time>2026-04-11T04:11:23Z</time></trkpt><trkpt lat="43.319192171904994" lon="11.511629802403805"><ele>273.0</ele><time>2026-04-11T04:11:24Z</time></trkpt><trkpt lat="43.31915529433747" lon="11.511447711786957"><ele>273.0</ele><time>2026-04-11T04:11:25Z</time></trkpt><trkpt lat="43.319124069400104" lon="11.511266281605629"><ele>273.0</ele><time>2026-04-11T04:11:26Z</time></trkpt><trkpt lat="43.319109600521216" lon="11.51107187985665"><ele>273.0</ele><time>2026-04-11T04:11:27Z</time></trkpt><trkpt lat="43.319120171707944" lon="11.510870595748766"><ele>273.0</ele><time>2026-04-11T04:11:28Z</time></trkpt><trkpt lat="43.319156525588305" lon="11.510676155077679"><ele>270.75</ele><time>2026-04-11T04:11:29Z</time></trkpt><trkpt lat="43.31923625558118" lon="11.510516632156055"><ele>268.5</ele><time>2026-04-11T04:11:30Z</time></trkpt><trkpt lat="43.31932389995517" lon="11.510351633311247"><ele>266.25</ele><time>2026-04-11T04:11:31Z</time></trkpt><trkpt lat="43.319410509153805" lon="11.510186228378577"><ele>264.0</ele><time>2026-04-11T04:11:32Z</time></trkpt><trkpt lat="43.319518803851615" lon="11.510035743721044"><ele>260.6666666666667</ele><time>2026-04-11T04:11:33Z</time></trkpt><trkpt lat="43.31961814681513" lon="11.509875817596416"><ele>257.33333333333337</ele><time>2026-04-11T04:11:34Z</time></trkpt><trkpt lat="43.319705248489235" lon="11.509700387334917"><ele>254.0</ele><time>2026-04-11T04:11:35Z</time></trkpt><trkpt lat="43.31977211907143" lon="11.509510073293887"><ele>251.66666666666669</ele><time>2026-04-11T04:11:36Z</time></trkpt><trkpt lat="43.319819174434585" lon="11.50930739566403"><ele>249.33333333333331</ele><time>2026-04-11T04:11:37Z</time></trkpt><trkpt lat="43.31985036295196" lon="11.509096069624787"><ele>247.0</ele><time>2026-04-11T04:11:38Z</time></trkpt><trkpt lat="43.319858969774984" lon="11.508879508832171"><ele>247.0</ele><time>2026-04-11T04:11:39Z</time></trkpt><trkpt lat="43.31986728721416" lon="11.508667330627798"><ele>247.0</ele><time>2026-04-11T04:11:40Z</time></trkpt><trkpt lat="43.319857990217336" lon="11.508453925004364"><ele>247.0</ele><time>2026-04-11T04:11:41Z</time></trkpt><trkpt lat="43.31984100134869" lon="11.50824690149345"><ele>247.0</ele><time>2026-04-11T04:11:42Z</time></trkpt><trkpt lat="43.31981815161051" lon="11.508050047814598"><ele>247.0</ele><time>2026-04-11T04:11:43Z</time></trkpt><trkpt lat="43.319796139337434" lon="11.507856296294586"><ele>247.0</ele><time>2026-04-11T04:11:44Z</time></trkpt><trkpt lat="43.31977562447988" lon="11.50766861894873"><ele>247.0</ele><time>2026-04-11T04:11:45Z</time></trkpt><trkpt lat="43.31975870003635" lon="11.50748520197558"><ele>246.5</ele><time>2026-04-11T04:11:46Z</time></trkpt><trkpt lat="43.31974491772623" lon="11.507307159197804"><ele>246.0</ele><time>2026-04-11T04:11:47Z</time></trkpt><trkpt lat="43.3197302921331" lon="11.507136676064516"><ele>245.5</ele><time>2026-04-11T04:11:48Z</time></trkpt><trkpt lat="43.31971940446962" lon="11.506976718694895"><ele>245.0</ele><time>2026-04-11T04:11:49Z</time></trkpt><trkpt lat="43.31970465009685" lon="11.506824476942064"><ele>244.8</ele><time>2026-04-11T04:11:50Z</time></trkpt><trkpt lat="43.31969337746963" lon="11.506677715047209"><ele>244.6</ele><time>2026-04-11T04:11:51Z</time></trkpt><trkpt lat="43.31967713222236" lon="11.50653428324384"><ele>244.39999999999998</ele><time>2026-04-11T04:11:52Z</time></trkpt><trkpt lat="43.31967328199451" lon="11.506398554955116"><ele>244.2</ele><time>2026-04-11T04:11:53Z</time></trkpt><trkpt lat="43.31969478250694" lon="11.506274238894745"><ele>244.0</ele><time>2026-04-11T04:11:54Z</time></trkpt><trkpt lat="43.31974285273425" lon="11.506170036454922"><ele>243.99999999999997</ele><time>2026-04-11T04:11:55Z</time></trkpt><trkpt lat="43.31980789559843" lon="11.506097891459556"><ele>244.0</ele><time>2026-04-11T04:11:56Z</time></trkpt><trkpt lat="43.319880928656836" lon="11.506054954454973"><ele>244.0</ele><time>2026-04-11T04:11:57Z</time></trkpt><trkpt lat="43.31994735163123" lon="11.50602367069753"><ele>244.0</ele><time>2026-04-11T04:11:58Z</time></trkpt><trkpt lat="43.32001124887937" lon="11.50600617663782"><ele>243.99999999999997</ele><time>2026-04-11T04:11:59Z</time></trkpt><trkpt lat="43.32007323295747" lon="11.505989772767126"><ele>244.0</ele><time>2026-04-11T04:12:00Z</time></trkpt><trkpt lat="43.3201885797443" lon="11.505953208441714"><ele>244.0</ele><time>2026-04-11T04:12:02Z</time></trkpt><trkpt lat="43.32029751639494" lon="11.50591569298257"><ele>243.99999999999997</ele><time>2026-04-11T04:12:04Z</time></trkpt><trkpt lat="43.32040269949154" lon="11.50587934666981"><ele>243.99999999999997</ele><time>2026-04-11T04:12:06Z</time></trkpt><trkpt lat="43.32050860556867" lon="11.50583821300125"><ele>244.0</ele><time>2026-04-11T04:12:08Z</time></trkpt><trkpt lat="43.32061801783264" lon="11.5057950308704"><ele>244.0</ele><time>2026-04-11T04:12:10Z</time></trkpt><trkpt lat="43.320731750098474" lon="11.505749458379265"><ele>244.75</ele><time>2026-04-11T04:12:12Z</time></trkpt><trkpt lat="43.32084656190334" lon="11.505705386869964"><ele>245.5</ele><time>2026-04-11T04:12:14Z</time></trkpt><trkpt lat="43.320961321374874" lon="11.505678702105367"><ele>246.25</ele><time>2026-04-11T04:12:16Z</time></trkpt><trkpt lat="43.321075525125195" lon="11.505690125132212"><ele>247.0</ele><time>2026-04-11T04:12:18Z</time></trkpt><trkpt lat="43.32118570580296" lon="11.50571729076926"><ele>246.99999999999997</ele><time>2026-04-11T04:12:20Z</time></trkpt><trkpt lat="43.321282918532084" lon="11.505757821177216"><ele>247.0</ele><time>2026-04-11T04:12:21.999Z</time></trkpt><trkpt lat="43.321359559805686" lon="11.505812151213682"><ele>247.0</ele><time>2026-04-11T04:12:23.999Z</time></trkpt><trkpt lat="43.321416900848924" lon="11.505865467026247"><ele>247.0</ele><time>2026-04-11T04:12:25.999Z</time></trkpt><trkpt lat="43.32149255853151" lon="11.505935655617854"><ele>246.99999999999997</ele><time>2026-04-11T04:12:28.999Z</time></trkpt><trkpt lat="43.3215477197876" lon="11.506024671267495"><ele>247.0</ele><time>2026-04-11T04:12:31.999Z</time></trkpt><trkpt lat="43.32159833991278" lon="11.50608277338486"><ele>248.14285714285717</ele><time>2026-04-11T04:12:34.999Z</time></trkpt><trkpt lat="43.32165525243115" lon="11.50616826374398"><ele>249.28571428571428</ele><time>2026-04-11T04:12:38.999Z</time></trkpt><trkpt lat="43.321703071625464" lon="11.506238694444578"><ele>250.42857142857144</ele><time>2026-04-11T04:12:42Z</time></trkpt><trkpt lat="43.32174749411985" lon="11.506313270001373"><ele>251.57142857142858</ele><time>2026-04-11T04:12:45Z</time></trkpt><trkpt lat="43.321798542504204" lon="11.506377778475024"><ele>252.71428571428572</ele><time>2026-04-11T04:12:48Z</time></trkpt><trkpt lat="43.32184707172889" lon="11.506446752444413"><ele>253.85714285714286</ele><time>2026-04-11T04:12:51Z</time></trkpt><trkpt lat="43.32189184517094" lon="11.506516164173783"><ele>255.0</ele><time>2026-04-11T04:12:54Z</time></trkpt><trkpt lat="43.32193928444951" lon="11.506580252265012"><ele>255.0</ele><time>2026-04-11T04:12:57Z</time></trkpt><trkpt lat="43.32198569983451" lon="11.506642314410511"><ele>255.00000000000003</ele><time>2026-04-11T04:13:00Z</time></trkpt><trkpt lat="43.322029913952534" lon="11.50670680511529"><ele>255.0</ele><time>2026-04-11T04:13:03Z</time></trkpt><trkpt lat="43.32207512148844" lon="11.506774863160052"><ele>255.0</ele><time>2026-04-11T04:13:06Z</time></trkpt><trkpt lat="43.32212557064727" lon="11.506847004323735"><ele>255.00000000000003</ele><time>2026-04-11T04:13:09Z</time></trkpt><trkpt lat="43.32217514905221" lon="11.506915332141226"><ele>255.0</ele><time>2026-04-11T04:13:12Z</time></trkpt><trkpt lat="43.32221826247978" lon="11.506984098257643"><ele>255.0</ele><time>2026-04-11T04:13:15Z</time></trkpt><trkpt lat="43.32226350361403" lon="11.5070493007709"><ele>257.0</ele><time>2026-04-11T04:13:18Z</time></trkpt><trkpt lat="43.3223080849981" lon="11.507114723570345"><ele>259.0</ele><time>2026-04-11T04:13:21Z</time></trkpt><trkpt lat="43.32235392868467" lon="11.507176805712158"><ele>261.0</ele><time>2026-04-11T04:13:24Z</time></trkpt><trkpt lat="43.32239845235038" lon="11.50724228194662"><ele>263.0</ele><time>2026-04-11T04:13:27Z</time></trkpt><trkpt lat="43.32244134479786" lon="11.507312071792505"><ele>265.0</ele><time>2026-04-11T04:13:30Z</time></trkpt><trkpt lat="43.322486678392245" lon="11.507374919211472"><ele>267.0</ele><time>2026-04-11T04:13:33Z</time></trkpt><trkpt lat="43.322534158202366" lon="11.507436498087799"><ele>269.0</ele><time>2026-04-11T04:13:36Z</time></trkpt><trkpt lat="43.322579989347375" lon="11.507501411929944"><ele>269.0</ele><time>2026-04-11T04:13:39Z</time></trkpt><trkpt lat="43.32263663513142" lon="11.507543753173398"><ele>269.0</ele><time>2026-04-11T04:13:42Z</time></trkpt><trkpt lat="43.32269731792764" lon="11.507583369468426"><ele>269.0</ele><time>2026-04-11T04:13:45Z</time></trkpt><trkpt lat="43.32276131200956" lon="11.50761627258737"><ele>269.0</ele><time>2026-04-11T04:13:48Z</time></trkpt><trkpt lat="43.32283115956843" lon="11.507638139906414"><ele>269.0</ele><time>2026-04-11T04:13:51Z</time></trkpt><trkpt lat="43.32290239793805" lon="11.507651731279639"><ele>269.0</ele><time>2026-04-11T04:13:54Z</time></trkpt><trkpt lat="43.32297213779784" lon="11.507666997868311"><ele>269.0</ele><time>2026-04-11T04:13:57Z</time></trkpt><trkpt lat="43.32304035606362" lon="11.50767306006519"><ele>269.8571428571429</ele><time>2026-04-11T04:14:00Z</time></trkpt><trkpt lat="43.32310994493592" lon="11.507678069847902"><ele>270.7142857142857</ele><time>2026-04-11T04:14:03Z</time></trkpt><trkpt lat="43.32317865730236" lon="11.507679999264074"><ele>271.57142857142856</ele><time>2026-04-11T04:14:06Z</time></trkpt><trkpt lat="43.32325097114765" lon="11.507675125362214"><ele>272.42857142857144</ele><time>2026-04-11T04:14:09Z</time></trkpt><trkpt lat="43.3233212230344" lon="11.507681009034156"><ele>273.2857142857143</ele><time>2026-04-11T04:14:12Z</time></trkpt><trkpt lat="43.323393981448845" lon="11.507678276219995"><ele>274.14285714285717</ele><time>2026-04-11T04:14:15Z</time></trkpt><trkpt lat="43.32346546734167" lon="11.507688279669676"><ele>275.0</ele><time>2026-04-11T04:14:17.999Z</time></trkpt><trkpt lat="43.32353687559159" lon="11.507692097793624"><ele>275.0</ele><time>2026-04-11T04:14:20.999Z</time></trkpt><trkpt lat="43.323607094881" lon="11.507710657958093"><ele>275.0</ele><time>2026-04-11T04:14:23.999Z</time></trkpt><trkpt lat="43.323675923173035" lon="11.507726694723653"><ele>275.0</ele><time>2026-04-11T04:14:26.999Z</time></trkpt><trkpt lat="43.323745035694095" lon="11.50775431733603"><ele>275.0</ele><time>2026-04-11T04:14:29.999Z</time></trkpt><trkpt lat="43.32381043019096" lon="11.507789795651366"><ele>275.0</ele><time>2026-04-11T04:14:32.999Z</time></trkpt><trkpt lat="43.323873473038404" lon="11.507838638352583"><ele>275.0</ele><time>2026-04-11T04:14:35.999Z</time></trkpt><trkpt lat="43.32393230179442" lon="11.507890709235232"><ele>275.0</ele><time>2026-04-11T04:14:38.999Z</time></trkpt><trkpt lat="43.32398229481132" lon="11.507960316653634"><ele>276.2857142857143</ele><time>2026-04-11T04:14:41.999Z</time></trkpt><trkpt lat="43.32403150566915" lon="11.508025530290558"><ele>277.57142857142856</ele><time>2026-04-11T04:14:44.999Z</time></trkpt><trkpt lat="43.324072877552354" lon="11.508099955312238"><ele>278.85714285714283</ele><time>2026-04-11T04:14:48Z</time></trkpt><trkpt lat="43.32410717671207" lon="11.508183241723318"><ele>280.1428571428571</ele><time>2026-04-11T04:14:51Z</time></trkpt><trkpt lat="43.324143821393335" lon="11.508272506671494"><ele>281.4285714285714</ele><time>2026-04-11T04:14:54Z</time></trkpt><trkpt lat="43.32418136327545" lon="11.508365407742371"><ele>282.7142857142857</ele><time>2026-04-11T04:14:57Z</time></trkpt><trkpt lat="43.32422039332063" lon="11.50845540353525"><ele>284.0</ele><time>2026-04-11T04:15:00Z</time></trkpt><trkpt lat="43.32425554068763" lon="11.508549016636124"><ele>284.0</ele><time>2026-04-11T04:15:03Z</time></trkpt><trkpt lat="43.32429127661608" lon="11.508646646369119"><ele>284.0</ele><time>2026-04-11T04:15:06Z</time></trkpt><trkpt lat="43.32433343187848" lon="11.508749046508896"><ele>284.0</ele><time>2026-04-11T04:15:09Z</time></trkpt><trkpt lat="43.324376623026794" lon="11.508855991145927"><ele>284.0</ele><time>2026-04-11T04:15:12Z</time></trkpt><trkpt lat="43.324419498280285" lon="11.508963672844676"><ele>284.0</ele><time>2026-04-11T04:15:15Z</time></trkpt><trkpt lat="43.324463553043486" lon="11.509067911457375"><ele>284.0</ele><time>2026-04-11T04:15:18Z</time></trkpt><trkpt lat="43.324513080198805" lon="11.509168221949928"><ele>284.83333333333337</ele><time>2026-04-11T04:15:21Z</time></trkpt><trkpt lat="43.32457211893816" lon="11.509255703131407"><ele>285.6666666666667</ele><time>2026-04-11T04:15:24Z</time></trkpt><trkpt lat="43.3246346288569" lon="11.509340510867315"><ele>286.5</ele><time>2026-04-11T04:15:27Z</time></trkpt><trkpt lat="43.32470543979057" lon="11.50941140068661"><ele>287.3333333333333</ele><time>2026-04-11T04:15:30Z</time></trkpt><trkpt lat="43.32476390203976" lon="11.509450603541401"><ele>288.16666666666663</ele><time>2026-04-11T04:15:32Z</time></trkpt><trkpt lat="43.324823309489865" lon="11.509482840764067"><ele>289.0</ele><time>2026-04-11T04:15:33Z</time></trkpt><trkpt lat="43.32490658474815" lon="11.509509342867817"><ele>289.0</ele><time>2026-04-11T04:15:36Z</time></trkpt><trkpt lat="43.32499619371516" lon="11.509519951163655"><ele>289.0</ele><time>2026-04-11T04:15:39Z</time></trkpt><trkpt lat="43.32506977925483" lon="11.509502501252088"><ele>289.0</ele><time>2026-04-11T04:15:41Z</time></trkpt><trkpt lat="43.32515510202572" lon="11.509502881281223"><ele>289.0</ele><time>2026-04-11T04:15:44Z</time></trkpt><trkpt lat="43.32522944577469" lon="11.509478330870458"><ele>289.0</ele><time>2026-04-11T04:15:47Z</time></trkpt><trkpt lat="43.32531446224435" lon="11.509452976649287"><ele>289.0</ele><time>2026-04-11T04:15:50Z</time></trkpt><trkpt lat="43.325376140965716" lon="11.509431010948868"><ele>289.0</ele><time>2026-04-11T04:15:52Z</time></trkpt><trkpt lat="43.32544093642243" lon="11.509404550414741"><ele>289.0</ele><time>2026-04-11T04:15:54Z</time></trkpt><trkpt lat="43.32552785672435" lon="11.509358530972353"><ele>289.0</ele><time>2026-04-11T04:15:56Z</time></trkpt><trkpt lat="43.32559449359118" lon="11.509314517786764"><ele>289.0</ele><time>2026-04-11T04:15:58Z</time></trkpt><trkpt lat="43.32566872248899" lon="11.509280746539789"><ele>289.0</ele><time>2026-04-11T04:16:00Z</time></trkpt><trkpt lat="43.32574297292477" lon="11.509248006981144"><ele>289.0</ele><time>2026-04-11T04:16:02Z</time></trkpt><trkpt lat="43.325812816316656" lon="11.509206846486348"><ele>289.14285714285717</ele><time>2026-04-11T04:16:04Z</time></trkpt><trkpt lat="43.32588221037891" lon="11.509181657688497"><ele>289.2857142857143</ele><time>2026-04-11T04:16:06Z</time></trkpt><trkpt lat="43.325949695458874" lon="11.509152353468412"><ele>289.42857142857144</ele><time>2026-04-11T04:16:08Z</time></trkpt><trkpt lat="43.32601863922788" lon="11.509129549529561"><ele>289.57142857142856</ele><time>2026-04-11T04:16:10Z</time></trkpt><trkpt lat="43.32608659207087" lon="11.50910481557757"><ele>289.7142857142857</ele><time>2026-04-11T04:16:12Z</time></trkpt><trkpt lat="43.32617105540262" lon="11.509074856923055"><ele>289.8571428571429</ele><time>2026-04-11T04:16:15Z</time></trkpt><trkpt lat="43.32624023247215" lon="11.509045858915021"><ele>290.0</ele><time>2026-04-11T04:16:17Z</time></trkpt><trkpt lat="43.32630172927547" lon="11.509015881793815"><ele>290.0</ele><time>2026-04-11T04:16:19Z</time></trkpt><trkpt lat="43.326388525246365" lon="11.50897209284469"><ele>290.0</ele><time>2026-04-11T04:16:22Z</time></trkpt><trkpt lat="43.326472423102906" lon="11.508927430433838"><ele>290.0</ele><time>2026-04-11T04:16:24.999Z</time></trkpt><trkpt lat="43.32653814354216" lon="11.508889750837778"><ele>290.0</ele><time>2026-04-11T04:16:26.999Z</time></trkpt><trkpt lat="43.326612879403996" lon="11.50886038247549"><ele>290.0</ele><time>2026-04-11T04:16:28.999Z</time></trkpt><trkpt lat="43.326692340759216" lon="11.508804182532552"><ele>290.0</ele><time>2026-04-11T04:16:30.999Z</time></trkpt><trkpt lat="43.326766575077315" lon="11.508757382096785"><ele>290.83333333333337</ele><time>2026-04-11T04:16:32.999Z</time></trkpt><trkpt lat="43.326841574209894" lon="11.508707322425597"><ele>291.6666666666667</ele><time>2026-04-11T04:16:34.999Z</time></trkpt><trkpt lat="43.32691466690241" lon="11.508669295398112"><ele>292.5</ele><time>2026-04-11T04:16:36.999Z</time></trkpt><trkpt lat="43.3269723569935" lon="11.508631428352729"><ele>293.3333333333333</ele><time>2026-04-11T04:16:38.999Z</time></trkpt><trkpt lat="43.32703340124652" lon="11.508597255350654"><ele>294.16666666666663</ele><time>2026-04-11T04:16:40.999Z</time></trkpt><trkpt lat="43.32711956632321" lon="11.508546949025888"><ele>295.0</ele><time>2026-04-11T04:16:43.999Z</time></trkpt><trkpt lat="43.32720182567782" lon="11.508499301274956"><ele>295.66666666666663</ele><time>2026-04-11T04:16:46.999Z</time></trkpt><trkpt lat="43.32728097510741" lon="11.508431131289834"><ele>296.3333333333333</ele><time>2026-04-11T04:16:49.999Z</time></trkpt><trkpt lat="43.327341425058925" lon="11.508400018464927"><ele>297.0</ele><time>2026-04-11T04:16:51.999Z</time></trkpt><trkpt lat="43.327400248814016" lon="11.508364780233665"><ele>297.6666666666667</ele><time>2026-04-11T04:16:54Z</time></trkpt><trkpt lat="43.32745962146739" lon="11.508322723580907"><ele>298.33333333333337</ele><time>2026-04-11T04:16:56Z</time></trkpt><trkpt lat="43.32751925470782" lon="11.508286240391316"><ele>299.0</ele><time>2026-04-11T04:16:58Z</time></trkpt><trkpt lat="43.327620171630926" lon="11.508219841042253"><ele>299.0</ele><time>2026-04-11T04:17:00Z</time></trkpt><trkpt lat="43.32770875221432" lon="11.508171502705842"><ele>299.0</ele><time>2026-04-11T04:17:03Z</time></trkpt><trkpt lat="43.3277643547189" lon="11.50812654160281"><ele>299.0</ele><time>2026-04-11T04:17:06Z</time></trkpt><trkpt lat="43.3278229626788" lon="11.508090297211204"><ele>299.0</ele><time>2026-04-11T04:17:08Z</time></trkpt><trkpt lat="43.327890220711986" lon="11.50805745363211"><ele>299.0</ele><time>2026-04-11T04:17:10Z</time></trkpt><trkpt lat="43.32796146334005" lon="11.508020360316388"><ele>299.0</ele><time>2026-04-11T04:17:12Z</time></trkpt><trkpt lat="43.328021093831445" lon="11.507971640196022"><ele>299.0</ele><time>2026-04-11T04:17:14Z</time></trkpt><trkpt lat="43.3280887520241" lon="11.507935673689708"><ele>299.6666666666667</ele><time>2026-04-11T04:17:16Z</time></trkpt><trkpt lat="43.32814735387058" lon="11.507877630318216"><ele>300.33333333333337</ele><time>2026-04-11T04:17:18Z</time></trkpt><trkpt lat="43.32822470816582" lon="11.507835120314288"><ele>301.0</ele><time>2026-04-11T04:17:20Z</time></trkpt><trkpt lat="43.328310466646656" lon="11.50777416180841"><ele>301.6666666666667</ele><time>2026-04-11T04:17:22Z</time></trkpt><trkpt lat="43.32839829134976" lon="11.507715533017421"><ele>302.3333333333333</ele><time>2026-04-11T04:17:24Z</time></trkpt><trkpt lat="43.32848918730579" lon="11.507666531095568"><ele>303.0</ele><time>2026-04-11T04:17:26Z</time></trkpt><trkpt lat="43.32857052126207" lon="11.507618036759299"><ele>303.0</ele><time>2026-04-11T04:17:28Z</time></trkpt><trkpt lat="43.328644103908935" lon="11.507567816372315"><ele>303.0</ele><time>2026-04-11T04:17:30Z</time></trkpt><trkpt lat="43.32872260587925" lon="11.507529855954012"><ele>303.0</ele><time>2026-04-11T04:17:32Z</time></trkpt><trkpt lat="43.328793214022525" lon="11.507483475307252"><ele>303.0</ele><time>2026-04-11T04:17:34Z</time></trkpt><trkpt lat="43.328850507307116" lon="11.507443771898446"><ele>303.0</ele><time>2026-04-11T04:17:36Z</time></trkpt><trkpt lat="43.32890711336132" lon="11.507401010403226"><ele>303.0</ele><time>2026-04-11T04:17:38Z</time></trkpt><trkpt lat="43.329004936857594" lon="11.507356953774067"><ele>303.6666666666667</ele><time>2026-04-11T04:17:40Z</time></trkpt><trkpt lat="43.32907409570564" lon="11.507325970388534"><ele>304.3333333333333</ele><time>2026-04-11T04:17:42Z</time></trkpt><trkpt lat="43.329143950582555" lon="11.507286172454188"><ele>305.0</ele><time>2026-04-11T04:17:44Z</time></trkpt><trkpt lat="43.32921879672312" lon="11.507262845576168"><ele>305.66666666666663</ele><time>2026-04-11T04:17:46Z</time></trkpt><trkpt lat="43.329292509922595" lon="11.507232448213141"><ele>306.3333333333333</ele><time>2026-04-11T04:17:48Z</time></trkpt><trkpt lat="43.32936809330976" lon="11.507212187960326"><ele>307.0</ele><time>2026-04-11T04:17:50Z</time></trkpt><trkpt lat="43.32944334515979" lon="11.507191386209534"><ele>307.0</ele><time>2026-04-11T04:17:52Z</time></trkpt><trkpt lat="43.32952224428242" lon="11.507172600512218"><ele>307.0</ele><time>2026-04-11T04:17:54Z</time></trkpt><trkpt lat="43.329598912866565" lon="11.507154569326417"><ele>307.0</ele><time>2026-04-11T04:17:56Z</time></trkpt><trkpt lat="43.32967695282451" lon="11.507139569342383"><ele>307.0</ele><time>2026-04-11T04:17:58Z</time></trkpt><trkpt lat="43.329756231523994" lon="11.507134364183077"><ele>307.0</ele><time>2026-04-11T04:18:00Z</time></trkpt><trkpt lat="43.329842985526795" lon="11.507121509739326"><ele>307.0</ele><time>2026-04-11T04:18:03Z</time></trkpt><trkpt lat="43.329906093280975" lon="11.507104690714744"><ele>307.0</ele><time>2026-04-11T04:18:05Z</time></trkpt><trkpt lat="43.32997270112676" lon="11.507084576711271"><ele>307.0</ele><time>2026-04-11T04:18:07Z</time></trkpt><trkpt lat="43.33004683851303" lon="11.507059514093159"><ele>307.0</ele><time>2026-04-11T04:18:09Z</time></trkpt><trkpt lat="43.33014025456105" lon="11.507050494646197"><ele>307.0</ele><time>2026-04-11T04:18:11Z</time></trkpt><trkpt lat="43.33021094684056" lon="11.507036441713243"><ele>307.0</ele><time>2026-04-11T04:18:13Z</time></trkpt><trkpt lat="43.33031027869232" lon="11.507016022814554"><ele>307.0</ele><time>2026-04-11T04:18:14Z</time></trkpt><trkpt lat="43.33039652374472" lon="11.507006267538426"><ele>307.0</ele><time>2026-04-11T04:18:16Z</time></trkpt><trkpt lat="43.33048321400387" lon="11.506988147931922"><ele>307.0</ele><time>2026-04-11T04:18:18Z</time></trkpt><trkpt lat="43.33057243885972" lon="11.506970052091317"><ele>307.0</ele><time>2026-04-11T04:18:20Z</time></trkpt><trkpt lat="43.33066255541392" lon="11.506949860625848"><ele>307.0</ele><time>2026-04-11T04:18:22Z</time></trkpt><trkpt lat="43.33075797122581" lon="11.50693521359688"><ele>307.0</ele><time>2026-04-11T04:18:24Z</time></trkpt><trkpt lat="43.330850408038806" lon="11.506921334948453"><ele>307.8</ele><time>2026-04-11T04:18:25.999Z</time></trkpt><trkpt lat="43.33093961222943" lon="11.506902938492818"><ele>308.6</ele><time>2026-04-11T04:18:27.999Z</time></trkpt><trkpt lat="43.33103103524943" lon="11.50688152007212"><ele>309.40000000000003</ele><time>2026-04-11T04:18:29.999Z</time></trkpt><trkpt lat="43.33112145661911" lon="11.506861354596577"><ele>310.2</ele><time>2026-04-11T04:18:31.999Z</time></trkpt><trkpt lat="43.33120856649053" lon="11.506840570226908"><ele>311.0</ele><time>2026-04-11T04:18:33.999Z</time></trkpt><trkpt lat="43.33130401783663" lon="11.50679905534172"><ele>311.6</ele><time>2026-04-11T04:18:35.999Z</time></trkpt><trkpt lat="43.331400342375815" lon="11.506749966049725"><ele>312.20000000000005</ele><time>2026-04-11T04:18:37.999Z</time></trkpt><trkpt lat="43.33148870622902" lon="11.506691927101292"><ele>312.79999999999995</ele><time>2026-04-11T04:18:39.999Z</time></trkpt><trkpt lat="43.331575738286276" lon="11.506646777352453"><ele>313.4</ele><time>2026-04-11T04:18:41.999Z</time></trkpt><trkpt lat="43.331664160790254" lon="11.506587627144024"><ele>314.0</ele><time>2026-04-11T04:18:43.999Z</time></trkpt><trkpt lat="43.331750674612735" lon="11.506527009870528"><ele>314.0</ele><time>2026-04-11T04:18:45.999Z</time></trkpt><trkpt lat="43.33183629883239" lon="11.506475871751901"><ele>314.0</ele><time>2026-04-11T04:18:47.999Z</time></trkpt><trkpt lat="43.33191106913527" lon="11.50642227347233"><ele>314.0</ele><time>2026-04-11T04:18:49.999Z</time></trkpt><trkpt lat="43.331989143421" lon="11.506367175105977"><ele>314.0</ele><time>2026-04-11T04:18:51.999Z</time></trkpt><trkpt lat="43.33206685636825" lon="11.506315047111766"><ele>314.0</ele><time>2026-04-11T04:18:53.999Z</time></trkpt><trkpt lat="43.332147840358346" lon="11.506258199538967"><ele>314.0</ele><time>2026-04-11T04:18:55.999Z</time></trkpt><trkpt lat="43.33222684899499" lon="11.506204389533746"><ele>314.33333333333337</ele><time>2026-04-11T04:18:57.999Z</time></trkpt><trkpt lat="43.33229881680923" lon="11.506155799103457"><ele>314.6666666666667</ele><time>2026-04-11T04:19:00Z</time></trkpt><trkpt lat="43.332370763270326" lon="11.506111211179904"><ele>315.0</ele><time>2026-04-11T04:19:02Z</time></trkpt><trkpt lat="43.3324468790801" lon="11.506058210905154"><ele>315.3333333333333</ele><time>2026-04-11T04:19:04Z</time></trkpt><trkpt lat="43.33251591332256" lon="11.506020975206747"><ele>315.66666666666663</ele><time>2026-04-11T04:19:06Z</time></trkpt><trkpt lat="43.33260075963485" lon="11.505974826476587"><ele>316.0</ele><time>2026-04-11T04:19:08Z</time></trkpt><trkpt lat="43.33268429236626" lon="11.505934768936362"><ele>316.0</ele><time>2026-04-11T04:19:10Z</time></trkpt><trkpt lat="43.33277707130637" lon="11.505902771105056"><ele>316.0</ele><time>2026-04-11T04:19:12Z</time></trkpt><trkpt lat="43.332870432424386" lon="11.505878709135427"><ele>316.0</ele><time>2026-04-11T04:19:14Z</time></trkpt><trkpt lat="43.33298590868919" lon="11.505853025140299"><ele>316.0</ele><time>2026-04-11T04:19:16Z</time></trkpt><trkpt lat="43.33308946262307" lon="11.505824819930275"><ele>316.0</ele><time>2026-04-11T04:19:18Z</time></trkpt><trkpt lat="43.333190607082514" lon="11.505798366651643"><ele>316.0</ele><time>2026-04-11T04:19:20Z</time></trkpt><trkpt lat="43.333287029026955" lon="11.50577567203579"><ele>316.0</ele><time>2026-04-11T04:19:22Z</time></trkpt><trkpt lat="43.33338703923112" lon="11.505755346656947"><ele>316.0</ele><time>2026-04-11T04:19:24Z</time></trkpt><trkpt lat="43.33348352479052" lon="11.505733955157016"><ele>316.0</ele><time>2026-04-11T04:19:26Z</time></trkpt><trkpt lat="43.333578500343215" lon="11.505716133558398"><ele>316.0</ele><time>2026-04-11T04:19:28Z</time></trkpt><trkpt lat="43.333674891301335" lon="11.505699826945657"><ele>316.0</ele><time>2026-04-11T04:19:30Z</time></trkpt><trkpt lat="43.333769823937686" lon="11.505678602982478"><ele>316.0</ele><time>2026-04-11T04:19:32Z</time></trkpt><trkpt lat="43.33387208744477" lon="11.505663981279495"><ele>316.0</ele><time>2026-04-11T04:19:34Z</time></trkpt><trkpt lat="43.333957654329026" lon="11.505647750372734"><ele>316.0</ele><time>2026-04-11T04:19:36Z</time></trkpt><trkpt lat="43.33404360876364" lon="11.505625319495502"><ele>316.0</ele><time>2026-04-11T04:19:38Z</time></trkpt><trkpt lat="43.33413426120004" lon="11.505599813173971"><ele>315.75</ele><time>2026-04-11T04:19:40Z</time></trkpt><trkpt lat="43.3342253268127" lon="11.505577451629197"><ele>315.5</ele><time>2026-04-11T04:19:42Z</time></trkpt><trkpt lat="43.33431643921111" lon="11.50556269344691"><ele>315.25</ele><time>2026-04-11T04:19:44Z</time></trkpt><trkpt lat="43.33440377804813" lon="11.505550947075056"><ele>315.0</ele><time>2026-04-11T04:19:46Z</time></trkpt><trkpt lat="43.334583872959" lon="11.505522399108225"><ele>315.0</ele><time>2026-04-11T04:19:49Z</time></trkpt><trkpt lat="43.33467632993044" lon="11.50550471090534"><ele>315.0</ele><time>2026-04-11T04:19:51Z</time></trkpt><trkpt lat="43.334768705065414" lon="11.505484791721482"><ele>315.0</ele><time>2026-04-11T04:19:53Z</time></trkpt><trkpt lat="43.33486651244226" lon="11.505466295132148"><ele>315.0</ele><time>2026-04-11T04:19:55Z</time></trkpt><trkpt lat="43.33495993143787" lon="11.505440057124487"><ele>315.0</ele><time>2026-04-11T04:19:57Z</time></trkpt><trkpt lat="43.335053881012975" lon="11.505421395953725"><ele>315.6</ele><time>2026-04-11T04:19:59Z</time></trkpt><trkpt lat="43.33515416314399" lon="11.505409756706992"><ele>316.2</ele><time>2026-04-11T04:20:01Z</time></trkpt><trkpt lat="43.33525422531175" lon="11.505385586334446"><ele>316.8</ele><time>2026-04-11T04:20:03Z</time></trkpt><trkpt lat="43.33535540067194" lon="11.505364750740174"><ele>317.4</ele><time>2026-04-11T04:20:05Z</time></trkpt><trkpt lat="43.33545827610239" lon="11.505345175004889"><ele>318.0</ele><time>2026-04-11T04:20:07Z</time></trkpt><trkpt lat="43.33555567826247" lon="11.505322591205307"><ele>318.0</ele><time>2026-04-11T04:20:09Z</time></trkpt><trkpt lat="43.33565558767991" lon="11.505299203530686"><ele>318.0</ele><time>2026-04-11T04:20:11Z</time></trkpt><trkpt lat="43.33576433151135" lon="11.505278997707272"><ele>318.0</ele><time>2026-04-11T04:20:13Z</time></trkpt><trkpt lat="43.33587160637855" lon="11.505257765399438"><ele>318.0</ele><time>2026-04-11T04:20:15Z</time></trkpt><trkpt lat="43.33596184993844" lon="11.505233532316938"><ele>318.0</ele><time>2026-04-11T04:20:17Z</time></trkpt><trkpt lat="43.3360522473904" lon="11.505221712876251"><ele>318.0</ele><time>2026-04-11T04:20:19Z</time></trkpt><trkpt lat="43.33614186910939" lon="11.505201068461636"><ele>318.0</ele><time>2026-04-11T04:20:21Z</time></trkpt><trkpt lat="43.33622954682251" lon="11.505176068751885"><ele>318.0</ele><time>2026-04-11T04:20:23Z</time></trkpt><trkpt lat="43.33630907707791" lon="11.505156178126606"><ele>318.0</ele><time>2026-04-11T04:20:25Z</time></trkpt><trkpt lat="43.336400175795895" lon="11.505131623584795"><ele>318.0</ele><time>2026-04-11T04:20:27Z</time></trkpt><trkpt lat="43.33649408402239" lon="11.505110929037798"><ele>318.0</ele><time>2026-04-11T04:20:29Z</time></trkpt><trkpt lat="43.33658639548401" lon="11.505115272091318"><ele>319.0</ele><time>2026-04-11T04:20:31Z</time></trkpt><trkpt lat="43.33666941712232" lon="11.505102791013874"><ele>320.0</ele><time>2026-04-11T04:20:32.999Z</time></trkpt><trkpt lat="43.33674010862549" lon="11.5050790096151"><ele>321.0</ele><time>2026-04-11T04:20:34.999Z</time></trkpt><trkpt lat="43.33684632616602" lon="11.505082499579148"><ele>322.0</ele><time>2026-04-11T04:20:36.999Z</time></trkpt><trkpt lat="43.3369310453897" lon="11.505092381190035"><ele>323.0</ele><time>2026-04-11T04:20:38.999Z</time></trkpt><trkpt lat="43.33701729268266" lon="11.505114092119904"><ele>324.0</ele><time>2026-04-11T04:20:40.999Z</time></trkpt><trkpt lat="43.33710319049038" lon="11.505127413496773"><ele>324.0</ele><time>2026-04-11T04:20:42.999Z</time></trkpt><trkpt lat="43.337188072949246" lon="11.505149811510234"><ele>324.0</ele><time>2026-04-11T04:20:44.999Z</time></trkpt><trkpt lat="43.337274936741906" lon="11.505189292534848"><ele>324.0</ele><time>2026-04-11T04:20:46.999Z</time></trkpt><trkpt lat="43.33735939591393" lon="11.505223773312158"><ele>324.0</ele><time>2026-04-11T04:20:48.999Z</time></trkpt><trkpt lat="43.33744064673435" lon="11.50527140934587"><ele>324.0</ele><time>2026-04-11T04:20:50.999Z</time></trkpt><trkpt lat="43.337525246998204" lon="11.505320797421922"><ele>324.0</ele><time>2026-04-11T04:20:52.999Z</time></trkpt><trkpt lat="43.337607730256615" lon="11.505377342388902"><ele>324.8333333333333</ele><time>2026-04-11T04:20:54.999Z</time></trkpt><trkpt lat="43.33769124657637" lon="11.505440634102456"><ele>325.6666666666667</ele><time>2026-04-11T04:20:56.999Z</time></trkpt><trkpt lat="43.337765273891776" lon="11.505479805689196"><ele>326.5</ele><time>2026-04-11T04:20:58.999Z</time></trkpt><trkpt lat="43.33784535231903" lon="11.505535391180217"><ele>327.33333333333337</ele><time>2026-04-11T04:21:00.999Z</time></trkpt><trkpt lat="43.33792327564541" lon="11.50559215922751"><ele>328.1666666666667</ele><time>2026-04-11T04:21:02.999Z</time></trkpt><trkpt lat="43.33799999600035" lon="11.505645301053928"><ele>329.0</ele><time>2026-04-11T04:21:05Z</time></trkpt><trkpt lat="43.33805640318001" lon="11.505687015674907"><ele>329.5</ele><time>2026-04-11T04:21:08Z</time></trkpt><trkpt lat="43.33814813948346" lon="11.505730182037052"><ele>330.0</ele><time>2026-04-11T04:21:09Z</time></trkpt><trkpt lat="43.338223250617645" lon="11.50576921048161"><ele>330.5</ele><time>2026-04-11T04:21:11Z</time></trkpt><trkpt lat="43.33829632738159" lon="11.50579855939158"><ele>331.0</ele><time>2026-04-11T04:21:13Z</time></trkpt><trkpt lat="43.33836056806302" lon="11.505832535787187"><ele>331.5</ele><time>2026-04-11T04:21:15Z</time></trkpt><trkpt lat="43.338421245569705" lon="11.505867719851738"><ele>332.0</ele><time>2026-04-11T04:21:17Z</time></trkpt><trkpt lat="43.33848855519859" lon="11.505886722454923"><ele>332.0</ele><time>2026-04-11T04:21:19Z</time></trkpt><trkpt lat="43.338563445894806" lon="11.505900905679754"><ele>332.0</ele><time>2026-04-11T04:21:21Z</time></trkpt><trkpt lat="43.338637389574096" lon="11.505905737295723"><ele>332.0</ele><time>2026-04-11T04:21:23Z</time></trkpt><trkpt lat="43.3387118240135" lon="11.505913417624514"><ele>332.0</ele><time>2026-04-11T04:21:25Z</time></trkpt><trkpt lat="43.33879028638677" lon="11.505910727707784"><ele>332.0</ele><time>2026-04-11T04:21:28Z</time></trkpt><trkpt lat="43.33885871873034" lon="11.505913115415167"><ele>332.0</ele><time>2026-04-11T04:21:30Z</time></trkpt><trkpt lat="43.33892634840755" lon="11.505905525947409"><ele>332.0</ele><time>2026-04-11T04:21:32Z</time></trkpt><trkpt lat="43.339013844832785" lon="11.505894081756242"><ele>332.83333333333337</ele><time>2026-04-11T04:21:34Z</time></trkpt><trkpt lat="43.339086962220094" lon="11.50587482956866"><ele>333.6666666666667</ele><time>2026-04-11T04:21:36Z</time></trkpt><trkpt lat="43.339155282873946" lon="11.505854096108253"><ele>334.5</ele><time>2026-04-11T04:21:38Z</time></trkpt><trkpt lat="43.33922360055782" lon="11.505831814893877"><ele>335.3333333333333</ele><time>2026-04-11T04:21:40Z</time></trkpt><trkpt lat="43.33929617137039" lon="11.505806108296547"><ele>336.16666666666663</ele><time>2026-04-11T04:21:42Z</time></trkpt><trkpt lat="43.33937288903794" lon="11.505777847359992"><ele>337.0</ele><time>2026-04-11T04:21:44Z</time></trkpt><trkpt lat="43.33945701626771" lon="11.50575416680442"><ele>337.0</ele><time>2026-04-11T04:21:47Z</time></trkpt><trkpt lat="43.33955845332396" lon="11.505704513011294"><ele>337.0</ele><time>2026-04-11T04:21:48Z</time></trkpt><trkpt lat="43.33964321734266" lon="11.505675798780302"><ele>337.0</ele><time>2026-04-11T04:21:50Z</time></trkpt><trkpt lat="43.339729127070505" lon="11.505643589515332"><ele>337.0</ele><time>2026-04-11T04:21:52Z</time></trkpt><trkpt lat="43.33981944593538" lon="11.505609085435168"><ele>337.0</ele><time>2026-04-11T04:21:54Z</time></trkpt><trkpt lat="43.33991590620692" lon="11.505570680598904"><ele>336.8</ele><time>2026-04-11T04:21:56Z</time></trkpt><trkpt lat="43.34001602719817" lon="11.505534887796076"><ele>336.6</ele><time>2026-04-11T04:21:58Z</time></trkpt><trkpt lat="43.34012281699017" lon="11.505497052023431"><ele>336.40000000000003</ele><time>2026-04-11T04:22:00Z</time></trkpt><trkpt lat="43.34023019894673" lon="11.50546168858524"><ele>336.20000000000005</ele><time>2026-04-11T04:22:02Z</time></trkpt><trkpt lat="43.34033975610742" lon="11.50542543657656"><ele>336.0</ele><time>2026-04-11T04:22:04Z</time></trkpt><trkpt lat="43.34044973144377" lon="11.505382471509646"><ele>335.75</ele><time>2026-04-11T04:22:06Z</time></trkpt><trkpt lat="43.34057372725731" lon="11.505339259877783"><ele>335.5</ele><time>2026-04-11T04:22:08Z</time></trkpt><trkpt lat="43.34068795297915" lon="11.505361044800424"><ele>335.25</ele><time>2026-04-11T04:22:10Z</time></trkpt><trkpt lat="43.34079728909701" lon="11.505407264161581"><ele>335.0</ele><time>2026-04-11T04:22:12Z</time></trkpt><trkpt lat="43.34088922209312" lon="11.505368921693156"><ele>335.0</ele><time>2026-04-11T04:22:14Z</time></trkpt><trkpt lat="43.34098168608327" lon="11.505276185328476"><ele>335.0</ele><time>2026-04-11T04:22:16Z</time></trkpt><trkpt lat="43.341099284809935" lon="11.50521102799838"><ele>335.0</ele><time>2026-04-11T04:22:18Z</time></trkpt><trkpt lat="43.34120688362234" lon="11.505135287612342"><ele>335.0</ele><time>2026-04-11T04:22:20Z</time></trkpt><trkpt lat="43.341319727278936" lon="11.50511145641441"><ele>335.0</ele><time>2026-04-11T04:22:22Z</time></trkpt><trkpt lat="43.34142079223554" lon="11.505082528276374"><ele>335.0</ele><time>2026-04-11T04:22:24Z</time></trkpt><trkpt lat="43.341527403789385" lon="11.505057065137345"><ele>335.0</ele><time>2026-04-11T04:22:26Z</time></trkpt><trkpt lat="43.3416315708129" lon="11.505031783939728"><ele>335.0</ele><time>2026-04-11T04:22:28Z</time></trkpt><trkpt lat="43.34172610685184" lon="11.50502752466245"><ele>335.0</ele><time>2026-04-11T04:22:30Z</time></trkpt><trkpt lat="43.34181983584273" lon="11.505005524485632"><ele>335.0</ele><time>2026-04-11T04:22:32Z</time></trkpt><trkpt lat="43.341911083935344" lon="11.504984520341836"><ele>335.0</ele><time>2026-04-11T04:22:33.999Z</time></trkpt><trkpt lat="43.34200608255743" lon="11.504961665717019"><ele>335.0</ele><time>2026-04-11T04:22:35.999Z</time></trkpt><trkpt lat="43.342098283688784" lon="11.504934815111731"><ele>335.0</ele><time>2026-04-11T04:22:37.999Z</time></trkpt><trkpt lat="43.34219745660341" lon="11.504917527673355"><ele>335.0</ele><time>2026-04-11T04:22:39.999Z</time></trkpt><trkpt lat="43.34229514056802" lon="11.504907204155563"><ele>335.6</ele><time>2026-04-11T04:22:41.999Z</time></trkpt><trkpt lat="43.342391764696856" lon="11.50488635093444"><ele>336.2</ele><time>2026-04-11T04:22:43.999Z</time></trkpt><trkpt lat="43.34248948061006" lon="11.504868829297806"><ele>336.79999999999995</ele><time>2026-04-11T04:22:45.999Z</time></trkpt><trkpt lat="43.34258999205286" lon="11.504844236852481"><ele>337.4</ele><time>2026-04-11T04:22:47.999Z</time></trkpt><trkpt lat="43.34269512935483" lon="11.50482644911254"><ele>338.0</ele><time>2026-04-11T04:22:49.999Z</time></trkpt><trkpt lat="43.34280400208181" lon="11.504808015962956"><ele>338.0</ele><time>2026-04-11T04:22:51.999Z</time></trkpt><trkpt lat="43.34289572673262" lon="11.504793718509893"><ele>338.0</ele><time>2026-04-11T04:22:53.999Z</time></trkpt><trkpt lat="43.342999740199765" lon="11.504772392403247"><ele>338.0</ele><time>2026-04-11T04:22:55.999Z</time></trkpt><trkpt lat="43.34306903624147" lon="11.504758290805606"><ele>338.0</ele><time>2026-04-11T04:22:56.999Z</time></trkpt><trkpt lat="43.343174639361" lon="11.504741738608505"><ele>338.0</ele><time>2026-04-11T04:22:58.999Z</time></trkpt><trkpt lat="43.3432813813468" lon="11.504717454052836"><ele>338.0</ele><time>2026-04-11T04:23:00.999Z</time></trkpt><trkpt lat="43.34338767949933" lon="11.504697397524497"><ele>338.0</ele><time>2026-04-11T04:23:02.999Z</time></trkpt><trkpt lat="43.34349525038505" lon="11.50467118215057"><ele>338.0</ele><time>2026-04-11T04:23:04.999Z</time></trkpt><trkpt lat="43.34360383610976" lon="11.504651522955205"><ele>338.0</ele><time>2026-04-11T04:23:06.999Z</time></trkpt><trkpt lat="43.343713967395935" lon="11.504626271293468"><ele>338.0</ele><time>2026-04-11T04:23:08.999Z</time></trkpt><trkpt lat="43.34382373935156" lon="11.504607721923513"><ele>338.0</ele><time>2026-04-11T04:23:11Z</time></trkpt><trkpt lat="43.343932253946036" lon="11.504588209099682"><ele>338.0</ele><time>2026-04-11T04:23:13Z</time></trkpt><trkpt lat="43.34404157149724" lon="11.504566773480157"><ele>338.0</ele><time>2026-04-11T04:23:15Z</time></trkpt><trkpt lat="43.34415666079494" lon="11.50454685910836"><ele>338.0</ele><time>2026-04-11T04:23:17Z</time></trkpt><trkpt lat="43.34427458595981" lon="11.504522770180104"><ele>337.5</ele><time>2026-04-11T04:23:19Z</time></trkpt><trkpt lat="43.34439266555124" lon="11.50449762786078"><ele>337.0</ele><time>2026-04-11T04:23:21Z</time></trkpt><trkpt lat="43.34451103963373" lon="11.504467736591277"><ele>336.5</ele><time>2026-04-11T04:23:23Z</time></trkpt><trkpt lat="43.34462842596105" lon="11.504438499926742"><ele>336.0</ele><time>2026-04-11T04:23:25Z</time></trkpt><trkpt lat="43.34473180363576" lon="11.504358171451754"><ele>337.75</ele><time>2026-04-11T04:23:27Z</time></trkpt><trkpt lat="43.34481151430804" lon="11.504233410238694"><ele>339.5</ele><time>2026-04-11T04:23:29Z</time></trkpt><trkpt lat="43.34489860543587" lon="11.504108961131605"><ele>341.25</ele><time>2026-04-11T04:23:31Z</time></trkpt><trkpt lat="43.344961366483666" lon="11.50397078607423"><ele>343.0</ele><time>2026-04-11T04:23:33Z</time></trkpt><trkpt lat="43.345015475317034" lon="11.503824362314075"><ele>343.0</ele><time>2026-04-11T04:23:35Z</time></trkpt><trkpt lat="43.345061633474586" lon="11.503681893658026"><ele>343.0</ele><time>2026-04-11T04:23:37Z</time></trkpt><trkpt lat="43.3450951302961" lon="11.50351431393626"><ele>343.0</ele><time>2026-04-11T04:23:39Z</time></trkpt><trkpt lat="43.34496721884492" lon="11.503426685855617"><ele>343.0</ele><time>2026-04-11T04:23:40Z</time></trkpt><trkpt lat="43.34491927896934" lon="11.503291630488278"><ele>343.0</ele><time>2026-04-11T04:23:42Z</time></trkpt><trkpt lat="43.34488495229215" lon="11.503156239813682"><ele>343.0</ele><time>2026-04-11T04:23:44Z</time></trkpt><trkpt lat="43.34487872497762" lon="11.503010853657495"><ele>343.0</ele><time>2026-04-11T04:23:46Z</time></trkpt><trkpt lat="43.34489556827027" lon="11.502860170087212"><ele>343.0</ele><time>2026-04-11T04:23:48Z</time></trkpt><trkpt lat="43.344918096700894" lon="11.502697873063816"><ele>343.0</ele><time>2026-04-11T04:23:50Z</time></trkpt><trkpt lat="43.34493983407306" lon="11.502616348156531"><ele>343.16666666666663</ele><time>2026-04-11T04:23:51Z</time></trkpt><trkpt lat="43.3449731213557" lon="11.502535134931035"><ele>343.3333333333333</ele><time>2026-04-11T04:23:52Z</time></trkpt><trkpt lat="43.34501119393623" lon="11.502453395278025"><ele>343.5</ele><time>2026-04-11T04:23:53Z</time></trkpt><trkpt lat="43.34504441165948" lon="11.502362988243208"><ele>343.6666666666667</ele><time>2026-04-11T04:23:54Z</time></trkpt><trkpt lat="43.345075521916385" lon="11.502265909473863"><ele>343.83333333333337</ele><time>2026-04-11T04:23:55Z</time></trkpt><trkpt lat="43.34511434285644" lon="11.50216737725668"><ele>344.0</ele><time>2026-04-11T04:23:56Z</time></trkpt><trkpt lat="43.345149053083695" lon="11.502055504703405"><ele>342.6666666666667</ele><time>2026-04-11T04:23:57Z</time></trkpt><trkpt lat="43.34518471974159" lon="11.501954159794776"><ele>341.33333333333337</ele><time>2026-04-11T04:23:58Z</time></trkpt><trkpt lat="43.34521454629164" lon="11.501852099056146"><ele>340.0</ele><time>2026-04-11T04:23:59Z</time></trkpt><trkpt lat="43.345229247822154" lon="11.50174572014834"><ele>338.6666666666667</ele><time>2026-04-11T04:24:00Z</time></trkpt><trkpt lat="43.34523562139722" lon="11.501640620970127"><ele>337.3333333333333</ele><time>2026-04-11T04:24:01Z</time></trkpt><trkpt lat="43.345224205218" lon="11.501532273986118"><ele>336.0</ele><time>2026-04-11T04:24:02Z</time></trkpt><trkpt lat="43.34519797663393" lon="11.501430703721804"><ele>336.0</ele><time>2026-04-11T04:24:03Z</time></trkpt><trkpt lat="43.34516624125737" lon="11.501333274847063"><ele>336.0</ele><time>2026-04-11T04:24:04Z</time></trkpt><trkpt lat="43.34513389986176" lon="11.501243588435383"><ele>336.0</ele><time>2026-04-11T04:24:05Z</time></trkpt><trkpt lat="43.34509829639014" lon="11.50116093596439"><ele>336.0</ele><time>2026-04-11T04:24:06Z</time></trkpt><trkpt lat="43.34506297331187" lon="11.501086741542414"><ele>336.0</ele><time>2026-04-11T04:24:07Z</time></trkpt><trkpt lat="43.34499390011955" lon="11.500961202187952"><ele>336.0</ele><time>2026-04-11T04:24:09Z</time></trkpt><trkpt lat="43.344937601229795" lon="11.500842559149815"><ele>335.8</ele><time>2026-04-11T04:24:11Z</time></trkpt><trkpt lat="43.344938030416486" lon="11.500704203526501"><ele>335.6</ele><time>2026-04-11T04:24:13Z</time></trkpt><trkpt lat="43.345008250684856" lon="11.500605548487277"><ele>335.4</ele><time>2026-04-11T04:24:15Z</time></trkpt><trkpt lat="43.34506548091149" lon="11.500544055767355"><ele>335.2</ele><time>2026-04-11T04:24:18Z</time></trkpt><trkpt lat="43.34502924429931" lon="11.500401935570954"><ele>335.0</ele><time>2026-04-11T04:24:20Z</time></trkpt><trkpt lat="43.34497485185257" lon="11.500293905001621"><ele>335.0</ele><time>2026-04-11T04:24:22Z</time></trkpt><trkpt lat="43.34492988573693" lon="11.500164579285599"><ele>335.0</ele><time>2026-04-11T04:24:24Z</time></trkpt><trkpt lat="43.34488279120821" lon="11.500014381574761"><ele>335.0</ele><time>2026-04-11T04:24:26Z</time></trkpt><trkpt lat="43.34482459412845" lon="11.499861814784442"><ele>335.0</ele><time>2026-04-11T04:24:28Z</time></trkpt><trkpt lat="43.34479436340996" lon="11.499780477486908"><ele>335.0</ele><time>2026-04-11T04:24:29Z</time></trkpt><trkpt lat="43.34476276582325" lon="11.49970183380642"><ele>334.99999999999994</ele><time>2026-04-11T04:24:30Z</time></trkpt><trkpt lat="43.34472946733266" lon="11.499614567334342"><ele>335.0</ele><time>2026-04-11T04:24:31Z</time></trkpt><trkpt lat="43.34469788240295" lon="11.499529056964773"><ele>335.0</ele><time>2026-04-11T04:24:32Z</time></trkpt><trkpt lat="43.34466686021738" lon="11.499440147370096"><ele>335.0</ele><time>2026-04-11T04:24:33Z</time></trkpt><trkpt lat="43.34463305225933" lon="11.499353325839994"><ele>335.0</ele><time>2026-04-11T04:24:34Z</time></trkpt><trkpt lat="43.34459940334009" lon="11.499262003885338"><ele>334.99999999999994</ele><time>2026-04-11T04:24:35Z</time></trkpt><trkpt lat="43.344564414107516" lon="11.499168443763539"><ele>335.0</ele><time>2026-04-11T04:24:36Z</time></trkpt><trkpt lat="43.344530272573046" lon="11.499079524727604"><ele>335.1428571428571</ele><time>2026-04-11T04:24:37Z</time></trkpt><trkpt lat="43.34450028198897" lon="11.498984445020312"><ele>335.2857142857143</ele><time>2026-04-11T04:24:38Z</time></trkpt><trkpt lat="43.34446878071731" lon="11.498892081843476"><ele>335.42857142857144</ele><time>2026-04-11T04:24:39Z</time></trkpt><trkpt lat="43.34443910362332" lon="11.49879809139494"><ele>335.57142857142856</ele><time>2026-04-11T04:24:40Z</time></trkpt><trkpt lat="43.3444099194177" lon="11.498705233703108"><ele>335.7142857142857</ele><time>2026-04-11T04:24:41Z</time></trkpt><trkpt lat="43.34438187663973" lon="11.498612976876329"><ele>335.85714285714283</ele><time>2026-04-11T04:24:42Z</time></trkpt><trkpt lat="43.344354203749845" lon="11.49851486986662"><ele>336.0</ele><time>2026-04-11T04:24:42.999Z</time></trkpt><trkpt lat="43.34432309930963" lon="11.49842388702936"><ele>336.14285714285717</ele><time>2026-04-11T04:24:43.999Z</time></trkpt><trkpt lat="43.34429381178732" lon="11.498332469279578"><ele>336.2857142857143</ele><time>2026-04-11T04:24:44.999Z</time></trkpt><trkpt lat="43.344260900589234" lon="11.498243240015148"><ele>336.42857142857144</ele><time>2026-04-11T04:24:45.999Z</time></trkpt><trkpt lat="43.344230297198386" lon="11.498155775137594"><ele>336.57142857142856</ele><time>2026-04-11T04:24:46.999Z</time></trkpt><trkpt lat="43.34419906720776" lon="11.49806703536293"><ele>336.7142857142857</ele><time>2026-04-11T04:24:47.999Z</time></trkpt><trkpt lat="43.34416726322028" lon="11.497983825788712"><ele>336.8571428571429</ele><time>2026-04-11T04:24:48.999Z</time></trkpt><trkpt lat="43.34413504012451" lon="11.49790507608086"><ele>337.0</ele><time>2026-04-11T04:24:49.999Z</time></trkpt><trkpt lat="43.344101651718496" lon="11.497823742185403"><ele>337.0</ele><time>2026-04-11T04:24:50.999Z</time></trkpt><trkpt lat="43.344067922820024" lon="11.497744504919137"><ele>337.0</ele><time>2026-04-11T04:24:51.999Z</time></trkpt><trkpt lat="43.344031164261175" lon="11.4976678567983"><ele>337.0</ele><time>2026-04-11T04:24:52.999Z</time></trkpt><trkpt lat="43.34399808921103" lon="11.497590139992875"><ele>337.0</ele><time>2026-04-11T04:24:53.999Z</time></trkpt><trkpt lat="43.34393992382378" lon="11.497443313922592"><ele>337.0</ele><time>2026-04-11T04:24:55.999Z</time></trkpt><trkpt lat="43.34388363537179" lon="11.497309172055592"><ele>337.0</ele><time>2026-04-11T04:24:57.999Z</time></trkpt><trkpt lat="43.343835755610236" lon="11.497192652708977"><ele>336.40000000000003</ele><time>2026-04-11T04:24:59.999Z</time></trkpt><trkpt lat="43.34379256240783" lon="11.497090388442443"><ele>335.8</ele><time>2026-04-11T04:25:01.999Z</time></trkpt><trkpt lat="43.34373980598105" lon="11.49699804648029"><ele>335.2</ele><time>2026-04-11T04:25:03.999Z</time></trkpt><trkpt lat="43.34367723593592" lon="11.496907952079304"><ele>334.6</ele><time>2026-04-11T04:25:05.999Z</time></trkpt><trkpt lat="43.34361214541863" lon="11.496816353811331"><ele>334.0</ele><time>2026-04-11T04:25:07.999Z</time></trkpt><trkpt lat="43.34353215559066" lon="11.4967234234607"><ele>334.0</ele><time>2026-04-11T04:25:09.999Z</time></trkpt><trkpt lat="43.34345524165429" lon="11.49662616782269"><ele>334.0</ele><time>2026-04-11T04:25:11.999Z</time></trkpt><trkpt lat="43.34337605757997" lon="11.49651630753939"><ele>334.0</ele><time>2026-04-11T04:25:13.999Z</time></trkpt><trkpt lat="43.343289389822985" lon="11.496412064844296"><ele>334.0</ele><time>2026-04-11T04:25:16Z</time></trkpt><trkpt lat="43.34319754268687" lon="11.496301752291306"><ele>333.4</ele><time>2026-04-11T04:25:18Z</time></trkpt><trkpt lat="43.343102727571456" lon="11.496195467942464"><ele>332.79999999999995</ele><time>2026-04-11T04:25:20Z</time></trkpt><trkpt lat="43.343007946813465" lon="11.496087135127562"><ele>332.20000000000005</ele><time>2026-04-11T04:25:22Z</time></trkpt><trkpt lat="43.3429231119178" lon="11.495953497350845"><ele>331.6</ele><time>2026-04-11T04:25:24Z</time></trkpt><trkpt lat="43.342863955917025" lon="11.495910561592048"><ele>331.0</ele><time>2026-04-11T04:25:25Z</time></trkpt><trkpt lat="43.3428121651862" lon="11.495844129144269"><ele>331.0</ele><time>2026-04-11T04:25:26Z</time></trkpt><trkpt lat="43.34275982588467" lon="11.495775869058033"><ele>331.0</ele><time>2026-04-11T04:25:27Z</time></trkpt><trkpt lat="43.342705704928626" lon="11.495707778671251"><ele>331.0</ele><time>2026-04-11T04:25:28Z</time></trkpt><trkpt lat="43.342642623954106" lon="11.495633522407589"><ele>331.0</ele><time>2026-04-11T04:25:29Z</time></trkpt><trkpt lat="43.34258333678702" lon="11.495565784268578"><ele>331.0</ele><time>2026-04-11T04:25:30Z</time></trkpt><trkpt lat="43.34252165178572" lon="11.49549039418789"><ele>331.0</ele><time>2026-04-11T04:25:31Z</time></trkpt><trkpt lat="43.34246577942915" lon="11.495413002552711"><ele>329.4</ele><time>2026-04-11T04:25:32Z</time></trkpt><trkpt lat="43.342390034891345" lon="11.495327981380575"><ele>327.8</ele><time>2026-04-11T04:25:33Z</time></trkpt><trkpt lat="43.34231198275813" lon="11.49524243666455"><ele>326.2</ele><time>2026-04-11T04:25:34Z</time></trkpt><trkpt lat="43.342231443275935" lon="11.49515088319729"><ele>324.59999999999997</ele><time>2026-04-11T04:25:35Z</time></trkpt><trkpt lat="43.34216214619247" lon="11.495039645695101"><ele>323.0</ele><time>2026-04-11T04:25:36Z</time></trkpt><trkpt lat="43.34208102510019" lon="11.494944098396092"><ele>321.59999999999997</ele><time>2026-04-11T04:25:37Z</time></trkpt><trkpt lat="43.34199859571727" lon="11.494847226721147"><ele>320.2</ele><time>2026-04-11T04:25:38Z</time></trkpt><trkpt lat="43.341908621521526" lon="11.494766641649258"><ele>318.8</ele><time>2026-04-11T04:25:39Z</time></trkpt><trkpt lat="43.34182708496726" lon="11.494667760737208"><ele>317.4</ele><time>2026-04-11T04:25:40Z</time></trkpt><trkpt lat="43.34174451638738" lon="11.494570875768414"><ele>316.0</ele><time>2026-04-11T04:25:41Z</time></trkpt><trkpt lat="43.341663587060076" lon="11.494474009267648"><ele>315.40000000000003</ele><time>2026-04-11T04:25:42Z</time></trkpt><trkpt lat="43.34158419524566" lon="11.494375614854295"><ele>314.8</ele><time>2026-04-11T04:25:43Z</time></trkpt><trkpt lat="43.34150758144522" lon="11.494276673005304"><ele>314.20000000000005</ele><time>2026-04-11T04:25:44Z</time></trkpt><trkpt lat="43.34142928134071" lon="11.49418339144494"><ele>313.6</ele><time>2026-04-11T04:25:45Z</time></trkpt><trkpt lat="43.34134958998429" lon="11.494095274662453"><ele>313.0</ele><time>2026-04-11T04:25:46Z</time></trkpt><trkpt lat="43.341270520585596" lon="11.494008455099374"><ele>312.4</ele><time>2026-04-11T04:25:47Z</time></trkpt><trkpt lat="43.34119451237308" lon="11.493921144273367"><ele>311.8</ele><time>2026-04-11T04:25:48Z</time></trkpt><trkpt lat="43.34112127216028" lon="11.493831577248068"><ele>311.2</ele><time>2026-04-11T04:25:49Z</time></trkpt><trkpt lat="43.34104878620281" lon="11.493743511231346"><ele>310.6</ele><time>2026-04-11T04:25:50Z</time></trkpt><trkpt lat="43.34097957458509" lon="11.493656219718158"><ele>310.0</ele><time>2026-04-11T04:25:51Z</time></trkpt><trkpt lat="43.34091065030531" lon="11.493573074457634"><ele>310.0</ele><time>2026-04-11T04:25:52Z</time></trkpt><trkpt lat="43.340841974435406" lon="11.493494784493393"><ele>310.0</ele><time>2026-04-11T04:25:53Z</time></trkpt><trkpt lat="43.34077315501995" lon="11.493419012429953"><ele>310.0</ele><time>2026-04-11T04:25:54Z</time></trkpt><trkpt lat="43.34070967767576" lon="11.493334311645508"><ele>310.0</ele><time>2026-04-11T04:25:55Z</time></trkpt><trkpt lat="43.34064285635133" lon="11.493254132096999"><ele>310.0</ele><time>2026-04-11T04:25:56Z</time></trkpt><trkpt lat="43.34057193450544" lon="11.493180845608556"><ele>310.0</ele><time>2026-04-11T04:25:57Z</time></trkpt><trkpt lat="43.34050601389478" lon="11.493098430901327"><ele>310.0</ele><time>2026-04-11T04:25:58Z</time></trkpt><trkpt lat="43.34044101379695" lon="11.493006014174936"><ele>310.0</ele><time>2026-04-11T04:25:59Z</time></trkpt><trkpt lat="43.34037368025747" lon="11.492913024900572"><ele>310.0</ele><time>2026-04-11T04:26:00Z</time></trkpt><trkpt lat="43.34030462174797" lon="11.492818013191851"><ele>310.0</ele><time>2026-04-11T04:26:01Z</time></trkpt><trkpt lat="43.34023467520228" lon="11.492725178775686"><ele>310.0</ele><time>2026-04-11T04:26:02Z</time></trkpt><trkpt lat="43.340164528493325" lon="11.492632130978786"><ele>310.2</ele><time>2026-04-11T04:26:03Z</time></trkpt><trkpt lat="43.340095992704235" lon="11.492538371557629"><ele>310.4</ele><time>2026-04-11T04:26:04Z</time></trkpt><trkpt lat="43.340029107829615" lon="11.492441847453415"><ele>310.6</ele><time>2026-04-11T04:26:05Z</time></trkpt><trkpt lat="43.339964536738115" lon="11.49234584399682"><ele>310.8</ele><time>2026-04-11T04:26:06Z</time></trkpt><trkpt lat="43.3399002500295" lon="11.49224539720762"><ele>311.0</ele><time>2026-04-11T04:26:07Z</time></trkpt><trkpt lat="43.33983454343867" lon="11.492142006850028"><ele>310.2</ele><time>2026-04-11T04:26:08Z</time></trkpt><trkpt lat="43.33976275426279" lon="11.492038658379952"><ele>309.40000000000003</ele><time>2026-04-11T04:26:09Z</time></trkpt><trkpt lat="43.33969115005744" lon="11.491933702591316"><ele>308.6</ele><time>2026-04-11T04:26:10Z</time></trkpt><trkpt lat="43.33962157746277" lon="11.491829718900453"><ele>307.8</ele><time>2026-04-11T04:26:11Z</time></trkpt><trkpt lat="43.339552312726504" lon="11.491726048884848"><ele>307.0</ele><time>2026-04-11T04:26:12Z</time></trkpt><trkpt lat="43.33948595707282" lon="11.491622239701377"><ele>307.0</ele><time>2026-04-11T04:26:13Z</time></trkpt><trkpt lat="43.339418368453394" lon="11.491520447407924"><ele>307.0</ele><time>2026-04-11T04:26:14Z</time></trkpt><trkpt lat="43.33935157570418" lon="11.491417507480875"><ele>307.0</ele><time>2026-04-11T04:26:15Z</time></trkpt><trkpt lat="43.33928519519603" lon="11.491315701975495"><ele>307.0</ele><time>2026-04-11T04:26:16Z</time></trkpt><trkpt lat="43.339220583105615" lon="11.491215641545232"><ele>307.0</ele><time>2026-04-11T04:26:17Z</time></trkpt><trkpt lat="43.33915513300337" lon="11.491113600103633"><ele>306.8</ele><time>2026-04-11T04:26:18Z</time></trkpt><trkpt lat="43.33908451164895" lon="11.491018501964879"><ele>306.6</ele><time>2026-04-11T04:26:19Z</time></trkpt><trkpt lat="43.33900584005862" lon="11.490931144143115"><ele>306.40000000000003</ele><time>2026-04-11T04:26:20Z</time></trkpt><trkpt lat="43.338928704109755" lon="11.490843923120648"><ele>306.2</ele><time>2026-04-11T04:26:21Z</time></trkpt><trkpt lat="43.33884685789284" lon="11.490758676578759"><ele>306.0</ele><time>2026-04-11T04:26:22Z</time></trkpt><trkpt lat="43.33876570553711" lon="11.490674225484538"><ele>305.40000000000003</ele><time>2026-04-11T04:26:23Z</time></trkpt><trkpt lat="43.338685242158725" lon="11.490590389639198"><ele>304.8</ele><time>2026-04-11T04:26:24Z</time></trkpt><trkpt lat="43.338605118627655" lon="11.49050667628262"><ele>304.20000000000005</ele><time>2026-04-11T04:26:25Z</time></trkpt><trkpt lat="43.338526375518136" lon="11.490424294999496"><ele>303.6</ele><time>2026-04-11T04:26:26Z</time></trkpt><trkpt lat="43.33844930033262" lon="11.490344086247191"><ele>303.0</ele><time>2026-04-11T04:26:27Z</time></trkpt><trkpt lat="43.33837207446075" lon="11.49026289074616"><ele>303.0</ele><time>2026-04-11T04:26:28Z</time></trkpt><trkpt lat="43.33829488298264" lon="11.490183049826639"><ele>303.0</ele><time>2026-04-11T04:26:29Z</time></trkpt><trkpt lat="43.3382174368662" lon="11.490103754208501"><ele>303.0</ele><time>2026-04-11T04:26:30Z</time></trkpt><trkpt lat="43.33813860837704" lon="11.490023267567482"><ele>303.0</ele><time>2026-04-11T04:26:31Z</time></trkpt><trkpt lat="43.33805793883047" lon="11.48994265135391"><ele>303.0</ele><time>2026-04-11T04:26:32Z</time></trkpt><trkpt lat="43.33797711886507" lon="11.489860602533916"><ele>302.0</ele><time>2026-04-11T04:26:33Z</time></trkpt><trkpt lat="43.33789666882529" lon="11.489775873988235"><ele>301.0</ele><time>2026-04-11T04:26:34Z</time></trkpt><trkpt lat="43.337814719904046" lon="11.489689473951188"><ele>300.0</ele><time>2026-04-11T04:26:35Z</time></trkpt><trkpt lat="43.33773491943684" lon="11.489604601220593"><ele>299.0</ele><time>2026-04-11T04:26:36Z</time></trkpt><trkpt lat="43.33765395892106" lon="11.489523198482123"><ele>298.0</ele><time>2026-04-11T04:26:37Z</time></trkpt><trkpt lat="43.337572978927795" lon="11.489440903749866"><ele>297.8</ele><time>2026-04-11T04:26:38Z</time></trkpt><trkpt lat="43.337494975156666" lon="11.489355474798565"><ele>297.6</ele><time>2026-04-11T04:26:39Z</time></trkpt><trkpt lat="43.33741662326512" lon="11.489273830673136"><ele>297.4</ele><time>2026-04-11T04:26:40Z</time></trkpt><trkpt lat="43.337339837969985" lon="11.489193760155844"><ele>297.2</ele><time>2026-04-11T04:26:41Z</time></trkpt><trkpt lat="43.33726248948695" lon="11.4891142833935"><ele>297.0</ele><time>2026-04-11T04:26:41.999Z</time></trkpt><trkpt lat="43.33718428102246" lon="11.489037970652461"><ele>297.4</ele><time>2026-04-11T04:26:42.999Z</time></trkpt><trkpt lat="43.337103351344794" lon="11.488967691098333"><ele>297.79999999999995</ele><time>2026-04-11T04:26:43.999Z</time></trkpt><trkpt lat="43.337019277766686" lon="11.4889070066963"><ele>298.2</ele><time>2026-04-11T04:26:44.999Z</time></trkpt><trkpt lat="43.336933304203264" lon="11.488858604386193"><ele>298.59999999999997</ele><time>2026-04-11T04:26:45.999Z</time></trkpt><trkpt lat="43.33684649766013" lon="11.488811432048246"><ele>299.0</ele><time>2026-04-11T04:26:46.999Z</time></trkpt><trkpt lat="43.33675891460742" lon="11.488764052492154"><ele>299.0</ele><time>2026-04-11T04:26:47.999Z</time></trkpt><trkpt lat="43.33667383066699" lon="11.488710523808477"><ele>299.0</ele><time>2026-04-11T04:26:48.999Z</time></trkpt><trkpt lat="43.336590354506626" lon="11.4886509186881"><ele>299.0</ele><time>2026-04-11T04:26:49.999Z</time></trkpt><trkpt lat="43.336514191199214" lon="11.488576711274717"><ele>299.0</ele><time>2026-04-11T04:26:50.999Z</time></trkpt><trkpt lat="43.33644399276183" lon="11.488487236514224"><ele>299.0</ele><time>2026-04-11T04:26:51.999Z</time></trkpt><trkpt lat="43.33637722072981" lon="11.488394001817543"><ele>299.0</ele><time>2026-04-11T04:26:52.999Z</time></trkpt><trkpt lat="43.33631863855402" lon="11.488292754352235"><ele>299.0</ele><time>2026-04-11T04:26:53.999Z</time></trkpt><trkpt lat="43.33626593413479" lon="11.488186668034139"><ele>299.0</ele><time>2026-04-11T04:26:54.999Z</time></trkpt><trkpt lat="43.33620873530468" lon="11.488083804900752"><ele>299.0</ele><time>2026-04-11T04:26:55.999Z</time></trkpt><trkpt lat="43.33614602103136" lon="11.487987681175541"><ele>299.0</ele><time>2026-04-11T04:26:56.999Z</time></trkpt><trkpt lat="43.33607648756032" lon="11.48789758729063"><ele>297.4</ele><time>2026-04-11T04:26:57.999Z</time></trkpt><trkpt lat="43.33600124589244" lon="11.487815603255383"><ele>295.79999999999995</ele><time>2026-04-11T04:26:58.999Z</time></trkpt><trkpt lat="43.335925941904435" lon="11.487733649072256"><ele>294.20000000000005</ele><time>2026-04-11T04:26:59.999Z</time></trkpt><trkpt lat="43.33585102608663" lon="11.487649415022192"><ele>292.6</ele><time>2026-04-11T04:27:00.999Z</time></trkpt><trkpt lat="43.33577806116421" lon="11.487563005135664"><ele>291.0</ele><time>2026-04-11T04:27:01.999Z</time></trkpt><trkpt lat="43.335708915538845" lon="11.487472718326645"><ele>291.0</ele><time>2026-04-11T04:27:02.999Z</time></trkpt><trkpt lat="43.33564195057402" lon="11.487371874641969"><ele>291.0</ele><time>2026-04-11T04:27:03.999Z</time></trkpt><trkpt lat="43.335581407898886" lon="11.487261624235567"><ele>291.0</ele><time>2026-04-11T04:27:04.999Z</time></trkpt><trkpt lat="43.335524362532375" lon="11.487145972628568"><ele>291.0</ele><time>2026-04-11T04:27:05.999Z</time></trkpt><trkpt lat="43.335468949524895" lon="11.487025902755551"><ele>291.0</ele><time>2026-04-11T04:27:06.999Z</time></trkpt><trkpt lat="43.335415472025105" lon="11.486904673626752"><ele>291.6</ele><time>2026-04-11T04:27:07.999Z</time></trkpt><trkpt lat="43.33536536423378" lon="11.486779552477104"><ele>292.20000000000005</ele><time>2026-04-11T04:27:08.999Z</time></trkpt><trkpt lat="43.33531719814506" lon="11.486653748799757"><ele>292.79999999999995</ele><time>2026-04-11T04:27:09.999Z</time></trkpt><trkpt lat="43.33526396793375" lon="11.486525145106286"><ele>293.4</ele><time>2026-04-11T04:27:10.999Z</time></trkpt><trkpt lat="43.33520841482881" lon="11.486399774797622"><ele>294.0</ele><time>2026-04-11T04:27:11.999Z</time></trkpt><trkpt lat="43.335156113816545" lon="11.486268385816857"><ele>291.75</ele><time>2026-04-11T04:27:12.999Z</time></trkpt><trkpt lat="43.33510206713547" lon="11.486136100103732"><ele>289.5</ele><time>2026-04-11T04:27:13.999Z</time></trkpt><trkpt lat="43.33504964137537" lon="11.486000254701898"><ele>287.25</ele><time>2026-04-11T04:27:14.999Z</time></trkpt><trkpt lat="43.335003544500026" lon="11.485858301675671"><ele>285.0</ele><time>2026-04-11T04:27:15.999Z</time></trkpt><trkpt lat="43.3349676876759" lon="11.485706957337955"><ele>285.0</ele><time>2026-04-11T04:27:16.999Z</time></trkpt><trkpt lat="43.334939214201576" lon="11.485549876037021"><ele>285.0</ele><time>2026-04-11T04:27:17.999Z</time></trkpt><trkpt lat="43.33491626274587" lon="11.485389119637837"><ele>285.0</ele><time>2026-04-11T04:27:18.999Z</time></trkpt><trkpt lat="43.33489489091592" lon="11.485228336940539"><ele>285.0</ele><time>2026-04-11T04:27:19.999Z</time></trkpt><trkpt lat="43.33487013477732" lon="11.485068060451175"><ele>283.5</ele><time>2026-04-11T04:27:20.999Z</time></trkpt><trkpt lat="43.334847900395154" lon="11.484908418891596"><ele>282.0</ele><time>2026-04-11T04:27:22Z</time></trkpt><trkpt lat="43.33482823581813" lon="11.484748411775497"><ele>280.5</ele><time>2026-04-11T04:27:23Z</time></trkpt><trkpt lat="43.33480982717118" lon="11.484589739689625"><ele>279.0</ele><time>2026-04-11T04:27:24Z</time></trkpt><trkpt lat="43.33479325229739" lon="11.48443439069817"><ele>278.2</ele><time>2026-04-11T04:27:25Z</time></trkpt><trkpt lat="43.334777496813736" lon="11.484283724027486"><ele>277.4</ele><time>2026-04-11T04:27:26Z</time></trkpt><trkpt lat="43.33476217833854" lon="11.484132274283002"><ele>276.6</ele><time>2026-04-11T04:27:27Z</time></trkpt><trkpt lat="43.33475104352998" lon="11.48397996018023"><ele>275.8</ele><time>2026-04-11T04:27:28Z</time></trkpt><trkpt lat="43.33473986517471" lon="11.483827075406905"><ele>275.0</ele><time>2026-04-11T04:27:29Z</time></trkpt><trkpt lat="43.33473308794873" lon="11.483676519681605"><ele>276.8</ele><time>2026-04-11T04:27:30Z</time></trkpt><trkpt lat="43.33472007008537" lon="11.483530022390378"><ele>278.6</ele><time>2026-04-11T04:27:31Z</time></trkpt><trkpt lat="43.33470589729961" lon="11.483380980096843"><ele>280.4</ele><time>2026-04-11T04:27:32Z</time></trkpt><trkpt lat="43.33469338651901" lon="11.483233733613162"><ele>282.2</ele><time>2026-04-11T04:27:33Z</time></trkpt><trkpt lat="43.33467759501869" lon="11.48308716045461"><ele>284.0</ele><time>2026-04-11T04:27:34Z</time></trkpt><trkpt lat="43.334657874361184" lon="11.482942303025759"><ele>283.4</ele><time>2026-04-11T04:27:35Z</time></trkpt><trkpt lat="43.33463982509232" lon="11.482794480243882"><ele>282.79999999999995</ele><time>2026-04-11T04:27:36Z</time></trkpt><trkpt lat="43.33461879412316" lon="11.48265079174064"><ele>282.20000000000005</ele><time>2026-04-11T04:27:37Z</time></trkpt><trkpt lat="43.334600072238764" lon="11.48250803957231"><ele>281.6</ele><time>2026-04-11T04:27:38Z</time></trkpt><trkpt lat="43.33458033337721" lon="11.482371564369505"><ele>281.0</ele><time>2026-04-11T04:27:39Z</time></trkpt><trkpt lat="43.33457357705215" lon="11.482233771859002"><ele>281.0</ele><time>2026-04-11T04:27:40Z</time></trkpt><trkpt lat="43.33458270388108" lon="11.482101095515288"><ele>281.0</ele><time>2026-04-11T04:27:41Z</time></trkpt><trkpt lat="43.3346081592104" lon="11.481972048690887"><ele>281.0</ele><time>2026-04-11T04:27:42Z</time></trkpt><trkpt lat="43.33465276337484" lon="11.481854682014978"><ele>281.0</ele><time>2026-04-11T04:27:43Z</time></trkpt><trkpt lat="43.334711073284126" lon="11.481749414985973"><ele>281.0</ele><time>2026-04-11T04:27:44Z</time></trkpt><trkpt lat="43.33476434632761" lon="11.481650693386392"><ele>280.6666666666667</ele><time>2026-04-11T04:27:45Z</time></trkpt><trkpt lat="43.334821484304044" lon="11.48155607698278"><ele>280.33333333333337</ele><time>2026-04-11T04:27:46Z</time></trkpt><trkpt lat="43.33487677824477" lon="11.481466680778489"><ele>280.0</ele><time>2026-04-11T04:27:47Z</time></trkpt><trkpt lat="43.33492913238421" lon="11.48137345579012"><ele>279.6666666666667</ele><time>2026-04-11T04:27:48Z</time></trkpt><trkpt lat="43.3349801156149" lon="11.481286636115748"><ele>279.3333333333333</ele><time>2026-04-11T04:27:49Z</time></trkpt><trkpt lat="43.335031547113296" lon="11.481200724893725"><ele>279.0</ele><time>2026-04-11T04:27:50Z</time></trkpt><trkpt lat="43.3350797821888" lon="11.481114186029993"><ele>279.0</ele><time>2026-04-11T04:27:51Z</time></trkpt><trkpt lat="43.335134852923325" lon="11.481029419779185"><ele>279.0</ele><time>2026-04-11T04:27:52Z</time></trkpt><trkpt lat="43.335186805018004" lon="11.480950980679053"><ele>279.0</ele><time>2026-04-11T04:27:53Z</time></trkpt><trkpt lat="43.33523687186751" lon="11.480870653342457"><ele>279.0</ele><time>2026-04-11T04:27:54Z</time></trkpt><trkpt lat="43.33528677579301" lon="11.480792285969065"><ele>279.0</ele><time>2026-04-11T04:27:55Z</time></trkpt><trkpt lat="43.335329162519805" lon="11.480715612781665"><ele>279.0</ele><time>2026-04-11T04:27:56Z</time></trkpt><trkpt lat="43.335382718892774" lon="11.480656800982976"><ele>279.0</ele><time>2026-04-11T04:27:57Z</time></trkpt><trkpt lat="43.33542704397551" lon="11.480589276963816"><ele>279.0</ele><time>2026-04-11T04:27:58Z</time></trkpt><trkpt lat="43.33546964182009" lon="11.480524384189561"><ele>279.0</ele><time>2026-04-11T04:27:59Z</time></trkpt><trkpt lat="43.33543114241421" lon="11.480370921520775"><ele>279.0</ele><time>2026-04-11T04:28:00Z</time></trkpt><trkpt lat="43.33545068408395" lon="11.480208265015458"><ele>279.0</ele><time>2026-04-11T04:28:02Z</time></trkpt><trkpt lat="43.33549709565876" lon="11.480066096353386"><ele>279.2</ele><time>2026-04-11T04:28:04Z</time></trkpt><trkpt lat="43.33554102064142" lon="11.479913349736032"><ele>279.4</ele><time>2026-04-11T04:28:06Z</time></trkpt><trkpt lat="43.33556886155381" lon="11.479826569677362"><ele>279.6</ele><time>2026-04-11T04:28:07Z</time></trkpt><trkpt lat="43.33562460891299" lon="11.479663438243419"><ele>279.8</ele><time>2026-04-11T04:28:09Z</time></trkpt><trkpt lat="43.33565396231122" lon="11.479575290435578"><ele>280.0</ele><time>2026-04-11T04:28:10Z</time></trkpt><trkpt lat="43.33568284190133" lon="11.479488565461107"><ele>279.66666666666663</ele><time>2026-04-11T04:28:11Z</time></trkpt><trkpt lat="43.33571376715492" lon="11.479395069163234"><ele>279.3333333333333</ele><time>2026-04-11T04:28:12Z</time></trkpt><trkpt lat="43.335744518691335" lon="11.479299124379063"><ele>279.0</ele><time>2026-04-11T04:28:13Z</time></trkpt><trkpt lat="43.33577461666345" lon="11.479199823371118"><ele>278.6666666666667</ele><time>2026-04-11T04:28:14Z</time></trkpt><trkpt lat="43.33580370904386" lon="11.47910265935578"><ele>278.33333333333337</ele><time>2026-04-11T04:28:15Z</time></trkpt><trkpt lat="43.3358189224194" lon="11.478998127362782"><ele>278.0</ele><time>2026-04-11T04:28:16Z</time></trkpt><trkpt lat="43.33584690673429" lon="11.478902496019357"><ele>278.0</ele><time>2026-04-11T04:28:17Z</time></trkpt><trkpt lat="43.33588719535771" lon="11.478817506720967"><ele>278.0</ele><time>2026-04-11T04:28:18Z</time></trkpt><trkpt lat="43.335915478565674" lon="11.478720903708657"><ele>278.0</ele><time>2026-04-11T04:28:19Z</time></trkpt><trkpt lat="43.33594578695225" lon="11.478626112238564"><ele>278.0</ele><time>2026-04-11T04:28:20Z</time></trkpt><trkpt lat="43.33597635883008" lon="11.478529700779616"><ele>278.0</ele><time>2026-04-11T04:28:21Z</time></trkpt><trkpt lat="43.33600281232741" lon="11.478439041687611"><ele>278.0</ele><time>2026-04-11T04:28:22Z</time></trkpt><trkpt lat="43.33602689890061" lon="11.47834202557261"><ele>278.0</ele><time>2026-04-11T04:28:23Z</time></trkpt><trkpt lat="43.33604285353769" lon="11.47825238413201"><ele>277.33333333333337</ele><time>2026-04-11T04:28:24Z</time></trkpt><trkpt lat="43.33605661457445" lon="11.47814038476924"><ele>276.6666666666667</ele><time>2026-04-11T04:28:25Z</time></trkpt><trkpt lat="43.3360602714595" lon="11.478034598416631"><ele>276.0</ele><time>2026-04-11T04:28:26Z</time></trkpt><trkpt lat="43.336054289880465" lon="11.477928325494167"><ele>275.3333333333333</ele><time>2026-04-11T04:28:27Z</time></trkpt><trkpt lat="43.33604071722462" lon="11.477824724041197"><ele>274.66666666666663</ele><time>2026-04-11T04:28:28Z</time></trkpt><trkpt lat="43.33602068186537" lon="11.477723257106387"><ele>274.0</ele><time>2026-04-11T04:28:29Z</time></trkpt><trkpt lat="43.33599764480003" lon="11.477625441554935"><ele>274.00000000000006</ele><time>2026-04-11T04:28:30Z</time></trkpt><trkpt lat="43.33597304287983" lon="11.477531178407904"><ele>274.0</ele><time>2026-04-11T04:28:31Z</time></trkpt><trkpt lat="43.33594743317389" lon="11.477439786398307"><ele>274.0</ele><time>2026-04-11T04:28:32Z</time></trkpt><trkpt lat="43.33592113181935" lon="11.477350465616318"><ele>274.0</ele><time>2026-04-11T04:28:33Z</time></trkpt><trkpt lat="43.33589414056807" lon="11.477266657458026"><ele>274.0</ele><time>2026-04-11T04:28:34Z</time></trkpt><trkpt lat="43.335867751298835" lon="11.47718471859381"><ele>274.00000000000006</ele><time>2026-04-11T04:28:35Z</time></trkpt><trkpt lat="43.3358380971534" lon="11.47710523378197"><ele>274.0</ele><time>2026-04-11T04:28:36Z</time></trkpt><trkpt lat="43.3357970430311" lon="11.477034411469054"><ele>274.59999999999997</ele><time>2026-04-11T04:28:37Z</time></trkpt><trkpt lat="43.335771827221706" lon="11.476954814725474"><ele>275.2</ele><time>2026-04-11T04:28:38Z</time></trkpt><trkpt lat="43.33571957055639" lon="11.476808358137676"><ele>275.79999999999995</ele><time>2026-04-11T04:28:40Z</time></trkpt><trkpt lat="43.33567123268321" lon="11.476686639229023"><ele>276.4</ele><time>2026-04-11T04:28:41.999Z</time></trkpt><trkpt lat="43.33563092637655" lon="11.476574545696957"><ele>277.0</ele><time>2026-04-11T04:28:43.999Z</time></trkpt><trkpt lat="43.33560248774609" lon="11.47647225011016"><ele>277.0</ele><time>2026-04-11T04:28:45.999Z</time></trkpt><trkpt lat="43.33556226542099" lon="11.476381711517538"><ele>277.0</ele><time>2026-04-11T04:28:47.999Z</time></trkpt><trkpt lat="43.335518340902134" lon="11.476283256228191"><ele>277.0</ele><time>2026-04-11T04:28:49.999Z</time></trkpt><trkpt lat="43.335466352328474" lon="11.476157751064893"><ele>277.0</ele><time>2026-04-11T04:28:51.999Z</time></trkpt><trkpt lat="43.33540934195174" lon="11.476018700218486"><ele>277.0</ele><time>2026-04-11T04:28:53.999Z</time></trkpt><trkpt lat="43.33534458056591" lon="11.475869123359422"><ele>276.7142857142857</ele><time>2026-04-11T04:28:55.999Z</time></trkpt><trkpt lat="43.33531295638632" lon="11.47579075576764"><ele>276.4285714285714</ele><time>2026-04-11T04:28:56.999Z</time></trkpt><trkpt lat="43.33527710848159" lon="11.475709685795547"><ele>276.1428571428571</ele><time>2026-04-11T04:28:57.999Z</time></trkpt><trkpt lat="43.33524508932452" lon="11.47562966106733"><ele>275.85714285714283</ele><time>2026-04-11T04:28:58.999Z</time></trkpt><trkpt lat="43.33521161232272" lon="11.475546528018253"><ele>275.57142857142856</ele><time>2026-04-11T04:28:59.999Z</time></trkpt><trkpt lat="43.335182923689324" lon="11.47546291740687"><ele>275.2857142857143</ele><time>2026-04-11T04:29:00.999Z</time></trkpt><trkpt lat="43.335152921698636" lon="11.475378385355679"><ele>275.0</ele><time>2026-04-11T04:29:01.999Z</time></trkpt><trkpt lat="43.33512222722036" lon="11.475300377174667"><ele>274.7142857142857</ele><time>2026-04-11T04:29:02.999Z</time></trkpt><trkpt lat="43.33509311147307" lon="11.475216902394592"><ele>274.42857142857144</ele><time>2026-04-11T04:29:03.999Z</time></trkpt><trkpt lat="43.33506683153151" lon="11.475131195562264"><ele>274.1428571428571</ele><time>2026-04-11T04:29:04.999Z</time></trkpt><trkpt lat="43.33504456160797" lon="11.47504387096815"><ele>273.8571428571429</ele><time>2026-04-11T04:29:05.999Z</time></trkpt><trkpt lat="43.335023180094" lon="11.474955494280124"><ele>273.57142857142856</ele><time>2026-04-11T04:29:06.999Z</time></trkpt><trkpt lat="43.335004569408596" lon="11.474865112772703"><ele>273.2857142857143</ele><time>2026-04-11T04:29:07.999Z</time></trkpt><trkpt lat="43.3349873103597" lon="11.474776088638022"><ele>273.0</ele><time>2026-04-11T04:29:08.999Z</time></trkpt><trkpt lat="43.33499322463564" lon="11.474680549751996"><ele>272.85714285714283</ele><time>2026-04-11T04:29:09.999Z</time></trkpt><trkpt lat="43.334981646276624" lon="11.474589848802529"><ele>272.7142857142857</ele><time>2026-04-11T04:29:10.999Z</time></trkpt><trkpt lat="43.33497057737246" lon="11.474498638876227"><ele>272.57142857142856</ele><time>2026-04-11T04:29:11.999Z</time></trkpt><trkpt lat="43.33496020215919" lon="11.474407082168248"><ele>272.42857142857144</ele><time>2026-04-11T04:29:12.999Z</time></trkpt><trkpt lat="43.334949697173265" lon="11.474314380267279"><ele>272.2857142857143</ele><time>2026-04-11T04:29:13.999Z</time></trkpt><trkpt lat="43.33492283469436" lon="11.474224192520346"><ele>272.1428571428571</ele><time>2026-04-11T04:29:14.999Z</time></trkpt><trkpt lat="43.334913389084996" lon="11.474130295555192"><ele>272.0</ele><time>2026-04-11T04:29:15.999Z</time></trkpt><trkpt lat="43.3349039713941" lon="11.474037175475809"><ele>271.99999999999994</ele><time>2026-04-11T04:29:16.999Z</time></trkpt><trkpt lat="43.33489417902756" lon="11.47394382973495"><ele>272.0</ele><time>2026-04-11T04:29:17.999Z</time></trkpt><trkpt lat="43.33488539204704" lon="11.473850655800598"><ele>272.0</ele><time>2026-04-11T04:29:18.999Z</time></trkpt><trkpt lat="43.33487751120902" lon="11.473754231020601"><ele>272.0</ele><time>2026-04-11T04:29:19.999Z</time></trkpt><trkpt lat="43.33486793163133" lon="11.47366205050543"><ele>272.0</ele><time>2026-04-11T04:29:20.999Z</time></trkpt><trkpt lat="43.334858078192475" lon="11.47356928483425"><ele>271.99999999999994</ele><time>2026-04-11T04:29:21.999Z</time></trkpt><trkpt lat="43.334852326188816" lon="11.473475886913148"><ele>272.0</ele><time>2026-04-11T04:29:22.999Z</time></trkpt><trkpt lat="43.334844910833304" lon="11.473383853556351"><ele>271.85714285714283</ele><time>2026-04-11T04:29:23.999Z</time></trkpt><trkpt lat="43.33483775300873" lon="11.473292479963524"><ele>271.7142857142857</ele><time>2026-04-11T04:29:24.999Z</time></trkpt><trkpt lat="43.33483453183365" lon="11.47320380409297"><ele>271.57142857142856</ele><time>2026-04-11T04:29:25.999Z</time></trkpt><trkpt lat="43.33483848202165" lon="11.473107896485104"><ele>271.42857142857144</ele><time>2026-04-11T04:29:26.999Z</time></trkpt><trkpt lat="43.33485282450798" lon="11.473003738223131"><ele>271.2857142857143</ele><time>2026-04-11T04:29:28Z</time></trkpt><trkpt lat="43.334871787857146" lon="11.472894079057724"><ele>271.1428571428571</ele><time>2026-04-11T04:29:29Z</time></trkpt><trkpt lat="43.334894623262684" lon="11.472786725433215"><ele>271.0</ele><time>2026-04-11T04:29:30Z</time></trkpt><trkpt lat="43.33491876041401" lon="11.472682577039404"><ele>271.0</ele><time>2026-04-11T04:29:31Z</time></trkpt><trkpt lat="43.33494175125695" lon="11.472579865633637"><ele>271.0</ele><time>2026-04-11T04:29:32Z</time></trkpt><trkpt lat="43.33496719919491" lon="11.472479497318577"><ele>271.0</ele><time>2026-04-11T04:29:33Z</time></trkpt><trkpt lat="43.3349939251551" lon="11.472379383825928"><ele>271.0</ele><time>2026-04-11T04:29:34Z</time></trkpt><trkpt lat="43.33502732113245" lon="11.472276097992541"><ele>271.0</ele><time>2026-04-11T04:29:35Z</time></trkpt><trkpt lat="43.33506170694143" lon="11.472176303358365"><ele>271.0</ele><time>2026-04-11T04:29:36Z</time></trkpt><trkpt lat="43.33509769205455" lon="11.472070315868326"><ele>270.2</ele><time>2026-04-11T04:29:37Z</time></trkpt><trkpt lat="43.33513192349508" lon="11.471963686736684"><ele>269.40000000000003</ele><time>2026-04-11T04:29:38Z</time></trkpt><trkpt lat="43.33516996606625" lon="11.471854543047426"><ele>268.6</ele><time>2026-04-11T04:29:39Z</time></trkpt><trkpt lat="43.33522920065952" lon="11.471756486687676"><ele>267.8</ele><time>2026-04-11T04:29:40Z</time></trkpt><trkpt lat="43.33527919620968" lon="11.471636859908804"><ele>267.0</ele><time>2026-04-11T04:29:41Z</time></trkpt><trkpt lat="43.33533475089636" lon="11.471506966247434"><ele>267.0</ele><time>2026-04-11T04:29:42Z</time></trkpt><trkpt lat="43.335383009900355" lon="11.471359363526037"><ele>267.0</ele><time>2026-04-11T04:29:43Z</time></trkpt><trkpt lat="43.33544760096414" lon="11.471220649909998"><ele>267.0</ele><time>2026-04-11T04:29:44Z</time></trkpt><trkpt lat="43.335529823710836" lon="11.471084164707726"><ele>267.0</ele><time>2026-04-11T04:29:45Z</time></trkpt><trkpt lat="43.33559429377891" lon="11.470934196263478"><ele>265.75</ele><time>2026-04-11T04:29:46Z</time></trkpt><trkpt lat="43.335651886647895" lon="11.470784199756643"><ele>264.5</ele><time>2026-04-11T04:29:47Z</time></trkpt><trkpt lat="43.3356927346887" lon="11.470631676824693"><ele>263.25</ele><time>2026-04-11T04:29:48Z</time></trkpt><trkpt lat="43.33574817480833" lon="11.470489953879545"><ele>262.0</ele><time>2026-04-11T04:29:49Z</time></trkpt><trkpt lat="43.33576650657189" lon="11.470336804616368"><ele>261.2</ele><time>2026-04-11T04:29:50Z</time></trkpt><trkpt lat="43.33578641653133" lon="11.470189992162656"><ele>260.4</ele><time>2026-04-11T04:29:51Z</time></trkpt><trkpt lat="43.33578354297855" lon="11.470043598595474"><ele>259.6</ele><time>2026-04-11T04:29:52Z</time></trkpt><trkpt lat="43.33576918925568" lon="11.46990338127602"><ele>258.8</ele><time>2026-04-11T04:29:53Z</time></trkpt><trkpt lat="43.33576358341195" lon="11.469770762388722"><ele>258.0</ele><time>2026-04-11T04:29:54Z</time></trkpt><trkpt lat="43.33571947880542" lon="11.46964893037809"><ele>258.0</ele><time>2026-04-11T04:29:55Z</time></trkpt><trkpt lat="43.33570292594332" lon="11.469520243599199"><ele>258.0</ele><time>2026-04-11T04:29:56Z</time></trkpt><trkpt lat="43.33566883059811" lon="11.469405091129394"><ele>258.0</ele><time>2026-04-11T04:29:57Z</time></trkpt><trkpt lat="43.33563268671588" lon="11.469296061594328"><ele>258.0</ele><time>2026-04-11T04:29:58Z</time></trkpt><trkpt lat="43.335595364421025" lon="11.469191793007953"><ele>258.0</ele><time>2026-04-11T04:29:59Z</time></trkpt><trkpt lat="43.33555149849412" lon="11.469090929928694"><ele>258.0</ele><time>2026-04-11T04:30:00Z</time></trkpt><trkpt lat="43.335503727378914" lon="11.468996473705632"><ele>257.6666666666667</ele><time>2026-04-11T04:30:01Z</time></trkpt><trkpt lat="43.33543744807979" lon="11.468926203157586"><ele>257.3333333333333</ele><time>2026-04-11T04:30:02Z</time></trkpt><trkpt lat="43.33538395923832" lon="11.468842702001412"><ele>257.0</ele><time>2026-04-11T04:30:03Z</time></trkpt><trkpt lat="43.335335522133214" lon="11.468745769235232"><ele>256.66666666666663</ele><time>2026-04-11T04:30:04Z</time></trkpt><trkpt lat="43.33527681026256" lon="11.468658926488015"><ele>256.3333333333333</ele><time>2026-04-11T04:30:05Z</time></trkpt><trkpt lat="43.335216004699646" lon="11.468568986884346"><ele>256.0</ele><time>2026-04-11T04:30:06Z</time></trkpt><trkpt lat="43.33515420378698" lon="11.46847712500571"><ele>256.0</ele><time>2026-04-11T04:30:07Z</time></trkpt><trkpt lat="43.335095643910684" lon="11.468381730580926"><ele>256.0</ele><time>2026-04-11T04:30:08Z</time></trkpt><trkpt lat="43.33502668786619" lon="11.468294904196979"><ele>256.0</ele><time>2026-04-11T04:30:09Z</time></trkpt><trkpt lat="43.334971636547245" lon="11.4681901431182"><ele>256.0</ele><time>2026-04-11T04:30:10Z</time></trkpt><trkpt lat="43.334923982568704" lon="11.468079758239082"><ele>256.0</ele><time>2026-04-11T04:30:11Z</time></trkpt><trkpt lat="43.3348823409515" lon="11.467962075057192"><ele>256.2</ele><time>2026-04-11T04:30:12Z</time></trkpt><trkpt lat="43.33483981390058" lon="11.467845605340681"><ele>256.40000000000003</ele><time>2026-04-11T04:30:13Z</time></trkpt><trkpt lat="43.33483022394204" lon="11.467722971023086"><ele>256.6</ele><time>2026-04-11T04:30:14Z</time></trkpt><trkpt lat="43.33481151204506" lon="11.46759778251754"><ele>256.8</ele><time>2026-04-11T04:30:15Z</time></trkpt><trkpt lat="43.334794180116624" lon="11.467463906587241"><ele>257.0</ele><time>2026-04-11T04:30:16Z</time></trkpt><trkpt lat="43.33477686830905" lon="11.467321491030395"><ele>257.0</ele><time>2026-04-11T04:30:17Z</time></trkpt><trkpt lat="43.33475922389847" lon="11.467176339356312"><ele>257.0</ele><time>2026-04-11T04:30:18Z</time></trkpt><trkpt lat="43.334742589246765" lon="11.467030442503207"><ele>257.0</ele><time>2026-04-11T04:30:19Z</time></trkpt><trkpt lat="43.33472828612884" lon="11.4668812560555"><ele>257.0</ele><time>2026-04-11T04:30:20Z</time></trkpt><trkpt lat="43.334720107456015" lon="11.46673041741945"><ele>257.0</ele><time>2026-04-11T04:30:21Z</time></trkpt><trkpt lat="43.334722716917305" lon="11.466580175732423"><ele>255.39999999999998</ele><time>2026-04-11T04:30:22Z</time></trkpt><trkpt lat="43.33473693992451" lon="11.466429609294565"><ele>253.79999999999998</ele><time>2026-04-11T04:30:23Z</time></trkpt><trkpt lat="43.33475980063754" lon="11.466281417623893"><ele>252.2</ele><time>2026-04-11T04:30:24Z</time></trkpt><trkpt lat="43.334787613116546" lon="11.466152558633688"><ele>250.6</ele><time>2026-04-11T04:30:25Z</time></trkpt><trkpt lat="43.3348251273072" lon="11.466005411542747"><ele>249.0</ele><time>2026-04-11T04:30:26Z</time></trkpt><trkpt lat="43.33486217799684" lon="11.465871781037432"><ele>248.39999999999998</ele><time>2026-04-11T04:30:27Z</time></trkpt><trkpt lat="43.334886865976785" lon="11.46572821754963"><ele>247.79999999999998</ele><time>2026-04-11T04:30:28Z</time></trkpt><trkpt lat="43.33492175398488" lon="11.46559426610587"><ele>247.20000000000002</ele><time>2026-04-11T04:30:29Z</time></trkpt><trkpt lat="43.334956676581754" lon="11.465460778349309"><ele>246.60000000000002</ele><time>2026-04-11T04:30:30Z</time></trkpt><trkpt lat="43.33498838447897" lon="11.465331022272501"><ele>246.0</ele><time>2026-04-11T04:30:31Z</time></trkpt><trkpt lat="43.33502038797795" lon="11.465201082368093"><ele>245.8</ele><time>2026-04-11T04:30:32Z</time></trkpt><trkpt lat="43.33505053348146" lon="11.465071726643254"><ele>245.60000000000002</ele><time>2026-04-11T04:30:33Z</time></trkpt><trkpt lat="43.33508438953757" lon="11.464941279335537"><ele>245.4</ele><time>2026-04-11T04:30:34Z</time></trkpt><trkpt lat="43.335115695804745" lon="11.464809352101232"><ele>245.2</ele><time>2026-04-11T04:30:35Z</time></trkpt><trkpt lat="43.335166042925685" lon="11.464681194600029"><ele>245.0</ele><time>2026-04-11T04:30:36Z</time></trkpt><trkpt lat="43.335201889696776" lon="11.464548835247669"><ele>244.0</ele><time>2026-04-11T04:30:37Z</time></trkpt><trkpt lat="43.33523721914346" lon="11.464419027722455"><ele>243.0</ele><time>2026-04-11T04:30:38Z</time></trkpt><trkpt lat="43.33527200006977" lon="11.464294541873375"><ele>242.0</ele><time>2026-04-11T04:30:39Z</time></trkpt><trkpt lat="43.33530561475284" lon="11.46417692599941"><ele>241.0</ele><time>2026-04-11T04:30:40Z</time></trkpt><trkpt lat="43.33533994314232" lon="11.4640632390412"><ele>240.0</ele><time>2026-04-11T04:30:41Z</time></trkpt><trkpt lat="43.33537352509619" lon="11.463953481265712"><ele>240.0</ele><time>2026-04-11T04:30:42Z</time></trkpt><trkpt lat="43.335407571337186" lon="11.463846066710259"><ele>240.0</ele><time>2026-04-11T04:30:43Z</time></trkpt><trkpt lat="43.33544013477497" lon="11.463743330331276"><ele>240.0</ele><time>2026-04-11T04:30:44Z</time></trkpt><trkpt lat="43.3354728160695" lon="11.463644471743793"><ele>240.0</ele><time>2026-04-11T04:30:45Z</time></trkpt><trkpt lat="43.33550512695537" lon="11.463549746110402"><ele>240.0</ele><time>2026-04-11T04:30:46Z</time></trkpt><trkpt lat="43.33553621818846" lon="11.46346075452657"><ele>240.0</ele><time>2026-04-11T04:30:47Z</time></trkpt><trkpt lat="43.33556917458053" lon="11.463374502214513"><ele>239.2</ele><time>2026-04-11T04:30:48Z</time></trkpt><trkpt lat="43.33560237027907" lon="11.463294778533696"><ele>238.4</ele><time>2026-04-11T04:30:49Z</time></trkpt><trkpt lat="43.33563514534759" lon="11.463218178816522"><ele>237.60000000000002</ele><time>2026-04-11T04:30:50Z</time></trkpt><trkpt lat="43.33569302371142" lon="11.463070363598009"><ele>236.8</ele><time>2026-04-11T04:30:52Z</time></trkpt><trkpt lat="43.33572994578818" lon="11.462927886342733"><ele>236.0</ele><time>2026-04-11T04:30:53.999Z</time></trkpt><trkpt lat="43.33576949154455" lon="11.462810612434485"><ele>237.57142857142856</ele><time>2026-04-11T04:30:55.999Z</time></trkpt><trkpt lat="43.33580320524811" lon="11.46270764541879"><ele>239.14285714285717</ele><time>2026-04-11T04:30:57.999Z</time></trkpt><trkpt lat="43.33584352218722" lon="11.462632376104"><ele>240.71428571428572</ele><time>2026-04-11T04:30:59.999Z</time></trkpt><trkpt lat="43.335868263492124" lon="11.462533516213181"><ele>242.28571428571428</ele><time>2026-04-11T04:31:02.999Z</time></trkpt><trkpt lat="43.33588909036177" lon="11.462437393977316"><ele>243.85714285714283</ele><time>2026-04-11T04:31:05.999Z</time></trkpt><trkpt lat="43.335903798727024" lon="11.462349626111928"><ele>245.42857142857144</ele><time>2026-04-11T04:31:08.999Z</time></trkpt><trkpt lat="43.33588992186919" lon="11.462236679623196"><ele>247.0</ele><time>2026-04-11T04:31:11.999Z</time></trkpt><trkpt lat="43.33590173707464" lon="11.462143284656241"><ele>247.33333333333331</ele><time>2026-04-11T04:31:13.999Z</time></trkpt><trkpt lat="43.335933123532435" lon="11.462006009950152"><ele>247.66666666666666</ele><time>2026-04-11T04:31:14.999Z</time></trkpt><trkpt lat="43.33594216029054" lon="11.461915125106133"><ele>248.0</ele><time>2026-04-11T04:31:15.999Z</time></trkpt><trkpt lat="43.33595442641638" lon="11.461807547654898"><ele>248.33333333333331</ele><time>2026-04-11T04:31:16.999Z</time></trkpt><trkpt lat="43.33596303074513" lon="11.461701328769708"><ele>248.66666666666666</ele><time>2026-04-11T04:31:17.999Z</time></trkpt><trkpt lat="43.33596625729869" lon="11.461596513603356"><ele>249.0</ele><time>2026-04-11T04:31:18.999Z</time></trkpt><trkpt lat="43.33596377102888" lon="11.461478817770248"><ele>249.0</ele><time>2026-04-11T04:31:19.999Z</time></trkpt><trkpt lat="43.33596395302475" lon="11.461362647441213"><ele>249.0</ele><time>2026-04-11T04:31:20.999Z</time></trkpt><trkpt lat="43.33596503306805" lon="11.461244283610114"><ele>249.0</ele><time>2026-04-11T04:31:21.999Z</time></trkpt><trkpt lat="43.33596899645863" lon="11.461131212372003"><ele>249.0</ele><time>2026-04-11T04:31:22.999Z</time></trkpt><trkpt lat="43.33597430012228" lon="11.46102065376099"><ele>249.0</ele><time>2026-04-11T04:31:23.999Z</time></trkpt><trkpt lat="43.33598377561565" lon="11.460913346571639"><ele>249.0</ele><time>2026-04-11T04:31:24.999Z</time></trkpt><trkpt lat="43.33599416812531" lon="11.460807321516217"><ele>248.33333333333334</ele><time>2026-04-11T04:31:25.999Z</time></trkpt><trkpt lat="43.33599956991366" lon="11.460706284026301"><ele>247.66666666666669</ele><time>2026-04-11T04:31:26.999Z</time></trkpt><trkpt lat="43.33600548691415" lon="11.460606612642083"><ele>247.0</ele><time>2026-04-11T04:31:27.999Z</time></trkpt><trkpt lat="43.33601997368343" lon="11.460510292906983"><ele>246.33333333333334</ele><time>2026-04-11T04:31:28.999Z</time></trkpt><trkpt lat="43.336035447953456" lon="11.460409655485037"><ele>245.66666666666669</ele><time>2026-04-11T04:31:29.999Z</time></trkpt><trkpt lat="43.33605169972699" lon="11.460305099314004"><ele>245.0</ele><time>2026-04-11T04:31:30.999Z</time></trkpt><trkpt lat="43.336069223573325" lon="11.460189064861119"><ele>244.50000000000003</ele><time>2026-04-11T04:31:31.999Z</time></trkpt><trkpt lat="43.3360869373303" lon="11.460073093174401"><ele>244.0</ele><time>2026-04-11T04:31:32.999Z</time></trkpt><trkpt lat="43.33609805976787" lon="11.459956446748814"><ele>243.5</ele><time>2026-04-11T04:31:34Z</time></trkpt><trkpt lat="43.336098860767926" lon="11.459839431332034"><ele>243.0</ele><time>2026-04-11T04:31:35Z</time></trkpt><trkpt lat="43.33610053070276" lon="11.459717599852675"><ele>242.50000000000003</ele><time>2026-04-11T04:31:36Z</time></trkpt><trkpt lat="43.33610180923827" lon="11.459598263069038"><ele>242.0</ele><time>2026-04-11T04:31:37Z</time></trkpt><trkpt lat="43.33609748784987" lon="11.45947841131551"><ele>242.00000000000003</ele><time>2026-04-11T04:31:38Z</time></trkpt><trkpt lat="43.33609159887662" lon="11.459359407830336"><ele>242.0</ele><time>2026-04-11T04:31:39Z</time></trkpt><trkpt lat="43.336068139073454" lon="11.459254050670085"><ele>242.0</ele><time>2026-04-11T04:31:40Z</time></trkpt><trkpt lat="43.336057669199775" lon="11.459143911355849"><ele>242.0</ele><time>2026-04-11T04:31:41Z</time></trkpt><trkpt lat="43.33604019778481" lon="11.45903554508407"><ele>242.00000000000003</ele><time>2026-04-11T04:31:42Z</time></trkpt><trkpt lat="43.33602403429005" lon="11.458926781153396"><ele>242.0</ele><time>2026-04-11T04:31:43Z</time></trkpt><trkpt lat="43.33602100394279" lon="11.458818064020598"><ele>242.00000000000003</ele><time>2026-04-11T04:31:44Z</time></trkpt><trkpt lat="43.33603959754526" lon="11.458712966500789"><ele>242.0</ele><time>2026-04-11T04:31:45Z</time></trkpt><trkpt lat="43.33607348865278" lon="11.458620087606462"><ele>242.0</ele><time>2026-04-11T04:31:46Z</time></trkpt><trkpt lat="43.33611483497727" lon="11.458529208432761"><ele>242.0</ele><time>2026-04-11T04:31:47Z</time></trkpt><trkpt lat="43.33613597128853" lon="11.458428533085828"><ele>242.00000000000003</ele><time>2026-04-11T04:31:48Z</time></trkpt><trkpt lat="43.33616842095242" lon="11.4583389251254"><ele>242.0</ele><time>2026-04-11T04:31:49Z</time></trkpt><trkpt lat="43.336187207681604" lon="11.45824802166185"><ele>242.0</ele><time>2026-04-11T04:31:50Z</time></trkpt><trkpt lat="43.336198031570405" lon="11.458155245195274"><ele>241.99999999999997</ele><time>2026-04-11T04:31:51Z</time></trkpt><trkpt lat="43.33622841189364" lon="11.458076121720959"><ele>242.0</ele><time>2026-04-11T04:31:52Z</time></trkpt><trkpt lat="43.33624449834801" lon="11.457989090124553"><ele>242.0</ele><time>2026-04-11T04:31:53Z</time></trkpt><trkpt lat="43.33625967514709" lon="11.457902436577713"><ele>241.99999999999997</ele><time>2026-04-11T04:31:54Z</time></trkpt><trkpt lat="43.33627616121587" lon="11.457808307602829"><ele>242.0</ele><time>2026-04-11T04:31:55Z</time></trkpt><trkpt lat="43.33629359064334" lon="11.45771220620999"><ele>242.0</ele><time>2026-04-11T04:31:56Z</time></trkpt><trkpt lat="43.33631489093334" lon="11.457615894069422"><ele>242.00000000000003</ele><time>2026-04-11T04:31:57Z</time></trkpt><trkpt lat="43.336337886219106" lon="11.45751948633352"><ele>242.0</ele><time>2026-04-11T04:31:58Z</time></trkpt><trkpt lat="43.336358391900404" lon="11.457416215085908"><ele>242.0</ele><time>2026-04-11T04:31:59Z</time></trkpt><trkpt lat="43.33637107166083" lon="11.457313643480779"><ele>242.0</ele><time>2026-04-11T04:32:00Z</time></trkpt><trkpt lat="43.3363680313019" lon="11.457205278050049"><ele>242.00000000000003</ele><time>2026-04-11T04:32:01Z</time></trkpt><trkpt lat="43.336375627034336" lon="11.457096291526458"><ele>242.0</ele><time>2026-04-11T04:32:02Z</time></trkpt><trkpt lat="43.336387851145815" lon="11.456986843955095"><ele>241.00000000000003</ele><time>2026-04-11T04:32:03Z</time></trkpt><trkpt lat="43.33637501536346" lon="11.456869467620761"><ele>240.0</ele><time>2026-04-11T04:32:04Z</time></trkpt><trkpt lat="43.3363608993873" lon="11.456755342468131"><ele>239.0</ele><time>2026-04-11T04:32:05Z</time></trkpt><trkpt lat="43.33634982105832" lon="11.456642514530106"><ele>238.0</ele><time>2026-04-11T04:32:06Z</time></trkpt><trkpt lat="43.33633968137486" lon="11.456529741460646"><ele>237.00000000000003</ele><time>2026-04-11T04:32:07Z</time></trkpt><trkpt lat="43.336331269970486" lon="11.456416945486135"><ele>236.0</ele><time>2026-04-11T04:32:08Z</time></trkpt><trkpt lat="43.336329351148535" lon="11.45630712640517"><ele>235.83333333333334</ele><time>2026-04-11T04:32:09Z</time></trkpt><trkpt lat="43.33632647401583" lon="11.456196312097983"><ele>235.66666666666669</ele><time>2026-04-11T04:32:10Z</time></trkpt><trkpt lat="43.33636620604759" lon="11.456099818761706"><ele>235.5</ele><time>2026-04-11T04:32:11Z</time></trkpt><trkpt lat="43.3363948863619" lon="11.456000909031799"><ele>235.33333333333331</ele><time>2026-04-11T04:32:12Z</time></trkpt><trkpt lat="43.3364268586396" lon="11.455897819112963"><ele>235.16666666666666</ele><time>2026-04-11T04:32:13Z</time></trkpt><trkpt lat="43.33646683034377" lon="11.455792124803764"><ele>235.0</ele><time>2026-04-11T04:32:14Z</time></trkpt><trkpt lat="43.33650626702596" lon="11.455679325570182"><ele>234.66666666666666</ele><time>2026-04-11T04:32:15Z</time></trkpt><trkpt lat="43.3365427002928" lon="11.455570495712214"><ele>234.33333333333331</ele><time>2026-04-11T04:32:16Z</time></trkpt><trkpt lat="43.336578098654215" lon="11.455464757227007"><ele>234.0</ele><time>2026-04-11T04:32:17Z</time></trkpt><trkpt lat="43.33661260762322" lon="11.455361675445062"><ele>233.66666666666669</ele><time>2026-04-11T04:32:18Z</time></trkpt><trkpt lat="43.33664920315073" lon="11.455251995039017"><ele>233.33333333333334</ele><time>2026-04-11T04:32:19Z</time></trkpt><trkpt lat="43.33668454238273" lon="11.455143376988213"><ele>233.0</ele><time>2026-04-11T04:32:20Z</time></trkpt><trkpt lat="43.33671910184816" lon="11.45503715561379"><ele>232.66666666666669</ele><time>2026-04-11T04:32:21Z</time></trkpt><trkpt lat="43.336754280301456" lon="11.454926005826549"><ele>232.33333333333334</ele><time>2026-04-11T04:32:22Z</time></trkpt><trkpt lat="43.33678633879099" lon="11.454815641592733"><ele>232.0</ele><time>2026-04-11T04:32:23Z</time></trkpt><trkpt lat="43.33681582698735" lon="11.454708140222078"><ele>231.66666666666669</ele><time>2026-04-11T04:32:24Z</time></trkpt><trkpt lat="43.33683471409761" lon="11.454595649160263"><ele>231.33333333333334</ele><time>2026-04-11T04:32:25Z</time></trkpt><trkpt lat="43.33684292429528" lon="11.454489649922863"><ele>231.0</ele><time>2026-04-11T04:32:26Z</time></trkpt><trkpt lat="43.33684374762057" lon="11.454381913465847"><ele>231.0</ele><time>2026-04-11T04:32:27Z</time></trkpt><trkpt lat="43.336845539302416" lon="11.454278434752906"><ele>231.0</ele><time>2026-04-11T04:32:28Z</time></trkpt><trkpt lat="43.33684915328642" lon="11.454180787686283"><ele>231.0</ele><time>2026-04-11T04:32:29Z</time></trkpt><trkpt lat="43.33685499820302" lon="11.454082073546417"><ele>231.0</ele><time>2026-04-11T04:32:30Z</time></trkpt><trkpt lat="43.336860978669314" lon="11.453981070120326"><ele>231.0</ele><time>2026-04-11T04:32:31Z</time></trkpt><trkpt lat="43.33686674821422" lon="11.45388362892056"><ele>231.0</ele><time>2026-04-11T04:32:32Z</time></trkpt><trkpt lat="43.336872440202576" lon="11.453787862806557"><ele>231.0</ele><time>2026-04-11T04:32:33Z</time></trkpt><trkpt lat="43.33687845990583" lon="11.453687457245804"><ele>231.0</ele><time>2026-04-11T04:32:34Z</time></trkpt><trkpt lat="43.33687709445649" lon="11.453584009975147"><ele>231.0</ele><time>2026-04-11T04:32:35Z</time></trkpt><trkpt lat="43.3368658671209" lon="11.453476163636067"><ele>231.0</ele><time>2026-04-11T04:32:36Z</time></trkpt><trkpt lat="43.33682933545602" lon="11.453376148690724"><ele>231.0</ele><time>2026-04-11T04:32:37Z</time></trkpt><trkpt lat="43.33681615957349" lon="11.453262099083242"><ele>231.0</ele><time>2026-04-11T04:32:38Z</time></trkpt><trkpt lat="43.33677708475008" lon="11.45314884205096"><ele>231.0</ele><time>2026-04-11T04:32:39Z</time></trkpt><trkpt lat="43.33673550544854" lon="11.453038537257683"><ele>230.66666666666666</ele><time>2026-04-11T04:32:40Z</time></trkpt><trkpt lat="43.336679431087035" lon="11.452938812830398"><ele>230.33333333333331</ele><time>2026-04-11T04:32:41Z</time></trkpt><trkpt lat="43.3366532314891" lon="11.452820826662645"><ele>230.0</ele><time>2026-04-11T04:32:42Z</time></trkpt><trkpt lat="43.336612804290205" lon="11.452714843329312"><ele>229.66666666666666</ele><time>2026-04-11T04:32:43Z</time></trkpt><trkpt lat="43.33657131307904" lon="11.45260846607955"><ele>229.33333333333331</ele><time>2026-04-11T04:32:44Z</time></trkpt><trkpt lat="43.3365169896116" lon="11.452511115429852"><ele>229.0</ele><time>2026-04-11T04:32:45Z</time></trkpt><trkpt lat="43.33647607484158" lon="11.452399732567354"><ele>229.0</ele><time>2026-04-11T04:32:46Z</time></trkpt><trkpt lat="43.33643185955371" lon="11.452288537605732"><ele>228.99999999999997</ele><time>2026-04-11T04:32:47Z</time></trkpt><trkpt lat="43.336387402430965" lon="11.452172417011589"><ele>228.99999999999997</ele><time>2026-04-11T04:32:48Z</time></trkpt><trkpt lat="43.33634002406566" lon="11.452052626361326"><ele>229.0</ele><time>2026-04-11T04:32:49Z</time></trkpt><trkpt lat="43.336291401038785" lon="11.451928498751563"><ele>229.0</ele><time>2026-04-11T04:32:50Z</time></trkpt><trkpt lat="43.33623865191776" lon="11.451803848203339"><ele>227.0</ele><time>2026-04-11T04:32:51Z</time></trkpt><trkpt lat="43.33620129210104" lon="11.451663144778145"><ele>225.0</ele><time>2026-04-11T04:32:52Z</time></trkpt><trkpt lat="43.336146615417086" lon="11.451530546497567"><ele>223.0</ele><time>2026-04-11T04:32:53Z</time></trkpt><trkpt lat="43.336075261951045" lon="11.45140862780976"><ele>221.0</ele><time>2026-04-11T04:32:54Z</time></trkpt><trkpt lat="43.33600641801985" lon="11.451279958426262"><ele>220.75</ele><time>2026-04-11T04:32:54.999Z</time></trkpt><trkpt lat="43.335915164893756" lon="11.451168729180775"><ele>220.5</ele><time>2026-04-11T04:32:55.999Z</time></trkpt><trkpt lat="43.335803956821174" lon="11.451090295787921"><ele>220.25</ele><time>2026-04-11T04:32:56.999Z</time></trkpt><trkpt lat="43.33568413846017" lon="11.451033570401613"><ele>220.0</ele><time>2026-04-11T04:32:57.999Z</time></trkpt><trkpt lat="43.33556738695966" lon="11.450978393139165"><ele>218.2</ele><time>2026-04-11T04:32:58.999Z</time></trkpt><trkpt lat="43.335489169491204" lon="11.450884551193333"><ele>216.4</ele><time>2026-04-11T04:32:59.999Z</time></trkpt><trkpt lat="43.33542396972812" lon="11.450814164461272"><ele>214.60000000000002</ele><time>2026-04-11T04:33:00.999Z</time></trkpt><trkpt lat="43.33542124228365" lon="11.450687147828598"><ele>212.8</ele><time>2026-04-11T04:33:01.999Z</time></trkpt><trkpt lat="43.3354249784193" lon="11.450560980883552"><ele>211.0</ele><time>2026-04-11T04:33:02.999Z</time></trkpt><trkpt lat="43.335513559066335" lon="11.450464273847874"><ele>211.20000000000002</ele><time>2026-04-11T04:33:03.999Z</time></trkpt><trkpt lat="43.33556682028575" lon="11.450340256129317"><ele>211.4</ele><time>2026-04-11T04:33:04.999Z</time></trkpt><trkpt lat="43.335642239831955" lon="11.45024156186135"><ele>211.6</ele><time>2026-04-11T04:33:05.999Z</time></trkpt><trkpt lat="43.33571708109706" lon="11.450136444925368"><ele>211.8</ele><time>2026-04-11T04:33:06.999Z</time></trkpt><trkpt lat="43.33579614394776" lon="11.450034394812938"><ele>212.0</ele><time>2026-04-11T04:33:07.999Z</time></trkpt><trkpt lat="43.33589767536029" lon="11.449969189966431"><ele>212.0</ele><time>2026-04-11T04:33:08.999Z</time></trkpt><trkpt lat="43.33599883844979" lon="11.449915260555619"><ele>212.0</ele><time>2026-04-11T04:33:09.999Z</time></trkpt><trkpt lat="43.336101913228354" lon="11.449928509872255"><ele>212.0</ele><time>2026-04-11T04:33:10.999Z</time></trkpt><trkpt lat="43.33621180222056" lon="11.449915839009963"><ele>212.0</ele><time>2026-04-11T04:33:11.999Z</time></trkpt><trkpt lat="43.33631627304016" lon="11.449927478123403"><ele>212.0</ele><time>2026-04-11T04:33:12.999Z</time></trkpt><trkpt lat="43.33641069082358" lon="11.449846957833746"><ele>211.6</ele><time>2026-04-11T04:33:13.999Z</time></trkpt><trkpt lat="43.336443644216025" lon="11.449667055637624"><ele>211.2</ele><time>2026-04-11T04:33:14.999Z</time></trkpt><trkpt lat="43.33645966711202" lon="11.44951690667141"><ele>210.8</ele><time>2026-04-11T04:33:15.999Z</time></trkpt><trkpt lat="43.336466109145036" lon="11.449384571953672"><ele>210.4</ele><time>2026-04-11T04:33:16.999Z</time></trkpt><trkpt lat="43.33649459581439" lon="11.44926717589217"><ele>210.0</ele><time>2026-04-11T04:33:17.999Z</time></trkpt><trkpt lat="43.33650554017917" lon="11.44914742917728"><ele>210.0</ele><time>2026-04-11T04:33:18.999Z</time></trkpt><trkpt lat="43.33650958092315" lon="11.449025009057943"><ele>210.0</ele><time>2026-04-11T04:33:19.999Z</time></trkpt><trkpt lat="43.3364894371494" lon="11.448901988477921"><ele>210.0</ele><time>2026-04-11T04:33:20.999Z</time></trkpt><trkpt lat="43.336465268970315" lon="11.44878274151435"><ele>210.0</ele><time>2026-04-11T04:33:21.999Z</time></trkpt><trkpt lat="43.33642138801664" lon="11.448671564360906"><ele>210.0</ele><time>2026-04-11T04:33:22.999Z</time></trkpt><trkpt lat="43.33636916383588" lon="11.448574328762513"><ele>209.5</ele><time>2026-04-11T04:33:23.999Z</time></trkpt><trkpt lat="43.336320025691556" lon="11.44847889884322"><ele>209.0</ele><time>2026-04-11T04:33:24.999Z</time></trkpt><trkpt lat="43.33627234020962" lon="11.448385745997772"><ele>208.5</ele><time>2026-04-11T04:33:25.999Z</time></trkpt><trkpt lat="43.336230268335456" lon="11.44829786656095"><ele>208.0</ele><time>2026-04-11T04:33:26.999Z</time></trkpt><trkpt lat="43.336192311173086" lon="11.448217221471046"><ele>207.5</ele><time>2026-04-11T04:33:27.999Z</time></trkpt><trkpt lat="43.33615518669773" lon="11.448137086238638"><ele>207.0</ele><time>2026-04-11T04:33:28.999Z</time></trkpt><trkpt lat="43.336124624633925" lon="11.448049828632339"><ele>207.0</ele><time>2026-04-11T04:33:29.999Z</time></trkpt><trkpt lat="43.336118190835926" lon="11.447945795982072"><ele>207.0</ele><time>2026-04-11T04:33:30.999Z</time></trkpt><trkpt lat="43.33617507520932" lon="11.447852782627757"><ele>207.0</ele><time>2026-04-11T04:33:31.999Z</time></trkpt><trkpt lat="43.33621340409509" lon="11.447758927542854"><ele>207.0</ele><time>2026-04-11T04:33:32.999Z</time></trkpt><trkpt lat="43.336256488914636" lon="11.447669461475106"><ele>207.0</ele><time>2026-04-11T04:33:33.999Z</time></trkpt><trkpt lat="43.33629018401736" lon="11.447570726534524"><ele>207.0</ele><time>2026-04-11T04:33:34.999Z</time></trkpt><trkpt lat="43.33634463265823" lon="11.447496955532365"><ele>207.00000000000003</ele><time>2026-04-11T04:33:35.999Z</time></trkpt><trkpt lat="43.336384433712354" lon="11.44740443518981"><ele>207.0</ele><time>2026-04-11T04:33:36.999Z</time></trkpt><trkpt lat="43.33641724940914" lon="11.44731098435753"><ele>207.0</ele><time>2026-04-11T04:33:37.999Z</time></trkpt><trkpt lat="43.33644622901908" lon="11.447216005825798"><ele>207.0</ele><time>2026-04-11T04:33:38.999Z</time></trkpt><trkpt lat="43.33646987976335" lon="11.447121722936284"><ele>207.0</ele><time>2026-04-11T04:33:40Z</time></trkpt><trkpt lat="43.33648409509022" lon="11.447021012624155"><ele>207.00000000000003</ele><time>2026-04-11T04:33:41Z</time></trkpt><trkpt lat="43.33649025886949" lon="11.446925997632212"><ele>207.0</ele><time>2026-04-11T04:33:42Z</time></trkpt><trkpt lat="43.33648369861643" lon="11.446832306430025"><ele>207.39999999999998</ele><time>2026-04-11T04:33:43Z</time></trkpt><trkpt lat="43.33645946169724" lon="11.446751490333675"><ele>207.79999999999998</ele><time>2026-04-11T04:33:44Z</time></trkpt><trkpt lat="43.336449634114004" lon="11.446598505907478"><ele>208.2</ele><time>2026-04-11T04:33:46Z</time></trkpt><trkpt lat="43.33642193772777" lon="11.446467980712836"><ele>208.6</ele><time>2026-04-11T04:33:48Z</time></trkpt><trkpt lat="43.33639265835828" lon="11.44634944423482"><ele>209.0</ele><time>2026-04-11T04:33:50Z</time></trkpt><trkpt lat="43.336362251072025" lon="11.446230040854328"><ele>209.83333333333334</ele><time>2026-04-11T04:33:52Z</time></trkpt><trkpt lat="43.33633199638337" lon="11.446111236689534"><ele>210.66666666666669</ele><time>2026-04-11T04:33:54Z</time></trkpt><trkpt lat="43.336304644858494" lon="11.44599508683371"><ele>211.5</ele><time>2026-04-11T04:33:56Z</time></trkpt><trkpt lat="43.33627978936444" lon="11.445886595306865"><ele>212.33333333333331</ele><time>2026-04-11T04:33:58Z</time></trkpt><trkpt lat="43.33624214553299" lon="11.445787571002631"><ele>213.16666666666666</ele><time>2026-04-11T04:34:00Z</time></trkpt><trkpt lat="43.3362174024632" lon="11.445699770537898"><ele>214.0</ele><time>2026-04-11T04:34:02Z</time></trkpt><trkpt lat="43.33619179238727" lon="11.445616302764945"><ele>213.99999999999997</ele><time>2026-04-11T04:34:05Z</time></trkpt><trkpt lat="43.33615863624988" lon="11.445522265029632"><ele>214.0</ele><time>2026-04-11T04:34:08Z</time></trkpt><trkpt lat="43.33612287687579" lon="11.445428585656396"><ele>214.0</ele><time>2026-04-11T04:34:10Z</time></trkpt><trkpt lat="43.33607852094883" lon="11.445341982326662"><ele>214.0</ele><time>2026-04-11T04:34:13Z</time></trkpt><trkpt lat="43.336044456385274" lon="11.4452457579989"><ele>213.99999999999997</ele><time>2026-04-11T04:34:17Z</time></trkpt><trkpt lat="43.33600197808051" lon="11.44515869817174"><ele>214.0</ele><time>2026-04-11T04:34:20Z</time></trkpt><trkpt lat="43.33595649440249" lon="11.445066916844496"><ele>215.00000000000003</ele><time>2026-04-11T04:34:23Z</time></trkpt><trkpt lat="43.33591521279929" lon="11.44498045334946"><ele>216.0</ele><time>2026-04-11T04:34:25Z</time></trkpt><trkpt lat="43.33586286286357" lon="11.444876041312392"><ele>217.0</ele><time>2026-04-11T04:34:28Z</time></trkpt><trkpt lat="43.3358294360442" lon="11.444800942667028"><ele>218.0</ele><time>2026-04-11T04:34:30Z</time></trkpt><trkpt lat="43.335791707240524" lon="11.444720296548105"><ele>219.0</ele><time>2026-04-11T04:34:32Z</time></trkpt><trkpt lat="43.335754407129606" lon="11.444639656287283"><ele>220.00000000000003</ele><time>2026-04-11T04:34:34Z</time></trkpt><trkpt lat="43.33570850902338" lon="11.444553777844254"><ele>221.0</ele><time>2026-04-11T04:34:37Z</time></trkpt><trkpt lat="43.33565681235091" lon="11.444450969027322"><ele>221.16666666666669</ele><time>2026-04-11T04:34:39Z</time></trkpt><trkpt lat="43.33560361159681" lon="11.444367494608"><ele>221.33333333333334</ele><time>2026-04-11T04:34:42Z</time></trkpt><trkpt lat="43.33556326602263" lon="11.444287296621695"><ele>221.5</ele><time>2026-04-11T04:34:44Z</time></trkpt><trkpt lat="43.33551048066341" lon="11.444184574025972"><ele>221.66666666666669</ele><time>2026-04-11T04:34:47Z</time></trkpt><trkpt lat="43.335459205192144" lon="11.44409142058161"><ele>221.83333333333334</ele><time>2026-04-11T04:34:50Z</time></trkpt><trkpt lat="43.33540520357287" lon="11.444000349162664"><ele>222.0</ele><time>2026-04-11T04:34:53Z</time></trkpt><trkpt lat="43.33535791183697" lon="11.443901847430578"><ele>222.0</ele><time>2026-04-11T04:34:56Z</time></trkpt><trkpt lat="43.33530349746658" lon="11.443799606518727"><ele>222.0</ele><time>2026-04-11T04:34:58.999Z</time></trkpt><trkpt lat="43.33525957976795" lon="11.44371168909363"><ele>222.0</ele><time>2026-04-11T04:35:01.999Z</time></trkpt><trkpt lat="43.33520936801454" lon="11.4436028589776"><ele>222.0</ele><time>2026-04-11T04:35:04.999Z</time></trkpt><trkpt lat="43.335173095204155" lon="11.443501677132351"><ele>222.0</ele><time>2026-04-11T04:35:06.999Z</time></trkpt><trkpt lat="43.3351361084426" lon="11.443365630438414"><ele>221.75</ele><time>2026-04-11T04:35:08.999Z</time></trkpt><trkpt lat="43.33511918028254" lon="11.44322237502982"><ele>221.5</ele><time>2026-04-11T04:35:10.999Z</time></trkpt><trkpt lat="43.33512276972027" lon="11.443010416620401"><ele>221.25</ele><time>2026-04-11T04:35:11.999Z</time></trkpt><trkpt lat="43.33514514381705" lon="11.442883301132074"><ele>221.0</ele><time>2026-04-11T04:35:12.999Z</time></trkpt><trkpt lat="43.33518214612439" lon="11.442732427725046"><ele>218.75</ele><time>2026-04-11T04:35:13.999Z</time></trkpt><trkpt lat="43.33522180941911" lon="11.442588597194348"><ele>216.5</ele><time>2026-04-11T04:35:14.999Z</time></trkpt><trkpt lat="43.33525699726418" lon="11.44244465829438"><ele>214.25</ele><time>2026-04-11T04:35:15.999Z</time></trkpt><trkpt lat="43.33528764594859" lon="11.442288475966"><ele>212.0</ele><time>2026-04-11T04:35:16.999Z</time></trkpt><trkpt lat="43.335309464508846" lon="11.442133593830254"><ele>212.0</ele><time>2026-04-11T04:35:17.999Z</time></trkpt><trkpt lat="43.33532529117111" lon="11.441980604049348"><ele>212.0</ele><time>2026-04-11T04:35:18.999Z</time></trkpt><trkpt lat="43.33532099182735" lon="11.441828006908686"><ele>212.0</ele><time>2026-04-11T04:35:19.999Z</time></trkpt><trkpt lat="43.335282190651334" lon="11.44169650728825"><ele>212.0</ele><time>2026-04-11T04:35:20.999Z</time></trkpt><trkpt lat="43.335223682065184" lon="11.441583328572248"><ele>212.0</ele><time>2026-04-11T04:35:21.999Z</time></trkpt><trkpt lat="43.3351822396809" lon="11.44147258988569"><ele>212.00000000000003</ele><time>2026-04-11T04:35:22.999Z</time></trkpt><trkpt lat="43.335150072737044" lon="11.441368900388698"><ele>212.0</ele><time>2026-04-11T04:35:23.999Z</time></trkpt><trkpt lat="43.33513049254945" lon="11.441258288240522"><ele>212.0</ele><time>2026-04-11T04:35:24.999Z</time></trkpt><trkpt lat="43.335132775716" lon="11.44115494589699"><ele>212.0</ele><time>2026-04-11T04:35:25.999Z</time></trkpt><trkpt lat="43.33513348501317" lon="11.441054083933171"><ele>212.00000000000003</ele><time>2026-04-11T04:35:26.999Z</time></trkpt><trkpt lat="43.33512922066094" lon="11.44094301009322"><ele>212.0</ele><time>2026-04-11T04:35:28.999Z</time></trkpt><trkpt lat="43.33514440703313" lon="11.440835368679043"><ele>213.16666666666669</ele><time>2026-04-11T04:35:30.999Z</time></trkpt><trkpt lat="43.335135621715665" lon="11.440746022542024"><ele>214.33333333333334</ele><time>2026-04-11T04:35:32.999Z</time></trkpt><trkpt lat="43.335143186199986" lon="11.440628638445567"><ele>215.5</ele><time>2026-04-11T04:35:35.999Z</time></trkpt><trkpt lat="43.33513227116688" lon="11.440514522492217"><ele>216.66666666666669</ele><time>2026-04-11T04:35:38.999Z</time></trkpt><trkpt lat="43.33511680397805" lon="11.44040464500157"><ele>217.83333333333334</ele><time>2026-04-11T04:35:42.999Z</time></trkpt><trkpt lat="43.335092802607264" lon="11.440301403543382"><ele>219.0</ele><time>2026-04-11T04:35:47Z</time></trkpt><trkpt lat="43.335069040047934" lon="11.440213262823974"><ele>219.71428571428572</ele><time>2026-04-11T04:35:51Z</time></trkpt><trkpt lat="43.33503316150082" lon="11.440139650646383"><ele>220.42857142857142</ele><time>2026-04-11T04:35:54Z</time></trkpt><trkpt lat="43.33499984851991" lon="11.440041800962563"><ele>221.14285714285714</ele><time>2026-04-11T04:35:59Z</time></trkpt><trkpt lat="43.334969075323095" lon="11.43994183873723"><ele>221.85714285714286</ele><time>2026-04-11T04:36:04Z</time></trkpt><trkpt lat="43.3349428866747" lon="11.43985454346685"><ele>222.57142857142856</ele><time>2026-04-11T04:36:09Z</time></trkpt><trkpt lat="43.33490092014934" lon="11.439762910951272"><ele>223.28571428571428</ele><time>2026-04-11T04:36:14Z</time></trkpt><trkpt lat="43.33487302421112" lon="11.439665028121928"><ele>224.0</ele><time>2026-04-11T04:36:19Z</time></trkpt><trkpt lat="43.33483309642612" lon="11.439585939405877"><ele>224.0</ele><time>2026-04-11T04:36:24Z</time></trkpt><trkpt lat="43.33479649010419" lon="11.43950394039231"><ele>224.0</ele><time>2026-04-11T04:36:28Z</time></trkpt><trkpt lat="43.33475488384826" lon="11.43941345938196"><ele>224.0</ele><time>2026-04-11T04:36:33Z</time></trkpt><trkpt lat="43.334718384233284" lon="11.439328672912275"><ele>224.0</ele><time>2026-04-11T04:36:37Z</time></trkpt><trkpt lat="43.334675656350775" lon="11.439254206975187"><ele>224.0</ele><time>2026-04-11T04:36:41Z</time></trkpt><trkpt lat="43.334640378762614" lon="11.439174061879763"><ele>224.0</ele><time>2026-04-11T04:36:45Z</time></trkpt><trkpt lat="43.33459835403789" lon="11.439095984767706"><ele>224.0</ele><time>2026-04-11T04:36:50Z</time></trkpt><trkpt lat="43.33454788109961" lon="11.439005707223318"><ele>225.33333333333334</ele><time>2026-04-11T04:36:54Z</time></trkpt><trkpt lat="43.33450655197239" lon="11.438931922850404"><ele>226.66666666666669</ele><time>2026-04-11T04:36:57.999Z</time></trkpt><trkpt lat="43.33446163141848" lon="11.438836056812999"><ele>228.0</ele><time>2026-04-11T04:37:01.999Z</time></trkpt><trkpt lat="43.33438583508621" lon="11.438775504528463"><ele>229.33333333333331</ele><time>2026-04-11T04:37:05.999Z</time></trkpt><trkpt lat="43.33430162300046" lon="11.438734551000733"><ele>230.66666666666666</ele><time>2026-04-11T04:37:08.999Z</time></trkpt><trkpt lat="43.334221328779925" lon="11.43869299373154"><ele>232.0</ele><time>2026-04-11T04:37:11.999Z</time></trkpt><trkpt lat="43.33413303599394" lon="11.438671417410323"><ele>231.99999999999997</ele><time>2026-04-11T04:37:14.999Z</time></trkpt><trkpt lat="43.33405209330308" lon="11.438632843395046"><ele>232.0</ele><time>2026-04-11T04:37:17.999Z</time></trkpt><trkpt lat="43.33398505056409" lon="11.438584301256938"><ele>232.0</ele><time>2026-04-11T04:37:20.999Z</time></trkpt><trkpt lat="43.33392873549617" lon="11.438526215952885"><ele>232.0</ele><time>2026-04-11T04:37:23.999Z</time></trkpt><trkpt lat="43.33387217593081" lon="11.438463168523405"><ele>231.99999999999997</ele><time>2026-04-11T04:37:26.999Z</time></trkpt><trkpt lat="43.33381532371595" lon="11.438393267413694"><ele>232.0</ele><time>2026-04-11T04:37:29.999Z</time></trkpt><trkpt lat="43.333765086138875" lon="11.438305223358935"><ele>232.66666666666666</ele><time>2026-04-11T04:37:32.999Z</time></trkpt><trkpt lat="43.33372044819568" lon="11.438181925220622"><ele>233.33333333333331</ele><time>2026-04-11T04:37:36.999Z</time></trkpt><trkpt lat="43.333696563966114" lon="11.438101503101409"><ele>234.0</ele><time>2026-04-11T04:37:39.999Z</time></trkpt><trkpt lat="43.333683679067406" lon="11.438012978856039"><ele>234.66666666666669</ele><time>2026-04-11T04:37:42.999Z</time></trkpt><trkpt lat="43.33367341797165" lon="11.437899695869275"><ele>235.33333333333334</ele><time>2026-04-11T04:37:46.999Z</time></trkpt><trkpt lat="43.333673866987425" lon="11.437784691746655"><ele>236.0</ele><time>2026-04-11T04:37:50.999Z</time></trkpt><trkpt lat="43.333665837193365" lon="11.437673880874913"><ele>236.57142857142856</ele><time>2026-04-11T04:37:55Z</time></trkpt><trkpt lat="43.3336612111136" lon="11.437580868409473"><ele>237.14285714285717</ele><time>2026-04-11T04:37:59Z</time></trkpt><trkpt lat="43.33365979694718" lon="11.437490472535114"><ele>237.71428571428572</ele><time>2026-04-11T04:38:02Z</time></trkpt><trkpt lat="43.333665949725166" lon="11.43737750602144"><ele>238.28571428571428</ele><time>2026-04-11T04:38:06Z</time></trkpt><trkpt lat="43.33365506038238" lon="11.437291229063264"><ele>238.85714285714283</ele><time>2026-04-11T04:38:09Z</time></trkpt><trkpt lat="43.33364653167429" lon="11.4371807120025"><ele>239.42857142857144</ele><time>2026-04-11T04:38:13Z</time></trkpt><trkpt lat="43.333634961270505" lon="11.437083519082362"><ele>240.0</ele><time>2026-04-11T04:38:16Z</time></trkpt><trkpt lat="43.333623041100275" lon="11.436988880385496"><ele>240.5</ele><time>2026-04-11T04:38:19Z</time></trkpt><trkpt lat="43.333603070705266" lon="11.436885717634071"><ele>241.0</ele><time>2026-04-11T04:38:22Z</time></trkpt><trkpt lat="43.333586251533326" lon="11.43677738838748"><ele>241.5</ele><time>2026-04-11T04:38:25Z</time></trkpt><trkpt lat="43.33356614639616" lon="11.436655920273841"><ele>242.0</ele><time>2026-04-11T04:38:28Z</time></trkpt><trkpt lat="43.333558156227326" lon="11.436569717700316"><ele>242.5</ele><time>2026-04-11T04:38:30Z</time></trkpt><trkpt lat="43.333548893046284" lon="11.436482683659499"><ele>243.0</ele><time>2026-04-11T04:38:32Z</time></trkpt><trkpt lat="43.33353898536341" lon="11.43635755321057"><ele>242.85714285714283</ele><time>2026-04-11T04:38:34Z</time></trkpt><trkpt lat="43.33353437493741" lon="11.436232277957977"><ele>242.71428571428572</ele><time>2026-04-11T04:38:37Z</time></trkpt><trkpt lat="43.3335243614487" lon="11.436142016200751"><ele>242.57142857142856</ele><time>2026-04-11T04:38:39Z</time></trkpt><trkpt lat="43.33352079266827" lon="11.43604802437064"><ele>242.42857142857142</ele><time>2026-04-11T04:38:41Z</time></trkpt><trkpt lat="43.33351517082345" lon="11.435954732659097"><ele>242.28571428571428</ele><time>2026-04-11T04:38:43Z</time></trkpt><trkpt lat="43.33350585085969" lon="11.435855761368986"><ele>242.14285714285714</ele><time>2026-04-11T04:38:45Z</time></trkpt><trkpt lat="43.33350804502183" lon="11.435757833454451"><ele>242.0</ele><time>2026-04-11T04:38:47Z</time></trkpt><trkpt lat="43.333513822078004" lon="11.435667714161262"><ele>242.00000000000003</ele><time>2026-04-11T04:38:49Z</time></trkpt><trkpt lat="43.33352517498506" lon="11.435579852300554"><ele>242.0</ele><time>2026-04-11T04:38:51Z</time></trkpt><trkpt lat="43.333547980787266" lon="11.43546292423169"><ele>242.0</ele><time>2026-04-11T04:38:54Z</time></trkpt><trkpt lat="43.33358336260766" lon="11.435378275450338"><ele>242.0</ele><time>2026-04-11T04:38:56Z</time></trkpt><trkpt lat="43.3336214678539" lon="11.435291455094793"><ele>242.00000000000003</ele><time>2026-04-11T04:38:58Z</time></trkpt><trkpt lat="43.33365485681645" lon="11.43520579661527"><ele>242.0</ele><time>2026-04-11T04:39:00Z</time></trkpt><trkpt lat="43.333697125579356" lon="11.435104412032512"><ele>242.16666666666669</ele><time>2026-04-11T04:39:01.999Z</time></trkpt><trkpt lat="43.33373169302473" lon="11.43498908142091"><ele>242.33333333333334</ele><time>2026-04-11T04:39:03.999Z</time></trkpt><trkpt lat="43.33375996801221" lon="11.434870528856191"><ele>242.5</ele><time>2026-04-11T04:39:05.999Z</time></trkpt><trkpt lat="43.33379116793953" lon="11.434759944829365"><ele>242.66666666666669</ele><time>2026-04-11T04:39:07.999Z</time></trkpt><trkpt lat="43.33381383432272" lon="11.434646747257052"><ele>242.83333333333334</ele><time>2026-04-11T04:39:09.999Z</time></trkpt><trkpt lat="43.33384781665774" lon="11.434536492740499"><ele>243.0</ele><time>2026-04-11T04:39:11.999Z</time></trkpt><trkpt lat="43.33386865726931" lon="11.434429554519223"><ele>243.0</ele><time>2026-04-11T04:39:13.999Z</time></trkpt><trkpt lat="43.333884098276506" lon="11.434324734390234"><ele>243.0</ele><time>2026-04-11T04:39:15.999Z</time></trkpt><trkpt lat="43.333890533925455" lon="11.43423626568491"><ele>243.0</ele><time>2026-04-11T04:39:17.999Z</time></trkpt><trkpt lat="43.33387949312695" lon="11.434127428199492"><ele>243.0</ele><time>2026-04-11T04:39:19.999Z</time></trkpt><trkpt lat="43.33385391025092" lon="11.434033461732987"><ele>243.0</ele><time>2026-04-11T04:39:21.999Z</time></trkpt><trkpt lat="43.33381567347881" lon="11.43394975877223"><ele>243.0</ele><time>2026-04-11T04:39:23.999Z</time></trkpt><trkpt lat="43.33378981694765" lon="11.433869434935604"><ele>243.0</ele><time>2026-04-11T04:39:25.999Z</time></trkpt><trkpt lat="43.333755743993834" lon="11.433796368258639"><ele>244.16666666666666</ele><time>2026-04-11T04:39:28.999Z</time></trkpt><trkpt lat="43.33371241297972" lon="11.433705426009912"><ele>245.33333333333331</ele><time>2026-04-11T04:39:31.999Z</time></trkpt><trkpt lat="43.33366918824801" lon="11.43361729078883"><ele>246.5</ele><time>2026-04-11T04:39:34.999Z</time></trkpt><trkpt lat="43.33362685751075" lon="11.433534571877555"><ele>247.66666666666666</ele><time>2026-04-11T04:39:37.999Z</time></trkpt><trkpt lat="43.33358693996503" lon="11.433444962985028"><ele>248.83333333333331</ele><time>2026-04-11T04:39:40.999Z</time></trkpt><trkpt lat="43.33355992566901" lon="11.43332618446918"><ele>250.0</ele><time>2026-04-11T04:39:42.999Z</time></trkpt><trkpt lat="43.3336015008274" lon="11.433241021838533"><ele>250.0</ele><time>2026-04-11T04:39:44.999Z</time></trkpt><trkpt lat="43.3336817083806" lon="11.433211675000328"><ele>250.0</ele><time>2026-04-11T04:39:46.999Z</time></trkpt><trkpt lat="43.33374837689955" lon="11.433183515804883"><ele>250.0</ele><time>2026-04-11T04:39:48.999Z</time></trkpt><trkpt lat="43.33388094319258" lon="11.433100108330821"><ele>250.0</ele><time>2026-04-11T04:39:51.999Z</time></trkpt><trkpt lat="43.333962133239496" lon="11.433061452960391"><ele>250.0</ele><time>2026-04-11T04:39:53.999Z</time></trkpt><trkpt lat="43.334043134197344" lon="11.433015172109114"><ele>250.2</ele><time>2026-04-11T04:39:55.999Z</time></trkpt><trkpt lat="43.33412760651413" lon="11.432967880777085"><ele>250.4</ele><time>2026-04-11T04:39:58Z</time></trkpt><trkpt lat="43.33421619887931" lon="11.43292286357513"><ele>250.60000000000002</ele><time>2026-04-11T04:40:00Z</time></trkpt><trkpt lat="43.334303535279375" lon="11.432873148643225"><ele>250.8</ele><time>2026-04-11T04:40:02Z</time></trkpt><trkpt lat="43.33439277215988" lon="11.432822142787849"><ele>251.0</ele><time>2026-04-11T04:40:04Z</time></trkpt><trkpt lat="43.33448148208861" lon="11.43277498251145"><ele>251.0</ele><time>2026-04-11T04:40:06Z</time></trkpt><trkpt lat="43.334569745371596" lon="11.432722774170392"><ele>251.00000000000003</ele><time>2026-04-11T04:40:08Z</time></trkpt><trkpt lat="43.33465918028816" lon="11.432673547597922"><ele>251.00000000000003</ele><time>2026-04-11T04:40:10Z</time></trkpt><trkpt lat="43.334744235845506" lon="11.432619854749978"><ele>251.0</ele><time>2026-04-11T04:40:12Z</time></trkpt><trkpt lat="43.33483565166045" lon="11.43257068950134"><ele>251.0</ele><time>2026-04-11T04:40:14Z</time></trkpt><trkpt lat="43.3349280758435" lon="11.432517618112296"><ele>251.20000000000002</ele><time>2026-04-11T04:40:16Z</time></trkpt><trkpt lat="43.33501650419212" lon="11.432465755115075"><ele>251.40000000000003</ele><time>2026-04-11T04:40:18Z</time></trkpt><trkpt lat="43.335100851610065" lon="11.432421264649848"><ele>251.6</ele><time>2026-04-11T04:40:20Z</time></trkpt><trkpt lat="43.33518200599199" lon="11.432373840423976"><ele>251.8</ele><time>2026-04-11T04:40:22Z</time></trkpt><trkpt lat="43.33526469350841" lon="11.432334715563185"><ele>252.0</ele><time>2026-04-11T04:40:24Z</time></trkpt><trkpt lat="43.335351718589166" lon="11.432285830567809"><ele>252.0</ele><time>2026-04-11T04:40:26Z</time></trkpt><trkpt lat="43.33543826893271" lon="11.432236725724774"><ele>252.0</ele><time>2026-04-11T04:40:28Z</time></trkpt><trkpt lat="43.33552410689967" lon="11.432190625275556"><ele>252.0</ele><time>2026-04-11T04:40:30Z</time></trkpt><trkpt lat="43.33560981765012" lon="11.432140949688288"><ele>252.0</ele><time>2026-04-11T04:40:32Z</time></trkpt><trkpt lat="43.335699395513565" lon="11.432096247746848"><ele>252.0</ele><time>2026-04-11T04:40:34Z</time></trkpt><trkpt lat="43.33578785798422" lon="11.432041422481849"><ele>253.0</ele><time>2026-04-11T04:40:36Z</time></trkpt><trkpt lat="43.335880011438064" lon="11.431988931425135"><ele>254.0</ele><time>2026-04-11T04:40:38Z</time></trkpt><trkpt lat="43.33603308366402" lon="11.431904885758213"><ele>255.0</ele><time>2026-04-11T04:40:41Z</time></trkpt><trkpt lat="43.33614418097815" lon="11.43184540998857"><ele>256.0</ele><time>2026-04-11T04:40:43Z</time></trkpt><trkpt lat="43.33625250233092" lon="11.431784923056567"><ele>256.0</ele><time>2026-04-11T04:40:45Z</time></trkpt><trkpt lat="43.33631058250266" lon="11.43174886611139"><ele>255.99999999999997</ele><time>2026-04-11T04:40:46Z</time></trkpt><trkpt lat="43.33637094750997" lon="11.431708828489327"><ele>256.0</ele><time>2026-04-11T04:40:47Z</time></trkpt><trkpt lat="43.3364330209022" lon="11.431683263195087"><ele>256.0</ele><time>2026-04-11T04:40:48Z</time></trkpt><trkpt lat="43.33649494789278" lon="11.43165670713838"><ele>255.99999999999997</ele><time>2026-04-11T04:40:49Z</time></trkpt><trkpt lat="43.33655708917044" lon="11.431622100221196"><ele>256.0</ele><time>2026-04-11T04:40:50Z</time></trkpt><trkpt lat="43.33662039520407" lon="11.431586936227777"><ele>256.0</ele><time>2026-04-11T04:40:51Z</time></trkpt><trkpt lat="43.336688249550875" lon="11.431552128496778"><ele>255.42857142857142</ele><time>2026-04-11T04:40:52Z</time></trkpt><trkpt lat="43.336755952348696" lon="11.43151709739254"><ele>254.85714285714283</ele><time>2026-04-11T04:40:53Z</time></trkpt><trkpt lat="43.33682433796976" lon="11.4314857714005"><ele>254.28571428571428</ele><time>2026-04-11T04:40:54Z</time></trkpt><trkpt lat="43.336895180177365" lon="11.431454087749009"><ele>253.71428571428572</ele><time>2026-04-11T04:40:55Z</time></trkpt><trkpt lat="43.33696678805695" lon="11.431427206027328"><ele>253.14285714285714</ele><time>2026-04-11T04:40:56Z</time></trkpt><trkpt lat="43.33703983983792" lon="11.431409326041248"><ele>252.57142857142856</ele><time>2026-04-11T04:40:57Z</time></trkpt><trkpt lat="43.33711065440393" lon="11.431396973807939"><ele>252.0</ele><time>2026-04-11T04:40:58Z</time></trkpt><trkpt lat="43.33723375871761" lon="11.431398112242686"><ele>251.2</ele><time>2026-04-11T04:40:59.999Z</time></trkpt><trkpt lat="43.337348326302326" lon="11.431404025573183"><ele>250.39999999999998</ele><time>2026-04-11T04:41:01.999Z</time></trkpt><trkpt lat="43.337460418811595" lon="11.431406367123461"><ele>249.60000000000002</ele><time>2026-04-11T04:41:03.999Z</time></trkpt><trkpt lat="43.337568392607885" lon="11.431405210292773"><ele>248.8</ele><time>2026-04-11T04:41:05.999Z</time></trkpt><trkpt lat="43.33768162228867" lon="11.431414921837508"><ele>248.0</ele><time>2026-04-11T04:41:07.999Z</time></trkpt><trkpt lat="43.337797970717766" lon="11.431414086098949"><ele>248.0</ele><time>2026-04-11T04:41:09.999Z</time></trkpt><trkpt lat="43.33790709703917" lon="11.431418618867411"><ele>248.0</ele><time>2026-04-11T04:41:11.999Z</time></trkpt><trkpt lat="43.3380168123731" lon="11.431425087526407"><ele>248.0</ele><time>2026-04-11T04:41:13.999Z</time></trkpt><trkpt lat="43.33812914641795" lon="11.431431202655963"><ele>248.0</ele><time>2026-04-11T04:41:15.999Z</time></trkpt><trkpt lat="43.33824532803278" lon="11.431452925208628"><ele>248.0</ele><time>2026-04-11T04:41:17.999Z</time></trkpt><trkpt lat="43.3383584312677" lon="11.431506175393752"><ele>248.4</ele><time>2026-04-11T04:41:19.999Z</time></trkpt><trkpt lat="43.3384565448497" lon="11.431574659518132"><ele>248.8</ele><time>2026-04-11T04:41:21.999Z</time></trkpt><trkpt lat="43.338547039718414" lon="11.431659950911985"><ele>249.2</ele><time>2026-04-11T04:41:23.999Z</time></trkpt><trkpt lat="43.33862983671606" lon="11.431750777688364"><ele>249.6</ele><time>2026-04-11T04:41:25.999Z</time></trkpt><trkpt lat="43.33871356551313" lon="11.431838581374603"><ele>250.0</ele><time>2026-04-11T04:41:27.999Z</time></trkpt><trkpt lat="43.33879731910376" lon="11.43193490997516"><ele>250.0</ele><time>2026-04-11T04:41:29.999Z</time></trkpt><trkpt lat="43.33888027076296" lon="11.432029850197516"><ele>250.0</ele><time>2026-04-11T04:41:31.999Z</time></trkpt><trkpt lat="43.33895883247602" lon="11.43212426653232"><ele>250.0</ele><time>2026-04-11T04:41:33.999Z</time></trkpt><trkpt lat="43.339024339036705" lon="11.432197074855349"><ele>250.0</ele><time>2026-04-11T04:41:35.999Z</time></trkpt><trkpt lat="43.33909692444787" lon="11.432285388060885"><ele>250.0</ele><time>2026-04-11T04:41:37.999Z</time></trkpt><trkpt lat="43.339173681822004" lon="11.432383663945666"><ele>250.0</ele><time>2026-04-11T04:41:39.999Z</time></trkpt><trkpt lat="43.33924960298622" lon="11.432489056060653"><ele>250.0</ele><time>2026-04-11T04:41:41.999Z</time></trkpt><trkpt lat="43.339321787834265" lon="11.432603663716302"><ele>250.0</ele><time>2026-04-11T04:41:43.999Z</time></trkpt><trkpt lat="43.33939426364758" lon="11.43273396673497"><ele>250.0</ele><time>2026-04-11T04:41:45.999Z</time></trkpt><trkpt lat="43.33946048668065" lon="11.432869902697366"><ele>249.25</ele><time>2026-04-11T04:41:47.999Z</time></trkpt><trkpt lat="43.339506041585196" lon="11.43297647920678"><ele>248.5</ele><time>2026-04-11T04:41:49.999Z</time></trkpt><trkpt lat="43.339578792150185" lon="11.433122911383464"><ele>247.75</ele><time>2026-04-11T04:41:50.999Z</time></trkpt><trkpt lat="43.33964099817013" lon="11.433265493687848"><ele>247.0</ele><time>2026-04-11T04:41:52.999Z</time></trkpt><trkpt lat="43.33970059290584" lon="11.433411058546502"><ele>247.39999999999998</ele><time>2026-04-11T04:41:54.999Z</time></trkpt><trkpt lat="43.33976067311789" lon="11.433560955988943"><ele>247.79999999999998</ele><time>2026-04-11T04:41:56.999Z</time></trkpt><trkpt lat="43.33982534481649" lon="11.433709158973146"><ele>248.2</ele><time>2026-04-11T04:41:58.999Z</time></trkpt><trkpt lat="43.33986053117156" lon="11.433786401202624"><ele>248.6</ele><time>2026-04-11T04:41:59.999Z</time></trkpt><trkpt lat="43.33989579695776" lon="11.433865828402006"><ele>249.0</ele><time>2026-04-11T04:42:00.999Z</time></trkpt><trkpt lat="43.339929920557864" lon="11.433948941879974"><ele>249.0</ele><time>2026-04-11T04:42:01.999Z</time></trkpt><trkpt lat="43.33996675174303" lon="11.434027718175635"><ele>248.99999999999997</ele><time>2026-04-11T04:42:02.999Z</time></trkpt><trkpt lat="43.34000704728477" lon="11.434105688342713"><ele>249.0</ele><time>2026-04-11T04:42:04Z</time></trkpt><trkpt lat="43.34005019529729" lon="11.434185994678156"><ele>249.0</ele><time>2026-04-11T04:42:05Z</time></trkpt><trkpt lat="43.34007984551894" lon="11.43428352343677"><ele>248.99999999999997</ele><time>2026-04-11T04:42:06Z</time></trkpt><trkpt lat="43.34012448207964" lon="11.434364498099713"><ele>249.0</ele><time>2026-04-11T04:42:07Z</time></trkpt><trkpt lat="43.34018675447364" lon="11.434427425089764"><ele>249.0</ele><time>2026-04-11T04:42:08Z</time></trkpt><trkpt lat="43.34024256401553" lon="11.43450033457579"><ele>249.0</ele><time>2026-04-11T04:42:09Z</time></trkpt><trkpt lat="43.34028735322301" lon="11.43457184189556"><ele>249.0</ele><time>2026-04-11T04:42:10Z</time></trkpt><trkpt lat="43.34035838945067" lon="11.434619162429064"><ele>249.0</ele><time>2026-04-11T04:42:11Z</time></trkpt><trkpt lat="43.34043600278711" lon="11.434655126557196"><ele>249.0</ele><time>2026-04-11T04:42:12Z</time></trkpt><trkpt lat="43.34051726748066" lon="11.434678854225393"><ele>249.0</ele><time>2026-04-11T04:42:13Z</time></trkpt><trkpt lat="43.34060412475468" lon="11.43468029207914"><ele>249.0</ele><time>2026-04-11T04:42:14Z</time></trkpt><trkpt lat="43.3406908509873" lon="11.434673933753926"><ele>248.5</ele><time>2026-04-11T04:42:15Z</time></trkpt><trkpt lat="43.34077030303775" lon="11.43465324346846"><ele>248.0</ele><time>2026-04-11T04:42:16Z</time></trkpt><trkpt lat="43.34085209185037" lon="11.434619821763128"><ele>247.5</ele><time>2026-04-11T04:42:17Z</time></trkpt><trkpt lat="43.34093537625544" lon="11.434575776323983"><ele>247.0</ele><time>2026-04-11T04:42:18Z</time></trkpt><trkpt lat="43.34101689893899" lon="11.434542339127857"><ele>246.5</ele><time>2026-04-11T04:42:19Z</time></trkpt><trkpt lat="43.341096913106696" lon="11.434509602618498"><ele>246.0</ele><time>2026-04-11T04:42:20Z</time></trkpt><trkpt lat="43.341175343323314" lon="11.43447630809201"><ele>246.0</ele><time>2026-04-11T04:42:21Z</time></trkpt><trkpt lat="43.34125909404319" lon="11.434445999654315"><ele>246.0</ele><time>2026-04-11T04:42:22Z</time></trkpt><trkpt lat="43.34133204523221" lon="11.434417427401561"><ele>246.0</ele><time>2026-04-11T04:42:23Z</time></trkpt><trkpt lat="43.34141100213204" lon="11.434395061655234"><ele>246.0</ele><time>2026-04-11T04:42:24Z</time></trkpt><trkpt lat="43.341491042720776" lon="11.434375188176801"><ele>246.0</ele><time>2026-04-11T04:42:25Z</time></trkpt><trkpt lat="43.341564161608936" lon="11.434345793627886"><ele>246.0</ele><time>2026-04-11T04:42:26Z</time></trkpt><trkpt lat="43.341642210550845" lon="11.434320214490004"><ele>246.0</ele><time>2026-04-11T04:42:27Z</time></trkpt><trkpt lat="43.34171542245271" lon="11.434292345874397"><ele>246.0</ele><time>2026-04-11T04:42:28Z</time></trkpt><trkpt lat="43.34178905067242" lon="11.434263486106452"><ele>246.0</ele><time>2026-04-11T04:42:29Z</time></trkpt><trkpt lat="43.34186598838052" lon="11.434242513697088"><ele>246.0</ele><time>2026-04-11T04:42:30Z</time></trkpt><trkpt lat="43.34194284807978" lon="11.434222418799513"><ele>246.0</ele><time>2026-04-11T04:42:31Z</time></trkpt><trkpt lat="43.34201803721881" lon="11.434199944940165"><ele>246.0</ele><time>2026-04-11T04:42:32Z</time></trkpt><trkpt lat="43.34209206172872" lon="11.434170449064899"><ele>246.0</ele><time>2026-04-11T04:42:33Z</time></trkpt><trkpt lat="43.342165457684715" lon="11.434139840839785"><ele>246.0</ele><time>2026-04-11T04:42:34Z</time></trkpt><trkpt lat="43.342240229097634" lon="11.434113481402363"><ele>246.0</ele><time>2026-04-11T04:42:35Z</time></trkpt><trkpt lat="43.34231450335371" lon="11.434089314732576"><ele>246.0</ele><time>2026-04-11T04:42:36Z</time></trkpt><trkpt lat="43.342388934277814" lon="11.434064748771121"><ele>246.0</ele><time>2026-04-11T04:42:37Z</time></trkpt><trkpt lat="43.34246084949693" lon="11.4340396549316"><ele>246.0</ele><time>2026-04-11T04:42:38Z</time></trkpt><trkpt lat="43.342533759477554" lon="11.434015744618767"><ele>246.16666666666666</ele><time>2026-04-11T04:42:39Z</time></trkpt><trkpt lat="43.34260262687634" lon="11.43399286648261"><ele>246.33333333333331</ele><time>2026-04-11T04:42:40Z</time></trkpt><trkpt lat="43.342671879275905" lon="11.433970679047498"><ele>246.5</ele><time>2026-04-11T04:42:41Z</time></trkpt><trkpt lat="43.34274004626743" lon="11.433948853543017"><ele>246.66666666666666</ele><time>2026-04-11T04:42:42Z</time></trkpt><trkpt lat="43.34280280260534" lon="11.433927712461253"><ele>246.83333333333331</ele><time>2026-04-11T04:42:43Z</time></trkpt><trkpt lat="43.342865971578824" lon="11.433909419784756"><ele>247.0</ele><time>2026-04-11T04:42:44Z</time></trkpt><trkpt lat="43.34298134777348" lon="11.433878144206574"><ele>247.83333333333331</ele><time>2026-04-11T04:42:46Z</time></trkpt><trkpt lat="43.34308794110394" lon="11.433876806722177"><ele>248.66666666666666</ele><time>2026-04-11T04:42:48Z</time></trkpt><trkpt lat="43.3431830862719" lon="11.433898129121426"><ele>249.5</ele><time>2026-04-11T04:42:50Z</time></trkpt><trkpt lat="43.34326131762843" lon="11.433928652402516"><ele>250.33333333333331</ele><time>2026-04-11T04:42:52Z</time></trkpt><trkpt lat="43.343328710252855" lon="11.433983716534218"><ele>251.16666666666666</ele><time>2026-04-11T04:42:54Z</time></trkpt><trkpt lat="43.343388366362035" lon="11.43403721720552"><ele>252.0</ele><time>2026-04-11T04:42:56Z</time></trkpt><trkpt lat="43.34344043910176" lon="11.43410578849232"><ele>252.0</ele><time>2026-04-11T04:42:59Z</time></trkpt><trkpt lat="43.343513915943795" lon="11.434209257005826"><ele>252.0</ele><time>2026-04-11T04:43:01Z</time></trkpt><trkpt lat="43.34357462095323" lon="11.434305753036416"><ele>252.0</ele><time>2026-04-11T04:43:03.999Z</time></trkpt><trkpt lat="43.34362155663461" lon="11.434375869399865"><ele>252.0</ele><time>2026-04-11T04:43:06.999Z</time></trkpt><trkpt lat="43.34367035427732" lon="11.434452018500725"><ele>252.0</ele><time>2026-04-11T04:43:09.999Z</time></trkpt><trkpt lat="43.343731545347815" lon="11.434539592358924"><ele>252.0</ele><time>2026-04-11T04:43:10.999Z</time></trkpt><trkpt lat="43.34379461904221" lon="11.434634198571704"><ele>252.0</ele><time>2026-04-11T04:43:13.999Z</time></trkpt><trkpt lat="43.34384038840783" lon="11.43469658628576"><ele>252.0</ele><time>2026-04-11T04:43:15.999Z</time></trkpt><trkpt lat="43.343886958688614" lon="11.43477095710905"><ele>252.0</ele><time>2026-04-11T04:43:18.999Z</time></trkpt><trkpt lat="43.343943149733235" lon="11.434852744409888"><ele>252.0</ele><time>2026-04-11T04:43:21.999Z</time></trkpt><trkpt lat="43.34400693854737" lon="11.434950344040528"><ele>252.0</ele><time>2026-04-11T04:43:24.999Z</time></trkpt><trkpt lat="43.3440698280453" lon="11.435032504976565"><ele>252.0</ele><time>2026-04-11T04:43:27.999Z</time></trkpt><trkpt lat="43.34414512568459" lon="11.435118073457337"><ele>252.85714285714286</ele><time>2026-04-11T04:43:30.999Z</time></trkpt><trkpt lat="43.34420613227143" lon="11.43518732941486"><ele>253.71428571428572</ele><time>2026-04-11T04:43:32.999Z</time></trkpt><trkpt lat="43.344255744765476" lon="11.435244201558433"><ele>254.57142857142856</ele><time>2026-04-11T04:43:34.999Z</time></trkpt><trkpt lat="43.34431043439208" lon="11.435302783576109"><ele>255.42857142857142</ele><time>2026-04-11T04:43:36.999Z</time></trkpt><trkpt lat="43.34436302846152" lon="11.435359872464074"><ele>256.2857142857143</ele><time>2026-04-11T04:43:38.999Z</time></trkpt><trkpt lat="43.34442067179387" lon="11.435417718658734"><ele>257.1428571428571</ele><time>2026-04-11T04:43:40.999Z</time></trkpt><trkpt lat="43.34448528524354" lon="11.435488172384119"><ele>258.0</ele><time>2026-04-11T04:43:43.999Z</time></trkpt><trkpt lat="43.34456375092968" lon="11.435533156765171"><ele>258.3333333333333</ele><time>2026-04-11T04:43:45.999Z</time></trkpt><trkpt lat="43.34470409020255" lon="11.43559491137038"><ele>258.6666666666667</ele><time>2026-04-11T04:43:47.999Z</time></trkpt><trkpt lat="43.34477512662096" lon="11.435615654352095"><ele>259.0</ele><time>2026-04-11T04:43:49.999Z</time></trkpt><trkpt lat="43.344845037999605" lon="11.435623809236585"><ele>259.33333333333337</ele><time>2026-04-11T04:43:51.999Z</time></trkpt><trkpt lat="43.34491508348935" lon="11.435635682273496"><ele>259.6666666666667</ele><time>2026-04-11T04:43:53.999Z</time></trkpt><trkpt lat="43.344989477857055" lon="11.435638137027711"><ele>260.0</ele><time>2026-04-11T04:43:55.999Z</time></trkpt><trkpt lat="43.34506463755641" lon="11.43563941406351"><ele>260.1666666666667</ele><time>2026-04-11T04:43:57.999Z</time></trkpt><trkpt lat="43.34514224809401" lon="11.435638669854283"><ele>260.33333333333337</ele><time>2026-04-11T04:43:59.999Z</time></trkpt><trkpt lat="43.34522147092624" lon="11.435640060851524"><ele>260.5</ele><time>2026-04-11T04:44:01.999Z</time></trkpt><trkpt lat="43.34530067701845" lon="11.435638797241037"><ele>260.6666666666667</ele><time>2026-04-11T04:44:03.999Z</time></trkpt><trkpt lat="43.34536715240332" lon="11.435641133847797"><ele>260.8333333333333</ele><time>2026-04-11T04:44:05.999Z</time></trkpt><trkpt lat="43.34545328095488" lon="11.43564548365968"><ele>261.0</ele><time>2026-04-11T04:44:07.999Z</time></trkpt><trkpt lat="43.345535696474634" lon="11.435643611699254"><ele>262.0</ele><time>2026-04-11T04:44:10Z</time></trkpt><trkpt lat="43.34561798402036" lon="11.435645541116175"><ele>263.0</ele><time>2026-04-11T04:44:12Z</time></trkpt><trkpt lat="43.34569923135324" lon="11.435655819027854"><ele>264.0</ele><time>2026-04-11T04:44:14Z</time></trkpt><trkpt lat="43.34583737392414" lon="11.435712877550593"><ele>265.0</ele><time>2026-04-11T04:44:18Z</time></trkpt><trkpt lat="43.345921724930236" lon="11.435777523690161"><ele>266.0</ele><time>2026-04-11T04:44:20Z</time></trkpt><trkpt lat="43.34601564418245" lon="11.43585714399725"><ele>266.0</ele><time>2026-04-11T04:44:22Z</time></trkpt><trkpt lat="43.34607254354318" lon="11.435906254320827"><ele>266.0</ele><time>2026-04-11T04:44:23Z</time></trkpt><trkpt lat="43.34616132613908" lon="11.435984947784354"><ele>266.0</ele><time>2026-04-11T04:44:25Z</time></trkpt><trkpt lat="43.346249147440716" lon="11.436055581219039"><ele>266.0</ele><time>2026-04-11T04:44:27Z</time></trkpt><trkpt lat="43.34633822351249" lon="11.43613447971564"><ele>266.0</ele><time>2026-04-11T04:44:29Z</time></trkpt><trkpt lat="43.346444150038565" lon="11.436217020711487"><ele>265.7142857142857</ele><time>2026-04-11T04:44:31Z</time></trkpt><trkpt lat="43.34650033516717" lon="11.436267570387882"><ele>265.42857142857144</ele><time>2026-04-11T04:44:32Z</time></trkpt><trkpt lat="43.34655158468242" lon="11.436323238869024"><ele>265.1428571428571</ele><time>2026-04-11T04:44:33Z</time></trkpt><trkpt lat="43.34660020997118" lon="11.436381479889606"><ele>264.8571428571429</ele><time>2026-04-11T04:44:34Z</time></trkpt><trkpt lat="43.34664956037107" lon="11.436445638691575"><ele>264.57142857142856</ele><time>2026-04-11T04:44:35Z</time></trkpt><trkpt lat="43.346702119949" lon="11.43651188865978"><ele>264.2857142857143</ele><time>2026-04-11T04:44:36Z</time></trkpt><trkpt lat="43.34674848019376" lon="11.436584257944764"><ele>264.0</ele><time>2026-04-11T04:44:37Z</time></trkpt><trkpt lat="43.3467979128481" lon="11.436660546095617"><ele>264.0</ele><time>2026-04-11T04:44:38Z</time></trkpt><trkpt lat="43.34684471199993" lon="11.436738686559364"><ele>264.0</ele><time>2026-04-11T04:44:39Z</time></trkpt><trkpt lat="43.346885176125014" lon="11.436819795229066"><ele>264.0</ele><time>2026-04-11T04:44:40Z</time></trkpt><trkpt lat="43.34693086955332" lon="11.4369031173294"><ele>264.0</ele><time>2026-04-11T04:44:41Z</time></trkpt><trkpt lat="43.346981585184025" lon="11.436985770356907"><ele>264.0</ele><time>2026-04-11T04:44:42Z</time></trkpt><trkpt lat="43.347031258579754" lon="11.43706513729821"><ele>264.0</ele><time>2026-04-11T04:44:43Z</time></trkpt><trkpt lat="43.347065283560646" lon="11.437159638483374"><ele>263.6666666666667</ele><time>2026-04-11T04:44:44Z</time></trkpt><trkpt lat="43.34711441741775" lon="11.437242617928424"><ele>263.3333333333333</ele><time>2026-04-11T04:44:45Z</time></trkpt><trkpt lat="43.34717606258639" lon="11.437318685846448"><ele>263.0</ele><time>2026-04-11T04:44:46Z</time></trkpt><trkpt lat="43.34722095364029" lon="11.437397544624796"><ele>262.66666666666663</ele><time>2026-04-11T04:44:47Z</time></trkpt><trkpt lat="43.34726840919904" lon="11.437483123080725"><ele>262.3333333333333</ele><time>2026-04-11T04:44:48Z</time></trkpt><trkpt lat="43.34731543769648" lon="11.437570948888117"><ele>262.0</ele><time>2026-04-11T04:44:49Z</time></trkpt><trkpt lat="43.347364806219566" lon="11.437651807987558"><ele>261.57142857142856</ele><time>2026-04-11T04:44:50Z</time></trkpt><trkpt lat="43.3474125874299" lon="11.437734282285366"><ele>261.14285714285717</ele><time>2026-04-11T04:44:51Z</time></trkpt><trkpt lat="43.34745839120944" lon="11.437817244619914"><ele>260.7142857142857</ele><time>2026-04-11T04:44:52Z</time></trkpt><trkpt lat="43.34750005116833" lon="11.437897819726375"><ele>260.2857142857143</ele><time>2026-04-11T04:44:53Z</time></trkpt><trkpt lat="43.34755000883114" lon="11.437978950989548"><ele>259.8571428571429</ele><time>2026-04-11T04:44:54Z</time></trkpt><trkpt lat="43.34759636729271" lon="11.43805674455448"><ele>259.42857142857144</ele><time>2026-04-11T04:44:55Z</time></trkpt><trkpt lat="43.34764388674317" lon="11.438131538650598"><ele>259.0</ele><time>2026-04-11T04:44:56Z</time></trkpt><trkpt lat="43.347694807161254" lon="11.43820454820764"><ele>259.0</ele><time>2026-04-11T04:44:57Z</time></trkpt><trkpt lat="43.347745914969124" lon="11.43827483869448"><ele>259.0</ele><time>2026-04-11T04:44:58Z</time></trkpt><trkpt lat="43.34780720857569" lon="11.43833829258464"><ele>259.0</ele><time>2026-04-11T04:44:59Z</time></trkpt><trkpt lat="43.347871416030294" lon="11.438391182614167"><ele>259.0</ele><time>2026-04-11T04:45:00Z</time></trkpt><trkpt lat="43.34794365332214" lon="11.438428608642058"><ele>259.0</ele><time>2026-04-11T04:45:01Z</time></trkpt><trkpt lat="43.34802216713694" lon="11.438454000753007"><ele>259.0</ele><time>2026-04-11T04:45:02Z</time></trkpt><trkpt lat="43.34810238503791" lon="11.438469422825767"><ele>258.3333333333333</ele><time>2026-04-11T04:45:03Z</time></trkpt><trkpt lat="43.34818246489314" lon="11.438481288314392"><ele>257.66666666666663</ele><time>2026-04-11T04:45:04Z</time></trkpt><trkpt lat="43.34826377165857" lon="11.438492424793084"><ele>257.0</ele><time>2026-04-11T04:45:05Z</time></trkpt><trkpt lat="43.34834191092814" lon="11.438501982565121"><ele>256.3333333333333</ele><time>2026-04-11T04:45:06Z</time></trkpt><trkpt lat="43.34841901855523" lon="11.438513159878198"><ele>255.66666666666666</ele><time>2026-04-11T04:45:06.999Z</time></trkpt><trkpt lat="43.34849426691724" lon="11.438523576205059"><ele>255.0</ele><time>2026-04-11T04:45:07.999Z</time></trkpt><trkpt lat="43.34856652642648" lon="11.438535546545312"><ele>255.0</ele><time>2026-04-11T04:45:08.999Z</time></trkpt><trkpt lat="43.348637288737834" lon="11.438545557712668"><ele>255.00000000000003</ele><time>2026-04-11T04:45:09.999Z</time></trkpt><trkpt lat="43.348707759641115" lon="11.438557157393763"><ele>255.0</ele><time>2026-04-11T04:45:10.999Z</time></trkpt><trkpt lat="43.34877378504973" lon="11.438567436729802"><ele>255.0</ele><time>2026-04-11T04:45:11.999Z</time></trkpt><trkpt lat="43.34884361745528" lon="11.438576089698213"><ele>255.00000000000003</ele><time>2026-04-11T04:45:12.999Z</time></trkpt><trkpt lat="43.34891390546835" lon="11.438588407858477"><ele>255.0</ele><time>2026-04-11T04:45:13.999Z</time></trkpt><trkpt lat="43.348984814321376" lon="11.438602251511977"><ele>255.0</ele><time>2026-04-11T04:45:14.999Z</time></trkpt><trkpt lat="43.34905521430119" lon="11.438616045859284"><ele>255.0</ele><time>2026-04-11T04:45:15.999Z</time></trkpt><trkpt lat="43.34912576213484" lon="11.438629194044662"><ele>255.00000000000003</ele><time>2026-04-11T04:45:16.999Z</time></trkpt><trkpt lat="43.349196048459156" lon="11.438646381267539"><ele>255.0</ele><time>2026-04-11T04:45:17.999Z</time></trkpt><trkpt lat="43.34926584166166" lon="11.438671893887756"><ele>255.0</ele><time>2026-04-11T04:45:18.999Z</time></trkpt><trkpt lat="43.349332250526444" lon="11.43870558169206"><ele>255.00000000000003</ele><time>2026-04-11T04:45:19.999Z</time></trkpt><trkpt lat="43.3493962294372" lon="11.438753323976949"><ele>255.0</ele><time>2026-04-11T04:45:20.999Z</time></trkpt><trkpt lat="43.349456543833725" lon="11.438813929115833"><ele>255.0</ele><time>2026-04-11T04:45:21.999Z</time></trkpt><trkpt lat="43.34951237394468" lon="11.438884798512465"><ele>254.33333333333334</ele><time>2026-04-11T04:45:22.999Z</time></trkpt><trkpt lat="43.34956199547231" lon="11.438959390358411"><ele>253.66666666666669</ele><time>2026-04-11T04:45:23.999Z</time></trkpt><trkpt lat="43.349608159238564" lon="11.439044510801738"><ele>253.0</ele><time>2026-04-11T04:45:24.999Z</time></trkpt><trkpt lat="43.349648587250755" lon="11.439134614208884"><ele>252.33333333333334</ele><time>2026-04-11T04:45:25.999Z</time></trkpt><trkpt lat="43.349691269792864" lon="11.439226685419225"><ele>251.66666666666669</ele><time>2026-04-11T04:45:26.999Z</time></trkpt><trkpt lat="43.34973520586014" lon="11.439318226916313"><ele>251.0</ele><time>2026-04-11T04:45:27.999Z</time></trkpt><trkpt lat="43.349781720348126" lon="11.439409472726402"><ele>250.83333333333334</ele><time>2026-04-11T04:45:28.999Z</time></trkpt><trkpt lat="43.34983086681338" lon="11.439500706896219"><ele>250.66666666666669</ele><time>2026-04-11T04:45:29.999Z</time></trkpt><trkpt lat="43.349884328910385" lon="11.439588651215526"><ele>250.5</ele><time>2026-04-11T04:45:30.999Z</time></trkpt><trkpt lat="43.34993932384783" lon="11.439675198462217"><ele>250.33333333333331</ele><time>2026-04-11T04:45:31.999Z</time></trkpt><trkpt lat="43.34999720126897" lon="11.439754897433671"><ele>250.16666666666666</ele><time>2026-04-11T04:45:32.999Z</time></trkpt><trkpt lat="43.35006374794682" lon="11.439821699982128"><ele>250.0</ele><time>2026-04-11T04:45:33.999Z</time></trkpt><trkpt lat="43.35012845548488" lon="11.439873305695217"><ele>249.71428571428572</ele><time>2026-04-11T04:45:34.999Z</time></trkpt><trkpt lat="43.35019368383433" lon="11.439919727131553"><ele>249.42857142857144</ele><time>2026-04-11T04:45:35.999Z</time></trkpt><trkpt lat="43.35025869404622" lon="11.439966549223987"><ele>249.14285714285717</ele><time>2026-04-11T04:45:36.999Z</time></trkpt><trkpt lat="43.35032551350035" lon="11.440013703559336"><ele>248.85714285714286</ele><time>2026-04-11T04:45:37.999Z</time></trkpt><trkpt lat="43.35039224351713" lon="11.440055241523535"><ele>248.5714285714286</ele><time>2026-04-11T04:45:38.999Z</time></trkpt><trkpt lat="43.35046299462724" lon="11.440086473247273"><ele>248.2857142857143</ele><time>2026-04-11T04:45:39.999Z</time></trkpt><trkpt lat="43.35053615216521" lon="11.440105658105368"><ele>248.0</ele><time>2026-04-11T04:45:40.999Z</time></trkpt><trkpt lat="43.35061076298433" lon="11.440115674753038"><ele>248.0</ele><time>2026-04-11T04:45:41.999Z</time></trkpt><trkpt lat="43.350683189488535" lon="11.440119025332361"><ele>248.00000000000003</ele><time>2026-04-11T04:45:42.999Z</time></trkpt><trkpt lat="43.35075628663136" lon="11.440115999796399"><ele>248.0</ele><time>2026-04-11T04:45:43.999Z</time></trkpt><trkpt lat="43.35082649875801" lon="11.440112914618052"><ele>248.0</ele><time>2026-04-11T04:45:44.999Z</time></trkpt><trkpt lat="43.3508966490359" lon="11.44010738945629"><ele>248.00000000000003</ele><time>2026-04-11T04:45:45.999Z</time></trkpt><trkpt lat="43.35096525947951" lon="11.440090824828278"><ele>248.0</ele><time>2026-04-11T04:45:46.999Z</time></trkpt><trkpt lat="43.3510321924368" lon="11.440066643357655"><ele>248.0</ele><time>2026-04-11T04:45:47.999Z</time></trkpt><trkpt lat="43.35109596818415" lon="11.440033090196067"><ele>248.00000000000003</ele><time>2026-04-11T04:45:48.999Z</time></trkpt><trkpt lat="43.35115646250406" lon="11.4400013163356"><ele>248.0</ele><time>2026-04-11T04:45:49.999Z</time></trkpt><trkpt lat="43.35121659832505" lon="11.439963062061128"><ele>248.0</ele><time>2026-04-11T04:45:50.999Z</time></trkpt><trkpt lat="43.3512735059863" lon="11.439918774117054"><ele>248.0</ele><time>2026-04-11T04:45:51.999Z</time></trkpt><trkpt lat="43.35137784125635" lon="11.439834347235186"><ele>248.00000000000003</ele><time>2026-04-11T04:45:53.999Z</time></trkpt><trkpt lat="43.35147413365301" lon="11.439752749237192"><ele>248.0</ele><time>2026-04-11T04:45:55.999Z</time></trkpt><trkpt lat="43.35156644551412" lon="11.439673899642889"><ele>248.50000000000003</ele><time>2026-04-11T04:45:57.999Z</time></trkpt><trkpt lat="43.35165184834577" lon="11.439603923208987"><ele>249.0</ele><time>2026-04-11T04:45:59.999Z</time></trkpt><trkpt lat="43.35173524276163" lon="11.439539397129602"><ele>249.5</ele><time>2026-04-11T04:46:01.999Z</time></trkpt><trkpt lat="43.35181573462235" lon="11.439498570077397"><ele>250.0</ele><time>2026-04-11T04:46:03.999Z</time></trkpt><trkpt lat="43.3518992298645" lon="11.439460894573633"><ele>250.50000000000003</ele><time>2026-04-11T04:46:06.999Z</time></trkpt><trkpt lat="43.35196747966318" lon="11.439433267505201"><ele>251.0</ele><time>2026-04-11T04:46:08.999Z</time></trkpt><trkpt lat="43.35206130704508" lon="11.43940720713513"><ele>251.00000000000003</ele><time>2026-04-11T04:46:10.999Z</time></trkpt><trkpt lat="43.352151079583" lon="11.439384856538014"><ele>251.0</ele><time>2026-04-11T04:46:13.999Z</time></trkpt><trkpt lat="43.352240937669194" lon="11.439368225820665"><ele>251.0</ele><time>2026-04-11T04:46:17Z</time></trkpt><trkpt lat="43.35232858742156" lon="11.439316501280487"><ele>251.0</ele><time>2026-04-11T04:46:20Z</time></trkpt><trkpt lat="43.35238387428128" lon="11.439259168371777"><ele>251.00000000000003</ele><time>2026-04-11T04:46:22Z</time></trkpt><trkpt lat="43.352432782153244" lon="11.439202238663764"><ele>251.0</ele><time>2026-04-11T04:46:24Z</time></trkpt><trkpt lat="43.352486095079236" lon="11.43912844742712"><ele>251.99999999999997</ele><time>2026-04-11T04:46:27Z</time></trkpt><trkpt lat="43.35253440022436" lon="11.43906994828435"><ele>253.0</ele><time>2026-04-11T04:46:29Z</time></trkpt><trkpt lat="43.35258142267886" lon="11.439003703932919"><ele>253.99999999999997</ele><time>2026-04-11T04:46:31Z</time></trkpt><trkpt lat="43.35263150453733" lon="11.438941070687912"><ele>254.99999999999997</ele><time>2026-04-11T04:46:33Z</time></trkpt><trkpt lat="43.35268294969311" lon="11.438882410088388"><ele>256.0</ele><time>2026-04-11T04:46:35Z</time></trkpt><trkpt lat="43.35273242696683" lon="11.438825914007472"><ele>256.99999999999994</ele><time>2026-04-11T04:46:37Z</time></trkpt><trkpt lat="43.352787024646716" lon="11.43877530625863"><ele>258.0</ele><time>2026-04-11T04:46:39Z</time></trkpt><trkpt lat="43.35284821315002" lon="11.43872406724154"><ele>258.0</ele><time>2026-04-11T04:46:41Z</time></trkpt><trkpt lat="43.352903516346835" lon="11.438679877896835"><ele>258.0</ele><time>2026-04-11T04:46:43Z</time></trkpt><trkpt lat="43.352967589201" lon="11.438605327675104"><ele>258.0</ele><time>2026-04-11T04:46:46Z</time></trkpt><trkpt lat="43.35303564521099" lon="11.438550067369718"><ele>258.0</ele><time>2026-04-11T04:46:48Z</time></trkpt><trkpt lat="43.35310621530266" lon="11.438505188531742"><ele>258.0</ele><time>2026-04-11T04:46:50Z</time></trkpt><trkpt lat="43.353213827993876" lon="11.438445161316038"><ele>258.0</ele><time>2026-04-11T04:46:52Z</time></trkpt><trkpt lat="43.353316044692285" lon="11.438391106527625"><ele>259.1666666666667</ele><time>2026-04-11T04:46:54Z</time></trkpt><trkpt lat="43.35340879173421" lon="11.438368205000195"><ele>260.3333333333333</ele><time>2026-04-11T04:46:56Z</time></trkpt><trkpt lat="43.35348782868404" lon="11.438361626752704"><ele>261.5</ele><time>2026-04-11T04:46:58Z</time></trkpt><trkpt lat="43.35355319079993" lon="11.438346166276162"><ele>262.66666666666663</ele><time>2026-04-11T04:47:00Z</time></trkpt><trkpt lat="43.353622505228145" lon="11.438332880505483"><ele>263.8333333333333</ele><time>2026-04-11T04:47:02Z</time></trkpt><trkpt lat="43.35369924193645" lon="11.438311017832172"><ele>265.0</ele><time>2026-04-11T04:47:04Z</time></trkpt><trkpt lat="43.353785408210655" lon="11.438295346000947"><ele>265.0</ele><time>2026-04-11T04:47:06Z</time></trkpt><trkpt lat="43.35385855045451" lon="11.438272983823085"><ele>265.0</ele><time>2026-04-11T04:47:08Z</time></trkpt><trkpt lat="43.35393473128874" lon="11.43824967983836"><ele>265.0</ele><time>2026-04-11T04:47:10Z</time></trkpt><trkpt lat="43.35400767643612" lon="11.438229756897288"><ele>265.0</ele><time>2026-04-11T04:47:12Z</time></trkpt><trkpt lat="43.354077863310444" lon="11.438203897546263"><ele>265.0</ele><time>2026-04-11T04:47:14Z</time></trkpt><trkpt lat="43.35415251758092" lon="11.438174043660704"><ele>265.0</ele><time>2026-04-11T04:47:16Z</time></trkpt><trkpt lat="43.354237266517" lon="11.438162970942338"><ele>265.2</ele><time>2026-04-11T04:47:18Z</time></trkpt><trkpt lat="43.354319350936024" lon="11.438149461094023"><ele>265.4</ele><time>2026-04-11T04:47:19.999Z</time></trkpt><trkpt lat="43.35440416706374" lon="11.438154832087328"><ele>265.6</ele><time>2026-04-11T04:47:21.999Z</time></trkpt><trkpt lat="43.35449874818787" lon="11.438150991656974"><ele>265.8</ele><time>2026-04-11T04:47:23.999Z</time></trkpt><trkpt lat="43.354590750159865" lon="11.438146005268608"><ele>266.0</ele><time>2026-04-11T04:47:25.999Z</time></trkpt><trkpt lat="43.354693095249694" lon="11.438146630845623"><ele>266.40000000000003</ele><time>2026-04-11T04:47:27.999Z</time></trkpt><trkpt lat="43.35478540149905" lon="11.438147878807865"><ele>266.8</ele><time>2026-04-11T04:47:29.999Z</time></trkpt><trkpt lat="43.35488814672985" lon="11.438165766494816"><ele>267.20000000000005</ele><time>2026-04-11T04:47:31.999Z</time></trkpt><trkpt lat="43.354952664366834" lon="11.438177838037038"><ele>267.6</ele><time>2026-04-11T04:47:32.999Z</time></trkpt><trkpt lat="43.35505351938784" lon="11.438197045080313"><ele>268.0</ele><time>2026-04-11T04:47:34.999Z</time></trkpt><trkpt lat="43.35516195082497" lon="11.438215959841724"><ele>268.0</ele><time>2026-04-11T04:47:36.999Z</time></trkpt><trkpt lat="43.35527067628474" lon="11.438239944722108"><ele>268.0</ele><time>2026-04-11T04:47:38.999Z</time></trkpt><trkpt lat="43.355388540412335" lon="11.438264365308312"><ele>268.0</ele><time>2026-04-11T04:47:40.999Z</time></trkpt><trkpt lat="43.35551138531659" lon="11.438301042005563"><ele>268.0</ele><time>2026-04-11T04:47:42.999Z</time></trkpt><trkpt lat="43.355573938645136" lon="11.43831781505948"><ele>268.0</ele><time>2026-04-11T04:47:43.999Z</time></trkpt><trkpt lat="43.3556969133052" lon="11.438343473912656"><ele>267.6</ele><time>2026-04-11T04:47:45.999Z</time></trkpt><trkpt lat="43.355821961429676" lon="11.438370558383417"><ele>267.20000000000005</ele><time>2026-04-11T04:47:47.999Z</time></trkpt><trkpt lat="43.35588519749822" lon="11.438381437377885"><ele>266.8</ele><time>2026-04-11T04:47:48.999Z</time></trkpt><trkpt lat="43.356005983194464" lon="11.438414666939382"><ele>266.40000000000003</ele><time>2026-04-11T04:47:50.999Z</time></trkpt><trkpt lat="43.35612521760335" lon="11.438443261100115"><ele>266.0</ele><time>2026-04-11T04:47:52.999Z</time></trkpt><trkpt lat="43.356247200578515" lon="11.438463076160254"><ele>265.75</ele><time>2026-04-11T04:47:54.999Z</time></trkpt><trkpt lat="43.35637205276865" lon="11.43848538229383"><ele>265.5</ele><time>2026-04-11T04:47:56.999Z</time></trkpt><trkpt lat="43.356493551841865" lon="11.438510046710364"><ele>265.25</ele><time>2026-04-11T04:47:58.999Z</time></trkpt><trkpt lat="43.35661612338246" lon="11.438537429434449"><ele>265.0</ele><time>2026-04-11T04:48:00.999Z</time></trkpt><trkpt lat="43.356735742347155" lon="11.438573352032801"><ele>265.0</ele><time>2026-04-11T04:48:02.999Z</time></trkpt><trkpt lat="43.35685173140076" lon="11.43860013430427"><ele>265.0</ele><time>2026-04-11T04:48:04.999Z</time></trkpt><trkpt lat="43.356967043803536" lon="11.438614896291872"><ele>265.0</ele><time>2026-04-11T04:48:06.999Z</time></trkpt><trkpt lat="43.35707792924461" lon="11.438607665497036"><ele>265.0</ele><time>2026-04-11T04:48:08.999Z</time></trkpt><trkpt lat="43.357188416175795" lon="11.43859650311528"><ele>265.0</ele><time>2026-04-11T04:48:10.999Z</time></trkpt><trkpt lat="43.35729675947612" lon="11.438574545369029"><ele>265.0</ele><time>2026-04-11T04:48:12.999Z</time></trkpt><trkpt lat="43.357406101380604" lon="11.438540106724494"><ele>265.0</ele><time>2026-04-11T04:48:14.999Z</time></trkpt><trkpt lat="43.357515931850244" lon="11.438508660189939"><ele>265.0</ele><time>2026-04-11T04:48:16.999Z</time></trkpt><trkpt lat="43.357627138527576" lon="11.438467983959416"><ele>265.0</ele><time>2026-04-11T04:48:18.999Z</time></trkpt><trkpt lat="43.35771711734262" lon="11.438425985938037"><ele>265.0</ele><time>2026-04-11T04:48:20.999Z</time></trkpt><trkpt lat="43.357784915759055" lon="11.438411438163323"><ele>265.0</ele><time>2026-04-11T04:48:22Z</time></trkpt><trkpt lat="43.357895968639134" lon="11.43836987319656"><ele>265.0</ele><time>2026-04-11T04:48:24Z</time></trkpt><trkpt lat="43.358005589469144" lon="11.43832654402038"><ele>265.0</ele><time>2026-04-11T04:48:26Z</time></trkpt><trkpt lat="43.35811239085671" lon="11.438273135691453"><ele>265.0</ele><time>2026-04-11T04:48:28Z</time></trkpt><trkpt lat="43.35820475267917" lon="11.438185582091226"><ele>265.4</ele><time>2026-04-11T04:48:30Z</time></trkpt><trkpt lat="43.35828727411727" lon="11.438064033268708"><ele>265.8</ele><time>2026-04-11T04:48:32Z</time></trkpt><trkpt lat="43.35833469055232" lon="11.437938366848892"><ele>266.2</ele><time>2026-04-11T04:48:34Z</time></trkpt><trkpt lat="43.358377886778584" lon="11.43781728552766"><ele>266.6</ele><time>2026-04-11T04:48:36Z</time></trkpt><trkpt lat="43.35841348671159" lon="11.437701024805715"><ele>267.0</ele><time>2026-04-11T04:48:38Z</time></trkpt><trkpt lat="43.358438283161796" lon="11.437499301250954"><ele>267.4</ele><time>2026-04-11T04:48:41Z</time></trkpt><trkpt lat="43.3584323480145" lon="11.437374308109542"><ele>267.79999999999995</ele><time>2026-04-11T04:48:43Z</time></trkpt><trkpt lat="43.35842405579783" lon="11.437254532437066"><ele>268.2</ele><time>2026-04-11T04:48:45Z</time></trkpt><trkpt lat="43.358407466210345" lon="11.437125184805263"><ele>268.59999999999997</ele><time>2026-04-11T04:48:47Z</time></trkpt><trkpt lat="43.35839066060963" lon="11.437001222953212"><ele>269.0</ele><time>2026-04-11T04:48:49Z</time></trkpt><trkpt lat="43.35837284900142" lon="11.436876050257771"><ele>269.0</ele><time>2026-04-11T04:48:51Z</time></trkpt><trkpt lat="43.358371130665766" lon="11.436735273340183"><ele>269.0</ele><time>2026-04-11T04:48:53Z</time></trkpt><trkpt lat="43.35838484860808" lon="11.436589068967667"><ele>269.0</ele><time>2026-04-11T04:48:55Z</time></trkpt><trkpt lat="43.358401164224155" lon="11.436445035112028"><ele>269.0</ele><time>2026-04-11T04:48:57Z</time></trkpt><trkpt lat="43.35842271988721" lon="11.436296510479751"><ele>269.0</ele><time>2026-04-11T04:48:59Z</time></trkpt><trkpt lat="43.35843959418669" lon="11.436154154623448"><ele>269.0</ele><time>2026-04-11T04:49:01Z</time></trkpt><trkpt lat="43.35846562983782" lon="11.436003411451356"><ele>269.0</ele><time>2026-04-11T04:49:03Z</time></trkpt><trkpt lat="43.35849216379051" lon="11.435866302533308"><ele>269.0</ele><time>2026-04-11T04:49:05Z</time></trkpt><trkpt lat="43.35852275256058" lon="11.43573278314961"><ele>269.0</ele><time>2026-04-11T04:49:07Z</time></trkpt><trkpt lat="43.358559803832314" lon="11.43559335717413"><ele>269.0</ele><time>2026-04-11T04:49:09Z</time></trkpt><trkpt lat="43.358608680875506" lon="11.435437910688071"><ele>269.4</ele><time>2026-04-11T04:49:11Z</time></trkpt><trkpt lat="43.35863429625846" lon="11.435357419508566"><ele>269.79999999999995</ele><time>2026-04-11T04:49:12Z</time></trkpt><trkpt lat="43.35869759584957" lon="11.435216772879475"><ele>270.20000000000005</ele><time>2026-04-11T04:49:14Z</time></trkpt><trkpt lat="43.35875583760851" lon="11.4350763819391"><ele>270.6</ele><time>2026-04-11T04:49:16Z</time></trkpt><trkpt lat="43.35881006053494" lon="11.434937455059385"><ele>271.0</ele><time>2026-04-11T04:49:18Z</time></trkpt><trkpt lat="43.35886667863503" lon="11.434801564034496"><ele>269.66666666666663</ele><time>2026-04-11T04:49:20Z</time></trkpt><trkpt lat="43.35891057309543" lon="11.43465477079926"><ele>268.3333333333333</ele><time>2026-04-11T04:49:22Z</time></trkpt><trkpt lat="43.35894268468899" lon="11.434496101783017"><ele>267.0</ele><time>2026-04-11T04:49:23.999Z</time></trkpt><trkpt lat="43.35895488921497" lon="11.43440978641048"><ele>265.6666666666667</ele><time>2026-04-11T04:49:24.999Z</time></trkpt><trkpt lat="43.35896764380992" lon="11.434321863732116"><ele>264.33333333333337</ele><time>2026-04-11T04:49:25.999Z</time></trkpt><trkpt lat="43.35897784173649" lon="11.434229774913607"><ele>263.0</ele><time>2026-04-11T04:49:26.999Z</time></trkpt><trkpt lat="43.35898457965994" lon="11.434134813956405"><ele>263.0</ele><time>2026-04-11T04:49:27.999Z</time></trkpt><trkpt lat="43.35898676965045" lon="11.43404036390916"><ele>263.0</ele><time>2026-04-11T04:49:28.999Z</time></trkpt><trkpt lat="43.358982110325876" lon="11.433944993855325"><ele>263.0</ele><time>2026-04-11T04:49:29.999Z</time></trkpt><trkpt lat="43.358972633218286" lon="11.433848599414757"><ele>263.0</ele><time>2026-04-11T04:49:30.999Z</time></trkpt><trkpt lat="43.35896111850588" lon="11.433752833452841"><ele>263.0</ele><time>2026-04-11T04:49:31.999Z</time></trkpt><trkpt lat="43.35894832338253" lon="11.433653308322217"><ele>263.0</ele><time>2026-04-11T04:49:32.999Z</time></trkpt><trkpt lat="43.35893260806833" lon="11.433553272211995"><ele>263.0</ele><time>2026-04-11T04:49:33.999Z</time></trkpt><trkpt lat="43.358916541649116" lon="11.433448423601684"><ele>263.0</ele><time>2026-04-11T04:49:34.999Z</time></trkpt><trkpt lat="43.35890030066866" lon="11.43334046200203"><ele>263.0</ele><time>2026-04-11T04:49:35.999Z</time></trkpt><trkpt lat="43.358886270544225" lon="11.433232699543794"><ele>263.0</ele><time>2026-04-11T04:49:36.999Z</time></trkpt><trkpt lat="43.35887589495444" lon="11.433125592956207"><ele>263.0</ele><time>2026-04-11T04:49:37.999Z</time></trkpt><trkpt lat="43.358864208810544" lon="11.433016985306033"><ele>263.0</ele><time>2026-04-11T04:49:38.999Z</time></trkpt><trkpt lat="43.35885690376025" lon="11.432908330236414"><ele>263.0</ele><time>2026-04-11T04:49:39.999Z</time></trkpt><trkpt lat="43.358852751473954" lon="11.432797909159893"><ele>263.0</ele><time>2026-04-11T04:49:40.999Z</time></trkpt><trkpt lat="43.35884750970373" lon="11.432689253582739"><ele>263.0</ele><time>2026-04-11T04:49:41.999Z</time></trkpt><trkpt lat="43.358845940291005" lon="11.432577798690728"><ele>263.0</ele><time>2026-04-11T04:49:42.999Z</time></trkpt><trkpt lat="43.35885189167982" lon="11.432462915001235"><ele>263.0</ele><time>2026-04-11T04:49:43.999Z</time></trkpt><trkpt lat="43.35885856133269" lon="11.432349652705215"><ele>263.0</ele><time>2026-04-11T04:49:44.999Z</time></trkpt><trkpt lat="43.35886857759319" lon="11.432235687885209"><ele>263.0</ele><time>2026-04-11T04:49:45.999Z</time></trkpt><trkpt lat="43.35888717373991" lon="11.432118665731588"><ele>262.6666666666667</ele><time>2026-04-11T04:49:46.999Z</time></trkpt><trkpt lat="43.35890947924968" lon="11.432003276114383"><ele>262.33333333333337</ele><time>2026-04-11T04:49:47.999Z</time></trkpt><trkpt lat="43.35893573330173" lon="11.431886979328143"><ele>262.0</ele><time>2026-04-11T04:49:48.999Z</time></trkpt><trkpt lat="43.358958456306084" lon="11.431769690376356"><ele>261.6666666666667</ele><time>2026-04-11T04:49:49.999Z</time></trkpt><trkpt lat="43.35897938895079" lon="11.431650717163162"><ele>261.3333333333333</ele><time>2026-04-11T04:49:50.999Z</time></trkpt><trkpt lat="43.35900245860071" lon="11.431532391875416"><ele>261.0</ele><time>2026-04-11T04:49:51.999Z</time></trkpt><trkpt lat="43.35902875528682" lon="11.431416159307357"><ele>261.5</ele><time>2026-04-11T04:49:52.999Z</time></trkpt><trkpt lat="43.35905569257806" lon="11.43130045837017"><ele>262.0</ele><time>2026-04-11T04:49:53.999Z</time></trkpt><trkpt lat="43.35907866673959" lon="11.431184528077114"><ele>262.5</ele><time>2026-04-11T04:49:54.999Z</time></trkpt><trkpt lat="43.3591013829236" lon="11.431070527468135"><ele>263.0</ele><time>2026-04-11T04:49:55.999Z</time></trkpt><trkpt lat="43.359126981205" lon="11.430956870164938"><ele>263.5</ele><time>2026-04-11T04:49:56.999Z</time></trkpt><trkpt lat="43.35914742325073" lon="11.430841288969244"><ele>264.0</ele><time>2026-04-11T04:49:57.999Z</time></trkpt><trkpt lat="43.359167574456805" lon="11.43072752769084"><ele>264.0</ele><time>2026-04-11T04:49:58.999Z</time></trkpt><trkpt lat="43.359185617705336" lon="11.430613291064203"><ele>264.0</ele><time>2026-04-11T04:49:59.999Z</time></trkpt><trkpt lat="43.359202089139686" lon="11.430504854854021"><ele>264.0</ele><time>2026-04-11T04:50:00.999Z</time></trkpt><trkpt lat="43.35921401045088" lon="11.430392808868412"><ele>264.0</ele><time>2026-04-11T04:50:01.999Z</time></trkpt><trkpt lat="43.359219407746785" lon="11.430269205374156"><ele>264.0</ele><time>2026-04-11T04:50:02.999Z</time></trkpt><trkpt lat="43.35921961949986" lon="11.430148519662572"><ele>264.0</ele><time>2026-04-11T04:50:03.999Z</time></trkpt><trkpt lat="43.35921505572641" lon="11.430024598408504"><ele>264.2</ele><time>2026-04-11T04:50:04.999Z</time></trkpt><trkpt lat="43.359208797963774" lon="11.429906862217956"><ele>264.4</ele><time>2026-04-11T04:50:05.999Z</time></trkpt><trkpt lat="43.35919309707638" lon="11.429779172724112"><ele>264.6</ele><time>2026-04-11T04:50:06.999Z</time></trkpt><trkpt lat="43.35917635964962" lon="11.429653796538918"><ele>264.8</ele><time>2026-04-11T04:50:07.999Z</time></trkpt><trkpt lat="43.35916263031603" lon="11.429529224420927"><ele>265.0</ele><time>2026-04-11T04:50:08.999Z</time></trkpt><trkpt lat="43.359142680834886" lon="11.429406689563269"><ele>263.8</ele><time>2026-04-11T04:50:09.999Z</time></trkpt><trkpt lat="43.3591154574118" lon="11.429286378075298"><ele>262.6</ele><time>2026-04-11T04:50:10.999Z</time></trkpt><trkpt lat="43.35907889606871" lon="11.429167954324823"><ele>261.4</ele><time>2026-04-11T04:50:11.999Z</time></trkpt><trkpt lat="43.35904243120435" lon="11.42904950083065"><ele>260.2</ele><time>2026-04-11T04:50:12.999Z</time></trkpt><trkpt lat="43.35900370055357" lon="11.428937071738655"><ele>259.0</ele><time>2026-04-11T04:50:13.999Z</time></trkpt><trkpt lat="43.35895418525971" lon="11.42882783954445"><ele>258.0</ele><time>2026-04-11T04:50:14.999Z</time></trkpt><trkpt lat="43.35889778965337" lon="11.428730287292197"><ele>257.0</ele><time>2026-04-11T04:50:15.999Z</time></trkpt><trkpt lat="43.358839440225054" lon="11.428639947878056"><ele>256.0</ele><time>2026-04-11T04:50:16.999Z</time></trkpt><trkpt lat="43.35877894676073" lon="11.428548969677642"><ele>255.0</ele><time>2026-04-11T04:50:17.999Z</time></trkpt><trkpt lat="43.35871873967269" lon="11.428463162885445"><ele>253.99999999999997</ele><time>2026-04-11T04:50:18.999Z</time></trkpt><trkpt lat="43.35865805600518" lon="11.428377959674917"><ele>253.0</ele><time>2026-04-11T04:50:19.999Z</time></trkpt><trkpt lat="43.35860038045775" lon="11.428293870996056"><ele>253.49999999999997</ele><time>2026-04-11T04:50:20.999Z</time></trkpt><trkpt lat="43.35854320221177" lon="11.428209900721415"><ele>254.0</ele><time>2026-04-11T04:50:21.999Z</time></trkpt><trkpt lat="43.358483976576956" lon="11.428126553261897"><ele>254.5</ele><time>2026-04-11T04:50:22.999Z</time></trkpt><trkpt lat="43.358426853499935" lon="11.4280440467613"><ele>255.0</ele><time>2026-04-11T04:50:23.999Z</time></trkpt><trkpt lat="43.358370714703916" lon="11.427955042830233"><ele>255.49999999999997</ele><time>2026-04-11T04:50:24.999Z</time></trkpt><trkpt lat="43.35831891208552" lon="11.42786466447786"><ele>256.0</ele><time>2026-04-11T04:50:25.999Z</time></trkpt><trkpt lat="43.358267672564125" lon="11.427774200075485"><ele>255.99999999999997</ele><time>2026-04-11T04:50:26.999Z</time></trkpt><trkpt lat="43.35822124045567" lon="11.427682914924645"><ele>256.0</ele><time>2026-04-11T04:50:28Z</time></trkpt><trkpt lat="43.35817431296885" lon="11.427594322749513"><ele>256.0</ele><time>2026-04-11T04:50:29Z</time></trkpt><trkpt lat="43.35814855901281" lon="11.42750278810708"><ele>256.0</ele><time>2026-04-11T04:50:30Z</time></trkpt><trkpt lat="43.35808196015392" lon="11.427425265259679"><ele>255.99999999999997</ele><time>2026-04-11T04:50:31Z</time></trkpt><trkpt lat="43.35802720029045" lon="11.4273443873424"><ele>256.0</ele><time>2026-04-11T04:50:32Z</time></trkpt><trkpt lat="43.35796973678446" lon="11.427268880242341"><ele>255.49999999999997</ele><time>2026-04-11T04:50:33Z</time></trkpt><trkpt lat="43.3579070116565" lon="11.427201749607502"><ele>255.0</ele><time>2026-04-11T04:50:34Z</time></trkpt><trkpt lat="43.35784103827295" lon="11.427138911702981"><ele>254.5</ele><time>2026-04-11T04:50:35Z</time></trkpt><trkpt lat="43.35777199007451" lon="11.427086160858476"><ele>254.0</ele><time>2026-04-11T04:50:36Z</time></trkpt><trkpt lat="43.35770000161473" lon="11.4270347292843"><ele>253.49999999999997</ele><time>2026-04-11T04:50:37Z</time></trkpt><trkpt lat="43.35762245993161" lon="11.426992547900133"><ele>253.0</ele><time>2026-04-11T04:50:38Z</time></trkpt><trkpt lat="43.3575443679469" lon="11.426944672816168"><ele>253.0</ele><time>2026-04-11T04:50:39Z</time></trkpt><trkpt lat="43.357462360845226" lon="11.426892437637152"><ele>253.0</ele><time>2026-04-11T04:50:40Z</time></trkpt><trkpt lat="43.357379262116254" lon="11.426842979667468"><ele>253.0</ele><time>2026-04-11T04:50:41Z</time></trkpt><trkpt lat="43.357294629450045" lon="11.426791403520921"><ele>253.0</ele><time>2026-04-11T04:50:42Z</time></trkpt><trkpt lat="43.35720972739408" lon="11.426735271710907"><ele>253.0</ele><time>2026-04-11T04:50:43Z</time></trkpt><trkpt lat="43.35711925022932" lon="11.426681767513072"><ele>253.60000000000002</ele><time>2026-04-11T04:50:44Z</time></trkpt><trkpt lat="43.35703135227599" lon="11.426621333175904"><ele>254.20000000000002</ele><time>2026-04-11T04:50:45Z</time></trkpt><trkpt lat="43.35694085349764" lon="11.426562296506242"><ele>254.8</ele><time>2026-04-11T04:50:46Z</time></trkpt><trkpt lat="43.35684795844011" lon="11.426500436164613"><ele>255.4</ele><time>2026-04-11T04:50:47Z</time></trkpt><trkpt lat="43.356754087714435" lon="11.426441236983296"><ele>256.0</ele><time>2026-04-11T04:50:48Z</time></trkpt><trkpt lat="43.35665779138348" lon="11.426363499967726"><ele>253.5</ele><time>2026-04-11T04:50:49Z</time></trkpt><trkpt lat="43.35656450488686" lon="11.426280089708463"><ele>251.0</ele><time>2026-04-11T04:50:50Z</time></trkpt><trkpt lat="43.35647704745776" lon="11.426181620439245"><ele>248.5</ele><time>2026-04-11T04:50:51Z</time></trkpt><trkpt lat="43.356392752514886" lon="11.426073774121797"><ele>246.0</ele><time>2026-04-11T04:50:52Z</time></trkpt><trkpt lat="43.356313199685026" lon="11.425958818014125"><ele>246.0</ele><time>2026-04-11T04:50:53Z</time></trkpt><trkpt lat="43.35623088435567" lon="11.42584679858873"><ele>246.0</ele><time>2026-04-11T04:50:54Z</time></trkpt><trkpt lat="43.35614600474459" lon="11.425731843127876"><ele>246.0</ele><time>2026-04-11T04:50:55Z</time></trkpt><trkpt lat="43.356056991832766" lon="11.42561703710868"><ele>246.0</ele><time>2026-04-11T04:50:56Z</time></trkpt><trkpt lat="43.35596658021674" lon="11.425502957307193"><ele>244.5</ele><time>2026-04-11T04:50:57Z</time></trkpt><trkpt lat="43.3558765075411" lon="11.425386466600644"><ele>243.0</ele><time>2026-04-11T04:50:58Z</time></trkpt><trkpt lat="43.35578701358095" lon="11.425266162031985"><ele>241.5</ele><time>2026-04-11T04:50:59Z</time></trkpt><trkpt lat="43.355697315872185" lon="11.425146579785466"><ele>240.0</ele><time>2026-04-11T04:51:00Z</time></trkpt><trkpt lat="43.35560683862246" lon="11.425028229899116"><ele>240.0</ele><time>2026-04-11T04:51:01Z</time></trkpt><trkpt lat="43.35551703904036" lon="11.424906600750605"><ele>240.0</ele><time>2026-04-11T04:51:02Z</time></trkpt><trkpt lat="43.355423651635235" lon="11.424786650878664"><ele>240.0</ele><time>2026-04-11T04:51:03Z</time></trkpt><trkpt lat="43.35533175469046" lon="11.4246666061117"><ele>240.0</ele><time>2026-04-11T04:51:04Z</time></trkpt><trkpt lat="43.35523949016261" lon="11.424541144484518"><ele>239.0</ele><time>2026-04-11T04:51:05Z</time></trkpt><trkpt lat="43.355152963761725" lon="11.424414390499148"><ele>238.0</ele><time>2026-04-11T04:51:06Z</time></trkpt><trkpt lat="43.35506141460314" lon="11.4242857792313"><ele>237.0</ele><time>2026-04-11T04:51:07Z</time></trkpt><trkpt lat="43.35499623940866" lon="11.424148887137543"><ele>236.0</ele><time>2026-04-11T04:51:08Z</time></trkpt><trkpt lat="43.35495140183164" lon="11.424004305686282"><ele>236.0</ele><time>2026-04-11T04:51:09Z</time></trkpt><trkpt lat="43.35495540266319" lon="11.42383920832713"><ele>236.0</ele><time>2026-04-11T04:51:10Z</time></trkpt><trkpt lat="43.3549890096963" lon="11.423677434225851"><ele>236.0</ele><time>2026-04-11T04:51:11Z</time></trkpt><trkpt lat="43.355039341650034" lon="11.423515795777305"><ele>236.0</ele><time>2026-04-11T04:51:12Z</time></trkpt><trkpt lat="43.35508455702238" lon="11.42336383593817"><ele>235.0</ele><time>2026-04-11T04:51:13Z</time></trkpt><trkpt lat="43.35512402567555" lon="11.423207593399157"><ele>234.0</ele><time>2026-04-11T04:51:14Z</time></trkpt><trkpt lat="43.355163386954715" lon="11.423043828370243"><ele>233.0</ele><time>2026-04-11T04:51:15Z</time></trkpt><trkpt lat="43.355199270418794" lon="11.422881687690893"><ele>232.0</ele><time>2026-04-11T04:51:16Z</time></trkpt><trkpt lat="43.355234246085985" lon="11.422715284885067"><ele>230.25</ele><time>2026-04-11T04:51:17Z</time></trkpt><trkpt lat="43.3552621921838" lon="11.422547137832828"><ele>228.5</ele><time>2026-04-11T04:51:18Z</time></trkpt><trkpt lat="43.35528717080007" lon="11.422379946213802"><ele>226.75</ele><time>2026-04-11T04:51:19Z</time></trkpt><trkpt lat="43.35530938102747" lon="11.422213376979713"><ele>225.0</ele><time>2026-04-11T04:51:20Z</time></trkpt><trkpt lat="43.35532784905256" lon="11.422045182339387"><ele>223.25</ele><time>2026-04-11T04:51:21Z</time></trkpt><trkpt lat="43.35534247689864" lon="11.421876833713597"><ele>221.5</ele><time>2026-04-11T04:51:22Z</time></trkpt><trkpt lat="43.355352699091135" lon="11.421709138657652"><ele>219.75</ele><time>2026-04-11T04:51:23Z</time></trkpt><trkpt lat="43.35536748030598" lon="11.421543612581265"><ele>218.0</ele><time>2026-04-11T04:51:24Z</time></trkpt><trkpt lat="43.355385792825196" lon="11.42138042241837"><ele>217.25</ele><time>2026-04-11T04:51:25Z</time></trkpt><trkpt lat="43.35540724921174" lon="11.421219477080907"><ele>216.5</ele><time>2026-04-11T04:51:26Z</time></trkpt><trkpt lat="43.35543100093538" lon="11.421063312298372"><ele>215.75</ele><time>2026-04-11T04:51:27Z</time></trkpt><trkpt lat="43.35545249864727" lon="11.42090491702304"><ele>215.0</ele><time>2026-04-11T04:51:28Z</time></trkpt><trkpt lat="43.35548064641112" lon="11.420754374069771"><ele>215.0</ele><time>2026-04-11T04:51:29Z</time></trkpt><trkpt lat="43.35551158204654" lon="11.420605902903377"><ele>215.0</ele><time>2026-04-11T04:51:30Z</time></trkpt><trkpt lat="43.35553309431503" lon="11.420463553290867"><ele>215.0</ele><time>2026-04-11T04:51:31Z</time></trkpt><trkpt lat="43.35555958863542" lon="11.420326041527616"><ele>215.0</ele><time>2026-04-11T04:51:31.999Z</time></trkpt><trkpt lat="43.35558665730412" lon="11.420192830456127"><ele>215.0</ele><time>2026-04-11T04:51:32.999Z</time></trkpt><trkpt lat="43.35561185439162" lon="11.42006367304023"><ele>215.2</ele><time>2026-04-11T04:51:33.999Z</time></trkpt><trkpt lat="43.355640625251105" lon="11.419938072805072"><ele>215.4</ele><time>2026-04-11T04:51:34.999Z</time></trkpt><trkpt lat="43.35567009325773" lon="11.419812936589498"><ele>215.60000000000002</ele><time>2026-04-11T04:51:35.999Z</time></trkpt><trkpt lat="43.35570697224954" lon="11.419693231840549"><ele>215.8</ele><time>2026-04-11T04:51:36.999Z</time></trkpt><trkpt lat="43.35574685654824" lon="11.419576457525602"><ele>216.0</ele><time>2026-04-11T04:51:37.999Z</time></trkpt><trkpt lat="43.35578989034457" lon="11.419461427176413"><ele>216.0</ele><time>2026-04-11T04:51:38.999Z</time></trkpt><trkpt lat="43.3558359645342" lon="11.419353421285619"><ele>216.0</ele><time>2026-04-11T04:51:39.999Z</time></trkpt><trkpt lat="43.355882035448275" lon="11.419249047040593"><ele>216.0</ele><time>2026-04-11T04:51:40.999Z</time></trkpt><trkpt lat="43.35592707151645" lon="11.419148459775274"><ele>216.0</ele><time>2026-04-11T04:51:41.999Z</time></trkpt><trkpt lat="43.355974733216705" lon="11.419050098199481"><ele>216.0</ele><time>2026-04-11T04:51:42.999Z</time></trkpt><trkpt lat="43.356022531360985" lon="11.418954278607245"><ele>216.0</ele><time>2026-04-11T04:51:43.999Z</time></trkpt><trkpt lat="43.35606970022067" lon="11.418860901216155"><ele>216.33333333333334</ele><time>2026-04-11T04:51:44.999Z</time></trkpt><trkpt lat="43.35611494412908" lon="11.41876794037247"><ele>216.66666666666669</ele><time>2026-04-11T04:51:45.999Z</time></trkpt><trkpt lat="43.35615838247336" lon="11.418675593993154"><ele>217.0</ele><time>2026-04-11T04:51:46.999Z</time></trkpt><trkpt lat="43.356202076928724" lon="11.418586769733393"><ele>217.33333333333334</ele><time>2026-04-11T04:51:47.999Z</time></trkpt><trkpt lat="43.356244407396936" lon="11.418503072008969"><ele>217.66666666666669</ele><time>2026-04-11T04:51:48.999Z</time></trkpt><trkpt lat="43.35628331771896" lon="11.41842127525957"><ele>218.0</ele><time>2026-04-11T04:51:49.999Z</time></trkpt><trkpt lat="43.35632107127973" lon="11.418335210400983"><ele>218.0</ele><time>2026-04-11T04:51:50.999Z</time></trkpt><trkpt lat="43.35636185967579" lon="11.418255031730022"><ele>218.0</ele><time>2026-04-11T04:51:51.999Z</time></trkpt><trkpt lat="43.35640266847122" lon="11.418174876888722"><ele>218.0</ele><time>2026-04-11T04:51:52.999Z</time></trkpt><trkpt lat="43.35644074842618" lon="11.418094229914168"><ele>218.0</ele><time>2026-04-11T04:51:53.999Z</time></trkpt><trkpt lat="43.3564777795969" lon="11.418011398786634"><ele>218.0</ele><time>2026-04-11T04:51:54.999Z</time></trkpt><trkpt lat="43.35651587861377" lon="11.417930827369286"><ele>218.0</ele><time>2026-04-11T04:51:55.999Z</time></trkpt><trkpt lat="43.35654847106994" lon="11.417849515711893"><ele>218.0</ele><time>2026-04-11T04:51:56.999Z</time></trkpt><trkpt lat="43.35658301489551" lon="11.41776925003039"><ele>218.2</ele><time>2026-04-11T04:51:57.999Z</time></trkpt><trkpt lat="43.35661781613718" lon="11.417692996147487"><ele>218.4</ele><time>2026-04-11T04:51:58.999Z</time></trkpt><trkpt lat="43.35668794490585" lon="11.417560731028244"><ele>218.59999999999997</ele><time>2026-04-11T04:52:00.999Z</time></trkpt><trkpt lat="43.35674200397556" lon="11.417428451211105"><ele>218.79999999999998</ele><time>2026-04-11T04:52:02.999Z</time></trkpt><trkpt lat="43.35679562714987" lon="11.417304466911515"><ele>219.0</ele><time>2026-04-11T04:52:04.999Z</time></trkpt><trkpt lat="43.35683011832222" lon="11.417182441320541"><ele>219.0</ele><time>2026-04-11T04:52:06.999Z</time></trkpt><trkpt lat="43.35684577287528" lon="11.417069453093644"><ele>219.0</ele><time>2026-04-11T04:52:08.999Z</time></trkpt><trkpt lat="43.356856882961424" lon="11.416981447660781"><ele>219.0</ele><time>2026-04-11T04:52:10.999Z</time></trkpt><trkpt lat="43.35688401148389" lon="11.41686419554465"><ele>219.0</ele><time>2026-04-11T04:52:13.999Z</time></trkpt><trkpt lat="43.35691218233379" lon="11.416757008802398"><ele>219.0</ele><time>2026-04-11T04:52:17.999Z</time></trkpt><trkpt lat="43.35688279777471" lon="11.416660311629334"><ele>219.0</ele><time>2026-04-11T04:52:19.999Z</time></trkpt><trkpt lat="43.356834868906674" lon="11.416564259060603"><ele>219.0</ele><time>2026-04-11T04:52:21.999Z</time></trkpt><trkpt lat="43.356777320100775" lon="11.41645807523736"><ele>218.99999999999997</ele><time>2026-04-11T04:52:23.999Z</time></trkpt><trkpt lat="43.35673073689746" lon="11.4163799923425"><ele>218.99999999999997</ele><time>2026-04-11T04:52:25.999Z</time></trkpt><trkpt lat="43.3566681924321" lon="11.416277281531782"><ele>219.0</ele><time>2026-04-11T04:52:27.999Z</time></trkpt><trkpt lat="43.35661096035914" lon="11.416178820254009"><ele>219.0</ele><time>2026-04-11T04:52:29.999Z</time></trkpt><trkpt lat="43.35654967108439" lon="11.416078516292227"><ele>219.33333333333334</ele><time>2026-04-11T04:52:31.999Z</time></trkpt><trkpt lat="43.35648942429888" lon="11.415975391833735"><ele>219.66666666666669</ele><time>2026-04-11T04:52:34Z</time></trkpt><trkpt lat="43.356429547240865" lon="11.415879035322748"><ele>220.0</ele><time>2026-04-11T04:52:36Z</time></trkpt><trkpt lat="43.356381059408754" lon="11.415777914801325"><ele>220.33333333333334</ele><time>2026-04-11T04:52:38Z</time></trkpt><trkpt lat="43.3563606219034" lon="11.415661128648107"><ele>220.66666666666669</ele><time>2026-04-11T04:52:40Z</time></trkpt><trkpt lat="43.35637010748055" lon="11.415549685623526"><ele>221.0</ele><time>2026-04-11T04:52:42Z</time></trkpt><trkpt lat="43.35639415479517" lon="11.415437538790222"><ele>222.00000000000003</ele><time>2026-04-11T04:52:45Z</time></trkpt><trkpt lat="43.356414746144424" lon="11.415330167628685"><ele>223.0</ele><time>2026-04-11T04:52:48Z</time></trkpt><trkpt lat="43.35643288726137" lon="11.4152236802747"><ele>224.0</ele><time>2026-04-11T04:52:51Z</time></trkpt><trkpt lat="43.3564573914466" lon="11.415118286630495"><ele>225.0</ele><time>2026-04-11T04:52:54Z</time></trkpt><trkpt lat="43.356477709705985" lon="11.415016525978004"><ele>226.00000000000003</ele><time>2026-04-11T04:52:57Z</time></trkpt><trkpt lat="43.35649698088485" lon="11.414914981871746"><ele>227.0</ele><time>2026-04-11T04:53:00Z</time></trkpt><trkpt lat="43.35651337972378" lon="11.414815413241246"><ele>227.0</ele><time>2026-04-11T04:53:03Z</time></trkpt><trkpt lat="43.356530641704246" lon="11.414718319485075"><ele>227.00000000000003</ele><time>2026-04-11T04:53:06Z</time></trkpt><trkpt lat="43.356553065479666" lon="11.414629245693044"><ele>227.0</ele><time>2026-04-11T04:53:09Z</time></trkpt><trkpt lat="43.35657746312091" lon="11.41453161849506"><ele>227.0</ele><time>2026-04-11T04:53:12Z</time></trkpt><trkpt lat="43.356597500443655" lon="11.414432414042691"><ele>227.00000000000003</ele><time>2026-04-11T04:53:15Z</time></trkpt><trkpt lat="43.35661773838881" lon="11.414341135671842"><ele>227.0</ele><time>2026-04-11T04:53:18Z</time></trkpt><trkpt lat="43.356643742247705" lon="11.414235530785634"><ele>227.0</ele><time>2026-04-11T04:53:21Z</time></trkpt><trkpt lat="43.35666804107647" lon="11.414130284547829"><ele>227.66666666666669</ele><time>2026-04-11T04:53:24Z</time></trkpt><trkpt lat="43.35669664055517" lon="11.414029322508055"><ele>228.33333333333334</ele><time>2026-04-11T04:53:27Z</time></trkpt><trkpt lat="43.35672748799745" lon="11.41392743257889"><ele>229.0</ele><time>2026-04-11T04:53:30Z</time></trkpt><trkpt lat="43.35675394432522" lon="11.413812896244234"><ele>229.66666666666669</ele><time>2026-04-11T04:53:32.999Z</time></trkpt><trkpt lat="43.35677656767913" lon="11.413725575228344"><ele>230.33333333333334</ele><time>2026-04-11T04:53:35.999Z</time></trkpt><trkpt lat="43.356803473698356" lon="11.413622282412632"><ele>231.0</ele><time>2026-04-11T04:53:38.999Z</time></trkpt><trkpt lat="43.356828137743285" lon="11.413522204927805"><ele>231.42857142857144</ele><time>2026-04-11T04:53:41.999Z</time></trkpt><trkpt lat="43.35686288405598" lon="11.413426180426885"><ele>231.85714285714286</ele><time>2026-04-11T04:53:44.999Z</time></trkpt><trkpt lat="43.35688913273662" lon="11.413319714702435"><ele>232.28571428571428</ele><time>2026-04-11T04:53:47.999Z</time></trkpt><trkpt lat="43.356922223378675" lon="11.41322984015056"><ele>232.71428571428572</ele><time>2026-04-11T04:53:50.999Z</time></trkpt><trkpt lat="43.35695002239107" lon="11.41313684038778"><ele>233.14285714285717</ele><time>2026-04-11T04:53:53.999Z</time></trkpt><trkpt lat="43.35697536637098" lon="11.413057040511275"><ele>233.57142857142858</ele><time>2026-04-11T04:53:55.999Z</time></trkpt><trkpt lat="43.357002394587575" lon="11.412965267973085"><ele>234.0</ele><time>2026-04-11T04:53:58.999Z</time></trkpt><trkpt lat="43.35702976593238" lon="11.412884245758178"><ele>234.5</ele><time>2026-04-11T04:54:01.999Z</time></trkpt><trkpt lat="43.357071031428994" lon="11.412795593131701"><ele>235.0</ele><time>2026-04-11T04:54:04.999Z</time></trkpt><trkpt lat="43.35710981481517" lon="11.412706781725422"><ele>235.5</ele><time>2026-04-11T04:54:07.999Z</time></trkpt><trkpt lat="43.35714335837807" lon="11.412626611705129"><ele>236.0</ele><time>2026-04-11T04:54:10.999Z</time></trkpt><trkpt lat="43.35719690263556" lon="11.412537852640256"><ele>236.5</ele><time>2026-04-11T04:54:14.999Z</time></trkpt><trkpt lat="43.3572571871532" lon="11.412454617388756"><ele>237.0</ele><time>2026-04-11T04:54:18.999Z</time></trkpt><trkpt lat="43.35731696350104" lon="11.412393398914945"><ele>237.71428571428567</ele><time>2026-04-11T04:54:21.999Z</time></trkpt><trkpt lat="43.35737401237637" lon="11.412343390364944"><ele>238.42857142857142</ele><time>2026-04-11T04:54:24.999Z</time></trkpt><trkpt lat="43.357440053688215" lon="11.412311344647994"><ele>239.1428571428571</ele><time>2026-04-11T04:54:27.999Z</time></trkpt><trkpt lat="43.35750407057786" lon="11.412278318857362"><ele>239.85714285714283</ele><time>2026-04-11T04:54:30.999Z</time></trkpt><trkpt lat="43.35757365624715" lon="11.412269811770118"><ele>240.57142857142856</ele><time>2026-04-11T04:54:33.999Z</time></trkpt><trkpt lat="43.35763901924443" lon="11.412265652664141"><ele>241.28571428571428</ele><time>2026-04-11T04:54:36.999Z</time></trkpt><trkpt lat="43.35770477536067" lon="11.412289234922087"><ele>242.0</ele><time>2026-04-11T04:54:41Z</time></trkpt><trkpt lat="43.35778080871989" lon="11.412314605305776"><ele>242.0</ele><time>2026-04-11T04:54:45Z</time></trkpt><trkpt lat="43.35786055975959" lon="11.412352626988536"><ele>241.99999999999997</ele><time>2026-04-11T04:54:49Z</time></trkpt><trkpt lat="43.35792792085852" lon="11.412375038397007"><ele>242.0</ele><time>2026-04-11T04:54:52Z</time></trkpt><trkpt lat="43.3579911161136" lon="11.412400378955645"><ele>242.0</ele><time>2026-04-11T04:54:55Z</time></trkpt><trkpt lat="43.35805363119778" lon="11.412420213477306"><ele>241.99999999999997</ele><time>2026-04-11T04:54:58Z</time></trkpt><trkpt lat="43.35811682717977" lon="11.412440157960702"><ele>242.0</ele><time>2026-04-11T04:55:01Z</time></trkpt><trkpt lat="43.358183672578356" lon="11.412449660622647"><ele>242.0</ele><time>2026-04-11T04:55:04Z</time></trkpt><trkpt lat="43.35824827754053" lon="11.412453359897274"><ele>242.7142857142857</ele><time>2026-04-11T04:55:07Z</time></trkpt><trkpt lat="43.35831302915577" lon="11.41244763549528"><ele>243.4285714285714</ele><time>2026-04-11T04:55:10Z</time></trkpt><trkpt lat="43.35838178085705" lon="11.412450783885728"><ele>244.14285714285714</ele><time>2026-04-11T04:55:13Z</time></trkpt><trkpt lat="43.35845182229533" lon="11.412445650753458"><ele>244.85714285714283</ele><time>2026-04-11T04:55:16Z</time></trkpt><trkpt lat="43.358515187059616" lon="11.412435026776516"><ele>245.57142857142856</ele><time>2026-04-11T04:55:19Z</time></trkpt><trkpt lat="43.35857911202138" lon="11.412429654108896"><ele>246.28571428571428</ele><time>2026-04-11T04:55:22Z</time></trkpt><trkpt lat="43.35864406270173" lon="11.412417298083586"><ele>247.0</ele><time>2026-04-11T04:55:25Z</time></trkpt><trkpt lat="43.35871706960186" lon="11.412382830689982"><ele>246.99999999999997</ele><time>2026-04-11T04:55:29Z</time></trkpt><trkpt lat="43.35877925923197" lon="11.412355244456917"><ele>247.0</ele><time>2026-04-11T04:55:32Z</time></trkpt><trkpt lat="43.35885104890242" lon="11.412305321482242"><ele>247.0</ele><time>2026-04-11T04:55:35.999Z</time></trkpt><trkpt lat="43.358911417951305" lon="11.412229777121548"><ele>247.0</ele><time>2026-04-11T04:55:39.999Z</time></trkpt><trkpt lat="43.35895969688082" lon="11.412153590581028"><ele>246.99999999999997</ele><time>2026-04-11T04:55:43.999Z</time></trkpt><trkpt lat="43.35898960124767" lon="11.412063943041609"><ele>247.0</ele><time>2026-04-11T04:55:48.999Z</time></trkpt><trkpt lat="43.35900466235582" lon="11.411956673337356"><ele>248.83333333333331</ele><time>2026-04-11T04:55:52.999Z</time></trkpt><trkpt lat="43.35899881057741" lon="11.411842929490186"><ele>250.66666666666666</ele><time>2026-04-11T04:55:56.999Z</time></trkpt><trkpt lat="43.359004139325336" lon="11.411738302501893"><ele>252.5</ele><time>2026-04-11T04:55:59.999Z</time></trkpt><trkpt lat="43.35900160381882" lon="11.41162365445506"><ele>254.33333333333331</ele><time>2026-04-11T04:56:03.999Z</time></trkpt><trkpt lat="43.35900454514683" lon="11.411534041049746"><ele>256.1666666666667</ele><time>2026-04-11T04:56:06.999Z</time></trkpt><trkpt lat="43.35900946251319" lon="11.41142112490616"><ele>258.0</ele><time>2026-04-11T04:56:10.999Z</time></trkpt><trkpt lat="43.3590239164799" lon="11.411317199952009"><ele>259.0</ele><time>2026-04-11T04:56:14.999Z</time></trkpt><trkpt lat="43.3590447378624" lon="11.411210022817983"><ele>260.0</ele><time>2026-04-11T04:56:18.999Z</time></trkpt><trkpt lat="43.359061722328775" lon="11.411113039857238"><ele>261.0</ele><time>2026-04-11T04:56:22.999Z</time></trkpt><trkpt lat="43.359107896698205" lon="11.41102926697755"><ele>262.0</ele><time>2026-04-11T04:56:26.999Z</time></trkpt><trkpt lat="43.35917332213777" lon="11.410964463578233"><ele>263.0</ele><time>2026-04-11T04:56:30.999Z</time></trkpt><trkpt lat="43.359239232824635" lon="11.410939500185723"><ele>264.0</ele><time>2026-04-11T04:56:33.999Z</time></trkpt><trkpt lat="43.35931402211339" lon="11.410935942219972"><ele>264.0</ele><time>2026-04-11T04:56:37.999Z</time></trkpt><trkpt lat="43.35938575340789" lon="11.410982248028832"><ele>264.0</ele><time>2026-04-11T04:56:41.999Z</time></trkpt><trkpt lat="43.3594384728159" lon="11.411035764614152"><ele>264.0</ele><time>2026-04-11T04:56:46Z</time></trkpt><trkpt lat="43.3594826942013" lon="11.41110818027742"><ele>264.0</ele><time>2026-04-11T04:56:50Z</time></trkpt><trkpt lat="43.35951684151211" lon="11.41121768597534"><ele>264.0</ele><time>2026-04-11T04:56:54Z</time></trkpt><trkpt lat="43.359551408170795" lon="11.411318544861361"><ele>264.0</ele><time>2026-04-11T04:56:58Z</time></trkpt><trkpt lat="43.3595694667491" lon="11.411427667423114"><ele>263.0</ele><time>2026-04-11T04:57:01Z</time></trkpt><trkpt lat="43.359581088856906" lon="11.411527449910297"><ele>262.0</ele><time>2026-04-11T04:57:05Z</time></trkpt><trkpt lat="43.35959518590405" lon="11.411645823043393"><ele>261.0</ele><time>2026-04-11T04:57:08Z</time></trkpt><trkpt lat="43.35961153390912" lon="11.411746101642622"><ele>260.0</ele><time>2026-04-11T04:57:11Z</time></trkpt><trkpt lat="43.35963255969083" lon="11.411844622743294"><ele>259.0</ele><time>2026-04-11T04:57:14Z</time></trkpt><trkpt lat="43.35967282784079" lon="11.411918619680499"><ele>258.0</ele><time>2026-04-11T04:57:17Z</time></trkpt><trkpt lat="43.35971537497084" lon="11.412003889352356"><ele>259.71428571428567</ele><time>2026-04-11T04:57:20Z</time></trkpt><trkpt lat="43.359772689061536" lon="11.412055970632554"><ele>261.42857142857144</ele><time>2026-04-11T04:57:23Z</time></trkpt><trkpt lat="43.35984651045241" lon="11.412075472604608"><ele>263.1428571428571</ele><time>2026-04-11T04:57:26Z</time></trkpt><trkpt lat="43.35992478354105" lon="11.412049617819141"><ele>264.85714285714283</ele><time>2026-04-11T04:57:29Z</time></trkpt><trkpt lat="43.359969134316856" lon="11.41198094070711"><ele>266.57142857142856</ele><time>2026-04-11T04:57:32Z</time></trkpt><trkpt lat="43.359995394501425" lon="11.41187760283954"><ele>268.2857142857143</ele><time>2026-04-11T04:57:35Z</time></trkpt><trkpt lat="43.35998877227959" lon="11.41178438970818"><ele>270.0</ele><time>2026-04-11T04:57:37.999Z</time></trkpt><trkpt lat="43.35996335410253" lon="11.411680529537819"><ele>270.0</ele><time>2026-04-11T04:57:40.999Z</time></trkpt><trkpt lat="43.359949376201946" lon="11.411588584494684"><ele>270.0</ele><time>2026-04-11T04:57:43.999Z</time></trkpt><trkpt lat="43.35993704522799" lon="11.411470158929378"><ele>270.0</ele><time>2026-04-11T04:57:47.999Z</time></trkpt><trkpt lat="43.35994721301827" lon="11.411363692640043"><ele>270.0</ele><time>2026-04-11T04:57:51.999Z</time></trkpt><trkpt lat="43.35997986551353" lon="11.411278445968446"><ele>270.0</ele><time>2026-04-11T04:57:55.999Z</time></trkpt><trkpt lat="43.36000957140766" lon="11.411200444448937"><ele>270.0</ele><time>2026-04-11T04:57:58.999Z</time></trkpt><trkpt lat="43.36005737066582" lon="11.411119163303118"><ele>270.0</ele><time>2026-04-11T04:58:02.999Z</time></trkpt><trkpt lat="43.36010594315007" lon="11.411048711029485"><ele>270.0</ele><time>2026-04-11T04:58:06.999Z</time></trkpt><trkpt lat="43.36016810072646" lon="11.410991325001966"><ele>270.0</ele><time>2026-04-11T04:58:11.999Z</time></trkpt><trkpt lat="43.36023248980718" lon="11.410969786326675"><ele>270.0</ele><time>2026-04-11T04:58:15.999Z</time></trkpt><trkpt lat="43.36029637825873" lon="11.410948149630274"><ele>270.0</ele><time>2026-04-11T04:58:20.999Z</time></trkpt><trkpt lat="43.360357197724966" lon="11.410923422120993"><ele>270.0</ele><time>2026-04-11T04:58:24.999Z</time></trkpt><trkpt lat="43.36042106398074" lon="11.41088320522967"><ele>270.0</ele><time>2026-04-11T04:58:29.999Z</time></trkpt><trkpt lat="43.36048362484391" lon="11.410848612669215"><ele>270.0</ele><time>2026-04-11T04:58:34.999Z</time></trkpt><trkpt lat="43.36054681179883" lon="11.41083385651723"><ele>271.3333333333333</ele><time>2026-04-11T04:58:38.999Z</time></trkpt><trkpt lat="43.36060970665163" lon="11.410800669420444"><ele>272.6666666666667</ele><time>2026-04-11T04:58:43.999Z</time></trkpt><trkpt lat="43.360671448272" lon="11.410760716442551"><ele>274.0</ele><time>2026-04-11T04:58:48.999Z</time></trkpt><trkpt lat="43.36074126865421" lon="11.410715947179467"><ele>275.33333333333337</ele><time>2026-04-11T04:58:54Z</time></trkpt><trkpt lat="43.36080198706456" lon="11.410636171608655"><ele>276.6666666666667</ele><time>2026-04-11T04:58:59Z</time></trkpt><trkpt lat="43.36084287085706" lon="11.41054891676795"><ele>278.0</ele><time>2026-04-11T04:59:03Z</time></trkpt><trkpt lat="43.360866991118336" lon="11.410445795144994"><ele>278.42857142857144</ele><time>2026-04-11T04:59:07Z</time></trkpt><trkpt lat="43.36088186275305" lon="11.410342914058939"><ele>278.8571428571429</ele><time>2026-04-11T04:59:11Z</time></trkpt><trkpt lat="43.36088131917005" lon="11.410232968977807"><ele>279.28571428571433</ele><time>2026-04-11T04:59:15Z</time></trkpt><trkpt lat="43.36086996852064" lon="11.410123244548974"><ele>279.7142857142857</ele><time>2026-04-11T04:59:19Z</time></trkpt><trkpt lat="43.36085021518832" lon="11.41003853953163"><ele>280.14285714285717</ele><time>2026-04-11T04:59:22Z</time></trkpt><trkpt lat="43.3608314233703" lon="11.409955184976454"><ele>280.5714285714286</ele><time>2026-04-11T04:59:25Z</time></trkpt><trkpt lat="43.36079568387192" lon="11.409881287029446"><ele>281.0</ele><time>2026-04-11T04:59:28Z</time></trkpt><trkpt lat="43.3607673259423" lon="11.409802741278797"><ele>281.0</ele><time>2026-04-11T04:59:31Z</time></trkpt><trkpt lat="43.360738348623684" lon="11.40969398110108"><ele>281.0</ele><time>2026-04-11T04:59:35Z</time></trkpt><trkpt lat="43.360703505043375" lon="11.409600419304097"><ele>281.0</ele><time>2026-04-11T04:59:38.999Z</time></trkpt><trkpt lat="43.360661618048624" lon="11.4095033447594"><ele>281.0</ele><time>2026-04-11T04:59:42.999Z</time></trkpt><trkpt lat="43.36062420141718" lon="11.409411796304354"><ele>281.0</ele><time>2026-04-11T04:59:46.999Z</time></trkpt><trkpt lat="43.36058252864037" lon="11.409318694164842"><ele>281.0</ele><time>2026-04-11T04:59:50.999Z</time></trkpt><trkpt lat="43.360538347730625" lon="11.409238990209687"><ele>280.8571428571429</ele><time>2026-04-11T04:59:53.999Z</time></trkpt><trkpt lat="43.36050186002981" lon="11.409167109045292"><ele>280.7142857142857</ele><time>2026-04-11T04:59:56.999Z</time></trkpt><trkpt lat="43.36045713999632" lon="11.409072838389383"><ele>280.57142857142856</ele><time>2026-04-11T05:00:00.999Z</time></trkpt><trkpt lat="43.360414614066364" lon="11.409001588786076"><ele>280.42857142857144</ele><time>2026-04-11T05:00:03.999Z</time></trkpt><trkpt lat="43.36036799682193" lon="11.408926254506657"><ele>280.2857142857143</ele><time>2026-04-11T05:00:06.999Z</time></trkpt><trkpt lat="43.36031314000071" lon="11.408861618644753"><ele>280.14285714285717</ele><time>2026-04-11T05:00:09.999Z</time></trkpt><trkpt lat="43.36025976795103" lon="11.40879851417582"><ele>280.0</ele><time>2026-04-11T05:00:12.999Z</time></trkpt><trkpt lat="43.360197153450834" lon="11.408748578471977"><ele>281.2857142857143</ele><time>2026-04-11T05:00:15.999Z</time></trkpt><trkpt lat="43.360133958273515" lon="11.408692539289987"><ele>282.57142857142856</ele><time>2026-04-11T05:00:18.999Z</time></trkpt><trkpt lat="43.3600698037481" lon="11.408636202070703"><ele>283.8571428571429</ele><time>2026-04-11T05:00:21.999Z</time></trkpt><trkpt lat="43.36000878992208" lon="11.40858269155886"><ele>285.1428571428571</ele><time>2026-04-11T05:00:24.999Z</time></trkpt><trkpt lat="43.359946738834545" lon="11.408535909651889"><ele>286.42857142857144</ele><time>2026-04-11T05:00:27.999Z</time></trkpt><trkpt lat="43.35988887389467" lon="11.408491737787958"><ele>287.7142857142857</ele><time>2026-04-11T05:00:30.999Z</time></trkpt><trkpt lat="43.35982708854298" lon="11.408447624204742"><ele>289.0</ele><time>2026-04-11T05:00:33.999Z</time></trkpt><trkpt lat="43.35977012124109" lon="11.408393059411756"><ele>289.0</ele><time>2026-04-11T05:00:36.999Z</time></trkpt><trkpt lat="43.3596987482499" lon="11.408353511798651"><ele>289.0</ele><time>2026-04-11T05:00:39.999Z</time></trkpt><trkpt lat="43.35963886225556" lon="11.408299369831905"><ele>289.0</ele><time>2026-04-11T05:00:42.999Z</time></trkpt><trkpt lat="43.35957812743855" lon="11.408231297631522"><ele>289.0</ele><time>2026-04-11T05:00:45.999Z</time></trkpt><trkpt lat="43.35952643845359" lon="11.408156119092073"><ele>289.0</ele><time>2026-04-11T05:00:48.999Z</time></trkpt><trkpt lat="43.35949778771671" lon="11.408066439424383"><ele>289.0</ele><time>2026-04-11T05:00:51.999Z</time></trkpt><trkpt lat="43.35948131773255" lon="11.407978743416509"><ele>289.0</ele><time>2026-04-11T05:00:54.999Z</time></trkpt><trkpt lat="43.35948549729206" lon="11.407886426129748"><ele>289.8571428571429</ele><time>2026-04-11T05:00:58Z</time></trkpt><trkpt lat="43.359496071841484" lon="11.407797316440606"><ele>290.7142857142857</ele><time>2026-04-11T05:01:01Z</time></trkpt><trkpt lat="43.359515588204076" lon="11.4077103584408"><ele>291.57142857142856</ele><time>2026-04-11T05:01:04Z</time></trkpt><trkpt lat="43.359549855956686" lon="11.407633980548301"><ele>292.42857142857144</ele><time>2026-04-11T05:01:07Z</time></trkpt><trkpt lat="43.35959344818284" lon="11.407569149094615"><ele>293.2857142857143</ele><time>2026-04-11T05:01:10Z</time></trkpt><trkpt lat="43.359640529438444" lon="11.407511328548061"><ele>294.14285714285717</ele><time>2026-04-11T05:01:13Z</time></trkpt><trkpt lat="43.35969328019389" lon="11.407461661569057"><ele>295.0</ele><time>2026-04-11T05:01:16Z</time></trkpt><trkpt lat="43.359759099066466" lon="11.407423479158382"><ele>295.0</ele><time>2026-04-11T05:01:19Z</time></trkpt><trkpt lat="43.35983384730114" lon="11.40740112744594"><ele>295.0</ele><time>2026-04-11T05:01:22Z</time></trkpt><trkpt lat="43.35991115542158" lon="11.407405243624758"><ele>295.0</ele><time>2026-04-11T05:01:25Z</time></trkpt><trkpt lat="43.3599787525934" lon="11.407416805028108"><ele>295.0</ele><time>2026-04-11T05:01:28Z</time></trkpt><trkpt lat="43.36004974523265" lon="11.407439257565963"><ele>295.0</ele><time>2026-04-11T05:01:31Z</time></trkpt><trkpt lat="43.3601257821577" lon="11.407469500712029"><ele>295.0</ele><time>2026-04-11T05:01:34Z</time></trkpt><trkpt lat="43.36022280134165" lon="11.40749434514072"><ele>295.0</ele><time>2026-04-11T05:01:36Z</time></trkpt><trkpt lat="43.360310207143314" lon="11.407511815478655"><ele>295.0</ele><time>2026-04-11T05:01:38.999Z</time></trkpt><trkpt lat="43.36039691611934" lon="11.407516760797472"><ele>295.0</ele><time>2026-04-11T05:01:41.999Z</time></trkpt><trkpt lat="43.36048055429694" lon="11.407531235566344"><ele>295.0</ele><time>2026-04-11T05:01:44.999Z</time></trkpt><trkpt lat="43.360559054802714" lon="11.407540646508163"><ele>295.0</ele><time>2026-04-11T05:01:47.999Z</time></trkpt><trkpt lat="43.36063796509548" lon="11.407546732148397"><ele>295.0</ele><time>2026-04-11T05:01:50.999Z</time></trkpt><trkpt lat="43.36071412828331" lon="11.40755877826132"><ele>295.5</ele><time>2026-04-11T05:01:53.999Z</time></trkpt><trkpt lat="43.36079357740537" lon="11.407556194815431"><ele>296.0</ele><time>2026-04-11T05:01:56.999Z</time></trkpt><trkpt lat="43.36088127589496" lon="11.407553850651963"><ele>296.5</ele><time>2026-04-11T05:02:00.999Z</time></trkpt><trkpt lat="43.360945037992884" lon="11.407557916797982"><ele>297.0</ele><time>2026-04-11T05:02:03.999Z</time></trkpt><trkpt lat="43.36102956576821" lon="11.407549053630396"><ele>297.5</ele><time>2026-04-11T05:02:07.999Z</time></trkpt><trkpt lat="43.36110958781737" lon="11.407539349647582"><ele>298.0</ele><time>2026-04-11T05:02:10.999Z</time></trkpt><trkpt lat="43.36119481744573" lon="11.407541489352141"><ele>298.0</ele><time>2026-04-11T05:02:13.999Z</time></trkpt><trkpt lat="43.36128607085557" lon="11.407531290346679"><ele>298.0</ele><time>2026-04-11T05:02:17.999Z</time></trkpt><trkpt lat="43.36135987559663" lon="11.407520103359003"><ele>298.0</ele><time>2026-04-11T05:02:20.999Z</time></trkpt><trkpt lat="43.361423544920804" lon="11.4075080717627"><ele>298.0</ele><time>2026-04-11T05:02:22.999Z</time></trkpt><trkpt lat="43.361503514738835" lon="11.407481863419072"><ele>298.0</ele><time>2026-04-11T05:02:25.999Z</time></trkpt><trkpt lat="43.3615826951407" lon="11.407465335482144"><ele>298.0</ele><time>2026-04-11T05:02:28.999Z</time></trkpt><trkpt lat="43.36166374659046" lon="11.407434894671429"><ele>299.1428571428571</ele><time>2026-04-11T05:02:31.999Z</time></trkpt><trkpt lat="43.3617430177073" lon="11.407420507101385"><ele>300.2857142857143</ele><time>2026-04-11T05:02:35.999Z</time></trkpt><trkpt lat="43.361811404171895" lon="11.407393989968412"><ele>301.42857142857144</ele><time>2026-04-11T05:02:38.999Z</time></trkpt><trkpt lat="43.36187877558461" lon="11.40736977547467"><ele>302.57142857142856</ele><time>2026-04-11T05:02:41.999Z</time></trkpt><trkpt lat="43.361944694441156" lon="11.407343497632725"><ele>303.7142857142857</ele><time>2026-04-11T05:02:44.999Z</time></trkpt><trkpt lat="43.36200880130936" lon="11.407339698323982"><ele>304.85714285714283</ele><time>2026-04-11T05:02:47.999Z</time></trkpt><trkpt lat="43.36207268878946" lon="11.407311557432292"><ele>306.0</ele><time>2026-04-11T05:02:50.999Z</time></trkpt><trkpt lat="43.36215334594669" lon="11.40729412215949"><ele>306.7142857142857</ele><time>2026-04-11T05:02:54.999Z</time></trkpt><trkpt lat="43.3622263304154" lon="11.40726563152582"><ele>307.42857142857144</ele><time>2026-04-11T05:02:58.999Z</time></trkpt><trkpt lat="43.36229842538892" lon="11.407243387449093"><ele>308.1428571428571</ele><time>2026-04-11T05:03:03Z</time></trkpt><trkpt lat="43.36237430796896" lon="11.407227981616792"><ele>308.8571428571429</ele><time>2026-04-11T05:03:07Z</time></trkpt><trkpt lat="43.362442255436896" lon="11.407207883238605"><ele>309.5714285714286</ele><time>2026-04-11T05:03:11Z</time></trkpt><trkpt lat="43.36251982666933" lon="11.407191931566821"><ele>310.2857142857143</ele><time>2026-04-11T05:03:15Z</time></trkpt><trkpt lat="43.36257659647713" lon="11.407150778962208"><ele>311.0</ele><time>2026-04-11T05:03:18Z</time></trkpt><trkpt lat="43.36263892994434" lon="11.407114523674407"><ele>311.0</ele><time>2026-04-11T05:03:21Z</time></trkpt><trkpt lat="43.36270693644966" lon="11.407099555964999"><ele>311.0</ele><time>2026-04-11T05:03:24Z</time></trkpt><trkpt lat="43.36278387142464" lon="11.407060260174694"><ele>311.0</ele><time>2026-04-11T05:03:28Z</time></trkpt><trkpt lat="43.36285943010005" lon="11.4070183249663"><ele>311.0</ele><time>2026-04-11T05:03:31.999Z</time></trkpt><trkpt lat="43.36293860700543" lon="11.406985277773044"><ele>311.0</ele><time>2026-04-11T05:03:35.999Z</time></trkpt><trkpt lat="43.36301194294867" lon="11.406939971655163"><ele>311.0</ele><time>2026-04-11T05:03:39.999Z</time></trkpt><trkpt lat="43.36308562432858" lon="11.406892502336781"><ele>312.33333333333337</ele><time>2026-04-11T05:03:43.999Z</time></trkpt><trkpt lat="43.36315537598103" lon="11.406852717512033"><ele>313.6666666666667</ele><time>2026-04-11T05:03:47.999Z</time></trkpt><trkpt lat="43.363228178167006" lon="11.406812265228579"><ele>315.0</ele><time>2026-04-11T05:03:51.999Z</time></trkpt><trkpt lat="43.36330175413205" lon="11.406759672820318"><ele>316.3333333333333</ele><time>2026-04-11T05:03:55.999Z</time></trkpt><trkpt lat="43.36336000097026" lon="11.406726246136362"><ele>317.66666666666663</ele><time>2026-04-11T05:03:58.999Z</time></trkpt><trkpt lat="43.36343479450833" lon="11.40669315364212"><ele>319.0</ele><time>2026-04-11T05:04:02.999Z</time></trkpt><trkpt lat="43.36351055770203" lon="11.406654162862832"><ele>319.0</ele><time>2026-04-11T05:04:06.999Z</time></trkpt><trkpt lat="43.36357951677654" lon="11.406596447419684"><ele>319.0</ele><time>2026-04-11T05:04:10.999Z</time></trkpt><trkpt lat="43.36365147368326" lon="11.406547140303834"><ele>319.0</ele><time>2026-04-11T05:04:14.999Z</time></trkpt><trkpt lat="43.36372234345562" lon="11.406496235496755"><ele>319.0</ele><time>2026-04-11T05:04:18.999Z</time></trkpt><trkpt lat="43.36379635413122" lon="11.406464603339037"><ele>319.0</ele><time>2026-04-11T05:04:22.999Z</time></trkpt><trkpt lat="43.36387423595739" lon="11.406407328769323"><ele>319.0</ele><time>2026-04-11T05:04:26.999Z</time></trkpt><trkpt lat="43.363948258741914" lon="11.406364630490899"><ele>320.66666666666663</ele><time>2026-04-11T05:04:30.999Z</time></trkpt><trkpt lat="43.36401797482313" lon="11.406317572108469"><ele>322.3333333333333</ele><time>2026-04-11T05:04:34.999Z</time></trkpt><trkpt lat="43.364084680548906" lon="11.406274193603034"><ele>324.0</ele><time>2026-04-11T05:04:38.999Z</time></trkpt><trkpt lat="43.364154215022836" lon="11.406225171463142"><ele>325.6666666666667</ele><time>2026-04-11T05:04:42.999Z</time></trkpt><trkpt lat="43.364217547026485" lon="11.406168785988386"><ele>327.33333333333337</ele><time>2026-04-11T05:04:46.999Z</time></trkpt><trkpt lat="43.36428974362196" lon="11.406122879958751"><ele>329.0</ele><time>2026-04-11T05:04:50.999Z</time></trkpt><trkpt lat="43.36435513004661" lon="11.406080519652418"><ele>329.0</ele><time>2026-04-11T05:04:54.999Z</time></trkpt><trkpt lat="43.36441976413302" lon="11.406025724288371"><ele>329.0</ele><time>2026-04-11T05:04:58.999Z</time></trkpt><trkpt lat="43.364498948804666" lon="11.406012657657596"><ele>329.0</ele><time>2026-04-11T05:05:02.999Z</time></trkpt><trkpt lat="43.364562435491315" lon="11.40600716256906"><ele>329.0</ele><time>2026-04-11T05:05:05.999Z</time></trkpt><trkpt lat="43.36463783542761" lon="11.406049016797537"><ele>329.0</ele><time>2026-04-11T05:05:10Z</time></trkpt><trkpt lat="43.36470119194944" lon="11.406111658144379"><ele>329.0</ele><time>2026-04-11T05:05:14Z</time></trkpt><trkpt lat="43.36474616208649" lon="11.406181205802923"><ele>329.0</ele><time>2026-04-11T05:05:17Z</time></trkpt><trkpt lat="43.36478739851091" lon="11.406248410032834"><ele>330.6666666666667</ele><time>2026-04-11T05:05:20Z</time></trkpt><trkpt lat="43.36484766720311" lon="11.406324223300345"><ele>332.33333333333337</ele><time>2026-04-11T05:05:24Z</time></trkpt><trkpt lat="43.364902245866425" lon="11.406386839580295"><ele>334.0</ele><time>2026-04-11T05:05:28Z</time></trkpt><trkpt lat="43.364971018752044" lon="11.406442207486242"><ele>335.6666666666667</ele><time>2026-04-11T05:05:32Z</time></trkpt><trkpt lat="43.36504384360809" lon="11.406476921407434"><ele>337.3333333333333</ele><time>2026-04-11T05:05:35Z</time></trkpt><trkpt lat="43.365113906253235" lon="11.406469847893584"><ele>339.0</ele><time>2026-04-11T05:05:38Z</time></trkpt><trkpt lat="43.36519013671658" lon="11.406461079583908"><ele>339.0</ele><time>2026-04-11T05:05:41Z</time></trkpt><trkpt lat="43.36526317206166" lon="11.406431224067308"><ele>339.0</ele><time>2026-04-11T05:05:43.999Z</time></trkpt><trkpt lat="43.3653324592281" lon="11.406409430228633"><ele>339.0</ele><time>2026-04-11T05:05:46.999Z</time></trkpt><trkpt lat="43.36539248962168" lon="11.406382556684258"><ele>339.0</ele><time>2026-04-11T05:05:49.999Z</time></trkpt><trkpt lat="43.36546008288235" lon="11.406352686260007"><ele>339.0</ele><time>2026-04-11T05:05:52.999Z</time></trkpt><trkpt lat="43.36553281950924" lon="11.406321322978673"><ele>339.0</ele><time>2026-04-11T05:05:55.999Z</time></trkpt><trkpt lat="43.36560620482573" lon="11.406290766568258"><ele>339.0</ele><time>2026-04-11T05:05:58.999Z</time></trkpt><trkpt lat="43.36568269017125" lon="11.406262472323592"><ele>339.8333333333333</ele><time>2026-04-11T05:06:01.999Z</time></trkpt><trkpt lat="43.36575034471231" lon="11.406227793027549"><ele>340.6666666666667</ele><time>2026-04-11T05:06:04.999Z</time></trkpt><trkpt lat="43.365818498409006" lon="11.406180086841779"><ele>341.5</ele><time>2026-04-11T05:06:07.999Z</time></trkpt><trkpt lat="43.36588523067491" lon="11.406111817780708"><ele>342.33333333333337</ele><time>2026-04-11T05:06:10.999Z</time></trkpt><trkpt lat="43.36593667750582" lon="11.406031719763488"><ele>343.1666666666667</ele><time>2026-04-11T05:06:13.999Z</time></trkpt><trkpt lat="43.36598286938853" lon="11.405956607782318"><ele>344.0</ele><time>2026-04-11T05:06:16.999Z</time></trkpt><trkpt lat="43.36601766477057" lon="11.405864728726531"><ele>344.00000000000006</ele><time>2026-04-11T05:06:19.999Z</time></trkpt><trkpt lat="43.36605910234732" lon="11.405773224266051"><ele>344.0</ele><time>2026-04-11T05:06:22.999Z</time></trkpt><trkpt lat="43.36610602777575" lon="11.405677243875358"><ele>344.0</ele><time>2026-04-11T05:06:25.999Z</time></trkpt><trkpt lat="43.36614030599985" lon="11.40560172274681"><ele>344.0</ele><time>2026-04-11T05:06:27.999Z</time></trkpt><trkpt lat="43.36617157830548" lon="11.405523223276287"><ele>344.0</ele><time>2026-04-11T05:06:29.999Z</time></trkpt><trkpt lat="43.36621086644291" lon="11.40543182520698"><ele>344.00000000000006</ele><time>2026-04-11T05:06:32.999Z</time></trkpt><trkpt lat="43.3662507394284" lon="11.405342742060036"><ele>344.0</ele><time>2026-04-11T05:06:35.999Z</time></trkpt><trkpt lat="43.366293247081046" lon="11.405236581231215"><ele>344.0</ele><time>2026-04-11T05:06:38.999Z</time></trkpt><trkpt lat="43.366324923945555" lon="11.405154658062647"><ele>344.0</ele><time>2026-04-11T05:06:40.999Z</time></trkpt><trkpt lat="43.36636553371828" lon="11.40505315808906"><ele>344.0</ele><time>2026-04-11T05:06:43.999Z</time></trkpt><trkpt lat="43.36640325671802" lon="11.404959907586212"><ele>344.0</ele><time>2026-04-11T05:06:46.999Z</time></trkpt><trkpt lat="43.36644203302008" lon="11.40486961168929"><ele>344.0</ele><time>2026-04-11T05:06:49.999Z</time></trkpt><trkpt lat="43.36648563682539" lon="11.404785945736462"><ele>344.0</ele><time>2026-04-11T05:06:52.999Z</time></trkpt><trkpt lat="43.36652595781624" lon="11.404672678807176"><ele>344.83333333333337</ele><time>2026-04-11T05:06:55.999Z</time></trkpt><trkpt lat="43.36659112986398" lon="11.404589076256153"><ele>345.6666666666667</ele><time>2026-04-11T05:06:58.999Z</time></trkpt><trkpt lat="43.366647213393065" lon="11.404515945329937"><ele>346.5</ele><time>2026-04-11T05:07:00.999Z</time></trkpt><trkpt lat="43.36671683287687" lon="11.40446746640435"><ele>347.3333333333333</ele><time>2026-04-11T05:07:02.999Z</time></trkpt><trkpt lat="43.36679479320472" lon="11.404410575399977"><ele>348.16666666666663</ele><time>2026-04-11T05:07:05.999Z</time></trkpt><trkpt lat="43.366852129246666" lon="11.404369669375095"><ele>349.0</ele><time>2026-04-11T05:07:07.999Z</time></trkpt><trkpt lat="43.36690897823809" lon="11.404324845180701"><ele>349.0</ele><time>2026-04-11T05:07:09.999Z</time></trkpt><trkpt lat="43.366999154659084" lon="11.404287684447274"><ele>349.0</ele><time>2026-04-11T05:07:13Z</time></trkpt><trkpt lat="43.36706738431559" lon="11.404255330002858"><ele>349.0</ele><time>2026-04-11T05:07:15Z</time></trkpt><trkpt lat="43.36713513513766" lon="11.404278887489257"><ele>349.0</ele><time>2026-04-11T05:07:18Z</time></trkpt><trkpt lat="43.367223116207505" lon="11.404272011140584"><ele>349.0</ele><time>2026-04-11T05:07:21Z</time></trkpt><trkpt lat="43.36731454083899" lon="11.404270604179562"><ele>349.0</ele><time>2026-04-11T05:07:24Z</time></trkpt><trkpt lat="43.36739961708797" lon="11.404283212883701"><ele>349.0</ele><time>2026-04-11T05:07:27Z</time></trkpt><trkpt lat="43.36748231403161" lon="11.404298848684691"><ele>349.0</ele><time>2026-04-11T05:07:30Z</time></trkpt><trkpt lat="43.36757005970389" lon="11.404311623751916"><ele>349.0</ele><time>2026-04-11T05:07:33Z</time></trkpt><trkpt lat="43.367658906520255" lon="11.404327014726087"><ele>349.0</ele><time>2026-04-11T05:07:36Z</time></trkpt><trkpt lat="43.36775094337239" lon="11.40434434597447"><ele>349.0</ele><time>2026-04-11T05:07:39Z</time></trkpt><trkpt lat="43.367816032690335" lon="11.404368950556062"><ele>349.0</ele><time>2026-04-11T05:07:41Z</time></trkpt><trkpt lat="43.36788604664212" lon="11.404384897708916"><ele>348.99999999999994</ele><time>2026-04-11T05:07:43Z</time></trkpt><trkpt lat="43.3679552202553" lon="11.40439180286572"><ele>349.0</ele><time>2026-04-11T05:07:45Z</time></trkpt><trkpt lat="43.36802610915816" lon="11.404406608637737"><ele>349.0</ele><time>2026-04-11T05:07:47Z</time></trkpt><trkpt lat="43.3680925903025" lon="11.404418088092227"><ele>349.0</ele><time>2026-04-11T05:07:49Z</time></trkpt><trkpt lat="43.36816266143145" lon="11.404430034782365"><ele>349.0</ele><time>2026-04-11T05:07:51Z</time></trkpt><trkpt lat="43.368229860767265" lon="11.40443481530582"><ele>348.99999999999994</ele><time>2026-04-11T05:07:52.999Z</time></trkpt><trkpt lat="43.36829706783666" lon="11.404447434694685"><ele>349.0</ele><time>2026-04-11T05:07:54.999Z</time></trkpt><trkpt lat="43.36837939936017" lon="11.404465678340094"><ele>349.5</ele><time>2026-04-11T05:07:57.999Z</time></trkpt><trkpt lat="43.36853228496855" lon="11.404496644395808"><ele>350.0</ele><time>2026-04-11T05:08:00.999Z</time></trkpt><trkpt lat="43.368600329336566" lon="11.404503717406083"><ele>350.5</ele><time>2026-04-11T05:08:02.999Z</time></trkpt><trkpt lat="43.36866974316357" lon="11.404512638211568"><ele>351.0</ele><time>2026-04-11T05:08:04.999Z</time></trkpt><trkpt lat="43.36873843991702" lon="11.404522790995605"><ele>351.5</ele><time>2026-04-11T05:08:06.999Z</time></trkpt><trkpt lat="43.36880697635988" lon="11.404533752508181"><ele>352.0</ele><time>2026-04-11T05:08:08.999Z</time></trkpt><trkpt lat="43.36887731083733" lon="11.404529579970127"><ele>352.42857142857144</ele><time>2026-04-11T05:08:10.999Z</time></trkpt><trkpt lat="43.3689506331167" lon="11.40452352345382"><ele>352.85714285714283</ele><time>2026-04-11T05:08:12.999Z</time></trkpt><trkpt lat="43.36902162926545" lon="11.4045132122439"><ele>353.2857142857143</ele><time>2026-04-11T05:08:14.999Z</time></trkpt><trkpt lat="43.36909250100086" lon="11.40450457422653"><ele>353.7142857142857</ele><time>2026-04-11T05:08:16.999Z</time></trkpt><trkpt lat="43.36917067955483" lon="11.40450117833972"><ele>354.14285714285717</ele><time>2026-04-11T05:08:19.999Z</time></trkpt><trkpt lat="43.36924210452467" lon="11.404498855190525"><ele>354.57142857142856</ele><time>2026-04-11T05:08:21.999Z</time></trkpt><trkpt lat="43.36930852593802" lon="11.404485050713292"><ele>355.0</ele><time>2026-04-11T05:08:22.999Z</time></trkpt><trkpt lat="43.36937706959619" lon="11.40447888436727"><ele>355.0</ele><time>2026-04-11T05:08:24.999Z</time></trkpt><trkpt lat="43.36944282961017" lon="11.404488455061738"><ele>355.0</ele><time>2026-04-11T05:08:26.999Z</time></trkpt><trkpt lat="43.369509431451974" lon="11.404487827520844"><ele>355.0</ele><time>2026-04-11T05:08:28.999Z</time></trkpt><trkpt lat="43.369595648834235" lon="11.404494273715128"><ele>355.0</ele><time>2026-04-11T05:08:31.999Z</time></trkpt><trkpt lat="43.36967640008288" lon="11.404491117586616"><ele>355.0</ele><time>2026-04-11T05:08:34.999Z</time></trkpt><trkpt lat="43.36975135873211" lon="11.40450383903195"><ele>355.0</ele><time>2026-04-11T05:08:37.999Z</time></trkpt><trkpt lat="43.36982831803655" lon="11.40450604989711"><ele>355.85714285714283</ele><time>2026-04-11T05:08:40.999Z</time></trkpt><trkpt lat="43.36990528457007" lon="11.40449374534286"><ele>356.7142857142857</ele><time>2026-04-11T05:08:44.999Z</time></trkpt><trkpt lat="43.369969890053994" lon="11.404507572991129"><ele>357.57142857142856</ele><time>2026-04-11T05:08:47.999Z</time></trkpt><trkpt lat="43.37003521489417" lon="11.404506033035686"><ele>358.42857142857144</ele><time>2026-04-11T05:08:50.999Z</time></trkpt><trkpt lat="43.37010862517591" lon="11.404506980992524"><ele>359.2857142857143</ele><time>2026-04-11T05:08:53.999Z</time></trkpt><trkpt lat="43.370182605933636" lon="11.404502900132982"><ele>360.14285714285717</ele><time>2026-04-11T05:08:56.999Z</time></trkpt><trkpt lat="43.37025739860871" lon="11.404503693174828"><ele>361.0</ele><time>2026-04-11T05:08:59.999Z</time></trkpt><trkpt lat="43.37032164546828" lon="11.404511430968586"><ele>361.0</ele><time>2026-04-11T05:09:01.999Z</time></trkpt><trkpt lat="43.37038746346093" lon="11.404516408395821"><ele>361.0</ele><time>2026-04-11T05:09:04.999Z</time></trkpt><trkpt lat="43.3704694419742" lon="11.404517397486494"><ele>361.0</ele><time>2026-04-11T05:09:07.999Z</time></trkpt><trkpt lat="43.37055467467253" lon="11.404500886925728"><ele>361.0</ele><time>2026-04-11T05:09:10.999Z</time></trkpt><trkpt lat="43.370629212739786" lon="11.404481492386527"><ele>361.0</ele><time>2026-04-11T05:09:13.999Z</time></trkpt><trkpt lat="43.37069577987854" lon="11.404462342185749"><ele>361.0</ele><time>2026-04-11T05:09:16.999Z</time></trkpt><trkpt lat="43.37076023941636" lon="11.404434979594251"><ele>361.0</ele><time>2026-04-11T05:09:20Z</time></trkpt><trkpt lat="43.37082107290066" lon="11.404401572295576"><ele>361.7142857142857</ele><time>2026-04-11T05:09:23Z</time></trkpt><trkpt lat="43.37087906202394" lon="11.404355611399676"><ele>362.4285714285714</ele><time>2026-04-11T05:09:26Z</time></trkpt><trkpt lat="43.370931496195226" lon="11.404302799502668"><ele>363.1428571428571</ele><time>2026-04-11T05:09:29Z</time></trkpt><trkpt lat="43.37098176505964" lon="11.404233889028982"><ele>363.8571428571429</ele><time>2026-04-11T05:09:32Z</time></trkpt><trkpt lat="43.37102862719574" lon="11.404157257785242"><ele>364.57142857142856</ele><time>2026-04-11T05:09:35Z</time></trkpt><trkpt lat="43.3710655753252" lon="11.404072129327401"><ele>365.2857142857143</ele><time>2026-04-11T05:09:38Z</time></trkpt><trkpt lat="43.37109991787077" lon="11.40398796856594"><ele>366.0</ele><time>2026-04-11T05:09:41Z</time></trkpt><trkpt lat="43.37113740987404" lon="11.403907683172411"><ele>366.2857142857143</ele><time>2026-04-11T05:09:44Z</time></trkpt><trkpt lat="43.371169804609465" lon="11.4038245683652"><ele>366.57142857142856</ele><time>2026-04-11T05:09:47Z</time></trkpt><trkpt lat="43.37120722630388" lon="11.40373442829741"><ele>366.8571428571429</ele><time>2026-04-11T05:09:50Z</time></trkpt><trkpt lat="43.37124623812162" lon="11.403643100743608"><ele>367.1428571428571</ele><time>2026-04-11T05:09:53Z</time></trkpt><trkpt lat="43.37128628709482" lon="11.403549879787164"><ele>367.4285714285714</ele><time>2026-04-11T05:09:55.999Z</time></trkpt><trkpt lat="43.37132033539382" lon="11.403469223335252"><ele>367.7142857142857</ele><time>2026-04-11T05:09:58.999Z</time></trkpt><trkpt lat="43.3713563749042" lon="11.403388641683575"><ele>368.0</ele><time>2026-04-11T05:10:01.999Z</time></trkpt><trkpt lat="43.37139386892945" lon="11.403305153009745"><ele>368.5714285714286</ele><time>2026-04-11T05:10:04.999Z</time></trkpt><trkpt lat="43.37142761767856" lon="11.403230507446692"><ele>369.1428571428571</ele><time>2026-04-11T05:10:06.999Z</time></trkpt><trkpt lat="43.37146581934079" lon="11.40312181305307"><ele>369.7142857142857</ele><time>2026-04-11T05:10:10.999Z</time></trkpt><trkpt lat="43.3715066204657" lon="11.4030456569129"><ele>370.28571428571433</ele><time>2026-04-11T05:10:13.999Z</time></trkpt><trkpt lat="43.37154378954979" lon="11.402948186025524"><ele>370.8571428571429</ele><time>2026-04-11T05:10:17.999Z</time></trkpt><trkpt lat="43.37157691250871" lon="11.402871542754562"><ele>371.42857142857144</ele><time>2026-04-11T05:10:20.999Z</time></trkpt><trkpt lat="43.3716084285163" lon="11.402793257313867"><ele>372.0</ele><time>2026-04-11T05:10:23.999Z</time></trkpt><trkpt lat="43.37163447317703" lon="11.402701959743192"><ele>373.00000000000006</ele><time>2026-04-11T05:10:26.999Z</time></trkpt><trkpt lat="43.37166328961873" lon="11.402618367137046"><ele>374.0</ele><time>2026-04-11T05:10:29.999Z</time></trkpt><trkpt lat="43.37170927173986" lon="11.40254154087398"><ele>375.0</ele><time>2026-04-11T05:10:32.999Z</time></trkpt><trkpt lat="43.371743545485536" lon="11.402449940634147"><ele>376.0</ele><time>2026-04-11T05:10:35.999Z</time></trkpt><trkpt lat="43.37178465870254" lon="11.402368375365409"><ele>377.0</ele><time>2026-04-11T05:10:38.999Z</time></trkpt><trkpt lat="43.37181459564959" lon="11.402279384882618"><ele>378.00000000000006</ele><time>2026-04-11T05:10:41.999Z</time></trkpt><trkpt lat="43.3718240391247" lon="11.402188527964142"><ele>379.0</ele><time>2026-04-11T05:10:44.999Z</time></trkpt><trkpt lat="43.37184459946739" lon="11.40208945684929"><ele>379.3333333333333</ele><time>2026-04-11T05:10:47.999Z</time></trkpt><trkpt lat="43.3718493478717" lon="11.401989241448625"><ele>379.66666666666663</ele><time>2026-04-11T05:10:50.999Z</time></trkpt><trkpt lat="43.3718644540535" lon="11.401888247069463"><ele>380.0</ele><time>2026-04-11T05:10:53.999Z</time></trkpt><trkpt lat="43.37188778260886" lon="11.401793683176054"><ele>380.3333333333333</ele><time>2026-04-11T05:10:56.999Z</time></trkpt><trkpt lat="43.37191813210335" lon="11.40169627362737"><ele>380.6666666666667</ele><time>2026-04-11T05:10:59.999Z</time></trkpt><trkpt lat="43.371961568541124" lon="11.401606205048445"><ele>381.0</ele><time>2026-04-11T05:11:02.999Z</time></trkpt><trkpt lat="43.372016335687064" lon="11.40153035425369"><ele>381.0</ele><time>2026-04-11T05:11:04.999Z</time></trkpt><trkpt lat="43.37208857027143" lon="11.401461359068547"><ele>381.0</ele><time>2026-04-11T05:11:07.999Z</time></trkpt><trkpt lat="43.37215067219466" lon="11.401410540378603"><ele>381.0</ele><time>2026-04-11T05:11:10.999Z</time></trkpt><trkpt lat="43.37222312644893" lon="11.401345587503993"><ele>381.0</ele><time>2026-04-11T05:11:13.999Z</time></trkpt><trkpt lat="43.3722998646571" lon="11.40126265187588"><ele>381.0</ele><time>2026-04-11T05:11:16.999Z</time></trkpt><trkpt lat="43.372362849150946" lon="11.401195376200706"><ele>381.0</ele><time>2026-04-11T05:11:18.999Z</time></trkpt><trkpt lat="43.37241658015745" lon="11.401139765408907"><ele>381.7142857142857</ele><time>2026-04-11T05:11:20.999Z</time></trkpt><trkpt lat="43.372480083861184" lon="11.401064840001618"><ele>382.42857142857144</ele><time>2026-04-11T05:11:23.999Z</time></trkpt><trkpt lat="43.37253763719485" lon="11.400998305316962"><ele>383.14285714285717</ele><time>2026-04-11T05:11:26Z</time></trkpt><trkpt lat="43.37258886071212" lon="11.400927561491686"><ele>383.8571428571429</ele><time>2026-04-11T05:11:29Z</time></trkpt><trkpt lat="43.37265060283034" lon="11.400865176245766"><ele>384.57142857142856</ele><time>2026-04-11T05:11:30Z</time></trkpt><trkpt lat="43.37270598828961" lon="11.400797363270406"><ele>385.28571428571433</ele><time>2026-04-11T05:11:32Z</time></trkpt><trkpt lat="43.37275717013094" lon="11.400738843867384"><ele>386.0</ele><time>2026-04-11T05:11:33Z</time></trkpt><trkpt lat="43.372821770485956" lon="11.400658265397267"><ele>385.99999999999994</ele><time>2026-04-11T05:11:35Z</time></trkpt><trkpt lat="43.37289488792384" lon="11.40058017641082"><ele>386.0</ele><time>2026-04-11T05:11:37Z</time></trkpt><trkpt lat="43.37296408663324" lon="11.400499128065753"><ele>386.0</ele><time>2026-04-11T05:11:39Z</time></trkpt><trkpt lat="43.37303102273424" lon="11.400425822222218"><ele>386.0</ele><time>2026-04-11T05:11:41Z</time></trkpt><trkpt lat="43.37309562883398" lon="11.400362961106008"><ele>385.99999999999994</ele><time>2026-04-11T05:11:43Z</time></trkpt><trkpt lat="43.37316664520007" lon="11.400296988986257"><ele>386.0</ele><time>2026-04-11T05:11:45Z</time></trkpt><trkpt lat="43.37324919520759" lon="11.400238165686405"><ele>385.4</ele><time>2026-04-11T05:11:47Z</time></trkpt><trkpt lat="43.37333862105185" lon="11.400196712201002"><ele>384.8</ele><time>2026-04-11T05:11:49Z</time></trkpt><trkpt lat="43.373423011599" lon="11.400144911258025"><ele>384.2</ele><time>2026-04-11T05:11:51Z</time></trkpt><trkpt lat="43.37350938839795" lon="11.400109194148266"><ele>383.59999999999997</ele><time>2026-04-11T05:11:53Z</time></trkpt><trkpt lat="43.37358180890036" lon="11.400085048192226"><ele>383.0</ele><time>2026-04-11T05:11:56Z</time></trkpt><trkpt lat="43.3736999260936" lon="11.400039466842184"><ele>383.0</ele><time>2026-04-11T05:11:57Z</time></trkpt><trkpt lat="43.373790611733035" lon="11.400003245202921"><ele>383.0</ele><time>2026-04-11T05:11:59Z</time></trkpt><trkpt lat="43.3738775221403" lon="11.399962299737552"><ele>383.0</ele><time>2026-04-11T05:12:00.999Z</time></trkpt><trkpt lat="43.37396335824731" lon="11.399920189920495"><ele>383.0</ele><time>2026-04-11T05:12:02.999Z</time></trkpt><trkpt lat="43.37404331853124" lon="11.399876002231544"><ele>383.0</ele><time>2026-04-11T05:12:04.999Z</time></trkpt><trkpt lat="43.374122066705" lon="11.399831415703323"><ele>383.0</ele><time>2026-04-11T05:12:06.999Z</time></trkpt><trkpt lat="43.37420136335486" lon="11.399781392794674"><ele>383.0</ele><time>2026-04-11T05:12:08.999Z</time></trkpt><trkpt lat="43.37428003823124" lon="11.399719598200734"><ele>383.0</ele><time>2026-04-11T05:12:10.999Z</time></trkpt><trkpt lat="43.37435697798323" lon="11.39964770496941"><ele>383.0</ele><time>2026-04-11T05:12:12.999Z</time></trkpt><trkpt lat="43.374432415508224" lon="11.39956617454224"><ele>383.0</ele><time>2026-04-11T05:12:14.999Z</time></trkpt><trkpt lat="43.37451553982877" lon="11.399481501414138"><ele>383.0</ele><time>2026-04-11T05:12:16.999Z</time></trkpt><trkpt lat="43.37460015856602" lon="11.399394742517845"><ele>382.79999999999995</ele><time>2026-04-11T05:12:18.999Z</time></trkpt><trkpt lat="43.37467574356057" lon="11.399313040628627"><ele>382.6</ele><time>2026-04-11T05:12:20.999Z</time></trkpt><trkpt lat="43.3747548500024" lon="11.399222820973893"><ele>382.4</ele><time>2026-04-11T05:12:22.999Z</time></trkpt><trkpt lat="43.37483790386968" lon="11.399132479555332"><ele>382.20000000000005</ele><time>2026-04-11T05:12:24.999Z</time></trkpt><trkpt lat="43.37491468334648" lon="11.399043726126779"><ele>382.0</ele><time>2026-04-11T05:12:26.999Z</time></trkpt><trkpt lat="43.374979874310554" lon="11.398958544590387"><ele>382.0</ele><time>2026-04-11T05:12:28.999Z</time></trkpt><trkpt lat="43.37505270336608" lon="11.39887512788885"><ele>382.0</ele><time>2026-04-11T05:12:30.999Z</time></trkpt><trkpt lat="43.375132637074074" lon="11.398798156118284"><ele>382.0</ele><time>2026-04-11T05:12:32.999Z</time></trkpt><trkpt lat="43.37521168218469" lon="11.398718590031104"><ele>382.0</ele><time>2026-04-11T05:12:34.999Z</time></trkpt><trkpt lat="43.37528564177062" lon="11.398640722849121"><ele>382.0</ele><time>2026-04-11T05:12:36.999Z</time></trkpt><trkpt lat="43.37537008004398" lon="11.398566681736758"><ele>382.20000000000005</ele><time>2026-04-11T05:12:38.999Z</time></trkpt><trkpt lat="43.375460285810234" lon="11.398515782844479"><ele>382.4</ele><time>2026-04-11T05:12:40.999Z</time></trkpt><trkpt lat="43.37555083169058" lon="11.398463647986231"><ele>382.6</ele><time>2026-04-11T05:12:42.999Z</time></trkpt><trkpt lat="43.37564337487736" lon="11.398418433948606"><ele>382.79999999999995</ele><time>2026-04-11T05:12:44.999Z</time></trkpt><trkpt lat="43.375717486374626" lon="11.398385267129784"><ele>383.0</ele><time>2026-04-11T05:12:47.999Z</time></trkpt><trkpt lat="43.3758280343516" lon="11.398340981847532"><ele>383.0</ele><time>2026-04-11T05:12:48.999Z</time></trkpt><trkpt lat="43.37591510693446" lon="11.398308890584948"><ele>383.0</ele><time>2026-04-11T05:12:50.999Z</time></trkpt><trkpt lat="43.375999353435276" lon="11.398281541980955"><ele>383.0</ele><time>2026-04-11T05:12:52.999Z</time></trkpt><trkpt lat="43.37608622341146" lon="11.39824659378321"><ele>383.0</ele><time>2026-04-11T05:12:54.999Z</time></trkpt><trkpt lat="43.37616986237757" lon="11.398214766627898"><ele>383.0</ele><time>2026-04-11T05:12:56.999Z</time></trkpt><trkpt lat="43.37625579433644" lon="11.398190933067761"><ele>383.0</ele><time>2026-04-11T05:12:58.999Z</time></trkpt><trkpt lat="43.376341408347045" lon="11.39816698128119"><ele>382.6666666666667</ele><time>2026-04-11T05:13:00.999Z</time></trkpt><trkpt lat="43.37642101434397" lon="11.398126801144503"><ele>382.33333333333337</ele><time>2026-04-11T05:13:02.999Z</time></trkpt><trkpt lat="43.376502400791395" lon="11.398089380080899"><ele>382.0</ele><time>2026-04-11T05:13:04.999Z</time></trkpt><trkpt lat="43.376584086767686" lon="11.398048769263651"><ele>381.6666666666667</ele><time>2026-04-11T05:13:06.999Z</time></trkpt><trkpt lat="43.37666120860767" lon="11.398001995032088"><ele>381.3333333333333</ele><time>2026-04-11T05:13:08.999Z</time></trkpt><trkpt lat="43.376715458067295" lon="11.397939825737135"><ele>381.0</ele><time>2026-04-11T05:13:10.999Z</time></trkpt><trkpt lat="43.376784609360634" lon="11.397870845404071"><ele>382.0</ele><time>2026-04-11T05:13:12.999Z</time></trkpt><trkpt lat="43.37684899382321" lon="11.397800697807394"><ele>383.0</ele><time>2026-04-11T05:13:14.999Z</time></trkpt><trkpt lat="43.37691309512353" lon="11.397733620472223"><ele>384.0</ele><time>2026-04-11T05:13:16.999Z</time></trkpt><trkpt lat="43.376974958452365" lon="11.39767666456183"><ele>385.0</ele><time>2026-04-11T05:13:18.999Z</time></trkpt><trkpt lat="43.3770352432043" lon="11.39761697273229"><ele>386.0</ele><time>2026-04-11T05:13:20.999Z</time></trkpt><trkpt lat="43.37710731160041" lon="11.397543832635408"><ele>387.0</ele><time>2026-04-11T05:13:22.999Z</time></trkpt><trkpt lat="43.377177377697514" lon="11.397470797376807"><ele>386.8333333333333</ele><time>2026-04-11T05:13:24.999Z</time></trkpt><trkpt lat="43.37724242549033" lon="11.397406429393794"><ele>386.66666666666663</ele><time>2026-04-11T05:13:26.999Z</time></trkpt><trkpt lat="43.37731085552714" lon="11.397342035691631"><ele>386.5</ele><time>2026-04-11T05:13:28.999Z</time></trkpt><trkpt lat="43.37737056276658" lon="11.397296885724659"><ele>386.3333333333333</ele><time>2026-04-11T05:13:31Z</time></trkpt><trkpt lat="43.37743940474263" lon="11.397254888609707"><ele>386.16666666666663</ele><time>2026-04-11T05:13:33Z</time></trkpt><trkpt lat="43.37750560689101" lon="11.397214612096432"><ele>386.0</ele><time>2026-04-11T05:13:35Z</time></trkpt><trkpt lat="43.3775712411796" lon="11.397172893628639"><ele>386.42857142857144</ele><time>2026-04-11T05:13:37Z</time></trkpt><trkpt lat="43.37763375437353" lon="11.397147361010592"><ele>386.8571428571429</ele><time>2026-04-11T05:13:39Z</time></trkpt><trkpt lat="43.37769840817147" lon="11.397134962737981"><ele>387.28571428571433</ele><time>2026-04-11T05:13:41Z</time></trkpt><trkpt lat="43.377770092280684" lon="11.39713054549249"><ele>387.7142857142857</ele><time>2026-04-11T05:13:43Z</time></trkpt><trkpt lat="43.37784748945474" lon="11.39711825492819"><ele>388.1428571428571</ele><time>2026-04-11T05:13:46Z</time></trkpt><trkpt lat="43.377939322649894" lon="11.397104745600956"><ele>388.5714285714286</ele><time>2026-04-11T05:13:49Z</time></trkpt><trkpt lat="43.378003411802844" lon="11.39709764290866"><ele>389.0</ele><time>2026-04-11T05:13:51Z</time></trkpt><trkpt lat="43.378093914250435" lon="11.397077290791891"><ele>389.8333333333333</ele><time>2026-04-11T05:13:54Z</time></trkpt><trkpt lat="43.37818539288524" lon="11.397050980363073"><ele>390.66666666666663</ele><time>2026-04-11T05:13:57Z</time></trkpt><trkpt lat="43.37827156857799" lon="11.397027705477084"><ele>391.5</ele><time>2026-04-11T05:14:00Z</time></trkpt><trkpt lat="43.378356997840356" lon="11.397003087085725"><ele>392.33333333333337</ele><time>2026-04-11T05:14:03Z</time></trkpt><trkpt lat="43.37844078749872" lon="11.396983136735548"><ele>393.1666666666667</ele><time>2026-04-11T05:14:06Z</time></trkpt><trkpt lat="43.378521639015005" lon="11.396948580075248"><ele>394.0</ele><time>2026-04-11T05:14:08.999Z</time></trkpt><trkpt lat="43.378612684786724" lon="11.39691610684993"><ele>394.00000000000006</ele><time>2026-04-11T05:14:11.999Z</time></trkpt><trkpt lat="43.378675778919074" lon="11.396899223567694"><ele>394.0</ele><time>2026-04-11T05:14:13.999Z</time></trkpt><trkpt lat="43.37875541870192" lon="11.396866371797802"><ele>394.0</ele><time>2026-04-11T05:14:16.999Z</time></trkpt><trkpt lat="43.3788396246667" lon="11.396832228597553"><ele>394.0</ele><time>2026-04-11T05:14:19.999Z</time></trkpt><trkpt lat="43.37892806815203" lon="11.39680695199915"><ele>394.00000000000006</ele><time>2026-04-11T05:14:22.999Z</time></trkpt><trkpt lat="43.37901243339682" lon="11.3967765549017"><ele>394.0</ele><time>2026-04-11T05:14:25.999Z</time></trkpt><trkpt lat="43.379098386711114" lon="11.396745194268542"><ele>395.00000000000006</ele><time>2026-04-11T05:14:28.999Z</time></trkpt><trkpt lat="43.379182420566025" lon="11.396719773944195"><ele>396.0</ele><time>2026-04-11T05:14:31.999Z</time></trkpt><trkpt lat="43.37925804931858" lon="11.396689195173593"><ele>397.0</ele><time>2026-04-11T05:14:34.999Z</time></trkpt><trkpt lat="43.37933755679514" lon="11.396667709960653"><ele>398.0</ele><time>2026-04-11T05:14:37.999Z</time></trkpt><trkpt lat="43.37941601365614" lon="11.396638634946562"><ele>399.00000000000006</ele><time>2026-04-11T05:14:40.999Z</time></trkpt><trkpt lat="43.37950089574179" lon="11.396629247434317"><ele>400.0</ele><time>2026-04-11T05:14:43.999Z</time></trkpt><trkpt lat="43.37957144266585" lon="11.396608898005947"><ele>400.00000000000006</ele><time>2026-04-11T05:14:46.999Z</time></trkpt><trkpt lat="43.37964914489874" lon="11.396579842350993"><ele>400.0</ele><time>2026-04-11T05:14:49.999Z</time></trkpt><trkpt lat="43.37972665207083" lon="11.396554772298623"><ele>400.0</ele><time>2026-04-11T05:14:52.999Z</time></trkpt><trkpt lat="43.37980878794734" lon="11.396549045299786"><ele>400.0</ele><time>2026-04-11T05:14:55.999Z</time></trkpt><trkpt lat="43.37988341989592" lon="11.396536954250575"><ele>400.00000000000006</ele><time>2026-04-11T05:14:57.999Z</time></trkpt><trkpt lat="43.37994572325537" lon="11.396520373634912"><ele>400.0</ele><time>2026-04-11T05:14:59.999Z</time></trkpt><trkpt lat="43.380020243452755" lon="11.396500849932597"><ele>400.6666666666667</ele><time>2026-04-11T05:15:02.999Z</time></trkpt><trkpt lat="43.380097536216965" lon="11.39647205781046"><ele>401.33333333333337</ele><time>2026-04-11T05:15:05.999Z</time></trkpt><trkpt lat="43.38017839786801" lon="11.396456330010382"><ele>402.0</ele><time>2026-04-11T05:15:08.999Z</time></trkpt><trkpt lat="43.38024725533431" lon="11.396440296985087"><ele>402.66666666666663</ele><time>2026-04-11T05:15:10.999Z</time></trkpt><trkpt lat="43.38033618615297" lon="11.396414422240094"><ele>403.3333333333333</ele><time>2026-04-11T05:15:13.999Z</time></trkpt><trkpt lat="43.38042430580485" lon="11.396397104187697"><ele>404.0</ele><time>2026-04-11T05:15:16.999Z</time></trkpt><trkpt lat="43.38050976408039" lon="11.396362076640488"><ele>404.16666666666663</ele><time>2026-04-11T05:15:19.999Z</time></trkpt><trkpt lat="43.38059786736871" lon="11.396337214507737"><ele>404.3333333333333</ele><time>2026-04-11T05:15:22.999Z</time></trkpt><trkpt lat="43.38068649300882" lon="11.39632247095888"><ele>404.5</ele><time>2026-04-11T05:15:25.999Z</time></trkpt><trkpt lat="43.380772295445006" lon="11.396305213465912"><ele>404.66666666666663</ele><time>2026-04-11T05:15:28.999Z</time></trkpt><trkpt lat="43.380860446471566" lon="11.39628750204463"><ele>404.8333333333333</ele><time>2026-04-11T05:15:31.999Z</time></trkpt><trkpt lat="43.3809316717878" lon="11.396281408096723"><ele>405.0</ele><time>2026-04-11T05:15:35Z</time></trkpt><trkpt lat="43.381014408587156" lon="11.396277351075268"><ele>405.5</ele><time>2026-04-11T05:15:38Z</time></trkpt><trkpt lat="43.38110891090897" lon="11.396281763188203"><ele>406.0</ele><time>2026-04-11T05:15:41Z</time></trkpt><trkpt lat="43.381187217081404" lon="11.396283790275778"><ele>406.5</ele><time>2026-04-11T05:15:44Z</time></trkpt><trkpt lat="43.38127138211585" lon="11.396289560807537"><ele>407.0</ele><time>2026-04-11T05:15:46Z</time></trkpt><trkpt lat="43.38136202090264" lon="11.396288351219253"><ele>407.5</ele><time>2026-04-11T05:15:49Z</time></trkpt><trkpt lat="43.3814559470121" lon="11.396278139491404"><ele>408.0</ele><time>2026-04-11T05:15:52Z</time></trkpt><trkpt lat="43.381521286962915" lon="11.396270288765766"><ele>408.3333333333333</ele><time>2026-04-11T05:15:54Z</time></trkpt><trkpt lat="43.381587162300335" lon="11.396263414158788"><ele>408.66666666666663</ele><time>2026-04-11T05:15:56Z</time></trkpt><trkpt lat="43.381679649265976" lon="11.396249381863504"><ele>409.0</ele><time>2026-04-11T05:15:59Z</time></trkpt><trkpt lat="43.381743093249476" lon="11.396245262911384"><ele>409.3333333333333</ele><time>2026-04-11T05:16:01Z</time></trkpt><trkpt lat="43.38182963094973" lon="11.39622201066303"><ele>409.66666666666663</ele><time>2026-04-11T05:16:04Z</time></trkpt><trkpt lat="43.38189893141004" lon="11.396206232870957"><ele>410.0</ele><time>2026-04-11T05:16:06Z</time></trkpt><trkpt lat="43.3819891157975" lon="11.396198306843518"><ele>409.99999999999994</ele><time>2026-04-11T05:16:08.999Z</time></trkpt><trkpt lat="43.382079950405476" lon="11.396181080764446"><ele>410.0</ele><time>2026-04-11T05:16:11.999Z</time></trkpt><trkpt lat="43.38216424796884" lon="11.396171400825079"><ele>410.0</ele><time>2026-04-11T05:16:14.999Z</time></trkpt><trkpt lat="43.38224868644913" lon="11.396142538116733"><ele>410.0</ele><time>2026-04-11T05:16:17.999Z</time></trkpt><trkpt lat="43.38233226694655" lon="11.396122112032137"><ele>409.99999999999994</ele><time>2026-04-11T05:16:20.999Z</time></trkpt><trkpt lat="43.382414178924776" lon="11.396099591429017"><ele>410.0</ele><time>2026-04-11T05:16:23.999Z</time></trkpt><trkpt lat="43.38250268213721" lon="11.396077433509314"><ele>410.66666666666663</ele><time>2026-04-11T05:16:26.999Z</time></trkpt><trkpt lat="43.38259158531118" lon="11.396057948313178"><ele>411.3333333333333</ele><time>2026-04-11T05:16:29.999Z</time></trkpt><trkpt lat="43.38268196965247" lon="11.396034866118121"><ele>412.0</ele><time>2026-04-11T05:16:32.999Z</time></trkpt><trkpt lat="43.38277161514785" lon="11.396004125015452"><ele>412.66666666666663</ele><time>2026-04-11T05:16:35.999Z</time></trkpt><trkpt lat="43.38283814808811" lon="11.395981631462726"><ele>413.3333333333333</ele><time>2026-04-11T05:16:37.999Z</time></trkpt><trkpt lat="43.38290487094027" lon="11.395955356522247"><ele>414.0</ele><time>2026-04-11T05:16:39.999Z</time></trkpt><trkpt lat="43.38297591052508" lon="11.395926793568117"><ele>414.6666666666667</ele><time>2026-04-11T05:16:41.999Z</time></trkpt><trkpt lat="43.38304772830886" lon="11.395899761246055"><ele>415.33333333333337</ele><time>2026-04-11T05:16:43.999Z</time></trkpt><trkpt lat="43.383122837008216" lon="11.395877987710305"><ele>416.0</ele><time>2026-04-11T05:16:46.999Z</time></trkpt><trkpt lat="43.383240145077416" lon="11.395835003454454"><ele>416.6666666666667</ele><time>2026-04-11T05:16:48.999Z</time></trkpt><trkpt lat="43.38331605160347" lon="11.395802326728434"><ele>417.33333333333337</ele><time>2026-04-11T05:16:50.999Z</time></trkpt><trkpt lat="43.38339255772548" lon="11.395769816085881"><ele>418.0</ele><time>2026-04-11T05:16:52.999Z</time></trkpt><trkpt lat="43.38347100673512" lon="11.395736742231843"><ele>418.00000000000006</ele><time>2026-04-11T05:16:54.999Z</time></trkpt><trkpt lat="43.383551005089124" lon="11.39570893868082"><ele>418.0</ele><time>2026-04-11T05:16:56.999Z</time></trkpt><trkpt lat="43.383635184125815" lon="11.395685030319823"><ele>418.0</ele><time>2026-04-11T05:16:58.999Z</time></trkpt><trkpt lat="43.383713517967145" lon="11.395639039030687"><ele>418.0</ele><time>2026-04-11T05:17:00.999Z</time></trkpt><trkpt lat="43.383791853798954" lon="11.395606954813088"><ele>418.00000000000006</ele><time>2026-04-11T05:17:02.999Z</time></trkpt><trkpt lat="43.38387244733385" lon="11.395578753113968"><ele>418.0</ele><time>2026-04-11T05:17:04.999Z</time></trkpt><trkpt lat="43.38395759015124" lon="11.395572205201121"><ele>417.59999999999997</ele><time>2026-04-11T05:17:06.999Z</time></trkpt><trkpt lat="43.38403281769711" lon="11.395545322754803"><ele>417.2</ele><time>2026-04-11T05:17:08.999Z</time></trkpt><trkpt lat="43.38411055670884" lon="11.395505044767475"><ele>416.8</ele><time>2026-04-11T05:17:10.999Z</time></trkpt><trkpt lat="43.38419329868754" lon="11.395473547567692"><ele>416.4</ele><time>2026-04-11T05:17:12.999Z</time></trkpt><trkpt lat="43.38431733345493" lon="11.395416699177819"><ele>416.0</ele><time>2026-04-11T05:17:15.999Z</time></trkpt><trkpt lat="43.38439416028818" lon="11.395382398803525"><ele>415.99999999999994</ele><time>2026-04-11T05:17:17.999Z</time></trkpt><trkpt lat="43.38447113912268" lon="11.395347933419533"><ele>416.0</ele><time>2026-04-11T05:17:19.999Z</time></trkpt><trkpt lat="43.38454324140793" lon="11.395296170279405"><ele>416.0</ele><time>2026-04-11T05:17:21.999Z</time></trkpt><trkpt lat="43.38461059234364" lon="11.395242121780411"><ele>416.0</ele><time>2026-04-11T05:17:23.999Z</time></trkpt><trkpt lat="43.3846757783005" lon="11.395183059632657"><ele>415.99999999999994</ele><time>2026-04-11T05:17:25.999Z</time></trkpt><trkpt lat="43.38473339107207" lon="11.39511323175353"><ele>416.0</ele><time>2026-04-11T05:17:27.999Z</time></trkpt><trkpt lat="43.38479830334164" lon="11.395026174364364"><ele>417.16666666666663</ele><time>2026-04-11T05:17:30.999Z</time></trkpt><trkpt lat="43.384838121687345" lon="11.394954794355122"><ele>418.3333333333333</ele><time>2026-04-11T05:17:32.999Z</time></trkpt><trkpt lat="43.38491260298776" lon="11.394850015082266"><ele>419.5</ele><time>2026-04-11T05:17:34.999Z</time></trkpt><trkpt lat="43.38496372099174" lon="11.39477631081128"><ele>420.66666666666663</ele><time>2026-04-11T05:17:36.999Z</time></trkpt><trkpt lat="43.38500990152936" lon="11.394699048366245"><ele>421.8333333333333</ele><time>2026-04-11T05:17:38.999Z</time></trkpt><trkpt lat="43.385055776070544" lon="11.394623197454369"><ele>423.0</ele><time>2026-04-11T05:17:41Z</time></trkpt><trkpt lat="43.38510297928714" lon="11.394552334072023"><ele>423.2857142857143</ele><time>2026-04-11T05:17:43Z</time></trkpt><trkpt lat="43.38515034950206" lon="11.394479659197401"><ele>423.5714285714286</ele><time>2026-04-11T05:17:45Z</time></trkpt><trkpt lat="43.385196865644296" lon="11.394409446854127"><ele>423.8571428571429</ele><time>2026-04-11T05:17:47Z</time></trkpt><trkpt lat="43.3852466292301" lon="11.394337524622443"><ele>424.1428571428571</ele><time>2026-04-11T05:17:49Z</time></trkpt><trkpt lat="43.38529661609558" lon="11.394264510181587"><ele>424.42857142857144</ele><time>2026-04-11T05:17:51Z</time></trkpt><trkpt lat="43.385344850737674" lon="11.394191633029326"><ele>424.7142857142857</ele><time>2026-04-11T05:17:53Z</time></trkpt><trkpt lat="43.38538983050772" lon="11.39412223145024"><ele>425.0</ele><time>2026-04-11T05:17:56Z</time></trkpt><trkpt lat="43.385494843673435" lon="11.393977987973003"><ele>425.0</ele><time>2026-04-11T05:17:59Z</time></trkpt><trkpt lat="43.38554164010537" lon="11.393900906152648"><ele>425.0</ele><time>2026-04-11T05:18:01Z</time></trkpt><trkpt lat="43.38559127624604" lon="11.393838010839556"><ele>425.0</ele><time>2026-04-11T05:18:03Z</time></trkpt><trkpt lat="43.385634924865286" lon="11.39376681114987"><ele>425.0</ele><time>2026-04-11T05:18:05Z</time></trkpt><trkpt lat="43.38568343974738" lon="11.393698998667414"><ele>425.0</ele><time>2026-04-11T05:18:07Z</time></trkpt><trkpt lat="43.3857328360367" lon="11.39362975591039"><ele>425.0</ele><time>2026-04-11T05:18:08.999Z</time></trkpt><trkpt lat="43.38577975250101" lon="11.393555418532712"><ele>425.0</ele><time>2026-04-11T05:18:10.999Z</time></trkpt><trkpt lat="43.38583086844635" lon="11.393481726811753"><ele>425.49999999999994</ele><time>2026-04-11T05:18:12.999Z</time></trkpt><trkpt lat="43.38588324292094" lon="11.393413352259358"><ele>426.0</ele><time>2026-04-11T05:18:14.999Z</time></trkpt><trkpt lat="43.385929544373106" lon="11.393337079324928"><ele>426.5</ele><time>2026-04-11T05:18:16.999Z</time></trkpt><trkpt lat="43.38598077967471" lon="11.393247596390808"><ele>427.0</ele><time>2026-04-11T05:18:19.999Z</time></trkpt><trkpt lat="43.386049633984236" lon="11.393156320025108"><ele>427.49999999999994</ele><time>2026-04-11T05:18:21.999Z</time></trkpt><trkpt lat="43.38609648395667" lon="11.393080490366382"><ele>428.0</ele><time>2026-04-11T05:18:23.999Z</time></trkpt><trkpt lat="43.386146807617564" lon="11.39300998346329"><ele>427.99999999999994</ele><time>2026-04-11T05:18:25.999Z</time></trkpt><trkpt lat="43.38619908474381" lon="11.392944791048253"><ele>428.0</ele><time>2026-04-11T05:18:27.999Z</time></trkpt><trkpt lat="43.386259276001994" lon="11.392852159723667"><ele>428.0</ele><time>2026-04-11T05:18:30.999Z</time></trkpt><trkpt lat="43.38631248744541" lon="11.392768336063614"><ele>428.0</ele><time>2026-04-11T05:18:33.999Z</time></trkpt><trkpt lat="43.38637825312905" lon="11.39269700341666"><ele>427.99999999999994</ele><time>2026-04-11T05:18:36.999Z</time></trkpt><trkpt lat="43.3864526290238" lon="11.392640697340326"><ele>428.0</ele><time>2026-04-11T05:18:39.999Z</time></trkpt><trkpt lat="43.38650039703202" lon="11.392572653901327"><ele>428.49999999999994</ele><time>2026-04-11T05:18:43.999Z</time></trkpt><trkpt lat="43.38657331785409" lon="11.392493743831471"><ele>429.0</ele><time>2026-04-11T05:18:46.999Z</time></trkpt><trkpt lat="43.38664223447105" lon="11.39243591733716"><ele>429.5</ele><time>2026-04-11T05:18:49.999Z</time></trkpt><trkpt lat="43.386709858146816" lon="11.39237245224489"><ele>430.0</ele><time>2026-04-11T05:18:52.999Z</time></trkpt><trkpt lat="43.38677657421369" lon="11.392310596533775"><ele>430.49999999999994</ele><time>2026-04-11T05:18:55.999Z</time></trkpt><trkpt lat="43.38683789080376" lon="11.392252698017531"><ele>431.0</ele><time>2026-04-11T05:18:58.999Z</time></trkpt><trkpt lat="43.386896043825644" lon="11.392191802300346"><ele>430.8571428571429</ele><time>2026-04-11T05:19:01.999Z</time></trkpt><trkpt lat="43.38695086810087" lon="11.392120241212847"><ele>430.71428571428567</ele><time>2026-04-11T05:19:04.999Z</time></trkpt><trkpt lat="43.38700192181426" lon="11.392056151012193"><ele>430.57142857142856</ele><time>2026-04-11T05:19:06.999Z</time></trkpt><trkpt lat="43.387050995167876" lon="11.391986085702023"><ele>430.42857142857144</ele><time>2026-04-11T05:19:09.999Z</time></trkpt><trkpt lat="43.387105909626634" lon="11.391893127680278"><ele>430.28571428571433</ele><time>2026-04-11T05:19:12.999Z</time></trkpt><trkpt lat="43.387151348826414" lon="11.391815523971662"><ele>430.1428571428571</ele><time>2026-04-11T05:19:14.999Z</time></trkpt><trkpt lat="43.387205464528414" lon="11.391745038261048"><ele>430.0</ele><time>2026-04-11T05:19:17.999Z</time></trkpt><trkpt lat="43.387294012968276" lon="11.391650094909489"><ele>430.6666666666667</ele><time>2026-04-11T05:19:18.999Z</time></trkpt><trkpt lat="43.387341741074096" lon="11.391569027243353"><ele>431.33333333333337</ele><time>2026-04-11T05:19:20.999Z</time></trkpt><trkpt lat="43.387395054255705" lon="11.391491536404562"><ele>432.0</ele><time>2026-04-11T05:19:22.999Z</time></trkpt><trkpt lat="43.38744191297643" lon="11.39140627053256"><ele>432.66666666666663</ele><time>2026-04-11T05:19:24.999Z</time></trkpt><trkpt lat="43.38749382467751" lon="11.391320713498876"><ele>433.3333333333333</ele><time>2026-04-11T05:19:26.999Z</time></trkpt><trkpt lat="43.38754556664558" lon="11.391246320282056"><ele>434.0</ele><time>2026-04-11T05:19:28.999Z</time></trkpt><trkpt lat="43.387607537586085" lon="11.391168503937113"><ele>434.3333333333333</ele><time>2026-04-11T05:19:31.999Z</time></trkpt><trkpt lat="43.387655018400174" lon="11.391076143761865"><ele>434.66666666666663</ele><time>2026-04-11T05:19:34.999Z</time></trkpt><trkpt lat="43.38770511026704" lon="11.390983186780405"><ele>435.0</ele><time>2026-04-11T05:19:37.999Z</time></trkpt><trkpt lat="43.38775886837192" lon="11.390910864613982"><ele>435.33333333333337</ele><time>2026-04-11T05:19:40.999Z</time></trkpt><trkpt lat="43.387815033506236" lon="11.390825908699927"><ele>435.6666666666667</ele><time>2026-04-11T05:19:43.999Z</time></trkpt><trkpt lat="43.387857661953596" lon="11.390760118717333"><ele>436.0</ele><time>2026-04-11T05:19:46Z</time></trkpt><trkpt lat="43.38789664933319" lon="11.39069036109916"><ele>436.0</ele><time>2026-04-11T05:19:48Z</time></trkpt><trkpt lat="43.38795674046313" lon="11.390622954496818"><ele>436.0</ele><time>2026-04-11T05:19:50Z</time></trkpt><trkpt lat="43.3880032200537" lon="11.390529562764357"><ele>436.0</ele><time>2026-04-11T05:19:52Z</time></trkpt><trkpt lat="43.38805675145955" lon="11.390426613576121"><ele>436.0</ele><time>2026-04-11T05:19:54Z</time></trkpt><trkpt lat="43.388096921248064" lon="11.390293488782063"><ele>436.0</ele><time>2026-04-11T05:19:56Z</time></trkpt><trkpt lat="43.38811640248242" lon="11.390132139687354"><ele>434.6666666666667</ele><time>2026-04-11T05:19:58Z</time></trkpt><trkpt lat="43.3881251917154" lon="11.390039760087442"><ele>433.33333333333337</ele><time>2026-04-11T05:19:59Z</time></trkpt><trkpt lat="43.388133220755016" lon="11.38994190940347"><ele>432.0</ele><time>2026-04-11T05:20:00Z</time></trkpt><trkpt lat="43.38815161474985" lon="11.389841450946788"><ele>430.66666666666663</ele><time>2026-04-11T05:20:01Z</time></trkpt><trkpt lat="43.38817930702017" lon="11.389740218303254"><ele>429.3333333333333</ele><time>2026-04-11T05:20:02Z</time></trkpt><trkpt lat="43.38821152982552" lon="11.3896346332567"><ele>428.0</ele><time>2026-04-11T05:20:03Z</time></trkpt><trkpt lat="43.38824423540793" lon="11.389530622906506"><ele>427.8333333333333</ele><time>2026-04-11T05:20:04Z</time></trkpt><trkpt lat="43.388285530038694" lon="11.38942940150982"><ele>427.66666666666663</ele><time>2026-04-11T05:20:05Z</time></trkpt><trkpt lat="43.38832755124561" lon="11.389323332468102"><ele>427.5</ele><time>2026-04-11T05:20:06Z</time></trkpt><trkpt lat="43.38837284968033" lon="11.389220364844437"><ele>427.33333333333337</ele><time>2026-04-11T05:20:07Z</time></trkpt><trkpt lat="43.388419311644356" lon="11.389116032557222"><ele>427.1666666666667</ele><time>2026-04-11T05:20:08Z</time></trkpt><trkpt lat="43.3884630299287" lon="11.389007566458297"><ele>427.0</ele><time>2026-04-11T05:20:09Z</time></trkpt><trkpt lat="43.388509729044756" lon="11.388901795997956"><ele>427.40000000000003</ele><time>2026-04-11T05:20:10Z</time></trkpt><trkpt lat="43.38855748941449" lon="11.38879590326586"><ele>427.80000000000007</ele><time>2026-04-11T05:20:11Z</time></trkpt><trkpt lat="43.38860617339881" lon="11.38868615774337"><ele>428.2</ele><time>2026-04-11T05:20:11.999Z</time></trkpt><trkpt lat="43.38865522671992" lon="11.388578499399229"><ele>428.6</ele><time>2026-04-11T05:20:12.999Z</time></trkpt><trkpt lat="43.38870504042404" lon="11.38847004992106"><ele>429.0</ele><time>2026-04-11T05:20:13.999Z</time></trkpt><trkpt lat="43.388755027301094" lon="11.388359833886927"><ele>429.0</ele><time>2026-04-11T05:20:14.999Z</time></trkpt><trkpt lat="43.38880455758731" lon="11.388249431451385"><ele>429.0</ele><time>2026-04-11T05:20:15.999Z</time></trkpt><trkpt lat="43.38885236616074" lon="11.388139830911186"><ele>429.0</ele><time>2026-04-11T05:20:16.999Z</time></trkpt><trkpt lat="43.38890047386395" lon="11.388032112993745"><ele>429.0</ele><time>2026-04-11T05:20:17.999Z</time></trkpt><trkpt lat="43.38894706567636" lon="11.387922440420605"><ele>429.0</ele><time>2026-04-11T05:20:18.999Z</time></trkpt><trkpt lat="43.38898995168044" lon="11.387815128643034"><ele>427.8333333333333</ele><time>2026-04-11T05:20:19.999Z</time></trkpt><trkpt lat="43.38903218970348" lon="11.387704867667463"><ele>426.66666666666663</ele><time>2026-04-11T05:20:20.999Z</time></trkpt><trkpt lat="43.38907309312431" lon="11.387599295257026"><ele>425.5</ele><time>2026-04-11T05:20:21.999Z</time></trkpt><trkpt lat="43.3891115364146" lon="11.387493723582196"><ele>424.3333333333333</ele><time>2026-04-11T05:20:22.999Z</time></trkpt><trkpt lat="43.38914972561125" lon="11.387391235184838"><ele>423.16666666666663</ele><time>2026-04-11T05:20:23.999Z</time></trkpt><trkpt lat="43.38919141460379" lon="11.38729179328458"><ele>422.0</ele><time>2026-04-11T05:20:24.999Z</time></trkpt><trkpt lat="43.38924855252609" lon="11.38721406144483"><ele>422.42857142857144</ele><time>2026-04-11T05:20:25.999Z</time></trkpt><trkpt lat="43.389293604042315" lon="11.387129922271674"><ele>422.8571428571429</ele><time>2026-04-11T05:20:26.999Z</time></trkpt><trkpt lat="43.38932397420651" lon="11.387037959127257"><ele>423.2857142857143</ele><time>2026-04-11T05:20:27.999Z</time></trkpt><trkpt lat="43.389365339360225" lon="11.386959848601501"><ele>423.7142857142857</ele><time>2026-04-11T05:20:28.999Z</time></trkpt><trkpt lat="43.389415923861186" lon="11.386897995965507"><ele>424.1428571428571</ele><time>2026-04-11T05:20:29.999Z</time></trkpt><trkpt lat="43.389453948595005" lon="11.386823643039493"><ele>424.57142857142856</ele><time>2026-04-11T05:20:30.999Z</time></trkpt><trkpt lat="43.389494682341926" lon="11.38673903768944"><ele>425.0</ele><time>2026-04-11T05:20:31.999Z</time></trkpt><trkpt lat="43.38953046216279" lon="11.386665080511325"><ele>425.0</ele><time>2026-04-11T05:20:32.999Z</time></trkpt><trkpt lat="43.389568823001845" lon="11.386583440933329"><ele>425.0</ele><time>2026-04-11T05:20:33.999Z</time></trkpt><trkpt lat="43.3896092033569" lon="11.386496653605816"><ele>425.0</ele><time>2026-04-11T05:20:34.999Z</time></trkpt><trkpt lat="43.38964637038457" lon="11.386413228281597"><ele>425.0</ele><time>2026-04-11T05:20:35.999Z</time></trkpt><trkpt lat="43.38968218862437" lon="11.386328412699847"><ele>425.0</ele><time>2026-04-11T05:20:36.999Z</time></trkpt><trkpt lat="43.389716679264076" lon="11.38623900105737"><ele>425.0</ele><time>2026-04-11T05:20:37.999Z</time></trkpt><trkpt lat="43.38974625830372" lon="11.386149393124999"><ele>425.0</ele><time>2026-04-11T05:20:38.999Z</time></trkpt><trkpt lat="43.38975967125088" lon="11.386048684360002"><ele>424.49999999999994</ele><time>2026-04-11T05:20:39.999Z</time></trkpt><trkpt lat="43.38978788552457" lon="11.385961710454056"><ele>424.0</ele><time>2026-04-11T05:20:40.999Z</time></trkpt><trkpt lat="43.38981923418007" lon="11.385877246511429"><ele>423.5</ele><time>2026-04-11T05:20:41.999Z</time></trkpt><trkpt lat="43.38985077011077" lon="11.385795827040823"><ele>423.0</ele><time>2026-04-11T05:20:42.999Z</time></trkpt><trkpt lat="43.38992374940405" lon="11.385653759358707"><ele>422.49999999999994</ele><time>2026-04-11T05:20:44.999Z</time></trkpt><trkpt lat="43.390000651875724" lon="11.385637537742983"><ele>422.0</ele><time>2026-04-11T05:20:45.999Z</time></trkpt><trkpt lat="43.390058884552566" lon="11.385596228544049"><ele>422.0</ele><time>2026-04-11T05:20:46.999Z</time></trkpt><trkpt lat="43.390167068254726" lon="11.385527036494336"><ele>422.0</ele><time>2026-04-11T05:20:48.999Z</time></trkpt><trkpt lat="43.39026788453001" lon="11.385462945334726"><ele>422.0</ele><time>2026-04-11T05:20:50.999Z</time></trkpt><trkpt lat="43.390366096894944" lon="11.385400509495673"><ele>422.0</ele><time>2026-04-11T05:20:52.999Z</time></trkpt><trkpt lat="43.390461044642024" lon="11.385337741501946"><ele>422.0</ele><time>2026-04-11T05:20:54.999Z</time></trkpt><trkpt lat="43.39054719151722" lon="11.38525363825035"><ele>422.5</ele><time>2026-04-11T05:20:56.999Z</time></trkpt><trkpt lat="43.390644561009935" lon="11.38518321145172"><ele>423.0</ele><time>2026-04-11T05:20:58.999Z</time></trkpt><trkpt lat="43.39074137964988" lon="11.385097191610145"><ele>423.5</ele><time>2026-04-11T05:21:00.999Z</time></trkpt><trkpt lat="43.39084090241627" lon="11.385002258391415"><ele>424.0</ele><time>2026-04-11T05:21:02.999Z</time></trkpt><trkpt lat="43.390948196919304" lon="11.384920826352612"><ele>424.0</ele><time>2026-04-11T05:21:04.999Z</time></trkpt><trkpt lat="43.39105616998841" lon="11.384840530888358"><ele>424.0</ele><time>2026-04-11T05:21:06.999Z</time></trkpt><trkpt lat="43.39115859270445" lon="11.384743935791409"><ele>424.0</ele><time>2026-04-11T05:21:08.999Z</time></trkpt><trkpt lat="43.391259212596225" lon="11.38464827881261"><ele>424.0</ele><time>2026-04-11T05:21:10.999Z</time></trkpt><trkpt lat="43.39136526466759" lon="11.384556656959212"><ele>424.14285714285717</ele><time>2026-04-11T05:21:12.999Z</time></trkpt><trkpt lat="43.39146337367643" lon="11.384459340839719"><ele>424.2857142857143</ele><time>2026-04-11T05:21:14.999Z</time></trkpt><trkpt lat="43.39151750762" lon="11.384409875522866"><ele>424.42857142857144</ele><time>2026-04-11T05:21:15.999Z</time></trkpt><trkpt lat="43.391572491440435" lon="11.384366491954374"><ele>424.57142857142856</ele><time>2026-04-11T05:21:16.999Z</time></trkpt><trkpt lat="43.39162797849239" lon="11.384321349278789"><ele>424.71428571428567</ele><time>2026-04-11T05:21:17.999Z</time></trkpt><trkpt lat="43.39167972762983" lon="11.384268376647867"><ele>424.85714285714283</ele><time>2026-04-11T05:21:18.999Z</time></trkpt><trkpt lat="43.39172798769426" lon="11.384210699522768"><ele>425.0</ele><time>2026-04-11T05:21:19.999Z</time></trkpt><trkpt lat="43.39177515764316" lon="11.384149511066585"><ele>425.0</ele><time>2026-04-11T05:21:20.999Z</time></trkpt><trkpt lat="43.3918192673481" lon="11.384083686664692"><ele>425.0</ele><time>2026-04-11T05:21:21.999Z</time></trkpt><trkpt lat="43.391869368858515" lon="11.384008760827257"><ele>425.0</ele><time>2026-04-11T05:21:22.999Z</time></trkpt><trkpt lat="43.39189542790878" lon="11.38392865172969"><ele>425.0</ele><time>2026-04-11T05:21:23.999Z</time></trkpt><trkpt lat="43.391920455862895" lon="11.383841771355922"><ele>425.0</ele><time>2026-04-11T05:21:24.999Z</time></trkpt><trkpt lat="43.39194007613054" lon="11.383751228428352"><ele>425.0</ele><time>2026-04-11T05:21:25.999Z</time></trkpt><trkpt lat="43.39195345557988" lon="11.383657314214757"><ele>425.0</ele><time>2026-04-11T05:21:26.999Z</time></trkpt><trkpt lat="43.39196250911718" lon="11.383562152067977"><ele>425.0</ele><time>2026-04-11T05:21:27.999Z</time></trkpt><trkpt lat="43.39197145943462" lon="11.383463876178151"><ele>425.0</ele><time>2026-04-11T05:21:28.999Z</time></trkpt><trkpt lat="43.39198428939739" lon="11.383364990829495"><ele>425.0</ele><time>2026-04-11T05:21:29.999Z</time></trkpt><trkpt lat="43.39199621115881" lon="11.383268053601377"><ele>425.0</ele><time>2026-04-11T05:21:30.999Z</time></trkpt><trkpt lat="43.39200996620287" lon="11.383167887012577"><ele>425.0</ele><time>2026-04-11T05:21:31.999Z</time></trkpt><trkpt lat="43.39202921283328" lon="11.383075811374747"><ele>425.0</ele><time>2026-04-11T05:21:32.999Z</time></trkpt><trkpt lat="43.39205489352246" lon="11.382981838269588"><ele>425.0</ele><time>2026-04-11T05:21:33.999Z</time></trkpt><trkpt lat="43.39208054217057" lon="11.382893973011514"><ele>424.99999999999994</ele><time>2026-04-11T05:21:34.999Z</time></trkpt><trkpt lat="43.392120519974966" lon="11.382811658744853"><ele>425.0</ele><time>2026-04-11T05:21:35.999Z</time></trkpt><trkpt lat="43.39216327311279" lon="11.382740243015766"><ele>425.0</ele><time>2026-04-11T05:21:36.999Z</time></trkpt><trkpt lat="43.3922088036742" lon="11.38267155596878"><ele>425.0</ele><time>2026-04-11T05:21:37.999Z</time></trkpt><trkpt lat="43.39225464191368" lon="11.382608747237787"><ele>424.99999999999994</ele><time>2026-04-11T05:21:38.999Z</time></trkpt><trkpt lat="43.39235844415961" lon="11.382510132429195"><ele>425.0</ele><time>2026-04-11T05:21:40.999Z</time></trkpt><trkpt lat="43.39245784796571" lon="11.382408164193873"><ele>425.0</ele><time>2026-04-11T05:21:42.999Z</time></trkpt><trkpt lat="43.39251511232329" lon="11.38235391326107"><ele>425.0</ele><time>2026-04-11T05:21:43.999Z</time></trkpt><trkpt lat="43.392565100465184" lon="11.382285142766328"><ele>425.0</ele><time>2026-04-11T05:21:44.999Z</time></trkpt><trkpt lat="43.39262306189438" lon="11.382241073642124"><ele>425.0</ele><time>2026-04-11T05:21:45.999Z</time></trkpt><trkpt lat="43.392682579724166" lon="11.382197502218107"><ele>425.0</ele><time>2026-04-11T05:21:46.999Z</time></trkpt><trkpt lat="43.39274278297834" lon="11.382149619991262"><ele>425.0</ele><time>2026-04-11T05:21:47.999Z</time></trkpt><trkpt lat="43.39280365114311" lon="11.382101096001643"><ele>425.0</ele><time>2026-04-11T05:21:48.999Z</time></trkpt><trkpt lat="43.392864923182216" lon="11.38205047879426"><ele>425.1428571428571</ele><time>2026-04-11T05:21:49.999Z</time></trkpt><trkpt lat="43.392925788467004" lon="11.3820049709372"><ele>425.2857142857143</ele><time>2026-04-11T05:21:50.999Z</time></trkpt><trkpt lat="43.39298860479741" lon="11.38195191612746"><ele>425.42857142857144</ele><time>2026-04-11T05:21:52Z</time></trkpt><trkpt lat="43.39304892181253" lon="11.381900427316799"><ele>425.57142857142856</ele><time>2026-04-11T05:21:53Z</time></trkpt><trkpt lat="43.39311360581598" lon="11.38184808131074"><ele>425.7142857142857</ele><time>2026-04-11T05:21:54Z</time></trkpt><trkpt lat="43.3931777946849" lon="11.381795386434861"><ele>425.85714285714283</ele><time>2026-04-11T05:21:55Z</time></trkpt><trkpt lat="43.393242688185545" lon="11.381740738227997"><ele>426.0</ele><time>2026-04-11T05:21:56Z</time></trkpt><trkpt lat="43.39330980768161" lon="11.381685076789061"><ele>425.1666666666667</ele><time>2026-04-11T05:21:57Z</time></trkpt><trkpt lat="43.39337896624947" lon="11.381630489951167"><ele>424.33333333333337</ele><time>2026-04-11T05:21:58Z</time></trkpt><trkpt lat="43.393448446330055" lon="11.381576904702282"><ele>423.5</ele><time>2026-04-11T05:21:59Z</time></trkpt><trkpt lat="43.393519486324294" lon="11.381523725231942"><ele>422.6666666666667</ele><time>2026-04-11T05:22:00Z</time></trkpt><trkpt lat="43.39359869573284" lon="11.381491919049399"><ele>421.83333333333337</ele><time>2026-04-11T05:22:01Z</time></trkpt><trkpt lat="43.39366467175982" lon="11.381420144429443"><ele>421.0</ele><time>2026-04-11T05:22:02Z</time></trkpt><trkpt lat="43.39373780327514" lon="11.38137247123798"><ele>421.1666666666667</ele><time>2026-04-11T05:22:03Z</time></trkpt><trkpt lat="43.39381295542774" lon="11.381324307286114"><ele>421.33333333333337</ele><time>2026-04-11T05:22:04Z</time></trkpt><trkpt lat="43.393890722226296" lon="11.381279906011097"><ele>421.5</ele><time>2026-04-11T05:22:05Z</time></trkpt><trkpt lat="43.393975522098316" lon="11.3812617096541"><ele>421.66666666666663</ele><time>2026-04-11T05:22:06Z</time></trkpt><trkpt lat="43.39405441366611" lon="11.381224174211608"><ele>421.8333333333333</ele><time>2026-04-11T05:22:07Z</time></trkpt><trkpt lat="43.394131361469434" lon="11.381166722826757"><ele>422.0</ele><time>2026-04-11T05:22:08Z</time></trkpt><trkpt lat="43.39421432336622" lon="11.381133553677856"><ele>420.99999999999994</ele><time>2026-04-11T05:22:09Z</time></trkpt><trkpt lat="43.39429829838444" lon="11.381103833939086"><ele>420.0</ele><time>2026-04-11T05:22:10Z</time></trkpt><trkpt lat="43.394386042409266" lon="11.381097085100775"><ele>419.0</ele><time>2026-04-11T05:22:11Z</time></trkpt><trkpt lat="43.39446823905716" lon="11.381052317292468"><ele>418.0</ele><time>2026-04-11T05:22:12Z</time></trkpt><trkpt lat="43.39455331840943" lon="11.381038769642231"><ele>416.99999999999994</ele><time>2026-04-11T05:22:13Z</time></trkpt><trkpt lat="43.394635756770406" lon="11.38101964016114"><ele>416.0</ele><time>2026-04-11T05:22:14Z</time></trkpt><trkpt lat="43.39471825891549" lon="11.381008817073877"><ele>415.99999999999994</ele><time>2026-04-11T05:22:15Z</time></trkpt><trkpt lat="43.39480140947402" lon="11.381001786580054"><ele>416.0</ele><time>2026-04-11T05:22:16Z</time></trkpt><trkpt lat="43.394882339780665" lon="11.380990166945127"><ele>416.0</ele><time>2026-04-11T05:22:16.999Z</time></trkpt><trkpt lat="43.3949624844332" lon="11.380977697963095"><ele>416.0</ele><time>2026-04-11T05:22:17.999Z</time></trkpt><trkpt lat="43.39504027199142" lon="11.380976915846063"><ele>415.99999999999994</ele><time>2026-04-11T05:22:18.999Z</time></trkpt><trkpt lat="43.39511946342137" lon="11.380983739991324"><ele>416.0</ele><time>2026-04-11T05:22:19.999Z</time></trkpt><trkpt lat="43.3951956341728" lon="11.38099133518633"><ele>415.99999999999994</ele><time>2026-04-11T05:22:20.999Z</time></trkpt><trkpt lat="43.39527226245174" lon="11.380997951684424"><ele>416.0</ele><time>2026-04-11T05:22:21.999Z</time></trkpt><trkpt lat="43.395349405638896" lon="11.381006667410695"><ele>416.0</ele><time>2026-04-11T05:22:22.999Z</time></trkpt><trkpt lat="43.395431381094774" lon="11.38101794381477"><ele>416.0</ele><time>2026-04-11T05:22:23.999Z</time></trkpt><trkpt lat="43.3955162195221" lon="11.381026311859692"><ele>415.99999999999994</ele><time>2026-04-11T05:22:24.999Z</time></trkpt><trkpt lat="43.39559948313225" lon="11.381031410078823"><ele>416.0</ele><time>2026-04-11T05:22:25.999Z</time></trkpt><trkpt lat="43.39568467796222" lon="11.381042309941538"><ele>415.3333333333333</ele><time>2026-04-11T05:22:26.999Z</time></trkpt><trkpt lat="43.395769592683166" lon="11.381055632557308"><ele>414.66666666666663</ele><time>2026-04-11T05:22:27.999Z</time></trkpt><trkpt lat="43.395853366948025" lon="11.381062793129297"><ele>414.0</ele><time>2026-04-11T05:22:28.999Z</time></trkpt><trkpt lat="43.39593558440666" lon="11.381061894313461"><ele>413.33333333333337</ele><time>2026-04-11T05:22:29.999Z</time></trkpt><trkpt lat="43.39601711698834" lon="11.381049946568634"><ele>412.6666666666667</ele><time>2026-04-11T05:22:30.999Z</time></trkpt><trkpt lat="43.39609628536314" lon="11.381023506457662"><ele>412.0</ele><time>2026-04-11T05:22:31.999Z</time></trkpt><trkpt lat="43.396169969295265" lon="11.380987000247064"><ele>412.00000000000006</ele><time>2026-04-11T05:22:32.999Z</time></trkpt><trkpt lat="43.39624096720514" lon="11.380938735005834"><ele>412.0</ele><time>2026-04-11T05:22:33.999Z</time></trkpt><trkpt lat="43.39630768633355" lon="11.380883258511513"><ele>412.0</ele><time>2026-04-11T05:22:34.999Z</time></trkpt><trkpt lat="43.39636772274714" lon="11.380816385170625"><ele>412.0</ele><time>2026-04-11T05:22:35.999Z</time></trkpt><trkpt lat="43.396424978039875" lon="11.380745687359248"><ele>412.00000000000006</ele><time>2026-04-11T05:22:36.999Z</time></trkpt><trkpt lat="43.396475654670965" lon="11.380664052785331"><ele>412.0</ele><time>2026-04-11T05:22:37.999Z</time></trkpt><trkpt lat="43.39652007348456" lon="11.380576180174442"><ele>411.57142857142856</ele><time>2026-04-11T05:22:38.999Z</time></trkpt><trkpt lat="43.396558102172285" lon="11.380483379903055"><ele>411.1428571428571</ele><time>2026-04-11T05:22:39.999Z</time></trkpt><trkpt lat="43.39658919474963" lon="11.38038594735472"><ele>410.71428571428567</ele><time>2026-04-11T05:22:40.999Z</time></trkpt><trkpt lat="43.3966149276894" lon="11.380289627829356"><ele>410.2857142857143</ele><time>2026-04-11T05:22:41.999Z</time></trkpt><trkpt lat="43.396634131456224" lon="11.380191010864484"><ele>409.8571428571429</ele><time>2026-04-11T05:22:42.999Z</time></trkpt><trkpt lat="43.39664893717651" lon="11.38009293713542"><ele>409.4285714285714</ele><time>2026-04-11T05:22:43.999Z</time></trkpt><trkpt lat="43.39666489363508" lon="11.3799978426269"><ele>409.0</ele><time>2026-04-11T05:22:44.999Z</time></trkpt><trkpt lat="43.39668134929183" lon="11.379905357200649"><ele>409.00000000000006</ele><time>2026-04-11T05:22:45.999Z</time></trkpt><trkpt lat="43.39670096274307" lon="11.379815109587385"><ele>409.0</ele><time>2026-04-11T05:22:46.999Z</time></trkpt><trkpt lat="43.396719461977156" lon="11.379725362105354"><ele>409.0</ele><time>2026-04-11T05:22:47.999Z</time></trkpt><trkpt lat="43.396734647754656" lon="11.379639909170953"><ele>409.0</ele><time>2026-04-11T05:22:48.999Z</time></trkpt><trkpt lat="43.396750236561374" lon="11.379555734517943"><ele>409.00000000000006</ele><time>2026-04-11T05:22:49.999Z</time></trkpt><trkpt lat="43.396782218175694" lon="11.379398028412764"><ele>409.0</ele><time>2026-04-11T05:22:51.999Z</time></trkpt><trkpt lat="43.39680412623022" lon="11.379248681481789"><ele>410.0</ele><time>2026-04-11T05:22:53.999Z</time></trkpt><trkpt lat="43.39683103743244" lon="11.379106404332628"><ele>411.0</ele><time>2026-04-11T05:22:55.999Z</time></trkpt><trkpt lat="43.396860119879285" lon="11.378976552759546"><ele>412.0</ele><time>2026-04-11T05:22:57.999Z</time></trkpt><trkpt lat="43.396887852617944" lon="11.378848204614055"><ele>413.0</ele><time>2026-04-11T05:22:59.999Z</time></trkpt><trkpt lat="43.39692147258616" lon="11.37873031767142"><ele>414.0</ele><time>2026-04-11T05:23:01.999Z</time></trkpt><trkpt lat="43.39696421876141" lon="11.378621827131804"><ele>414.0</ele><time>2026-04-11T05:23:03.999Z</time></trkpt><trkpt lat="43.397014502536194" lon="11.378526667216926"><ele>414.0</ele><time>2026-04-11T05:23:05.999Z</time></trkpt><trkpt lat="43.39706712356335" lon="11.378436295964601"><ele>414.0</ele><time>2026-04-11T05:23:07.999Z</time></trkpt><trkpt lat="43.39711475215642" lon="11.37834067641483"><ele>414.0</ele><time>2026-04-11T05:23:09.999Z</time></trkpt><trkpt lat="43.39719117087029" lon="11.378183765711244"><ele>414.0</ele><time>2026-04-11T05:23:13.999Z</time></trkpt><trkpt lat="43.39724924989326" lon="11.37809923783498"><ele>414.8333333333333</ele><time>2026-04-11T05:23:14.999Z</time></trkpt><trkpt lat="43.397300499079456" lon="11.378005152488926"><ele>415.66666666666663</ele><time>2026-04-11T05:23:16.999Z</time></trkpt><trkpt lat="43.39735394352143" lon="11.377912336557799"><ele>416.5</ele><time>2026-04-11T05:23:18.999Z</time></trkpt><trkpt lat="43.397406401745634" lon="11.377814185525263"><ele>417.3333333333333</ele><time>2026-04-11T05:23:20.999Z</time></trkpt><trkpt lat="43.397454742073265" lon="11.377725102010107"><ele>418.16666666666663</ele><time>2026-04-11T05:23:22.999Z</time></trkpt><trkpt lat="43.39751542816741" lon="11.3776330026258"><ele>419.0</ele><time>2026-04-11T05:23:24.999Z</time></trkpt><trkpt lat="43.39757738998362" lon="11.377536603530892"><ele>419.0</ele><time>2026-04-11T05:23:26.999Z</time></trkpt><trkpt lat="43.397634909893334" lon="11.377435819799839"><ele>419.0</ele><time>2026-04-11T05:23:28.999Z</time></trkpt><trkpt lat="43.39769229063743" lon="11.377345661009489"><ele>419.0</ele><time>2026-04-11T05:23:30.999Z</time></trkpt><trkpt lat="43.39775289892552" lon="11.377258122440262"><ele>419.0</ele><time>2026-04-11T05:23:32.999Z</time></trkpt><trkpt lat="43.39780325440016" lon="11.377181935778001"><ele>419.0</ele><time>2026-04-11T05:23:34.999Z</time></trkpt><trkpt lat="43.39787646291179" lon="11.377068999132828"><ele>418.6</ele><time>2026-04-11T05:23:36.999Z</time></trkpt><trkpt lat="43.397943127013924" lon="11.37697889016417"><ele>418.2</ele><time>2026-04-11T05:23:38.999Z</time></trkpt><trkpt lat="43.39800988248049" lon="11.37689400747548"><ele>417.8</ele><time>2026-04-11T05:23:40.999Z</time></trkpt><trkpt lat="43.398076800151564" lon="11.376816670060894"><ele>417.40000000000003</ele><time>2026-04-11T05:23:42.999Z</time></trkpt><trkpt lat="43.3981446914788" lon="11.376737263855379"><ele>417.0</ele><time>2026-04-11T05:23:44.999Z</time></trkpt><trkpt lat="43.39821160025123" lon="11.376652373775851"><ele>417.6666666666667</ele><time>2026-04-11T05:23:46.999Z</time></trkpt><trkpt lat="43.39827762294115" lon="11.376580455585568"><ele>418.33333333333337</ele><time>2026-04-11T05:23:48.999Z</time></trkpt><trkpt lat="43.39834437721855" lon="11.376506593386285"><ele>419.0</ele><time>2026-04-11T05:23:50.999Z</time></trkpt><trkpt lat="43.39840836378621" lon="11.376434364497104"><ele>419.6666666666667</ele><time>2026-04-11T05:23:52.999Z</time></trkpt><trkpt lat="43.3984829288617" lon="11.37636775042512"><ele>420.33333333333337</ele><time>2026-04-11T05:23:54.999Z</time></trkpt><trkpt lat="43.398566780233736" lon="11.376301675666337"><ele>421.0</ele><time>2026-04-11T05:23:56.999Z</time></trkpt><trkpt lat="43.39864379757177" lon="11.37624105910213"><ele>421.33333333333337</ele><time>2026-04-11T05:23:59Z</time></trkpt><trkpt lat="43.39873070276115" lon="11.376189492369408"><ele>421.6666666666667</ele><time>2026-04-11T05:24:02Z</time></trkpt><trkpt lat="43.398794877410886" lon="11.376150442281602"><ele>422.0</ele><time>2026-04-11T05:24:04Z</time></trkpt><trkpt lat="43.3988692947528" lon="11.376109320668807"><ele>422.33333333333337</ele><time>2026-04-11T05:24:06Z</time></trkpt><trkpt lat="43.39894015707299" lon="11.376070988418906"><ele>422.6666666666667</ele><time>2026-04-11T05:24:09Z</time></trkpt><trkpt lat="43.39902282908851" lon="11.376048536916526"><ele>423.0</ele><time>2026-04-11T05:24:12Z</time></trkpt><trkpt lat="43.399106923278545" lon="11.376018794845093"><ele>423.8333333333333</ele><time>2026-04-11T05:24:15Z</time></trkpt><trkpt lat="43.399193568017736" lon="11.376002092765642"><ele>424.66666666666663</ele><time>2026-04-11T05:24:17.999Z</time></trkpt><trkpt lat="43.39927059886531" lon="11.375967043771816"><ele>425.5</ele><time>2026-04-11T05:24:20.999Z</time></trkpt><trkpt lat="43.39934700557306" lon="11.375951678847096"><ele>426.3333333333333</ele><time>2026-04-11T05:24:23.999Z</time></trkpt><trkpt lat="43.399418328198216" lon="11.37591265612317"><ele>427.16666666666663</ele><time>2026-04-11T05:24:26.999Z</time></trkpt><trkpt lat="43.39948034795071" lon="11.375860717668534"><ele>428.0</ele><time>2026-04-11T05:24:29.999Z</time></trkpt><trkpt lat="43.399542285192176" lon="11.375798366760483"><ele>427.99999999999994</ele><time>2026-04-11T05:24:32.999Z</time></trkpt><trkpt lat="43.399604846487456" lon="11.375702049881815"><ele>428.0</ele><time>2026-04-11T05:24:35.999Z</time></trkpt><trkpt lat="43.399661586736194" lon="11.375622524250616"><ele>428.0</ele><time>2026-04-11T05:24:38.999Z</time></trkpt><trkpt lat="43.399706357545966" lon="11.375533384036489"><ele>428.0</ele><time>2026-04-11T05:24:41.999Z</time></trkpt><trkpt lat="43.399759343325194" lon="11.375451207941378"><ele>427.99999999999994</ele><time>2026-04-11T05:24:44.999Z</time></trkpt><trkpt lat="43.39980615194993" lon="11.375370916071919"><ele>428.0</ele><time>2026-04-11T05:24:48Z</time></trkpt><trkpt lat="43.39985942804194" lon="11.375299583721626"><ele>429.3333333333333</ele><time>2026-04-11T05:24:51Z</time></trkpt><trkpt lat="43.399906757829015" lon="11.375216633739635"><ele>430.66666666666663</ele><time>2026-04-11T05:24:54Z</time></trkpt><trkpt lat="43.39995518544589" lon="11.375125090976127"><ele>432.0</ele><time>2026-04-11T05:24:57Z</time></trkpt><trkpt lat="43.40000034219668" lon="11.375043882481489"><ele>433.33333333333337</ele><time>2026-04-11T05:25:00Z</time></trkpt><trkpt lat="43.40004923046006" lon="11.37495394327685"><ele>434.6666666666667</ele><time>2026-04-11T05:25:03Z</time></trkpt><trkpt lat="43.40010149805118" lon="11.374875370456202"><ele>436.0</ele><time>2026-04-11T05:25:06Z</time></trkpt><trkpt lat="43.40015513785262" lon="11.37480275078673"><ele>436.0</ele><time>2026-04-11T05:25:09Z</time></trkpt><trkpt lat="43.400199724574755" lon="11.374718701207028"><ele>436.0</ele><time>2026-04-11T05:25:12Z</time></trkpt><trkpt lat="43.40025024228596" lon="11.37463775939922"><ele>436.0</ele><time>2026-04-11T05:25:15Z</time></trkpt><trkpt lat="43.400297959222925" lon="11.37455834363359"><ele>436.0</ele><time>2026-04-11T05:25:18Z</time></trkpt><trkpt lat="43.40034731075534" lon="11.374485703885702"><ele>436.0</ele><time>2026-04-11T05:25:21Z</time></trkpt><trkpt lat="43.400386946053395" lon="11.374412628157152"><ele>436.0</ele><time>2026-04-11T05:25:24Z</time></trkpt><trkpt lat="43.4004245234467" lon="11.374331966263323"><ele>436.0</ele><time>2026-04-11T05:25:27Z</time></trkpt><trkpt lat="43.40047062284061" lon="11.374242711313274"><ele>436.00000000000006</ele><time>2026-04-11T05:25:30Z</time></trkpt><trkpt lat="43.400499177491355" lon="11.374165087615498"><ele>436.0</ele><time>2026-04-11T05:25:33Z</time></trkpt><trkpt lat="43.40052763773779" lon="11.37407716205703"><ele>436.0</ele><time>2026-04-11T05:25:36Z</time></trkpt><trkpt lat="43.4005526777697" lon="11.37398774588121"><ele>436.0</ele><time>2026-04-11T05:25:39Z</time></trkpt><trkpt lat="43.40058100049881" lon="11.373891067840125"><ele>436.00000000000006</ele><time>2026-04-11T05:25:42Z</time></trkpt><trkpt lat="43.40061552832941" lon="11.373781820220406"><ele>436.0</ele><time>2026-04-11T05:25:45Z</time></trkpt><trkpt lat="43.400663949305255" lon="11.373580361255245"><ele>436.0</ele><time>2026-04-11T05:25:47Z</time></trkpt><trkpt lat="43.400689796959924" lon="11.373462469798362"><ele>436.0</ele><time>2026-04-11T05:25:49Z</time></trkpt><trkpt lat="43.4007385735077" lon="11.373342279116958"><ele>436.0</ele><time>2026-04-11T05:25:51Z</time></trkpt><trkpt lat="43.40079850765102" lon="11.37322266085293"><ele>436.0</ele><time>2026-04-11T05:25:53Z</time></trkpt><trkpt lat="43.40087361292204" lon="11.373102416577341"><ele>436.0</ele><time>2026-04-11T05:25:54.999Z</time></trkpt><trkpt lat="43.4009587441083" lon="11.37300199213094"><ele>436.00000000000006</ele><time>2026-04-11T05:25:56.999Z</time></trkpt><trkpt lat="43.401045391534424" lon="11.372894992766353"><ele>436.0</ele><time>2026-04-11T05:25:58.999Z</time></trkpt><trkpt lat="43.40114006966459" lon="11.372783803225795"><ele>436.0</ele><time>2026-04-11T05:26:00.999Z</time></trkpt><trkpt lat="43.401188174958016" lon="11.372723493067564"><ele>436.0</ele><time>2026-04-11T05:26:01.999Z</time></trkpt><trkpt lat="43.40122811949839" lon="11.37264963097979"><ele>436.00000000000006</ele><time>2026-04-11T05:26:02.999Z</time></trkpt><trkpt lat="43.40126268001409" lon="11.37257141587638"><ele>436.0</ele><time>2026-04-11T05:26:04.001Z</time></trkpt><trkpt lat="43.40128865997206" lon="11.372489247247087"><ele>436.00000000000006</ele><time>2026-04-11T05:26:05.001Z</time></trkpt><trkpt lat="43.401304781616595" lon="11.372400647362522"><ele>436.0</ele><time>2026-04-11T05:26:06Z</time></trkpt><trkpt lat="43.40131849390692" lon="11.372222874745926"><ele>436.0</ele><time>2026-04-11T05:26:08.001Z</time></trkpt><trkpt lat="43.401307970237326" lon="11.372120744234167"><ele>436.0</ele><time>2026-04-11T05:26:09Z</time></trkpt><trkpt lat="43.401305333969745" lon="11.372023355665144"><ele>436.00000000000006</ele><time>2026-04-11T05:26:10.001Z</time></trkpt><trkpt lat="43.40130283254304" lon="11.371926574308924"><ele>436.0</ele><time>2026-04-11T05:26:11.001Z</time></trkpt><trkpt lat="43.40130274406371" lon="11.37182686201665"><ele>435.7142857142857</ele><time>2026-04-11T05:26:12.001Z</time></trkpt><trkpt lat="43.40130108564646" lon="11.37172876851096"><ele>435.42857142857144</ele><time>2026-04-11T05:26:13.001Z</time></trkpt><trkpt lat="43.40129599244652" lon="11.371628768821958"><ele>435.1428571428571</ele><time>2026-04-11T05:26:14.001Z</time></trkpt><trkpt lat="43.401284331960866" lon="11.371525079207048"><ele>434.8571428571429</ele><time>2026-04-11T05:26:15.001Z</time></trkpt><trkpt lat="43.401283873846765" lon="11.37142361933017"><ele>434.57142857142856</ele><time>2026-04-11T05:26:16.001Z</time></trkpt><trkpt lat="43.401282986373076" lon="11.371319840006901"><ele>434.2857142857143</ele><time>2026-04-11T05:26:17.001Z</time></trkpt><trkpt lat="43.401277686309186" lon="11.371217966700836"><ele>434.0</ele><time>2026-04-11T05:26:18.001Z</time></trkpt><trkpt lat="43.4012829391183" lon="11.37111551651716"><ele>433.42857142857144</ele><time>2026-04-11T05:26:19Z</time></trkpt><trkpt lat="43.401290424649325" lon="11.371011046721932"><ele>432.8571428571429</ele><time>2026-04-11T05:26:20Z</time></trkpt><trkpt lat="43.40130064457148" lon="11.370912839690149"><ele>432.2857142857143</ele><time>2026-04-11T05:26:21Z</time></trkpt><trkpt lat="43.40131439699085" lon="11.370809306339922"><ele>431.7142857142857</ele><time>2026-04-11T05:26:22Z</time></trkpt><trkpt lat="43.40133065128854" lon="11.370708311896466"><ele>431.14285714285717</ele><time>2026-04-11T05:26:23Z</time></trkpt><trkpt lat="43.401348553498806" lon="11.370609898445158"><ele>430.57142857142856</ele><time>2026-04-11T05:26:24Z</time></trkpt><trkpt lat="43.40138883814262" lon="11.370523448836495"><ele>430.0</ele><time>2026-04-11T05:26:25Z</time></trkpt><trkpt lat="43.40140462766515" lon="11.370426533468281"><ele>429.8</ele><time>2026-04-11T05:26:26Z</time></trkpt><trkpt lat="43.40143104642636" lon="11.37034167327791"><ele>429.6</ele><time>2026-04-11T05:26:27Z</time></trkpt><trkpt lat="43.40145939443831" lon="11.370262506144623"><ele>429.4</ele><time>2026-04-11T05:26:28Z</time></trkpt><trkpt lat="43.401507461081565" lon="11.370099401904044"><ele>429.2</ele><time>2026-04-11T05:26:30Z</time></trkpt><trkpt lat="43.401558746651844" lon="11.36994554944189"><ele>429.0</ele><time>2026-04-11T05:26:32Z</time></trkpt><trkpt lat="43.40159910541651" lon="11.369784994295463"><ele>429.25</ele><time>2026-04-11T05:26:34Z</time></trkpt><trkpt lat="43.401635699436966" lon="11.369627409053553"><ele>429.5</ele><time>2026-04-11T05:26:36Z</time></trkpt><trkpt lat="43.40166306798736" lon="11.36947078086774"><ele>429.75</ele><time>2026-04-11T05:26:38Z</time></trkpt><trkpt lat="43.40168532706065" lon="11.369322273281886"><ele>430.0</ele><time>2026-04-11T05:26:40Z</time></trkpt><trkpt lat="43.401709572723654" lon="11.369175652168401"><ele>430.0</ele><time>2026-04-11T05:26:42Z</time></trkpt><trkpt lat="43.4017280895712" lon="11.369022707727307"><ele>430.0</ele><time>2026-04-11T05:26:44Z</time></trkpt><trkpt lat="43.40172922430819" lon="11.368869276088168"><ele>430.0</ele><time>2026-04-11T05:26:46Z</time></trkpt><trkpt lat="43.40172456380439" lon="11.368713547481372"><ele>430.0</ele><time>2026-04-11T05:26:48Z</time></trkpt><trkpt lat="43.401713809698705" lon="11.368561084308437"><ele>430.0</ele><time>2026-04-11T05:26:50Z</time></trkpt><trkpt lat="43.4017012725327" lon="11.36841388061583"><ele>430.4</ele><time>2026-04-11T05:26:52Z</time></trkpt><trkpt lat="43.40168787358928" lon="11.36826828699815"><ele>430.8</ele><time>2026-04-11T05:26:54Z</time></trkpt><trkpt lat="43.40166720365848" lon="11.368136359403266"><ele>431.20000000000005</ele><time>2026-04-11T05:26:56Z</time></trkpt><trkpt lat="43.40166967555495" lon="11.367999829537423"><ele>431.6</ele><time>2026-04-11T05:26:58Z</time></trkpt><trkpt lat="43.40165723043904" lon="11.367875856847174"><ele>432.0</ele><time>2026-04-11T05:27:00Z</time></trkpt><trkpt lat="43.401647461358536" lon="11.36775336738328"><ele>432.3333333333333</ele><time>2026-04-11T05:27:02Z</time></trkpt><trkpt lat="43.401639055935306" lon="11.367638385457397"><ele>432.66666666666663</ele><time>2026-04-11T05:27:04Z</time></trkpt><trkpt lat="43.40163630200279" lon="11.367530588106346"><ele>433.0</ele><time>2026-04-11T05:27:06Z</time></trkpt><trkpt lat="43.4016273383336" lon="11.3674205808716"><ele>433.3333333333333</ele><time>2026-04-11T05:27:08Z</time></trkpt><trkpt lat="43.40161446374446" lon="11.367315165347735"><ele>433.66666666666663</ele><time>2026-04-11T05:27:10Z</time></trkpt><trkpt lat="43.40159961187887" lon="11.367219117950537"><ele>434.0</ele><time>2026-04-11T05:27:12Z</time></trkpt><trkpt lat="43.40158070987233" lon="11.36711574540375"><ele>434.14285714285717</ele><time>2026-04-11T05:27:14Z</time></trkpt><trkpt lat="43.40155306000154" lon="11.367021861752509"><ele>434.2857142857143</ele><time>2026-04-11T05:27:16Z</time></trkpt><trkpt lat="43.401513997798524" lon="11.366951604211074"><ele>434.42857142857144</ele><time>2026-04-11T05:27:18Z</time></trkpt><trkpt lat="43.40147764671651" lon="11.366859613065436"><ele>434.57142857142856</ele><time>2026-04-11T05:27:20Z</time></trkpt><trkpt lat="43.40144023048415" lon="11.36677179370943"><ele>434.7142857142857</ele><time>2026-04-11T05:27:23Z</time></trkpt><trkpt lat="43.40139302911575" lon="11.36668076312926"><ele>434.8571428571429</ele><time>2026-04-11T05:27:26Z</time></trkpt><trkpt lat="43.40135659028978" lon="11.366602873580865"><ele>435.0</ele><time>2026-04-11T05:27:29Z</time></trkpt><trkpt lat="43.401322850367265" lon="11.36651390964746"><ele>435.5</ele><time>2026-04-11T05:27:32Z</time></trkpt><trkpt lat="43.40129213658174" lon="11.366413701040152"><ele>436.0</ele><time>2026-04-11T05:27:35Z</time></trkpt><trkpt lat="43.40127525524729" lon="11.366307639584559"><ele>436.5</ele><time>2026-04-11T05:27:38Z</time></trkpt><trkpt lat="43.401251845296294" lon="11.366181504464038"><ele>437.0</ele><time>2026-04-11T05:27:41Z</time></trkpt><trkpt lat="43.40124035294518" lon="11.36608203548876"><ele>437.5</ele><time>2026-04-11T05:27:44Z</time></trkpt><trkpt lat="43.40123169684506" lon="11.365986695660585"><ele>438.0</ele><time>2026-04-11T05:27:47Z</time></trkpt><trkpt lat="43.40121757155441" lon="11.365884140120365"><ele>438.3333333333333</ele><time>2026-04-11T05:27:50Z</time></trkpt><trkpt lat="43.40119588120873" lon="11.365786107837708"><ele>438.66666666666663</ele><time>2026-04-11T05:27:53Z</time></trkpt><trkpt lat="43.40118066155551" lon="11.365692127793421"><ele>439.0</ele><time>2026-04-11T05:27:56Z</time></trkpt><trkpt lat="43.401161695807666" lon="11.365586075964737"><ele>439.3333333333333</ele><time>2026-04-11T05:27:59Z</time></trkpt><trkpt lat="43.40114494515289" lon="11.365476842219495"><ele>439.66666666666663</ele><time>2026-04-11T05:28:02Z</time></trkpt><trkpt lat="43.401124439973586" lon="11.365369783367811"><ele>440.0</ele><time>2026-04-11T05:28:04.999Z</time></trkpt><trkpt lat="43.401104120813685" lon="11.36525713821456"><ele>440.0</ele><time>2026-04-11T05:28:07.999Z</time></trkpt><trkpt lat="43.40107046322058" lon="11.36516947895505"><ele>440.0</ele><time>2026-04-11T05:28:10.001Z</time></trkpt><trkpt lat="43.40104053602192" lon="11.365068284771606"><ele>440.0</ele><time>2026-04-11T05:28:13.001Z</time></trkpt><trkpt lat="43.40107181601724" lon="11.364854508512854"><ele>440.0</ele><time>2026-04-11T05:28:15.001Z</time></trkpt><trkpt lat="43.40104571578742" lon="11.364731494265198"><ele>440.0</ele><time>2026-04-11T05:28:17.001Z</time></trkpt><trkpt lat="43.40101846558073" lon="11.364646549040897"><ele>440.4</ele><time>2026-04-11T05:28:19.001Z</time></trkpt><trkpt lat="43.400962308692094" lon="11.364477020378384"><ele>440.8</ele><time>2026-04-11T05:28:21.001Z</time></trkpt><trkpt lat="43.40091250504171" lon="11.364375896212898"><ele>441.20000000000005</ele><time>2026-04-11T05:28:23.001Z</time></trkpt><trkpt lat="43.40086699018482" lon="11.36427508779097"><ele>441.6</ele><time>2026-04-11T05:28:25Z</time></trkpt><trkpt lat="43.40082678817041" lon="11.36416671890653"><ele>442.0</ele><time>2026-04-11T05:28:27Z</time></trkpt><trkpt lat="43.40079615578681" lon="11.36405152499675"><ele>442.0</ele><time>2026-04-11T05:28:29Z</time></trkpt><trkpt lat="43.40077702447515" lon="11.36392570445772"><ele>442.00000000000006</ele><time>2026-04-11T05:28:31Z</time></trkpt><trkpt lat="43.40076590189369" lon="11.363796076547318"><ele>442.00000000000006</ele><time>2026-04-11T05:28:33Z</time></trkpt><trkpt lat="43.40077417552771" lon="11.363666303825017"><ele>442.0</ele><time>2026-04-11T05:28:35Z</time></trkpt><trkpt lat="43.40079378740601" lon="11.363537305293233"><ele>442.0</ele><time>2026-04-11T05:28:37Z</time></trkpt><trkpt lat="43.40084339374988" lon="11.363421854649072"><ele>441.6666666666667</ele><time>2026-04-11T05:28:39Z</time></trkpt><trkpt lat="43.40090013102923" lon="11.363336381824668"><ele>441.33333333333337</ele><time>2026-04-11T05:28:41Z</time></trkpt><trkpt lat="43.40097308238461" lon="11.363266705090934"><ele>441.0</ele><time>2026-04-11T05:28:43Z</time></trkpt><trkpt lat="43.40105677497078" lon="11.363219781523407"><ele>440.66666666666663</ele><time>2026-04-11T05:28:45Z</time></trkpt><trkpt lat="43.401129642311666" lon="11.363182756483063"><ele>440.3333333333333</ele><time>2026-04-11T05:28:47Z</time></trkpt><trkpt lat="43.4012009231087" lon="11.363147056873856"><ele>440.0</ele><time>2026-04-11T05:28:49Z</time></trkpt><trkpt lat="43.401275237868454" lon="11.363093345458758"><ele>441.49999999999994</ele><time>2026-04-11T05:28:51Z</time></trkpt><trkpt lat="43.401341386743205" lon="11.363013251107676"><ele>443.0</ele><time>2026-04-11T05:28:53Z</time></trkpt><trkpt lat="43.401383792084914" lon="11.362913405454387"><ele>444.5</ele><time>2026-04-11T05:28:55Z</time></trkpt><trkpt lat="43.401407679790196" lon="11.362800299159662"><ele>446.0</ele><time>2026-04-11T05:28:57Z</time></trkpt><trkpt lat="43.40141822221619" lon="11.362687570973836"><ele>447.49999999999994</ele><time>2026-04-11T05:28:59Z</time></trkpt><trkpt lat="43.401415742628664" lon="11.362568188067865"><ele>449.0</ele><time>2026-04-11T05:29:01Z</time></trkpt><trkpt lat="43.401399418064784" lon="11.362448403559037"><ele>448.99999999999994</ele><time>2026-04-11T05:29:03Z</time></trkpt><trkpt lat="43.40136968006385" lon="11.362331819431576"><ele>449.0</ele><time>2026-04-11T05:29:05Z</time></trkpt><trkpt lat="43.40134576663845" lon="11.362250372595884"><ele>449.0</ele><time>2026-04-11T05:29:07Z</time></trkpt><trkpt lat="43.40133601383971" lon="11.362141762472493"><ele>449.0</ele><time>2026-04-11T05:29:10Z</time></trkpt><trkpt lat="43.401328698625555" lon="11.361985955661034"><ele>448.99999999999994</ele><time>2026-04-11T05:29:11Z</time></trkpt><trkpt lat="43.40137791410618" lon="11.361877749327533"><ele>449.0</ele><time>2026-04-11T05:29:13Z</time></trkpt><trkpt lat="43.40144601717152" lon="11.361792054092133"><ele>448.0</ele><time>2026-04-11T05:29:15Z</time></trkpt><trkpt lat="43.40151799595882" lon="11.361721692899286"><ele>447.0</ele><time>2026-04-11T05:29:17Z</time></trkpt><trkpt lat="43.40159126361128" lon="11.361653612576623"><ele>446.0</ele><time>2026-04-11T05:29:19Z</time></trkpt><trkpt lat="43.4016706070078" lon="11.361582768944285"><ele>445.0</ele><time>2026-04-11T05:29:21Z</time></trkpt><trkpt lat="43.40175074436957" lon="11.361506759221879"><ele>444.0</ele><time>2026-04-11T05:29:23Z</time></trkpt><trkpt lat="43.401816201750975" lon="11.361426155639785"><ele>443.5</ele><time>2026-04-11T05:29:25Z</time></trkpt><trkpt lat="43.401876195958245" lon="11.361355231582714"><ele>443.0</ele><time>2026-04-11T05:29:27Z</time></trkpt><trkpt lat="43.401928815129324" lon="11.361280398627262"><ele>442.5</ele><time>2026-04-11T05:29:29Z</time></trkpt><trkpt lat="43.40199569364604" lon="11.361193210096056"><ele>442.0</ele><time>2026-04-11T05:29:31Z</time></trkpt><trkpt lat="43.40205524319372" lon="11.361120342059017"><ele>441.5</ele><time>2026-04-11T05:29:33Z</time></trkpt><trkpt lat="43.40212690360868" lon="11.361034957330787"><ele>441.0</ele><time>2026-04-11T05:29:35Z</time></trkpt><trkpt lat="43.4022043449583" lon="11.360966667065767"><ele>441.0</ele><time>2026-04-11T05:29:37Z</time></trkpt><trkpt lat="43.40229183176015" lon="11.360898287365021"><ele>441.0</ele><time>2026-04-11T05:29:39Z</time></trkpt><trkpt lat="43.40238417889412" lon="11.360857479504409"><ele>441.0</ele><time>2026-04-11T05:29:41Z</time></trkpt><trkpt lat="43.402483740604254" lon="11.360841226805464"><ele>441.0</ele><time>2026-04-11T05:29:43Z</time></trkpt><trkpt lat="43.40257959753436" lon="11.360840546553733"><ele>441.0</ele><time>2026-04-11T05:29:45Z</time></trkpt><trkpt lat="43.40267270743225" lon="11.36087469666202"><ele>441.0</ele><time>2026-04-11T05:29:47Z</time></trkpt><trkpt lat="43.402764286423285" lon="11.360916286588282"><ele>441.0</ele><time>2026-04-11T05:29:49Z</time></trkpt><trkpt lat="43.40286794544437" lon="11.360936062783694"><ele>441.0</ele><time>2026-04-11T05:29:52Z</time></trkpt><trkpt lat="43.40293597456937" lon="11.360933832471286"><ele>441.0</ele><time>2026-04-11T05:29:54Z</time></trkpt><trkpt lat="43.40302722096332" lon="11.360926512020528"><ele>441.0</ele><time>2026-04-11T05:29:55Z</time></trkpt><trkpt lat="43.40311312054678" lon="11.360894201614878"><ele>442.0</ele><time>2026-04-11T05:29:57Z</time></trkpt><trkpt lat="43.40319673733731" lon="11.36086693524515"><ele>443.0</ele><time>2026-04-11T05:29:59Z</time></trkpt><trkpt lat="43.40328598455279" lon="11.360838215529611"><ele>444.0</ele><time>2026-04-11T05:30:00.999Z</time></trkpt><trkpt lat="43.40337195442485" lon="11.360800917034664"><ele>445.0</ele><time>2026-04-11T05:30:02.999Z</time></trkpt><trkpt lat="43.403454302324526" lon="11.360735123025862"><ele>446.0</ele><time>2026-04-11T05:30:04.999Z</time></trkpt><trkpt lat="43.4035203364009" lon="11.360627590943"><ele>444.6</ele><time>2026-04-11T05:30:06.999Z</time></trkpt><trkpt lat="43.40353483286855" lon="11.360498554488576"><ele>443.20000000000005</ele><time>2026-04-11T05:30:08.999Z</time></trkpt><trkpt lat="43.403523843720535" lon="11.360366327663412"><ele>441.79999999999995</ele><time>2026-04-11T05:30:10.999Z</time></trkpt><trkpt lat="43.40351160832876" lon="11.360237151912633"><ele>440.4</ele><time>2026-04-11T05:30:12.999Z</time></trkpt><trkpt lat="43.4034953111305" lon="11.360112809108445"><ele>439.0</ele><time>2026-04-11T05:30:15Z</time></trkpt><trkpt lat="43.40351982589822" lon="11.359923018539796"><ele>439.00000000000006</ele><time>2026-04-11T05:30:18Z</time></trkpt><trkpt lat="43.40354141277031" lon="11.359796191705938"><ele>439.0</ele><time>2026-04-11T05:30:20Z</time></trkpt><trkpt lat="43.40356497231977" lon="11.359690490873914"><ele>439.0</ele><time>2026-04-11T05:30:22Z</time></trkpt><trkpt lat="43.40359039025076" lon="11.359581305777894"><ele>439.0</ele><time>2026-04-11T05:30:24Z</time></trkpt><trkpt lat="43.403608844727444" lon="11.359452697897865"><ele>439.00000000000006</ele><time>2026-04-11T05:30:26Z</time></trkpt><trkpt lat="43.40359987844109" lon="11.359326497822199"><ele>439.0</ele><time>2026-04-11T05:30:28Z</time></trkpt><trkpt lat="43.40356245885128" lon="11.359205895067703"><ele>440.2</ele><time>2026-04-11T05:30:30Z</time></trkpt><trkpt lat="43.40349921757887" lon="11.35910357218936"><ele>441.4</ele><time>2026-04-11T05:30:32Z</time></trkpt><trkpt lat="43.40342763890382" lon="11.359026927021102"><ele>442.6</ele><time>2026-04-11T05:30:34Z</time></trkpt><trkpt lat="43.403339186803905" lon="11.3589806518213"><ele>443.8</ele><time>2026-04-11T05:30:36Z</time></trkpt><trkpt lat="43.40324635524693" lon="11.358958658561319"><ele>445.0</ele><time>2026-04-11T05:30:38Z</time></trkpt><trkpt lat="43.40315166942405" lon="11.35894919867539"><ele>445.0</ele><time>2026-04-11T05:30:40Z</time></trkpt><trkpt lat="43.4030595896087" lon="11.358895463808354"><ele>445.0</ele><time>2026-04-11T05:30:42Z</time></trkpt><trkpt lat="43.40298892952474" lon="11.358816749007886"><ele>445.0</ele><time>2026-04-11T05:30:44Z</time></trkpt><trkpt lat="43.40294805712333" lon="11.358715146677616"><ele>445.0</ele><time>2026-04-11T05:30:47Z</time></trkpt><trkpt lat="43.4029171457675" lon="11.358637904532516"><ele>445.0</ele><time>2026-04-11T05:30:49Z</time></trkpt><trkpt lat="43.4028769270587" lon="11.358463579870168"><ele>444.6</ele><time>2026-04-11T05:30:50Z</time></trkpt><trkpt lat="43.402858981589766" lon="11.35834355176097"><ele>444.2</ele><time>2026-04-11T05:30:52Z</time></trkpt><trkpt lat="43.402841105292275" lon="11.358211279572776"><ele>443.79999999999995</ele><time>2026-04-11T05:30:54Z</time></trkpt><trkpt lat="43.402824616821526" lon="11.358094159021874"><ele>443.4</ele><time>2026-04-11T05:30:56Z</time></trkpt><trkpt lat="43.402805988630206" lon="11.357975480439675"><ele>443.0</ele><time>2026-04-11T05:30:58Z</time></trkpt><trkpt lat="43.40278354481025" lon="11.357854283163753"><ele>442.99999999999994</ele><time>2026-04-11T05:31:00Z</time></trkpt><trkpt lat="43.402764971884906" lon="11.357736634454964"><ele>443.0</ele><time>2026-04-11T05:31:02Z</time></trkpt><trkpt lat="43.40275755959075" lon="11.357623554834692"><ele>443.0</ele><time>2026-04-11T05:31:04Z</time></trkpt><trkpt lat="43.402763769372086" lon="11.357506915341903"><ele>443.0</ele><time>2026-04-11T05:31:06Z</time></trkpt><trkpt lat="43.4028036976105" lon="11.35739398696568"><ele>442.99999999999994</ele><time>2026-04-11T05:31:08Z</time></trkpt><trkpt lat="43.40284949700674" lon="11.35729151411412"><ele>443.0</ele><time>2026-04-11T05:31:10Z</time></trkpt><trkpt lat="43.4029273699076" lon="11.357213675787"><ele>443.79999999999995</ele><time>2026-04-11T05:31:12Z</time></trkpt><trkpt lat="43.403014562247314" lon="11.357133187775332"><ele>444.59999999999997</ele><time>2026-04-11T05:31:15Z</time></trkpt><trkpt lat="43.40316124399308" lon="11.357099363261483"><ele>445.40000000000003</ele><time>2026-04-11T05:31:18Z</time></trkpt><trkpt lat="43.40324135453139" lon="11.357100506572573"><ele>446.20000000000005</ele><time>2026-04-11T05:31:20Z</time></trkpt><trkpt lat="43.4033195302855" lon="11.35710905374272"><ele>447.0</ele><time>2026-04-11T05:31:22Z</time></trkpt><trkpt lat="43.40339233572289" lon="11.357105151544067"><ele>447.0</ele><time>2026-04-11T05:31:24Z</time></trkpt><trkpt lat="43.40346631851798" lon="11.357098100554657"><ele>447.0</ele><time>2026-04-11T05:31:26Z</time></trkpt><trkpt lat="43.40354933248721" lon="11.357089379261422"><ele>447.0</ele><time>2026-04-11T05:31:28Z</time></trkpt><trkpt lat="43.40362888045727" lon="11.357067732575626"><ele>447.0</ele><time>2026-04-11T05:31:30Z</time></trkpt><trkpt lat="43.403711432887896" lon="11.357043613114296"><ele>447.0</ele><time>2026-04-11T05:31:32Z</time></trkpt><trkpt lat="43.40378593674358" lon="11.356997116016368"><ele>447.0</ele><time>2026-04-11T05:31:34Z</time></trkpt><trkpt lat="43.40383545930726" lon="11.356898423816162"><ele>447.0</ele><time>2026-04-11T05:31:37Z</time></trkpt><trkpt lat="43.40384177398309" lon="11.356787500496546"><ele>447.0</ele><time>2026-04-11T05:31:39Z</time></trkpt><trkpt lat="43.40382164594598" lon="11.356677259890223"><ele>447.0</ele><time>2026-04-11T05:31:41Z</time></trkpt><trkpt lat="43.40377220458725" lon="11.35657427460742"><ele>447.0</ele><time>2026-04-11T05:31:44Z</time></trkpt><trkpt lat="43.4037610880508" lon="11.356485363737615"><ele>447.0</ele><time>2026-04-11T05:31:46Z</time></trkpt><trkpt lat="43.40369910819046" lon="11.356394389987605"><ele>447.0</ele><time>2026-04-11T05:31:48Z</time></trkpt><trkpt lat="43.403646100137365" lon="11.35627585978731"><ele>446.8333333333333</ele><time>2026-04-11T05:31:50Z</time></trkpt><trkpt lat="43.403629357509125" lon="11.356157536859383"><ele>446.66666666666663</ele><time>2026-04-11T05:31:52Z</time></trkpt><trkpt lat="43.40365306144927" lon="11.356055411966523"><ele>446.5</ele><time>2026-04-11T05:31:54Z</time></trkpt><trkpt lat="43.403692441448825" lon="11.355962345026924"><ele>446.3333333333333</ele><time>2026-04-11T05:31:56Z</time></trkpt><trkpt lat="43.40375745661489" lon="11.35588841255209"><ele>446.16666666666663</ele><time>2026-04-11T05:31:58Z</time></trkpt><trkpt lat="43.40382492475624" lon="11.355819697540012"><ele>446.0</ele><time>2026-04-11T05:32:00Z</time></trkpt><trkpt lat="43.403890624838205" lon="11.35575230357104"><ele>446.99999999999994</ele><time>2026-04-11T05:32:02Z</time></trkpt><trkpt lat="43.40395834791511" lon="11.355694765761363"><ele>448.0</ele><time>2026-04-11T05:32:04Z</time></trkpt><trkpt lat="43.40402976606327" lon="11.355643508623853"><ele>449.0</ele><time>2026-04-11T05:32:05.999Z</time></trkpt><trkpt lat="43.40410566359544" lon="11.355607481505867"><ele>450.0</ele><time>2026-04-11T05:32:07.999Z</time></trkpt><trkpt lat="43.40418460075957" lon="11.355595486886994"><ele>450.99999999999994</ele><time>2026-04-11T05:32:09.999Z</time></trkpt><trkpt lat="43.40428286353082" lon="11.355598801569014"><ele>452.0</ele><time>2026-04-11T05:32:13.999Z</time></trkpt><trkpt lat="43.40435379195924" lon="11.355608619753008"><ele>452.0</ele><time>2026-04-11T05:32:15.999Z</time></trkpt><trkpt lat="43.40444576311908" lon="11.355638147651977"><ele>452.00000000000006</ele><time>2026-04-11T05:32:17.999Z</time></trkpt><trkpt lat="43.40454967183874" lon="11.355686371386746"><ele>452.00000000000006</ele><time>2026-04-11T05:32:19.999Z</time></trkpt><trkpt lat="43.40465852128807" lon="11.355745593166702"><ele>452.0</ele><time>2026-04-11T05:32:22Z</time></trkpt><trkpt lat="43.40475032920995" lon="11.355807465598236"><ele>452.0</ele><time>2026-04-11T05:32:24Z</time></trkpt><trkpt lat="43.40483707205085" lon="11.35587405398153"><ele>452.66666666666663</ele><time>2026-04-11T05:32:26Z</time></trkpt><trkpt lat="43.40491490790369" lon="11.355927516689839"><ele>453.3333333333333</ele><time>2026-04-11T05:32:28Z</time></trkpt><trkpt lat="43.404994497912526" lon="11.355977109898756"><ele>454.0</ele><time>2026-04-11T05:32:30Z</time></trkpt><trkpt lat="43.40505130440342" lon="11.356015107022246"><ele>454.66666666666663</ele><time>2026-04-11T05:32:32Z</time></trkpt><trkpt lat="43.405144149007974" lon="11.356080970942292"><ele>455.3333333333333</ele><time>2026-04-11T05:32:35Z</time></trkpt><trkpt lat="43.40522451871795" lon="11.356076594233725"><ele>456.0</ele><time>2026-04-11T05:32:37Z</time></trkpt><trkpt lat="43.40531203000417" lon="11.35600290292757"><ele>456.0</ele><time>2026-04-11T05:32:39Z</time></trkpt><trkpt lat="43.40534132507543" lon="11.355892544316402"><ele>456.0</ele><time>2026-04-11T05:32:42Z</time></trkpt><trkpt lat="43.40537699318902" lon="11.355783856536203"><ele>456.0</ele><time>2026-04-11T05:32:44Z</time></trkpt><trkpt lat="43.40539201483692" lon="11.355659274603397"><ele>456.0</ele><time>2026-04-11T05:32:46Z</time></trkpt><trkpt lat="43.40543410194059" lon="11.355546856748166"><ele>456.0</ele><time>2026-04-11T05:32:48Z</time></trkpt><trkpt lat="43.40551666930114" lon="11.35545839771298"><ele>455.4</ele><time>2026-04-11T05:32:50Z</time></trkpt><trkpt lat="43.40558013663666" lon="11.355413619759"><ele>454.8</ele><time>2026-04-11T05:32:53Z</time></trkpt><trkpt lat="43.40566765069426" lon="11.35543728074917"><ele>454.19999999999993</ele><time>2026-04-11T05:32:56Z</time></trkpt><trkpt lat="43.405847989017325" lon="11.355451362803874"><ele>453.59999999999997</ele><time>2026-04-11T05:32:57Z</time></trkpt><trkpt lat="43.40592273432221" lon="11.355495518257237"><ele>453.0</ele><time>2026-04-11T05:32:59Z</time></trkpt><trkpt lat="43.405992160136265" lon="11.355552178801824"><ele>454.6666666666667</ele><time>2026-04-11T05:33:01Z</time></trkpt><trkpt lat="43.40604512252306" lon="11.355599620804096"><ele>456.33333333333337</ele><time>2026-04-11T05:33:03Z</time></trkpt><trkpt lat="43.406093903371236" lon="11.355679485438966"><ele>458.0</ele><time>2026-04-11T05:33:49Z</time></trkpt><trkpt lat="43.406154496878074" lon="11.355764114100682"><ele>459.6666666666667</ele><time>2026-04-11T05:33:52Z</time></trkpt><trkpt lat="43.406218615708376" lon="11.355824459295622"><ele>461.33333333333337</ele><time>2026-04-11T05:33:54Z</time></trkpt><trkpt lat="43.40629109192785" lon="11.355892440417065"><ele>463.0</ele><time>2026-04-11T05:33:56Z</time></trkpt><trkpt lat="43.40636302648068" lon="11.355952724798756"><ele>463.50000000000006</ele><time>2026-04-11T05:33:58Z</time></trkpt><trkpt lat="43.40643576017766" lon="11.356014202657468"><ele>464.0</ele><time>2026-04-11T05:34:00Z</time></trkpt><trkpt lat="43.40650923889115" lon="11.356063424230951"><ele>464.5</ele><time>2026-04-11T05:34:02Z</time></trkpt><trkpt lat="43.40659125296283" lon="11.356040971871769"><ele>465.0</ele><time>2026-04-11T05:34:04Z</time></trkpt><trkpt lat="43.40667108496617" lon="11.355973077791237"><ele>465.50000000000006</ele><time>2026-04-11T05:34:06Z</time></trkpt><trkpt lat="43.40668304904442" lon="11.355877156211829"><ele>466.0</ele><time>2026-04-11T05:34:07.999Z</time></trkpt><trkpt lat="43.406719711277674" lon="11.35572779312713"><ele>466.0</ele><time>2026-04-11T05:34:09.999Z</time></trkpt><trkpt lat="43.40667740301472" lon="11.355606845874117"><ele>466.0</ele><time>2026-04-11T05:34:11.999Z</time></trkpt><trkpt lat="43.40664538926577" lon="11.355486368285572"><ele>466.0</ele><time>2026-04-11T05:34:13.999Z</time></trkpt><trkpt lat="43.40662259005285" lon="11.355354684978511"><ele>466.0</ele><time>2026-04-11T05:34:15.999Z</time></trkpt><trkpt lat="43.40660869008539" lon="11.355218553636563"><ele>466.0</ele><time>2026-04-11T05:34:17.999Z</time></trkpt><trkpt lat="43.4065865331346" lon="11.355081762273878"><ele>465.20000000000005</ele><time>2026-04-11T05:34:19.999Z</time></trkpt><trkpt lat="43.40657777433637" lon="11.354953811964316"><ele>464.40000000000003</ele><time>2026-04-11T05:34:21.999Z</time></trkpt><trkpt lat="43.40660229592913" lon="11.354829264294263"><ele>463.6</ele><time>2026-04-11T05:34:23.999Z</time></trkpt><trkpt lat="43.406653347684944" lon="11.354718253402535"><ele>462.8</ele><time>2026-04-11T05:34:25.999Z</time></trkpt><trkpt lat="43.40673227082961" lon="11.354636929084364"><ele>462.0</ele><time>2026-04-11T05:34:28Z</time></trkpt><trkpt lat="43.40681139773262" lon="11.354572230184637"><ele>462.6</ele><time>2026-04-11T05:34:30Z</time></trkpt><trkpt lat="43.40689022053331" lon="11.354511569893402"><ele>463.20000000000005</ele><time>2026-04-11T05:34:32Z</time></trkpt><trkpt lat="43.40699038997456" lon="11.3544475718963"><ele>463.8</ele><time>2026-04-11T05:34:35Z</time></trkpt><trkpt lat="43.40706519938736" lon="11.35440308389504"><ele>464.4</ele><time>2026-04-11T05:34:36Z</time></trkpt><trkpt lat="43.40715218468988" lon="11.354365448699419"><ele>465.0</ele><time>2026-04-11T05:34:38Z</time></trkpt><trkpt lat="43.407241046443566" lon="11.35434902596306"><ele>465.0</ele><time>2026-04-11T05:34:40Z</time></trkpt><trkpt lat="43.40733229384766" lon="11.354364801649814"><ele>465.0</ele><time>2026-04-11T05:34:42Z</time></trkpt><trkpt lat="43.407414543865784" lon="11.354411406526882"><ele>465.0</ele><time>2026-04-11T05:34:44Z</time></trkpt><trkpt lat="43.40750104735584" lon="11.354447647394938"><ele>465.0</ele><time>2026-04-11T05:34:46Z</time></trkpt><trkpt lat="43.407577166795306" lon="11.354399492879313"><ele>465.0</ele><time>2026-04-11T05:34:48Z</time></trkpt><trkpt lat="43.40762775340101" lon="11.354307337778586"><ele>465.0</ele><time>2026-04-11T05:34:50Z</time></trkpt><trkpt lat="43.407662200036945" lon="11.35420285325831"><ele>465.0</ele><time>2026-04-11T05:34:52Z</time></trkpt><trkpt lat="43.40768165705614" lon="11.354089507560722"><ele>465.0</ele><time>2026-04-11T05:34:54Z</time></trkpt><trkpt lat="43.40770759725092" lon="11.353992007458896"><ele>465.0</ele><time>2026-04-11T05:34:56Z</time></trkpt><trkpt lat="43.407755657840184" lon="11.353877360334753"><ele>465.0</ele><time>2026-04-11T05:34:58Z</time></trkpt><trkpt lat="43.40781636920632" lon="11.353797497015629"><ele>465.0</ele><time>2026-04-11T05:35:00Z</time></trkpt><trkpt lat="43.40790062627088" lon="11.353756280581907"><ele>465.0</ele><time>2026-04-11T05:35:02Z</time></trkpt><trkpt lat="43.40798303940949" lon="11.353739436830171"><ele>464.1666666666667</ele><time>2026-04-11T05:35:04Z</time></trkpt><trkpt lat="43.40806627400679" lon="11.353767547256872"><ele>463.33333333333337</ele><time>2026-04-11T05:35:06Z</time></trkpt><trkpt lat="43.40814567910449" lon="11.35380837276544"><ele>462.5</ele><time>2026-04-11T05:35:08Z</time></trkpt><trkpt lat="43.408210835462306" lon="11.353882242022404"><ele>461.6666666666667</ele><time>2026-04-11T05:35:10Z</time></trkpt><trkpt lat="43.408272652218855" lon="11.353957190973752"><ele>460.83333333333337</ele><time>2026-04-11T05:35:12Z</time></trkpt><trkpt lat="43.408335741887655" lon="11.354025765152008"><ele>460.0</ele><time>2026-04-11T05:35:14Z</time></trkpt><trkpt lat="43.408394588775586" lon="11.354102907657403"><ele>463.0</ele><time>2026-04-11T05:35:16Z</time></trkpt><trkpt lat="43.4084682292834" lon="11.35416507299311"><ele>466.0</ele><time>2026-04-11T05:35:19Z</time></trkpt><trkpt lat="43.408556023351146" lon="11.354135779726644"><ele>469.0</ele><time>2026-04-11T05:35:23Z</time></trkpt><trkpt lat="43.40872502584788" lon="11.35409557422719"><ele>472.0</ele><time>2026-04-11T05:35:25Z</time></trkpt><trkpt lat="43.40875820205058" lon="11.353958300592476"><ele>471.33333333333337</ele><time>2026-04-11T05:35:27Z</time></trkpt><trkpt lat="43.40878111488473" lon="11.353839746922244"><ele>470.6666666666667</ele><time>2026-04-11T05:35:29Z</time></trkpt><trkpt lat="43.408788877086906" lon="11.353714943229296"><ele>470.0</ele><time>2026-04-11T05:35:31Z</time></trkpt><trkpt lat="43.40879787114119" lon="11.353599973265045"><ele>469.33333333333337</ele><time>2026-04-11T05:35:33Z</time></trkpt><trkpt lat="43.40881532214773" lon="11.353483825796665"><ele>468.6666666666667</ele><time>2026-04-11T05:35:35Z</time></trkpt><trkpt lat="43.40884945045566" lon="11.35337710260433"><ele>468.0</ele><time>2026-04-11T05:35:37Z</time></trkpt><trkpt lat="43.40890437669083" lon="11.35329323485234"><ele>468.0</ele><time>2026-04-11T05:35:39Z</time></trkpt><trkpt lat="43.408966308662265" lon="11.353258669388445"><ele>468.0</ele><time>2026-04-11T05:35:42Z</time></trkpt><trkpt lat="43.40902495648713" lon="11.353221037612334"><ele>468.0</ele><time>2026-04-11T05:35:44Z</time></trkpt><trkpt lat="43.40910910340752" lon="11.35319430913571"><ele>468.0</ele><time>2026-04-11T05:35:46Z</time></trkpt><trkpt lat="43.40920771360646" lon="11.353202285979366"><ele>468.0</ele><time>2026-04-11T05:35:47Z</time></trkpt><trkpt lat="43.40928967495508" lon="11.35320471673475"><ele>468.0</ele><time>2026-04-11T05:35:49Z</time></trkpt><trkpt lat="43.40936563422735" lon="11.353223697850899"><ele>468.0</ele><time>2026-04-11T05:35:51Z</time></trkpt><trkpt lat="43.40944004451286" lon="11.353264277363358"><ele>468.0</ele><time>2026-04-11T05:35:53Z</time></trkpt><trkpt lat="43.409512810038436" lon="11.353307310840878"><ele>468.0</ele><time>2026-04-11T05:35:55Z</time></trkpt><trkpt lat="43.40958984236232" lon="11.353332672229715"><ele>468.0</ele><time>2026-04-11T05:35:57Z</time></trkpt><trkpt lat="43.40966777231118" lon="11.353354646990681"><ele>468.0</ele><time>2026-04-11T05:35:59Z</time></trkpt><trkpt lat="43.409748349436754" lon="11.353325548527001"><ele>468.0</ele><time>2026-04-11T05:36:01Z</time></trkpt><trkpt lat="43.409814027550425" lon="11.353266635496297"><ele>468.1666666666667</ele><time>2026-04-11T05:36:03Z</time></trkpt><trkpt lat="43.40985004908599" lon="11.353141983092623"><ele>468.33333333333337</ele><time>2026-04-11T05:36:04.999Z</time></trkpt><trkpt lat="43.40982214391137" lon="11.353035793525615"><ele>468.5</ele><time>2026-04-11T05:36:06.999Z</time></trkpt><trkpt lat="43.40984534708638" lon="11.352949920740038"><ele>468.6666666666667</ele><time>2026-04-11T05:36:08.999Z</time></trkpt><trkpt lat="43.40986170782128" lon="11.352855577952402"><ele>468.83333333333337</ele><time>2026-04-11T05:36:10.999Z</time></trkpt><trkpt lat="43.40991820240438" lon="11.352750447705072"><ele>469.0</ele><time>2026-04-11T05:36:12.999Z</time></trkpt><trkpt lat="43.409976752315366" lon="11.352650904561445"><ele>469.00000000000006</ele><time>2026-04-11T05:36:14.999Z</time></trkpt><trkpt lat="43.41004309959829" lon="11.352552613600965"><ele>469.0</ele><time>2026-04-11T05:36:16.999Z</time></trkpt><trkpt lat="43.410109396163996" lon="11.352484827181534"><ele>469.0</ele><time>2026-04-11T05:36:18.999Z</time></trkpt><trkpt lat="43.41018140204328" lon="11.35241832472975"><ele>469.0</ele><time>2026-04-11T05:36:20.999Z</time></trkpt><trkpt lat="43.41027194387738" lon="11.352342771058533"><ele>469.00000000000006</ele><time>2026-04-11T05:36:23.999Z</time></trkpt><trkpt lat="43.410334689529066" lon="11.352320327989162"><ele>469.0</ele><time>2026-04-11T05:36:25.999Z</time></trkpt><trkpt lat="43.410445924251526" lon="11.352303512983182"><ele>469.33333333333337</ele><time>2026-04-11T05:36:26.999Z</time></trkpt><trkpt lat="43.410509564647334" lon="11.352286379060898"><ele>469.6666666666667</ele><time>2026-04-11T05:36:28.999Z</time></trkpt><trkpt lat="43.41058339745314" lon="11.352267020022511"><ele>470.0</ele><time>2026-04-11T05:36:30.999Z</time></trkpt><trkpt lat="43.4106561866088" lon="11.35223955230861"><ele>470.33333333333337</ele><time>2026-04-11T05:36:33Z</time></trkpt><trkpt lat="43.410734120945385" lon="11.352218814129492"><ele>470.6666666666667</ele><time>2026-04-11T05:36:35Z</time></trkpt><trkpt lat="43.41081579025552" lon="11.352197189502665"><ele>471.0</ele><time>2026-04-11T05:36:37Z</time></trkpt><trkpt lat="43.4108995857229" lon="11.352182724668857"><ele>471.0</ele><time>2026-04-11T05:36:39Z</time></trkpt><trkpt lat="43.410989646250435" lon="11.352160533347144"><ele>471.0</ele><time>2026-04-11T05:36:41Z</time></trkpt><trkpt lat="43.41108054073012" lon="11.352136704348316"><ele>471.0</ele><time>2026-04-11T05:36:43Z</time></trkpt><trkpt lat="43.41117122549706" lon="11.352107749972154"><ele>471.0</ele><time>2026-04-11T05:36:45Z</time></trkpt><trkpt lat="43.41135746065737" lon="11.352052770039029"><ele>470.3333333333333</ele><time>2026-04-11T05:36:49Z</time></trkpt><trkpt lat="43.411440948351014" lon="11.352038450210799"><ele>469.66666666666663</ele><time>2026-04-11T05:36:51Z</time></trkpt><trkpt lat="43.411507626593476" lon="11.3520212282178"><ele>469.0</ele><time>2026-04-11T05:36:53Z</time></trkpt><trkpt lat="43.41158341848023" lon="11.352001432783158"><ele>468.3333333333333</ele><time>2026-04-11T05:36:55Z</time></trkpt><trkpt lat="43.41166364429925" lon="11.351984001137081"><ele>467.66666666666663</ele><time>2026-04-11T05:36:57Z</time></trkpt><trkpt lat="43.41174902578819" lon="11.351965664153827"><ele>467.0</ele><time>2026-04-11T05:36:59Z</time></trkpt><trkpt lat="43.4118303163686" lon="11.351938424524501"><ele>466.99999999999994</ele><time>2026-04-11T05:37:01Z</time></trkpt><trkpt lat="43.41190977497196" lon="11.351918016245616"><ele>467.0</ele><time>2026-04-11T05:37:03Z</time></trkpt><trkpt lat="43.41199873572983" lon="11.351900720169356"><ele>467.0</ele><time>2026-04-11T05:37:05Z</time></trkpt><trkpt lat="43.41208157465036" lon="11.351883682508602"><ele>467.0</ele><time>2026-04-11T05:37:07Z</time></trkpt><trkpt lat="43.41215275774361" lon="11.351874563033341"><ele>466.99999999999994</ele><time>2026-04-11T05:37:09Z</time></trkpt><trkpt lat="43.41223352133394" lon="11.351844456579117"><ele>467.0</ele><time>2026-04-11T05:37:12Z</time></trkpt><trkpt lat="43.41230111843378" lon="11.351835912116229"><ele>467.8333333333333</ele><time>2026-04-11T05:37:14Z</time></trkpt><trkpt lat="43.412371240380274" lon="11.351827823309204"><ele>468.66666666666663</ele><time>2026-04-11T05:37:16Z</time></trkpt><trkpt lat="43.412438035439955" lon="11.351811066521975"><ele>469.5</ele><time>2026-04-11T05:37:18Z</time></trkpt><trkpt lat="43.41252846846087" lon="11.351785980040981"><ele>470.33333333333337</ele><time>2026-04-11T05:37:21Z</time></trkpt><trkpt lat="43.41261948624901" lon="11.35175597996366"><ele>471.1666666666667</ele><time>2026-04-11T05:37:24Z</time></trkpt><trkpt lat="43.41268389947736" lon="11.351730626651138"><ele>472.0</ele><time>2026-04-11T05:37:27Z</time></trkpt><trkpt lat="43.41277336335959" lon="11.351679448279459"><ele>472.0</ele><time>2026-04-11T05:37:29Z</time></trkpt><trkpt lat="43.412834596452775" lon="11.35164602346803"><ele>472.0</ele><time>2026-04-11T05:37:31Z</time></trkpt><trkpt lat="43.41289475152333" lon="11.351599033539582"><ele>472.0</ele><time>2026-04-11T05:37:33Z</time></trkpt><trkpt lat="43.41294992250964" lon="11.351551322850218"><ele>472.0</ele><time>2026-04-11T05:37:35Z</time></trkpt><trkpt lat="43.4129969392276" lon="11.351489807436888"><ele>472.0</ele><time>2026-04-11T05:37:37Z</time></trkpt><trkpt lat="43.41304391586004" lon="11.351429452757829"><ele>472.0</ele><time>2026-04-11T05:37:39Z</time></trkpt><trkpt lat="43.41310068912777" lon="11.351354779672816"><ele>472.0</ele><time>2026-04-11T05:37:42Z</time></trkpt><trkpt lat="43.413155844694245" lon="11.351269576424695"><ele>473.33333333333337</ele><time>2026-04-11T05:37:45Z</time></trkpt><trkpt lat="43.41322342992108" lon="11.351177427483282"><ele>474.6666666666667</ele><time>2026-04-11T05:37:47Z</time></trkpt><trkpt lat="43.413291749805815" lon="11.351093552103924"><ele>476.0</ele><time>2026-04-11T05:37:50Z</time></trkpt><trkpt lat="43.413339875643395" lon="11.35101873674709"><ele>477.33333333333337</ele><time>2026-04-11T05:37:52Z</time></trkpt><trkpt lat="43.41339011651258" lon="11.350952219480043"><ele>478.6666666666667</ele><time>2026-04-11T05:37:55Z</time></trkpt><trkpt lat="43.41344190857896" lon="11.350898263758658"><ele>480.0</ele><time>2026-04-11T05:37:57Z</time></trkpt><trkpt lat="43.41356012094798" lon="11.350739968714471"><ele>480.0</ele><time>2026-04-11T05:38:00Z</time></trkpt><trkpt lat="43.41361515513047" lon="11.350647817926609"><ele>480.0</ele><time>2026-04-11T05:38:03Z</time></trkpt><trkpt lat="43.41367367872122" lon="11.35057250089188"><ele>480.0</ele><time>2026-04-11T05:38:06Z</time></trkpt><trkpt lat="43.413736638095216" lon="11.350494354240508"><ele>480.0</ele><time>2026-04-11T05:38:09Z</time></trkpt><trkpt lat="43.41380457114789" lon="11.3504138455858"><ele>480.0</ele><time>2026-04-11T05:38:12Z</time></trkpt><trkpt lat="43.41388165440818" lon="11.350359544724439"><ele>480.0</ele><time>2026-04-11T05:38:14.999Z</time></trkpt><trkpt lat="43.4139740563609" lon="11.35034774586253"><ele>482.0</ele><time>2026-04-11T05:38:17.999Z</time></trkpt><trkpt lat="43.41405237298557" lon="11.350361876012364"><ele>484.0</ele><time>2026-04-11T05:38:21.999Z</time></trkpt><trkpt lat="43.41411723162189" lon="11.35036833153462"><ele>486.0</ele><time>2026-04-11T05:38:23.999Z</time></trkpt><trkpt lat="43.414177931271304" lon="11.35039419768613"><ele>488.0</ele><time>2026-04-11T05:38:25.999Z</time></trkpt><trkpt lat="43.414236540068124" lon="11.350427557550354"><ele>490.0</ele><time>2026-04-11T05:38:27.999Z</time></trkpt><trkpt lat="43.414304725198946" lon="11.350451075184816"><ele>492.0</ele><time>2026-04-11T05:38:29.999Z</time></trkpt><trkpt lat="43.41437208753626" lon="11.350489335377755"><ele>494.0</ele><time>2026-04-11T05:38:32.999Z</time></trkpt><trkpt lat="43.41445979710764" lon="11.350475420229063"><ele>493.99999999999994</ele><time>2026-04-11T05:38:35.999Z</time></trkpt><trkpt lat="43.41453137949866" lon="11.350404698959702"><ele>494.0</ele><time>2026-04-11T05:38:39Z</time></trkpt><trkpt lat="43.41459378118287" lon="11.350310728866441"><ele>494.0</ele><time>2026-04-11T05:38:42Z</time></trkpt><trkpt lat="43.41461035304699" lon="11.350223601735332"><ele>494.0</ele><time>2026-04-11T05:38:44Z</time></trkpt><trkpt lat="43.41462415163425" lon="11.350099307223998"><ele>493.99999999999994</ele><time>2026-04-11T05:38:47Z</time></trkpt><trkpt lat="43.414626467569114" lon="11.349970288522858"><ele>494.0</ele><time>2026-04-11T05:38:50Z</time></trkpt><trkpt lat="43.41463241324719" lon="11.349878997607426"><ele>493.99999999999994</ele><time>2026-04-11T05:38:52Z</time></trkpt><trkpt lat="43.4146383549599" lon="11.349777516451644"><ele>494.0</ele><time>2026-04-11T05:38:54Z</time></trkpt><trkpt lat="43.414640573307395" lon="11.349675956322272"><ele>494.0</ele><time>2026-04-11T05:38:56Z</time></trkpt><trkpt lat="43.41464754569459" lon="11.34957147470299"><ele>494.0</ele><time>2026-04-11T05:38:59Z</time></trkpt><trkpt lat="43.41465719165672" lon="11.34942136712281"><ele>493.99999999999994</ele><time>2026-04-11T05:39:01Z</time></trkpt><trkpt lat="43.41468052542194" lon="11.34933056977225"><ele>494.0</ele><time>2026-04-11T05:39:03Z</time></trkpt><trkpt lat="43.41471998398428" lon="11.349243634713915"><ele>493.57142857142856</ele><time>2026-04-11T05:39:05Z</time></trkpt><trkpt lat="43.414770519606215" lon="11.34917159885174"><ele>493.1428571428571</ele><time>2026-04-11T05:39:07Z</time></trkpt><trkpt lat="43.41482004442861" lon="11.349100533218419"><ele>492.71428571428567</ele><time>2026-04-11T05:39:09Z</time></trkpt><trkpt lat="43.41487170889567" lon="11.349034797376854"><ele>492.2857142857143</ele><time>2026-04-11T05:39:11Z</time></trkpt><trkpt lat="43.41492769434667" lon="11.348977262651573"><ele>491.8571428571428</ele><time>2026-04-11T05:39:13Z</time></trkpt><trkpt lat="43.41498756020915" lon="11.348928029815575"><ele>491.4285714285714</ele><time>2026-04-11T05:39:15Z</time></trkpt><trkpt lat="43.41505067279431" lon="11.34888599222424"><ele>491.0</ele><time>2026-04-11T05:39:17Z</time></trkpt><trkpt lat="43.41511769999757" lon="11.34885019106348"><ele>490.99999999999994</ele><time>2026-04-11T05:39:20Z</time></trkpt><trkpt lat="43.41526660749685" lon="11.348804711173203"><ele>491.0</ele><time>2026-04-11T05:39:23Z</time></trkpt><trkpt lat="43.415344664584126" lon="11.348827775122631"><ele>491.0</ele><time>2026-04-11T05:39:25Z</time></trkpt><trkpt lat="43.4154120365983" lon="11.348854687524176"><ele>491.0</ele><time>2026-04-11T05:39:27Z</time></trkpt><trkpt lat="43.415478835281654" lon="11.348887121128532"><ele>490.99999999999994</ele><time>2026-04-11T05:39:29Z</time></trkpt><trkpt lat="43.415546219749125" lon="11.34890299691786"><ele>491.0</ele><time>2026-04-11T05:39:31Z</time></trkpt><trkpt lat="43.415617495694676" lon="11.348925506402102"><ele>490.85714285714283</ele><time>2026-04-11T05:39:33Z</time></trkpt><trkpt lat="43.415689683305594" lon="11.348943899075786"><ele>490.71428571428567</ele><time>2026-04-11T05:39:35Z</time></trkpt><trkpt lat="43.41575885647906" lon="11.34894829816987"><ele>490.57142857142856</ele><time>2026-04-11T05:39:37Z</time></trkpt><trkpt lat="43.41582542382165" lon="11.34894724405733"><ele>490.42857142857144</ele><time>2026-04-11T05:39:39Z</time></trkpt><trkpt lat="43.41589530432425" lon="11.348935753640848"><ele>490.2857142857143</ele><time>2026-04-11T05:39:41Z</time></trkpt><trkpt lat="43.41596446305616" lon="11.348908035398823"><ele>490.1428571428571</ele><time>2026-04-11T05:39:44Z</time></trkpt><trkpt lat="43.41604795466882" lon="11.348885520273068"><ele>490.0</ele><time>2026-04-11T05:39:47Z</time></trkpt><trkpt lat="43.416141994462784" lon="11.34886190396617"><ele>492.1666666666667</ele><time>2026-04-11T05:39:48Z</time></trkpt><trkpt lat="43.41621456256829" lon="11.348856489902435"><ele>494.33333333333337</ele><time>2026-04-11T05:39:50Z</time></trkpt><trkpt lat="43.41627731698391" lon="11.348847987095036"><ele>496.5</ele><time>2026-04-11T05:39:52Z</time></trkpt><trkpt lat="43.416372211005374" lon="11.348839005435428"><ele>498.66666666666663</ele><time>2026-04-11T05:39:55Z</time></trkpt><trkpt lat="43.41646598341809" lon="11.348818029710044"><ele>500.8333333333333</ele><time>2026-04-11T05:39:58Z</time></trkpt><trkpt lat="43.41653232919796" lon="11.348813786002342"><ele>503.0</ele><time>2026-04-11T05:40:00Z</time></trkpt><trkpt lat="43.41659560359107" lon="11.348806485547986"><ele>503.3333333333333</ele><time>2026-04-11T05:40:02Z</time></trkpt><trkpt lat="43.416657807294975" lon="11.348791432782244"><ele>503.66666666666663</ele><time>2026-04-11T05:40:04Z</time></trkpt><trkpt lat="43.41674838111749" lon="11.34878064654324"><ele>504.0</ele><time>2026-04-11T05:40:07Z</time></trkpt><trkpt lat="43.416824240761485" lon="11.34877801792556"><ele>504.33333333333337</ele><time>2026-04-11T05:40:10Z</time></trkpt><trkpt lat="43.41690224282768" lon="11.348762818540713"><ele>504.6666666666667</ele><time>2026-04-11T05:40:13Z</time></trkpt><trkpt lat="43.41698485780481" lon="11.348720221026324"><ele>505.0</ele><time>2026-04-11T05:40:16Z</time></trkpt><trkpt lat="43.41704472182484" lon="11.348649809484762"><ele>505.0</ele><time>2026-04-11T05:40:19Z</time></trkpt><trkpt lat="43.41710734417788" lon="11.348601074743268"><ele>504.99999999999994</ele><time>2026-04-11T05:40:20.999Z</time></trkpt><trkpt lat="43.41715025323703" lon="11.348532413986684"><ele>505.0</ele><time>2026-04-11T05:40:22.999Z</time></trkpt><trkpt lat="43.417180140645875" lon="11.348449988617379"><ele>505.0</ele><time>2026-04-11T05:40:24.999Z</time></trkpt><trkpt lat="43.41719235530224" lon="11.34835932234257"><ele>504.99999999999994</ele><time>2026-04-11T05:40:26.999Z</time></trkpt><trkpt lat="43.417189839288305" lon="11.348267389624448"><ele>505.0</ele><time>2026-04-11T05:40:28.999Z</time></trkpt><trkpt lat="43.41717618379331" lon="11.348168572281528"><ele>505.0</ele><time>2026-04-11T05:40:30.999Z</time></trkpt><trkpt lat="43.41716773889942" lon="11.347992025067894"><ele>506.00000000000006</ele><time>2026-04-11T05:40:32.999Z</time></trkpt><trkpt lat="43.41714124255502" lon="11.347909340786918"><ele>507.0</ele><time>2026-04-11T05:40:35.999Z</time></trkpt><trkpt lat="43.41713549140114" lon="11.347787522000822"><ele>508.0</ele><time>2026-04-11T05:40:37.999Z</time></trkpt><trkpt lat="43.417130719081506" lon="11.347643806997175"><ele>509.0</ele><time>2026-04-11T05:40:38.999Z</time></trkpt><trkpt lat="43.41713728306481" lon="11.347517881197367"><ele>510.00000000000006</ele><time>2026-04-11T05:40:40.999Z</time></trkpt><trkpt lat="43.41717642342131" lon="11.347403434452541"><ele>511.0</ele><time>2026-04-11T05:40:42.999Z</time></trkpt><trkpt lat="43.41723107486888" lon="11.347320769148544"><ele>511.0</ele><time>2026-04-11T05:40:45Z</time></trkpt><trkpt lat="43.41730733086728" lon="11.347230321394806"><ele>511.0</ele><time>2026-04-11T05:40:47Z</time></trkpt><trkpt lat="43.41738336144874" lon="11.347130845474508"><ele>511.0</ele><time>2026-04-11T05:40:49Z</time></trkpt><trkpt lat="43.417466072971756" lon="11.347050066905998"><ele>511.0</ele><time>2026-04-11T05:40:51Z</time></trkpt><trkpt lat="43.41754735883762" lon="11.346972574836352"><ele>511.0</ele><time>2026-04-11T05:40:53Z</time></trkpt><trkpt lat="43.4176320160131" lon="11.346899012502856"><ele>511.00000000000006</ele><time>2026-04-11T05:40:55Z</time></trkpt><trkpt lat="43.41771140474824" lon="11.346822897333148"><ele>511.0</ele><time>2026-04-11T05:40:57Z</time></trkpt><trkpt lat="43.41778653208391" lon="11.346783364220196"><ele>511.0</ele><time>2026-04-11T05:40:59Z</time></trkpt><trkpt lat="43.41786373135224" lon="11.346729079037534"><ele>511.0</ele><time>2026-04-11T05:41:01Z</time></trkpt><trkpt lat="43.41793226689991" lon="11.346668107601136"><ele>511.00000000000006</ele><time>2026-04-11T05:41:03Z</time></trkpt><trkpt lat="43.41801932764276" lon="11.346634188139033"><ele>511.0</ele><time>2026-04-11T05:41:05Z</time></trkpt><trkpt lat="43.41810812638838" lon="11.346598741705426"><ele>508.6</ele><time>2026-04-11T05:41:07Z</time></trkpt><trkpt lat="43.41819761767049" lon="11.346561404124728"><ele>506.20000000000005</ele><time>2026-04-11T05:41:09Z</time></trkpt><trkpt lat="43.418294221212115" lon="11.346532956139628"><ele>503.79999999999995</ele><time>2026-04-11T05:41:11Z</time></trkpt><trkpt lat="43.41839788915943" lon="11.346519767047624"><ele>501.4</ele><time>2026-04-11T05:41:13Z</time></trkpt><trkpt lat="43.41850818280904" lon="11.346489775953678"><ele>499.0</ele><time>2026-04-11T05:41:15Z</time></trkpt><trkpt lat="43.41862791741195" lon="11.346469584529322"><ele>499.0</ele><time>2026-04-11T05:41:17Z</time></trkpt><trkpt lat="43.41869121531285" lon="11.34645948946517"><ele>499.0</ele><time>2026-04-11T05:41:18Z</time></trkpt><trkpt lat="43.41875768504734" lon="11.346459115435666"><ele>499.0</ele><time>2026-04-11T05:41:19Z</time></trkpt><trkpt lat="43.41887842740417" lon="11.346491854647537"><ele>499.0</ele><time>2026-04-11T05:41:21Z</time></trkpt><trkpt lat="43.41897779979364" lon="11.346577251190856"><ele>499.0</ele><time>2026-04-11T05:41:23Z</time></trkpt><trkpt lat="43.419067265709" lon="11.346665249116986"><ele>499.4</ele><time>2026-04-11T05:41:25Z</time></trkpt><trkpt lat="43.419151859266904" lon="11.346746494892425"><ele>499.79999999999995</ele><time>2026-04-11T05:41:27Z</time></trkpt><trkpt lat="43.41923491508128" lon="11.346819023119838"><ele>500.20000000000005</ele><time>2026-04-11T05:41:29Z</time></trkpt><trkpt lat="43.419316335630846" lon="11.346883029701491"><ele>500.6</ele><time>2026-04-11T05:41:31Z</time></trkpt><trkpt lat="43.41939796213701" lon="11.346940961172464"><ele>501.0</ele><time>2026-04-11T05:41:33Z</time></trkpt><trkpt lat="43.41947998720713" lon="11.346994354248238"><ele>501.0</ele><time>2026-04-11T05:41:35Z</time></trkpt><trkpt lat="43.4195812119344" lon="11.347012762474977"><ele>501.0</ele><time>2026-04-11T05:41:37Z</time></trkpt><trkpt lat="43.419694314329924" lon="11.347008791317252"><ele>501.0</ele><time>2026-04-11T05:41:39Z</time></trkpt><trkpt lat="43.419803549624916" lon="11.346987618780624"><ele>501.0</ele><time>2026-04-11T05:41:41Z</time></trkpt><trkpt lat="43.419910992036826" lon="11.346972787761022"><ele>501.0</ele><time>2026-04-11T05:41:43Z</time></trkpt><trkpt lat="43.42002476554449" lon="11.346997723733717"><ele>500.20000000000005</ele><time>2026-04-11T05:41:45Z</time></trkpt><trkpt lat="43.42013662628078" lon="11.347036285801076"><ele>499.40000000000003</ele><time>2026-04-11T05:41:47Z</time></trkpt><trkpt lat="43.42023980995959" lon="11.347083557752319"><ele>498.6</ele><time>2026-04-11T05:41:49Z</time></trkpt><trkpt lat="43.42032535658231" lon="11.347152126674699"><ele>497.8</ele><time>2026-04-11T05:41:51Z</time></trkpt><trkpt lat="43.42040175480085" lon="11.34720814149378"><ele>497.0</ele><time>2026-04-11T05:41:53Z</time></trkpt><trkpt lat="43.42047182481219" lon="11.347260320468628"><ele>497.8</ele><time>2026-04-11T05:41:55Z</time></trkpt><trkpt lat="43.420559468823974" lon="11.3472961589251"><ele>498.6</ele><time>2026-04-11T05:41:57Z</time></trkpt><trkpt lat="43.42067339843707" lon="11.347275249497235"><ele>499.40000000000003</ele><time>2026-04-11T05:41:59Z</time></trkpt><trkpt lat="43.420776055612336" lon="11.34728418158754"><ele>500.20000000000005</ele><time>2026-04-11T05:42:01Z</time></trkpt><trkpt lat="43.420876041621675" lon="11.34726867626666"><ele>501.0</ele><time>2026-04-11T05:42:03Z</time></trkpt><trkpt lat="43.4209777342229" lon="11.347293837551712"><ele>501.0</ele><time>2026-04-11T05:42:05Z</time></trkpt><trkpt lat="43.421076878457775" lon="11.347318441314647"><ele>501.0</ele><time>2026-04-11T05:42:07Z</time></trkpt><trkpt lat="43.421168266020494" lon="11.34734635578796"><ele>501.0</ele><time>2026-04-11T05:42:09Z</time></trkpt><trkpt lat="43.421248956956646" lon="11.347400598589514"><ele>501.0</ele><time>2026-04-11T05:42:11Z</time></trkpt><trkpt lat="43.42131435888426" lon="11.347475722250064"><ele>501.0</ele><time>2026-04-11T05:42:13Z</time></trkpt><trkpt lat="43.42135585488387" lon="11.347557525226403"><ele>501.0</ele><time>2026-04-11T05:42:15Z</time></trkpt><trkpt lat="43.42139642306784" lon="11.347641896031012"><ele>501.0</ele><time>2026-04-11T05:42:17Z</time></trkpt><trkpt lat="43.42139883147899" lon="11.347755976126995"><ele>501.0</ele><time>2026-04-11T05:42:19Z</time></trkpt><trkpt lat="43.42147458207165" lon="11.347835278617007"><ele>501.0</ele><time>2026-04-11T05:42:21Z</time></trkpt><trkpt lat="43.4214537630106" lon="11.347747881429058"><ele>501.0</ele><time>2026-04-11T05:46:03Z</time></trkpt><trkpt lat="43.42139466314718" lon="11.347787929213055"><ele>501.0</ele><time>2026-04-11T05:46:10Z</time></trkpt><trkpt lat="43.42139333281291" lon="11.347903419836769"><ele>501.0</ele><time>2026-04-11T05:46:12Z</time></trkpt><trkpt lat="43.42140950836053" lon="11.348034252381348"><ele>501.5</ele><time>2026-04-11T05:46:14Z</time></trkpt><trkpt lat="43.421397545320076" lon="11.348204371579056"><ele>502.0</ele><time>2026-04-11T05:46:16Z</time></trkpt><trkpt lat="43.4213881061892" lon="11.348300116213707"><ele>502.5</ele><time>2026-04-11T05:46:17Z</time></trkpt><trkpt lat="43.42137187919861" lon="11.348398855201216"><ele>503.0</ele><time>2026-04-11T05:46:18Z</time></trkpt><trkpt lat="43.42133104822755" lon="11.348497572878227"><ele>503.5</ele><time>2026-04-11T05:46:19Z</time></trkpt><trkpt lat="43.42131602977799" lon="11.3486096609495"><ele>504.0</ele><time>2026-04-11T05:46:20Z</time></trkpt><trkpt lat="43.4213047831358" lon="11.348727604646205"><ele>503.0</ele><time>2026-04-11T05:46:21Z</time></trkpt><trkpt lat="43.42129680355678" lon="11.348846667152282"><ele>502.0</ele><time>2026-04-11T05:46:22Z</time></trkpt><trkpt lat="43.421293841030284" lon="11.348964451888538"><ele>501.0</ele><time>2026-04-11T05:46:23Z</time></trkpt><trkpt lat="43.421295685340624" lon="11.34908887800844"><ele>500.0</ele><time>2026-04-11T05:46:24Z</time></trkpt><trkpt lat="43.42130087358777" lon="11.349214387822398"><ele>499.0</ele><time>2026-04-11T05:46:25Z</time></trkpt><trkpt lat="43.421328799103144" lon="11.3493338261617"><ele>498.0</ele><time>2026-04-11T05:46:26Z</time></trkpt><trkpt lat="43.4213478619611" lon="11.349443740679439"><ele>498.0</ele><time>2026-04-11T05:46:27Z</time></trkpt><trkpt lat="43.42138920633093" lon="11.349537300871049"><ele>498.0</ele><time>2026-04-11T05:46:28Z</time></trkpt><trkpt lat="43.42146342095985" lon="11.349594111947159"><ele>498.0</ele><time>2026-04-11T05:46:29Z</time></trkpt><trkpt lat="43.42154953515838" lon="11.349615646595968"><ele>498.0</ele><time>2026-04-11T05:46:29.999Z</time></trkpt><trkpt lat="43.42163745369029" lon="11.349618104248917"><ele>498.0</ele><time>2026-04-11T05:46:30.999Z</time></trkpt><trkpt lat="43.42172250672348" lon="11.349583127794363"><ele>498.0</ele><time>2026-04-11T05:46:31.999Z</time></trkpt><trkpt lat="43.42180986814104" lon="11.349546177787666"><ele>498.0</ele><time>2026-04-11T05:46:32.999Z</time></trkpt><trkpt lat="43.42189883488144" lon="11.34953945342626"><ele>498.0</ele><time>2026-04-11T05:46:33.999Z</time></trkpt><trkpt lat="43.421978767836734" lon="11.349608832111823"><ele>498.0</ele><time>2026-04-11T05:46:34.999Z</time></trkpt><trkpt lat="43.42204721984368" lon="11.34967701440705"><ele>498.0</ele><time>2026-04-11T05:46:35.999Z</time></trkpt><trkpt lat="43.42210862805875" lon="11.349751194976928"><ele>498.0</ele><time>2026-04-11T05:46:36.999Z</time></trkpt><trkpt lat="43.42216119219657" lon="11.349820787711922"><ele>498.0</ele><time>2026-04-11T05:46:37.999Z</time></trkpt><trkpt lat="43.42222148486207" lon="11.349885129459203"><ele>495.6666666666667</ele><time>2026-04-11T05:46:38.999Z</time></trkpt><trkpt lat="43.4222853771477" lon="11.349910818020822"><ele>493.33333333333337</ele><time>2026-04-11T05:46:39.999Z</time></trkpt><trkpt lat="43.4223534279333" lon="11.34997571800369"><ele>491.0</ele><time>2026-04-11T05:46:40.999Z</time></trkpt><trkpt lat="43.42243213406696" lon="11.350025442689116"><ele>488.6666666666667</ele><time>2026-04-11T05:46:41.999Z</time></trkpt><trkpt lat="43.422513324975114" lon="11.350074249719729"><ele>486.33333333333337</ele><time>2026-04-11T05:46:42.999Z</time></trkpt><trkpt lat="43.42258922773915" lon="11.350121837082774"><ele>484.0</ele><time>2026-04-11T05:46:43.999Z</time></trkpt><trkpt lat="43.42266152247782" lon="11.350173938028792"><ele>484.00000000000006</ele><time>2026-04-11T05:46:44.999Z</time></trkpt><trkpt lat="43.42271961293136" lon="11.350232400546155"><ele>484.0</ele><time>2026-04-11T05:46:45.999Z</time></trkpt><trkpt lat="43.42276847387915" lon="11.350303249252516"><ele>484.0</ele><time>2026-04-11T05:46:46.999Z</time></trkpt><trkpt lat="43.42278511727982" lon="11.350391234597662"><ele>484.0</ele><time>2026-04-11T05:46:47.999Z</time></trkpt><trkpt lat="43.42281348199095" lon="11.35052587228709"><ele>484.00000000000006</ele><time>2026-04-11T05:46:49.999Z</time></trkpt><trkpt lat="43.42285416356985" lon="11.35063712343916"><ele>484.0</ele><time>2026-04-11T05:46:51.999Z</time></trkpt><trkpt lat="43.42295385179653" lon="11.350694255194325"><ele>482.4</ele><time>2026-04-11T05:46:53.999Z</time></trkpt><trkpt lat="43.4230338987935" lon="11.350703582713853"><ele>480.79999999999995</ele><time>2026-04-11T05:46:55.999Z</time></trkpt><trkpt lat="43.4231381036591" lon="11.350617668876673"><ele>479.20000000000005</ele><time>2026-04-11T05:46:57.999Z</time></trkpt><trkpt lat="43.42322362774453" lon="11.350488373367845"><ele>477.6</ele><time>2026-04-11T05:46:59.999Z</time></trkpt><trkpt lat="43.423274817821095" lon="11.350422039081229"><ele>476.0</ele><time>2026-04-11T05:47:00.999Z</time></trkpt><trkpt lat="43.42337652768556" lon="11.35035050817581"><ele>475.99999999999994</ele><time>2026-04-11T05:47:03Z</time></trkpt><trkpt lat="43.42343459172723" lon="11.350316396656995"><ele>476.0</ele><time>2026-04-11T05:47:04Z</time></trkpt><trkpt lat="43.42349369895083" lon="11.350276514753169"><ele>476.0</ele><time>2026-04-11T05:47:05Z</time></trkpt><trkpt lat="43.423563777639835" lon="11.35024024348205"><ele>476.0</ele><time>2026-04-11T05:47:06Z</time></trkpt><trkpt lat="43.423625832458626" lon="11.35021198386098"><ele>475.99999999999994</ele><time>2026-04-11T05:47:07Z</time></trkpt><trkpt lat="43.42375251821045" lon="11.350206229808466"><ele>476.0</ele><time>2026-04-11T05:47:09Z</time></trkpt><trkpt lat="43.423822461597624" lon="11.35019230696396"><ele>473.6</ele><time>2026-04-11T05:47:10Z</time></trkpt><trkpt lat="43.42391779493765" lon="11.35025970864821"><ele>471.20000000000005</ele><time>2026-04-11T05:47:12Z</time></trkpt><trkpt lat="43.423990662462614" lon="11.350394174417342"><ele>468.79999999999995</ele><time>2026-04-11T05:47:14Z</time></trkpt><trkpt lat="43.423978700584364" lon="11.350503217494168"><ele>466.4</ele><time>2026-04-11T05:47:15Z</time></trkpt><trkpt lat="43.42397401506163" lon="11.350607359264249"><ele>464.0</ele><time>2026-04-11T05:47:16Z</time></trkpt><trkpt lat="43.42396956944339" lon="11.350718527056888"><ele>462.16666666666663</ele><time>2026-04-11T05:47:17Z</time></trkpt><trkpt lat="43.42396534621074" lon="11.350832867154454"><ele>460.3333333333333</ele><time>2026-04-11T05:47:18Z</time></trkpt><trkpt lat="43.423960208571664" lon="11.350947697653398"><ele>458.5</ele><time>2026-04-11T05:47:19Z</time></trkpt><trkpt lat="43.423949087326974" lon="11.351062185217943"><ele>456.66666666666663</ele><time>2026-04-11T05:47:20Z</time></trkpt><trkpt lat="43.42393326847577" lon="11.351174575778103"><ele>454.8333333333333</ele><time>2026-04-11T05:47:21Z</time></trkpt><trkpt lat="43.42391234119108" lon="11.351288425344766"><ele>453.0</ele><time>2026-04-11T05:47:22Z</time></trkpt><trkpt lat="43.42388753273165" lon="11.35139819738257"><ele>452.8333333333333</ele><time>2026-04-11T05:47:23Z</time></trkpt><trkpt lat="43.42385982347641" lon="11.351502782320711"><ele>452.66666666666663</ele><time>2026-04-11T05:47:24Z</time></trkpt><trkpt lat="43.423828120864165" lon="11.351607098761407"><ele>452.5</ele><time>2026-04-11T05:47:25Z</time></trkpt><trkpt lat="43.42379064039106" lon="11.351711053388705"><ele>452.3333333333333</ele><time>2026-04-11T05:47:26Z</time></trkpt><trkpt lat="43.42375156821185" lon="11.351811908332694"><ele>452.16666666666663</ele><time>2026-04-11T05:47:27Z</time></trkpt><trkpt lat="43.423718516045355" lon="11.351914161611512"><ele>452.0</ele><time>2026-04-11T05:47:28Z</time></trkpt><trkpt lat="43.42368994565742" lon="11.35201963656763"><ele>451.3333333333333</ele><time>2026-04-11T05:47:29Z</time></trkpt><trkpt lat="43.42367086516064" lon="11.35212975256437"><ele>450.66666666666663</ele><time>2026-04-11T05:47:30Z</time></trkpt><trkpt lat="43.423673699714506" lon="11.352238859426878"><ele>450.0</ele><time>2026-04-11T05:47:31Z</time></trkpt><trkpt lat="43.42366779134325" lon="11.352345910546049"><ele>449.33333333333337</ele><time>2026-04-11T05:47:32Z</time></trkpt><trkpt lat="43.42367088436686" lon="11.352454878679008"><ele>448.6666666666667</ele><time>2026-04-11T05:47:33Z</time></trkpt><trkpt lat="43.42367703270138" lon="11.352567339482077"><ele>448.0</ele><time>2026-04-11T05:47:34Z</time></trkpt><trkpt lat="43.42368803450888" lon="11.352685047597406"><ele>447.1666666666667</ele><time>2026-04-11T05:47:35Z</time></trkpt><trkpt lat="43.42370338817623" lon="11.35280234033169"><ele>446.33333333333337</ele><time>2026-04-11T05:47:36Z</time></trkpt><trkpt lat="43.42371995500934" lon="11.352919714886358"><ele>445.5</ele><time>2026-04-11T05:47:37Z</time></trkpt><trkpt lat="43.42373724082279" lon="11.353041937571328"><ele>444.66666666666663</ele><time>2026-04-11T05:47:38Z</time></trkpt><trkpt lat="43.42375164505312" lon="11.353157350378785"><ele>443.8333333333333</ele><time>2026-04-11T05:47:39Z</time></trkpt><trkpt lat="43.42376988233474" lon="11.353266693223242"><ele>443.0</ele><time>2026-04-11T05:47:40Z</time></trkpt><trkpt lat="43.423768592691" lon="11.35337771988672"><ele>443.66666666666663</ele><time>2026-04-11T05:47:41Z</time></trkpt><trkpt lat="43.42378159608309" lon="11.353472313737685"><ele>444.3333333333333</ele><time>2026-04-11T05:47:42Z</time></trkpt><trkpt lat="43.42379395636665" lon="11.353567355881921"><ele>445.0</ele><time>2026-04-11T05:47:43Z</time></trkpt><trkpt lat="43.42382044850952" lon="11.353648939496221"><ele>445.66666666666663</ele><time>2026-04-11T05:47:44Z</time></trkpt><trkpt lat="43.42382680961809" lon="11.353736656589438"><ele>446.3333333333333</ele><time>2026-04-11T05:47:45Z</time></trkpt><trkpt lat="43.42384056468418" lon="11.353903283151666"><ele>447.0</ele><time>2026-04-11T05:47:47Z</time></trkpt><trkpt lat="43.423858793826" lon="11.354065492027813"><ele>444.0</ele><time>2026-04-11T05:47:49Z</time></trkpt><trkpt lat="43.42389312420292" lon="11.35421993097685"><ele>441.0</ele><time>2026-04-11T05:47:51Z</time></trkpt><trkpt lat="43.42393739598009" lon="11.3543551574773"><ele>438.0</ele><time>2026-04-11T05:47:53Z</time></trkpt><trkpt lat="43.42400911562142" lon="11.354478138100372"><ele>435.0</ele><time>2026-04-11T05:47:55Z</time></trkpt><trkpt lat="43.42408394866738" lon="11.354606909292963"><ele>431.8</ele><time>2026-04-11T05:47:57Z</time></trkpt><trkpt lat="43.42416900331855" lon="11.354743719162618"><ele>428.6</ele><time>2026-04-11T05:47:59Z</time></trkpt><trkpt lat="43.42423572997482" lon="11.354808392196695"><ele>425.4</ele><time>2026-04-11T05:48:00Z</time></trkpt><trkpt lat="43.42431928879323" lon="11.354848133579601"><ele>422.2</ele><time>2026-04-11T05:48:01Z</time></trkpt><trkpt lat="43.42440706131849" lon="11.354867912540604"><ele>419.0</ele><time>2026-04-11T05:48:02Z</time></trkpt><trkpt lat="43.42452104860295" lon="11.354873535117592"><ele>419.0</ele><time>2026-04-11T05:48:03Z</time></trkpt><trkpt lat="43.424613050431894" lon="11.354882257543302"><ele>419.0</ele><time>2026-04-11T05:48:04Z</time></trkpt><trkpt lat="43.424702853443385" lon="11.354886874552808"><ele>419.0</ele><time>2026-04-11T05:48:05Z</time></trkpt><trkpt lat="43.4247945014551" lon="11.354887718200994"><ele>419.0</ele><time>2026-04-11T05:48:06Z</time></trkpt><trkpt lat="43.424871755492724" lon="11.354887765688478"><ele>419.0</ele><time>2026-04-11T05:48:07Z</time></trkpt><trkpt lat="43.42498409241663" lon="11.354791656529944"><ele>419.99999999999994</ele><time>2026-04-11T05:48:09Z</time></trkpt><trkpt lat="43.4250162591976" lon="11.35468291231466"><ele>421.0</ele><time>2026-04-11T05:48:10Z</time></trkpt><trkpt lat="43.42502412520364" lon="11.35457247380699"><ele>422.0</ele><time>2026-04-11T05:48:11Z</time></trkpt><trkpt lat="43.42505752383048" lon="11.354482649989201"><ele>423.0</ele><time>2026-04-11T05:48:12Z</time></trkpt><trkpt lat="43.425108373479546" lon="11.354417565465027"><ele>423.99999999999994</ele><time>2026-04-11T05:48:13Z</time></trkpt><trkpt lat="43.42519736887884" lon="11.354396297105614"><ele>425.0</ele><time>2026-04-11T05:48:14Z</time></trkpt><trkpt lat="43.42528141667547" lon="11.354432487538649"><ele>425.0</ele><time>2026-04-11T05:48:15Z</time></trkpt><trkpt lat="43.42537370010467" lon="11.354424029340354"><ele>425.0</ele><time>2026-04-11T05:48:16Z</time></trkpt><trkpt lat="43.42546564272346" lon="11.354412041059994"><ele>425.0</ele><time>2026-04-11T05:48:17Z</time></trkpt><trkpt lat="43.42555634660532" lon="11.354384697175606"><ele>425.0</ele><time>2026-04-11T05:48:18Z</time></trkpt><trkpt lat="43.42563403703865" lon="11.354314560750787"><ele>425.0</ele><time>2026-04-11T05:48:19Z</time></trkpt><trkpt lat="43.42570129026649" lon="11.35423171045398"><ele>420.5</ele><time>2026-04-11T05:48:20Z</time></trkpt><trkpt lat="43.425755667889426" lon="11.35407253763177"><ele>416.0</ele><time>2026-04-11T05:48:21Z</time></trkpt><trkpt lat="43.42578143189842" lon="11.353873526171995"><ele>411.5</ele><time>2026-04-11T05:48:22Z</time></trkpt><trkpt lat="43.42580903239541" lon="11.35370431317587"><ele>407.0</ele><time>2026-04-11T05:48:23Z</time></trkpt><trkpt lat="43.42579077554758" lon="11.353511196274267"><ele>405.8</ele><time>2026-04-11T05:48:24Z</time></trkpt><trkpt lat="43.425777250900204" lon="11.353364228397552"><ele>404.6</ele><time>2026-04-11T05:48:25Z</time></trkpt><trkpt lat="43.42577162662183" lon="11.353229789106301"><ele>403.40000000000003</ele><time>2026-04-11T05:48:26Z</time></trkpt><trkpt lat="43.42577599604523" lon="11.353086112122918"><ele>402.20000000000005</ele><time>2026-04-11T05:48:27Z</time></trkpt><trkpt lat="43.4257892419362" lon="11.352936862511699"><ele>401.0</ele><time>2026-04-11T05:48:28Z</time></trkpt><trkpt lat="43.42580470136528" lon="11.352790299095542"><ele>401.0</ele><time>2026-04-11T05:48:29Z</time></trkpt><trkpt lat="43.425824677771175" lon="11.352641369626566"><ele>401.0</ele><time>2026-04-11T05:48:30Z</time></trkpt><trkpt lat="43.42585132159873" lon="11.35249576062807"><ele>401.0</ele><time>2026-04-11T05:48:31Z</time></trkpt><trkpt lat="43.42588364316621" lon="11.352362506379418"><ele>401.0</ele><time>2026-04-11T05:48:32Z</time></trkpt><trkpt lat="43.425924475509376" lon="11.352248333547276"><ele>401.0</ele><time>2026-04-11T05:48:32.999Z</time></trkpt><trkpt lat="43.42596797471699" lon="11.352129567994563"><ele>401.8333333333333</ele><time>2026-04-11T05:48:33.999Z</time></trkpt><trkpt lat="43.426055788381454" lon="11.35206585196358"><ele>402.66666666666663</ele><time>2026-04-11T05:48:34.999Z</time></trkpt><trkpt lat="43.42612436977163" lon="11.351980741722919"><ele>403.5</ele><time>2026-04-11T05:48:35.999Z</time></trkpt><trkpt lat="43.42620512372624" lon="11.351927463913103"><ele>404.33333333333337</ele><time>2026-04-11T05:48:36.999Z</time></trkpt><trkpt lat="43.42627372101106" lon="11.351867085257599"><ele>405.1666666666667</ele><time>2026-04-11T05:48:37.999Z</time></trkpt><trkpt lat="43.42634073716087" lon="11.351802357138718"><ele>406.0</ele><time>2026-04-11T05:48:38.999Z</time></trkpt><trkpt lat="43.42640654794632" lon="11.351728399940942"><ele>404.00000000000006</ele><time>2026-04-11T05:48:39.999Z</time></trkpt><trkpt lat="43.426475014795464" lon="11.351647879687397"><ele>402.0</ele><time>2026-04-11T05:48:40.999Z</time></trkpt><trkpt lat="43.42654070182467" lon="11.351556879738697"><ele>400.0</ele><time>2026-04-11T05:48:41.999Z</time></trkpt><trkpt lat="43.42660070459165" lon="11.35145429808061"><ele>398.0</ele><time>2026-04-11T05:48:42.999Z</time></trkpt><trkpt lat="43.42664762013088" lon="11.351355789677434"><ele>396.00000000000006</ele><time>2026-04-11T05:48:43.999Z</time></trkpt><trkpt lat="43.42669027020972" lon="11.351262786561012"><ele>394.0</ele><time>2026-04-11T05:48:44.999Z</time></trkpt><trkpt lat="43.42672864687168" lon="11.351168082051151"><ele>394.0</ele><time>2026-04-11T05:48:45.999Z</time></trkpt><trkpt lat="43.42676828987375" lon="11.351087939453269"><ele>394.0</ele><time>2026-04-11T05:48:46.999Z</time></trkpt><trkpt lat="43.426800711579524" lon="11.351006649506925"><ele>394.0</ele><time>2026-04-11T05:48:47.999Z</time></trkpt><trkpt lat="43.426858080816785" lon="11.350859788567973"><ele>394.0</ele><time>2026-04-11T05:48:49.999Z</time></trkpt><trkpt lat="43.426917440493995" lon="11.350717785882264"><ele>394.0</ele><time>2026-04-11T05:48:51.999Z</time></trkpt><trkpt lat="43.42697990409828" lon="11.350589440670278"><ele>394.4</ele><time>2026-04-11T05:48:53.999Z</time></trkpt><trkpt lat="43.42708091693444" lon="11.350492574277363"><ele>394.79999999999995</ele><time>2026-04-11T05:48:55.999Z</time></trkpt><trkpt lat="43.42715232263481" lon="11.350449456054267"><ele>395.20000000000005</ele><time>2026-04-11T05:48:56.999Z</time></trkpt><trkpt lat="43.427236199929354" lon="11.350413175175804"><ele>395.6</ele><time>2026-04-11T05:48:57.999Z</time></trkpt><trkpt lat="43.42734452023537" lon="11.350383165827232"><ele>396.0</ele><time>2026-04-11T05:48:58.999Z</time></trkpt><trkpt lat="43.42745584017236" lon="11.350350764185452"><ele>392.4</ele><time>2026-04-11T05:48:59.999Z</time></trkpt><trkpt lat="43.427559494199954" lon="11.35032348550851"><ele>388.8</ele><time>2026-04-11T05:49:00.999Z</time></trkpt><trkpt lat="43.42766598504496" lon="11.350276458563247"><ele>385.2</ele><time>2026-04-11T05:49:01.999Z</time></trkpt><trkpt lat="43.427765707525715" lon="11.350217672720921"><ele>381.59999999999997</ele><time>2026-04-11T05:49:02.999Z</time></trkpt><trkpt lat="43.427856237737124" lon="11.350154530826764"><ele>378.0</ele><time>2026-04-11T05:49:03.999Z</time></trkpt><trkpt lat="43.42794440322984" lon="11.35008934810214"><ele>377.8333333333333</ele><time>2026-04-11T05:49:04.999Z</time></trkpt><trkpt lat="43.42803260365185" lon="11.350038925445348"><ele>377.6666666666667</ele><time>2026-04-11T05:49:05.999Z</time></trkpt><trkpt lat="43.42812278945222" lon="11.350009803230545"><ele>377.5</ele><time>2026-04-11T05:49:06.999Z</time></trkpt><trkpt lat="43.42820976333875" lon="11.349993298298132"><ele>377.33333333333337</ele><time>2026-04-11T05:49:07.999Z</time></trkpt><trkpt lat="43.4282912696379" lon="11.349999117292738"><ele>377.1666666666667</ele><time>2026-04-11T05:49:09Z</time></trkpt><trkpt lat="43.42836415346091" lon="11.350010591872689"><ele>377.0</ele><time>2026-04-11T05:49:10Z</time></trkpt><trkpt lat="43.42842730957569" lon="11.350031600756717"><ele>377.0</ele><time>2026-04-11T05:49:11Z</time></trkpt><trkpt lat="43.42852776086301" lon="11.350092440381745"><ele>377.0</ele><time>2026-04-11T05:49:13Z</time></trkpt><trkpt lat="43.42860712213145" lon="11.350151251678211"><ele>377.0</ele><time>2026-04-11T05:49:15Z</time></trkpt><trkpt lat="43.428683684823184" lon="11.350189752306635"><ele>377.0</ele><time>2026-04-11T05:49:17Z</time></trkpt><trkpt lat="43.42874271220924" lon="11.350241605450291"><ele>377.0</ele><time>2026-04-11T05:49:19Z</time></trkpt><trkpt lat="43.428798630920625" lon="11.350294091136277"><ele>377.0</ele><time>2026-04-11T05:49:21Z</time></trkpt><trkpt lat="43.4288575471927" lon="11.350343325869124"><ele>376.99999999999994</ele><time>2026-04-11T05:49:23Z</time></trkpt><trkpt lat="43.428919473206605" lon="11.350386630771531"><ele>377.0</ele><time>2026-04-11T05:49:25Z</time></trkpt><trkpt lat="43.42898374511594" lon="11.350417212308562"><ele>377.0</ele><time>2026-04-11T05:49:27Z</time></trkpt><trkpt lat="43.42904739425073" lon="11.350462059581718"><ele>377.0</ele><time>2026-04-11T05:49:29Z</time></trkpt><trkpt lat="43.42910464535796" lon="11.350520278975054"><ele>377.0</ele><time>2026-04-11T05:49:31Z</time></trkpt><trkpt lat="43.429174496317025" lon="11.350554395958149"><ele>376.99999999999994</ele><time>2026-04-11T05:49:33Z</time></trkpt><trkpt lat="43.42923769589923" lon="11.350606427687701"><ele>377.0</ele><time>2026-04-11T05:49:35Z</time></trkpt><trkpt lat="43.429305944128686" lon="11.35066488154173"><ele>377.33333333333337</ele><time>2026-04-11T05:49:37Z</time></trkpt><trkpt lat="43.429370972969345" lon="11.350710122804927"><ele>377.6666666666667</ele><time>2026-04-11T05:49:39Z</time></trkpt><trkpt lat="43.429436183015746" lon="11.350753086151085"><ele>378.0</ele><time>2026-04-11T05:49:41Z</time></trkpt><trkpt lat="43.42949927306621" lon="11.350801565871489"><ele>378.3333333333333</ele><time>2026-04-11T05:49:43Z</time></trkpt><trkpt lat="43.429585327426665" lon="11.350848105819116"><ele>378.66666666666663</ele><time>2026-04-11T05:49:45Z</time></trkpt><trkpt lat="43.42965782521649" lon="11.350875579979345"><ele>379.0</ele><time>2026-04-11T05:49:48Z</time></trkpt><trkpt lat="43.42973199920584" lon="11.35089429240829"><ele>379.00000000000006</ele><time>2026-04-11T05:49:51Z</time></trkpt><trkpt lat="43.429801012009754" lon="11.350897173687848"><ele>379.0</ele><time>2026-04-11T05:49:54Z</time></trkpt><trkpt lat="43.4298732513501" lon="11.35089309579975"><ele>379.0</ele><time>2026-04-11T05:49:58Z</time></trkpt><trkpt lat="43.42994542351998" lon="11.350886880494746"><ele>379.0</ele><time>2026-04-11T05:50:02Z</time></trkpt><trkpt lat="43.43002295426448" lon="11.350878792327883"><ele>379.0</ele><time>2026-04-11T05:50:06Z</time></trkpt><trkpt lat="43.43009982924999" lon="11.3508648706781"><ele>379.00000000000006</ele><time>2026-04-11T05:50:10Z</time></trkpt><trkpt lat="43.43017340840871" lon="11.350864161720574"><ele>379.0</ele><time>2026-04-11T05:50:13Z</time></trkpt><trkpt lat="43.43026982846784" lon="11.350864967966947"><ele>379.0</ele><time>2026-04-11T05:50:16Z</time></trkpt><trkpt lat="43.43034794643694" lon="11.350866519852227"><ele>379.0</ele><time>2026-04-11T05:50:18Z</time></trkpt><trkpt lat="43.430433155588176" lon="11.35087909103178"><ele>379.0</ele><time>2026-04-11T05:50:20Z</time></trkpt><trkpt lat="43.43053791658148" lon="11.350899575570217"><ele>379.0</ele><time>2026-04-11T05:50:22Z</time></trkpt><trkpt lat="43.43062015904816" lon="11.350918166590922"><ele>379.0</ele><time>2026-04-11T05:50:24Z</time></trkpt><trkpt lat="43.4306956539532" lon="11.350941030639778"><ele>379.0</ele><time>2026-04-11T05:50:26Z</time></trkpt><trkpt lat="43.43077352844615" lon="11.350951110514908"><ele>379.42857142857144</ele><time>2026-04-11T05:50:28Z</time></trkpt><trkpt lat="43.43084385695096" lon="11.350945099995513"><ele>379.8571428571429</ele><time>2026-04-11T05:50:30Z</time></trkpt><trkpt lat="43.43090592903039" lon="11.350927614976165"><ele>380.28571428571433</ele><time>2026-04-11T05:50:32Z</time></trkpt><trkpt lat="43.43098410049452" lon="11.35089231657781"><ele>380.7142857142857</ele><time>2026-04-11T05:50:34.999Z</time></trkpt><trkpt lat="43.431048521360395" lon="11.350853660714494"><ele>381.1428571428571</ele><time>2026-04-11T05:50:37.999Z</time></trkpt><trkpt lat="43.43111362288354" lon="11.35079948539439"><ele>381.5714285714286</ele><time>2026-04-11T05:50:41.999Z</time></trkpt><trkpt lat="43.4311703886642" lon="11.350752001382249"><ele>382.0</ele><time>2026-04-11T05:50:45.999Z</time></trkpt><trkpt lat="43.43123455416791" lon="11.35070818993995"><ele>382.0</ele><time>2026-04-11T05:50:50.999Z</time></trkpt><trkpt lat="43.431295963620315" lon="11.350687538607945"><ele>382.0</ele><time>2026-04-11T05:50:54.999Z</time></trkpt><trkpt lat="43.431366236455624" lon="11.350677591018613"><ele>382.0</ele><time>2026-04-11T05:51:00.999Z</time></trkpt><trkpt lat="43.431435378068954" lon="11.350703804936035"><ele>382.0</ele><time>2026-04-11T05:51:06.999Z</time></trkpt><trkpt lat="43.43148431933045" lon="11.350765236711304"><ele>382.0</ele><time>2026-04-11T05:51:11.999Z</time></trkpt><trkpt lat="43.43152865700481" lon="11.35083818459556"><ele>382.0</ele><time>2026-04-11T05:51:18Z</time></trkpt><trkpt lat="43.43156668460865" lon="11.350931244518009"><ele>382.0</ele><time>2026-04-11T05:51:24Z</time></trkpt><trkpt lat="43.431607771935255" lon="11.350999971305436"><ele>384.3333333333333</ele><time>2026-04-11T05:51:29Z</time></trkpt><trkpt lat="43.43165843285673" lon="11.351057465650705"><ele>386.66666666666663</ele><time>2026-04-11T05:51:34Z</time></trkpt><trkpt lat="43.43171150605826" lon="11.351117283776922"><ele>389.0</ele><time>2026-04-11T05:51:39Z</time></trkpt><trkpt lat="43.4317645899165" lon="11.351168803482416"><ele>391.3333333333333</ele><time>2026-04-11T05:51:43Z</time></trkpt><trkpt lat="43.43183367494599" lon="11.351235060195389"><ele>393.6666666666667</ele><time>2026-04-11T05:51:47Z</time></trkpt><trkpt lat="43.43190053629934" lon="11.351293051223807"><ele>396.0</ele><time>2026-04-11T05:51:50Z</time></trkpt><trkpt lat="43.43200506779944" lon="11.351350288766781"><ele>396.0</ele><time>2026-04-11T05:51:52Z</time></trkpt><trkpt lat="43.4320754617272" lon="11.351357809824519"><ele>396.0</ele><time>2026-04-11T05:51:54Z</time></trkpt><trkpt lat="43.43215702929964" lon="11.351382403268858"><ele>396.0</ele><time>2026-04-11T05:51:55Z</time></trkpt><trkpt lat="43.43227935157385" lon="11.351398353007035"><ele>396.0</ele><time>2026-04-11T05:51:57Z</time></trkpt><trkpt lat="43.43234610880061" lon="11.351408944269474"><ele>396.0</ele><time>2026-04-11T05:51:58Z</time></trkpt><trkpt lat="43.43241704511336" lon="11.351418986675851"><ele>396.0</ele><time>2026-04-11T05:51:59Z</time></trkpt><trkpt lat="43.43249883267397" lon="11.351429605698572"><ele>396.1666666666667</ele><time>2026-04-11T05:52:00Z</time></trkpt><trkpt lat="43.43258105325156" lon="11.351437945516324"><ele>396.33333333333337</ele><time>2026-04-11T05:52:01Z</time></trkpt><trkpt lat="43.43266282534668" lon="11.351443530290606"><ele>396.5</ele><time>2026-04-11T05:52:02Z</time></trkpt><trkpt lat="43.43274822583396" lon="11.35143228793315"><ele>396.6666666666667</ele><time>2026-04-11T05:52:03Z</time></trkpt><trkpt lat="43.43283651310625" lon="11.351386137663107"><ele>396.83333333333337</ele><time>2026-04-11T05:52:04Z</time></trkpt><trkpt lat="43.4329235374316" lon="11.351335792991346"><ele>397.0</ele><time>2026-04-11T05:52:05Z</time></trkpt><trkpt lat="43.43300840726782" lon="11.351270773625942"><ele>393.8</ele><time>2026-04-11T05:52:06Z</time></trkpt><trkpt lat="43.43309100585763" lon="11.351194309139027"><ele>390.6</ele><time>2026-04-11T05:52:07Z</time></trkpt><trkpt lat="43.433181394894596" lon="11.351110530441796"><ele>387.40000000000003</ele><time>2026-04-11T05:52:08Z</time></trkpt><trkpt lat="43.43327553080508" lon="11.351024297950586"><ele>384.20000000000005</ele><time>2026-04-11T05:52:09Z</time></trkpt><trkpt lat="43.43337775681573" lon="11.350934703709125"><ele>381.0</ele><time>2026-04-11T05:52:10Z</time></trkpt><trkpt lat="43.43347305182973" lon="11.350845063709116"><ele>381.0</ele><time>2026-04-11T05:52:11Z</time></trkpt><trkpt lat="43.43356265046326" lon="11.3507547776377"><ele>381.0</ele><time>2026-04-11T05:52:12Z</time></trkpt><trkpt lat="43.433641567657745" lon="11.35063133694479"><ele>381.0</ele><time>2026-04-11T05:52:13Z</time></trkpt><trkpt lat="43.43371694532409" lon="11.350546004362482"><ele>381.0</ele><time>2026-04-11T05:52:14Z</time></trkpt><trkpt lat="43.43378671025335" lon="11.350464105588266"><ele>381.0</ele><time>2026-04-11T05:52:15Z</time></trkpt><trkpt lat="43.43385720604172" lon="11.350378295442875"><ele>381.20000000000005</ele><time>2026-04-11T05:52:16Z</time></trkpt><trkpt lat="43.433931623679705" lon="11.35029291754215"><ele>381.40000000000003</ele><time>2026-04-11T05:52:17Z</time></trkpt><trkpt lat="43.43400724569576" lon="11.350207723869845"><ele>381.6</ele><time>2026-04-11T05:52:18Z</time></trkpt><trkpt lat="43.434086086438" lon="11.350119595827053"><ele>381.8</ele><time>2026-04-11T05:52:19Z</time></trkpt><trkpt lat="43.43416294739592" lon="11.350036316607005"><ele>382.0</ele><time>2026-04-11T05:52:20Z</time></trkpt><trkpt lat="43.434234458412156" lon="11.349945706629164"><ele>382.0</ele><time>2026-04-11T05:52:21Z</time></trkpt><trkpt lat="43.43430163848938" lon="11.349860901846064"><ele>382.0</ele><time>2026-04-11T05:52:22Z</time></trkpt><trkpt lat="43.43434972874313" lon="11.349766628811299"><ele>382.0</ele><time>2026-04-11T05:52:23Z</time></trkpt><trkpt lat="43.4343903582113" lon="11.349672601561823"><ele>382.0</ele><time>2026-04-11T05:52:24Z</time></trkpt><trkpt lat="43.434427719221475" lon="11.349579483943213"><ele>382.0</ele><time>2026-04-11T05:52:25Z</time></trkpt><trkpt lat="43.43445293233074" lon="11.349468990702029"><ele>382.0</ele><time>2026-04-11T05:52:26Z</time></trkpt><trkpt lat="43.43448807415482" lon="11.349358051276663"><ele>382.3333333333333</ele><time>2026-04-11T05:52:27Z</time></trkpt><trkpt lat="43.434524050774826" lon="11.349243589976657"><ele>382.66666666666663</ele><time>2026-04-11T05:52:28Z</time></trkpt><trkpt lat="43.43455847975296" lon="11.349135065041928"><ele>383.0</ele><time>2026-04-11T05:52:29Z</time></trkpt><trkpt lat="43.43459170613437" lon="11.34903733161529"><ele>383.3333333333333</ele><time>2026-04-11T05:52:30Z</time></trkpt><trkpt lat="43.43462304626791" lon="11.348947053665047"><ele>383.6666666666667</ele><time>2026-04-11T05:52:31Z</time></trkpt><trkpt lat="43.43466328804449" lon="11.34886704714403"><ele>384.0</ele><time>2026-04-11T05:52:32Z</time></trkpt><trkpt lat="43.43471261409278" lon="11.348792857725378"><ele>384.0</ele><time>2026-04-11T05:52:33Z</time></trkpt><trkpt lat="43.43477235746991" lon="11.3487391359529"><ele>384.0</ele><time>2026-04-11T05:52:34Z</time></trkpt><trkpt lat="43.434843473006076" lon="11.348713691900118"><ele>384.0</ele><time>2026-04-11T05:52:35Z</time></trkpt><trkpt lat="43.43491427050408" lon="11.34871779753293"><ele>384.0</ele><time>2026-04-11T05:52:36Z</time></trkpt><trkpt lat="43.43501440178583" lon="11.348769716951892"><ele>384.0</ele><time>2026-04-11T05:52:38Z</time></trkpt><trkpt lat="43.43507257352353" lon="11.348807486583297"><ele>384.0</ele><time>2026-04-11T05:52:40Z</time></trkpt><trkpt lat="43.43514637473356" lon="11.348833585212482"><ele>384.0</ele><time>2026-04-11T05:52:42.999Z</time></trkpt><trkpt lat="43.43521890914415" lon="11.348838330996742"><ele>384.0</ele><time>2026-04-11T05:52:45.999Z</time></trkpt><trkpt lat="43.43529283398533" lon="11.348814833392337"><ele>384.0</ele><time>2026-04-11T05:52:48.999Z</time></trkpt><trkpt lat="43.435356659180606" lon="11.348791794351992"><ele>384.0</ele><time>2026-04-11T05:52:51.999Z</time></trkpt><trkpt lat="43.43542214865835" lon="11.348778391569736"><ele>384.0</ele><time>2026-04-11T05:52:53.999Z</time></trkpt><trkpt lat="43.4355075385973" lon="11.348745885980026"><ele>384.0</ele><time>2026-04-11T05:52:54.999Z</time></trkpt><trkpt lat="43.43560130815041" lon="11.348721142213453"><ele>383.79999999999995</ele><time>2026-04-11T05:52:56.999Z</time></trkpt><trkpt lat="43.435694582184404" lon="11.348689722394141"><ele>383.59999999999997</ele><time>2026-04-11T05:52:58.999Z</time></trkpt><trkpt lat="43.43576053052324" lon="11.348681532365779"><ele>383.4</ele><time>2026-04-11T05:52:59.999Z</time></trkpt><trkpt lat="43.435871066968595" lon="11.348691224263687"><ele>383.2</ele><time>2026-04-11T05:53:01.999Z</time></trkpt><trkpt lat="43.435961744739636" lon="11.348731219180088"><ele>383.0</ele><time>2026-04-11T05:53:03.999Z</time></trkpt><trkpt lat="43.436046044497374" lon="11.348779858597869"><ele>383.0</ele><time>2026-04-11T05:53:05.999Z</time></trkpt><trkpt lat="43.43612707058425" lon="11.34883192914085"><ele>383.0</ele><time>2026-04-11T05:53:07.999Z</time></trkpt><trkpt lat="43.43621110429936" lon="11.348886880151575"><ele>383.0</ele><time>2026-04-11T05:53:09.999Z</time></trkpt><trkpt lat="43.436295802659494" lon="11.348950706358746"><ele>383.0</ele><time>2026-04-11T05:53:11.999Z</time></trkpt><trkpt lat="43.436390188815004" lon="11.349029265837988"><ele>383.0</ele><time>2026-04-11T05:53:13.999Z</time></trkpt><trkpt lat="43.436477949530286" lon="11.349129691746867"><ele>381.0</ele><time>2026-04-11T05:53:15.999Z</time></trkpt><trkpt lat="43.43656939807602" lon="11.34923039090363"><ele>379.0</ele><time>2026-04-11T05:53:17.999Z</time></trkpt><trkpt lat="43.43666421651404" lon="11.349328949584434"><ele>377.0</ele><time>2026-04-11T05:53:20Z</time></trkpt><trkpt lat="43.43672157525499" lon="11.34937587347748"><ele>375.0</ele><time>2026-04-11T05:53:21Z</time></trkpt><trkpt lat="43.436786595133455" lon="11.349395637463159"><ele>373.0</ele><time>2026-04-11T05:53:22Z</time></trkpt><trkpt lat="43.43690525799978" lon="11.349399993483882"><ele>373.0</ele><time>2026-04-11T05:53:24Z</time></trkpt><trkpt lat="43.436967824395985" lon="11.349386739286595"><ele>373.0</ele><time>2026-04-11T05:53:25Z</time></trkpt><trkpt lat="43.43702775454378" lon="11.349354750042963"><ele>373.0</ele><time>2026-04-11T05:53:26Z</time></trkpt><trkpt lat="43.43708332243282" lon="11.349305378727236"><ele>373.0</ele><time>2026-04-11T05:53:27Z</time></trkpt><trkpt lat="43.43713083732649" lon="11.349234832358457"><ele>373.0</ele><time>2026-04-11T05:53:28Z</time></trkpt><trkpt lat="43.43716285132932" lon="11.349154813141975"><ele>373.0</ele><time>2026-04-11T05:53:29Z</time></trkpt><trkpt lat="43.437191141639154" lon="11.349069121781023"><ele>373.0</ele><time>2026-04-11T05:53:30Z</time></trkpt><trkpt lat="43.43721427716808" lon="11.348982028921219"><ele>372.59999999999997</ele><time>2026-04-11T05:53:31Z</time></trkpt><trkpt lat="43.437236869866545" lon="11.34889393759085"><ele>372.2</ele><time>2026-04-11T05:53:32Z</time></trkpt><trkpt lat="43.437246437045275" lon="11.348805667784033"><ele>371.8</ele><time>2026-04-11T05:53:33Z</time></trkpt><trkpt lat="43.43728501511919" lon="11.348651605761349"><ele>371.4</ele><time>2026-04-11T05:53:35Z</time></trkpt><trkpt lat="43.437340996252125" lon="11.348518990963635"><ele>371.0</ele><time>2026-04-11T05:53:37Z</time></trkpt><trkpt lat="43.437407877200286" lon="11.34842521574588"><ele>372.0</ele><time>2026-04-11T05:53:39Z</time></trkpt><trkpt lat="43.43749520593649" lon="11.3483703989065"><ele>373.0</ele><time>2026-04-11T05:53:41Z</time></trkpt><trkpt lat="43.43758341893729" lon="11.348361665876526"><ele>374.0</ele><time>2026-04-11T05:53:43Z</time></trkpt><trkpt lat="43.437658624014496" lon="11.348372524673636"><ele>375.0</ele><time>2026-04-11T05:53:45Z</time></trkpt><trkpt lat="43.43772928148244" lon="11.348408236778978"><ele>376.0</ele><time>2026-04-11T05:53:47Z</time></trkpt><trkpt lat="43.43778473554493" lon="11.348464691419007"><ele>377.0</ele><time>2026-04-11T05:53:49Z</time></trkpt><trkpt lat="43.437825396518285" lon="11.34853099775599"><ele>376.99999999999994</ele><time>2026-04-11T05:53:51Z</time></trkpt><trkpt lat="43.43785779955414" lon="11.348612421252183"><ele>377.0</ele><time>2026-04-11T05:53:53Z</time></trkpt><trkpt lat="43.43787961217547" lon="11.348703421289798"><ele>377.0</ele><time>2026-04-11T05:53:56Z</time></trkpt><trkpt lat="43.437898480157415" lon="11.348840104705985"><ele>377.0</ele><time>2026-04-11T05:53:59Z</time></trkpt><trkpt lat="43.43790467248582" lon="11.348934979657562"><ele>377.0</ele><time>2026-04-11T05:54:01Z</time></trkpt><trkpt lat="43.43792946971348" lon="11.349026007655333"><ele>376.99999999999994</ele><time>2026-04-11T05:54:03Z</time></trkpt><trkpt lat="43.43794866398626" lon="11.34912033456771"><ele>377.0</ele><time>2026-04-11T05:54:05Z</time></trkpt><trkpt lat="43.43798631470167" lon="11.349242435013366"><ele>376.71428571428567</ele><time>2026-04-11T05:54:08Z</time></trkpt><trkpt lat="43.43801168749564" lon="11.349324234184726"><ele>376.42857142857144</ele><time>2026-04-11T05:54:10Z</time></trkpt><trkpt lat="43.438039571156565" lon="11.349403316215348"><ele>376.1428571428571</ele><time>2026-04-11T05:54:12Z</time></trkpt><trkpt lat="43.43807416828607" lon="11.34949097913329"><ele>375.85714285714283</ele><time>2026-04-11T05:54:14Z</time></trkpt><trkpt lat="43.438101932730454" lon="11.349569661453177"><ele>375.57142857142856</ele><time>2026-04-11T05:54:16Z</time></trkpt><trkpt lat="43.43814440883991" lon="11.349638954188512"><ele>375.2857142857143</ele><time>2026-04-11T05:54:18Z</time></trkpt><trkpt lat="43.43820716168363" lon="11.349716742941272"><ele>375.0</ele><time>2026-04-11T05:54:20Z</time></trkpt><trkpt lat="43.43829442437595" lon="11.349757299924446"><ele>375.0</ele><time>2026-04-11T05:54:22Z</time></trkpt><trkpt lat="43.43837878437672" lon="11.349853951812694"><ele>375.0</ele><time>2026-04-11T05:54:25Z</time></trkpt><trkpt lat="43.43846194484749" lon="11.349900190325233"><ele>375.0</ele><time>2026-04-11T05:54:27Z</time></trkpt><trkpt lat="43.438638927135706" lon="11.349962273740939"><ele>375.0</ele><time>2026-04-11T05:54:29Z</time></trkpt><trkpt lat="43.438745737874285" lon="11.350000881971686"><ele>375.2857142857143</ele><time>2026-04-11T05:54:31Z</time></trkpt><trkpt lat="43.438806807041054" lon="11.350023241719027"><ele>375.57142857142856</ele><time>2026-04-11T05:54:32Z</time></trkpt><trkpt lat="43.438881997720515" lon="11.3500480687842"><ele>375.85714285714283</ele><time>2026-04-11T05:54:33Z</time></trkpt><trkpt lat="43.438950657008505" lon="11.350068276935492"><ele>376.1428571428571</ele><time>2026-04-11T05:54:34Z</time></trkpt><trkpt lat="43.43902137411978" lon="11.35009226773051"><ele>376.42857142857144</ele><time>2026-04-11T05:54:35Z</time></trkpt><trkpt lat="43.4390964324289" lon="11.350126575137683"><ele>376.71428571428567</ele><time>2026-04-11T05:54:36Z</time></trkpt><trkpt lat="43.43916958679373" lon="11.350163054976749"><ele>377.0</ele><time>2026-04-11T05:54:37Z</time></trkpt><trkpt lat="43.43924505534679" lon="11.350205420465048"><ele>377.0</ele><time>2026-04-11T05:54:38Z</time></trkpt><trkpt lat="43.43932863249891" lon="11.350240517069574"><ele>377.0</ele><time>2026-04-11T05:54:38.999Z</time></trkpt><trkpt lat="43.43940972434277" lon="11.350276452145057"><ele>377.0</ele><time>2026-04-11T05:54:39.999Z</time></trkpt><trkpt lat="43.439495567566894" lon="11.350312078106848"><ele>377.0</ele><time>2026-04-11T05:54:40.999Z</time></trkpt><trkpt lat="43.43958559087198" lon="11.350349914325783"><ele>377.0</ele><time>2026-04-11T05:54:41.999Z</time></trkpt><trkpt lat="43.439672292852265" lon="11.350414088648751"><ele>376.75</ele><time>2026-04-11T05:54:42.999Z</time></trkpt><trkpt lat="43.439785209814524" lon="11.3504539709811"><ele>376.5</ele><time>2026-04-11T05:54:43.999Z</time></trkpt><trkpt lat="43.43988617155549" lon="11.350521096492178"><ele>376.25</ele><time>2026-04-11T05:54:44.999Z</time></trkpt><trkpt lat="43.43999896559981" lon="11.350602062428145"><ele>376.0</ele><time>2026-04-11T05:54:45.999Z</time></trkpt><trkpt lat="43.44010543399391" lon="11.350686633203418"><ele>375.4</ele><time>2026-04-11T05:54:46.999Z</time></trkpt><trkpt lat="43.44019119750351" lon="11.35078594762918"><ele>374.8</ele><time>2026-04-11T05:54:47.999Z</time></trkpt><trkpt lat="43.44025385878452" lon="11.350912996816266"><ele>374.2</ele><time>2026-04-11T05:54:48.999Z</time></trkpt><trkpt lat="43.44029869747989" lon="11.351043347297333"><ele>373.59999999999997</ele><time>2026-04-11T05:54:49.999Z</time></trkpt><trkpt lat="43.440335993909216" lon="11.351178092735697"><ele>373.0</ele><time>2026-04-11T05:54:50.999Z</time></trkpt><trkpt lat="43.440360060966675" lon="11.351295496808257"><ele>373.0</ele><time>2026-04-11T05:54:51.999Z</time></trkpt><trkpt lat="43.44039884373982" lon="11.351412466774645"><ele>373.0</ele><time>2026-04-11T05:54:52.999Z</time></trkpt><trkpt lat="43.440448936608675" lon="11.351518722821481"><ele>373.0</ele><time>2026-04-11T05:54:53.999Z</time></trkpt><trkpt lat="43.440505242408925" lon="11.351627022752986"><ele>373.0</ele><time>2026-04-11T05:54:54.999Z</time></trkpt><trkpt lat="43.440539216123575" lon="11.351724666540138"><ele>373.0</ele><time>2026-04-11T05:54:55.999Z</time></trkpt><trkpt lat="43.44055866329611" lon="11.351835019037052"><ele>373.0</ele><time>2026-04-11T05:54:56.999Z</time></trkpt><trkpt lat="43.44056750218041" lon="11.351949269846594"><ele>373.0</ele><time>2026-04-11T05:54:57.999Z</time></trkpt><trkpt lat="43.44056738816722" lon="11.352065658072783"><ele>373.0</ele><time>2026-04-11T05:54:58.999Z</time></trkpt><trkpt lat="43.44057406769766" lon="11.352178595522345"><ele>373.0</ele><time>2026-04-11T05:54:59.999Z</time></trkpt><trkpt lat="43.440589229667566" lon="11.352287626854208"><ele>373.0</ele><time>2026-04-11T05:55:00.999Z</time></trkpt><trkpt lat="43.44060816401273" lon="11.352396456788151"><ele>373.0</ele><time>2026-04-11T05:55:01.999Z</time></trkpt><trkpt lat="43.44062941251372" lon="11.352508835438924"><ele>373.0</ele><time>2026-04-11T05:55:02.999Z</time></trkpt><trkpt lat="43.4406519476754" lon="11.352614905103545"><ele>372.0</ele><time>2026-04-11T05:55:03.999Z</time></trkpt><trkpt lat="43.44067080032126" lon="11.352725949401075"><ele>371.0</ele><time>2026-04-11T05:55:04.999Z</time></trkpt><trkpt lat="43.440688818335694" lon="11.352839197454983"><ele>370.0</ele><time>2026-04-11T05:55:05.999Z</time></trkpt><trkpt lat="43.44070322792341" lon="11.352947787265355"><ele>369.0</ele><time>2026-04-11T05:55:06.999Z</time></trkpt><trkpt lat="43.44071574386181" lon="11.353052265072003"><ele>368.0</ele><time>2026-04-11T05:55:07.999Z</time></trkpt><trkpt lat="43.440724699264834" lon="11.353155601008929"><ele>367.0</ele><time>2026-04-11T05:55:08.999Z</time></trkpt><trkpt lat="43.44073140839925" lon="11.353254938531707"><ele>366.0</ele><time>2026-04-11T05:55:09.999Z</time></trkpt><trkpt lat="43.440741075406635" lon="11.353348665171133"><ele>365.0</ele><time>2026-04-11T05:55:10.999Z</time></trkpt><trkpt lat="43.44075544977253" lon="11.353438238537821"><ele>364.0</ele><time>2026-04-11T05:55:11.999Z</time></trkpt><trkpt lat="43.440767974104794" lon="11.353524484475344"><ele>363.0</ele><time>2026-04-11T05:55:12.999Z</time></trkpt><trkpt lat="43.44077989254856" lon="11.35369462579412"><ele>362.0</ele><time>2026-04-11T05:55:14.999Z</time></trkpt><trkpt lat="43.4407958907788" lon="11.353859753553724"><ele>361.0</ele><time>2026-04-11T05:55:16.999Z</time></trkpt><trkpt lat="43.44081559326749" lon="11.354020835562743"><ele>359.5</ele><time>2026-04-11T05:55:18.999Z</time></trkpt><trkpt lat="43.44085063315854" lon="11.354177691526916"><ele>358.0</ele><time>2026-04-11T05:55:20.999Z</time></trkpt><trkpt lat="43.44089475855224" lon="11.354339583957401"><ele>356.5</ele><time>2026-04-11T05:55:22.999Z</time></trkpt><trkpt lat="43.44093202168763" lon="11.354507204456917"><ele>355.0</ele><time>2026-04-11T05:55:24.999Z</time></trkpt><trkpt lat="43.44096461929227" lon="11.3546718645084"><ele>354.6</ele><time>2026-04-11T05:55:27Z</time></trkpt><trkpt lat="43.441001244419674" lon="11.35482906724584"><ele>354.2</ele><time>2026-04-11T05:55:29Z</time></trkpt><trkpt lat="43.44102891232798" lon="11.354968309260073"><ele>353.79999999999995</ele><time>2026-04-11T05:55:31Z</time></trkpt><trkpt lat="43.441034915544854" lon="11.355096169627492"><ele>353.4</ele><time>2026-04-11T05:55:33Z</time></trkpt><trkpt lat="43.44104582987667" lon="11.355221017016133"><ele>353.0</ele><time>2026-04-11T05:55:35Z</time></trkpt><trkpt lat="43.44104263371105" lon="11.355386599520976"><ele>353.0</ele><time>2026-04-11T05:55:38Z</time></trkpt><trkpt lat="43.44104440249584" lon="11.355488379943953"><ele>353.0</ele><time>2026-04-11T05:55:39Z</time></trkpt><trkpt lat="43.44098426949713" lon="11.35560087673576"><ele>353.0</ele><time>2026-04-11T05:55:41Z</time></trkpt><trkpt lat="43.44097782288981" lon="11.355771659645974"><ele>353.0</ele><time>2026-04-11T05:55:44Z</time></trkpt><trkpt lat="43.441041614402174" lon="11.355879976576492"><ele>353.0</ele><time>2026-04-11T05:55:46Z</time></trkpt><trkpt lat="43.44114926510751" lon="11.355896959526286"><ele>352.83333333333337</ele><time>2026-04-11T05:55:48Z</time></trkpt><trkpt lat="43.44121356489694" lon="11.355861628751889"><ele>352.6666666666667</ele><time>2026-04-11T05:55:49Z</time></trkpt><trkpt lat="43.441282307826775" lon="11.355820068108127"><ele>352.5</ele><time>2026-04-11T05:55:50Z</time></trkpt><trkpt lat="43.441335542668504" lon="11.355773719634351"><ele>352.3333333333333</ele><time>2026-04-11T05:55:51Z</time></trkpt><trkpt lat="43.44142371340694" lon="11.355654870342047"><ele>352.16666666666663</ele><time>2026-04-11T05:55:53Z</time></trkpt><trkpt lat="43.44145950814868" lon="11.355582138235665"><ele>352.0</ele><time>2026-04-11T05:55:54Z</time></trkpt><trkpt lat="43.44149951795175" lon="11.355507725325452"><ele>352.5</ele><time>2026-04-11T05:55:55Z</time></trkpt><trkpt lat="43.44154347269758" lon="11.355436971636331"><ele>353.0</ele><time>2026-04-11T05:55:56Z</time></trkpt><trkpt lat="43.44159314790307" lon="11.355375014925976"><ele>353.5</ele><time>2026-04-11T05:55:57Z</time></trkpt><trkpt lat="43.441659305110356" lon="11.35533287599705"><ele>354.0</ele><time>2026-04-11T05:55:58Z</time></trkpt><trkpt lat="43.441734089839514" lon="11.35530868565117"><ele>354.5</ele><time>2026-04-11T05:55:59Z</time></trkpt><trkpt lat="43.44181748688936" lon="11.355292511477199"><ele>355.0</ele><time>2026-04-11T05:56:00Z</time></trkpt><trkpt lat="43.441905616506816" lon="11.355317932261743"><ele>355.0</ele><time>2026-04-11T05:56:01Z</time></trkpt><trkpt lat="43.44198575112187" lon="11.355293921883815"><ele>355.0</ele><time>2026-04-11T05:56:02Z</time></trkpt><trkpt lat="43.442071614015745" lon="11.355294063471753"><ele>355.0</ele><time>2026-04-11T05:56:03Z</time></trkpt><trkpt lat="43.4421597224814" lon="11.355282270508424"><ele>355.0</ele><time>2026-04-11T05:56:04Z</time></trkpt><trkpt lat="43.442243828057165" lon="11.355262665779097"><ele>355.0</ele><time>2026-04-11T05:56:05Z</time></trkpt><trkpt lat="43.44233855756253" lon="11.355208654262487"><ele>355.0</ele><time>2026-04-11T05:56:06Z</time></trkpt><trkpt lat="43.442425049913325" lon="11.35513823225188"><ele>351.2</ele><time>2026-04-11T05:56:07Z</time></trkpt><trkpt lat="43.44250906612519" lon="11.355036375419159"><ele>347.4</ele><time>2026-04-11T05:56:08Z</time></trkpt><trkpt lat="43.442598527750334" lon="11.354958483300313"><ele>343.6</ele><time>2026-04-11T05:56:09Z</time></trkpt><trkpt lat="43.4426836687972" lon="11.354881687586555"><ele>339.8</ele><time>2026-04-11T05:56:10Z</time></trkpt><trkpt lat="43.44277180460627" lon="11.354808284444573"><ele>336.0</ele><time>2026-04-11T05:56:11Z</time></trkpt><trkpt lat="43.442870881681316" lon="11.354745410548881"><ele>335.5</ele><time>2026-04-11T05:56:12Z</time></trkpt><trkpt lat="43.4429720606241" lon="11.354688840703556"><ele>335.0</ele><time>2026-04-11T05:56:13Z</time></trkpt><trkpt lat="43.44308085321309" lon="11.354629784261713"><ele>334.5</ele><time>2026-04-11T05:56:14Z</time></trkpt><trkpt lat="43.44319193568364" lon="11.354564314854532"><ele>334.0</ele><time>2026-04-11T05:56:15Z</time></trkpt><trkpt lat="43.44330182211509" lon="11.354493464759857"><ele>334.0</ele><time>2026-04-11T05:56:16Z</time></trkpt><trkpt lat="43.4434123362512" lon="11.354418556015327"><ele>334.0</ele><time>2026-04-11T05:56:17Z</time></trkpt><trkpt lat="43.44351950674537" lon="11.354342737933777"><ele>334.0</ele><time>2026-04-11T05:56:18Z</time></trkpt><trkpt lat="43.44362474981778" lon="11.354272887227673"><ele>334.0</ele><time>2026-04-11T05:56:19Z</time></trkpt><trkpt lat="43.44373181615242" lon="11.354208535862865"><ele>332.0</ele><time>2026-04-11T05:56:20Z</time></trkpt><trkpt lat="43.44382952228857" lon="11.354139413772957"><ele>330.0</ele><time>2026-04-11T05:56:21Z</time></trkpt><trkpt lat="43.443921526661036" lon="11.354075326527697"><ele>328.0</ele><time>2026-04-11T05:56:22Z</time></trkpt><trkpt lat="43.444010269742506" lon="11.354021268134977"><ele>326.0</ele><time>2026-04-11T05:56:23Z</time></trkpt><trkpt lat="43.44409587099936" lon="11.353965234327696"><ele>324.0</ele><time>2026-04-11T05:56:24Z</time></trkpt><trkpt lat="43.44418215242496" lon="11.353947717343571"><ele>324.0</ele><time>2026-04-11T05:56:25Z</time></trkpt><trkpt lat="43.44426092411354" lon="11.35391395637861"><ele>324.0</ele><time>2026-04-11T05:56:26Z</time></trkpt><trkpt lat="43.4443434869989" lon="11.353881567244121"><ele>324.0</ele><time>2026-04-11T05:56:27Z</time></trkpt><trkpt lat="43.444412641001904" lon="11.353839384821576"><ele>324.0</ele><time>2026-04-11T05:56:28Z</time></trkpt><trkpt lat="43.44448850387937" lon="11.353820287269283"><ele>324.0</ele><time>2026-04-11T05:56:29Z</time></trkpt><trkpt lat="43.44456279062556" lon="11.353801316794696"><ele>324.0</ele><time>2026-04-11T05:56:30Z</time></trkpt><trkpt lat="43.44464019619589" lon="11.353777863964584"><ele>324.42857142857144</ele><time>2026-04-11T05:56:31Z</time></trkpt><trkpt lat="43.444714356591135" lon="11.353753571575742"><ele>324.85714285714283</ele><time>2026-04-11T05:56:32Z</time></trkpt><trkpt lat="43.44479285211558" lon="11.353739950726485"><ele>325.2857142857143</ele><time>2026-04-11T05:56:33Z</time></trkpt><trkpt lat="43.44486044341074" lon="11.353762099077029"><ele>325.7142857142857</ele><time>2026-04-11T05:56:34Z</time></trkpt><trkpt lat="43.44490765127623" lon="11.35384656258582"><ele>326.14285714285717</ele><time>2026-04-11T05:56:35Z</time></trkpt><trkpt lat="43.44493317476663" lon="11.353938526755083"><ele>326.57142857142856</ele><time>2026-04-11T05:56:36Z</time></trkpt><trkpt lat="43.444916617870156" lon="11.35402922800045"><ele>327.0</ele><time>2026-04-11T05:56:37Z</time></trkpt><trkpt lat="43.44493708540734" lon="11.35417518008804"><ele>327.1666666666667</ele><time>2026-04-11T05:56:39Z</time></trkpt><trkpt lat="43.44495484378241" lon="11.354329416609463"><ele>327.3333333333333</ele><time>2026-04-11T05:56:41Z</time></trkpt><trkpt lat="43.44498396255868" lon="11.354488523963207"><ele>327.5</ele><time>2026-04-11T05:56:43Z</time></trkpt><trkpt lat="43.445019703536275" lon="11.354561253096389"><ele>327.66666666666663</ele><time>2026-04-11T05:56:44Z</time></trkpt><trkpt lat="43.4450582414548" lon="11.35463367235258"><ele>327.8333333333333</ele><time>2026-04-11T05:56:45Z</time></trkpt><trkpt lat="43.44509951824342" lon="11.35470207984433"><ele>328.0</ele><time>2026-04-11T05:56:45.999Z</time></trkpt><trkpt lat="43.445145104767164" lon="11.354765377759705"><ele>327.59999999999997</ele><time>2026-04-11T05:56:46.999Z</time></trkpt><trkpt lat="43.44519395717277" lon="11.354823496938486"><ele>327.2</ele><time>2026-04-11T05:56:47.999Z</time></trkpt><trkpt lat="43.445293041496335" lon="11.354925170158877"><ele>326.8</ele><time>2026-04-11T05:56:49.999Z</time></trkpt><trkpt lat="43.44539557050569" lon="11.35501404352175"><ele>326.4</ele><time>2026-04-11T05:56:51.999Z</time></trkpt><trkpt lat="43.44550214849373" lon="11.355089154402513"><ele>326.0</ele><time>2026-04-11T05:56:53.999Z</time></trkpt><trkpt lat="43.4456106698916" lon="11.355158474465691"><ele>327.20000000000005</ele><time>2026-04-11T05:56:55.999Z</time></trkpt><trkpt lat="43.44572161573195" lon="11.35519700826945"><ele>328.40000000000003</ele><time>2026-04-11T05:56:57.999Z</time></trkpt><trkpt lat="43.44582086051328" lon="11.355215297161088"><ele>329.6</ele><time>2026-04-11T05:56:59.999Z</time></trkpt><trkpt lat="43.44590885009219" lon="11.35521903568558"><ele>330.8</ele><time>2026-04-11T05:57:01.999Z</time></trkpt><trkpt lat="43.446021544576105" lon="11.355223493722084"><ele>332.0</ele><time>2026-04-11T05:57:04.999Z</time></trkpt><trkpt lat="43.446105813133265" lon="11.355233311553013"><ele>332.0</ele><time>2026-04-11T05:57:06.999Z</time></trkpt><trkpt lat="43.44629122759982" lon="11.355251070275127"><ele>332.0</ele><time>2026-04-11T05:57:09.999Z</time></trkpt><trkpt lat="43.446398910582595" lon="11.355266862025317"><ele>332.0</ele><time>2026-04-11T05:57:11.999Z</time></trkpt><trkpt lat="43.44650341801031" lon="11.355284765770481"><ele>332.0</ele><time>2026-04-11T05:57:13.999Z</time></trkpt><trkpt lat="43.44660820923242" lon="11.35529616908007"><ele>333.0</ele><time>2026-04-11T05:57:15.999Z</time></trkpt><trkpt lat="43.44670517679921" lon="11.355331688647878"><ele>334.0</ele><time>2026-04-11T05:57:17.999Z</time></trkpt><trkpt lat="43.44680778539516" lon="11.355328953038727"><ele>335.0</ele><time>2026-04-11T05:57:19.999Z</time></trkpt><trkpt lat="43.44690372021596" lon="11.355355440937657"><ele>336.0</ele><time>2026-04-11T05:57:21.999Z</time></trkpt><trkpt lat="43.447003620350046" lon="11.355374205328447"><ele>337.0</ele><time>2026-04-11T05:57:23.999Z</time></trkpt><trkpt lat="43.44710123523621" lon="11.355391502241487"><ele>336.0</ele><time>2026-04-11T05:57:25.999Z</time></trkpt><trkpt lat="43.4471795560313" lon="11.35541660420554"><ele>335.0</ele><time>2026-04-11T05:57:27.999Z</time></trkpt><trkpt lat="43.447254245546326" lon="11.35544031636299"><ele>334.0</ele><time>2026-04-11T05:57:29.999Z</time></trkpt><trkpt lat="43.44732877996284" lon="11.355456558269923"><ele>333.0</ele><time>2026-04-11T05:57:33Z</time></trkpt><trkpt lat="43.44740584590758" lon="11.355484209192086"><ele>332.0</ele><time>2026-04-11T05:57:36Z</time></trkpt><trkpt lat="43.44749312504662" lon="11.355517767667639"><ele>331.0</ele><time>2026-04-11T05:57:39Z</time></trkpt><trkpt lat="43.44756447576009" lon="11.35555294948064"><ele>331.0</ele><time>2026-04-11T05:57:41Z</time></trkpt><trkpt lat="43.44764085871301" lon="11.355612730025674"><ele>331.0</ele><time>2026-04-11T05:57:44Z</time></trkpt><trkpt lat="43.4477173117976" lon="11.355675205762623"><ele>331.0</ele><time>2026-04-11T05:57:47Z</time></trkpt><trkpt lat="43.447786620086596" lon="11.355707160664165"><ele>331.0</ele><time>2026-04-11T05:57:49Z</time></trkpt><trkpt lat="43.44786175435478" lon="11.355760140637896"><ele>331.0</ele><time>2026-04-11T05:57:52Z</time></trkpt><trkpt lat="43.44793696922544" lon="11.35581554330407"><ele>331.0</ele><time>2026-04-11T05:57:54Z</time></trkpt><trkpt lat="43.44812137107931" lon="11.355858678567705"><ele>332.0</ele><time>2026-04-11T05:57:55Z</time></trkpt><trkpt lat="43.44821976984329" lon="11.355908605852594"><ele>333.0</ele><time>2026-04-11T05:57:57Z</time></trkpt><trkpt lat="43.44832293562361" lon="11.355943250349137"><ele>334.0</ele><time>2026-04-11T05:57:59Z</time></trkpt><trkpt lat="43.44841562339412" lon="11.356014592439578"><ele>335.0</ele><time>2026-04-11T05:58:01Z</time></trkpt><trkpt lat="43.448507098707566" lon="11.356073051850954"><ele>336.0</ele><time>2026-04-11T05:58:03Z</time></trkpt><trkpt lat="43.44860115834673" lon="11.356137543340564"><ele>336.0</ele><time>2026-04-11T05:58:05Z</time></trkpt><trkpt lat="43.44869196893806" lon="11.356189618390978"><ele>336.0</ele><time>2026-04-11T05:58:07Z</time></trkpt><trkpt lat="43.44876464179408" lon="11.35623328695101"><ele>336.0</ele><time>2026-04-11T05:58:09Z</time></trkpt><trkpt lat="43.44883547145979" lon="11.356275592438532"><ele>336.0</ele><time>2026-04-11T05:58:11Z</time></trkpt><trkpt lat="43.44889303951568" lon="11.35632151846402"><ele>336.0</ele><time>2026-04-11T05:58:13Z</time></trkpt><trkpt lat="43.44895202063022" lon="11.356366914176874"><ele>336.0</ele><time>2026-04-11T05:58:15Z</time></trkpt><trkpt lat="43.44905259971291" lon="11.35644394343439"><ele>335.3333333333333</ele><time>2026-04-11T05:58:18Z</time></trkpt><trkpt lat="43.44911601437944" lon="11.356506100180317"><ele>334.6666666666667</ele><time>2026-04-11T05:58:20Z</time></trkpt><trkpt lat="43.44918111040723" lon="11.356561239949265"><ele>334.0</ele><time>2026-04-11T05:58:22Z</time></trkpt><trkpt lat="43.44923923483823" lon="11.356606095990735"><ele>333.33333333333337</ele><time>2026-04-11T05:58:24Z</time></trkpt><trkpt lat="43.449321427089835" lon="11.356653936952206"><ele>332.6666666666667</ele><time>2026-04-11T05:58:27Z</time></trkpt><trkpt lat="43.449398652737365" lon="11.356685928422275"><ele>332.0</ele><time>2026-04-11T05:58:30Z</time></trkpt><trkpt lat="43.449479311616656" lon="11.356706198613233"><ele>332.0</ele><time>2026-04-11T05:58:33Z</time></trkpt><trkpt lat="43.44956561955466" lon="11.356717714455552"><ele>332.0</ele><time>2026-04-11T05:58:36Z</time></trkpt><trkpt lat="43.44962794222161" lon="11.35673487354827"><ele>332.0</ele><time>2026-04-11T05:58:38Z</time></trkpt><trkpt lat="43.44970785837583" lon="11.35675663129244"><ele>332.0</ele><time>2026-04-11T05:58:42Z</time></trkpt><trkpt lat="43.449790194588765" lon="11.3567736283442"><ele>332.0</ele><time>2026-04-11T05:58:45Z</time></trkpt><trkpt lat="43.44986801635394" lon="11.35678027714816"><ele>332.0</ele><time>2026-04-11T05:58:48Z</time></trkpt><trkpt lat="43.449941394421224" lon="11.356773290521305"><ele>333.33333333333337</ele><time>2026-04-11T05:58:50.999Z</time></trkpt><trkpt lat="43.450015901609525" lon="11.356751106431258"><ele>334.6666666666667</ele><time>2026-04-11T05:58:53.999Z</time></trkpt><trkpt lat="43.45009026324101" lon="11.356714026507714"><ele>336.0</ele><time>2026-04-11T05:58:56.999Z</time></trkpt><trkpt lat="43.450155906696814" lon="11.356665452217802"><ele>337.3333333333333</ele><time>2026-04-11T05:58:59.999Z</time></trkpt><trkpt lat="43.45022065398938" lon="11.356607068671906"><ele>338.66666666666663</ele><time>2026-04-11T05:59:02.999Z</time></trkpt><trkpt lat="43.450298456419716" lon="11.356538940128326"><ele>340.0</ele><time>2026-04-11T05:59:05.999Z</time></trkpt><trkpt lat="43.45043947790578" lon="11.356418250737661"><ele>341.16666666666663</ele><time>2026-04-11T05:59:07.999Z</time></trkpt><trkpt lat="43.450500715754615" lon="11.356357478563769"><ele>342.3333333333333</ele><time>2026-04-11T05:59:09.999Z</time></trkpt><trkpt lat="43.45055405644568" lon="11.356299231952706"><ele>343.5</ele><time>2026-04-11T05:59:11.999Z</time></trkpt><trkpt lat="43.45061822818856" lon="11.356229535148742"><ele>344.6666666666667</ele><time>2026-04-11T05:59:14.999Z</time></trkpt><trkpt lat="43.45068404514924" lon="11.35615249995436"><ele>345.83333333333337</ele><time>2026-04-11T05:59:18.999Z</time></trkpt><trkpt lat="43.450742262456174" lon="11.356093758547157"><ele>347.0</ele><time>2026-04-11T05:59:21.999Z</time></trkpt><trkpt lat="43.4508005309471" lon="11.35602810940361"><ele>347.0</ele><time>2026-04-11T05:59:23.999Z</time></trkpt><trkpt lat="43.450869939060155" lon="11.355943738021713"><ele>347.0</ele><time>2026-04-11T05:59:25.999Z</time></trkpt><trkpt lat="43.45095138022769" lon="11.355833561799555"><ele>347.0</ele><time>2026-04-11T05:59:27.999Z</time></trkpt><trkpt lat="43.45101869000715" lon="11.35581131197626"><ele>347.0</ele><time>2026-04-11T05:59:28.999Z</time></trkpt><trkpt lat="43.451110057533455" lon="11.35570488498753"><ele>347.0</ele><time>2026-04-11T05:59:30.999Z</time></trkpt><trkpt lat="43.45116872902266" lon="11.35565303251094"><ele>347.0</ele><time>2026-04-11T05:59:31.999Z</time></trkpt><trkpt lat="43.451237411945314" lon="11.355602174856898"><ele>347.0</ele><time>2026-04-11T05:59:32.999Z</time></trkpt><trkpt lat="43.45130161483928" lon="11.355559298973487"><ele>347.0</ele><time>2026-04-11T05:59:33.999Z</time></trkpt><trkpt lat="43.45136592609146" lon="11.355515608958"><ele>347.0</ele><time>2026-04-11T05:59:34.999Z</time></trkpt><trkpt lat="43.45142830264153" lon="11.355473233162943"><ele>347.0</ele><time>2026-04-11T05:59:35.999Z</time></trkpt><trkpt lat="43.451489523582715" lon="11.355431642465359"><ele>347.0</ele><time>2026-04-11T05:59:36.999Z</time></trkpt><trkpt lat="43.45154855255844" lon="11.35539647542532"><ele>347.0</ele><time>2026-04-11T05:59:38Z</time></trkpt><trkpt lat="43.45166466054684" lon="11.355343954827706"><ele>347.40000000000003</ele><time>2026-04-11T05:59:40Z</time></trkpt><trkpt lat="43.45177809994628" lon="11.355319909538938"><ele>347.8</ele><time>2026-04-11T05:59:42Z</time></trkpt><trkpt lat="43.4518856930017" lon="11.355297334206686"><ele>348.2</ele><time>2026-04-11T05:59:44Z</time></trkpt><trkpt lat="43.45196998143147" lon="11.35525201537682"><ele>348.6</ele><time>2026-04-11T05:59:46Z</time></trkpt><trkpt lat="43.452042323257615" lon="11.35523894707741"><ele>349.0</ele><time>2026-04-11T05:59:48Z</time></trkpt><trkpt lat="43.45212555382669" lon="11.355199746390664"><ele>347.6</ele><time>2026-04-11T05:59:50Z</time></trkpt><trkpt lat="43.452211026173664" lon="11.355167165022946"><ele>346.2</ele><time>2026-04-11T05:59:52Z</time></trkpt><trkpt lat="43.45230298587432" lon="11.355123087747112"><ele>344.8</ele><time>2026-04-11T05:59:54Z</time></trkpt><trkpt lat="43.452398829357094" lon="11.355103018380332"><ele>343.40000000000003</ele><time>2026-04-11T05:59:56Z</time></trkpt><trkpt lat="43.45249741859101" lon="11.355057617168207"><ele>342.0</ele><time>2026-04-11T05:59:58Z</time></trkpt><trkpt lat="43.452587433954896" lon="11.354989446999182"><ele>342.0</ele><time>2026-04-11T06:00:00Z</time></trkpt><trkpt lat="43.452687740858266" lon="11.354957188082253"><ele>342.0</ele><time>2026-04-11T06:00:02Z</time></trkpt><trkpt lat="43.45277796526261" lon="11.354907086150687"><ele>342.0</ele><time>2026-04-11T06:00:04Z</time></trkpt><trkpt lat="43.45287309610659" lon="11.354848996901413"><ele>342.0</ele><time>2026-04-11T06:00:06Z</time></trkpt><trkpt lat="43.45297251240929" lon="11.354789306398658"><ele>342.0</ele><time>2026-04-11T06:00:08Z</time></trkpt><trkpt lat="43.45308153647314" lon="11.354725123701789"><ele>342.5</ele><time>2026-04-11T06:00:10Z</time></trkpt><trkpt lat="43.45318210016108" lon="11.354667058849389"><ele>343.0</ele><time>2026-04-11T06:00:12Z</time></trkpt><trkpt lat="43.45329207944546" lon="11.354605252327849"><ele>343.5</ele><time>2026-04-11T06:00:14Z</time></trkpt><trkpt lat="43.45339843287283" lon="11.354525143899004"><ele>344.0</ele><time>2026-04-11T06:00:16Z</time></trkpt><trkpt lat="43.45350940036755" lon="11.354492089195563"><ele>344.0</ele><time>2026-04-11T06:00:18Z</time></trkpt><trkpt lat="43.45361085375824" lon="11.354440881269817"><ele>344.0</ele><time>2026-04-11T06:00:20Z</time></trkpt><trkpt lat="43.4537095704397" lon="11.354368683227515"><ele>344.0</ele><time>2026-04-11T06:00:22Z</time></trkpt><trkpt lat="43.45381020694363" lon="11.354319692759757"><ele>344.0</ele><time>2026-04-11T06:00:24Z</time></trkpt><trkpt lat="43.4539227468947" lon="11.35429190614927"><ele>344.0</ele><time>2026-04-11T06:00:26Z</time></trkpt><trkpt lat="43.454010683432465" lon="11.354225797170608"><ele>342.4</ele><time>2026-04-11T06:00:28Z</time></trkpt><trkpt lat="43.45410658735441" lon="11.35425859461395"><ele>340.79999999999995</ele><time>2026-04-11T06:00:30Z</time></trkpt><trkpt lat="43.4541986031279" lon="11.354349472349137"><ele>339.20000000000005</ele><time>2026-04-11T06:00:32Z</time></trkpt><trkpt lat="43.45426112377308" lon="11.35437476205536"><ele>337.6</ele><time>2026-04-11T06:00:33Z</time></trkpt><trkpt lat="43.45438253881078" lon="11.354372103314184"><ele>336.0</ele><time>2026-04-11T06:00:35Z</time></trkpt><trkpt lat="43.45449309086712" lon="11.354326309708014"><ele>336.0</ele><time>2026-04-11T06:00:37Z</time></trkpt><trkpt lat="43.45458160074551" lon="11.35425977898186"><ele>336.0</ele><time>2026-04-11T06:00:39Z</time></trkpt><trkpt lat="43.45464548330061" lon="11.354213100233917"><ele>336.0</ele><time>2026-04-11T06:00:41Z</time></trkpt><trkpt lat="43.454720789541135" lon="11.354164634935536"><ele>336.0</ele><time>2026-04-11T06:00:45Z</time></trkpt><trkpt lat="43.45479140221834" lon="11.354119934428251"><ele>336.0</ele><time>2026-04-11T06:00:49Z</time></trkpt><trkpt lat="43.45485355908088" lon="11.354082951593869"><ele>336.0</ele><time>2026-04-11T06:00:52Z</time></trkpt><trkpt lat="43.454920845024475" lon="11.354048563436507"><ele>337.1666666666667</ele><time>2026-04-11T06:00:55.999Z</time></trkpt><trkpt lat="43.45498471034133" lon="11.35402378628326"><ele>338.3333333333333</ele><time>2026-04-11T06:00:59.999Z</time></trkpt><trkpt lat="43.45503999266222" lon="11.353952071820546"><ele>339.5</ele><time>2026-04-11T06:01:03.999Z</time></trkpt><trkpt lat="43.455118039210575" lon="11.353932920559753"><ele>340.66666666666663</ele><time>2026-04-11T06:01:07.999Z</time></trkpt><trkpt lat="43.455197389941844" lon="11.353912995069756"><ele>341.8333333333333</ele><time>2026-04-11T06:01:11.999Z</time></trkpt><trkpt lat="43.45528318384634" lon="11.35388224339436"><ele>343.0</ele><time>2026-04-11T06:01:15.999Z</time></trkpt><trkpt lat="43.45535827893089" lon="11.353874739239885"><ele>343.0</ele><time>2026-04-11T06:01:18.999Z</time></trkpt><trkpt lat="43.4554387072308" lon="11.353879087422118"><ele>343.0</ele><time>2026-04-11T06:01:21.999Z</time></trkpt><trkpt lat="43.455533166198336" lon="11.353902933448357"><ele>343.0</ele><time>2026-04-11T06:01:23.999Z</time></trkpt><trkpt lat="43.4556913167553" lon="11.353997179747262"><ele>343.0</ele><time>2026-04-11T06:01:25.999Z</time></trkpt><trkpt lat="43.45575670177389" lon="11.354026082326692"><ele>343.0</ele><time>2026-04-11T06:01:26.999Z</time></trkpt><trkpt lat="43.455824002139096" lon="11.3540561071472"><ele>343.3333333333333</ele><time>2026-04-11T06:01:27.999Z</time></trkpt><trkpt lat="43.45590447672676" lon="11.354090038667406"><ele>343.66666666666663</ele><time>2026-04-11T06:01:28.999Z</time></trkpt><trkpt lat="43.45599559720183" lon="11.354118123343099"><ele>344.0</ele><time>2026-04-11T06:01:29.999Z</time></trkpt><trkpt lat="43.45608894719131" lon="11.354141618419769"><ele>344.3333333333333</ele><time>2026-04-11T06:01:30.999Z</time></trkpt><trkpt lat="43.456174035085745" lon="11.354160326291188"><ele>344.6666666666667</ele><time>2026-04-11T06:01:31.999Z</time></trkpt><trkpt lat="43.456259309413866" lon="11.354175136215947"><ele>345.0</ele><time>2026-04-11T06:01:32.999Z</time></trkpt><trkpt lat="43.45634038968616" lon="11.354185610161556"><ele>345.1666666666667</ele><time>2026-04-11T06:01:33.999Z</time></trkpt><trkpt lat="43.4564188118373" lon="11.354194902743782"><ele>345.3333333333333</ele><time>2026-04-11T06:01:34.999Z</time></trkpt><trkpt lat="43.456488624616604" lon="11.35420317517223"><ele>345.5</ele><time>2026-04-11T06:01:35.999Z</time></trkpt><trkpt lat="43.45655733641413" lon="11.354215470984947"><ele>345.66666666666663</ele><time>2026-04-11T06:01:36.999Z</time></trkpt><trkpt lat="43.45662402863321" lon="11.354228134059806"><ele>345.8333333333333</ele><time>2026-04-11T06:01:37.999Z</time></trkpt><trkpt lat="43.456689480450514" lon="11.354243245104117"><ele>346.0</ele><time>2026-04-11T06:01:38.999Z</time></trkpt><trkpt lat="43.45679981792875" lon="11.35427079613674"><ele>346.0</ele><time>2026-04-11T06:01:40.999Z</time></trkpt><trkpt lat="43.456895602359666" lon="11.354295942959487"><ele>346.0</ele><time>2026-04-11T06:01:42.999Z</time></trkpt><trkpt lat="43.45697883510983" lon="11.354317794517963"><ele>346.0</ele><time>2026-04-11T06:01:45Z</time></trkpt><trkpt lat="43.45707977639518" lon="11.354347375062206"><ele>346.0</ele><time>2026-04-11T06:01:47Z</time></trkpt><trkpt lat="43.45717549501808" lon="11.354383785972036"><ele>346.0</ele><time>2026-04-11T06:01:49Z</time></trkpt><trkpt lat="43.457284421456315" lon="11.354451301665856"><ele>347.8</ele><time>2026-04-11T06:01:51Z</time></trkpt><trkpt lat="43.45738940789725" lon="11.354514454755158"><ele>349.6</ele><time>2026-04-11T06:01:53Z</time></trkpt><trkpt lat="43.4575007888279" lon="11.35457965747911"><ele>351.4</ele><time>2026-04-11T06:01:55Z</time></trkpt><trkpt lat="43.45756245101939" lon="11.354609609430568"><ele>353.2</ele><time>2026-04-11T06:01:56Z</time></trkpt><trkpt lat="43.457670022067106" lon="11.35464301802845"><ele>355.0</ele><time>2026-04-11T06:01:58Z</time></trkpt><trkpt lat="43.45776778667468" lon="11.354668874583458"><ele>355.0</ele><time>2026-04-11T06:02:00Z</time></trkpt><trkpt lat="43.45784600057808" lon="11.354689521177828"><ele>355.0</ele><time>2026-04-11T06:02:02Z</time></trkpt><trkpt lat="43.457930853714856" lon="11.354712132532917"><ele>355.0</ele><time>2026-04-11T06:02:05Z</time></trkpt><trkpt lat="43.457996412571426" lon="11.35473151788201"><ele>355.0</ele><time>2026-04-11T06:02:08Z</time></trkpt><trkpt lat="43.45805900609982" lon="11.354756096420044"><ele>355.0</ele><time>2026-04-11T06:02:11Z</time></trkpt><trkpt lat="43.45812452401836" lon="11.354786515884905"><ele>355.0</ele><time>2026-04-11T06:02:14Z</time></trkpt><trkpt lat="43.45820455585036" lon="11.35483877006483"><ele>354.0</ele><time>2026-04-11T06:02:17Z</time></trkpt><trkpt lat="43.458266211787645" lon="11.354899903013118"><ele>353.0</ele><time>2026-04-11T06:02:19Z</time></trkpt><trkpt lat="43.45832715687414" lon="11.354968371425313"><ele>352.0</ele><time>2026-04-11T06:02:21Z</time></trkpt><trkpt lat="43.458401683604095" lon="11.355049890888735"><ele>351.0</ele><time>2026-04-11T06:02:23Z</time></trkpt><trkpt lat="43.458512850684286" lon="11.355082149267124"><ele>350.0</ele><time>2026-04-11T06:02:25Z</time></trkpt><trkpt lat="43.458587363298044" lon="11.355154766589976"><ele>350.0</ele><time>2026-04-11T06:02:27Z</time></trkpt><trkpt lat="43.45867552006515" lon="11.355214071828009"><ele>350.0</ele><time>2026-04-11T06:02:29Z</time></trkpt><trkpt lat="43.458761090366814" lon="11.355268429948817"><ele>350.0</ele><time>2026-04-11T06:02:31Z</time></trkpt><trkpt lat="43.458835945293636" lon="11.355318865680047"><ele>350.0</ele><time>2026-04-11T06:02:33Z</time></trkpt><trkpt lat="43.45891421858572" lon="11.355357957081743"><ele>350.0</ele><time>2026-04-11T06:02:35Z</time></trkpt><trkpt lat="43.458994665179986" lon="11.355391639304285"><ele>350.0</ele><time>2026-04-11T06:02:37Z</time></trkpt><trkpt lat="43.45907355788988" lon="11.355420228082098"><ele>349.83333333333337</ele><time>2026-04-11T06:02:39Z</time></trkpt><trkpt lat="43.45914972479219" lon="11.355443581831205"><ele>349.6666666666667</ele><time>2026-04-11T06:02:41Z</time></trkpt><trkpt lat="43.45922907153179" lon="11.355464562467013"><ele>349.5</ele><time>2026-04-11T06:02:43Z</time></trkpt><trkpt lat="43.45931297790654" lon="11.35549489471377"><ele>349.3333333333333</ele><time>2026-04-11T06:02:46Z</time></trkpt><trkpt lat="43.459394022928414" lon="11.355508147670436"><ele>349.16666666666663</ele><time>2026-04-11T06:02:48Z</time></trkpt><trkpt lat="43.45947270133056" lon="11.355530458138452"><ele>349.0</ele><time>2026-04-11T06:02:51Z</time></trkpt><trkpt lat="43.45954796126099" lon="11.355559894459583"><ele>349.0</ele><time>2026-04-11T06:02:54Z</time></trkpt><trkpt lat="43.45961174278677" lon="11.355560675838595"><ele>349.0</ele><time>2026-04-11T06:02:55.999Z</time></trkpt><trkpt lat="43.45971030800301" lon="11.355567411431323"><ele>349.0</ele><time>2026-04-11T06:02:58.999Z</time></trkpt><trkpt lat="43.45983457312132" lon="11.355542597059017"><ele>349.0</ele><time>2026-04-11T06:02:59.999Z</time></trkpt><trkpt lat="43.45991036666693" lon="11.355528508320367"><ele>349.0</ele><time>2026-04-11T06:03:01.999Z</time></trkpt><trkpt lat="43.45997648943384" lon="11.355513159465927"><ele>349.0</ele><time>2026-04-11T06:03:03.999Z</time></trkpt><trkpt lat="43.46006311305641" lon="11.355477749553158"><ele>349.71428571428567</ele><time>2026-04-11T06:03:06.999Z</time></trkpt><trkpt lat="43.46012826748427" lon="11.355451655998316"><ele>350.42857142857144</ele><time>2026-04-11T06:03:08.999Z</time></trkpt><trkpt lat="43.460193780555976" lon="11.355449767562849"><ele>351.1428571428571</ele><time>2026-04-11T06:03:10.999Z</time></trkpt><trkpt lat="43.46026139453049" lon="11.355457742621216"><ele>351.85714285714283</ele><time>2026-04-11T06:03:12.999Z</time></trkpt><trkpt lat="43.46033052002855" lon="11.355477557768708"><ele>352.57142857142856</ele><time>2026-04-11T06:03:14.999Z</time></trkpt><trkpt lat="43.46039564493014" lon="11.355497535985462"><ele>353.2857142857143</ele><time>2026-04-11T06:03:16.999Z</time></trkpt><trkpt lat="43.460462641068084" lon="11.355524993991404"><ele>354.0</ele><time>2026-04-11T06:03:18.999Z</time></trkpt><trkpt lat="43.46055649834071" lon="11.355588059708023"><ele>354.0</ele><time>2026-04-11T06:03:21.999Z</time></trkpt><trkpt lat="43.46062378824633" lon="11.35559178270655"><ele>354.0</ele><time>2026-04-11T06:03:23.999Z</time></trkpt><trkpt lat="43.46070143891065" lon="11.355593683973389"><ele>354.0</ele><time>2026-04-11T06:03:26.999Z</time></trkpt><trkpt lat="43.460787597750304" lon="11.355604413147072"><ele>354.0</ele><time>2026-04-11T06:03:29.999Z</time></trkpt><trkpt lat="43.46086362070537" lon="11.35559426393706"><ele>354.0</ele><time>2026-04-11T06:03:32.999Z</time></trkpt><trkpt lat="43.46093210677163" lon="11.355581105737846"><ele>354.0</ele><time>2026-04-11T06:03:35.999Z</time></trkpt><trkpt lat="43.46100005840695" lon="11.35557292106944"><ele>354.0</ele><time>2026-04-11T06:03:38.999Z</time></trkpt><trkpt lat="43.46106567501096" lon="11.355558177714997"><ele>354.0</ele><time>2026-04-11T06:03:41.999Z</time></trkpt><trkpt lat="43.46113516273794" lon="11.35554429479247"><ele>354.0</ele><time>2026-04-11T06:03:44.999Z</time></trkpt><trkpt lat="43.461207413327706" lon="11.355535703748814"><ele>354.0</ele><time>2026-04-11T06:03:47.999Z</time></trkpt><trkpt lat="43.46128515499359" lon="11.355519032945457"><ele>354.0</ele><time>2026-04-11T06:03:51Z</time></trkpt><trkpt lat="43.46134946435778" lon="11.355525861878547"><ele>354.0</ele><time>2026-04-11T06:03:54Z</time></trkpt><trkpt lat="43.46141957731094" lon="11.355532317741503"><ele>354.0</ele><time>2026-04-11T06:03:56Z</time></trkpt><trkpt lat="43.46149596143257" lon="11.355567316046974"><ele>354.0</ele><time>2026-04-11T06:03:59Z</time></trkpt><trkpt lat="43.46165785990386" lon="11.355654187889877"><ele>354.3333333333333</ele><time>2026-04-11T06:04:02Z</time></trkpt><trkpt lat="43.461766685436544" lon="11.35573604539753"><ele>354.6666666666667</ele><time>2026-04-11T06:04:04Z</time></trkpt><trkpt lat="43.46182824667811" lon="11.355783787978714"><ele>355.0</ele><time>2026-04-11T06:04:05Z</time></trkpt><trkpt lat="43.46189501330912" lon="11.355838850837355"><ele>355.33333333333337</ele><time>2026-04-11T06:04:06Z</time></trkpt><trkpt lat="43.46194873930076" lon="11.355914139817502"><ele>355.6666666666667</ele><time>2026-04-11T06:04:07Z</time></trkpt><trkpt lat="43.46200737738371" lon="11.355971923172707"><ele>356.0</ele><time>2026-04-11T06:04:08Z</time></trkpt><trkpt lat="43.46206629410105" lon="11.356029798330715"><ele>355.83333333333337</ele><time>2026-04-11T06:04:09Z</time></trkpt><trkpt lat="43.462123239086154" lon="11.356086292038839"><ele>355.6666666666667</ele><time>2026-04-11T06:04:10Z</time></trkpt><trkpt lat="43.46217491667896" lon="11.356137524848416"><ele>355.5</ele><time>2026-04-11T06:04:11Z</time></trkpt><trkpt lat="43.46222780236339" lon="11.356189955602371"><ele>355.3333333333333</ele><time>2026-04-11T06:04:12Z</time></trkpt><trkpt lat="43.462280700588025" lon="11.356241559405118"><ele>355.16666666666663</ele><time>2026-04-11T06:04:13Z</time></trkpt><trkpt lat="43.46237455885707" lon="11.356329199706696"><ele>355.0</ele><time>2026-04-11T06:04:15Z</time></trkpt><trkpt lat="43.4624555446399" lon="11.356397169186705"><ele>355.0</ele><time>2026-04-11T06:04:17Z</time></trkpt><trkpt lat="43.46254012358753" lon="11.356465193883826"><ele>355.0</ele><time>2026-04-11T06:04:19Z</time></trkpt><trkpt lat="43.462639117747266" lon="11.356551934812817"><ele>355.0</ele><time>2026-04-11T06:04:21Z</time></trkpt><trkpt lat="43.46272663216249" lon="11.356642247961265"><ele>355.0</ele><time>2026-04-11T06:04:23Z</time></trkpt><trkpt lat="43.46279681952141" lon="11.356717795966082"><ele>355.0</ele><time>2026-04-11T06:04:25Z</time></trkpt><trkpt lat="43.46288403039605" lon="11.356804689175062"><ele>357.6</ele><time>2026-04-11T06:04:27Z</time></trkpt><trkpt lat="43.46297093812797" lon="11.356887925756606"><ele>360.2</ele><time>2026-04-11T06:04:29Z</time></trkpt><trkpt lat="43.463061621934706" lon="11.356961622650736"><ele>362.79999999999995</ele><time>2026-04-11T06:04:31Z</time></trkpt><trkpt lat="43.46316506409384" lon="11.356974139264857"><ele>365.4</ele><time>2026-04-11T06:04:33Z</time></trkpt><trkpt lat="43.46324991811145" lon="11.356988978704216"><ele>368.0</ele><time>2026-04-11T06:04:35Z</time></trkpt><trkpt lat="43.46331343908841" lon="11.356987833870544"><ele>368.0</ele><time>2026-04-11T06:04:37Z</time></trkpt><trkpt lat="43.463384366031825" lon="11.357002837016323"><ele>368.0</ele><time>2026-04-11T06:04:40Z</time></trkpt><trkpt lat="43.463461772734185" lon="11.357002475474328"><ele>368.0</ele><time>2026-04-11T06:04:44Z</time></trkpt><trkpt lat="43.46352381527268" lon="11.357020054288562"><ele>368.0</ele><time>2026-04-11T06:04:47Z</time></trkpt><trkpt lat="43.463590487103886" lon="11.357023716678144"><ele>368.0</ele><time>2026-04-11T06:04:50Z</time></trkpt><trkpt lat="43.46367633256294" lon="11.357042833229189"><ele>368.0</ele><time>2026-04-11T06:04:53Z</time></trkpt><trkpt lat="43.46374073650674" lon="11.357049438939777"><ele>368.0</ele><time>2026-04-11T06:04:55Z</time></trkpt><trkpt lat="43.46380501805792" lon="11.357068871806833"><ele>367.33333333333337</ele><time>2026-04-11T06:04:57Z</time></trkpt><trkpt lat="43.4638705728153" lon="11.357084690420647"><ele>366.6666666666667</ele><time>2026-04-11T06:04:59Z</time></trkpt><trkpt lat="43.463958280014175" lon="11.357111042422456"><ele>366.0</ele><time>2026-04-11T06:05:01Z</time></trkpt><trkpt lat="43.46404499403448" lon="11.357165367703228"><ele>365.3333333333333</ele><time>2026-04-11T06:05:02.999Z</time></trkpt><trkpt lat="43.464114708158725" lon="11.357216877687604"><ele>364.66666666666663</ele><time>2026-04-11T06:05:04.999Z</time></trkpt><trkpt lat="43.46417727614606" lon="11.357264977372383"><ele>364.0</ele><time>2026-04-11T06:05:06.999Z</time></trkpt><trkpt lat="43.46423548700955" lon="11.357322364013699"><ele>364.0</ele><time>2026-04-11T06:05:08.999Z</time></trkpt><trkpt lat="43.46430321146527" lon="11.357377202150131"><ele>364.0</ele><time>2026-04-11T06:05:10.999Z</time></trkpt><trkpt lat="43.4643729054611" lon="11.357425160406882"><ele>364.0</ele><time>2026-04-11T06:05:12.999Z</time></trkpt><trkpt lat="43.46444989618841" lon="11.357528444838835"><ele>364.0</ele><time>2026-04-11T06:05:14.999Z</time></trkpt><trkpt lat="43.46451379190172" lon="11.357627932283899"><ele>364.0</ele><time>2026-04-11T06:05:16.999Z</time></trkpt><trkpt lat="43.4645734383656" lon="11.357713747464336"><ele>364.0</ele><time>2026-04-11T06:05:18.999Z</time></trkpt><trkpt lat="43.46462336420328" lon="11.357789047410563"><ele>364.8333333333333</ele><time>2026-04-11T06:05:20.999Z</time></trkpt><trkpt lat="43.464676284399545" lon="11.357894284987065"><ele>365.66666666666663</ele><time>2026-04-11T06:05:22.999Z</time></trkpt><trkpt lat="43.4647112473469" lon="11.35799162185866"><ele>366.5</ele><time>2026-04-11T06:05:24.999Z</time></trkpt><trkpt lat="43.46474686924909" lon="11.358097635996682"><ele>367.3333333333333</ele><time>2026-04-11T06:05:26.999Z</time></trkpt><trkpt lat="43.4647801329721" lon="11.35820696057777"><ele>368.1666666666667</ele><time>2026-04-11T06:05:28.999Z</time></trkpt><trkpt lat="43.46481944695446" lon="11.358321580065672"><ele>369.0</ele><time>2026-04-11T06:05:30.999Z</time></trkpt><trkpt lat="43.46484069413949" lon="11.358447886614806"><ele>369.0</ele><time>2026-04-11T06:05:32.999Z</time></trkpt><trkpt lat="43.464873057277906" lon="11.358581732463257"><ele>369.0</ele><time>2026-04-11T06:05:34.999Z</time></trkpt><trkpt lat="43.46489884793061" lon="11.358718742817672"><ele>369.0</ele><time>2026-04-11T06:05:36.999Z</time></trkpt><trkpt lat="43.46492079300342" lon="11.358853308661303"><ele>369.0</ele><time>2026-04-11T06:05:38.999Z</time></trkpt><trkpt lat="43.464939002098355" lon="11.358974853283978"><ele>369.0</ele><time>2026-04-11T06:05:40.999Z</time></trkpt><trkpt lat="43.46495998495022" lon="11.359096511423344"><ele>368.3333333333333</ele><time>2026-04-11T06:05:42.999Z</time></trkpt><trkpt lat="43.464971446844196" lon="11.359203747256975"><ele>367.6666666666667</ele><time>2026-04-11T06:05:45.999Z</time></trkpt><trkpt lat="43.46498373825552" lon="11.359313326919736"><ele>367.0</ele><time>2026-04-11T06:05:46.999Z</time></trkpt><trkpt lat="43.4650148902534" lon="11.359432529487977"><ele>366.33333333333337</ele><time>2026-04-11T06:05:48.999Z</time></trkpt><trkpt lat="43.46505643651227" lon="11.359550447180984"><ele>365.6666666666667</ele><time>2026-04-11T06:05:50.999Z</time></trkpt><trkpt lat="43.46510357819308" lon="11.359669831813052"><ele>365.0</ele><time>2026-04-11T06:05:52.999Z</time></trkpt><trkpt lat="43.46514686860005" lon="11.359801492139049"><ele>364.6</ele><time>2026-04-11T06:05:54.999Z</time></trkpt><trkpt lat="43.46519735819871" lon="11.35992577329517"><ele>364.2</ele><time>2026-04-11T06:05:57Z</time></trkpt><trkpt lat="43.465263223651014" lon="11.360023129860231"><ele>363.79999999999995</ele><time>2026-04-11T06:05:59Z</time></trkpt><trkpt lat="43.46533163612993" lon="11.360109047514356"><ele>363.4</ele><time>2026-04-11T06:06:01Z</time></trkpt><trkpt lat="43.46539948725556" lon="11.360188491596253"><ele>363.0</ele><time>2026-04-11T06:06:03Z</time></trkpt><trkpt lat="43.46546435128234" lon="11.360275478139998"><ele>364.1666666666667</ele><time>2026-04-11T06:06:05Z</time></trkpt><trkpt lat="43.46552229997892" lon="11.360404898957164"><ele>365.3333333333333</ele><time>2026-04-11T06:06:07Z</time></trkpt><trkpt lat="43.46557055876521" lon="11.36046125262655"><ele>366.5</ele><time>2026-04-11T06:06:09Z</time></trkpt><trkpt lat="43.465604773474375" lon="11.360554569332805"><ele>367.66666666666663</ele><time>2026-04-11T06:06:11Z</time></trkpt><trkpt lat="43.465646864185366" lon="11.360621647311259"><ele>368.8333333333333</ele><time>2026-04-11T06:06:13Z</time></trkpt><trkpt lat="43.46569577625605" lon="11.360725388769355"><ele>370.0</ele><time>2026-04-11T06:06:15Z</time></trkpt><trkpt lat="43.46575747284691" lon="11.360815638558945"><ele>369.99999999999994</ele><time>2026-04-11T06:06:17Z</time></trkpt><trkpt lat="43.4658188362311" lon="11.36087528305115"><ele>370.0</ele><time>2026-04-11T06:06:19Z</time></trkpt><trkpt lat="43.46587659288505" lon="11.36092749421539"><ele>370.0</ele><time>2026-04-11T06:06:21Z</time></trkpt><trkpt lat="43.46592924314106" lon="11.360975669927658"><ele>370.0</ele><time>2026-04-11T06:06:23Z</time></trkpt><trkpt lat="43.46599739085574" lon="11.361011513140332"><ele>370.0</ele><time>2026-04-11T06:06:26Z</time></trkpt><trkpt lat="43.4660416092088" lon="11.361076653408364"><ele>369.99999999999994</ele><time>2026-04-11T06:06:29Z</time></trkpt><trkpt lat="43.46609768269725" lon="11.361134324950282"><ele>370.0</ele><time>2026-04-11T06:06:33Z</time></trkpt><trkpt lat="43.46614308251275" lon="11.361223192346396"><ele>370.0</ele><time>2026-04-11T06:06:37Z</time></trkpt><trkpt lat="43.466174163694454" lon="11.361303030732705"><ele>370.0</ele><time>2026-04-11T06:06:40Z</time></trkpt><trkpt lat="43.46620571694336" lon="11.361388549522086"><ele>370.0</ele><time>2026-04-11T06:06:43Z</time></trkpt><trkpt lat="43.46622833512802" lon="11.361491941799567"><ele>370.0</ele><time>2026-04-11T06:06:45Z</time></trkpt><trkpt lat="43.46626774202284" lon="11.361630299389823"><ele>370.0</ele><time>2026-04-11T06:06:47Z</time></trkpt><trkpt lat="43.46628986452264" lon="11.361714219733003"><ele>370.0</ele><time>2026-04-11T06:06:48Z</time></trkpt><trkpt lat="43.46631544246131" lon="11.361799453590939"><ele>369.8</ele><time>2026-04-11T06:06:49Z</time></trkpt><trkpt lat="43.466334764580125" lon="11.36188887184939"><ele>369.6</ele><time>2026-04-11T06:06:50Z</time></trkpt><trkpt lat="43.466389627682695" lon="11.362043983679117"><ele>369.4</ele><time>2026-04-11T06:06:52Z</time></trkpt><trkpt lat="43.46644823741212" lon="11.362189631954973"><ele>369.2</ele><time>2026-04-11T06:06:54Z</time></trkpt><trkpt lat="43.46650750557197" lon="11.362325839193007"><ele>369.0</ele><time>2026-04-11T06:06:56Z</time></trkpt><trkpt lat="43.466567592693096" lon="11.362449979818432"><ele>369.0</ele><time>2026-04-11T06:06:58Z</time></trkpt><trkpt lat="43.466627899883704" lon="11.362565354743433"><ele>369.0</ele><time>2026-04-11T06:07:00Z</time></trkpt><trkpt lat="43.466691430535626" lon="11.362666950122644"><ele>369.0</ele><time>2026-04-11T06:07:01.999Z</time></trkpt><trkpt lat="43.466753540265074" lon="11.36277858359337"><ele>369.0</ele><time>2026-04-11T06:07:03.999Z</time></trkpt><trkpt lat="43.466824429533276" lon="11.362903337698317"><ele>369.0</ele><time>2026-04-11T06:07:05.999Z</time></trkpt><trkpt lat="43.46685239347758" lon="11.363061576495905"><ele>368.25</ele><time>2026-04-11T06:07:07.999Z</time></trkpt><trkpt lat="43.46683702317737" lon="11.36322357065581"><ele>367.5</ele><time>2026-04-11T06:07:09.999Z</time></trkpt><trkpt lat="43.466803362578766" lon="11.36337213645223"><ele>366.75</ele><time>2026-04-11T06:07:11.999Z</time></trkpt><trkpt lat="43.46677153948525" lon="11.363519933455057"><ele>366.0</ele><time>2026-04-11T06:07:13.999Z</time></trkpt><trkpt lat="43.466737309503" lon="11.363659167450953"><ele>366.0</ele><time>2026-04-11T06:07:15.999Z</time></trkpt><trkpt lat="43.466702323654104" lon="11.363796667253585"><ele>366.0</ele><time>2026-04-11T06:07:17.999Z</time></trkpt><trkpt lat="43.466668933896386" lon="11.363932577525302"><ele>366.0</ele><time>2026-04-11T06:07:19.999Z</time></trkpt><trkpt lat="43.46663920395671" lon="11.364063146316399"><ele>366.0</ele><time>2026-04-11T06:07:21.999Z</time></trkpt><trkpt lat="43.466613236048694" lon="11.364189848684262"><ele>366.0</ele><time>2026-04-11T06:07:23.999Z</time></trkpt><trkpt lat="43.46657144246653" lon="11.364370182973556"><ele>366.5</ele><time>2026-04-11T06:07:26.999Z</time></trkpt><trkpt lat="43.466549405247264" lon="11.364489332174408"><ele>367.0</ele><time>2026-04-11T06:07:28.999Z</time></trkpt><trkpt lat="43.46652938222789" lon="11.3645988354441"><ele>367.5</ele><time>2026-04-11T06:07:30.999Z</time></trkpt><trkpt lat="43.4664959700523" lon="11.364694913527227"><ele>368.0</ele><time>2026-04-11T06:07:32.999Z</time></trkpt><trkpt lat="43.46647530754375" lon="11.364804059405484"><ele>368.5</ele><time>2026-04-11T06:07:34.999Z</time></trkpt><trkpt lat="43.46646065665693" lon="11.364905924659132"><ele>369.0</ele><time>2026-04-11T06:07:36.999Z</time></trkpt><trkpt lat="43.46643823019836" lon="11.365005479140432"><ele>369.1666666666667</ele><time>2026-04-11T06:07:38.999Z</time></trkpt><trkpt lat="43.466412173796996" lon="11.365107340699897"><ele>369.3333333333333</ele><time>2026-04-11T06:07:40.999Z</time></trkpt><trkpt lat="43.466388795344294" lon="11.365213958332069"><ele>369.5</ele><time>2026-04-11T06:07:42.999Z</time></trkpt><trkpt lat="43.466370816074814" lon="11.365320763750901"><ele>369.66666666666663</ele><time>2026-04-11T06:07:44.999Z</time></trkpt><trkpt lat="43.466341473882146" lon="11.365426596291478"><ele>369.8333333333333</ele><time>2026-04-11T06:07:46.999Z</time></trkpt><trkpt lat="43.46631593716053" lon="11.365517182324984"><ele>370.0</ele><time>2026-04-11T06:07:48.999Z</time></trkpt><trkpt lat="43.4663017140786" lon="11.365645867061021"><ele>369.66666666666663</ele><time>2026-04-11T06:07:51.999Z</time></trkpt><trkpt lat="43.46628047914762" lon="11.365740990410538"><ele>369.3333333333333</ele><time>2026-04-11T06:07:53.999Z</time></trkpt><trkpt lat="43.46624385269301" lon="11.365908749765897"><ele>369.0</ele><time>2026-04-11T06:07:56.999Z</time></trkpt><trkpt lat="43.46621808844864" lon="11.365999888920355"><ele>368.6666666666667</ele><time>2026-04-11T06:07:58.999Z</time></trkpt><trkpt lat="43.46619626573346" lon="11.366093226960984"><ele>368.33333333333337</ele><time>2026-04-11T06:08:00.999Z</time></trkpt><trkpt lat="43.4661782984244" lon="11.36618956386348"><ele>368.0</ele><time>2026-04-11T06:08:03Z</time></trkpt><trkpt lat="43.4661579390712" lon="11.366278668885297"><ele>368.14285714285717</ele><time>2026-04-11T06:08:05Z</time></trkpt><trkpt lat="43.46613626998359" lon="11.366367145398804"><ele>368.2857142857143</ele><time>2026-04-11T06:08:07Z</time></trkpt><trkpt lat="43.46611165256054" lon="11.366455999734049"><ele>368.42857142857144</ele><time>2026-04-11T06:08:09Z</time></trkpt><trkpt lat="43.46609972884699" lon="11.366547270597286"><ele>368.57142857142856</ele><time>2026-04-11T06:08:11Z</time></trkpt><trkpt lat="43.46607820200245" lon="11.366637366493674"><ele>368.71428571428567</ele><time>2026-04-11T06:08:13Z</time></trkpt><trkpt lat="43.466057144739814" lon="11.366728451023224"><ele>368.85714285714283</ele><time>2026-04-11T06:08:15Z</time></trkpt><trkpt lat="43.466028686384995" lon="11.366828757776346"><ele>369.0</ele><time>2026-04-11T06:08:17Z</time></trkpt><trkpt lat="43.46601681045859" lon="11.366915290129183"><ele>369.0</ele><time>2026-04-11T06:08:20Z</time></trkpt><trkpt lat="43.46600111486723" lon="11.36700354108163"><ele>369.0</ele><time>2026-04-11T06:08:21Z</time></trkpt><trkpt lat="43.465983029351854" lon="11.36709896229704"><ele>369.0</ele><time>2026-04-11T06:08:23Z</time></trkpt><trkpt lat="43.46595687223025" lon="11.367195248227043"><ele>369.0</ele><time>2026-04-11T06:08:25Z</time></trkpt><trkpt lat="43.46593647265104" lon="11.367296617949439"><ele>369.0</ele><time>2026-04-11T06:08:27Z</time></trkpt><trkpt lat="43.465919662916136" lon="11.367403133508208"><ele>369.0</ele><time>2026-04-11T06:08:29Z</time></trkpt><trkpt lat="43.46589258086502" lon="11.367504910031695"><ele>369.0</ele><time>2026-04-11T06:08:31Z</time></trkpt><trkpt lat="43.465866027653064" lon="11.367618305729165"><ele>369.3333333333333</ele><time>2026-04-11T06:08:33Z</time></trkpt><trkpt lat="43.46584426760768" lon="11.367727622478633"><ele>369.6666666666667</ele><time>2026-04-11T06:08:35Z</time></trkpt><trkpt lat="43.46582338278864" lon="11.367841112326921"><ele>370.0</ele><time>2026-04-11T06:08:37Z</time></trkpt><trkpt lat="43.465800617381454" lon="11.367957908379676"><ele>370.33333333333337</ele><time>2026-04-11T06:08:39Z</time></trkpt><trkpt lat="43.46577522783719" lon="11.368107503464563"><ele>370.6666666666667</ele><time>2026-04-11T06:08:41Z</time></trkpt><trkpt lat="43.465750738315535" lon="11.36821488914059"><ele>371.0</ele><time>2026-04-11T06:08:43Z</time></trkpt><trkpt lat="43.46573862953239" lon="11.368353325222081"><ele>371.6</ele><time>2026-04-11T06:08:45Z</time></trkpt><trkpt lat="43.46571454958921" lon="11.368474313467251"><ele>372.20000000000005</ele><time>2026-04-11T06:08:47Z</time></trkpt><trkpt lat="43.46573686131489" lon="11.36860536634123"><ele>372.79999999999995</ele><time>2026-04-11T06:08:49Z</time></trkpt><trkpt lat="43.46575315538012" lon="11.368729639560405"><ele>373.4</ele><time>2026-04-11T06:08:51Z</time></trkpt><trkpt lat="43.4657869067867" lon="11.36888617286987"><ele>374.0</ele><time>2026-04-11T06:08:54Z</time></trkpt><trkpt lat="43.465805031893005" lon="11.368970570884361"><ele>374.0</ele><time>2026-04-11T06:08:55Z</time></trkpt><trkpt lat="43.46583852820262" lon="11.369137729789278"><ele>374.0</ele><time>2026-04-11T06:08:58Z</time></trkpt><trkpt lat="43.46586603673274" lon="11.369239226603838"><ele>374.0</ele><time>2026-04-11T06:09:00Z</time></trkpt><trkpt lat="43.46588654096113" lon="11.369327540303775"><ele>374.0</ele><time>2026-04-11T06:09:01Z</time></trkpt><trkpt lat="43.46591342704765" lon="11.369438458586487"><ele>374.0</ele><time>2026-04-11T06:09:03Z</time></trkpt><trkpt lat="43.465948556410424" lon="11.369554697698323"><ele>374.0</ele><time>2026-04-11T06:09:05Z</time></trkpt><trkpt lat="43.46598520309337" lon="11.36967570454117"><ele>374.33333333333337</ele><time>2026-04-11T06:09:06.999Z</time></trkpt><trkpt lat="43.46601951925677" lon="11.36978307132317"><ele>374.6666666666667</ele><time>2026-04-11T06:09:09.999Z</time></trkpt><trkpt lat="43.46605803570384" lon="11.369900614725925"><ele>375.0</ele><time>2026-04-11T06:09:10.999Z</time></trkpt><trkpt lat="43.466103660475085" lon="11.370010598249332"><ele>375.3333333333333</ele><time>2026-04-11T06:09:12.999Z</time></trkpt><trkpt lat="43.46615041126505" lon="11.370113308828993"><ele>375.66666666666663</ele><time>2026-04-11T06:09:14.999Z</time></trkpt><trkpt lat="43.466197955680045" lon="11.370210758458008"><ele>376.0</ele><time>2026-04-11T06:09:16.999Z</time></trkpt><trkpt lat="43.46624842004759" lon="11.370301860410883"><ele>376.6</ele><time>2026-04-11T06:09:18.999Z</time></trkpt><trkpt lat="43.466302090251276" lon="11.370401772294812"><ele>377.20000000000005</ele><time>2026-04-11T06:09:20.999Z</time></trkpt><trkpt lat="43.46635799508739" lon="11.37051028128426"><ele>377.79999999999995</ele><time>2026-04-11T06:09:22.999Z</time></trkpt><trkpt lat="43.466413064134386" lon="11.370608129348357"><ele>378.4</ele><time>2026-04-11T06:09:24.999Z</time></trkpt><trkpt lat="43.46647162999125" lon="11.370704567470055"><ele>379.0</ele><time>2026-04-11T06:09:26.999Z</time></trkpt><trkpt lat="43.466525949075155" lon="11.370803475021996"><ele>379.0</ele><time>2026-04-11T06:09:28.999Z</time></trkpt><trkpt lat="43.4665813710295" lon="11.370892739354918"><ele>379.0</ele><time>2026-04-11T06:09:30.999Z</time></trkpt><trkpt lat="43.46663962930411" lon="11.37097373013877"><ele>379.0</ele><time>2026-04-11T06:09:32.999Z</time></trkpt><trkpt lat="43.466696009128555" lon="11.371054160523764"><ele>379.0</ele><time>2026-04-11T06:09:34.999Z</time></trkpt><trkpt lat="43.46675095426295" lon="11.371131023386225"><ele>379.0</ele><time>2026-04-11T06:09:36.999Z</time></trkpt><trkpt lat="43.46680813815033" lon="11.371191413974643"><ele>379.0</ele><time>2026-04-11T06:09:38.999Z</time></trkpt><trkpt lat="43.46686579081593" lon="11.371231751018072"><ele>379.0</ele><time>2026-04-11T06:09:40.999Z</time></trkpt><trkpt lat="43.46693173970424" lon="11.37128542566077"><ele>379.0</ele><time>2026-04-11T06:09:42.999Z</time></trkpt><trkpt lat="43.467006325015504" lon="11.371331201208612"><ele>379.0</ele><time>2026-04-11T06:09:44.999Z</time></trkpt><trkpt lat="43.46708143860413" lon="11.371378917817035"><ele>379.0</ele><time>2026-04-11T06:09:46.999Z</time></trkpt><trkpt lat="43.46715006683262" lon="11.37142828495238"><ele>379.0</ele><time>2026-04-11T06:09:48.999Z</time></trkpt><trkpt lat="43.46722271681037" lon="11.371473316240289"><ele>379.0</ele><time>2026-04-11T06:09:50.999Z</time></trkpt><trkpt lat="43.467277410498205" lon="11.371519606173326"><ele>379.16666666666663</ele><time>2026-04-11T06:09:52.999Z</time></trkpt><trkpt lat="43.4673426591093" lon="11.371577134975828"><ele>379.3333333333333</ele><time>2026-04-11T06:09:54.999Z</time></trkpt><trkpt lat="43.4674004935442" lon="11.371634491392737"><ele>379.5</ele><time>2026-04-11T06:09:56.999Z</time></trkpt><trkpt lat="43.46745057187682" lon="11.371704170278017"><ele>379.6666666666667</ele><time>2026-04-11T06:09:58.999Z</time></trkpt><trkpt lat="43.46750313733658" lon="11.371786566617075"><ele>379.83333333333337</ele><time>2026-04-11T06:10:00.999Z</time></trkpt><trkpt lat="43.467549460906454" lon="11.371883905946232"><ele>380.0</ele><time>2026-04-11T06:10:02.999Z</time></trkpt><trkpt lat="43.46760292621447" lon="11.371985249422806"><ele>380.0</ele><time>2026-04-11T06:10:04.999Z</time></trkpt><trkpt lat="43.46763740360105" lon="11.372101909546496"><ele>380.0</ele><time>2026-04-11T06:10:06.999Z</time></trkpt><trkpt lat="43.46769552454495" lon="11.372235257653161"><ele>380.0</ele><time>2026-04-11T06:10:09Z</time></trkpt><trkpt lat="43.4677235691053" lon="11.372322764265062"><ele>380.0</ele><time>2026-04-11T06:10:10Z</time></trkpt><trkpt lat="43.467747454550995" lon="11.372448413301749"><ele>380.0</ele><time>2026-04-11T06:10:12Z</time></trkpt><trkpt lat="43.467780196356976" lon="11.372550203338713"><ele>380.0</ele><time>2026-04-11T06:10:14Z</time></trkpt><trkpt lat="43.46782132397605" lon="11.372650869630473"><ele>379.5</ele><time>2026-04-11T06:10:16Z</time></trkpt><trkpt lat="43.46784135847532" lon="11.372777090643478"><ele>379.0</ele><time>2026-04-11T06:10:18Z</time></trkpt><trkpt lat="43.46784299034622" lon="11.372907853227716"><ele>378.5</ele><time>2026-04-11T06:10:20Z</time></trkpt><trkpt lat="43.46783240145127" lon="11.373009893315155"><ele>378.0</ele><time>2026-04-11T06:10:22Z</time></trkpt><trkpt lat="43.467876314448056" lon="11.373092548327142"><ele>377.5</ele><time>2026-04-11T06:11:08.999Z</time></trkpt><trkpt lat="43.46790801427137" lon="11.373176717705984"><ele>377.0</ele><time>2026-04-11T06:11:12.999Z</time></trkpt><trkpt lat="43.46792952882742" lon="11.373275692094788"><ele>377.85714285714283</ele><time>2026-04-11T06:11:15.999Z</time></trkpt><trkpt lat="43.468019010415894" lon="11.373284387924485"><ele>378.7142857142857</ele><time>2026-04-11T06:11:18.999Z</time></trkpt><trkpt lat="43.4680890721421" lon="11.37333376777628"><ele>379.57142857142856</ele><time>2026-04-11T06:11:21.999Z</time></trkpt><trkpt lat="43.46815010500949" lon="11.373363762664251"><ele>380.42857142857144</ele><time>2026-04-11T06:11:23.999Z</time></trkpt><trkpt lat="43.46821714290524" lon="11.373404535232016"><ele>381.2857142857143</ele><time>2026-04-11T06:11:25.999Z</time></trkpt><trkpt lat="43.46827761955271" lon="11.373436245808444"><ele>382.1428571428571</ele><time>2026-04-11T06:11:27.999Z</time></trkpt><trkpt lat="43.46833869146456" lon="11.373465002840335"><ele>383.0</ele><time>2026-04-11T06:11:29.999Z</time></trkpt><trkpt lat="43.46840170398787" lon="11.373492555576622"><ele>383.0</ele><time>2026-04-11T06:11:31.999Z</time></trkpt><trkpt lat="43.46846379027776" lon="11.373546694324851"><ele>383.0</ele><time>2026-04-11T06:11:34.999Z</time></trkpt><trkpt lat="43.468534928419764" lon="11.373619763032865"><ele>383.0</ele><time>2026-04-11T06:11:37.999Z</time></trkpt><trkpt lat="43.46858015443861" lon="11.373681617413629"><ele>383.0</ele><time>2026-04-11T06:11:39.999Z</time></trkpt><trkpt lat="43.46862839505327" lon="11.373753175160976"><ele>383.0</ele><time>2026-04-11T06:11:41.999Z</time></trkpt><trkpt lat="43.46872226059903" lon="11.37386921272019"><ele>383.0</ele><time>2026-04-11T06:11:43.999Z</time></trkpt><trkpt lat="43.468776578065906" lon="11.373948513166727"><ele>383.33333333333337</ele><time>2026-04-11T06:11:45.999Z</time></trkpt><trkpt lat="43.46883305978407" lon="11.37401754561366"><ele>383.6666666666667</ele><time>2026-04-11T06:11:47.999Z</time></trkpt><trkpt lat="43.46889011878502" lon="11.374079504316072"><ele>384.0</ele><time>2026-04-11T06:11:49.999Z</time></trkpt><trkpt lat="43.46895336862705" lon="11.374133595758371"><ele>384.33333333333337</ele><time>2026-04-11T06:11:51.999Z</time></trkpt><trkpt lat="43.46902390870287" lon="11.374180562018664"><ele>384.6666666666667</ele><time>2026-04-11T06:11:53.999Z</time></trkpt><trkpt lat="43.46910225282898" lon="11.374202073086073"><ele>385.0</ele><time>2026-04-11T06:11:55.999Z</time></trkpt><trkpt lat="43.46917625555071" lon="11.374216091681495"><ele>385.00000000000006</ele><time>2026-04-11T06:11:57.999Z</time></trkpt><trkpt lat="43.469252311281004" lon="11.374222167035546"><ele>385.0</ele><time>2026-04-11T06:11:59.999Z</time></trkpt><trkpt lat="43.469329559765846" lon="11.374239749587206"><ele>385.0</ele><time>2026-04-11T06:12:01.999Z</time></trkpt><trkpt lat="43.46939713677743" lon="11.374248475113019"><ele>385.0</ele><time>2026-04-11T06:12:04.999Z</time></trkpt><trkpt lat="43.46950079999404" lon="11.37424596020714"><ele>385.00000000000006</ele><time>2026-04-11T06:12:06.999Z</time></trkpt><trkpt lat="43.469565088279815" lon="11.374249006924954"><ele>385.0</ele><time>2026-04-11T06:12:08.999Z</time></trkpt><trkpt lat="43.46965183744785" lon="11.374247642691245"><ele>386.1666666666667</ele><time>2026-04-11T06:12:11.999Z</time></trkpt><trkpt lat="43.46973557490554" lon="11.374243875193459"><ele>387.33333333333337</ele><time>2026-04-11T06:12:15Z</time></trkpt><trkpt lat="43.4698220201024" lon="11.374250732868825"><ele>388.5</ele><time>2026-04-11T06:12:18Z</time></trkpt><trkpt lat="43.46990584504414" lon="11.374241250056338"><ele>389.66666666666663</ele><time>2026-04-11T06:12:21Z</time></trkpt><trkpt lat="43.46997857829044" lon="11.374263413436323"><ele>390.8333333333333</ele><time>2026-04-11T06:12:24Z</time></trkpt><trkpt lat="43.470052022722555" lon="11.374249363520388"><ele>392.0</ele><time>2026-04-11T06:12:27Z</time></trkpt><trkpt lat="43.47012417309323" lon="11.374260511032348"><ele>392.0</ele><time>2026-04-11T06:12:30Z</time></trkpt><trkpt lat="43.47019933229899" lon="11.374267481513433"><ele>392.0</ele><time>2026-04-11T06:12:33Z</time></trkpt><trkpt lat="43.47027204288163" lon="11.37427055469841"><ele>392.0</ele><time>2026-04-11T06:12:36Z</time></trkpt><trkpt lat="43.47034458824063" lon="11.374273918685912"><ele>392.0</ele><time>2026-04-11T06:12:39Z</time></trkpt><trkpt lat="43.470416735193076" lon="11.374277554582989"><ele>392.0</ele><time>2026-04-11T06:12:42Z</time></trkpt><trkpt lat="43.47049273468338" lon="11.374283503464673"><ele>392.0</ele><time>2026-04-11T06:12:45Z</time></trkpt><trkpt lat="43.47056432630342" lon="11.374288878205908"><ele>392.0</ele><time>2026-04-11T06:12:48Z</time></trkpt><trkpt lat="43.47063714972072" lon="11.374291834987988"><ele>392.42857142857144</ele><time>2026-04-11T06:12:51Z</time></trkpt><trkpt lat="43.47071345136536" lon="11.374291885977721"><ele>392.8571428571429</ele><time>2026-04-11T06:12:54Z</time></trkpt><trkpt lat="43.470791739592514" lon="11.37428797151251"><ele>393.2857142857143</ele><time>2026-04-11T06:12:57Z</time></trkpt><trkpt lat="43.47086462056615" lon="11.374280060450944"><ele>393.7142857142857</ele><time>2026-04-11T06:13:00Z</time></trkpt><trkpt lat="43.47093668846126" lon="11.374264955347929"><ele>394.14285714285717</ele><time>2026-04-11T06:13:03Z</time></trkpt><trkpt lat="43.47100849707849" lon="11.374258388554479"><ele>394.57142857142856</ele><time>2026-04-11T06:13:06Z</time></trkpt><trkpt lat="43.47107794971377" lon="11.374239372447821"><ele>395.0</ele><time>2026-04-11T06:13:09Z</time></trkpt><trkpt lat="43.471147996164596" lon="11.374230151854542"><ele>394.99999999999994</ele><time>2026-04-11T06:13:12Z</time></trkpt><trkpt lat="43.47121505622304" lon="11.374213259816967"><ele>395.0</ele><time>2026-04-11T06:13:15Z</time></trkpt><trkpt lat="43.47128626789805" lon="11.374190850046876"><ele>395.0</ele><time>2026-04-11T06:13:18Z</time></trkpt><trkpt lat="43.47136919798811" lon="11.374168212902571"><ele>395.0</ele><time>2026-04-11T06:13:20.999Z</time></trkpt><trkpt lat="43.471449365019595" lon="11.374139163731119"><ele>394.99999999999994</ele><time>2026-04-11T06:13:22.999Z</time></trkpt><trkpt lat="43.4715301007287" lon="11.374114704055987"><ele>395.0</ele><time>2026-04-11T06:13:25.999Z</time></trkpt><trkpt lat="43.47160218440541" lon="11.37408609680085"><ele>395.3333333333333</ele><time>2026-04-11T06:13:28.999Z</time></trkpt><trkpt lat="43.47168415479005" lon="11.374067955095706"><ele>395.66666666666663</ele><time>2026-04-11T06:13:31.999Z</time></trkpt><trkpt lat="43.47176449216306" lon="11.374047250162416"><ele>396.0</ele><time>2026-04-11T06:13:34.999Z</time></trkpt><trkpt lat="43.471839545340046" lon="11.374024976434356"><ele>396.33333333333337</ele><time>2026-04-11T06:13:37.999Z</time></trkpt><trkpt lat="43.47191279078499" lon="11.37401268168811"><ele>396.6666666666667</ele><time>2026-04-11T06:13:40.999Z</time></trkpt><trkpt lat="43.47198880967503" lon="11.373989605901851"><ele>397.0</ele><time>2026-04-11T06:13:43.999Z</time></trkpt><trkpt lat="43.47206104587056" lon="11.373969910139971"><ele>397.85714285714283</ele><time>2026-04-11T06:13:46.999Z</time></trkpt><trkpt lat="43.47212986372149" lon="11.373964835006998"><ele>398.71428571428567</ele><time>2026-04-11T06:13:49.999Z</time></trkpt><trkpt lat="43.47219274241971" lon="11.37395437216787"><ele>399.57142857142856</ele><time>2026-04-11T06:13:52.999Z</time></trkpt><trkpt lat="43.472256576527116" lon="11.37394218574468"><ele>400.42857142857144</ele><time>2026-04-11T06:13:55.999Z</time></trkpt><trkpt lat="43.472327416558755" lon="11.373937637994775"><ele>401.2857142857143</ele><time>2026-04-11T06:13:58.999Z</time></trkpt><trkpt lat="43.47239193203391" lon="11.373947245945669"><ele>402.14285714285717</ele><time>2026-04-11T06:14:01.999Z</time></trkpt><trkpt lat="43.47245799408106" lon="11.373962059762045"><ele>403.0</ele><time>2026-04-11T06:14:04.999Z</time></trkpt><trkpt lat="43.47252266544664" lon="11.373992451745012"><ele>403.0</ele><time>2026-04-11T06:14:07.999Z</time></trkpt><trkpt lat="43.472582320810204" lon="11.374024871893388"><ele>403.0</ele><time>2026-04-11T06:14:10.999Z</time></trkpt><trkpt lat="43.47265979632664" lon="11.374066528992591"><ele>403.0</ele><time>2026-04-11T06:14:14.999Z</time></trkpt><trkpt lat="43.47272074309921" lon="11.374103865837698"><ele>403.0</ele><time>2026-04-11T06:14:17.999Z</time></trkpt><trkpt lat="43.47278204097661" lon="11.374129642430827"><ele>403.0</ele><time>2026-04-11T06:14:21Z</time></trkpt><trkpt lat="43.47283958173079" lon="11.374169266899152"><ele>403.0</ele><time>2026-04-11T06:14:24Z</time></trkpt><trkpt lat="43.472899056486106" lon="11.374212910194645"><ele>403.0</ele><time>2026-04-11T06:14:27Z</time></trkpt><trkpt lat="43.47296114141036" lon="11.374245629501626"><ele>404.5714285714286</ele><time>2026-04-11T06:14:30Z</time></trkpt><trkpt lat="43.47302286013916" lon="11.374279699329355"><ele>406.1428571428571</ele><time>2026-04-11T06:14:33Z</time></trkpt><trkpt lat="43.47309246216854" lon="11.374313917059606"><ele>407.7142857142857</ele><time>2026-04-11T06:14:36Z</time></trkpt><trkpt lat="43.47315640912" lon="11.374352387990449"><ele>409.28571428571433</ele><time>2026-04-11T06:14:39Z</time></trkpt><trkpt lat="43.47322195798133" lon="11.374383416095222"><ele>410.8571428571429</ele><time>2026-04-11T06:14:42Z</time></trkpt><trkpt lat="43.47328782149799" lon="11.374408660832254"><ele>412.42857142857144</ele><time>2026-04-11T06:14:45Z</time></trkpt><trkpt lat="43.47335613300785" lon="11.374423025051854"><ele>414.0</ele><time>2026-04-11T06:14:48Z</time></trkpt><trkpt lat="43.473425886132446" lon="11.374427812065182"><ele>414.00000000000006</ele><time>2026-04-11T06:14:51Z</time></trkpt><trkpt lat="43.47350754042867" lon="11.37441507940976"><ele>414.0</ele><time>2026-04-11T06:14:54Z</time></trkpt><trkpt lat="43.473589317950065" lon="11.37437962484727"><ele>414.0</ele><time>2026-04-11T06:14:57Z</time></trkpt><trkpt lat="43.473662347559596" lon="11.37433059272321"><ele>414.0</ele><time>2026-04-11T06:15:00Z</time></trkpt><trkpt lat="43.47371965025152" lon="11.374282098610143"><ele>414.0</ele><time>2026-04-11T06:15:03Z</time></trkpt><trkpt lat="43.47376753394831" lon="11.374218733323325"><ele>414.00000000000006</ele><time>2026-04-11T06:15:06Z</time></trkpt><trkpt lat="43.4738127134174" lon="11.374153973037352"><ele>414.0</ele><time>2026-04-11T06:15:09Z</time></trkpt><trkpt lat="43.47385558565381" lon="11.374075988223419"><ele>414.00000000000006</ele><time>2026-04-11T06:15:12Z</time></trkpt><trkpt lat="43.473899866618176" lon="11.373989086280043"><ele>414.0</ele><time>2026-04-11T06:15:15Z</time></trkpt><trkpt lat="43.47394303213916" lon="11.37390263267907"><ele>414.0</ele><time>2026-04-11T06:15:18Z</time></trkpt><trkpt lat="43.47399745751901" lon="11.373832832591845"><ele>414.0</ele><time>2026-04-11T06:15:21Z</time></trkpt><trkpt lat="43.4740456671288" lon="11.373756475238347"><ele>414.0</ele><time>2026-04-11T06:15:24Z</time></trkpt><trkpt lat="43.47409441100099" lon="11.373697793035163"><ele>414.00000000000006</ele><time>2026-04-11T06:15:26.999Z</time></trkpt><trkpt lat="43.47414634673022" lon="11.373646825561027"><ele>414.0</ele><time>2026-04-11T06:15:29.999Z</time></trkpt><trkpt lat="43.4742087750552" lon="11.373602330422994"><ele>416.14285714285717</ele><time>2026-04-11T06:15:32.999Z</time></trkpt><trkpt lat="43.47427442387777" lon="11.373568357051541"><ele>418.2857142857143</ele><time>2026-04-11T06:15:35.999Z</time></trkpt><trkpt lat="43.474345558119964" lon="11.373555071460043"><ele>420.42857142857144</ele><time>2026-04-11T06:15:38.999Z</time></trkpt><trkpt lat="43.474417046812775" lon="11.37355874631145"><ele>422.57142857142856</ele><time>2026-04-11T06:15:41.999Z</time></trkpt><trkpt lat="43.47448544315505" lon="11.373604166514829"><ele>424.7142857142857</ele><time>2026-04-11T06:15:44.999Z</time></trkpt><trkpt lat="43.474539129311694" lon="11.3736588390245"><ele>426.8571428571429</ele><time>2026-04-11T06:15:47.999Z</time></trkpt><trkpt lat="43.47459090353733" lon="11.373724152181476"><ele>429.0</ele><time>2026-04-11T06:15:50.999Z</time></trkpt><trkpt lat="43.47463990266301" lon="11.373781260699639"><ele>429.8333333333333</ele><time>2026-04-11T06:15:53.999Z</time></trkpt><trkpt lat="43.474691048964736" lon="11.37383219649938"><ele>430.66666666666663</ele><time>2026-04-11T06:15:56.999Z</time></trkpt><trkpt lat="43.47477678257949" lon="11.373889274480362"><ele>431.5</ele><time>2026-04-11T06:16:00.999Z</time></trkpt><trkpt lat="43.47484798049962" lon="11.373921721329664"><ele>432.3333333333333</ele><time>2026-04-11T06:16:03.999Z</time></trkpt><trkpt lat="43.474919038539575" lon="11.373926105291277"><ele>433.16666666666663</ele><time>2026-04-11T06:16:06.999Z</time></trkpt><trkpt lat="43.47499772425733" lon="11.373929522102605"><ele>434.0</ele><time>2026-04-11T06:16:09.999Z</time></trkpt><trkpt lat="43.475083116499206" lon="11.373924918789164"><ele>432.66666666666663</ele><time>2026-04-11T06:16:12.999Z</time></trkpt><trkpt lat="43.4751645477508" lon="11.373910465424556"><ele>431.3333333333333</ele><time>2026-04-11T06:16:15.999Z</time></trkpt><trkpt lat="43.4752422324733" lon="11.37390048053039"><ele>430.0</ele><time>2026-04-11T06:16:18.999Z</time></trkpt><trkpt lat="43.47531518639587" lon="11.373886924297567"><ele>428.66666666666663</ele><time>2026-04-11T06:16:21.999Z</time></trkpt><trkpt lat="43.47538281401175" lon="11.373878252260338"><ele>427.3333333333333</ele><time>2026-04-11T06:16:25Z</time></trkpt><trkpt lat="43.475465670216245" lon="11.373870390591184"><ele>426.0</ele><time>2026-04-11T06:16:29Z</time></trkpt><trkpt lat="43.47554807145092" lon="11.373864574170227"><ele>427.99999999999994</ele><time>2026-04-11T06:16:33Z</time></trkpt><trkpt lat="43.475611748625916" lon="11.373852896394947"><ele>430.0</ele><time>2026-04-11T06:16:36Z</time></trkpt><trkpt lat="43.4756799730054" lon="11.373845685810378"><ele>432.0</ele><time>2026-04-11T06:16:39Z</time></trkpt><trkpt lat="43.47574533839581" lon="11.373835817358229"><ele>434.0</ele><time>2026-04-11T06:16:42Z</time></trkpt><trkpt lat="43.47580893402655" lon="11.373826390241897"><ele>436.0</ele><time>2026-04-11T06:16:45Z</time></trkpt><trkpt lat="43.475888173966204" lon="11.373803157408231"><ele>437.99999999999994</ele><time>2026-04-11T06:16:49Z</time></trkpt><trkpt lat="43.47596049770685" lon="11.373799682183613"><ele>440.0</ele><time>2026-04-11T06:16:52Z</time></trkpt><trkpt lat="43.476023367311576" lon="11.373787397155759"><ele>439.99999999999994</ele><time>2026-04-11T06:16:55Z</time></trkpt><trkpt lat="43.47610180181185" lon="11.37378041101338"><ele>440.0</ele><time>2026-04-11T06:16:59Z</time></trkpt><trkpt lat="43.47616747521863" lon="11.373769846574005"><ele>440.0</ele><time>2026-04-11T06:17:02Z</time></trkpt><trkpt lat="43.47623252529585" lon="11.37375160322314"><ele>440.0</ele><time>2026-04-11T06:17:05Z</time></trkpt><trkpt lat="43.47630191822816" lon="11.37375897812845"><ele>440.0</ele><time>2026-04-11T06:17:08Z</time></trkpt><trkpt lat="43.476381419556354" lon="11.37373184126994"><ele>439.99999999999994</ele><time>2026-04-11T06:17:12Z</time></trkpt><trkpt lat="43.476439864983064" lon="11.37369179980303"><ele>440.0</ele><time>2026-04-11T06:17:15Z</time></trkpt><trkpt lat="43.47649903550623" lon="11.373617408088263"><ele>438.99999999999994</ele><time>2026-04-11T06:17:19Z</time></trkpt><trkpt lat="43.476537445900405" lon="11.373525699212427"><ele>438.0</ele><time>2026-04-11T06:17:23Z</time></trkpt><trkpt lat="43.47656205037599" lon="11.373418974905556"><ele>437.0</ele><time>2026-04-11T06:17:26.999Z</time></trkpt><trkpt lat="43.476575600849614" lon="11.373304807658759"><ele>436.0</ele><time>2026-04-11T06:17:30.999Z</time></trkpt><trkpt lat="43.47659002290043" lon="11.373216668082819"><ele>434.99999999999994</ele><time>2026-04-11T06:17:33.999Z</time></trkpt><trkpt lat="43.47660712629962" lon="11.373112300546065"><ele>434.0</ele><time>2026-04-11T06:17:37.999Z</time></trkpt><trkpt lat="43.47662410739262" lon="11.373010123413051"><ele>435.7142857142857</ele><time>2026-04-11T06:17:41.999Z</time></trkpt><trkpt lat="43.47663638585376" lon="11.372901369365227"><ele>437.42857142857144</ele><time>2026-04-11T06:17:45.999Z</time></trkpt><trkpt lat="43.47665072112023" lon="11.372810848257917"><ele>439.1428571428571</ele><time>2026-04-11T06:17:48.999Z</time></trkpt><trkpt lat="43.476661051347996" lon="11.372719745963044"><ele>440.8571428571429</ele><time>2026-04-11T06:17:51.999Z</time></trkpt><trkpt lat="43.47667201680441" lon="11.372626522293839"><ele>442.57142857142856</ele><time>2026-04-11T06:17:54.999Z</time></trkpt><trkpt lat="43.47668412565534" lon="11.372510709810916"><ele>444.2857142857143</ele><time>2026-04-11T06:17:58.999Z</time></trkpt><trkpt lat="43.476693633085404" lon="11.372417651537207"><ele>446.0</ele><time>2026-04-11T06:18:01.999Z</time></trkpt><trkpt lat="43.476704917147565" lon="11.372325468330134"><ele>446.0</ele><time>2026-04-11T06:18:04.999Z</time></trkpt><trkpt lat="43.47671862869574" lon="11.372237527682083"><ele>446.0</ele><time>2026-04-11T06:18:07.999Z</time></trkpt><trkpt lat="43.47673337275417" lon="11.372148185999281"><ele>446.0</ele><time>2026-04-11T06:18:10.999Z</time></trkpt><trkpt lat="43.47676035680556" lon="11.372060887876467"><ele>446.0</ele><time>2026-04-11T06:18:13.999Z</time></trkpt><trkpt lat="43.47678731462047" lon="11.371974045994643"><ele>446.0</ele><time>2026-04-11T06:18:16.999Z</time></trkpt><trkpt lat="43.47682983907748" lon="11.37190899722055"><ele>446.0</ele><time>2026-04-11T06:18:19.999Z</time></trkpt><trkpt lat="43.47689244502565" lon="11.371861985982706"><ele>446.0</ele><time>2026-04-11T06:18:22.999Z</time></trkpt><trkpt lat="43.47696545322148" lon="11.371820016777233"><ele>447.49999999999994</ele><time>2026-04-11T06:18:26.999Z</time></trkpt><trkpt lat="43.477044110203465" lon="11.371810686080716"><ele>449.0</ele><time>2026-04-11T06:18:31Z</time></trkpt><trkpt lat="43.47710709346729" lon="11.371824879611085"><ele>450.5</ele><time>2026-04-11T06:18:34Z</time></trkpt><trkpt lat="43.4771869724082" lon="11.371842233062592"><ele>452.0</ele><time>2026-04-11T06:18:38Z</time></trkpt><trkpt lat="43.477258999640775" lon="11.371879763261227"><ele>453.49999999999994</ele><time>2026-04-11T06:18:42Z</time></trkpt><trkpt lat="43.47733091672877" lon="11.371910905468763"><ele>455.0</ele><time>2026-04-11T06:18:46Z</time></trkpt><trkpt lat="43.47740370234456" lon="11.37195166288893"><ele>455.3333333333333</ele><time>2026-04-11T06:18:50Z</time></trkpt><trkpt lat="43.47747270093175" lon="11.371982468666276"><ele>455.66666666666663</ele><time>2026-04-11T06:18:54Z</time></trkpt><trkpt lat="43.47754877090669" lon="11.371999965595638"><ele>456.0</ele><time>2026-04-11T06:18:58Z</time></trkpt><trkpt lat="43.477627133630165" lon="11.372013153675665"><ele>456.33333333333337</ele><time>2026-04-11T06:19:02Z</time></trkpt><trkpt lat="43.47770951068096" lon="11.372017158465566"><ele>456.6666666666667</ele><time>2026-04-11T06:19:06Z</time></trkpt><trkpt lat="43.477786344250696" lon="11.371998315493874"><ele>457.0</ele><time>2026-04-11T06:19:10Z</time></trkpt><trkpt lat="43.47785014080883" lon="11.371991451557244"><ele>457.00000000000006</ele><time>2026-04-11T06:19:13Z</time></trkpt><trkpt lat="43.47793036734025" lon="11.37197070702868"><ele>457.0</ele><time>2026-04-11T06:19:17Z</time></trkpt><trkpt lat="43.47800448686804" lon="11.37193020604839"><ele>457.0</ele><time>2026-04-11T06:19:21Z</time></trkpt><trkpt lat="43.47807795816688" lon="11.371878006835143"><ele>457.0</ele><time>2026-04-11T06:19:25Z</time></trkpt><trkpt lat="43.47812924897876" lon="11.371823239434573"><ele>457.00000000000006</ele><time>2026-04-11T06:19:28Z</time></trkpt><trkpt lat="43.47818047049368" lon="11.371741071799862"><ele>457.0</ele><time>2026-04-11T06:19:31.999Z</time></trkpt><trkpt lat="43.47822195953917" lon="11.37165797824499"><ele>456.57142857142867</ele><time>2026-04-11T06:19:35.999Z</time></trkpt><trkpt lat="43.47823838152444" lon="11.371554219874135"><ele>456.14285714285717</ele><time>2026-04-11T06:19:39.999Z</time></trkpt><trkpt lat="43.47825467727163" lon="11.371451594927072"><ele>455.7142857142858</ele><time>2026-04-11T06:19:43.999Z</time></trkpt><trkpt lat="43.478258777133696" lon="11.37135344344177"><ele>455.28571428571433</ele><time>2026-04-11T06:19:47.999Z</time></trkpt><trkpt lat="43.47824325146251" lon="11.371260083305941"><ele>454.8571428571429</ele><time>2026-04-11T06:19:51.999Z</time></trkpt><trkpt lat="43.47821489304261" lon="11.371170203952047"><ele>454.42857142857144</ele><time>2026-04-11T06:19:56.999Z</time></trkpt><trkpt lat="43.47819805559279" lon="11.371069338844734"><ele>454.0</ele><time>2026-04-11T06:20:25.999Z</time></trkpt><trkpt lat="43.478170284468185" lon="11.370977358064767"><ele>455.28571428571433</ele><time>2026-04-11T06:20:29.999Z</time></trkpt><trkpt lat="43.47815821882076" lon="11.370888012441076"><ele>456.5714285714286</ele><time>2026-04-11T06:20:32.999Z</time></trkpt><trkpt lat="43.47813765740804" lon="11.370793897062061"><ele>457.8571428571429</ele><time>2026-04-11T06:20:36Z</time></trkpt><trkpt lat="43.47811462089166" lon="11.370709190793017"><ele>459.1428571428571</ele><time>2026-04-11T06:20:39Z</time></trkpt><trkpt lat="43.47808809197746" lon="11.370619209678619"><ele>460.4285714285714</ele><time>2026-04-11T06:20:42Z</time></trkpt><trkpt lat="43.478066144055724" lon="11.370536493756779"><ele>461.71428571428567</ele><time>2026-04-11T06:20:45Z</time></trkpt><trkpt lat="43.47804207377214" lon="11.370427655732815"><ele>463.0</ele><time>2026-04-11T06:20:49Z</time></trkpt><trkpt lat="43.47801178162136" lon="11.370324915301294"><ele>464.1428571428571</ele><time>2026-04-11T06:20:53Z</time></trkpt><trkpt lat="43.47799616097778" lon="11.370214048779616"><ele>465.2857142857142</ele><time>2026-04-11T06:20:57Z</time></trkpt><trkpt lat="43.477986911560826" lon="11.370111140201507"><ele>466.42857142857144</ele><time>2026-04-11T06:21:01Z</time></trkpt><trkpt lat="43.47799887432707" lon="11.370016115832883"><ele>467.57142857142856</ele><time>2026-04-11T06:21:05Z</time></trkpt><trkpt lat="43.47803649332793" lon="11.369912527588053"><ele>468.7142857142857</ele><time>2026-04-11T06:21:09Z</time></trkpt><trkpt lat="43.478084984781304" lon="11.3698560735915"><ele>469.8571428571429</ele><time>2026-04-11T06:21:12Z</time></trkpt><trkpt lat="43.478147598527705" lon="11.369817993216426"><ele>471.00000000000006</ele><time>2026-04-11T06:21:15Z</time></trkpt><trkpt lat="43.47823125621438" lon="11.369820190687491"><ele>471.0</ele><time>2026-04-11T06:21:19Z</time></trkpt><trkpt lat="43.47830028626862" lon="11.369831110678337"><ele>471.0</ele><time>2026-04-11T06:21:22Z</time></trkpt><trkpt lat="43.478380699877846" lon="11.369844309025881"><ele>471.0</ele><time>2026-04-11T06:21:26Z</time></trkpt><trkpt lat="43.478447312934115" lon="11.369853011481506"><ele>471.0</ele><time>2026-04-11T06:21:29Z</time></trkpt><trkpt lat="43.478531779110895" lon="11.36984448165737"><ele>471.0</ele><time>2026-04-11T06:21:32Z</time></trkpt><trkpt lat="43.47861622709195" lon="11.36981023216599"><ele>471.0</ele><time>2026-04-11T06:21:35Z</time></trkpt><trkpt lat="43.47867902187959" lon="11.36977484118299"><ele>471.0</ele><time>2026-04-11T06:21:36.999Z</time></trkpt><trkpt lat="43.478755889839604" lon="11.369708969213958"><ele>471.0</ele><time>2026-04-11T06:21:39.999Z</time></trkpt><trkpt lat="43.47880675369922" lon="11.36964549063851"><ele>471.0</ele><time>2026-04-11T06:21:42.999Z</time></trkpt><trkpt lat="43.4788644556222" lon="11.369577921429366"><ele>471.0</ele><time>2026-04-11T06:21:45.999Z</time></trkpt><trkpt lat="43.47891476661535" lon="11.36950522657627"><ele>471.0</ele><time>2026-04-11T06:21:48.999Z</time></trkpt><trkpt lat="43.47896757171413" lon="11.369431214482809"><ele>471.0</ele><time>2026-04-11T06:21:51.999Z</time></trkpt><trkpt lat="43.47902125713977" lon="11.369352996193975"><ele>472.4285714285715</ele><time>2026-04-11T06:21:54.999Z</time></trkpt><trkpt lat="43.479074582961175" lon="11.369280368826082"><ele>473.8571428571429</ele><time>2026-04-11T06:21:57.999Z</time></trkpt><trkpt lat="43.47911725489776" lon="11.369212815406875"><ele>475.2857142857143</ele><time>2026-04-11T06:22:00.999Z</time></trkpt><trkpt lat="43.47916525962177" lon="11.369154495107622"><ele>476.7142857142857</ele><time>2026-04-11T06:22:03.999Z</time></trkpt><trkpt lat="43.47920906347508" lon="11.369082510659416"><ele>478.1428571428571</ele><time>2026-04-11T06:22:06.999Z</time></trkpt><trkpt lat="43.47926690130377" lon="11.369008029302401"><ele>479.5714285714285</ele><time>2026-04-11T06:22:10.999Z</time></trkpt><trkpt lat="43.47931186138756" lon="11.368943080213015"><ele>480.99999999999994</ele><time>2026-04-11T06:22:13.999Z</time></trkpt><trkpt lat="43.479359690452384" lon="11.368880187563356"><ele>481.1428571428571</ele><time>2026-04-11T06:22:16.999Z</time></trkpt><trkpt lat="43.47940441577675" lon="11.368815191162915"><ele>481.2857142857143</ele><time>2026-04-11T06:22:19.999Z</time></trkpt><trkpt lat="43.47946054265166" lon="11.36872866745318"><ele>481.42857142857144</ele><time>2026-04-11T06:22:23.999Z</time></trkpt><trkpt lat="43.47952120318285" lon="11.368646866329719"><ele>481.57142857142856</ele><time>2026-04-11T06:22:27.999Z</time></trkpt><trkpt lat="43.47956202487661" lon="11.36857910004502"><ele>481.7142857142858</ele><time>2026-04-11T06:22:30.999Z</time></trkpt><trkpt lat="43.47961275365578" lon="11.368517432572986"><ele>481.8571428571429</ele><time>2026-04-11T06:22:33.999Z</time></trkpt><trkpt lat="43.47965854475318" lon="11.368448355672417"><ele>482.0</ele><time>2026-04-11T06:22:36.999Z</time></trkpt><trkpt lat="43.479706891879" lon="11.368376482465793"><ele>481.99999999999994</ele><time>2026-04-11T06:22:39.999Z</time></trkpt><trkpt lat="43.47975730354391" lon="11.36829955696733"><ele>482.0</ele><time>2026-04-11T06:22:43Z</time></trkpt><trkpt lat="43.47981415366446" lon="11.36822214715756"><ele>482.0</ele><time>2026-04-11T06:22:46Z</time></trkpt><trkpt lat="43.47986634632726" lon="11.368138207338815"><ele>482.0</ele><time>2026-04-11T06:22:49Z</time></trkpt><trkpt lat="43.47992349958176" lon="11.368063624957266"><ele>481.99999999999994</ele><time>2026-04-11T06:22:52Z</time></trkpt><trkpt lat="43.47998763200251" lon="11.367958642282469"><ele>482.0</ele><time>2026-04-11T06:22:55Z</time></trkpt><trkpt lat="43.480044038829256" lon="11.367878989732294"><ele>483.3333333333333</ele><time>2026-04-11T06:22:58Z</time></trkpt><trkpt lat="43.48009123273101" lon="11.36780740139465"><ele>484.66666666666663</ele><time>2026-04-11T06:23:01Z</time></trkpt><trkpt lat="43.480156676907704" lon="11.367734349248204"><ele>486.0</ele><time>2026-04-11T06:23:04Z</time></trkpt><trkpt lat="43.48021666900372" lon="11.367692056337525"><ele>487.33333333333337</ele><time>2026-04-11T06:23:06Z</time></trkpt><trkpt lat="43.480315666619674" lon="11.367678602553669"><ele>488.6666666666667</ele><time>2026-04-11T06:23:09Z</time></trkpt><trkpt lat="43.480387829466366" lon="11.367684357139176"><ele>490.0</ele><time>2026-04-11T06:23:10Z</time></trkpt><trkpt lat="43.480446505194074" lon="11.36771758304321"><ele>490.00000000000006</ele><time>2026-04-11T06:23:12Z</time></trkpt><trkpt lat="43.48053429789473" lon="11.367756170431615"><ele>490.0</ele><time>2026-04-11T06:23:15Z</time></trkpt><trkpt lat="43.48060788479464" lon="11.367758386570234"><ele>490.0</ele><time>2026-04-11T06:23:18Z</time></trkpt><trkpt lat="43.48069505363137" lon="11.367735045743885"><ele>490.0</ele><time>2026-04-11T06:23:21Z</time></trkpt><trkpt lat="43.480773199094" lon="11.367668309202308"><ele>490.00000000000006</ele><time>2026-04-11T06:23:24Z</time></trkpt><trkpt lat="43.48083810992457" lon="11.367578769031859"><ele>490.0</ele><time>2026-04-11T06:23:27Z</time></trkpt><trkpt lat="43.480875902273056" lon="11.367508578648298"><ele>490.00000000000006</ele><time>2026-04-11T06:23:29Z</time></trkpt><trkpt lat="43.48093780037895" lon="11.367408234987241"><ele>490.0</ele><time>2026-04-11T06:23:32Z</time></trkpt><trkpt lat="43.480984246365765" lon="11.367342310443219"><ele>490.0</ele><time>2026-04-11T06:23:34Z</time></trkpt><trkpt lat="43.48103828392664" lon="11.367288816662706"><ele>490.0</ele><time>2026-04-11T06:23:36Z</time></trkpt><trkpt lat="43.48111229472398" lon="11.367225380556253"><ele>490.00000000000006</ele><time>2026-04-11T06:23:37.999Z</time></trkpt><trkpt lat="43.48117608554913" lon="11.36718441170831"><ele>490.0</ele><time>2026-04-11T06:23:39.999Z</time></trkpt><trkpt lat="43.481241961246795" lon="11.367159908845936"><ele>491.00000000000006</ele><time>2026-04-11T06:23:41.999Z</time></trkpt><trkpt lat="43.48131205673791" lon="11.36715122993023"><ele>492.0</ele><time>2026-04-11T06:23:43.999Z</time></trkpt><trkpt lat="43.48137837541035" lon="11.367150578609852"><ele>493.0</ele><time>2026-04-11T06:23:45.999Z</time></trkpt><trkpt lat="43.48147170469646" lon="11.36714339945829"><ele>494.0</ele><time>2026-04-11T06:23:48.999Z</time></trkpt><trkpt lat="43.48156288089472" lon="11.367132987679812"><ele>495.00000000000006</ele><time>2026-04-11T06:23:51.999Z</time></trkpt><trkpt lat="43.48164885454536" lon="11.36711060644913"><ele>496.0</ele><time>2026-04-11T06:23:54.999Z</time></trkpt><trkpt lat="43.48172164229311" lon="11.367082299016028"><ele>496.00000000000006</ele><time>2026-04-11T06:23:57.999Z</time></trkpt><trkpt lat="43.48179767764874" lon="11.36703349278983"><ele>496.0</ele><time>2026-04-11T06:24:00.999Z</time></trkpt><trkpt lat="43.48187106753458" lon="11.366968230843662"><ele>496.0</ele><time>2026-04-11T06:24:03.999Z</time></trkpt><trkpt lat="43.48193608926256" lon="11.366877039563649"><ele>496.0</ele><time>2026-04-11T06:24:06.999Z</time></trkpt><trkpt lat="43.482001884942534" lon="11.366784828892447"><ele>496.00000000000006</ele><time>2026-04-11T06:24:09.999Z</time></trkpt><trkpt lat="43.48206166848966" lon="11.36669120429768"><ele>496.0</ele><time>2026-04-11T06:24:12.999Z</time></trkpt><trkpt lat="43.48210545111974" lon="11.366624675597478"><ele>495.33333333333337</ele><time>2026-04-11T06:24:14.999Z</time></trkpt><trkpt lat="43.48215224655015" lon="11.36656067282333"><ele>494.6666666666667</ele><time>2026-04-11T06:24:16.999Z</time></trkpt><trkpt lat="43.482201277136724" lon="11.36650049995153"><ele>494.0</ele><time>2026-04-11T06:24:18.999Z</time></trkpt><trkpt lat="43.48225907069458" lon="11.36646211844725"><ele>493.33333333333337</ele><time>2026-04-11T06:24:20.999Z</time></trkpt><trkpt lat="43.48232487965451" lon="11.366433911217863"><ele>492.6666666666667</ele><time>2026-04-11T06:24:22.999Z</time></trkpt><trkpt lat="43.48239533127447" lon="11.3664362401362"><ele>492.0</ele><time>2026-04-11T06:24:24.999Z</time></trkpt><trkpt lat="43.482633005561766" lon="11.366422311472412"><ele>492.0</ele><time>2026-04-11T06:24:28.999Z</time></trkpt><trkpt lat="43.482701191550454" lon="11.366428860274825"><ele>492.0</ele><time>2026-04-11T06:24:30.999Z</time></trkpt><trkpt lat="43.482792552035946" lon="11.366448286812911"><ele>492.0</ele><time>2026-04-11T06:24:33.999Z</time></trkpt><trkpt lat="43.48288088618047" lon="11.36647907969396"><ele>492.0</ele><time>2026-04-11T06:24:36.999Z</time></trkpt><trkpt lat="43.4829721105245" lon="11.366490340736053"><ele>492.0</ele><time>2026-04-11T06:24:39.999Z</time></trkpt><trkpt lat="43.483051945923144" lon="11.36649737519995"><ele>492.0</ele><time>2026-04-11T06:24:42.999Z</time></trkpt><trkpt lat="43.48312948841603" lon="11.366470048082684"><ele>492.1666666666667</ele><time>2026-04-11T06:24:45.999Z</time></trkpt><trkpt lat="43.48320225997795" lon="11.366457139134267"><ele>492.33333333333337</ele><time>2026-04-11T06:24:49Z</time></trkpt><trkpt lat="43.48327207789496" lon="11.366405089645527"><ele>492.5</ele><time>2026-04-11T06:24:52Z</time></trkpt><trkpt lat="43.48333692626307" lon="11.366335985261543"><ele>492.6666666666667</ele><time>2026-04-11T06:24:55Z</time></trkpt><trkpt lat="43.48340467129332" lon="11.366273325678037"><ele>492.83333333333337</ele><time>2026-04-11T06:24:58Z</time></trkpt><trkpt lat="43.48345148827938" lon="11.366212243711944"><ele>493.0</ele><time>2026-04-11T06:25:00Z</time></trkpt><trkpt lat="43.483515561354984" lon="11.366123372621951"><ele>494.33333333333337</ele><time>2026-04-11T06:25:03Z</time></trkpt><trkpt lat="43.483575796783555" lon="11.366027876503672"><ele>495.6666666666667</ele><time>2026-04-11T06:25:06Z</time></trkpt><trkpt lat="43.483634033284154" lon="11.365940244647087"><ele>497.0</ele><time>2026-04-11T06:25:09Z</time></trkpt><trkpt lat="43.483676051804686" lon="11.36586769454236"><ele>498.33333333333337</ele><time>2026-04-11T06:25:11Z</time></trkpt><trkpt lat="43.48372158065319" lon="11.36580190555807"><ele>499.6666666666667</ele><time>2026-04-11T06:25:13Z</time></trkpt><trkpt lat="43.48376578773434" lon="11.365736501969653"><ele>501.0</ele><time>2026-04-11T06:25:15Z</time></trkpt><trkpt lat="43.48383532460766" lon="11.365656334772627"><ele>501.0</ele><time>2026-04-11T06:25:18Z</time></trkpt><trkpt lat="43.48389166181879" lon="11.365613033111723"><ele>501.0</ele><time>2026-04-11T06:25:20Z</time></trkpt><trkpt lat="43.48397424981734" lon="11.365560764064462"><ele>501.0</ele><time>2026-04-11T06:25:23Z</time></trkpt><trkpt lat="43.484066340930816" lon="11.365551909940983"><ele>501.0</ele><time>2026-04-11T06:25:26Z</time></trkpt><trkpt lat="43.484134511981544" lon="11.36558775539376"><ele>501.0</ele><time>2026-04-11T06:25:28Z</time></trkpt><trkpt lat="43.48420574760341" lon="11.36564952875825"><ele>501.0</ele><time>2026-04-11T06:25:30Z</time></trkpt><trkpt lat="43.48427915536082" lon="11.365721126021047"><ele>501.0</ele><time>2026-04-11T06:25:32Z</time></trkpt><trkpt lat="43.48439155636996" lon="11.365825117690399"><ele>501.0</ele><time>2026-04-11T06:25:34Z</time></trkpt><trkpt lat="43.48441276847698" lon="11.365972845882355"><ele>501.0</ele><time>2026-04-11T06:25:36Z</time></trkpt><trkpt lat="43.48439080035161" lon="11.366126514001094"><ele>501.0</ele><time>2026-04-11T06:25:38Z</time></trkpt><trkpt lat="43.48435979962682" lon="11.366289518105678"><ele>500.0</ele><time>2026-04-11T06:25:40Z</time></trkpt><trkpt lat="43.48433995453825" lon="11.366455540607713"><ele>499.0</ele><time>2026-04-11T06:25:41.999Z</time></trkpt><trkpt lat="43.48432950761989" lon="11.366626711345408"><ele>498.0</ele><time>2026-04-11T06:25:43.999Z</time></trkpt><trkpt lat="43.484335987666874" lon="11.366713280703786"><ele>497.0</ele><time>2026-04-11T06:25:44.999Z</time></trkpt><trkpt lat="43.484352986131874" lon="11.366799077209635"><ele>496.0</ele><time>2026-04-11T06:25:45.999Z</time></trkpt><trkpt lat="43.48437506236633" lon="11.3668807031705"><ele>495.0</ele><time>2026-04-11T06:25:46.999Z</time></trkpt><trkpt lat="43.484400382963834" lon="11.366960586065188"><ele>495.0</ele><time>2026-04-11T06:25:47.999Z</time></trkpt><trkpt lat="43.48442279508198" lon="11.367043646351673"><ele>495.0</ele><time>2026-04-11T06:25:48.999Z</time></trkpt><trkpt lat="43.48445093707257" lon="11.367123658671378"><ele>495.0</ele><time>2026-04-11T06:25:49.999Z</time></trkpt><trkpt lat="43.48448081527697" lon="11.367288363808504"><ele>495.0</ele><time>2026-04-11T06:25:51.999Z</time></trkpt><trkpt lat="43.48452962087105" lon="11.36744459808938"><ele>495.0</ele><time>2026-04-11T06:25:53.999Z</time></trkpt><trkpt lat="43.48456849759393" lon="11.367581025332077"><ele>494.8333333333333</ele><time>2026-04-11T06:25:55.999Z</time></trkpt><trkpt lat="43.48458852257613" lon="11.367692734258265"><ele>494.66666666666663</ele><time>2026-04-11T06:25:57.999Z</time></trkpt><trkpt lat="43.48460043121193" lon="11.367819402482732"><ele>494.5</ele><time>2026-04-11T06:25:59.999Z</time></trkpt><trkpt lat="43.484616489638114" lon="11.367944355518134"><ele>494.3333333333333</ele><time>2026-04-11T06:26:01.999Z</time></trkpt><trkpt lat="43.484635773816024" lon="11.368064043966783"><ele>494.16666666666663</ele><time>2026-04-11T06:26:03.999Z</time></trkpt><trkpt lat="43.48465600958502" lon="11.368174296605455"><ele>494.0</ele><time>2026-04-11T06:26:05.999Z</time></trkpt><trkpt lat="43.48466111484026" lon="11.36828437592342"><ele>495.3333333333333</ele><time>2026-04-11T06:26:07.999Z</time></trkpt><trkpt lat="43.48467037291273" lon="11.368388272226458"><ele>496.66666666666663</ele><time>2026-04-11T06:26:09.999Z</time></trkpt><trkpt lat="43.484682959558945" lon="11.368482992587337"><ele>498.0</ele><time>2026-04-11T06:26:11.999Z</time></trkpt><trkpt lat="43.48469430277544" lon="11.368573790849933"><ele>499.33333333333337</ele><time>2026-04-11T06:26:13.999Z</time></trkpt><trkpt lat="43.484703637984154" lon="11.368664220758728"><ele>500.6666666666667</ele><time>2026-04-11T06:26:15.999Z</time></trkpt><trkpt lat="43.48471885494718" lon="11.368787940759178"><ele>502.0</ele><time>2026-04-11T06:26:18.999Z</time></trkpt><trkpt lat="43.48473456671061" lon="11.368907020480057"><ele>502.71428571428567</ele><time>2026-04-11T06:26:21.999Z</time></trkpt><trkpt lat="43.48475780182004" lon="11.369030486726711"><ele>503.42857142857144</ele><time>2026-04-11T06:26:24.999Z</time></trkpt><trkpt lat="43.48477927732131" lon="11.36911602269565"><ele>504.1428571428571</ele><time>2026-04-11T06:26:26.999Z</time></trkpt><trkpt lat="43.484798533491265" lon="11.369202403286534"><ele>504.85714285714283</ele><time>2026-04-11T06:26:28.999Z</time></trkpt><trkpt lat="43.48483209012687" lon="11.369280617678566"><ele>505.57142857142856</ele><time>2026-04-11T06:26:30.999Z</time></trkpt><trkpt lat="43.48487180668873" lon="11.369354170466403"><ele>506.2857142857143</ele><time>2026-04-11T06:26:33.999Z</time></trkpt><trkpt lat="43.48492934429714" lon="11.369429831794614"><ele>507.0</ele><time>2026-04-11T06:26:36.999Z</time></trkpt><trkpt lat="43.484981994657176" lon="11.36951130037836"><ele>507.0</ele><time>2026-04-11T06:26:38.999Z</time></trkpt><trkpt lat="43.48502671570221" lon="11.369596213816617"><ele>507.0</ele><time>2026-04-11T06:26:40.999Z</time></trkpt><trkpt lat="43.485080681390166" lon="11.36965360787298"><ele>507.0</ele><time>2026-04-11T06:26:42.999Z</time></trkpt><trkpt lat="43.485163601189605" lon="11.369709380303648"><ele>507.0</ele><time>2026-04-11T06:26:45.999Z</time></trkpt><trkpt lat="43.48525195856531" lon="11.369754383118826"><ele>507.0</ele><time>2026-04-11T06:26:48.999Z</time></trkpt><trkpt lat="43.48531472501522" lon="11.369789408666634"><ele>507.0</ele><time>2026-04-11T06:26:50.999Z</time></trkpt><trkpt lat="43.48537732365718" lon="11.36980956202358"><ele>507.8333333333333</ele><time>2026-04-11T06:26:52.999Z</time></trkpt><trkpt lat="43.4854453275569" lon="11.369824925686428"><ele>508.66666666666663</ele><time>2026-04-11T06:26:55Z</time></trkpt><trkpt lat="43.48550810083349" lon="11.369848835114958"><ele>509.5</ele><time>2026-04-11T06:26:57Z</time></trkpt><trkpt lat="43.48560511790832" lon="11.369881482907337"><ele>510.3333333333333</ele><time>2026-04-11T06:27:00Z</time></trkpt><trkpt lat="43.485670746470966" lon="11.369917263835475"><ele>511.16666666666663</ele><time>2026-04-11T06:27:02Z</time></trkpt><trkpt lat="43.48574578168524" lon="11.369989028027437"><ele>512.0</ele><time>2026-04-11T06:27:05Z</time></trkpt><trkpt lat="43.485816775599886" lon="11.370051080231812"><ele>511.99999999999994</ele><time>2026-04-11T06:27:08Z</time></trkpt><trkpt lat="43.48588265163176" lon="11.3701453317384"><ele>512.0</ele><time>2026-04-11T06:27:11Z</time></trkpt><trkpt lat="43.48592624857685" lon="11.370225452406173"><ele>512.0</ele><time>2026-04-11T06:27:13Z</time></trkpt><trkpt lat="43.485965575793095" lon="11.37032123016714"><ele>512.0</ele><time>2026-04-11T06:27:15Z</time></trkpt><trkpt lat="43.48599623056335" lon="11.370411895104077"><ele>511.99999999999994</ele><time>2026-04-11T06:27:17Z</time></trkpt><trkpt lat="43.48602400333001" lon="11.370496188803227"><ele>512.0</ele><time>2026-04-11T06:27:19Z</time></trkpt><trkpt lat="43.48605240359178" lon="11.370577428702992"><ele>513.1666666666666</ele><time>2026-04-11T06:27:21Z</time></trkpt><trkpt lat="43.486095112871055" lon="11.370691657231799"><ele>514.3333333333333</ele><time>2026-04-11T06:27:24Z</time></trkpt><trkpt lat="43.48612745180329" lon="11.370807782379945"><ele>515.5</ele><time>2026-04-11T06:27:27Z</time></trkpt><trkpt lat="43.486166285096004" lon="11.370911928509942"><ele>516.6666666666666</ele><time>2026-04-11T06:27:30Z</time></trkpt><trkpt lat="43.4861966372108" lon="11.371008297907801"><ele>517.8333333333334</ele><time>2026-04-11T06:27:33Z</time></trkpt><trkpt lat="43.48621231846391" lon="11.371100110431222"><ele>519.0</ele><time>2026-04-11T06:27:36Z</time></trkpt><trkpt lat="43.486235277606525" lon="11.3711817178384"><ele>519.0</ele><time>2026-04-11T06:27:39Z</time></trkpt><trkpt lat="43.486251325930276" lon="11.371277541948976"><ele>519.0</ele><time>2026-04-11T06:27:41.999Z</time></trkpt><trkpt lat="43.486267162267445" lon="11.371367141431913"><ele>519.0</ele><time>2026-04-11T06:27:44.999Z</time></trkpt><trkpt lat="43.486283455635395" lon="11.371455690142925"><ele>519.0</ele><time>2026-04-11T06:27:47.999Z</time></trkpt><trkpt lat="43.48630419820871" lon="11.3715554655135"><ele>519.0</ele><time>2026-04-11T06:27:50.999Z</time></trkpt><trkpt lat="43.486315742564805" lon="11.37165714109092"><ele>519.0</ele><time>2026-04-11T06:27:53.999Z</time></trkpt><trkpt lat="43.48632138852302" lon="11.371761503210735"><ele>519.0</ele><time>2026-04-11T06:27:56.999Z</time></trkpt><trkpt lat="43.48633489070973" lon="11.371859188337709"><ele>518.4285714285714</ele><time>2026-04-11T06:27:59.999Z</time></trkpt><trkpt lat="43.48633951207515" lon="11.371959171026043"><ele>517.8571428571428</ele><time>2026-04-11T06:28:02.999Z</time></trkpt><trkpt lat="43.48634999465011" lon="11.372051622848051"><ele>517.2857142857142</ele><time>2026-04-11T06:28:05.999Z</time></trkpt><trkpt lat="43.48635803099098" lon="11.372147285492163"><ele>516.7142857142857</ele><time>2026-04-11T06:28:08.999Z</time></trkpt><trkpt lat="43.486369630304935" lon="11.372238072189301"><ele>516.1428571428571</ele><time>2026-04-11T06:28:11.999Z</time></trkpt><trkpt lat="43.48637711527511" lon="11.37232601114435"><ele>515.5714285714286</ele><time>2026-04-11T06:28:14.999Z</time></trkpt><trkpt lat="43.486389660526434" lon="11.372440826715058"><ele>515.0</ele><time>2026-04-11T06:28:18.999Z</time></trkpt><trkpt lat="43.48640111822125" lon="11.37252830551143"><ele>515.0</ele><time>2026-04-11T06:28:21.999Z</time></trkpt><trkpt lat="43.486403697598526" lon="11.372631519346037"><ele>515.0</ele><time>2026-04-11T06:28:24.999Z</time></trkpt><trkpt lat="43.48640763490043" lon="11.372734005729138"><ele>515.0</ele><time>2026-04-11T06:28:27.999Z</time></trkpt><trkpt lat="43.48641168036348" lon="11.372833839293694"><ele>515.0</ele><time>2026-04-11T06:28:30.999Z</time></trkpt><trkpt lat="43.48640680657317" lon="11.372931611803729"><ele>515.0</ele><time>2026-04-11T06:28:33.999Z</time></trkpt><trkpt lat="43.486399562042045" lon="11.373020862537786"><ele>515.0</ele><time>2026-04-11T06:28:36.999Z</time></trkpt><trkpt lat="43.48639439042254" lon="11.373114764094225"><ele>515.0</ele><time>2026-04-11T06:28:39.999Z</time></trkpt><trkpt lat="43.486382133553555" lon="11.373200968346442"><ele>515.6666666666666</ele><time>2026-04-11T06:28:42.999Z</time></trkpt><trkpt lat="43.48636597706973" lon="11.373295223547556"><ele>516.3333333333333</ele><time>2026-04-11T06:28:45.999Z</time></trkpt><trkpt lat="43.48634385328198" lon="11.373407423773177"><ele>517.0</ele><time>2026-04-11T06:28:48.999Z</time></trkpt><trkpt lat="43.486310072141514" lon="11.373525017765681"><ele>517.6666666666666</ele><time>2026-04-11T06:28:51.999Z</time></trkpt><trkpt lat="43.48627137637026" lon="11.3736436981719"><ele>518.3333333333334</ele><time>2026-04-11T06:28:54.999Z</time></trkpt><trkpt lat="43.486244889331395" lon="11.373724265824531"><ele>519.0</ele><time>2026-04-11T06:28:56.999Z</time></trkpt><trkpt lat="43.486218789749536" lon="11.373821090657994"><ele>519.3333333333334</ele><time>2026-04-11T06:29:00Z</time></trkpt><trkpt lat="43.48619116668919" lon="11.373990455069206"><ele>519.6666666666666</ele><time>2026-04-11T06:29:01Z</time></trkpt><trkpt lat="43.486166113973084" lon="11.374095646336785"><ele>520.0</ele><time>2026-04-11T06:29:03Z</time></trkpt><trkpt lat="43.48614376935471" lon="11.37419836519904"><ele>520.3333333333333</ele><time>2026-04-11T06:29:05Z</time></trkpt><trkpt lat="43.48612792305834" lon="11.374309722728125"><ele>520.6666666666666</ele><time>2026-04-11T06:29:07Z</time></trkpt><trkpt lat="43.48613308501605" lon="11.374417111742877"><ele>521.0</ele><time>2026-04-11T06:29:09Z</time></trkpt><trkpt lat="43.4861642339495" lon="11.374522192327413"><ele>521.0</ele><time>2026-04-11T06:29:11Z</time></trkpt><trkpt lat="43.48621927795222" lon="11.374619566132555"><ele>521.0</ele><time>2026-04-11T06:29:13Z</time></trkpt><trkpt lat="43.48629097982885" lon="11.37473428558548"><ele>521.0</ele><time>2026-04-11T06:29:15Z</time></trkpt><trkpt lat="43.48636801863459" lon="11.374856347498763"><ele>521.0</ele><time>2026-04-11T06:29:17Z</time></trkpt><trkpt lat="43.48636159972333" lon="11.374971389213131"><ele>521.0</ele><time>2026-04-11T06:29:18Z</time></trkpt><trkpt lat="43.48640397830465" lon="11.375041180918865"><ele>523.2</ele><time>2026-04-11T06:29:19Z</time></trkpt><trkpt lat="43.48645418631398" lon="11.37512386660866"><ele>525.4000000000001</ele><time>2026-04-11T06:29:20Z</time></trkpt><trkpt lat="43.486496505153106" lon="11.375193559925876"><ele>527.6</ele><time>2026-04-11T06:29:21Z</time></trkpt><trkpt lat="43.486537171859915" lon="11.375260532409257"><ele>529.8000000000001</ele><time>2026-04-11T06:29:22Z</time></trkpt><trkpt lat="43.4866171099541" lon="11.37539217947442"><ele>532.0</ele><time>2026-04-11T06:29:24Z</time></trkpt><trkpt lat="43.486693894863144" lon="11.375519243376933"><ele>530.3333333333334</ele><time>2026-04-11T06:29:26Z</time></trkpt><trkpt lat="43.48674129023323" lon="11.37559781031981"><ele>528.6666666666667</ele><time>2026-04-11T06:29:28Z</time></trkpt><trkpt lat="43.48678224110696" lon="11.37566569426857"><ele>527.0</ele><time>2026-04-11T06:29:30Z</time></trkpt><trkpt lat="43.48682563221982" lon="11.375739414065366"><ele>525.3333333333334</ele><time>2026-04-11T06:29:34Z</time></trkpt><trkpt lat="43.48686081230893" lon="11.37583177011075"><ele>523.6666666666666</ele><time>2026-04-11T06:30:47.999Z</time></trkpt><trkpt lat="43.486902325066026" lon="11.375945262268148"><ele>522.0</ele><time>2026-04-11T06:30:50.999Z</time></trkpt><trkpt lat="43.486919650434345" lon="11.376054146559825"><ele>522.0</ele><time>2026-04-11T06:30:52.999Z</time></trkpt><trkpt lat="43.486912529102085" lon="11.3761931792642"><ele>522.0</ele><time>2026-04-11T06:30:54.999Z</time></trkpt><trkpt lat="43.48690234089436" lon="11.376359654791942"><ele>522.0</ele><time>2026-04-11T06:30:56.999Z</time></trkpt><trkpt lat="43.48689454299615" lon="11.376449214857603"><ele>522.0</ele><time>2026-04-11T06:30:57.999Z</time></trkpt><trkpt lat="43.486886649117146" lon="11.376542488219663"><ele>522.0</ele><time>2026-04-11T06:30:58.999Z</time></trkpt><trkpt lat="43.48687691713817" lon="11.376644259914851"><ele>522.0</ele><time>2026-04-11T06:30:59.999Z</time></trkpt><trkpt lat="43.486874693746984" lon="11.376753170402925"><ele>520.8333333333334</ele><time>2026-04-11T06:31:00.999Z</time></trkpt><trkpt lat="43.486865703006536" lon="11.37686220222673"><ele>519.6666666666666</ele><time>2026-04-11T06:31:01.999Z</time></trkpt><trkpt lat="43.48685710251532" lon="11.376970032133173"><ele>518.5</ele><time>2026-04-11T06:31:02.999Z</time></trkpt><trkpt lat="43.48685316220608" lon="11.37708344956633"><ele>517.3333333333333</ele><time>2026-04-11T06:31:03.999Z</time></trkpt><trkpt lat="43.48683043375927" lon="11.377193828721413"><ele>516.1666666666666</ele><time>2026-04-11T06:31:04.999Z</time></trkpt><trkpt lat="43.48682250182308" lon="11.377309964171575"><ele>515.0</ele><time>2026-04-11T06:31:06Z</time></trkpt><trkpt lat="43.48681471249744" lon="11.377426937198932"><ele>515.0</ele><time>2026-04-11T06:31:07Z</time></trkpt><trkpt lat="43.48681942998736" lon="11.377543877154672"><ele>515.0</ele><time>2026-04-11T06:31:08Z</time></trkpt><trkpt lat="43.4868010250913" lon="11.377651473647546"><ele>515.0</ele><time>2026-04-11T06:31:09Z</time></trkpt><trkpt lat="43.48680442395402" lon="11.377776101901139"><ele>515.0</ele><time>2026-04-11T06:31:10Z</time></trkpt><trkpt lat="43.48681842976727" lon="11.377900067821482"><ele>515.0</ele><time>2026-04-11T06:31:11Z</time></trkpt><trkpt lat="43.48683514557072" lon="11.378028544102497"><ele>515.0</ele><time>2026-04-11T06:31:12Z</time></trkpt><trkpt lat="43.48685875982172" lon="11.378158402257906"><ele>515.8</ele><time>2026-04-11T06:31:13Z</time></trkpt><trkpt lat="43.486886656437406" lon="11.378285035165701"><ele>516.6</ele><time>2026-04-11T06:31:14Z</time></trkpt><trkpt lat="43.48694264701693" lon="11.378407503208939"><ele>517.4</ele><time>2026-04-11T06:31:15Z</time></trkpt><trkpt lat="43.48699672313978" lon="11.378532115745998"><ele>518.2</ele><time>2026-04-11T06:31:16Z</time></trkpt><trkpt lat="43.48706252367426" lon="11.37865994572399"><ele>519.0</ele><time>2026-04-11T06:31:17Z</time></trkpt><trkpt lat="43.48713586143938" lon="11.378782949036301"><ele>515.75</ele><time>2026-04-11T06:31:18Z</time></trkpt><trkpt lat="43.48719468698719" lon="11.378924815597708"><ele>512.5</ele><time>2026-04-11T06:31:19Z</time></trkpt><trkpt lat="43.487263936027354" lon="11.379052939082705"><ele>509.25</ele><time>2026-04-11T06:31:20Z</time></trkpt><trkpt lat="43.487337056973594" lon="11.379188226309084"><ele>506.0</ele><time>2026-04-11T06:31:21Z</time></trkpt><trkpt lat="43.48741060559772" lon="11.37931888551058"><ele>506.0</ele><time>2026-04-11T06:31:22Z</time></trkpt><trkpt lat="43.487489634103895" lon="11.379437732800296"><ele>506.0</ele><time>2026-04-11T06:31:23Z</time></trkpt><trkpt lat="43.487581150699704" lon="11.379539246784727"><ele>506.0</ele><time>2026-04-11T06:31:24Z</time></trkpt><trkpt lat="43.48767222539832" lon="11.379619742745172"><ele>506.0</ele><time>2026-04-11T06:31:25Z</time></trkpt><trkpt lat="43.487746083922744" lon="11.37970911287274"><ele>506.0</ele><time>2026-04-11T06:31:26Z</time></trkpt><trkpt lat="43.48780666490334" lon="11.379826330488543"><ele>505.25</ele><time>2026-04-11T06:31:27Z</time></trkpt><trkpt lat="43.48782315958051" lon="11.379976498077825"><ele>504.5</ele><time>2026-04-11T06:31:28Z</time></trkpt><trkpt lat="43.48784118735107" lon="11.380134437212673"><ele>503.75</ele><time>2026-04-11T06:31:29Z</time></trkpt><trkpt lat="43.48785410591541" lon="11.380291661253924"><ele>503.0</ele><time>2026-04-11T06:31:30Z</time></trkpt><trkpt lat="43.487868554476776" lon="11.380456666792869"><ele>502.5</ele><time>2026-04-11T06:31:31Z</time></trkpt><trkpt lat="43.48788835090139" lon="11.380621669142416"><ele>502.0</ele><time>2026-04-11T06:31:32Z</time></trkpt><trkpt lat="43.48791424427419" lon="11.380796769375719"><ele>501.5</ele><time>2026-04-11T06:31:33Z</time></trkpt><trkpt lat="43.48794531735756" lon="11.38096586759757"><ele>501.0</ele><time>2026-04-11T06:31:34Z</time></trkpt><trkpt lat="43.487986313069186" lon="11.381136573182763"><ele>497.25</ele><time>2026-04-11T06:31:35Z</time></trkpt><trkpt lat="43.488037516859315" lon="11.381302790762346"><ele>493.5</ele><time>2026-04-11T06:31:36Z</time></trkpt><trkpt lat="43.48809506729825" lon="11.381465281714016"><ele>489.75</ele><time>2026-04-11T06:31:37Z</time></trkpt><trkpt lat="43.48815402380508" lon="11.381628577774537"><ele>486.0</ele><time>2026-04-11T06:31:38Z</time></trkpt><trkpt lat="43.4882167292949" lon="11.38179149256407"><ele>486.0</ele><time>2026-04-11T06:31:39Z</time></trkpt><trkpt lat="43.48828255952128" lon="11.381949882042518"><ele>486.0</ele><time>2026-04-11T06:31:40Z</time></trkpt><trkpt lat="43.48835393450091" lon="11.382105958912055"><ele>486.0</ele><time>2026-04-11T06:31:41Z</time></trkpt><trkpt lat="43.48843199429452" lon="11.382261414564699"><ele>486.0</ele><time>2026-04-11T06:31:42Z</time></trkpt><trkpt lat="43.488514061438416" lon="11.382404875189987"><ele>484.5</ele><time>2026-04-11T06:31:43Z</time></trkpt><trkpt lat="43.488614070013355" lon="11.382538996287197"><ele>483.0</ele><time>2026-04-11T06:31:44Z</time></trkpt><trkpt lat="43.48872308279123" lon="11.382659384491708"><ele>481.5</ele><time>2026-04-11T06:31:45Z</time></trkpt><trkpt lat="43.48884405759234" lon="11.382766693679635"><ele>480.0</ele><time>2026-04-11T06:31:46Z</time></trkpt><trkpt lat="43.48896609381705" lon="11.382867103237844"><ele>479.5</ele><time>2026-04-11T06:31:47Z</time></trkpt><trkpt lat="43.48908625602722" lon="11.382975174439618"><ele>479.0</ele><time>2026-04-11T06:31:48Z</time></trkpt><trkpt lat="43.489199922047206" lon="11.383096136916091"><ele>478.5</ele><time>2026-04-11T06:31:48.999Z</time></trkpt><trkpt lat="43.489314255096666" lon="11.383217329316581"><ele>478.0</ele><time>2026-04-11T06:31:49.999Z</time></trkpt><trkpt lat="43.48942943163846" lon="11.383341011975428"><ele>476.0</ele><time>2026-04-11T06:31:50.999Z</time></trkpt><trkpt lat="43.48954257015727" lon="11.383462506091401"><ele>474.0</ele><time>2026-04-11T06:31:51.999Z</time></trkpt><trkpt lat="43.48965003093924" lon="11.383577903142147"><ele>472.0</ele><time>2026-04-11T06:31:52.999Z</time></trkpt><trkpt lat="43.48975077231238" lon="11.383687741662287"><ele>470.0</ele><time>2026-04-11T06:31:53.999Z</time></trkpt><trkpt lat="43.489844972085756" lon="11.38379857162209"><ele>468.25</ele><time>2026-04-11T06:31:54.999Z</time></trkpt><trkpt lat="43.48991742844027" lon="11.383924949270483"><ele>466.5</ele><time>2026-04-11T06:31:55.999Z</time></trkpt><trkpt lat="43.48997935875689" lon="11.384064678099646"><ele>464.75</ele><time>2026-04-11T06:31:56.999Z</time></trkpt><trkpt lat="43.49002202167041" lon="11.384218265594798"><ele>463.0</ele><time>2026-04-11T06:31:57.999Z</time></trkpt><trkpt lat="43.490033286408305" lon="11.384386563151507"><ele>463.0</ele><time>2026-04-11T06:31:58.999Z</time></trkpt><trkpt lat="43.49004539661139" lon="11.38455255915857"><ele>463.0</ele><time>2026-04-11T06:31:59.999Z</time></trkpt><trkpt lat="43.49007024708533" lon="11.384715145119603"><ele>463.0</ele><time>2026-04-11T06:32:00.999Z</time></trkpt><trkpt lat="43.490127703445374" lon="11.384867014310322"><ele>463.0</ele><time>2026-04-11T06:32:01.999Z</time></trkpt><trkpt lat="43.49020365360391" lon="11.384993009155004"><ele>462.2</ele><time>2026-04-11T06:32:02.999Z</time></trkpt><trkpt lat="43.49026414466897" lon="11.38510937013601"><ele>461.4</ele><time>2026-04-11T06:32:03.999Z</time></trkpt><trkpt lat="43.490292642157804" lon="11.385238467207055"><ele>460.59999999999997</ele><time>2026-04-11T06:32:04.999Z</time></trkpt><trkpt lat="43.4903006221495" lon="11.385380139965593"><ele>459.79999999999995</ele><time>2026-04-11T06:32:05.999Z</time></trkpt><trkpt lat="43.490291864817564" lon="11.385520994472401"><ele>459.0</ele><time>2026-04-11T06:32:06.999Z</time></trkpt><trkpt lat="43.49029289070935" lon="11.385664106527466"><ele>459.0</ele><time>2026-04-11T06:32:07.999Z</time></trkpt><trkpt lat="43.49029223326622" lon="11.385798272516478"><ele>459.0</ele><time>2026-04-11T06:32:08.999Z</time></trkpt><trkpt lat="43.49027875402572" lon="11.385927298300478"><ele>459.0</ele><time>2026-04-11T06:32:09.999Z</time></trkpt><trkpt lat="43.490240105969555" lon="11.386045071109473"><ele>459.0</ele><time>2026-04-11T06:32:10.999Z</time></trkpt><trkpt lat="43.49017544089505" lon="11.386142535119433"><ele>459.0</ele><time>2026-04-11T06:32:11.999Z</time></trkpt><trkpt lat="43.49009800960074" lon="11.386222645896167"><ele>459.0</ele><time>2026-04-11T06:32:12.999Z</time></trkpt><trkpt lat="43.49002831248355" lon="11.386299982367792"><ele>459.0</ele><time>2026-04-11T06:32:13.999Z</time></trkpt><trkpt lat="43.48994398439422" lon="11.386312808013141"><ele>459.0</ele><time>2026-04-11T06:32:14.999Z</time></trkpt><trkpt lat="43.489869352295074" lon="11.38628333041151"><ele>459.0</ele><time>2026-04-11T06:32:15.999Z</time></trkpt><trkpt lat="43.48980896998398" lon="11.38620799144626"><ele>459.0</ele><time>2026-04-11T06:32:16.999Z</time></trkpt><trkpt lat="43.489744530044" lon="11.386172004524893"><ele>459.0</ele><time>2026-04-11T06:32:17.999Z</time></trkpt><trkpt lat="43.48967912631884" lon="11.386213172696996"><ele>459.0</ele><time>2026-04-11T06:32:18.999Z</time></trkpt><trkpt lat="43.489644945882915" lon="11.386315236240547"><ele>459.0</ele><time>2026-04-11T06:32:19.999Z</time></trkpt><trkpt lat="43.489649069729055" lon="11.3864204577511"><ele>459.0</ele><time>2026-04-11T06:32:20.999Z</time></trkpt><trkpt lat="43.48965040018764" lon="11.386508390886064"><ele>459.0</ele><time>2026-04-11T06:32:21.999Z</time></trkpt><trkpt lat="43.48961328226195" lon="11.386651118764693"><ele>459.0</ele><time>2026-04-11T06:32:23.999Z</time></trkpt><trkpt lat="43.48957696463915" lon="11.386792980188146"><ele>459.0</ele><time>2026-04-11T06:32:25.999Z</time></trkpt><trkpt lat="43.489551800194285" lon="11.386935697086638"><ele>456.79999999999995</ele><time>2026-04-11T06:32:27.999Z</time></trkpt><trkpt lat="43.489532380115065" lon="11.387090121653731"><ele>454.59999999999997</ele><time>2026-04-11T06:32:29.999Z</time></trkpt><trkpt lat="43.48951579612987" lon="11.387252145482647"><ele>452.4</ele><time>2026-04-11T06:32:31.999Z</time></trkpt><trkpt lat="43.48951233814207" lon="11.387339437540087"><ele>450.2</ele><time>2026-04-11T06:32:32.999Z</time></trkpt><trkpt lat="43.48950500632093" lon="11.387426121369344"><ele>448.0</ele><time>2026-04-11T06:32:33.999Z</time></trkpt><trkpt lat="43.48947980462581" lon="11.387588429713292"><ele>448.0</ele><time>2026-04-11T06:32:35.999Z</time></trkpt><trkpt lat="43.489474943517884" lon="11.387756753609471"><ele>447.99999999999994</ele><time>2026-04-11T06:32:37.999Z</time></trkpt><trkpt lat="43.48945809863564" lon="11.387842876102768"><ele>447.99999999999994</ele><time>2026-04-11T06:32:38.999Z</time></trkpt><trkpt lat="43.489451139181234" lon="11.38792946664686"><ele>448.0</ele><time>2026-04-11T06:32:39.999Z</time></trkpt><trkpt lat="43.489429948945386" lon="11.388096465478698"><ele>448.0</ele><time>2026-04-11T06:32:41.999Z</time></trkpt><trkpt lat="43.48941311362544" lon="11.38826597572822"><ele>448.75</ele><time>2026-04-11T06:32:43.999Z</time></trkpt><trkpt lat="43.489396668000396" lon="11.388428708391269"><ele>449.5</ele><time>2026-04-11T06:32:45.999Z</time></trkpt><trkpt lat="43.489381798053444" lon="11.388593383680478"><ele>450.25</ele><time>2026-04-11T06:32:47.999Z</time></trkpt><trkpt lat="43.489353328868745" lon="11.388754708537565"><ele>451.0</ele><time>2026-04-11T06:32:49.999Z</time></trkpt><trkpt lat="43.489308530596546" lon="11.388902460169026"><ele>451.8</ele><time>2026-04-11T06:32:51.999Z</time></trkpt><trkpt lat="43.489265281946" lon="11.389038604683416"><ele>452.6</ele><time>2026-04-11T06:32:53.999Z</time></trkpt><trkpt lat="43.489248043790596" lon="11.389182569410657"><ele>453.4</ele><time>2026-04-11T06:32:55.999Z</time></trkpt><trkpt lat="43.48927225380705" lon="11.389323223615753"><ele>454.2</ele><time>2026-04-11T06:32:57.999Z</time></trkpt><trkpt lat="43.489304614226214" lon="11.389427942017738"><ele>455.0</ele><time>2026-04-11T06:33:00.999Z</time></trkpt><trkpt lat="43.48936860422625" lon="11.389583157018814"><ele>454.6</ele><time>2026-04-11T06:33:01.999Z</time></trkpt><trkpt lat="43.48940095525482" lon="11.389727797414944"><ele>454.2</ele><time>2026-04-11T06:33:03.999Z</time></trkpt><trkpt lat="43.489445387041364" lon="11.389855209941686"><ele>453.79999999999995</ele><time>2026-04-11T06:33:05.999Z</time></trkpt><trkpt lat="43.489493565481865" lon="11.389993366374977"><ele>453.4</ele><time>2026-04-11T06:33:07.999Z</time></trkpt><trkpt lat="43.48953871149214" lon="11.390122122651317"><ele>453.0</ele><time>2026-04-11T06:33:09.999Z</time></trkpt><trkpt lat="43.48957859717567" lon="11.390248144578278"><ele>454.2</ele><time>2026-04-11T06:33:12Z</time></trkpt><trkpt lat="43.48963498145382" lon="11.390363902413002"><ele>455.4</ele><time>2026-04-11T06:33:14Z</time></trkpt><trkpt lat="43.48968273526254" lon="11.39048517275242"><ele>456.59999999999997</ele><time>2026-04-11T06:33:16Z</time></trkpt><trkpt lat="43.48973184241928" lon="11.390606148403698"><ele>457.79999999999995</ele><time>2026-04-11T06:33:18Z</time></trkpt><trkpt lat="43.489790562681655" lon="11.390721383604562"><ele>459.0</ele><time>2026-04-11T06:33:20Z</time></trkpt><trkpt lat="43.48986298189231" lon="11.390847747740395"><ele>459.0</ele><time>2026-04-11T06:33:22Z</time></trkpt><trkpt lat="43.48993326673534" lon="11.390967846498793"><ele>459.0</ele><time>2026-04-11T06:33:24Z</time></trkpt><trkpt lat="43.4900235836279" lon="11.391074060209872"><ele>459.0</ele><time>2026-04-11T06:33:26Z</time></trkpt><trkpt lat="43.4901108741811" lon="11.391192607480562"><ele>459.0</ele><time>2026-04-11T06:33:28Z</time></trkpt><trkpt lat="43.49015017112795" lon="11.391261543783983"><ele>459.0</ele><time>2026-04-11T06:33:29Z</time></trkpt><trkpt lat="43.49018748618607" lon="11.391421337914494"><ele>458.4</ele><time>2026-04-11T06:33:31Z</time></trkpt><trkpt lat="43.49018754987987" lon="11.391585206448186"><ele>457.79999999999995</ele><time>2026-04-11T06:33:33Z</time></trkpt><trkpt lat="43.490178328962116" lon="11.391743871957086"><ele>457.20000000000005</ele><time>2026-04-11T06:33:35Z</time></trkpt><trkpt lat="43.49018519795071" lon="11.39189617817523"><ele>456.6</ele><time>2026-04-11T06:33:37Z</time></trkpt><trkpt lat="43.4901810580492" lon="11.392032249937422"><ele>456.0</ele><time>2026-04-11T06:33:39Z</time></trkpt><trkpt lat="43.49017933943581" lon="11.392162210783033"><ele>456.1666666666667</ele><time>2026-04-11T06:33:41Z</time></trkpt><trkpt lat="43.49018160663984" lon="11.392284577798003"><ele>456.33333333333337</ele><time>2026-04-11T06:33:43Z</time></trkpt><trkpt lat="43.49019983791184" lon="11.392393178148822"><ele>456.5</ele><time>2026-04-11T06:33:45Z</time></trkpt><trkpt lat="43.49022884529333" lon="11.392487509342857"><ele>456.6666666666667</ele><time>2026-04-11T06:33:47Z</time></trkpt><trkpt lat="43.490236305723464" lon="11.392587553031769"><ele>456.83333333333337</ele><time>2026-04-11T06:33:49Z</time></trkpt><trkpt lat="43.490258826868576" lon="11.392681550811718"><ele>457.0</ele><time>2026-04-11T06:33:51Z</time></trkpt><trkpt lat="43.490286052198755" lon="11.39277423204423"><ele>457.00000000000006</ele><time>2026-04-11T06:33:52.999Z</time></trkpt><trkpt lat="43.49032441519094" lon="11.3928603748936"><ele>457.0</ele><time>2026-04-11T06:33:55.999Z</time></trkpt><trkpt lat="43.490374233202516" lon="11.392979905999432"><ele>457.0</ele><time>2026-04-11T06:33:58.999Z</time></trkpt><trkpt lat="43.49039424944738" lon="11.39308199353807"><ele>457.0</ele><time>2026-04-11T06:34:00.999Z</time></trkpt><trkpt lat="43.49041113971029" lon="11.393181921964883"><ele>457.00000000000006</ele><time>2026-04-11T06:34:02.999Z</time></trkpt><trkpt lat="43.490422890891416" lon="11.393276183940587"><ele>457.0</ele><time>2026-04-11T06:34:04.999Z</time></trkpt><trkpt lat="43.490427015933996" lon="11.393364198047903"><ele>457.4285714285715</ele><time>2026-04-11T06:34:06.999Z</time></trkpt><trkpt lat="43.490417809924296" lon="11.393455165607202"><ele>457.8571428571429</ele><time>2026-04-11T06:34:08.999Z</time></trkpt><trkpt lat="43.490404768822884" lon="11.393543084527387"><ele>458.2857142857143</ele><time>2026-04-11T06:34:10.999Z</time></trkpt><trkpt lat="43.49039210610369" lon="11.3936446794695"><ele>458.7142857142857</ele><time>2026-04-11T06:34:12.999Z</time></trkpt><trkpt lat="43.49037118492821" lon="11.39373205088183"><ele>459.1428571428571</ele><time>2026-04-11T06:34:14.999Z</time></trkpt><trkpt lat="43.490339866172114" lon="11.393825124621968"><ele>459.5714285714285</ele><time>2026-04-11T06:34:16.999Z</time></trkpt><trkpt lat="43.49030018735767" lon="11.3939348989805"><ele>459.99999999999994</ele><time>2026-04-11T06:34:19.999Z</time></trkpt><trkpt lat="43.49024447519949" lon="11.39402311621244"><ele>460.5714285714285</ele><time>2026-04-11T06:34:21.999Z</time></trkpt><trkpt lat="43.49021423628165" lon="11.394101236287465"><ele>461.1428571428571</ele><time>2026-04-11T06:34:23.999Z</time></trkpt><trkpt lat="43.49018807063651" lon="11.394184534607252"><ele>461.7142857142857</ele><time>2026-04-11T06:34:25.999Z</time></trkpt><trkpt lat="43.490169835550525" lon="11.394268990895892"><ele>462.2857142857143</ele><time>2026-04-11T06:34:27.999Z</time></trkpt><trkpt lat="43.49014231060174" lon="11.394356083039083"><ele>462.8571428571429</ele><time>2026-04-11T06:34:29.999Z</time></trkpt><trkpt lat="43.490125642199764" lon="11.394467347266948"><ele>463.4285714285715</ele><time>2026-04-11T06:34:32.999Z</time></trkpt><trkpt lat="43.49011547168593" lon="11.394565216969612"><ele>464.00000000000006</ele><time>2026-04-11T06:34:35.999Z</time></trkpt><trkpt lat="43.49011312925479" lon="11.394664435135212"><ele>464.8333333333333</ele><time>2026-04-11T06:34:38.999Z</time></trkpt><trkpt lat="43.49008865999421" lon="11.394748199897064"><ele>465.66666666666663</ele><time>2026-04-11T06:34:40.999Z</time></trkpt><trkpt lat="43.49010247504897" lon="11.394872249666388"><ele>466.5</ele><time>2026-04-11T06:34:44.999Z</time></trkpt><trkpt lat="43.4901084121534" lon="11.39497846255781"><ele>467.33333333333337</ele><time>2026-04-11T06:34:47.999Z</time></trkpt><trkpt lat="43.49011432184928" lon="11.395093144002622"><ele>468.1666666666667</ele><time>2026-04-11T06:34:50.999Z</time></trkpt><trkpt lat="43.49012268475969" lon="11.395196628364427"><ele>469.0</ele><time>2026-04-11T06:34:53.999Z</time></trkpt><trkpt lat="43.49012581019291" lon="11.395297820782794"><ele>469.00000000000006</ele><time>2026-04-11T06:34:56.999Z</time></trkpt><trkpt lat="43.49012633410017" lon="11.39540573036523"><ele>469.0</ele><time>2026-04-11T06:34:59.999Z</time></trkpt><trkpt lat="43.49012308885126" lon="11.395515034675345"><ele>469.0</ele><time>2026-04-11T06:35:02.999Z</time></trkpt><trkpt lat="43.49011704414567" lon="11.395625479912855"><ele>469.0</ele><time>2026-04-11T06:35:05.999Z</time></trkpt><trkpt lat="43.490107498910454" lon="11.395734307575372"><ele>469.00000000000006</ele><time>2026-04-11T06:35:08.999Z</time></trkpt><trkpt lat="43.49009545293217" lon="11.395846479693276"><ele>469.0</ele><time>2026-04-11T06:35:11.999Z</time></trkpt><trkpt lat="43.490081844212234" lon="11.395950680844301"><ele>469.6666666666667</ele><time>2026-04-11T06:35:14.999Z</time></trkpt><trkpt lat="43.49006633222703" lon="11.396059036098217"><ele>470.33333333333337</ele><time>2026-04-11T06:35:18Z</time></trkpt><trkpt lat="43.49004684481247" lon="11.396165261995048"><ele>471.0</ele><time>2026-04-11T06:35:21Z</time></trkpt><trkpt lat="43.49002090444477" lon="11.396270400928195"><ele>471.66666666666663</ele><time>2026-04-11T06:35:24Z</time></trkpt><trkpt lat="43.48998143358271" lon="11.396369354105781"><ele>472.3333333333333</ele><time>2026-04-11T06:35:27Z</time></trkpt><trkpt lat="43.48992879230186" lon="11.396455535336282"><ele>473.0</ele><time>2026-04-11T06:35:30Z</time></trkpt><trkpt lat="43.48987212192538" lon="11.396532819183715"><ele>472.99999999999994</ele><time>2026-04-11T06:35:33Z</time></trkpt><trkpt lat="43.489825714890124" lon="11.39659328169203"><ele>473.0</ele><time>2026-04-11T06:35:36Z</time></trkpt><trkpt lat="43.48976527973001" lon="11.396650097071994"><ele>473.0</ele><time>2026-04-11T06:35:39Z</time></trkpt><trkpt lat="43.48971751162088" lon="11.396730813747777"><ele>473.0</ele><time>2026-04-11T06:35:42Z</time></trkpt><trkpt lat="43.48967280304936" lon="11.39681783925481"><ele>472.99999999999994</ele><time>2026-04-11T06:35:45Z</time></trkpt><trkpt lat="43.48962522041919" lon="11.396910460936832"><ele>473.0</ele><time>2026-04-11T06:35:48Z</time></trkpt><trkpt lat="43.48958508076169" lon="11.397011775467952"><ele>475.49999999999994</ele><time>2026-04-11T06:35:51Z</time></trkpt><trkpt lat="43.489536760346056" lon="11.39711082409258"><ele>478.0</ele><time>2026-04-11T06:35:53.999Z</time></trkpt><trkpt lat="43.489495582140314" lon="11.397210040671673"><ele>480.5</ele><time>2026-04-11T06:35:56.999Z</time></trkpt><trkpt lat="43.48944678520847" lon="11.397305765965045"><ele>483.0</ele><time>2026-04-11T06:35:59.999Z</time></trkpt><trkpt lat="43.48940912051316" lon="11.39739412431112"><ele>485.49999999999994</ele><time>2026-04-11T06:36:02.999Z</time></trkpt><trkpt lat="43.48937710516125" lon="11.397469568360732"><ele>488.0</ele><time>2026-04-11T06:36:05.999Z</time></trkpt><trkpt lat="43.48933540764356" lon="11.397552058155346"><ele>488.3333333333333</ele><time>2026-04-11T06:36:08.999Z</time></trkpt><trkpt lat="43.48929490567421" lon="11.397638541456649"><ele>488.66666666666663</ele><time>2026-04-11T06:36:11.999Z</time></trkpt><trkpt lat="43.489260942837" lon="11.397727301256557"><ele>489.0</ele><time>2026-04-11T06:36:13.999Z</time></trkpt><trkpt lat="43.48920848318518" lon="11.397816675761206"><ele>489.33333333333337</ele><time>2026-04-11T06:36:16.999Z</time></trkpt><trkpt lat="43.48915535944547" lon="11.397908812782447"><ele>489.6666666666667</ele><time>2026-04-11T06:36:19.999Z</time></trkpt><trkpt lat="43.48911118139705" lon="11.398003492134164"><ele>490.0</ele><time>2026-04-11T06:36:22.999Z</time></trkpt><trkpt lat="43.48906963055612" lon="11.398092780627836"><ele>489.00000000000006</ele><time>2026-04-11T06:36:25.999Z</time></trkpt><trkpt lat="43.489024135714054" lon="11.398183597007234"><ele>488.0</ele><time>2026-04-11T06:36:28.999Z</time></trkpt><trkpt lat="43.488983841497564" lon="11.398274630648482"><ele>487.0</ele><time>2026-04-11T06:36:31.999Z</time></trkpt><trkpt lat="43.48894097699271" lon="11.398363051727872"><ele>486.0</ele><time>2026-04-11T06:36:34.999Z</time></trkpt><trkpt lat="43.48890208832023" lon="11.398455317355237"><ele>485.00000000000006</ele><time>2026-04-11T06:36:37.999Z</time></trkpt><trkpt lat="43.488853784420726" lon="11.398539176474056"><ele>484.0</ele><time>2026-04-11T06:36:40.999Z</time></trkpt><trkpt lat="43.488819931486205" lon="11.39862808288685"><ele>484.00000000000006</ele><time>2026-04-11T06:36:43.999Z</time></trkpt><trkpt lat="43.48877852165154" lon="11.39871651170739"><ele>484.0</ele><time>2026-04-11T06:36:46.999Z</time></trkpt><trkpt lat="43.4887429934413" lon="11.398812497354402"><ele>484.0</ele><time>2026-04-11T06:36:49.999Z</time></trkpt><trkpt lat="43.488696550763855" lon="11.398899791063709"><ele>484.0</ele><time>2026-04-11T06:36:52.999Z</time></trkpt><trkpt lat="43.48865715588816" lon="11.398994055025232"><ele>484.00000000000006</ele><time>2026-04-11T06:36:55.999Z</time></trkpt><trkpt lat="43.48861298832174" lon="11.399084342521103"><ele>484.0</ele><time>2026-04-11T06:36:58.999Z</time></trkpt><trkpt lat="43.48857396096417" lon="11.399175510482918"><ele>486.2857142857143</ele><time>2026-04-11T06:37:01.999Z</time></trkpt><trkpt lat="43.488532743595336" lon="11.399263068161027"><ele>488.57142857142856</ele><time>2026-04-11T06:37:04.999Z</time></trkpt><trkpt lat="43.488488120317385" lon="11.399350183502644"><ele>490.85714285714283</ele><time>2026-04-11T06:37:07.999Z</time></trkpt><trkpt lat="43.48844509081213" lon="11.399433199525646"><ele>493.1428571428571</ele><time>2026-04-11T06:37:10.999Z</time></trkpt><trkpt lat="43.488393536983864" lon="11.39950269677849"><ele>495.42857142857144</ele><time>2026-04-11T06:37:13.999Z</time></trkpt><trkpt lat="43.48835024806057" lon="11.399566754342278"><ele>497.71428571428567</ele><time>2026-04-11T06:37:16.999Z</time></trkpt><trkpt lat="43.48827914221618" lon="11.399617257729036"><ele>500.0</ele><time>2026-04-11T06:37:20.999Z</time></trkpt><trkpt lat="43.488217801083685" lon="11.399655076772357"><ele>500.1428571428571</ele><time>2026-04-11T06:37:25Z</time></trkpt><trkpt lat="43.488144829925545" lon="11.399693325327824"><ele>500.28571428571433</ele><time>2026-04-11T06:37:30Z</time></trkpt><trkpt lat="43.48806931286819" lon="11.399718951448907"><ele>500.42857142857144</ele><time>2026-04-11T06:37:35Z</time></trkpt><trkpt lat="43.48799769993267" lon="11.399719819824318"><ele>500.57142857142856</ele><time>2026-04-11T06:37:39Z</time></trkpt><trkpt lat="43.4879251379027" lon="11.399727500607511"><ele>500.71428571428567</ele><time>2026-04-11T06:37:43Z</time></trkpt><trkpt lat="43.487859282783056" lon="11.399742525616448"><ele>500.8571428571429</ele><time>2026-04-11T06:37:46Z</time></trkpt><trkpt lat="43.48778755741895" lon="11.39975728774228"><ele>501.0</ele><time>2026-04-11T06:37:49Z</time></trkpt><trkpt lat="43.487718863884645" lon="11.399801965829262"><ele>501.0</ele><time>2026-04-11T06:37:52Z</time></trkpt><trkpt lat="43.4876741072194" lon="11.39987875956948"><ele>501.0</ele><time>2026-04-11T06:37:55Z</time></trkpt><trkpt lat="43.48764761332087" lon="11.399965864478942"><ele>501.0</ele><time>2026-04-11T06:37:58Z</time></trkpt><trkpt lat="43.4876172738915" lon="11.400054121707146"><ele>501.0</ele><time>2026-04-11T06:38:00.999Z</time></trkpt><trkpt lat="43.4876058970202" lon="11.400147441278168"><ele>501.0</ele><time>2026-04-11T06:38:03.999Z</time></trkpt><trkpt lat="43.48760198507848" lon="11.400257647293873"><ele>501.0</ele><time>2026-04-11T06:38:07.999Z</time></trkpt><trkpt lat="43.48759724699952" lon="11.400344265529958"><ele>501.0</ele><time>2026-04-11T06:38:10.999Z</time></trkpt><trkpt lat="43.48759909533806" lon="11.400458375616584"><ele>501.57142857142856</ele><time>2026-04-11T06:38:14.999Z</time></trkpt><trkpt lat="43.48759068767527" lon="11.400569451692835"><ele>502.1428571428571</ele><time>2026-04-11T06:38:18.999Z</time></trkpt><trkpt lat="43.48757927513791" lon="11.40068255891777"><ele>502.71428571428567</ele><time>2026-04-11T06:38:22.999Z</time></trkpt><trkpt lat="43.48755601047529" lon="11.40079189106203"><ele>503.2857142857143</ele><time>2026-04-11T06:38:26.999Z</time></trkpt><trkpt lat="43.48753691205193" lon="11.40087574583506"><ele>503.8571428571428</ele><time>2026-04-11T06:38:29.999Z</time></trkpt><trkpt lat="43.48751404687578" lon="11.400963721220633"><ele>504.4285714285714</ele><time>2026-04-11T06:38:32.999Z</time></trkpt><trkpt lat="43.48749806053372" lon="11.401050095459013"><ele>505.0</ele><time>2026-04-11T06:38:35.999Z</time></trkpt><trkpt lat="43.48749755510581" lon="11.401145967300403"><ele>505.00000000000006</ele><time>2026-04-11T06:38:38.999Z</time></trkpt><trkpt lat="43.487539605168415" lon="11.401239790108855"><ele>505.0</ele><time>2026-04-11T06:38:42.999Z</time></trkpt><trkpt lat="43.48762180351441" lon="11.401256067026523"><ele>505.0</ele><time>2026-04-11T06:38:46.999Z</time></trkpt><trkpt lat="43.48768410328366" lon="11.40121845318386"><ele>505.0</ele><time>2026-04-11T06:38:49.999Z</time></trkpt><trkpt lat="43.487738600427754" lon="11.401141064467588"><ele>505.00000000000006</ele><time>2026-04-11T06:38:53.999Z</time></trkpt><trkpt lat="43.487785980254664" lon="11.401063331269723"><ele>505.0</ele><time>2026-04-11T06:38:56.999Z</time></trkpt><trkpt lat="43.48782481799772" lon="11.400968933065288"><ele>505.0</ele><time>2026-04-11T06:38:59.999Z</time></trkpt><trkpt lat="43.487878071719805" lon="11.400904041992916"><ele>504.99999999999994</ele><time>2026-04-11T06:39:02.999Z</time></trkpt><trkpt lat="43.48792529885172" lon="11.400826222194718"><ele>505.0</ele><time>2026-04-11T06:39:05.999Z</time></trkpt><trkpt lat="43.487980416179916" lon="11.400758088507892"><ele>505.0</ele><time>2026-04-11T06:39:08.999Z</time></trkpt><trkpt lat="43.488048841626934" lon="11.400728557268188"><ele>504.99999999999994</ele><time>2026-04-11T06:39:11.999Z</time></trkpt><trkpt lat="43.48812005131997" lon="11.400732864788544"><ele>505.0</ele><time>2026-04-11T06:39:14.999Z</time></trkpt><trkpt lat="43.488190602293436" lon="11.400754174608528"><ele>505.0</ele><time>2026-04-11T06:39:17.999Z</time></trkpt><trkpt lat="43.48825107405558" lon="11.400800661883753"><ele>506.1428571428571</ele><time>2026-04-11T06:39:20.999Z</time></trkpt><trkpt lat="43.48831160054342" lon="11.40085659934879"><ele>507.2857142857142</ele><time>2026-04-11T06:39:23.999Z</time></trkpt><trkpt lat="43.48837087290337" lon="11.400900927489303"><ele>508.42857142857144</ele><time>2026-04-11T06:39:26.999Z</time></trkpt><trkpt lat="43.48842858068063" lon="11.40093894752504"><ele>509.57142857142856</ele><time>2026-04-11T06:39:30Z</time></trkpt><trkpt lat="43.488491968863315" lon="11.400982821151604"><ele>510.7142857142857</ele><time>2026-04-11T06:39:33Z</time></trkpt><trkpt lat="43.48855264358945" lon="11.401029683101045"><ele>511.8571428571429</ele><time>2026-04-11T06:39:36Z</time></trkpt><trkpt lat="43.48861436602627" lon="11.401083587252206"><ele>513.0</ele><time>2026-04-11T06:39:39Z</time></trkpt><trkpt lat="43.488679503692445" lon="11.4011382417029"><ele>513.0</ele><time>2026-04-11T06:39:42Z</time></trkpt><trkpt lat="43.488742705187136" lon="11.4011857390523"><ele>513.0</ele><time>2026-04-11T06:39:45Z</time></trkpt><trkpt lat="43.48880271710673" lon="11.401248551567276"><ele>513.0</ele><time>2026-04-11T06:39:48Z</time></trkpt><trkpt lat="43.488861610526705" lon="11.401324881325223"><ele>513.0</ele><time>2026-04-11T06:39:51Z</time></trkpt><trkpt lat="43.48889188748649" lon="11.40142344423492"><ele>513.0</ele><time>2026-04-11T06:39:54Z</time></trkpt><trkpt lat="43.488911669509406" lon="11.401524680152612"><ele>513.0</ele><time>2026-04-11T06:39:57Z</time></trkpt><trkpt lat="43.488910508968246" lon="11.401637315593899"><ele>513.0000000000001</ele><time>2026-04-11T06:40:00Z</time></trkpt><trkpt lat="43.488899096415324" lon="11.401738499273446"><ele>513.0</ele><time>2026-04-11T06:40:03Z</time></trkpt><trkpt lat="43.488885585248646" lon="11.4018325962482"><ele>513.0</ele><time>2026-04-11T06:40:06Z</time></trkpt><trkpt lat="43.48885389296447" lon="11.401926669852159"><ele>513.0</ele><time>2026-04-11T06:40:08.999Z</time></trkpt><trkpt lat="43.48882699202404" lon="11.40202007135679"><ele>513.0</ele><time>2026-04-11T06:40:11.999Z</time></trkpt><trkpt lat="43.48881141371341" lon="11.402117986921192"><ele>513.0000000000001</ele><time>2026-04-11T06:40:14.999Z</time></trkpt><trkpt lat="43.48879809767308" lon="11.402217286804625"><ele>513.0</ele><time>2026-04-11T06:40:17.999Z</time></trkpt><trkpt lat="43.48879363756385" lon="11.402323500040628"><ele>513.0</ele><time>2026-04-11T06:40:20.999Z</time></trkpt><trkpt lat="43.48879107039923" lon="11.402429728082403"><ele>513.0</ele><time>2026-04-11T06:40:23.999Z</time></trkpt><trkpt lat="43.48878719819411" lon="11.40254338282248"><ele>513.0</ele><time>2026-04-11T06:40:26.999Z</time></trkpt><trkpt lat="43.48877228104156" lon="11.402646248524107"><ele>513.0</ele><time>2026-04-11T06:40:29.999Z</time></trkpt><trkpt lat="43.488759737243505" lon="11.40275587646839"><ele>513.0</ele><time>2026-04-11T06:40:32.999Z</time></trkpt><trkpt lat="43.48875421275006" lon="11.402862933703881"><ele>513.0</ele><time>2026-04-11T06:40:35.999Z</time></trkpt><trkpt lat="43.488745590581246" lon="11.402967518653961"><ele>513.3333333333334</ele><time>2026-04-11T06:40:38.999Z</time></trkpt><trkpt lat="43.48874390554118" lon="11.403076569304538"><ele>513.6666666666666</ele><time>2026-04-11T06:40:41.999Z</time></trkpt><trkpt lat="43.488753025952846" lon="11.403182131607466"><ele>514.0</ele><time>2026-04-11T06:40:44.999Z</time></trkpt><trkpt lat="43.48876120788606" lon="11.40328559586571"><ele>514.3333333333333</ele><time>2026-04-11T06:40:47.999Z</time></trkpt><trkpt lat="43.488776225186285" lon="11.403389616030596"><ele>514.6666666666666</ele><time>2026-04-11T06:40:50.999Z</time></trkpt><trkpt lat="43.48878095881795" lon="11.403495709184744"><ele>515.0</ele><time>2026-04-11T06:40:53.999Z</time></trkpt><trkpt lat="43.48875294856599" lon="11.403597889389031"><ele>518.8333333333333</ele><time>2026-04-11T06:40:56.999Z</time></trkpt><trkpt lat="43.48873216872538" lon="11.403708610402726"><ele>522.6666666666666</ele><time>2026-04-11T06:40:59.999Z</time></trkpt><trkpt lat="43.48871612767323" lon="11.403797368217418"><ele>526.5</ele><time>2026-04-11T06:41:01.999Z</time></trkpt><trkpt lat="43.48870351671903" lon="11.403892037105384"><ele>530.3333333333334</ele><time>2026-04-11T06:41:03.999Z</time></trkpt><trkpt lat="43.48869482634154" lon="11.403994016166486"><ele>534.1666666666667</ele><time>2026-04-11T06:41:05.999Z</time></trkpt><trkpt lat="43.48869154425629" lon="11.404097653818164"><ele>538.0</ele><time>2026-04-11T06:41:08.999Z</time></trkpt><trkpt lat="43.4886928100257" lon="11.404246501670919"><ele>538.3333333333334</ele><time>2026-04-11T06:41:10.999Z</time></trkpt><trkpt lat="43.48870014329184" lon="11.404364798690667"><ele>538.6666666666667</ele><time>2026-04-11T06:41:13.999Z</time></trkpt><trkpt lat="43.48871795961266" lon="11.404479054359628"><ele>539.0</ele><time>2026-04-11T06:41:16.999Z</time></trkpt><trkpt lat="43.48874840752087" lon="11.40458458563522"><ele>539.3333333333334</ele><time>2026-04-11T06:41:19.999Z</time></trkpt><trkpt lat="43.48878167281007" lon="11.404688555033104"><ele>539.6666666666666</ele><time>2026-04-11T06:41:22.999Z</time></trkpt><trkpt lat="43.48881933346106" lon="11.404788660820365"><ele>540.0</ele><time>2026-04-11T06:41:25.999Z</time></trkpt><trkpt lat="43.48886289381127" lon="11.404892168307631"><ele>539.0</ele><time>2026-04-11T06:41:28.999Z</time></trkpt><trkpt lat="43.488902932582306" lon="11.40499337616033"><ele>538.0</ele><time>2026-04-11T06:41:31.999Z</time></trkpt><trkpt lat="43.4889391937282" lon="11.40509622610812"><ele>537.0</ele><time>2026-04-11T06:41:35Z</time></trkpt><trkpt lat="43.48897266764101" lon="11.405204562271505"><ele>536.0</ele><time>2026-04-11T06:41:38Z</time></trkpt><trkpt lat="43.48900145462302" lon="11.405307572227303"><ele>535.0</ele><time>2026-04-11T06:41:41Z</time></trkpt><trkpt lat="43.489016665395496" lon="11.405401903061714"><ele>534.0</ele><time>2026-04-11T06:41:44Z</time></trkpt><trkpt lat="43.48902856838417" lon="11.405500389998721"><ele>534.0</ele><time>2026-04-11T06:41:47Z</time></trkpt><trkpt lat="43.48904714174066" lon="11.405598031565832"><ele>534.0</ele><time>2026-04-11T06:41:50Z</time></trkpt><trkpt lat="43.48906553320111" lon="11.40568507457297"><ele>534.0</ele><time>2026-04-11T06:41:53Z</time></trkpt><trkpt lat="43.489070078067435" lon="11.405795622817761"><ele>534.0</ele><time>2026-04-11T06:41:56Z</time></trkpt><trkpt lat="43.4890984812207" lon="11.405914700597812"><ele>534.0</ele><time>2026-04-11T06:41:59Z</time></trkpt><trkpt lat="43.48911982678273" lon="11.406003053110254"><ele>534.0</ele><time>2026-04-11T06:42:01Z</time></trkpt><trkpt lat="43.48914600903731" lon="11.406099230326166"><ele>534.0000000000001</ele><time>2026-04-11T06:42:04Z</time></trkpt><trkpt lat="43.489173655215126" lon="11.406190106878928"><ele>534.0</ele><time>2026-04-11T06:42:06Z</time></trkpt><trkpt lat="43.48920654094554" lon="11.406276790606054"><ele>534.0</ele><time>2026-04-11T06:42:07.999Z</time></trkpt><trkpt lat="43.489235136190764" lon="11.406374803172351"><ele>534.0</ele><time>2026-04-11T06:42:09.999Z</time></trkpt><trkpt lat="43.4892697811409" lon="11.406464620711219"><ele>534.0</ele><time>2026-04-11T06:42:11.999Z</time></trkpt><trkpt lat="43.489309288607785" lon="11.40654381813101"><ele>534.0000000000001</ele><time>2026-04-11T06:42:13.999Z</time></trkpt><trkpt lat="43.489351516965684" lon="11.406625382261906"><ele>534.0</ele><time>2026-04-11T06:42:15.999Z</time></trkpt><trkpt lat="43.48939392432356" lon="11.40669476453385"><ele>534.0000000000001</ele><time>2026-04-11T06:42:17.999Z</time></trkpt><trkpt lat="43.48944062469601" lon="11.406763233587082"><ele>534.0</ele><time>2026-04-11T06:42:19.999Z</time></trkpt><trkpt lat="43.4894891210247" lon="11.406824518370042"><ele>534.0</ele><time>2026-04-11T06:42:21.999Z</time></trkpt><trkpt lat="43.48952670901714" lon="11.406897480218477"><ele>534.0</ele><time>2026-04-11T06:42:23.999Z</time></trkpt><trkpt lat="43.48959786399096" lon="11.406962232740298"><ele>534.0</ele><time>2026-04-11T06:42:26.999Z</time></trkpt><trkpt lat="43.48965266147965" lon="11.407037549118833"><ele>534.0000000000001</ele><time>2026-04-11T06:42:29.999Z</time></trkpt><trkpt lat="43.48970271822277" lon="11.407111810096165"><ele>534.0</ele><time>2026-04-11T06:42:32.999Z</time></trkpt><trkpt lat="43.48975452872101" lon="11.407192914460614"><ele>535.0</ele><time>2026-04-11T06:42:35.999Z</time></trkpt><trkpt lat="43.4898012699017" lon="11.407281089430498"><ele>536.0</ele><time>2026-04-11T06:42:38.999Z</time></trkpt><trkpt lat="43.489850889258406" lon="11.407368498788111"><ele>537.0</ele><time>2026-04-11T06:42:41.999Z</time></trkpt><trkpt lat="43.48988788223749" lon="11.407464048086807"><ele>538.0</ele><time>2026-04-11T06:42:44.999Z</time></trkpt><trkpt lat="43.48992576614416" lon="11.407562661039917"><ele>539.0</ele><time>2026-04-11T06:42:47.999Z</time></trkpt><trkpt lat="43.48995343304053" lon="11.407675781862299"><ele>540.0</ele><time>2026-04-11T06:42:50.999Z</time></trkpt><trkpt lat="43.48997305167567" lon="11.407800352448955"><ele>540.0</ele><time>2026-04-11T06:42:53.999Z</time></trkpt><trkpt lat="43.489989020201975" lon="11.407924828398547"><ele>540.0</ele><time>2026-04-11T06:42:56.999Z</time></trkpt><trkpt lat="43.49000056849857" lon="11.408011034303655"><ele>540.0</ele><time>2026-04-11T06:42:58.999Z</time></trkpt><trkpt lat="43.49001094907487" lon="11.408110289061957"><ele>540.0</ele><time>2026-04-11T06:43:01.999Z</time></trkpt><trkpt lat="43.49001970250961" lon="11.408221324490295"><ele>540.0</ele><time>2026-04-11T06:43:04.999Z</time></trkpt><trkpt lat="43.49002802795985" lon="11.408347487245829"><ele>540.0</ele><time>2026-04-11T06:43:07.999Z</time></trkpt><trkpt lat="43.49003962140951" lon="11.40846666553948"><ele>540.3333333333334</ele><time>2026-04-11T06:43:10.999Z</time></trkpt><trkpt lat="43.49004820445648" lon="11.408585049321344"><ele>540.6666666666666</ele><time>2026-04-11T06:43:13.999Z</time></trkpt><trkpt lat="43.49004859190053" lon="11.408702741643411"><ele>541.0</ele><time>2026-04-11T06:43:16.999Z</time></trkpt><trkpt lat="43.49005265265943" lon="11.40882950674005"><ele>541.3333333333333</ele><time>2026-04-11T06:43:19.999Z</time></trkpt><trkpt lat="43.490049803188406" lon="11.408918860599305"><ele>541.6666666666666</ele><time>2026-04-11T06:43:21.999Z</time></trkpt><trkpt lat="43.4900433749952" lon="11.409018019794678"><ele>542.0</ele><time>2026-04-11T06:43:23.999Z</time></trkpt><trkpt lat="43.49004023138687" lon="11.409124420690196"><ele>542.6666666666666</ele><time>2026-04-11T06:43:25.999Z</time></trkpt><trkpt lat="43.49003159586777" lon="11.40923812902883"><ele>543.3333333333333</ele><time>2026-04-11T06:43:27.999Z</time></trkpt><trkpt lat="43.49002461745543" lon="11.409355383368377"><ele>544.0</ele><time>2026-04-11T06:43:29.999Z</time></trkpt><trkpt lat="43.49003389960429" lon="11.409529061426825"><ele>544.6666666666666</ele><time>2026-04-11T06:43:31.999Z</time></trkpt><trkpt lat="43.49002716269847" lon="11.409642484993872"><ele>545.3333333333334</ele><time>2026-04-11T06:43:33.999Z</time></trkpt><trkpt lat="43.49002536932081" lon="11.40973971090734"><ele>546.0</ele><time>2026-04-11T06:43:35.999Z</time></trkpt><trkpt lat="43.48999802829021" lon="11.409858374557958"><ele>546.3333333333334</ele><time>2026-04-11T06:43:38.999Z</time></trkpt><trkpt lat="43.48997923287014" lon="11.409948014271043"><ele>546.6666666666666</ele><time>2026-04-11T06:43:41Z</time></trkpt><trkpt lat="43.48995579072969" lon="11.410051360173041"><ele>547.0</ele><time>2026-04-11T06:43:44Z</time></trkpt><trkpt lat="43.489912740835045" lon="11.4101450138743"><ele>547.3333333333333</ele><time>2026-04-11T06:43:47Z</time></trkpt><trkpt lat="43.48987429679808" lon="11.41025082981199"><ele>547.6666666666666</ele><time>2026-04-11T06:43:50Z</time></trkpt><trkpt lat="43.48982671860475" lon="11.410364726035484"><ele>548.0</ele><time>2026-04-11T06:43:53Z</time></trkpt><trkpt lat="43.48978083639257" lon="11.410447131754694"><ele>548.1666666666666</ele><time>2026-04-11T06:43:57Z</time></trkpt><trkpt lat="43.489746137141516" lon="11.410520179992378"><ele>548.3333333333333</ele><time>2026-04-11T06:44:00Z</time></trkpt><trkpt lat="43.489700434339774" lon="11.410626606658015"><ele>548.5</ele><time>2026-04-11T06:44:03Z</time></trkpt><trkpt lat="43.48964573829498" lon="11.410697454705629"><ele>548.6666666666666</ele><time>2026-04-11T06:44:06Z</time></trkpt><trkpt lat="43.489597402201206" lon="11.410775691804767"><ele>548.8333333333334</ele><time>2026-04-11T06:44:09Z</time></trkpt><trkpt lat="43.489556762840955" lon="11.410861468926337"><ele>549.0</ele><time>2026-04-11T06:44:12Z</time></trkpt><trkpt lat="43.4895237717783" lon="11.41095084052981"><ele>549.0</ele><time>2026-04-11T06:44:14.999Z</time></trkpt><trkpt lat="43.48949491638595" lon="11.4110523358337"><ele>549.0</ele><time>2026-04-11T06:44:17.999Z</time></trkpt><trkpt lat="43.48947091432406" lon="11.411148992432084"><ele>549.0</ele><time>2026-04-11T06:44:20.999Z</time></trkpt><trkpt lat="43.48946772537735" lon="11.411254784162635"><ele>549.0</ele><time>2026-04-11T06:44:23.999Z</time></trkpt><trkpt lat="43.48947433619875" lon="11.411360299033664"><ele>549.0</ele><time>2026-04-11T06:44:26.999Z</time></trkpt><trkpt lat="43.489488375143694" lon="11.4114608465026"><ele>549.0</ele><time>2026-04-11T06:44:29.999Z</time></trkpt><trkpt lat="43.48950502425012" lon="11.411565014566259"><ele>549.5</ele><time>2026-04-11T06:44:32.999Z</time></trkpt><trkpt lat="43.48952683277985" lon="11.41167711643679"><ele>550.0</ele><time>2026-04-11T06:44:35.999Z</time></trkpt><trkpt lat="43.48956732718685" lon="11.411792040204718"><ele>550.5</ele><time>2026-04-11T06:44:38.999Z</time></trkpt><trkpt lat="43.48960141044869" lon="11.411867445097696"><ele>551.0</ele><time>2026-04-11T06:44:40.999Z</time></trkpt><trkpt lat="43.489640796003485" lon="11.411950490713618"><ele>551.5</ele><time>2026-04-11T06:44:42.999Z</time></trkpt><trkpt lat="43.48968708688039" lon="11.412029409017096"><ele>552.0</ele><time>2026-04-11T06:44:44.999Z</time></trkpt><trkpt lat="43.48974236400444" lon="11.412104165862464"><ele>553.0</ele><time>2026-04-11T06:44:46.999Z</time></trkpt><trkpt lat="43.489805822094226" lon="11.412168581602156"><ele>554.0</ele><time>2026-04-11T06:44:48.999Z</time></trkpt><trkpt lat="43.48988111527874" lon="11.412227003408567"><ele>555.0</ele><time>2026-04-11T06:44:50.999Z</time></trkpt><trkpt lat="43.4899471731805" lon="11.412290949562985"><ele>556.0</ele><time>2026-04-11T06:44:52.999Z</time></trkpt><trkpt lat="43.49001488383813" lon="11.412353535364296"><ele>557.0</ele><time>2026-04-11T06:44:54.999Z</time></trkpt><trkpt lat="43.49008426430562" lon="11.412437810793799"><ele>558.0</ele><time>2026-04-11T06:44:56.999Z</time></trkpt><trkpt lat="43.49015795504498" lon="11.412533300928246"><ele>558.0</ele><time>2026-04-11T06:44:58.999Z</time></trkpt><trkpt lat="43.49023458034795" lon="11.412638689650468"><ele>558.0</ele><time>2026-04-11T06:45:00.999Z</time></trkpt><trkpt lat="43.49024631207531" lon="11.412729653629325"><ele>558.0</ele><time>2026-04-11T06:45:01.999Z</time></trkpt><trkpt lat="43.49032826327745" lon="11.412844697498906"><ele>558.0</ele><time>2026-04-11T06:45:03.999Z</time></trkpt><trkpt lat="43.490415078947876" lon="11.41296978458339"><ele>558.0</ele><time>2026-04-11T06:45:05.999Z</time></trkpt><trkpt lat="43.490489566097416" lon="11.413099840654718"><ele>555.75</ele><time>2026-04-11T06:45:07.999Z</time></trkpt><trkpt lat="43.490550656294324" lon="11.413241829712932"><ele>553.5</ele><time>2026-04-11T06:45:09.999Z</time></trkpt><trkpt lat="43.49058303294983" lon="11.413399537192952"><ele>551.25</ele><time>2026-04-11T06:45:11.999Z</time></trkpt><trkpt lat="43.4905870039497" lon="11.413566587699625"><ele>549.0</ele><time>2026-04-11T06:45:13.999Z</time></trkpt><trkpt lat="43.490564528008896" lon="11.413717577011004"><ele>549.8</ele><time>2026-04-11T06:45:15.999Z</time></trkpt><trkpt lat="43.490542419280644" lon="11.413859378521527"><ele>550.5999999999999</ele><time>2026-04-11T06:45:17.999Z</time></trkpt><trkpt lat="43.49051969733261" lon="11.413993013840312"><ele>551.4</ele><time>2026-04-11T06:45:19.999Z</time></trkpt><trkpt lat="43.490499252688416" lon="11.414113255606305"><ele>552.1999999999999</ele><time>2026-04-11T06:45:21.999Z</time></trkpt><trkpt lat="43.49047831684273" lon="11.41423983493973"><ele>553.0</ele><time>2026-04-11T06:45:23.999Z</time></trkpt><trkpt lat="43.490458597990354" lon="11.41436238018339"><ele>553.0</ele><time>2026-04-11T06:45:25.999Z</time></trkpt><trkpt lat="43.49044155006088" lon="11.414480663725607"><ele>553.0</ele><time>2026-04-11T06:45:27.999Z</time></trkpt><trkpt lat="43.49045920796202" lon="11.414607242784491"><ele>553.0</ele><time>2026-04-11T06:45:29.999Z</time></trkpt><trkpt lat="43.49044638867999" lon="11.414716767269793"><ele>553.0</ele><time>2026-04-11T06:45:31.999Z</time></trkpt><trkpt lat="43.4904303242644" lon="11.414828966505022"><ele>553.0</ele><time>2026-04-11T06:45:33.999Z</time></trkpt><trkpt lat="43.49040652070573" lon="11.414939442071962"><ele>553.0</ele><time>2026-04-11T06:45:35.999Z</time></trkpt><trkpt lat="43.49038614994488" lon="11.415054126896568"><ele>553.1999999999999</ele><time>2026-04-11T06:45:37.999Z</time></trkpt><trkpt lat="43.490361752381524" lon="11.415170307158874"><ele>553.4</ele><time>2026-04-11T06:45:39.999Z</time></trkpt><trkpt lat="43.490342996972124" lon="11.415295830229114"><ele>553.5999999999999</ele><time>2026-04-11T06:45:41.999Z</time></trkpt><trkpt lat="43.4903167496047" lon="11.415424928030586"><ele>553.8</ele><time>2026-04-11T06:45:43.999Z</time></trkpt><trkpt lat="43.490283940505385" lon="11.41555452621705"><ele>554.0</ele><time>2026-04-11T06:45:45.999Z</time></trkpt><trkpt lat="43.49025583371453" lon="11.415684403224574"><ele>554.4</ele><time>2026-04-11T06:45:48Z</time></trkpt><trkpt lat="43.49022543521239" lon="11.415811011794393"><ele>554.8</ele><time>2026-04-11T06:45:50Z</time></trkpt><trkpt lat="43.49019414530291" lon="11.415935965663005"><ele>555.2</ele><time>2026-04-11T06:45:52Z</time></trkpt><trkpt lat="43.49016538207147" lon="11.416058021917015"><ele>555.6</ele><time>2026-04-11T06:45:54Z</time></trkpt><trkpt lat="43.49014026875471" lon="11.416174077012991"><ele>556.0</ele><time>2026-04-11T06:45:56Z</time></trkpt><trkpt lat="43.49011866515217" lon="11.41628226869196"><ele>557.0</ele><time>2026-04-11T06:45:58Z</time></trkpt><trkpt lat="43.49009917452182" lon="11.416390760568461"><ele>558.0</ele><time>2026-04-11T06:46:00Z</time></trkpt><trkpt lat="43.49007999948185" lon="11.416489565560141"><ele>559.0</ele><time>2026-04-11T06:46:02Z</time></trkpt><trkpt lat="43.49006979099291" lon="11.416581312556826"><ele>560.0</ele><time>2026-04-11T06:46:04Z</time></trkpt><trkpt lat="43.49006597792285" lon="11.416694748232393"><ele>561.0</ele><time>2026-04-11T06:46:07Z</time></trkpt><trkpt lat="43.49006813873818" lon="11.41679803549223"><ele>562.0</ele><time>2026-04-11T06:46:10Z</time></trkpt><trkpt lat="43.490081566071126" lon="11.416907771495925"><ele>562.0</ele><time>2026-04-11T06:46:13Z</time></trkpt><trkpt lat="43.49010627204997" lon="11.417013255855942"><ele>562.0</ele><time>2026-04-11T06:46:15.999Z</time></trkpt><trkpt lat="43.4901347015119" lon="11.417133768817871"><ele>562.0</ele><time>2026-04-11T06:46:18.999Z</time></trkpt><trkpt lat="43.49016323106178" lon="11.417254498630207"><ele>562.0</ele><time>2026-04-11T06:46:21.999Z</time></trkpt><trkpt lat="43.49019541000464" lon="11.417374863223364"><ele>562.0</ele><time>2026-04-11T06:46:24.999Z</time></trkpt><trkpt lat="43.49022392731457" lon="11.41745482726724"><ele>562.0</ele><time>2026-04-11T06:46:26.999Z</time></trkpt><trkpt lat="43.49025667180071" lon="11.417546742882186"><ele>561.5</ele><time>2026-04-11T06:46:28.999Z</time></trkpt><trkpt lat="43.49028725339299" lon="11.417630093902602"><ele>561.0</ele><time>2026-04-11T06:46:30.999Z</time></trkpt><trkpt lat="43.490332350695155" lon="11.417712605723102"><ele>560.5</ele><time>2026-04-11T06:46:32.999Z</time></trkpt><trkpt lat="43.49038599691801" lon="11.417792610905309"><ele>560.0</ele><time>2026-04-11T06:46:34.999Z</time></trkpt><trkpt lat="43.49044709195295" lon="11.417857544406514"><ele>559.5</ele><time>2026-04-11T06:46:36.999Z</time></trkpt><trkpt lat="43.49051496808419" lon="11.417930948159977"><ele>559.0</ele><time>2026-04-11T06:46:38.999Z</time></trkpt><trkpt lat="43.490587603479185" lon="11.417981495641255"><ele>560.8</ele><time>2026-04-11T06:46:41.999Z</time></trkpt><trkpt lat="43.490679975420406" lon="11.418026885202455"><ele>562.5999999999999</ele><time>2026-04-11T06:46:43.999Z</time></trkpt><trkpt lat="43.49076511798941" lon="11.41808006882232"><ele>564.4</ele><time>2026-04-11T06:46:45.999Z</time></trkpt><trkpt lat="43.490817493679955" lon="11.418179402836596"><ele>566.1999999999999</ele><time>2026-04-11T06:46:47.999Z</time></trkpt><trkpt lat="43.490930736448774" lon="11.418335677233797"><ele>568.0</ele><time>2026-04-11T06:46:51.999Z</time></trkpt><trkpt lat="43.490955215479005" lon="11.418447961406338"><ele>568.0</ele><time>2026-04-11T06:46:54.999Z</time></trkpt><trkpt lat="43.490959518049834" lon="11.418586292209035"><ele>568.0</ele><time>2026-04-11T06:46:57.999Z</time></trkpt><trkpt lat="43.49095650627656" lon="11.418702298173812"><ele>568.0</ele><time>2026-04-11T06:46:59.999Z</time></trkpt><trkpt lat="43.49095596680575" lon="11.418845480304944"><ele>568.0</ele><time>2026-04-11T06:47:01.999Z</time></trkpt><trkpt lat="43.4909631225176" lon="11.419000590491606"><ele>568.0</ele><time>2026-04-11T06:47:03.999Z</time></trkpt><trkpt lat="43.490973776105534" lon="11.419087525698922"><ele>567.1666666666667</ele><time>2026-04-11T06:47:04.999Z</time></trkpt><trkpt lat="43.490995715208804" lon="11.419174219588522"><ele>566.3333333333334</ele><time>2026-04-11T06:47:05.999Z</time></trkpt><trkpt lat="43.49103560597461" lon="11.419336548866797"><ele>565.5</ele><time>2026-04-11T06:47:07.999Z</time></trkpt><trkpt lat="43.49105683051063" lon="11.419421053975809"><ele>564.6666666666666</ele><time>2026-04-11T06:47:08.999Z</time></trkpt><trkpt lat="43.49107902508113" lon="11.419517244415365"><ele>563.8333333333333</ele><time>2026-04-11T06:47:09.999Z</time></trkpt><trkpt lat="43.49109834281711" lon="11.419618135797862"><ele>563.0</ele><time>2026-04-11T06:47:10.999Z</time></trkpt><trkpt lat="43.4911525263955" lon="11.419706239450255"><ele>562.0</ele><time>2026-04-11T06:47:11.999Z</time></trkpt><trkpt lat="43.49117433900154" lon="11.419809825989141"><ele>561.0</ele><time>2026-04-11T06:47:12.999Z</time></trkpt><trkpt lat="43.49120306223414" lon="11.419925888791974"><ele>560.0</ele><time>2026-04-11T06:47:13.999Z</time></trkpt><trkpt lat="43.49121982811083" lon="11.420038388407143"><ele>559.0</ele><time>2026-04-11T06:47:14.999Z</time></trkpt><trkpt lat="43.491237402067824" lon="11.420153234162349"><ele>558.0</ele><time>2026-04-11T06:47:15.999Z</time></trkpt><trkpt lat="43.491258776464846" lon="11.42026237338644"><ele>557.0</ele><time>2026-04-11T06:47:16.999Z</time></trkpt><trkpt lat="43.49127639145388" lon="11.420369736625565"><ele>557.5</ele><time>2026-04-11T06:47:17.999Z</time></trkpt><trkpt lat="43.49123655779135" lon="11.420487223148728"><ele>558.0</ele><time>2026-04-11T06:47:18.999Z</time></trkpt><trkpt lat="43.491251343586676" lon="11.42057924994925"><ele>558.5</ele><time>2026-04-11T06:47:19.999Z</time></trkpt><trkpt lat="43.49127641955528" lon="11.420741246758457"><ele>559.0</ele><time>2026-04-11T06:47:21.999Z</time></trkpt><trkpt lat="43.49129646547314" lon="11.420872957852941"><ele>559.5</ele><time>2026-04-11T06:47:23.999Z</time></trkpt><trkpt lat="43.49130772651832" lon="11.420966984147716"><ele>560.0</ele><time>2026-04-11T06:47:25.999Z</time></trkpt><trkpt lat="43.49132941627433" lon="11.421050960439247"><ele>560.0</ele><time>2026-04-11T06:47:27.999Z</time></trkpt><trkpt lat="43.49127872945728" lon="11.421122568244158"><ele>560.0</ele><time>2026-04-11T06:47:29.999Z</time></trkpt><trkpt lat="43.49120499022154" lon="11.421247677147354"><ele>560.0</ele><time>2026-04-11T06:47:33.999Z</time></trkpt><trkpt lat="43.49115729753071" lon="11.421188257843209"><ele>560.0</ele><time>2026-04-11T06:47:34.999Z</time></trkpt><trkpt lat="43.49108020887144" lon="11.421212665985177"><ele>560.0</ele><time>2026-04-11T06:47:36.999Z</time></trkpt><trkpt lat="43.49100220923454" lon="11.421239488703446"><ele>560.0</ele><time>2026-04-11T06:47:38.999Z</time></trkpt><trkpt lat="43.49092387410268" lon="11.42126771761415"><ele>560.0</ele><time>2026-04-11T06:47:40.999Z</time></trkpt><trkpt lat="43.49083708563739" lon="11.42128987013006"><ele>560.0</ele><time>2026-04-11T06:47:42.999Z</time></trkpt><trkpt lat="43.490749349232225" lon="11.42131771245307"><ele>560.0</ele><time>2026-04-11T06:47:44.999Z</time></trkpt><trkpt lat="43.490659825294365" lon="11.421344261456143"><ele>560.0</ele><time>2026-04-11T06:47:46.999Z</time></trkpt><trkpt lat="43.490562286097436" lon="11.421376857445338"><ele>560.0</ele><time>2026-04-11T06:47:48.999Z</time></trkpt><trkpt lat="43.49046707244296" lon="11.421398592537633"><ele>561.6</ele><time>2026-04-11T06:47:50.998Z</time></trkpt><trkpt lat="43.4903650004478" lon="11.421429034050222"><ele>563.2</ele><time>2026-04-11T06:47:53Z</time></trkpt><trkpt lat="43.49025905470241" lon="11.421433266835686"><ele>564.8</ele><time>2026-04-11T06:47:55Z</time></trkpt><trkpt lat="43.490157292616836" lon="11.421466319450323"><ele>566.4</ele><time>2026-04-11T06:47:57Z</time></trkpt><trkpt lat="43.490044486738945" lon="11.421503438353378"><ele>568.0</ele><time>2026-04-11T06:47:59Z</time></trkpt><trkpt lat="43.48998229632369" lon="11.42152390217036"><ele>568.0</ele><time>2026-04-11T06:48:00Z</time></trkpt><trkpt lat="43.48991879767655" lon="11.421544796469542"><ele>568.0</ele><time>2026-04-11T06:48:01Z</time></trkpt><trkpt lat="43.489847209608115" lon="11.421568873355266"><ele>568.0</ele><time>2026-04-11T06:48:02Z</time></trkpt><trkpt lat="43.489767798780036" lon="11.421599005779456"><ele>568.0</ele><time>2026-04-11T06:48:03Z</time></trkpt><trkpt lat="43.489684923067486" lon="11.421631903606649"><ele>568.0</ele><time>2026-04-11T06:48:04Z</time></trkpt><trkpt lat="43.48959610253678" lon="11.421675217695991"><ele>568.0</ele><time>2026-04-11T06:48:05Z</time></trkpt><trkpt lat="43.48950759715251" lon="11.421728950343939"><ele>565.3333333333334</ele><time>2026-04-11T06:48:06Z</time></trkpt><trkpt lat="43.489420514688504" lon="11.421785040240513"><ele>562.6666666666667</ele><time>2026-04-11T06:48:07Z</time></trkpt><trkpt lat="43.4893352944019" lon="11.4218381992558"><ele>560.0</ele><time>2026-04-11T06:48:08Z</time></trkpt><trkpt lat="43.48925201127029" lon="11.421878870282512"><ele>557.3333333333334</ele><time>2026-04-11T06:48:09Z</time></trkpt><trkpt lat="43.48917005316401" lon="11.421886766703086"><ele>554.6666666666666</ele><time>2026-04-11T06:48:10Z</time></trkpt><trkpt lat="43.48909512625505" lon="11.421882431498382"><ele>552.0</ele><time>2026-04-11T06:48:11Z</time></trkpt><trkpt lat="43.48900783663692" lon="11.421884745340018"><ele>552.0</ele><time>2026-04-11T06:48:12Z</time></trkpt><trkpt lat="43.48894432265752" lon="11.42188642894522"><ele>552.0</ele><time>2026-04-11T06:48:13Z</time></trkpt><trkpt lat="43.48887882865384" lon="11.421894645379743"><ele>552.0</ele><time>2026-04-11T06:48:14Z</time></trkpt><trkpt lat="43.488770473858956" lon="11.421917891264167"><ele>552.0</ele><time>2026-04-11T06:48:16Z</time></trkpt><trkpt lat="43.48865968865902" lon="11.421966278305504"><ele>552.0</ele><time>2026-04-11T06:48:17.999Z</time></trkpt><trkpt lat="43.48854246490249" lon="11.42203326448904"><ele>552.8571428571429</ele><time>2026-04-11T06:48:19.999Z</time></trkpt><trkpt lat="43.48848061386858" lon="11.422074800329764"><ele>553.7142857142858</ele><time>2026-04-11T06:48:20.999Z</time></trkpt><trkpt lat="43.488425563129226" lon="11.422127305244173"><ele>554.5714285714286</ele><time>2026-04-11T06:48:21.999Z</time></trkpt><trkpt lat="43.488377673996624" lon="11.42218808728287"><ele>555.4285714285714</ele><time>2026-04-11T06:48:22.999Z</time></trkpt><trkpt lat="43.4883411579853" lon="11.422270130707183"><ele>556.2857142857142</ele><time>2026-04-11T06:48:23.999Z</time></trkpt><trkpt lat="43.488328114531114" lon="11.422367469411167"><ele>557.1428571428571</ele><time>2026-04-11T06:48:24.999Z</time></trkpt><trkpt lat="43.488307059688786" lon="11.422457053499029"><ele>558.0</ele><time>2026-04-11T06:48:25.999Z</time></trkpt><trkpt lat="43.48829338689849" lon="11.422548778181529"><ele>558.0</ele><time>2026-04-11T06:48:26.999Z</time></trkpt><trkpt lat="43.48826083324055" lon="11.42263607102079"><ele>558.0</ele><time>2026-04-11T06:48:27.999Z</time></trkpt><trkpt lat="43.48821199383081" lon="11.422758612584735"><ele>558.0</ele><time>2026-04-11T06:48:29.999Z</time></trkpt><trkpt lat="43.48811033981626" lon="11.422807459911255"><ele>558.0</ele><time>2026-04-11T06:48:31.999Z</time></trkpt><trkpt lat="43.4880141121964" lon="11.422724707350863"><ele>558.0</ele><time>2026-04-11T06:48:33.999Z</time></trkpt><trkpt lat="43.48793083976718" lon="11.422677041767534"><ele>557.3333333333334</ele><time>2026-04-11T06:48:35.999Z</time></trkpt><trkpt lat="43.48785901086489" lon="11.42261406554188"><ele>556.6666666666666</ele><time>2026-04-11T06:48:37.999Z</time></trkpt><trkpt lat="43.48780908993042" lon="11.422560497346856"><ele>556.0</ele><time>2026-04-11T06:48:39.999Z</time></trkpt><trkpt lat="43.487743127496195" lon="11.422498989970089"><ele>555.3333333333333</ele><time>2026-04-11T06:48:41.999Z</time></trkpt><trkpt lat="43.48767334183142" lon="11.422410768325644"><ele>554.6666666666666</ele><time>2026-04-11T06:48:43.999Z</time></trkpt><trkpt lat="43.48759051043195" lon="11.422331775555426"><ele>554.0</ele><time>2026-04-11T06:48:45.999Z</time></trkpt><trkpt lat="43.48753109538995" lon="11.422286262325548"><ele>554.0</ele><time>2026-04-11T06:48:47.999Z</time></trkpt><trkpt lat="43.48745745212951" lon="11.422204591933912"><ele>554.0</ele><time>2026-04-11T06:48:48.999Z</time></trkpt><trkpt lat="43.487397419125024" lon="11.422141661325268"><ele>554.0</ele><time>2026-04-11T06:48:49.999Z</time></trkpt><trkpt lat="43.48733347009389" lon="11.422077910087621"><ele>554.0</ele><time>2026-04-11T06:48:50.999Z</time></trkpt><trkpt lat="43.48727351647353" lon="11.42201205324179"><ele>554.0</ele><time>2026-04-11T06:48:51.999Z</time></trkpt><trkpt lat="43.48722012030882" lon="11.421936077345965"><ele>554.0</ele><time>2026-04-11T06:48:52.999Z</time></trkpt><trkpt lat="43.48716594253752" lon="11.421853452679304"><ele>552.1666666666666</ele><time>2026-04-11T06:48:53.999Z</time></trkpt><trkpt lat="43.48712255717098" lon="11.421764382366138"><ele>550.3333333333333</ele><time>2026-04-11T06:48:54.999Z</time></trkpt><trkpt lat="43.48708018347054" lon="11.421683189271485"><ele>548.5</ele><time>2026-04-11T06:48:55.999Z</time></trkpt><trkpt lat="43.4870344607065" lon="11.421597910916871"><ele>546.6666666666666</ele><time>2026-04-11T06:48:56.999Z</time></trkpt><trkpt lat="43.486996593902" lon="11.421507243267563"><ele>544.8333333333334</ele><time>2026-04-11T06:48:57.999Z</time></trkpt><trkpt lat="43.48695247703117" lon="11.421419110331593"><ele>543.0</ele><time>2026-04-11T06:48:58.999Z</time></trkpt><trkpt lat="43.48690742060653" lon="11.421330516672011"><ele>542.8333333333334</ele><time>2026-04-11T06:48:59.999Z</time></trkpt><trkpt lat="43.48685954511058" lon="11.421244730661162"><ele>542.6666666666666</ele><time>2026-04-11T06:49:00.999Z</time></trkpt><trkpt lat="43.48681550147848" lon="11.42115790699371"><ele>542.5</ele><time>2026-04-11T06:49:01.999Z</time></trkpt><trkpt lat="43.48677043549961" lon="11.421076589618826"><ele>542.3333333333333</ele><time>2026-04-11T06:49:02.999Z</time></trkpt><trkpt lat="43.48672820110248" lon="11.420992288919914"><ele>542.1666666666666</ele><time>2026-04-11T06:49:03.999Z</time></trkpt><trkpt lat="43.48668528928164" lon="11.42091297157627"><ele>542.0</ele><time>2026-04-11T06:49:04.999Z</time></trkpt><trkpt lat="43.48662780416663" lon="11.420849095585169"><ele>542.0</ele><time>2026-04-11T06:49:05.999Z</time></trkpt><trkpt lat="43.48658075774611" lon="11.42077186749171"><ele>542.0</ele><time>2026-04-11T06:49:06.999Z</time></trkpt><trkpt lat="43.48652793335972" lon="11.420683640753543"><ele>542.0</ele><time>2026-04-11T06:49:07.999Z</time></trkpt><trkpt lat="43.486477272572635" lon="11.420610470771733"><ele>542.0</ele><time>2026-04-11T06:49:08.999Z</time></trkpt><trkpt lat="43.486410267774055" lon="11.420547292208436"><ele>542.0</ele><time>2026-04-11T06:49:09.999Z</time></trkpt><trkpt lat="43.486354185262236" lon="11.420493744239774"><ele>542.0</ele><time>2026-04-11T06:49:10.999Z</time></trkpt><trkpt lat="43.486298634659924" lon="11.420440952676147"><ele>542.0</ele><time>2026-04-11T06:49:11.999Z</time></trkpt><trkpt lat="43.4862032763915" lon="11.420355092488833"><ele>543.0</ele><time>2026-04-11T06:49:13.999Z</time></trkpt><trkpt lat="43.48610298324058" lon="11.420297249016782"><ele>544.0</ele><time>2026-04-11T06:49:15.999Z</time></trkpt><trkpt lat="43.48601076878749" lon="11.420235755351323"><ele>545.0</ele><time>2026-04-11T06:49:17.999Z</time></trkpt><trkpt lat="43.485916350102464" lon="11.420177179960708"><ele>546.0</ele><time>2026-04-11T06:49:19.999Z</time></trkpt><trkpt lat="43.48582335675743" lon="11.420126050282743"><ele>547.0</ele><time>2026-04-11T06:49:21.999Z</time></trkpt><trkpt lat="43.48573226455432" lon="11.420073604810318"><ele>547.0</ele><time>2026-04-11T06:49:23.999Z</time></trkpt><trkpt lat="43.48563483033926" lon="11.420024745375557"><ele>547.0</ele><time>2026-04-11T06:49:25.999Z</time></trkpt><trkpt lat="43.48554570494249" lon="11.419972828475846"><ele>547.0</ele><time>2026-04-11T06:49:27.999Z</time></trkpt><trkpt lat="43.4854573453803" lon="11.419923972371544"><ele>547.0</ele><time>2026-04-11T06:49:29.999Z</time></trkpt><trkpt lat="43.4853630266155" lon="11.41987270565064"><ele>547.0</ele><time>2026-04-11T06:49:31.999Z</time></trkpt><trkpt lat="43.48527506624087" lon="11.419822347997087"><ele>546.8333333333334</ele><time>2026-04-11T06:49:33.999Z</time></trkpt><trkpt lat="43.485207253680336" lon="11.419782601230132"><ele>546.6666666666667</ele><time>2026-04-11T06:49:35.999Z</time></trkpt><trkpt lat="43.48513048937981" lon="11.419738774665557"><ele>546.5</ele><time>2026-04-11T06:49:37.999Z</time></trkpt><trkpt lat="43.48505398108864" lon="11.419693963768372"><ele>546.3333333333334</ele><time>2026-04-11T06:49:39.999Z</time></trkpt><trkpt lat="43.48497458149931" lon="11.419648412518464"><ele>546.1666666666666</ele><time>2026-04-11T06:49:41.999Z</time></trkpt><trkpt lat="43.48489894545449" lon="11.419601621650697"><ele>546.0</ele><time>2026-04-11T06:49:44.999Z</time></trkpt><trkpt lat="43.48484275765791" lon="11.419544461584685"><ele>546.0</ele><time>2026-04-11T06:49:45.999Z</time></trkpt><trkpt lat="43.48476403960534" lon="11.419506081062227"><ele>546.0</ele><time>2026-04-11T06:49:47.999Z</time></trkpt><trkpt lat="43.484686814136474" lon="11.419470996350174"><ele>546.0</ele><time>2026-04-11T06:49:49.999Z</time></trkpt><trkpt lat="43.48460383310132" lon="11.419453604044463"><ele>546.0</ele><time>2026-04-11T06:49:51.999Z</time></trkpt><trkpt lat="43.48452256226352" lon="11.41943444154393"><ele>546.0</ele><time>2026-04-11T06:49:53.999Z</time></trkpt><trkpt lat="43.48444058514806" lon="11.419426777996657"><ele>546.0</ele><time>2026-04-11T06:49:55.998Z</time></trkpt><trkpt lat="43.484359291912966" lon="11.419449623047381"><ele>546.3333333333334</ele><time>2026-04-11T06:49:57.998Z</time></trkpt><trkpt lat="43.48429646529915" lon="11.419462835148588"><ele>546.6666666666666</ele><time>2026-04-11T06:49:59Z</time></trkpt><trkpt lat="43.48417611416748" lon="11.419502938947504"><ele>547.0</ele><time>2026-04-11T06:50:01Z</time></trkpt><trkpt lat="43.48411327787818" lon="11.419471503365855"><ele>547.3333333333333</ele><time>2026-04-11T06:50:02Z</time></trkpt><trkpt lat="43.48405163803248" lon="11.419497654013107"><ele>547.6666666666666</ele><time>2026-04-11T06:50:03Z</time></trkpt><trkpt lat="43.483982099600375" lon="11.419535302780725"><ele>548.0</ele><time>2026-04-11T06:50:04Z</time></trkpt><trkpt lat="43.48390298029535" lon="11.419584884258597"><ele>548.0000000000001</ele><time>2026-04-11T06:50:05Z</time></trkpt><trkpt lat="43.483838491809095" lon="11.419628047683872"><ele>548.0</ele><time>2026-04-11T06:50:06Z</time></trkpt><trkpt lat="43.483772852630764" lon="11.419671626793523"><ele>548.0</ele><time>2026-04-11T06:50:07Z</time></trkpt><trkpt lat="43.48370961876238" lon="11.41971224878294"><ele>548.0</ele><time>2026-04-11T06:50:08Z</time></trkpt><trkpt lat="43.4836406521081" lon="11.419756553562586"><ele>548.0</ele><time>2026-04-11T06:50:09Z</time></trkpt><trkpt lat="43.483571947459" lon="11.419800690029243"><ele>548.0000000000001</ele><time>2026-04-11T06:50:10Z</time></trkpt><trkpt lat="43.48350185016944" lon="11.419845721138529"><ele>548.0</ele><time>2026-04-11T06:50:11Z</time></trkpt><trkpt lat="43.48343281619074" lon="11.419890069168016"><ele>547.5</ele><time>2026-04-11T06:50:12Z</time></trkpt><trkpt lat="43.48336309049551" lon="11.419934861564107"><ele>547.0</ele><time>2026-04-11T06:50:13Z</time></trkpt><trkpt lat="43.48329381922402" lon="11.419979858391516"><ele>546.5</ele><time>2026-04-11T06:50:14Z</time></trkpt><trkpt lat="43.48322499475105" lon="11.420024621132864"><ele>546.0</ele><time>2026-04-11T06:50:15Z</time></trkpt><trkpt lat="43.48315608562709" lon="11.42006943893513"><ele>545.5</ele><time>2026-04-11T06:50:16Z</time></trkpt><trkpt lat="43.48308745016302" lon="11.420114078752686"><ele>545.0</ele><time>2026-04-11T06:50:17Z</time></trkpt><trkpt lat="43.483021515221274" lon="11.420158173449545"><ele>545.0</ele><time>2026-04-11T06:50:18Z</time></trkpt><trkpt lat="43.48295551819272" lon="11.420203125043944"><ele>545.0</ele><time>2026-04-11T06:50:19Z</time></trkpt><trkpt lat="43.4828925065753" lon="11.420246043232746"><ele>545.0</ele><time>2026-04-11T06:50:20Z</time></trkpt><trkpt lat="43.48282782105657" lon="11.420290101542248"><ele>545.0</ele><time>2026-04-11T06:50:20.999Z</time></trkpt><trkpt lat="43.48276454716557" lon="11.420333198366786"><ele>545.0</ele><time>2026-04-11T06:50:21.999Z</time></trkpt><trkpt lat="43.48269982698701" lon="11.420377280283349"><ele>545.0</ele><time>2026-04-11T06:50:22.999Z</time></trkpt><trkpt lat="43.482632442829036" lon="11.420423176675563"><ele>545.0</ele><time>2026-04-11T06:50:23.999Z</time></trkpt><trkpt lat="43.48256537164236" lon="11.420468859905895"><ele>544.8571428571429</ele><time>2026-04-11T06:50:24.999Z</time></trkpt><trkpt lat="43.482499153607" lon="11.420513962026064"><ele>544.7142857142858</ele><time>2026-04-11T06:50:25.999Z</time></trkpt><trkpt lat="43.48243062506901" lon="11.420560637873075"><ele>544.5714285714286</ele><time>2026-04-11T06:50:26.999Z</time></trkpt><trkpt lat="43.48236379824496" lon="11.420607737829203"><ele>544.4285714285714</ele><time>2026-04-11T06:50:27.999Z</time></trkpt><trkpt lat="43.48229839228997" lon="11.42065508392623"><ele>544.2857142857142</ele><time>2026-04-11T06:50:28.999Z</time></trkpt><trkpt lat="43.48223453560053" lon="11.420701308550312"><ele>544.1428571428571</ele><time>2026-04-11T06:50:29.999Z</time></trkpt><trkpt lat="43.482167538430666" lon="11.42074991298494"><ele>544.0</ele><time>2026-04-11T06:50:30.999Z</time></trkpt><trkpt lat="43.48210170110117" lon="11.420798916247982"><ele>542.8333333333334</ele><time>2026-04-11T06:50:31.999Z</time></trkpt><trkpt lat="43.4820328667876" lon="11.420850150192656"><ele>541.6666666666667</ele><time>2026-04-11T06:50:32.999Z</time></trkpt><trkpt lat="43.4819647742404" lon="11.420901220228844"><ele>540.5</ele><time>2026-04-11T06:50:33.999Z</time></trkpt><trkpt lat="43.481896370423456" lon="11.42095365793764"><ele>539.3333333333334</ele><time>2026-04-11T06:50:34.999Z</time></trkpt><trkpt lat="43.481826729439454" lon="11.421007874767193"><ele>538.1666666666666</ele><time>2026-04-11T06:50:35.999Z</time></trkpt><trkpt lat="43.481756637745775" lon="11.421062815972483"><ele>537.0</ele><time>2026-04-11T06:50:36.999Z</time></trkpt><trkpt lat="43.48168594859253" lon="11.421118972841393"><ele>537.0</ele><time>2026-04-11T06:50:37.999Z</time></trkpt><trkpt lat="43.48161414166509" lon="11.421176017697423"><ele>537.0</ele><time>2026-04-11T06:50:38.999Z</time></trkpt><trkpt lat="43.481542373640075" lon="11.421233408355503"><ele>537.0</ele><time>2026-04-11T06:50:39.999Z</time></trkpt><trkpt lat="43.4814711183796" lon="11.421290819930691"><ele>537.0</ele><time>2026-04-11T06:50:40.999Z</time></trkpt><trkpt lat="43.481400821941385" lon="11.421347458967611"><ele>537.0</ele><time>2026-04-11T06:50:41.999Z</time></trkpt><trkpt lat="43.48133412926964" lon="11.421402008911892"><ele>537.0</ele><time>2026-04-11T06:50:42.999Z</time></trkpt><trkpt lat="43.48126969470385" lon="11.421455422064057"><ele>537.1428571428571</ele><time>2026-04-11T06:50:43.999Z</time></trkpt><trkpt lat="43.48120722638737" lon="11.421507205292547"><ele>537.2857142857142</ele><time>2026-04-11T06:50:44.999Z</time></trkpt><trkpt lat="43.48114771813363" lon="11.421556534771682"><ele>537.4285714285714</ele><time>2026-04-11T06:50:45.999Z</time></trkpt><trkpt lat="43.48108533280455" lon="11.421608249203418"><ele>537.5714285714286</ele><time>2026-04-11T06:50:46.999Z</time></trkpt><trkpt lat="43.481021247314715" lon="11.421661932534263"><ele>537.7142857142858</ele><time>2026-04-11T06:50:47.999Z</time></trkpt><trkpt lat="43.48095688569787" lon="11.421715797892116"><ele>537.8571428571429</ele><time>2026-04-11T06:50:48.999Z</time></trkpt><trkpt lat="43.48089134993856" lon="11.421769524780549"><ele>538.0</ele><time>2026-04-11T06:50:49.999Z</time></trkpt><trkpt lat="43.48082212774432" lon="11.421826273844722"><ele>538.0</ele><time>2026-04-11T06:50:50.999Z</time></trkpt><trkpt lat="43.48075254361725" lon="11.421882398920559"><ele>538.0</ele><time>2026-04-11T06:50:51.999Z</time></trkpt><trkpt lat="43.48068012213631" lon="11.421938765018426"><ele>538.0</ele><time>2026-04-11T06:50:52.999Z</time></trkpt><trkpt lat="43.48061014063186" lon="11.422013560551912"><ele>538.0</ele><time>2026-04-11T06:50:53.999Z</time></trkpt><trkpt lat="43.48053221664513" lon="11.422065442275958"><ele>538.0</ele><time>2026-04-11T06:50:54.999Z</time></trkpt><trkpt lat="43.48045626897262" lon="11.422114828749061"><ele>538.0</ele><time>2026-04-11T06:50:55.999Z</time></trkpt><trkpt lat="43.48038098335752" lon="11.422166290024036"><ele>537.1666666666667</ele><time>2026-04-11T06:50:56.999Z</time></trkpt><trkpt lat="43.48030794496776" lon="11.422225518466602"><ele>536.3333333333334</ele><time>2026-04-11T06:50:57.999Z</time></trkpt><trkpt lat="43.48023811734623" lon="11.422291438230259"><ele>535.5</ele><time>2026-04-11T06:50:58.999Z</time></trkpt><trkpt lat="43.48017054535192" lon="11.42235964563743"><ele>534.6666666666666</ele><time>2026-04-11T06:50:59.999Z</time></trkpt><trkpt lat="43.48010396684689" lon="11.42242817024988"><ele>533.8333333333333</ele><time>2026-04-11T06:51:00.999Z</time></trkpt><trkpt lat="43.48004199160646" lon="11.422496396426942"><ele>533.0</ele><time>2026-04-11T06:51:01.999Z</time></trkpt><trkpt lat="43.4799810113879" lon="11.422557825656062"><ele>533.0</ele><time>2026-04-11T06:51:02.999Z</time></trkpt><trkpt lat="43.4799216171869" lon="11.422618216257343"><ele>533.0</ele><time>2026-04-11T06:51:03.999Z</time></trkpt><trkpt lat="43.47986439017826" lon="11.42269037019753"><ele>533.0</ele><time>2026-04-11T06:51:04.999Z</time></trkpt><trkpt lat="43.47980818266771" lon="11.42275776790358"><ele>533.0</ele><time>2026-04-11T06:51:05.999Z</time></trkpt><trkpt lat="43.47975295965219" lon="11.422826102751536"><ele>533.0</ele><time>2026-04-11T06:51:06.999Z</time></trkpt><trkpt lat="43.479701583574354" lon="11.422887894910616"><ele>533.0</ele><time>2026-04-11T06:51:07.999Z</time></trkpt><trkpt lat="43.47965212046237" lon="11.422950631656306"><ele>533.0</ele><time>2026-04-11T06:51:08.999Z</time></trkpt><trkpt lat="43.4795583697181" lon="11.42307264716957"><ele>533.1999999999999</ele><time>2026-04-11T06:51:10.999Z</time></trkpt><trkpt lat="43.47947994140574" lon="11.42320555686719"><ele>533.4</ele><time>2026-04-11T06:51:12.999Z</time></trkpt><trkpt lat="43.47943171499103" lon="11.423266832097712"><ele>533.5999999999999</ele><time>2026-04-11T06:51:13.999Z</time></trkpt><trkpt lat="43.47936582462907" lon="11.423396729561782"><ele>533.8</ele><time>2026-04-11T06:51:15.999Z</time></trkpt><trkpt lat="43.47930596769894" lon="11.423515417580408"><ele>534.0</ele><time>2026-04-11T06:51:17.999Z</time></trkpt><trkpt lat="43.4792542040714" lon="11.4236400640478"><ele>534.0</ele><time>2026-04-11T06:51:19.999Z</time></trkpt><trkpt lat="43.47916424007291" lon="11.423759659214397"><ele>534.0</ele><time>2026-04-11T06:51:21.999Z</time></trkpt><trkpt lat="43.479116859140774" lon="11.423831256187357"><ele>534.0</ele><time>2026-04-11T06:51:22.999Z</time></trkpt><trkpt lat="43.479066270072494" lon="11.423904637759016"><ele>534.0</ele><time>2026-04-11T06:51:23.999Z</time></trkpt><trkpt lat="43.47898064722183" lon="11.424020773640136"><ele>534.0</ele><time>2026-04-11T06:51:25.999Z</time></trkpt><trkpt lat="43.47888858037779" lon="11.424125332303811"><ele>533.0</ele><time>2026-04-11T06:51:27.999Z</time></trkpt><trkpt lat="43.47883119442853" lon="11.424177637276314"><ele>532.0</ele><time>2026-04-11T06:51:28.999Z</time></trkpt><trkpt lat="43.47876776111766" lon="11.424227381001428"><ele>531.0</ele><time>2026-04-11T06:51:29.999Z</time></trkpt><trkpt lat="43.47869680454694" lon="11.424279717186426"><ele>530.0</ele><time>2026-04-11T06:51:30.999Z</time></trkpt><trkpt lat="43.47862272784725" lon="11.424333752734428"><ele>529.0</ele><time>2026-04-11T06:51:31.999Z</time></trkpt><trkpt lat="43.47855517949714" lon="11.424405485650208"><ele>528.0</ele><time>2026-04-11T06:51:32.999Z</time></trkpt><trkpt lat="43.478476245634916" lon="11.42443503005253"><ele>527.0</ele><time>2026-04-11T06:51:33.999Z</time></trkpt><trkpt lat="43.47840454808285" lon="11.424484601503304"><ele>526.0</ele><time>2026-04-11T06:51:34.999Z</time></trkpt><trkpt lat="43.47833435774809" lon="11.424533251892534"><ele>525.0</ele><time>2026-04-11T06:51:35.999Z</time></trkpt><trkpt lat="43.47827270335317" lon="11.4245766652309"><ele>524.0</ele><time>2026-04-11T06:51:36.999Z</time></trkpt><trkpt lat="43.478219695463196" lon="11.424638534038476"><ele>523.0</ele><time>2026-04-11T06:51:37.999Z</time></trkpt><trkpt lat="43.478119966980735" lon="11.42469212371287"><ele>522.0</ele><time>2026-04-11T06:51:39.999Z</time></trkpt><trkpt lat="43.478028703956724" lon="11.424701629777774"><ele>522.0</ele><time>2026-04-11T06:51:41.999Z</time></trkpt><trkpt lat="43.47796506371059" lon="11.424611473836478"><ele>522.0</ele><time>2026-04-11T06:51:42.999Z</time></trkpt><trkpt lat="43.477919739517766" lon="11.424538683014365"><ele>522.0</ele><time>2026-04-11T06:51:43.999Z</time></trkpt><trkpt lat="43.477879637550124" lon="11.424459748663937"><ele>522.0</ele><time>2026-04-11T06:51:44.999Z</time></trkpt><trkpt lat="43.47783128330889" lon="11.424381588254377"><ele>522.0</ele><time>2026-04-11T06:51:45.999Z</time></trkpt><trkpt lat="43.47777883658828" lon="11.424299267338725"><ele>522.0</ele><time>2026-04-11T06:51:46.999Z</time></trkpt><trkpt lat="43.477723457234696" lon="11.424211793293669"><ele>519.2</ele><time>2026-04-11T06:51:47.999Z</time></trkpt><trkpt lat="43.47766280912328" lon="11.424121190322698"><ele>516.4000000000001</ele><time>2026-04-11T06:51:48.999Z</time></trkpt><trkpt lat="43.47759998063715" lon="11.424019372092435"><ele>513.5999999999999</ele><time>2026-04-11T06:51:49.999Z</time></trkpt><trkpt lat="43.4775324114043" lon="11.423917884865872"><ele>510.79999999999995</ele><time>2026-04-11T06:51:50.999Z</time></trkpt><trkpt lat="43.47746141332094" lon="11.423813250450355"><ele>508.0</ele><time>2026-04-11T06:51:51.999Z</time></trkpt><trkpt lat="43.4773876421999" lon="11.423710248401141"><ele>508.0</ele><time>2026-04-11T06:51:52.999Z</time></trkpt><trkpt lat="43.477314099467094" lon="11.42360693235016"><ele>507.99999999999994</ele><time>2026-04-11T06:51:53.999Z</time></trkpt><trkpt lat="43.47724163289124" lon="11.423504058326108"><ele>507.99999999999994</ele><time>2026-04-11T06:51:54.999Z</time></trkpt><trkpt lat="43.47717448197298" lon="11.42340611060743"><ele>508.0</ele><time>2026-04-11T06:51:55.999Z</time></trkpt><trkpt lat="43.477109916339835" lon="11.423315929442273"><ele>508.0</ele><time>2026-04-11T06:51:56.999Z</time></trkpt><trkpt lat="43.47704953115699" lon="11.423235713610891"><ele>507.6666666666667</ele><time>2026-04-11T06:51:57.998Z</time></trkpt><trkpt lat="43.476992453018916" lon="11.423163445327285"><ele>507.33333333333337</ele><time>2026-04-11T06:51:58.998Z</time></trkpt><trkpt lat="43.47693832684276" lon="11.4230983785701"><ele>507.0</ele><time>2026-04-11T06:51:59.998Z</time></trkpt><trkpt lat="43.476885941869575" lon="11.423039418185095"><ele>506.66666666666663</ele><time>2026-04-11T06:52:00.998Z</time></trkpt><trkpt lat="43.476834225332404" lon="11.422984572434961"><ele>506.3333333333333</ele><time>2026-04-11T06:52:01.998Z</time></trkpt><trkpt lat="43.476732599174724" lon="11.422899168119967"><ele>506.0</ele><time>2026-04-11T06:52:03.998Z</time></trkpt><trkpt lat="43.47662581411547" lon="11.4228197317237"><ele>505.99999999999994</ele><time>2026-04-11T06:52:06Z</time></trkpt><trkpt lat="43.4765662415516" lon="11.422779117811745"><ele>506.0</ele><time>2026-04-11T06:52:07Z</time></trkpt><trkpt lat="43.4764997692156" lon="11.42273984220316"><ele>506.0</ele><time>2026-04-11T06:52:08Z</time></trkpt><trkpt lat="43.47643173931663" lon="11.422697660725778"><ele>506.0</ele><time>2026-04-11T06:52:09Z</time></trkpt><trkpt lat="43.476358261039884" lon="11.422656098284298"><ele>505.99999999999994</ele><time>2026-04-11T06:52:10Z</time></trkpt><trkpt lat="43.47628460992432" lon="11.422614442649843"><ele>506.0</ele><time>2026-04-11T06:52:11Z</time></trkpt><trkpt lat="43.4762090026207" lon="11.422571215980792"><ele>506.00000000000006</ele><time>2026-04-11T06:52:12Z</time></trkpt><trkpt lat="43.476135493356125" lon="11.422528515112806"><ele>506.0</ele><time>2026-04-11T06:52:13Z</time></trkpt><trkpt lat="43.4760644748294" lon="11.422486052854964"><ele>506.00000000000006</ele><time>2026-04-11T06:52:14Z</time></trkpt><trkpt lat="43.47599453359951" lon="11.422445780204697"><ele>506.00000000000006</ele><time>2026-04-11T06:52:15Z</time></trkpt><trkpt lat="43.4759267475053" lon="11.422407321171788"><ele>506.0</ele><time>2026-04-11T06:52:16Z</time></trkpt><trkpt lat="43.47585912707497" lon="11.422376521208"><ele>506.00000000000006</ele><time>2026-04-11T06:52:17Z</time></trkpt><trkpt lat="43.47579336599629" lon="11.422359422133404"><ele>506.00000000000006</ele><time>2026-04-11T06:52:18Z</time></trkpt><trkpt lat="43.4756735616412" lon="11.422333466856696"><ele>505.99999999999994</ele><time>2026-04-11T06:52:20Z</time></trkpt><trkpt lat="43.47557452849023" lon="11.422317661623623"><ele>506.0</ele><time>2026-04-11T06:52:22Z</time></trkpt><trkpt lat="43.475484714479784" lon="11.422339064692439"><ele>506.0</ele><time>2026-04-11T06:52:24Z</time></trkpt><trkpt lat="43.475418421773064" lon="11.42236039677748"><ele>506.0</ele><time>2026-04-11T06:52:25.999Z</time></trkpt><trkpt lat="43.47532894956576" lon="11.422409946942997"><ele>505.99999999999994</ele><time>2026-04-11T06:52:28.999Z</time></trkpt><trkpt lat="43.47525246543843" lon="11.422455870634996"><ele>506.0</ele><time>2026-04-11T06:52:31.999Z</time></trkpt><trkpt lat="43.47520984586392" lon="11.422533087608075"><ele>507.57142857142867</ele><time>2026-04-11T06:52:34.999Z</time></trkpt><trkpt lat="43.47514956054614" lon="11.42256131763649"><ele>509.14285714285717</ele><time>2026-04-11T06:52:37.999Z</time></trkpt><trkpt lat="43.47507867191948" lon="11.42260108422167"><ele>510.7142857142858</ele><time>2026-04-11T06:52:42.999Z</time></trkpt><trkpt lat="43.47500603878683" lon="11.422627728789918"><ele>512.2857142857143</ele><time>2026-04-11T06:52:47.999Z</time></trkpt><trkpt lat="43.47493224706282" lon="11.422639751605765"><ele>513.8571428571429</ele><time>2026-04-11T06:52:52.999Z</time></trkpt><trkpt lat="43.4748604018289" lon="11.422626669146258"><ele>515.4285714285714</ele><time>2026-04-11T06:52:56.999Z</time></trkpt><trkpt lat="43.47479775572844" lon="11.422612275795792"><ele>517.0</ele><time>2026-04-11T06:53:00.999Z</time></trkpt><trkpt lat="43.474727959476496" lon="11.422603598158194"><ele>517.0</ele><time>2026-04-11T06:53:04.999Z</time></trkpt><trkpt lat="43.47466050986055" lon="11.422576148503323"><ele>517.0</ele><time>2026-04-11T06:53:08.999Z</time></trkpt><trkpt lat="43.4745902179015" lon="11.422540695554382"><ele>517.0</ele><time>2026-04-11T06:53:12.999Z</time></trkpt><trkpt lat="43.47451358574256" lon="11.42251543433713"><ele>517.0</ele><time>2026-04-11T06:53:16.999Z</time></trkpt><trkpt lat="43.47444783337881" lon="11.42249632702494"><ele>517.0</ele><time>2026-04-11T06:53:19.999Z</time></trkpt><trkpt lat="43.474373503381806" lon="11.42246818095102"><ele>517.0</ele><time>2026-04-11T06:53:22.999Z</time></trkpt><trkpt lat="43.474285721154175" lon="11.422443655578826"><ele>517.5</ele><time>2026-04-11T06:53:24.999Z</time></trkpt><trkpt lat="43.47419453544565" lon="11.422412714412923"><ele>518.0</ele><time>2026-04-11T06:53:27.999Z</time></trkpt><trkpt lat="43.47411886095908" lon="11.422401576160887"><ele>518.5</ele><time>2026-04-11T06:53:29.999Z</time></trkpt><trkpt lat="43.474035377457575" lon="11.422393969948686"><ele>519.0</ele><time>2026-04-11T06:53:31.999Z</time></trkpt><trkpt lat="43.4739460864959" lon="11.422381028863876"><ele>519.5</ele><time>2026-04-11T06:53:33.999Z</time></trkpt><trkpt lat="43.473862084238675" lon="11.42235954849951"><ele>520.0</ele><time>2026-04-11T06:53:35.999Z</time></trkpt><trkpt lat="43.47377338625359" lon="11.422338940495342"><ele>519.6666666666667</ele><time>2026-04-11T06:53:37.999Z</time></trkpt><trkpt lat="43.47367176864306" lon="11.422306536610865"><ele>519.3333333333334</ele><time>2026-04-11T06:53:39.999Z</time></trkpt><trkpt lat="43.47355941086543" lon="11.422259386278999"><ele>519.0</ele><time>2026-04-11T06:53:41.999Z</time></trkpt><trkpt lat="43.47349612616097" lon="11.422231575289707"><ele>518.6666666666666</ele><time>2026-04-11T06:53:42.999Z</time></trkpt><trkpt lat="43.47342951048992" lon="11.422207251959076"><ele>518.3333333333333</ele><time>2026-04-11T06:53:43.999Z</time></trkpt><trkpt lat="43.47336094464073" lon="11.422180352653617"><ele>518.0</ele><time>2026-04-11T06:53:44.999Z</time></trkpt><trkpt lat="43.47329342079147" lon="11.422147559739031"><ele>517.8333333333333</ele><time>2026-04-11T06:53:45.999Z</time></trkpt><trkpt lat="43.4732278811885" lon="11.422102659526042"><ele>517.6666666666666</ele><time>2026-04-11T06:53:46.999Z</time></trkpt><trkpt lat="43.47316634567891" lon="11.422046512043591"><ele>517.5</ele><time>2026-04-11T06:53:47.999Z</time></trkpt><trkpt lat="43.47309624709048" lon="11.422000805366206"><ele>517.3333333333334</ele><time>2026-04-11T06:53:48.999Z</time></trkpt><trkpt lat="43.47302928638818" lon="11.421936253899759"><ele>517.1666666666667</ele><time>2026-04-11T06:53:49.999Z</time></trkpt><trkpt lat="43.47297090272289" lon="11.421868085279671"><ele>517.0</ele><time>2026-04-11T06:53:50.999Z</time></trkpt><trkpt lat="43.472919877432666" lon="11.421804581894605"><ele>517.0</ele><time>2026-04-11T06:53:51.999Z</time></trkpt><trkpt lat="43.47286746839324" lon="11.421739356328107"><ele>517.0</ele><time>2026-04-11T06:53:52.999Z</time></trkpt><trkpt lat="43.47279816810741" lon="11.421626330546038"><ele>517.0</ele><time>2026-04-11T06:53:54.999Z</time></trkpt><trkpt lat="43.472732451256896" lon="11.421552398771464"><ele>517.0</ele><time>2026-04-11T06:53:56.999Z</time></trkpt><trkpt lat="43.4726752853909" lon="11.421504878321885"><ele>517.0</ele><time>2026-04-11T06:53:58.999Z</time></trkpt><trkpt lat="43.472620785038394" lon="11.42145921069687"><ele>517.0</ele><time>2026-04-11T06:54:00.999Z</time></trkpt><trkpt lat="43.47254670339809" lon="11.421403750364167"><ele>517.0</ele><time>2026-04-11T06:54:03.998Z</time></trkpt><trkpt lat="43.47246406409431" lon="11.421358366544776"><ele>517.0</ele><time>2026-04-11T06:54:06.998Z</time></trkpt><trkpt lat="43.4724030253244" lon="11.421324480598896"><ele>517.0</ele><time>2026-04-11T06:54:08.998Z</time></trkpt><trkpt lat="43.47234250177433" lon="11.421286794426733"><ele>517.0</ele><time>2026-04-11T06:54:11Z</time></trkpt><trkpt lat="43.47227728772487" lon="11.421254762025619"><ele>517.0</ele><time>2026-04-11T06:54:13Z</time></trkpt><trkpt lat="43.4722108160334" lon="11.421222151871028"><ele>517.0</ele><time>2026-04-11T06:54:16Z</time></trkpt><trkpt lat="43.472132128986814" lon="11.421185481259338"><ele>517.0</ele><time>2026-04-11T06:54:19Z</time></trkpt><trkpt lat="43.47206854480535" lon="11.421153323520945"><ele>517.8333333333334</ele><time>2026-04-11T06:54:21Z</time></trkpt><trkpt lat="43.47199698064298" lon="11.421091769328902"><ele>518.6666666666667</ele><time>2026-04-11T06:54:24Z</time></trkpt><trkpt lat="43.471929711939204" lon="11.421006269277886"><ele>519.5</ele><time>2026-04-11T06:54:27Z</time></trkpt><trkpt lat="43.47186558073579" lon="11.420926464166147"><ele>520.3333333333334</ele><time>2026-04-11T06:54:30Z</time></trkpt><trkpt lat="43.47180776806093" lon="11.420853275951101"><ele>521.1666666666666</ele><time>2026-04-11T06:54:31.999Z</time></trkpt><trkpt lat="43.47173105504382" lon="11.420769629772105"><ele>522.0</ele><time>2026-04-11T06:54:34.999Z</time></trkpt><trkpt lat="43.47166278595975" lon="11.420684540423553"><ele>522.0</ele><time>2026-04-11T06:54:37.999Z</time></trkpt><trkpt lat="43.47161469343168" lon="11.4206136425303"><ele>522.0</ele><time>2026-04-11T06:54:39.999Z</time></trkpt><trkpt lat="43.47157028860051" lon="11.42053525459072"><ele>522.0</ele><time>2026-04-11T06:54:41.999Z</time></trkpt><trkpt lat="43.47152267113854" lon="11.420455429538984"><ele>522.0</ele><time>2026-04-11T06:54:43.999Z</time></trkpt><trkpt lat="43.47147080717409" lon="11.420379321609124"><ele>522.0</ele><time>2026-04-11T06:54:45.999Z</time></trkpt><trkpt lat="43.47141968134183" lon="11.42029127912176"><ele>522.0</ele><time>2026-04-11T06:54:47.999Z</time></trkpt><trkpt lat="43.47137620294929" lon="11.420207813782117"><ele>521.3333333333334</ele><time>2026-04-11T06:54:48.999Z</time></trkpt><trkpt lat="43.47133151208262" lon="11.420118590920861"><ele>520.6666666666666</ele><time>2026-04-11T06:54:49.999Z</time></trkpt><trkpt lat="43.47123551888842" lon="11.42001162202836"><ele>520.0</ele><time>2026-04-11T06:54:51.999Z</time></trkpt><trkpt lat="43.47118593707187" lon="11.419931012082667"><ele>519.3333333333333</ele><time>2026-04-11T06:54:52.999Z</time></trkpt><trkpt lat="43.471133924302926" lon="11.419846449868798"><ele>518.6666666666666</ele><time>2026-04-11T06:54:53.999Z</time></trkpt><trkpt lat="43.47108073798379" lon="11.419763711773108"><ele>518.0</ele><time>2026-04-11T06:54:54.999Z</time></trkpt><trkpt lat="43.47103196739489" lon="11.419661473156035"><ele>515.6</ele><time>2026-04-11T06:54:55.999Z</time></trkpt><trkpt lat="43.4709649089992" lon="11.419564486002507"><ele>513.1999999999999</ele><time>2026-04-11T06:54:56.999Z</time></trkpt><trkpt lat="43.470895887606694" lon="11.419461690789833"><ele>510.8</ele><time>2026-04-11T06:54:57.999Z</time></trkpt><trkpt lat="43.4708346488977" lon="11.41936714941201"><ele>508.4</ele><time>2026-04-11T06:54:58.999Z</time></trkpt><trkpt lat="43.47075559452677" lon="11.419260345763453"><ele>506.0</ele><time>2026-04-11T06:54:59.999Z</time></trkpt><trkpt lat="43.47068957878748" lon="11.419147046488256"><ele>505.99999999999994</ele><time>2026-04-11T06:55:00.999Z</time></trkpt><trkpt lat="43.47062960043569" lon="11.419038623518466"><ele>506.0</ele><time>2026-04-11T06:55:01.999Z</time></trkpt><trkpt lat="43.47057617852819" lon="11.418940702727944"><ele>506.0</ele><time>2026-04-11T06:55:02.999Z</time></trkpt><trkpt lat="43.470524744696796" lon="11.418847036700926"><ele>506.0</ele><time>2026-04-11T06:55:03.999Z</time></trkpt><trkpt lat="43.47047526537618" lon="11.418760800385574"><ele>505.99999999999994</ele><time>2026-04-11T06:55:04.999Z</time></trkpt><trkpt lat="43.470428443061834" lon="11.41868195472943"><ele>506.0</ele><time>2026-04-11T06:55:05.999Z</time></trkpt><trkpt lat="43.47039660429487" lon="11.418601654076687"><ele>505.3333333333333</ele><time>2026-04-11T06:55:06.999Z</time></trkpt><trkpt lat="43.470342510511195" lon="11.418541187741178"><ele>504.66666666666663</ele><time>2026-04-11T06:55:07.999Z</time></trkpt><trkpt lat="43.47028835936995" lon="11.418482547110058"><ele>504.0</ele><time>2026-04-11T06:55:08.999Z</time></trkpt><trkpt lat="43.470224131399334" lon="11.41846478426642"><ele>503.33333333333337</ele><time>2026-04-11T06:55:09.999Z</time></trkpt><trkpt lat="43.47013371841414" lon="11.418548951742723"><ele>502.6666666666667</ele><time>2026-04-11T06:55:10.999Z</time></trkpt><trkpt lat="43.47008922084351" lon="11.41865533975595"><ele>502.0</ele><time>2026-04-11T06:55:11.999Z</time></trkpt><trkpt lat="43.47005141253657" lon="11.418727883845806"><ele>502.00000000000006</ele><time>2026-04-11T06:55:12.999Z</time></trkpt><trkpt lat="43.470011425848504" lon="11.418796915092852"><ele>502.0</ele><time>2026-04-11T06:55:13.999Z</time></trkpt><trkpt lat="43.4699368388366" lon="11.418913812639687"><ele>502.0</ele><time>2026-04-11T06:55:15.999Z</time></trkpt><trkpt lat="43.46989340859712" lon="11.418981051370013"><ele>502.0</ele><time>2026-04-11T06:55:16.999Z</time></trkpt><trkpt lat="43.46985136920466" lon="11.419046692699396"><ele>502.00000000000006</ele><time>2026-04-11T06:55:17.999Z</time></trkpt><trkpt lat="43.469774740705454" lon="11.419169509925943"><ele>502.0</ele><time>2026-04-11T06:55:19.999Z</time></trkpt><trkpt lat="43.46973868927271" lon="11.419241239462869"><ele>501.83333333333337</ele><time>2026-04-11T06:55:20.999Z</time></trkpt><trkpt lat="43.46967928647488" lon="11.419383213629132"><ele>501.6666666666667</ele><time>2026-04-11T06:55:22.999Z</time></trkpt><trkpt lat="43.46966538173452" lon="11.419471365485643"><ele>501.5</ele><time>2026-04-11T06:55:23.999Z</time></trkpt><trkpt lat="43.46968837045023" lon="11.419580724787044"><ele>501.33333333333337</ele><time>2026-04-11T06:55:24.999Z</time></trkpt><trkpt lat="43.46972020514241" lon="11.419675292320843"><ele>501.1666666666667</ele><time>2026-04-11T06:55:25.999Z</time></trkpt><trkpt lat="43.46974623474497" lon="11.419763076905424"><ele>501.0</ele><time>2026-04-11T06:55:26.999Z</time></trkpt><trkpt lat="43.4697776711923" lon="11.419857008124072"><ele>501.0</ele><time>2026-04-11T06:55:27.999Z</time></trkpt><trkpt lat="43.46982055987565" lon="11.41995335712379"><ele>501.0</ele><time>2026-04-11T06:55:28.999Z</time></trkpt><trkpt lat="43.46986671541546" lon="11.420046901637528"><ele>501.0</ele><time>2026-04-11T06:55:29.999Z</time></trkpt><trkpt lat="43.469915983425174" lon="11.420140275645771"><ele>501.0</ele><time>2026-04-11T06:55:30.999Z</time></trkpt><trkpt lat="43.46996745963245" lon="11.420236210663397"><ele>501.0</ele><time>2026-04-11T06:55:31.999Z</time></trkpt><trkpt lat="43.470019258728996" lon="11.420334571286176"><ele>501.0</ele><time>2026-04-11T06:55:32.999Z</time></trkpt><trkpt lat="43.47007150152282" lon="11.420441504898923"><ele>498.8</ele><time>2026-04-11T06:55:33.999Z</time></trkpt><trkpt lat="43.47012381777179" lon="11.42055421723222"><ele>496.6</ele><time>2026-04-11T06:55:34.999Z</time></trkpt><trkpt lat="43.47017771127352" lon="11.420670327471385"><ele>494.4</ele><time>2026-04-11T06:55:35.999Z</time></trkpt><trkpt lat="43.47023100402225" lon="11.420784192822152"><ele>492.2</ele><time>2026-04-11T06:55:36.999Z</time></trkpt><trkpt lat="43.47028339291693" lon="11.420895678486236"><ele>490.0</ele><time>2026-04-11T06:55:37.999Z</time></trkpt><trkpt lat="43.470332680264114" lon="11.421010008305528"><ele>490.00000000000006</ele><time>2026-04-11T06:55:38.999Z</time></trkpt><trkpt lat="43.47035702387066" lon="11.42112165289826"><ele>490.0</ele><time>2026-04-11T06:55:39.999Z</time></trkpt><trkpt lat="43.470359749914316" lon="11.421245710550634"><ele>490.0</ele><time>2026-04-11T06:55:40.999Z</time></trkpt><trkpt lat="43.47032296629327" lon="11.421360459376462"><ele>490.0</ele><time>2026-04-11T06:55:41.999Z</time></trkpt><trkpt lat="43.47024875581309" lon="11.421423726639796"><ele>490.00000000000006</ele><time>2026-04-11T06:55:42.999Z</time></trkpt><trkpt lat="43.47017627595332" lon="11.421503466455587"><ele>490.0</ele><time>2026-04-11T06:55:43.999Z</time></trkpt><trkpt lat="43.470102024304175" lon="11.421571301367747"><ele>490.50000000000006</ele><time>2026-04-11T06:55:44.999Z</time></trkpt><trkpt lat="43.470026997135754" lon="11.421632334161512"><ele>491.0</ele><time>2026-04-11T06:55:45.999Z</time></trkpt><trkpt lat="43.469950343443614" lon="11.421685495885313"><ele>491.5</ele><time>2026-04-11T06:55:46.999Z</time></trkpt><trkpt lat="43.469871408043886" lon="11.421736454674688"><ele>492.0</ele><time>2026-04-11T06:55:47.999Z</time></trkpt><trkpt lat="43.46979224428346" lon="11.421787560859675"><ele>492.50000000000006</ele><time>2026-04-11T06:55:48.999Z</time></trkpt><trkpt lat="43.46971362899511" lon="11.421839082150504"><ele>493.0</ele><time>2026-04-11T06:55:49.999Z</time></trkpt><trkpt lat="43.46963706806916" lon="11.421892777541379"><ele>492.50000000000006</ele><time>2026-04-11T06:55:50.999Z</time></trkpt><trkpt lat="43.46956558646435" lon="11.421944744145716"><ele>492.0</ele><time>2026-04-11T06:55:51.999Z</time></trkpt><trkpt lat="43.46949473370219" lon="11.421996253672367"><ele>491.5</ele><time>2026-04-11T06:55:52.999Z</time></trkpt><trkpt lat="43.46942496046558" lon="11.422047827700645"><ele>491.0</ele><time>2026-04-11T06:55:53.999Z</time></trkpt><trkpt lat="43.469355674226016" lon="11.42209919929641"><ele>490.50000000000006</ele><time>2026-04-11T06:55:54.999Z</time></trkpt><trkpt lat="43.46928645194152" lon="11.422150523568837"><ele>490.0</ele><time>2026-04-11T06:55:55.999Z</time></trkpt><trkpt lat="43.46921588636385" lon="11.422202843702442"><ele>490.00000000000006</ele><time>2026-04-11T06:55:56.999Z</time></trkpt><trkpt lat="43.46914287451525" lon="11.422254622522049"><ele>490.0</ele><time>2026-04-11T06:55:57.999Z</time></trkpt><trkpt lat="43.46906711989984" lon="11.422307844741079"><ele>490.0</ele><time>2026-04-11T06:55:58.999Z</time></trkpt><trkpt lat="43.46899043164931" lon="11.422361722965558"><ele>490.0</ele><time>2026-04-11T06:55:59.999Z</time></trkpt><trkpt lat="43.46891255200379" lon="11.422416438141944"><ele>490.00000000000006</ele><time>2026-04-11T06:56:00.999Z</time></trkpt><trkpt lat="43.468832378823826" lon="11.422473433790703"><ele>490.0</ele><time>2026-04-11T06:56:01.999Z</time></trkpt><trkpt lat="43.46875168119773" lon="11.42253262469237"><ele>487.2</ele><time>2026-04-11T06:56:02.999Z</time></trkpt><trkpt lat="43.46867101235516" lon="11.422593481697279"><ele>484.4</ele><time>2026-04-11T06:56:03.999Z</time></trkpt><trkpt lat="43.4685911580855" lon="11.422653724180442"><ele>481.6</ele><time>2026-04-11T06:56:04.999Z</time></trkpt><trkpt lat="43.46851058714711" lon="11.422714507342802"><ele>478.8</ele><time>2026-04-11T06:56:05.999Z</time></trkpt><trkpt lat="43.46842758923721" lon="11.4227763723588"><ele>476.0</ele><time>2026-04-11T06:56:06.999Z</time></trkpt><trkpt lat="43.468344111906944" lon="11.422838533314225"><ele>475.99999999999994</ele><time>2026-04-11T06:56:07.999Z</time></trkpt><trkpt lat="43.46826303274394" lon="11.422898466448526"><ele>476.0</ele><time>2026-04-11T06:56:08.999Z</time></trkpt><trkpt lat="43.46818332515241" lon="11.422955189515411"><ele>476.0</ele><time>2026-04-11T06:56:09.999Z</time></trkpt><trkpt lat="43.4681083491774" lon="11.423022969933792"><ele>476.0</ele><time>2026-04-11T06:56:10.999Z</time></trkpt><trkpt lat="43.468029853658926" lon="11.423053743443974"><ele>475.99999999999994</ele><time>2026-04-11T06:56:11.999Z</time></trkpt><trkpt lat="43.467952117777514" lon="11.423048878345178"><ele>476.0</ele><time>2026-04-11T06:56:12.999Z</time></trkpt><trkpt lat="43.46787699973204" lon="11.423057196032094"><ele>476.6</ele><time>2026-04-11T06:56:13.998Z</time></trkpt><trkpt lat="43.467794715150006" lon="11.423070314527134"><ele>477.20000000000005</ele><time>2026-04-11T06:56:14.998Z</time></trkpt><trkpt lat="43.46771552417543" lon="11.423109363379648"><ele>477.79999999999995</ele><time>2026-04-11T06:56:15.998Z</time></trkpt><trkpt lat="43.46764979499648" lon="11.423186194759564"><ele>478.4</ele><time>2026-04-11T06:56:17Z</time></trkpt><trkpt lat="43.46764425565105" lon="11.42336045532457"><ele>479.0</ele><time>2026-04-11T06:56:18Z</time></trkpt><trkpt lat="43.46766819255698" lon="11.423497350111209"><ele>479.0</ele><time>2026-04-11T06:56:19Z</time></trkpt><trkpt lat="43.46774970448917" lon="11.423611709611391"><ele>479.0</ele><time>2026-04-11T06:56:20Z</time></trkpt><trkpt lat="43.467846024704485" lon="11.42369133625888"><ele>479.0</ele><time>2026-04-11T06:56:21Z</time></trkpt><trkpt lat="43.467937968002495" lon="11.42377347122321"><ele>479.0</ele><time>2026-04-11T06:56:22Z</time></trkpt><trkpt lat="43.46802901750803" lon="11.42385430873326"><ele>479.0</ele><time>2026-04-11T06:56:23Z</time></trkpt><trkpt lat="43.46812318703015" lon="11.423937916420893"><ele>476.5</ele><time>2026-04-11T06:56:24Z</time></trkpt><trkpt lat="43.46821636002888" lon="11.424020639297327"><ele>474.0</ele><time>2026-04-11T06:56:25Z</time></trkpt><trkpt lat="43.468311118878205" lon="11.424105806630331"><ele>471.5</ele><time>2026-04-11T06:56:26Z</time></trkpt><trkpt lat="43.4684035864718" lon="11.424194987501265"><ele>469.0</ele><time>2026-04-11T06:56:27Z</time></trkpt><trkpt lat="43.46850338123892" lon="11.424279876244613"><ele>469.0</ele><time>2026-04-11T06:56:28Z</time></trkpt><trkpt lat="43.468634346089544" lon="11.424306864738524"><ele>469.0</ele><time>2026-04-11T06:56:29Z</time></trkpt><trkpt lat="43.4687650467999" lon="11.424330657440162"><ele>469.0</ele><time>2026-04-11T06:56:30Z</time></trkpt><trkpt lat="43.468898017098006" lon="11.424365712632767"><ele>469.0</ele><time>2026-04-11T06:56:31Z</time></trkpt><trkpt lat="43.46903406927029" lon="11.42438676419096"><ele>468.5</ele><time>2026-04-11T06:56:32Z</time></trkpt><trkpt lat="43.469165969383596" lon="11.424409130125442"><ele>468.0</ele><time>2026-04-11T06:56:32.999Z</time></trkpt><trkpt lat="43.46929500984361" lon="11.42443652500535"><ele>467.5</ele><time>2026-04-11T06:56:33.999Z</time></trkpt><trkpt lat="43.46942494878197" lon="11.42447747861205"><ele>467.0</ele><time>2026-04-11T06:56:34.999Z</time></trkpt><trkpt lat="43.469546809634174" lon="11.424526453811064"><ele>465.6</ele><time>2026-04-11T06:56:35.999Z</time></trkpt><trkpt lat="43.46966222976692" lon="11.4245873511804"><ele>464.20000000000005</ele><time>2026-04-11T06:56:36.999Z</time></trkpt><trkpt lat="43.46975328547383" lon="11.424676849747316"><ele>462.8</ele><time>2026-04-11T06:56:37.999Z</time></trkpt><trkpt lat="43.46981315153803" lon="11.424794503927155"><ele>461.4</ele><time>2026-04-11T06:56:38.999Z</time></trkpt><trkpt lat="43.469856661391766" lon="11.424929167019343"><ele>460.0</ele><time>2026-04-11T06:56:39.999Z</time></trkpt><trkpt lat="43.46985447485933" lon="11.425069342237293"><ele>460.0</ele><time>2026-04-11T06:56:40.999Z</time></trkpt><trkpt lat="43.46986809577818" lon="11.425216010089336"><ele>460.0</ele><time>2026-04-11T06:56:41.999Z</time></trkpt><trkpt lat="43.46988106660168" lon="11.425385537464477"><ele>460.0</ele><time>2026-04-11T06:56:42.999Z</time></trkpt><trkpt lat="43.469891062992744" lon="11.425553003278798"><ele>460.0</ele><time>2026-04-11T06:56:43.999Z</time></trkpt><trkpt lat="43.469900465120915" lon="11.425723628309774"><ele>457.0</ele><time>2026-04-11T06:56:44.999Z</time></trkpt><trkpt lat="43.469902319797285" lon="11.425892783621988"><ele>454.0</ele><time>2026-04-11T06:56:45.999Z</time></trkpt><trkpt lat="43.46990529051047" lon="11.426066537746832"><ele>451.0</ele><time>2026-04-11T06:56:46.999Z</time></trkpt><trkpt lat="43.469900069183616" lon="11.426237180354878"><ele>448.0</ele><time>2026-04-11T06:56:47.999Z</time></trkpt><trkpt lat="43.469891166578684" lon="11.426412484898146"><ele>446.0</ele><time>2026-04-11T06:56:48.999Z</time></trkpt><trkpt lat="43.46987858559804" lon="11.426591402917035"><ele>444.0</ele><time>2026-04-11T06:56:49.999Z</time></trkpt><trkpt lat="43.4698584635241" lon="11.42676995612219"><ele>442.0</ele><time>2026-04-11T06:56:50.999Z</time></trkpt><trkpt lat="43.469826916577645" lon="11.426955665102485"><ele>440.0</ele><time>2026-04-11T06:56:51.999Z</time></trkpt><trkpt lat="43.46977984155192" lon="11.427137234474921"><ele>438.0</ele><time>2026-04-11T06:56:52.999Z</time></trkpt><trkpt lat="43.46971579612482" lon="11.427314905960117"><ele>436.0</ele><time>2026-04-11T06:56:53.999Z</time></trkpt><trkpt lat="43.46963625147372" lon="11.42748141501977"><ele>434.0</ele><time>2026-04-11T06:56:54.999Z</time></trkpt><trkpt lat="43.469543736951714" lon="11.427647410889339"><ele>432.0</ele><time>2026-04-11T06:56:55.999Z</time></trkpt><trkpt lat="43.469442855691995" lon="11.427815134273844"><ele>428.33333333333337</ele><time>2026-04-11T06:56:56.999Z</time></trkpt><trkpt lat="43.469337313493256" lon="11.427984516566521"><ele>424.6666666666667</ele><time>2026-04-11T06:56:57.999Z</time></trkpt><trkpt lat="43.46923095805858" lon="11.428156605981536"><ele>421.0</ele><time>2026-04-11T06:56:58.999Z</time></trkpt><trkpt lat="43.46912605301519" lon="11.428330846195266"><ele>421.0</ele><time>2026-04-11T06:56:59.999Z</time></trkpt><trkpt lat="43.46902000300472" lon="11.428505954598686"><ele>421.0</ele><time>2026-04-11T06:57:00.999Z</time></trkpt><trkpt lat="43.46891226535684" lon="11.428681464215943"><ele>421.0</ele><time>2026-04-11T06:57:01.999Z</time></trkpt><trkpt lat="43.46880373085435" lon="11.42885590943696"><ele>417.75</ele><time>2026-04-11T06:57:02.999Z</time></trkpt><trkpt lat="43.46869806353866" lon="11.429023171211716"><ele>414.5</ele><time>2026-04-11T06:57:03.999Z</time></trkpt><trkpt lat="43.46860243774758" lon="11.429172480163832"><ele>411.25</ele><time>2026-04-11T06:57:04.999Z</time></trkpt><trkpt lat="43.468515095168414" lon="11.429307338543335"><ele>408.0</ele><time>2026-04-11T06:57:05.999Z</time></trkpt><trkpt lat="43.468427770862604" lon="11.429437887515459"><ele>408.0</ele><time>2026-04-11T06:57:06.999Z</time></trkpt><trkpt lat="43.46833985313468" lon="11.429547769693553"><ele>408.0</ele><time>2026-04-11T06:57:07.999Z</time></trkpt><trkpt lat="43.46823595178568" lon="11.429648734895803"><ele>408.0</ele><time>2026-04-11T06:57:08.999Z</time></trkpt><trkpt lat="43.46811827474446" lon="11.429719523752183"><ele>408.0</ele><time>2026-04-11T06:57:09.999Z</time></trkpt><trkpt lat="43.46799876510938" lon="11.42979917008606"><ele>405.5</ele><time>2026-04-11T06:57:10.999Z</time></trkpt><trkpt lat="43.46789299456601" lon="11.429873224854497"><ele>403.0</ele><time>2026-04-11T06:57:11.999Z</time></trkpt><trkpt lat="43.46778749695656" lon="11.429947088597473"><ele>400.5</ele><time>2026-04-11T06:57:12.999Z</time></trkpt><trkpt lat="43.467679151157554" lon="11.430022946630224"><ele>398.0</ele><time>2026-04-11T06:57:13.999Z</time></trkpt><trkpt lat="43.467573952104196" lon="11.43009660131245"><ele>398.0</ele><time>2026-04-11T06:57:14.999Z</time></trkpt><trkpt lat="43.46747295546053" lon="11.43016589156555"><ele>398.0</ele><time>2026-04-11T06:57:15.999Z</time></trkpt><trkpt lat="43.467368795705816" lon="11.430236991801387"><ele>398.0</ele><time>2026-04-11T06:57:16.999Z</time></trkpt><trkpt lat="43.467266177862584" lon="11.430303522864703"><ele>398.0</ele><time>2026-04-11T06:57:17.999Z</time></trkpt><trkpt lat="43.46716489785465" lon="11.430372086128658"><ele>397.2</ele><time>2026-04-11T06:57:18.999Z</time></trkpt><trkpt lat="43.46706109189509" lon="11.430442759312879"><ele>396.4</ele><time>2026-04-11T06:57:19.999Z</time></trkpt><trkpt lat="43.466956720237974" lon="11.430509093258568"><ele>395.59999999999997</ele><time>2026-04-11T06:57:20.999Z</time></trkpt><trkpt lat="43.466869421682055" lon="11.430590616947814"><ele>394.79999999999995</ele><time>2026-04-11T06:57:21.999Z</time></trkpt><trkpt lat="43.46678585144337" lon="11.430644300618917"><ele>394.0</ele><time>2026-04-11T06:57:22.999Z</time></trkpt><trkpt lat="43.46670812106933" lon="11.430673068927584"><ele>393.00000000000006</ele><time>2026-04-11T06:57:23.999Z</time></trkpt><trkpt lat="43.46664848992749" lon="11.430723732048264"><ele>392.0</ele><time>2026-04-11T06:57:24.999Z</time></trkpt><trkpt lat="43.466599615512294" lon="11.430787347211586"><ele>391.0</ele><time>2026-04-11T06:57:25.999Z</time></trkpt><trkpt lat="43.46658570975729" lon="11.430912046812157"><ele>390.0</ele><time>2026-04-11T06:57:26.999Z</time></trkpt><trkpt lat="43.46667837948889" lon="11.431021526826942"><ele>389.00000000000006</ele><time>2026-04-11T06:57:27.999Z</time></trkpt><trkpt lat="43.46672447237541" lon="11.431117465466436"><ele>388.0</ele><time>2026-04-11T06:57:28.999Z</time></trkpt><trkpt lat="43.46680362282141" lon="11.431181366886202"><ele>388.0</ele><time>2026-04-11T06:57:29.998Z</time></trkpt><trkpt lat="43.466878235489546" lon="11.431251066856973"><ele>388.0</ele><time>2026-04-11T06:57:30.998Z</time></trkpt><trkpt lat="43.46696683225362" lon="11.431314193398315"><ele>388.0</ele><time>2026-04-11T06:57:31.998Z</time></trkpt><trkpt lat="43.46707229303301" lon="11.431357625875993"><ele>388.0</ele><time>2026-04-11T06:57:32.998Z</time></trkpt><trkpt lat="43.46718888622306" lon="11.431383330757622"><ele>388.0</ele><time>2026-04-11T06:57:33.998Z</time></trkpt><trkpt lat="43.46730330662546" lon="11.43141375210698"><ele>385.0</ele><time>2026-04-11T06:57:34.998Z</time></trkpt><trkpt lat="43.467415899301216" lon="11.431495583053863"><ele>382.0</ele><time>2026-04-11T06:57:35.998Z</time></trkpt><trkpt lat="43.467525849747744" lon="11.4315692906249"><ele>379.0</ele><time>2026-04-11T06:57:36.998Z</time></trkpt><trkpt lat="43.46763492240958" lon="11.431652884382993"><ele>376.0</ele><time>2026-04-11T06:57:37.998Z</time></trkpt><trkpt lat="43.46774170663948" lon="11.431749936911839"><ele>376.0</ele><time>2026-04-11T06:57:38.998Z</time></trkpt><trkpt lat="43.46783919282845" lon="11.43185224391562"><ele>376.0</ele><time>2026-04-11T06:57:39.998Z</time></trkpt><trkpt lat="43.467923158572965" lon="11.43194642429307"><ele>376.0</ele><time>2026-04-11T06:57:40.998Z</time></trkpt><trkpt lat="43.468000593341394" lon="11.43203675155374"><ele>376.0</ele><time>2026-04-11T06:57:41.998Z</time></trkpt><trkpt lat="43.46807209805974" lon="11.43212231563021"><ele>376.0</ele><time>2026-04-11T06:57:42.998Z</time></trkpt><trkpt lat="43.46812870241612" lon="11.432192451995606"><ele>374.0</ele><time>2026-04-11T06:57:43.998Z</time></trkpt><trkpt lat="43.46819851323062" lon="11.432281863700144"><ele>372.0</ele><time>2026-04-11T06:57:45.998Z</time></trkpt><trkpt lat="43.468250910060156" lon="11.432348873967685"><ele>370.0</ele><time>2026-04-11T06:57:46.998Z</time></trkpt><trkpt lat="43.46830377234939" lon="11.432413085631735"><ele>368.0</ele><time>2026-04-11T06:57:47.998Z</time></trkpt><trkpt lat="43.46837115912641" lon="11.432466730904494"><ele>366.0</ele><time>2026-04-11T06:57:48.998Z</time></trkpt><trkpt lat="43.46840396796854" lon="11.432548152801479"><ele>364.0</ele><time>2026-04-11T06:57:49.998Z</time></trkpt><trkpt lat="43.46843818024495" lon="11.432708115717597"><ele>364.0</ele><time>2026-04-11T06:57:51.998Z</time></trkpt><trkpt lat="43.46845794878864" lon="11.432794948121845"><ele>364.0</ele><time>2026-04-11T06:57:52.998Z</time></trkpt><trkpt lat="43.46848282264033" lon="11.432897755011224"><ele>364.0</ele><time>2026-04-11T06:57:53.998Z</time></trkpt><trkpt lat="43.468504074149685" lon="11.432979429671462"><ele>364.0</ele><time>2026-04-11T06:57:54.998Z</time></trkpt><trkpt lat="43.46853961818592" lon="11.43310192276341"><ele>364.0</ele><time>2026-04-11T06:57:56.998Z</time></trkpt><trkpt lat="43.468548968270866" lon="11.433207811042687"><ele>364.0</ele><time>2026-04-11T06:57:58.998Z</time></trkpt><trkpt lat="43.46846933108322" lon="11.43322806831524"><ele>362.79999999999995</ele><time>2026-04-11T06:57:59.998Z</time></trkpt><trkpt lat="43.46835872053879" lon="11.433292351779155"><ele>361.59999999999997</ele><time>2026-04-11T06:58:01.998Z</time></trkpt><trkpt lat="43.46825220056623" lon="11.433357628697749"><ele>360.4</ele><time>2026-04-11T06:58:03.998Z</time></trkpt><trkpt lat="43.46820026685304" lon="11.433415332350922"><ele>359.2</ele><time>2026-04-11T06:58:04.998Z</time></trkpt><trkpt lat="43.468095283135156" lon="11.43350872360174"><ele>358.0</ele><time>2026-04-11T06:58:06.998Z</time></trkpt><trkpt lat="43.46803221412246" lon="11.43354423064476"><ele>358.00000000000006</ele><time>2026-04-11T06:58:07.998Z</time></trkpt><trkpt lat="43.46797911843208" lon="11.433599430619596"><ele>358.0</ele><time>2026-04-11T06:58:08.998Z</time></trkpt><trkpt lat="43.46792563404889" lon="11.433655955459772"><ele>358.0</ele><time>2026-04-11T06:58:09.998Z</time></trkpt><trkpt lat="43.46787328331703" lon="11.433711282316104"><ele>358.0</ele><time>2026-04-11T06:58:10.998Z</time></trkpt><trkpt lat="43.46782274187552" lon="11.433764696938951"><ele>358.0</ele><time>2026-04-11T06:58:11.998Z</time></trkpt><trkpt lat="43.46777043927453" lon="11.43381997285832"><ele>358.00000000000006</ele><time>2026-04-11T06:58:12.998Z</time></trkpt><trkpt lat="43.46771831508792" lon="11.433875060340382"><ele>358.0</ele><time>2026-04-11T06:58:13.998Z</time></trkpt><trkpt lat="43.467619996321574" lon="11.433974074415298"><ele>357.3333333333333</ele><time>2026-04-11T06:58:15.998Z</time></trkpt><trkpt lat="43.467538474607046" lon="11.434055366471341"><ele>356.66666666666663</ele><time>2026-04-11T06:58:17.998Z</time></trkpt><trkpt lat="43.4674660519895" lon="11.43411750191483"><ele>356.0</ele><time>2026-04-11T06:58:19.998Z</time></trkpt><trkpt lat="43.4674726121387" lon="11.43420778828881"><ele>355.3333333333333</ele><time>2026-04-11T06:58:20.998Z</time></trkpt><trkpt lat="43.467508333847185" lon="11.434289823159597"><ele>354.6666666666667</ele><time>2026-04-11T06:58:53.999Z</time></trkpt><trkpt lat="43.467475518379175" lon="11.434378266893193"><ele>354.0</ele><time>2026-04-11T06:59:31Z</time></trkpt><trkpt lat="43.46740422141642" lon="11.434401678051758"><ele>354.0</ele><time>2026-04-11T06:59:34Z</time></trkpt><trkpt lat="43.46732288729143" lon="11.43443799058193"><ele>354.0</ele><time>2026-04-11T06:59:37Z</time></trkpt><trkpt lat="43.467262615406845" lon="11.434471365666282"><ele>354.0</ele><time>2026-04-11T06:59:39Z</time></trkpt><trkpt lat="43.467183959407386" lon="11.434538944402608"><ele>354.0</ele><time>2026-04-11T06:59:42Z</time></trkpt><trkpt lat="43.46718974225746" lon="11.434642544147652"><ele>354.0</ele><time>2026-04-11T07:03:00Z</time></trkpt><trkpt lat="43.46716990844397" lon="11.434724956816707"><ele>354.0</ele><time>2026-04-11T07:08:28Z</time></trkpt><trkpt lat="43.46723362835649" lon="11.434733669379941"><ele>354.0</ele><time>2026-04-11T07:08:39.999Z</time></trkpt><trkpt lat="43.46729927150275" lon="11.4347265930973"><ele>354.0</ele><time>2026-04-11T07:08:42.999Z</time></trkpt><trkpt lat="43.46748862248433" lon="11.434734064004799"><ele>354.0</ele><time>2026-04-11T07:08:59Z</time></trkpt><trkpt lat="43.46736030091598" lon="11.434614467566787"><ele>354.0</ele><time>2026-04-11T07:09:20.581Z</time></trkpt><trkpt lat="43.46729019112973" lon="11.434544025834068"><ele>354.0</ele><time>2026-04-11T07:09:32.595Z</time></trkpt><trkpt lat="43.46722412928605" lon="11.434450667392419"><ele>354.0</ele><time>2026-04-11T07:10:15.769Z</time></trkpt><trkpt lat="43.46742445657242" lon="11.434193754863276"><ele>354.0</ele><time>2026-04-11T07:10:18.344Z</time></trkpt><trkpt lat="43.46722372657643" lon="11.434444319007394"><ele>354.0</ele><time>2026-04-11T07:10:36.559Z</time></trkpt><trkpt lat="43.4673118732844" lon="11.434448582884876"><ele>354.0</ele><time>2026-04-11T07:11:07.017Z</time></trkpt><trkpt lat="43.467271884329826" lon="11.434604743521614"><ele>354.0</ele><time>2026-04-11T07:11:09.014Z</time></trkpt><trkpt lat="43.46725925006615" lon="11.434705734954706"><ele>354.0</ele><time>2026-04-11T07:11:25.017Z</time></trkpt><trkpt lat="43.46719675938864" lon="11.434775615714424"><ele>354.0</ele><time>2026-04-11T07:12:10Z</time></trkpt><trkpt lat="43.46725905160311" lon="11.434740305667262"><ele>354.0</ele><time>2026-04-11T07:12:25Z</time></trkpt><trkpt lat="43.46726592070813" lon="11.434621563349438"><ele>354.0</ele><time>2026-04-11T07:13:26.585Z</time></trkpt><trkpt lat="43.46725539306231" lon="11.43448199695132"><ele>354.0</ele><time>2026-04-11T07:13:32.601Z</time></trkpt><trkpt lat="43.46720822598603" lon="11.434579721531145"><ele>354.0</ele><time>2026-04-11T07:15:54.998Z</time></trkpt><trkpt lat="43.467175906749574" lon="11.434662301391734"><ele>354.0</ele><time>2026-04-11T07:15:57.998Z</time></trkpt><trkpt lat="43.467144405994105" lon="11.434776253517477"><ele>354.0</ele><time>2026-04-11T07:15:58.998Z</time></trkpt><trkpt lat="43.467128079129836" lon="11.434681774035118"><ele>354.0</ele><time>2026-04-11T07:16:06Z</time></trkpt><trkpt lat="43.46715987196937" lon="11.434558408504751"><ele>354.0</ele><time>2026-04-11T07:19:31Z</time></trkpt><trkpt lat="43.46715466358504" lon="11.43465110637316"><ele>354.0</ele><time>2026-04-11T07:20:16Z</time></trkpt><trkpt lat="43.46717747481991" lon="11.434745163037189"><ele>354.0</ele><time>2026-04-11T07:20:25Z</time></trkpt><trkpt lat="43.46723044042337" lon="11.4348183295309"><ele>354.0</ele><time>2026-04-11T07:20:48Z</time></trkpt><trkpt lat="43.467244324412256" lon="11.434434202058634"><ele>354.0</ele><time>2026-04-11T07:21:14.592Z</time></trkpt><trkpt lat="43.46716284271007" lon="11.434480765492365"><ele>354.0</ele><time>2026-04-11T07:22:33.018Z</time></trkpt><trkpt lat="43.46715482555654" lon="11.434636131993454"><ele>354.0</ele><time>2026-04-11T07:22:34.02Z</time></trkpt><trkpt lat="43.46711973951132" lon="11.434558968345609"><ele>354.0</ele><time>2026-04-11T07:23:15Z</time></trkpt><trkpt lat="43.46719578686558" lon="11.434508071507878"><ele>354.0</ele><time>2026-04-11T07:24:07.999Z</time></trkpt><trkpt lat="43.46727310681162" lon="11.434468128159766"><ele>354.0</ele><time>2026-04-11T07:24:10.999Z</time></trkpt><trkpt lat="43.46734811401201" lon="11.434441625478923"><ele>354.0</ele><time>2026-04-11T07:24:13.999Z</time></trkpt><trkpt lat="43.467436726353576" lon="11.434393123021232"><ele>354.0</ele><time>2026-04-11T07:24:16.999Z</time></trkpt><trkpt lat="43.4675012807087" lon="11.43436364463405"><ele>354.0</ele><time>2026-04-11T07:24:19.999Z</time></trkpt><trkpt lat="43.46750625685365" lon="11.434273363556324"><ele>354.0</ele><time>2026-04-11T07:24:22.999Z</time></trkpt><trkpt lat="43.46748628790635" lon="11.434167271509134"><ele>354.0</ele><time>2026-04-11T07:24:26.999Z</time></trkpt><trkpt lat="43.467418975045774" lon="11.434134096405224"><ele>354.0</ele><time>2026-04-11T07:24:29.999Z</time></trkpt><trkpt lat="43.46733891846698" lon="11.434180010299613"><ele>354.0</ele><time>2026-04-11T07:24:31.999Z</time></trkpt><trkpt lat="43.46724596495693" lon="11.434224854278064"><ele>354.0</ele><time>2026-04-11T07:24:33.999Z</time></trkpt><trkpt lat="43.46714864852917" lon="11.434254785079517"><ele>354.0</ele><time>2026-04-11T07:24:35.999Z</time></trkpt><trkpt lat="43.46704239520008" lon="11.43428508300622"><ele>354.0</ele><time>2026-04-11T07:24:37.999Z</time></trkpt><trkpt lat="43.46692632603985" lon="11.43431936754334"><ele>354.0</ele><time>2026-04-11T07:24:39.999Z</time></trkpt><trkpt lat="43.46680867495724" lon="11.434339468043687"><ele>353.4</ele><time>2026-04-11T07:24:41.999Z</time></trkpt><trkpt lat="43.46669133723688" lon="11.434354689455343"><ele>352.79999999999995</ele><time>2026-04-11T07:24:43.999Z</time></trkpt><trkpt lat="43.466566503850025" lon="11.434349629655237"><ele>352.20000000000005</ele><time>2026-04-11T07:24:45.999Z</time></trkpt><trkpt lat="43.46644684751795" lon="11.434343540818363"><ele>351.6</ele><time>2026-04-11T07:24:47.999Z</time></trkpt><trkpt lat="43.46638331543323" lon="11.434342462108388"><ele>351.0</ele><time>2026-04-11T07:24:48.999Z</time></trkpt><trkpt lat="43.46626685388014" lon="11.43432527430687"><ele>350.5</ele><time>2026-04-11T07:24:51Z</time></trkpt><trkpt lat="43.466144836496476" lon="11.434298969564722"><ele>350.0</ele><time>2026-04-11T07:24:53Z</time></trkpt><trkpt lat="43.46608115691231" lon="11.434276950045978"><ele>349.5</ele><time>2026-04-11T07:24:54Z</time></trkpt><trkpt lat="43.466012593710595" lon="11.434250385496847"><ele>349.0</ele><time>2026-04-11T07:24:55Z</time></trkpt><trkpt lat="43.46594515812493" lon="11.434223471243225"><ele>348.5</ele><time>2026-04-11T07:24:56Z</time></trkpt><trkpt lat="43.46588077540145" lon="11.434195314202256"><ele>348.0</ele><time>2026-04-11T07:24:57Z</time></trkpt><trkpt lat="43.46581782670531" lon="11.434176655144878"><ele>348.0</ele><time>2026-04-11T07:24:58Z</time></trkpt><trkpt lat="43.46575274579425" lon="11.434153491831328"><ele>348.0</ele><time>2026-04-11T07:24:59Z</time></trkpt><trkpt lat="43.46568633470753" lon="11.434126737240112"><ele>348.0</ele><time>2026-04-11T07:25:00Z</time></trkpt><trkpt lat="43.46562563034255" lon="11.434077727542117"><ele>348.0</ele><time>2026-04-11T07:25:01Z</time></trkpt><trkpt lat="43.46556857327512" lon="11.434028084348062"><ele>348.0</ele><time>2026-04-11T07:25:02Z</time></trkpt><trkpt lat="43.46550775857947" lon="11.433973065251132"><ele>348.0</ele><time>2026-04-11T07:25:03Z</time></trkpt><trkpt lat="43.4654517018164" lon="11.433912990223835"><ele>348.0</ele><time>2026-04-11T07:25:04Z</time></trkpt><trkpt lat="43.46539886593437" lon="11.433848597915853"><ele>348.0</ele><time>2026-04-11T07:25:05Z</time></trkpt><trkpt lat="43.46531391287932" lon="11.433713326003316"><ele>348.0</ele><time>2026-04-11T07:25:07Z</time></trkpt><trkpt lat="43.46527062411986" lon="11.433646006096666"><ele>348.0</ele><time>2026-04-11T07:25:08Z</time></trkpt><trkpt lat="43.46522741774399" lon="11.433578694526267"><ele>348.0</ele><time>2026-04-11T07:25:09Z</time></trkpt><trkpt lat="43.46517268715296" lon="11.43352745503588"><ele>348.0</ele><time>2026-04-11T07:25:10Z</time></trkpt><trkpt lat="43.46512541048396" lon="11.433454535292135"><ele>348.0</ele><time>2026-04-11T07:25:11Z</time></trkpt><trkpt lat="43.465034748252556" lon="11.433320392754936"><ele>348.0</ele><time>2026-04-11T07:25:13Z</time></trkpt><trkpt lat="43.46498222082728" lon="11.433261604642514"><ele>348.0</ele><time>2026-04-11T07:25:14Z</time></trkpt><trkpt lat="43.464922932600714" lon="11.433210693823462"><ele>348.0</ele><time>2026-04-11T07:25:15Z</time></trkpt><trkpt lat="43.46486411899071" lon="11.43316146276352"><ele>348.0</ele><time>2026-04-11T07:25:16Z</time></trkpt><trkpt lat="43.46479885681949" lon="11.43311875363966"><ele>348.0</ele><time>2026-04-11T07:25:17Z</time></trkpt><trkpt lat="43.46473544332771" lon="11.433073125539806"><ele>348.0</ele><time>2026-04-11T07:25:18Z</time></trkpt><trkpt lat="43.46467678432848" lon="11.433026926410127"><ele>348.0</ele><time>2026-04-11T07:25:19Z</time></trkpt><trkpt lat="43.46461406402566" lon="11.432983318391681"><ele>348.1428571428571</ele><time>2026-04-11T07:25:20Z</time></trkpt><trkpt lat="43.46455113549634" lon="11.432935850258554"><ele>348.2857142857143</ele><time>2026-04-11T07:25:21Z</time></trkpt><trkpt lat="43.46449746532429" lon="11.432881594444954"><ele>348.42857142857144</ele><time>2026-04-11T07:25:22Z</time></trkpt><trkpt lat="43.464440016202545" lon="11.432818022968467"><ele>348.57142857142856</ele><time>2026-04-11T07:25:23Z</time></trkpt><trkpt lat="43.46438112165309" lon="11.432755470447844"><ele>348.7142857142857</ele><time>2026-04-11T07:25:24Z</time></trkpt><trkpt lat="43.464326856866826" lon="11.432693282861706"><ele>348.85714285714283</ele><time>2026-04-11T07:25:25Z</time></trkpt><trkpt lat="43.464276084319735" lon="11.43263027622201"><ele>349.0</ele><time>2026-04-11T07:25:26Z</time></trkpt><trkpt lat="43.46422846628463" lon="11.432551694789026"><ele>349.0</ele><time>2026-04-11T07:25:27Z</time></trkpt><trkpt lat="43.46418304748589" lon="11.432474163196584"><ele>349.0</ele><time>2026-04-11T07:25:28Z</time></trkpt><trkpt lat="43.4641444886434" lon="11.432387963358305"><ele>349.0</ele><time>2026-04-11T07:25:29Z</time></trkpt><trkpt lat="43.464109764675655" lon="11.432296668346307"><ele>349.0</ele><time>2026-04-11T07:25:30Z</time></trkpt><trkpt lat="43.46407609695447" lon="11.432205442995164"><ele>349.0</ele><time>2026-04-11T07:25:30.999Z</time></trkpt><trkpt lat="43.464044936364274" lon="11.432111816642752"><ele>349.0</ele><time>2026-04-11T07:25:31.999Z</time></trkpt><trkpt lat="43.46400916049606" lon="11.432008465033753"><ele>350.0</ele><time>2026-04-11T07:25:32.999Z</time></trkpt><trkpt lat="43.46397513658086" lon="11.431909598363367"><ele>351.0</ele><time>2026-04-11T07:25:33.999Z</time></trkpt><trkpt lat="43.463935595824545" lon="11.43181054292803"><ele>352.0</ele><time>2026-04-11T07:25:34.999Z</time></trkpt><trkpt lat="43.463893741490004" lon="11.431723169780389"><ele>353.0</ele><time>2026-04-11T07:25:35.999Z</time></trkpt><trkpt lat="43.46385783491426" lon="11.431615231292838"><ele>354.0</ele><time>2026-04-11T07:25:36.999Z</time></trkpt><trkpt lat="43.463821838433375" lon="11.43151243304116"><ele>355.0</ele><time>2026-04-11T07:25:37.999Z</time></trkpt><trkpt lat="43.46378453522425" lon="11.431415690095298"><ele>353.66666666666663</ele><time>2026-04-11T07:25:38.999Z</time></trkpt><trkpt lat="43.4637422449753" lon="11.431313585827457"><ele>352.3333333333333</ele><time>2026-04-11T07:25:39.999Z</time></trkpt><trkpt lat="43.46370543313489" lon="11.43121253527854"><ele>351.0</ele><time>2026-04-11T07:25:40.999Z</time></trkpt><trkpt lat="43.46366437275377" lon="11.431112276041889"><ele>349.6666666666667</ele><time>2026-04-11T07:25:41.999Z</time></trkpt><trkpt lat="43.46362042254435" lon="11.43101233589958"><ele>348.33333333333337</ele><time>2026-04-11T07:25:42.999Z</time></trkpt><trkpt lat="43.46357489016985" lon="11.430912666274573"><ele>347.0</ele><time>2026-04-11T07:25:43.999Z</time></trkpt><trkpt lat="43.463532289213205" lon="11.430818995981353"><ele>347.0</ele><time>2026-04-11T07:25:44.999Z</time></trkpt><trkpt lat="43.46348161681496" lon="11.4307364340597"><ele>347.0</ele><time>2026-04-11T07:25:45.999Z</time></trkpt><trkpt lat="43.46343069634264" lon="11.430657925021652"><ele>347.0</ele><time>2026-04-11T07:25:46.999Z</time></trkpt><trkpt lat="43.4633759074991" lon="11.430576489139103"><ele>347.0</ele><time>2026-04-11T07:25:47.999Z</time></trkpt><trkpt lat="43.46331698757614" lon="11.430501839074484"><ele>347.0</ele><time>2026-04-11T07:25:48.999Z</time></trkpt><trkpt lat="43.4632608383155" lon="11.430420079549041"><ele>347.0</ele><time>2026-04-11T07:25:49.999Z</time></trkpt><trkpt lat="43.463204399056" lon="11.430339998079868"><ele>346.83333333333337</ele><time>2026-04-11T07:25:50.999Z</time></trkpt><trkpt lat="43.46315634601955" lon="11.430255176506703"><ele>346.6666666666667</ele><time>2026-04-11T07:25:51.999Z</time></trkpt><trkpt lat="43.463105758086655" lon="11.430166136575755"><ele>346.5</ele><time>2026-04-11T07:25:52.999Z</time></trkpt><trkpt lat="43.46305991145354" lon="11.430072187588978"><ele>346.3333333333333</ele><time>2026-04-11T07:25:53.999Z</time></trkpt><trkpt lat="43.463012992812416" lon="11.429983274191436"><ele>346.16666666666663</ele><time>2026-04-11T07:25:54.999Z</time></trkpt><trkpt lat="43.46296378073108" lon="11.429905401459303"><ele>346.0</ele><time>2026-04-11T07:25:55.999Z</time></trkpt><trkpt lat="43.462913431298574" lon="11.42981735396714"><ele>346.0</ele><time>2026-04-11T07:25:56.999Z</time></trkpt><trkpt lat="43.462860630086894" lon="11.429731802889192"><ele>346.0</ele><time>2026-04-11T07:25:57.999Z</time></trkpt><trkpt lat="43.4628019733187" lon="11.429652794538287"><ele>346.0</ele><time>2026-04-11T07:25:58.999Z</time></trkpt><trkpt lat="43.46274227541684" lon="11.429571216426169"><ele>346.0</ele><time>2026-04-11T07:25:59.999Z</time></trkpt><trkpt lat="43.46268052752452" lon="11.429493812681276"><ele>346.0</ele><time>2026-04-11T07:26:00.999Z</time></trkpt><trkpt lat="43.462617388581144" lon="11.42941651808391"><ele>346.0</ele><time>2026-04-11T07:26:01.999Z</time></trkpt><trkpt lat="43.46255339240659" lon="11.429337024047827"><ele>346.0</ele><time>2026-04-11T07:26:02.999Z</time></trkpt><trkpt lat="43.46249013863818" lon="11.42925692811459"><ele>346.0</ele><time>2026-04-11T07:26:03.999Z</time></trkpt><trkpt lat="43.46242476579912" lon="11.429179398140299"><ele>346.0</ele><time>2026-04-11T07:26:04.999Z</time></trkpt><trkpt lat="43.46236049651334" lon="11.42909900529992"><ele>346.0</ele><time>2026-04-11T07:26:05.999Z</time></trkpt><trkpt lat="43.462294879092745" lon="11.429014576029575"><ele>346.0</ele><time>2026-04-11T07:26:06.999Z</time></trkpt><trkpt lat="43.462235129990276" lon="11.428932061862458"><ele>346.0</ele><time>2026-04-11T07:26:07.999Z</time></trkpt><trkpt lat="43.46216924309491" lon="11.428849870067545"><ele>345.3333333333333</ele><time>2026-04-11T07:26:08.999Z</time></trkpt><trkpt lat="43.462101863467275" lon="11.428770646860723"><ele>344.66666666666663</ele><time>2026-04-11T07:26:09.999Z</time></trkpt><trkpt lat="43.462031774400295" lon="11.428687817667894"><ele>344.0</ele><time>2026-04-11T07:26:10.999Z</time></trkpt><trkpt lat="43.461968544015335" lon="11.428603529644517"><ele>343.3333333333333</ele><time>2026-04-11T07:26:11.999Z</time></trkpt><trkpt lat="43.46191218288096" lon="11.428529619051021"><ele>342.6666666666667</ele><time>2026-04-11T07:26:12.999Z</time></trkpt><trkpt lat="43.46184346924286" lon="11.428447612057367"><ele>342.0</ele><time>2026-04-11T07:26:13.999Z</time></trkpt><trkpt lat="43.46177435023387" lon="11.428378925998969"><ele>342.0</ele><time>2026-04-11T07:26:14.999Z</time></trkpt><trkpt lat="43.46170900763055" lon="11.42830471689463"><ele>342.0</ele><time>2026-04-11T07:26:15.999Z</time></trkpt><trkpt lat="43.46164196126732" lon="11.428234829043173"><ele>342.0</ele><time>2026-04-11T07:26:16.999Z</time></trkpt><trkpt lat="43.461579350909055" lon="11.428170306619318"><ele>342.0</ele><time>2026-04-11T07:26:17.999Z</time></trkpt><trkpt lat="43.461515627442985" lon="11.428103706194335"><ele>342.0</ele><time>2026-04-11T07:26:18.999Z</time></trkpt><trkpt lat="43.46145493237026" lon="11.428034382627871"><ele>342.0</ele><time>2026-04-11T07:26:19.999Z</time></trkpt><trkpt lat="43.461391146586244" lon="11.427972872147647"><ele>341.6666666666667</ele><time>2026-04-11T07:26:20.999Z</time></trkpt><trkpt lat="43.46132870851826" lon="11.427907793459589"><ele>341.3333333333333</ele><time>2026-04-11T07:26:21.999Z</time></trkpt><trkpt lat="43.461264796821546" lon="11.427840431992488"><ele>341.0</ele><time>2026-04-11T07:26:22.999Z</time></trkpt><trkpt lat="43.461202746819154" lon="11.427779219612038"><ele>340.66666666666663</ele><time>2026-04-11T07:26:23.999Z</time></trkpt><trkpt lat="43.46114155339802" lon="11.42770944530555"><ele>340.3333333333333</ele><time>2026-04-11T07:26:24.999Z</time></trkpt><trkpt lat="43.461077999641404" lon="11.427645602282276"><ele>340.0</ele><time>2026-04-11T07:26:25.999Z</time></trkpt><trkpt lat="43.461017491348834" lon="11.42758269658603"><ele>340.0</ele><time>2026-04-11T07:26:26.999Z</time></trkpt><trkpt lat="43.4609570508623" lon="11.427515735715232"><ele>340.0</ele><time>2026-04-11T07:26:27.999Z</time></trkpt><trkpt lat="43.46089502295922" lon="11.427450225749343"><ele>340.0</ele><time>2026-04-11T07:26:28.999Z</time></trkpt><trkpt lat="43.460834134506705" lon="11.427382968756937"><ele>340.0</ele><time>2026-04-11T07:26:29.999Z</time></trkpt><trkpt lat="43.460773723077686" lon="11.427311994807209"><ele>340.0</ele><time>2026-04-11T07:26:30.999Z</time></trkpt><trkpt lat="43.46070900620084" lon="11.427250214483822"><ele>340.0</ele><time>2026-04-11T07:26:31.999Z</time></trkpt><trkpt lat="43.46064231043085" lon="11.427193376671948"><ele>340.5</ele><time>2026-04-11T07:26:32.999Z</time></trkpt><trkpt lat="43.46057505550551" lon="11.427141641076949"><ele>341.0</ele><time>2026-04-11T07:26:33.999Z</time></trkpt><trkpt lat="43.46050353658049" lon="11.427103006480083"><ele>341.5</ele><time>2026-04-11T07:26:34.999Z</time></trkpt><trkpt lat="43.46043112812741" lon="11.427064777218103"><ele>342.0</ele><time>2026-04-11T07:26:35.999Z</time></trkpt><trkpt lat="43.460361424614845" lon="11.427022323791915"><ele>342.5</ele><time>2026-04-11T07:26:36.999Z</time></trkpt><trkpt lat="43.46028686432216" lon="11.42698759912803"><ele>343.0</ele><time>2026-04-11T07:26:37.999Z</time></trkpt><trkpt lat="43.46021031594328" lon="11.426965072996596"><ele>343.0</ele><time>2026-04-11T07:26:38.999Z</time></trkpt><trkpt lat="43.4601322486867" lon="11.426927376854605"><ele>343.0</ele><time>2026-04-11T07:26:39.999Z</time></trkpt><trkpt lat="43.46005598600937" lon="11.426893249594007"><ele>343.0</ele><time>2026-04-11T07:26:40.999Z</time></trkpt><trkpt lat="43.45998049055739" lon="11.426855655646758"><ele>343.0</ele><time>2026-04-11T07:26:41.999Z</time></trkpt><trkpt lat="43.459903978126015" lon="11.426823835227953"><ele>343.0</ele><time>2026-04-11T07:26:42.999Z</time></trkpt><trkpt lat="43.45982900650499" lon="11.426787147336258"><ele>343.0</ele><time>2026-04-11T07:26:43.999Z</time></trkpt><trkpt lat="43.45975310172467" lon="11.42675364978988"><ele>343.0</ele><time>2026-04-11T07:26:44.999Z</time></trkpt><trkpt lat="43.45967607005048" lon="11.426717220508472"><ele>343.0</ele><time>2026-04-11T07:26:45.999Z</time></trkpt><trkpt lat="43.45959629957865" lon="11.426685567893692"><ele>343.0</ele><time>2026-04-11T07:26:46.999Z</time></trkpt><trkpt lat="43.459518787769525" lon="11.426650486888825"><ele>343.0</ele><time>2026-04-11T07:26:47.999Z</time></trkpt><trkpt lat="43.45944122638608" lon="11.42661630735387"><ele>343.0</ele><time>2026-04-11T07:26:48.999Z</time></trkpt><trkpt lat="43.45936440136966" lon="11.426580921804266"><ele>343.0</ele><time>2026-04-11T07:26:49.999Z</time></trkpt><trkpt lat="43.459285522176614" lon="11.426549047208937"><ele>342.3333333333333</ele><time>2026-04-11T07:26:50.999Z</time></trkpt><trkpt lat="43.4592092812066" lon="11.426516979087754"><ele>341.66666666666663</ele><time>2026-04-11T07:26:51.999Z</time></trkpt><trkpt lat="43.45913022718199" lon="11.426482721305595"><ele>341.0</ele><time>2026-04-11T07:26:52.999Z</time></trkpt><trkpt lat="43.45905315824956" lon="11.426452214299694"><ele>340.3333333333333</ele><time>2026-04-11T07:26:53.999Z</time></trkpt><trkpt lat="43.458974866778014" lon="11.426413564677388"><ele>339.6666666666667</ele><time>2026-04-11T07:26:54.999Z</time></trkpt><trkpt lat="43.45889382592022" lon="11.426378484644287"><ele>339.0</ele><time>2026-04-11T07:26:56Z</time></trkpt><trkpt lat="43.458813198159305" lon="11.426342783145135"><ele>338.5</ele><time>2026-04-11T07:26:57Z</time></trkpt><trkpt lat="43.458731960037085" lon="11.426303658003958"><ele>338.0</ele><time>2026-04-11T07:26:58Z</time></trkpt><trkpt lat="43.458650473031334" lon="11.426263827601318"><ele>337.5</ele><time>2026-04-11T07:26:59Z</time></trkpt><trkpt lat="43.45856992103287" lon="11.426230331551372"><ele>337.0</ele><time>2026-04-11T07:27:00Z</time></trkpt><trkpt lat="43.45848854243241" lon="11.426195486413386"><ele>336.5</ele><time>2026-04-11T07:27:01Z</time></trkpt><trkpt lat="43.458408325488286" lon="11.426162393261212"><ele>336.0</ele><time>2026-04-11T07:27:02Z</time></trkpt><trkpt lat="43.45832892751874" lon="11.426128920147663"><ele>336.0</ele><time>2026-04-11T07:27:03Z</time></trkpt><trkpt lat="43.45824833471228" lon="11.426093795018064"><ele>336.0</ele><time>2026-04-11T07:27:04Z</time></trkpt><trkpt lat="43.45816891229143" lon="11.426059225846137"><ele>336.0</ele><time>2026-04-11T07:27:05Z</time></trkpt><trkpt lat="43.45808878859143" lon="11.426025849989218"><ele>336.0</ele><time>2026-04-11T07:27:06Z</time></trkpt><trkpt lat="43.45800867576264" lon="11.425994234979784"><ele>336.0</ele><time>2026-04-11T07:27:07Z</time></trkpt><trkpt lat="43.457928303788066" lon="11.425960247597635"><ele>336.0</ele><time>2026-04-11T07:27:08Z</time></trkpt><trkpt lat="43.45784997415819" lon="11.425923695800709"><ele>336.0</ele><time>2026-04-11T07:27:09Z</time></trkpt><trkpt lat="43.45777042995841" lon="11.425893082001002"><ele>336.0</ele><time>2026-04-11T07:27:10Z</time></trkpt><trkpt lat="43.45768990427744" lon="11.425850533594504"><ele>336.0</ele><time>2026-04-11T07:27:11Z</time></trkpt><trkpt lat="43.45760975137135" lon="11.425814897179418"><ele>336.0</ele><time>2026-04-11T07:27:12Z</time></trkpt><trkpt lat="43.45753043711525" lon="11.425785165737562"><ele>336.0</ele><time>2026-04-11T07:27:13Z</time></trkpt><trkpt lat="43.45745041666296" lon="11.425751229322302"><ele>336.0</ele><time>2026-04-11T07:27:14Z</time></trkpt><trkpt lat="43.45737166267402" lon="11.42571834474729"><ele>336.0</ele><time>2026-04-11T07:27:15Z</time></trkpt><trkpt lat="43.45729140901101" lon="11.425683657032883"><ele>336.0</ele><time>2026-04-11T07:27:16Z</time></trkpt><trkpt lat="43.45721706450094" lon="11.425646106364768"><ele>336.0</ele><time>2026-04-11T07:27:17Z</time></trkpt><trkpt lat="43.457143608242255" lon="11.425613294343078"><ele>336.0</ele><time>2026-04-11T07:27:18Z</time></trkpt><trkpt lat="43.45706746493748" lon="11.425585177905173"><ele>336.0</ele><time>2026-04-11T07:27:19Z</time></trkpt><trkpt lat="43.45699297089178" lon="11.425562001159824"><ele>336.0</ele><time>2026-04-11T07:27:20Z</time></trkpt><trkpt lat="43.456916914198125" lon="11.425541366104586"><ele>336.85714285714283</ele><time>2026-04-11T07:27:21Z</time></trkpt><trkpt lat="43.45683999760359" lon="11.425526823466866"><ele>337.7142857142857</ele><time>2026-04-11T07:27:22Z</time></trkpt><trkpt lat="43.456764955640395" lon="11.425509562976972"><ele>338.57142857142856</ele><time>2026-04-11T07:27:23Z</time></trkpt><trkpt lat="43.45668847000238" lon="11.425497696717203"><ele>339.42857142857144</ele><time>2026-04-11T07:27:24Z</time></trkpt><trkpt lat="43.45661640890191" lon="11.425481342981191"><ele>340.2857142857143</ele><time>2026-04-11T07:27:25Z</time></trkpt><trkpt lat="43.45654603701296" lon="11.425470272130754"><ele>341.1428571428571</ele><time>2026-04-11T07:27:26Z</time></trkpt><trkpt lat="43.4564736799823" lon="11.425468441371109"><ele>342.0</ele><time>2026-04-11T07:27:27Z</time></trkpt><trkpt lat="43.45640301540318" lon="11.425468589839603"><ele>341.2857142857143</ele><time>2026-04-11T07:27:28Z</time></trkpt><trkpt lat="43.456335452585115" lon="11.425466073349515"><ele>340.57142857142856</ele><time>2026-04-11T07:27:29Z</time></trkpt><trkpt lat="43.45626864204328" lon="11.425450599398754"><ele>339.8571428571429</ele><time>2026-04-11T07:27:29.999Z</time></trkpt><trkpt lat="43.45620535694727" lon="11.42542055677763"><ele>339.1428571428571</ele><time>2026-04-11T07:27:30.999Z</time></trkpt><trkpt lat="43.456145315560946" lon="11.425374292650982"><ele>338.42857142857144</ele><time>2026-04-11T07:27:31.999Z</time></trkpt><trkpt lat="43.45608693198346" lon="11.425323017291408"><ele>337.7142857142857</ele><time>2026-04-11T07:27:32.999Z</time></trkpt><trkpt lat="43.456027513200425" lon="11.425267560365791"><ele>337.0</ele><time>2026-04-11T07:27:33.999Z</time></trkpt><trkpt lat="43.45597125713477" lon="11.425204565233386"><ele>337.0</ele><time>2026-04-11T07:27:34.999Z</time></trkpt><trkpt lat="43.45591033453538" lon="11.425139837513209"><ele>337.0</ele><time>2026-04-11T07:27:35.999Z</time></trkpt><trkpt lat="43.45584972543757" lon="11.425072994326484"><ele>337.0</ele><time>2026-04-11T07:27:36.999Z</time></trkpt><trkpt lat="43.455785678709226" lon="11.425006087458591"><ele>337.0</ele><time>2026-04-11T07:27:37.999Z</time></trkpt><trkpt lat="43.455718495995626" lon="11.424936523867656"><ele>337.0</ele><time>2026-04-11T07:27:38.999Z</time></trkpt><trkpt lat="43.45565001366228" lon="11.424863323836801"><ele>337.0</ele><time>2026-04-11T07:27:39.999Z</time></trkpt><trkpt lat="43.455580484837654" lon="11.424789670758193"><ele>337.0</ele><time>2026-04-11T07:27:40.999Z</time></trkpt><trkpt lat="43.455510287801786" lon="11.424718320999606"><ele>337.0</ele><time>2026-04-11T07:27:41.999Z</time></trkpt><trkpt lat="43.45543984759729" lon="11.424644471658837"><ele>337.0</ele><time>2026-04-11T07:27:42.999Z</time></trkpt><trkpt lat="43.45537079788672" lon="11.424570418222823"><ele>337.0</ele><time>2026-04-11T07:27:43.999Z</time></trkpt><trkpt lat="43.45530079776682" lon="11.424494848672907"><ele>337.0</ele><time>2026-04-11T07:27:44.999Z</time></trkpt><trkpt lat="43.455231623986805" lon="11.424424990376417"><ele>337.0</ele><time>2026-04-11T07:27:45.999Z</time></trkpt><trkpt lat="43.45516112060066" lon="11.424355265116361"><ele>336.3333333333333</ele><time>2026-04-11T07:27:46.999Z</time></trkpt><trkpt lat="43.45509320075715" lon="11.424284790224897"><ele>335.66666666666663</ele><time>2026-04-11T07:27:47.999Z</time></trkpt><trkpt lat="43.45502751944278" lon="11.424215197173474"><ele>335.0</ele><time>2026-04-11T07:27:48.999Z</time></trkpt><trkpt lat="43.45496153958813" lon="11.424144193314454"><ele>334.3333333333333</ele><time>2026-04-11T07:27:49.999Z</time></trkpt><trkpt lat="43.454897216355235" lon="11.42407688644531"><ele>333.6666666666667</ele><time>2026-04-11T07:27:50.999Z</time></trkpt><trkpt lat="43.454831312028396" lon="11.424010934559266"><ele>333.0</ele><time>2026-04-11T07:27:51.999Z</time></trkpt><trkpt lat="43.45476381622608" lon="11.423944917635312"><ele>333.0</ele><time>2026-04-11T07:27:52.999Z</time></trkpt><trkpt lat="43.45469942558381" lon="11.42387461985354"><ele>333.0</ele><time>2026-04-11T07:27:53.999Z</time></trkpt><trkpt lat="43.45463315117354" lon="11.423811081771163"><ele>333.0</ele><time>2026-04-11T07:27:54.999Z</time></trkpt><trkpt lat="43.45456817642215" lon="11.423751501857259"><ele>333.0</ele><time>2026-04-11T07:27:55.999Z</time></trkpt><trkpt lat="43.45450167276709" lon="11.42369662106611"><ele>333.0</ele><time>2026-04-11T07:27:56.999Z</time></trkpt><trkpt lat="43.454437548989894" lon="11.423635876318304"><ele>333.0</ele><time>2026-04-11T07:27:57.999Z</time></trkpt><trkpt lat="43.45437561115491" lon="11.423566896844527"><ele>332.6666666666667</ele><time>2026-04-11T07:27:58.999Z</time></trkpt><trkpt lat="43.454318359254245" lon="11.423491100869168"><ele>332.3333333333333</ele><time>2026-04-11T07:27:59.999Z</time></trkpt><trkpt lat="43.4542607673328" lon="11.423408260015936"><ele>332.0</ele><time>2026-04-11T07:28:00.999Z</time></trkpt><trkpt lat="43.45420523104945" lon="11.423318833938225"><ele>331.66666666666663</ele><time>2026-04-11T07:28:01.999Z</time></trkpt><trkpt lat="43.45415463444534" lon="11.423226869667815"><ele>331.3333333333333</ele><time>2026-04-11T07:28:02.999Z</time></trkpt><trkpt lat="43.454099511748126" lon="11.423135324526768"><ele>331.0</ele><time>2026-04-11T07:28:03.999Z</time></trkpt><trkpt lat="43.45404173611895" lon="11.423045745331098"><ele>331.66666666666663</ele><time>2026-04-11T07:28:04.999Z</time></trkpt><trkpt lat="43.45398267720029" lon="11.422959213933034"><ele>332.3333333333333</ele><time>2026-04-11T07:28:05.999Z</time></trkpt><trkpt lat="43.45392429968291" lon="11.422871865731539"><ele>333.0</ele><time>2026-04-11T07:28:06.999Z</time></trkpt><trkpt lat="43.45386734865726" lon="11.422790885263286"><ele>333.6666666666667</ele><time>2026-04-11T07:28:07.999Z</time></trkpt><trkpt lat="43.45381106184197" lon="11.422709136223455"><ele>334.33333333333337</ele><time>2026-04-11T07:28:08.999Z</time></trkpt><trkpt lat="43.45375862415501" lon="11.42261778622199"><ele>335.0</ele><time>2026-04-11T07:28:09.999Z</time></trkpt><trkpt lat="43.453703196596585" lon="11.422528284531111"><ele>334.5</ele><time>2026-04-11T07:28:10.999Z</time></trkpt><trkpt lat="43.45364719178149" lon="11.422440301713234"><ele>334.0</ele><time>2026-04-11T07:28:11.999Z</time></trkpt><trkpt lat="43.45359119730868" lon="11.422352091040539"><ele>333.5</ele><time>2026-04-11T07:28:12.999Z</time></trkpt><trkpt lat="43.4535354459968" lon="11.422268187625134"><ele>333.0</ele><time>2026-04-11T07:28:13.999Z</time></trkpt><trkpt lat="43.453478691379196" lon="11.422186855253424"><ele>332.5</ele><time>2026-04-11T07:28:14.999Z</time></trkpt><trkpt lat="43.45342887606614" lon="11.422104838381246"><ele>332.0</ele><time>2026-04-11T07:28:15.999Z</time></trkpt><trkpt lat="43.45337857010768" lon="11.422020318079717"><ele>332.0</ele><time>2026-04-11T07:28:16.999Z</time></trkpt><trkpt lat="43.45332564427895" lon="11.421937056229355"><ele>332.0</ele><time>2026-04-11T07:28:17.999Z</time></trkpt><trkpt lat="43.45327413534526" lon="11.421857227901498"><ele>332.0</ele><time>2026-04-11T07:28:18.999Z</time></trkpt><trkpt lat="43.453222597395495" lon="11.421780004958215"><ele>332.0</ele><time>2026-04-11T07:28:19.999Z</time></trkpt><trkpt lat="43.45317079398189" lon="11.421700624801352"><ele>332.0</ele><time>2026-04-11T07:28:20.999Z</time></trkpt><trkpt lat="43.45311925674753" lon="11.42162422075931"><ele>332.0</ele><time>2026-04-11T07:28:21.999Z</time></trkpt><trkpt lat="43.45306659586073" lon="11.421551394643748"><ele>332.0</ele><time>2026-04-11T07:28:22.999Z</time></trkpt><trkpt lat="43.45301122879851" lon="11.421492767424223"><ele>332.0</ele><time>2026-04-11T07:28:23.999Z</time></trkpt><trkpt lat="43.45295174268571" lon="11.421449414529066"><ele>332.0</ele><time>2026-04-11T07:28:24.999Z</time></trkpt><trkpt lat="43.45284480288312" lon="11.421374137213654"><ele>332.0</ele><time>2026-04-11T07:28:26.999Z</time></trkpt><trkpt lat="43.45278728091777" lon="11.421334729765642"><ele>332.0</ele><time>2026-04-11T07:28:27.999Z</time></trkpt><trkpt lat="43.45268086910072" lon="11.421246977221658"><ele>332.0</ele><time>2026-04-11T07:28:29.999Z</time></trkpt><trkpt lat="43.45262616266374" lon="11.42119933121924"><ele>332.6</ele><time>2026-04-11T07:28:30.999Z</time></trkpt><trkpt lat="43.452526801396566" lon="11.42109559903022"><ele>333.20000000000005</ele><time>2026-04-11T07:28:32.999Z</time></trkpt><trkpt lat="43.45247645571603" lon="11.42103729851454"><ele>333.8</ele><time>2026-04-11T07:28:33.999Z</time></trkpt><trkpt lat="43.452387113398835" lon="11.420919488373817"><ele>334.4</ele><time>2026-04-11T07:28:35.999Z</time></trkpt><trkpt lat="43.45230537270068" lon="11.420804366033492"><ele>335.0</ele><time>2026-04-11T07:28:37.999Z</time></trkpt><trkpt lat="43.452228684661755" lon="11.420681207542764"><ele>335.0</ele><time>2026-04-11T07:28:39.999Z</time></trkpt><trkpt lat="43.4521540649078" lon="11.420568281787896"><ele>335.0</ele><time>2026-04-11T07:28:41.999Z</time></trkpt><trkpt lat="43.45208618130087" lon="11.420460679774795"><ele>335.0</ele><time>2026-04-11T07:28:43.999Z</time></trkpt><trkpt lat="43.452016623222484" lon="11.420354281823403"><ele>335.0</ele><time>2026-04-11T07:28:45.999Z</time></trkpt><trkpt lat="43.45195324031921" lon="11.420243241439584"><ele>335.0</ele><time>2026-04-11T07:28:47.999Z</time></trkpt><trkpt lat="43.451900419163415" lon="11.420169850525987"><ele>334.8</ele><time>2026-04-11T07:28:49.999Z</time></trkpt><trkpt lat="43.45185291748981" lon="11.420084330163208"><ele>334.6</ele><time>2026-04-11T07:28:51.999Z</time></trkpt><trkpt lat="43.4518018938371" lon="11.419988309765479"><ele>334.4</ele><time>2026-04-11T07:28:53.999Z</time></trkpt><trkpt lat="43.45170630715186" lon="11.419835577962552"><ele>334.2</ele><time>2026-04-11T07:28:55.999Z</time></trkpt><trkpt lat="43.45164522830056" lon="11.419733147918352"><ele>334.0</ele><time>2026-04-11T07:28:57.999Z</time></trkpt><trkpt lat="43.45156773315108" lon="11.41962348331672"><ele>334.0</ele><time>2026-04-11T07:28:59.999Z</time></trkpt><trkpt lat="43.45148565022821" lon="11.41952476235424"><ele>334.0</ele><time>2026-04-11T07:29:02Z</time></trkpt><trkpt lat="43.45138688269163" lon="11.419430617337781"><ele>334.0</ele><time>2026-04-11T07:29:04Z</time></trkpt><trkpt lat="43.45128003921689" lon="11.41934883303354"><ele>334.0</ele><time>2026-04-11T07:29:06Z</time></trkpt><trkpt lat="43.45122350162943" lon="11.419304347043534"><ele>334.0</ele><time>2026-04-11T07:29:07Z</time></trkpt><trkpt lat="43.45111678119512" lon="11.419225211262543"><ele>332.4</ele><time>2026-04-11T07:29:09Z</time></trkpt><trkpt lat="43.4510055123422" lon="11.419147069544914"><ele>330.79999999999995</ele><time>2026-04-11T07:29:11Z</time></trkpt><trkpt lat="43.45094437547841" lon="11.419106000323628"><ele>329.20000000000005</ele><time>2026-04-11T07:29:12Z</time></trkpt><trkpt lat="43.4508630622216" lon="11.41908000693035"><ele>327.6</ele><time>2026-04-11T07:29:13Z</time></trkpt><trkpt lat="43.45078766297599" lon="11.419064030968814"><ele>326.0</ele><time>2026-04-11T07:29:14Z</time></trkpt><trkpt lat="43.450689817587175" lon="11.419045635767327"><ele>326.0</ele><time>2026-04-11T07:29:15Z</time></trkpt><trkpt lat="43.45060882651206" lon="11.419020675270753"><ele>326.0</ele><time>2026-04-11T07:29:16Z</time></trkpt><trkpt lat="43.45051623999839" lon="11.418995455531473"><ele>326.0</ele><time>2026-04-11T07:29:17Z</time></trkpt><trkpt lat="43.450425776947334" lon="11.41897237854537"><ele>326.0</ele><time>2026-04-11T07:29:18Z</time></trkpt><trkpt lat="43.45033161199555" lon="11.418965584365202"><ele>326.0</ele><time>2026-04-11T07:29:19Z</time></trkpt><trkpt lat="43.450235946165115" lon="11.418961703323989"><ele>325.6666666666667</ele><time>2026-04-11T07:29:20Z</time></trkpt><trkpt lat="43.45014683941931" lon="11.41895640297945"><ele>325.33333333333337</ele><time>2026-04-11T07:29:21Z</time></trkpt><trkpt lat="43.45006102049407" lon="11.418938394296285"><ele>325.0</ele><time>2026-04-11T07:29:22Z</time></trkpt><trkpt lat="43.449969149345996" lon="11.41891363809658"><ele>324.6666666666667</ele><time>2026-04-11T07:29:23Z</time></trkpt><trkpt lat="43.44988450885695" lon="11.418875123589425"><ele>324.3333333333333</ele><time>2026-04-11T07:29:24Z</time></trkpt><trkpt lat="43.449800686076074" lon="11.418833181805422"><ele>324.0</ele><time>2026-04-11T07:29:25Z</time></trkpt><trkpt lat="43.449710358133736" lon="11.41879867926077"><ele>324.6666666666667</ele><time>2026-04-11T07:29:26Z</time></trkpt><trkpt lat="43.449634367185965" lon="11.418762271079833"><ele>325.3333333333333</ele><time>2026-04-11T07:29:27Z</time></trkpt><trkpt lat="43.44955793624438" lon="11.41871744065101"><ele>326.0</ele><time>2026-04-11T07:29:28Z</time></trkpt><trkpt lat="43.44949074457502" lon="11.418676429896179"><ele>326.66666666666663</ele><time>2026-04-11T07:29:29Z</time></trkpt><trkpt lat="43.4494131507962" lon="11.418649413128964"><ele>327.3333333333333</ele><time>2026-04-11T07:29:30Z</time></trkpt><trkpt lat="43.44933186579111" lon="11.418621969753003"><ele>328.0</ele><time>2026-04-11T07:29:31Z</time></trkpt><trkpt lat="43.449264112946516" lon="11.418602882378282"><ele>328.4285714285714</ele><time>2026-04-11T07:29:31.999Z</time></trkpt><trkpt lat="43.4491851572251" lon="11.418584921995423"><ele>328.85714285714283</ele><time>2026-04-11T07:29:32.999Z</time></trkpt><trkpt lat="43.44911778236361" lon="11.418572372457628"><ele>329.2857142857143</ele><time>2026-04-11T07:29:33.999Z</time></trkpt><trkpt lat="43.44905009829907" lon="11.418561843467167"><ele>329.71428571428567</ele><time>2026-04-11T07:29:34.999Z</time></trkpt><trkpt lat="43.44897748577025" lon="11.418548429426389"><ele>330.1428571428571</ele><time>2026-04-11T07:29:35.999Z</time></trkpt><trkpt lat="43.44891122060521" lon="11.418546346465071"><ele>330.57142857142856</ele><time>2026-04-11T07:29:36.999Z</time></trkpt><trkpt lat="43.44884575729048" lon="11.418547049918228"><ele>331.0</ele><time>2026-04-11T07:29:37.999Z</time></trkpt><trkpt lat="43.44870738100378" lon="11.4185366672817"><ele>331.0</ele><time>2026-04-11T07:29:39.999Z</time></trkpt><trkpt lat="43.44860126844972" lon="11.41851880310314"><ele>331.0</ele><time>2026-04-11T07:29:41.999Z</time></trkpt><trkpt lat="43.448492242495554" lon="11.41850040235436"><ele>331.0</ele><time>2026-04-11T07:29:43.999Z</time></trkpt><trkpt lat="43.4483856905422" lon="11.418470587777641"><ele>331.0</ele><time>2026-04-11T07:29:45.999Z</time></trkpt><trkpt lat="43.44828223289141" lon="11.418397695993024"><ele>331.0</ele><time>2026-04-11T07:29:47.999Z</time></trkpt><trkpt lat="43.448188086574724" lon="11.418333295936412"><ele>331.0</ele><time>2026-04-11T07:29:49.999Z</time></trkpt><trkpt lat="43.44809931425885" lon="11.41825706738216"><ele>331.0</ele><time>2026-04-11T07:29:51.999Z</time></trkpt><trkpt lat="43.448015774202474" lon="11.418173410062787"><ele>331.0</ele><time>2026-04-11T07:29:53.999Z</time></trkpt><trkpt lat="43.44793845040888" lon="11.418090821261618"><ele>331.0</ele><time>2026-04-11T07:29:55.999Z</time></trkpt><trkpt lat="43.44786681453855" lon="11.418009940493725"><ele>331.0</ele><time>2026-04-11T07:29:57.999Z</time></trkpt><trkpt lat="43.44779785280411" lon="11.417939465902759"><ele>332.16666666666663</ele><time>2026-04-11T07:29:59.999Z</time></trkpt><trkpt lat="43.447733367381524" lon="11.417885058477562"><ele>333.3333333333333</ele><time>2026-04-11T07:30:01.999Z</time></trkpt><trkpt lat="43.44766505408913" lon="11.417844690175412"><ele>334.5</ele><time>2026-04-11T07:30:03.999Z</time></trkpt><trkpt lat="43.44759087347822" lon="11.417806959867706"><ele>335.6666666666667</ele><time>2026-04-11T07:30:05.999Z</time></trkpt><trkpt lat="43.44751779991796" lon="11.417765036930158"><ele>336.83333333333337</ele><time>2026-04-11T07:30:07.999Z</time></trkpt><trkpt lat="43.447446229825594" lon="11.417734821689045"><ele>338.0</ele><time>2026-04-11T07:30:09.999Z</time></trkpt><trkpt lat="43.44736955621453" lon="11.417719583679842"><ele>338.0</ele><time>2026-04-11T07:30:11.999Z</time></trkpt><trkpt lat="43.447303712365205" lon="11.417701603370412"><ele>338.0</ele><time>2026-04-11T07:30:13.999Z</time></trkpt><trkpt lat="43.4472154377361" lon="11.417672771177692"><ele>338.0</ele><time>2026-04-11T07:30:16.999Z</time></trkpt><trkpt lat="43.447114102219736" lon="11.417658631269127"><ele>338.0</ele><time>2026-04-11T07:30:19.999Z</time></trkpt><trkpt lat="43.44702692579913" lon="11.417636260072317"><ele>338.0</ele><time>2026-04-11T07:30:22.999Z</time></trkpt><trkpt lat="43.44694957485387" lon="11.417615480255076"><ele>338.0</ele><time>2026-04-11T07:30:24.999Z</time></trkpt><trkpt lat="43.44682305082056" lon="11.417573490581654"><ele>338.4</ele><time>2026-04-11T07:30:25.999Z</time></trkpt><trkpt lat="43.44673211222629" lon="11.417555369103082"><ele>338.79999999999995</ele><time>2026-04-11T07:30:27.999Z</time></trkpt><trkpt lat="43.446640403915865" lon="11.417527981267241"><ele>339.2</ele><time>2026-04-11T07:30:29.999Z</time></trkpt><trkpt lat="43.446549200306066" lon="11.417511051474243"><ele>339.6</ele><time>2026-04-11T07:30:31.999Z</time></trkpt><trkpt lat="43.446464548520915" lon="11.417477332518192"><ele>340.0</ele><time>2026-04-11T07:30:33.999Z</time></trkpt><trkpt lat="43.44637849504004" lon="11.417463645464117"><ele>342.4</ele><time>2026-04-11T07:30:35.999Z</time></trkpt><trkpt lat="43.44629199715855" lon="11.417458558228233"><ele>344.8</ele><time>2026-04-11T07:30:37.999Z</time></trkpt><trkpt lat="43.44620404116489" lon="11.417459714593043"><ele>347.20000000000005</ele><time>2026-04-11T07:30:39.999Z</time></trkpt><trkpt lat="43.44611272188478" lon="11.417485680018101"><ele>349.6</ele><time>2026-04-11T07:30:41.999Z</time></trkpt><trkpt lat="43.44602909938421" lon="11.417546281930633"><ele>352.0</ele><time>2026-04-11T07:30:43.999Z</time></trkpt><trkpt lat="43.4459453666223" lon="11.417617566789287"><ele>352.0</ele><time>2026-04-11T07:30:45.999Z</time></trkpt><trkpt lat="43.44588884929382" lon="11.41773625522026"><ele>352.0</ele><time>2026-04-11T07:30:47.999Z</time></trkpt><trkpt lat="43.445837069581934" lon="11.417845774807956"><ele>352.0</ele><time>2026-04-11T07:30:49.999Z</time></trkpt><trkpt lat="43.445795200423305" lon="11.417967680863512"><ele>352.0</ele><time>2026-04-11T07:30:51.999Z</time></trkpt><trkpt lat="43.44575128115436" lon="11.418095645785067"><ele>352.0</ele><time>2026-04-11T07:30:53.999Z</time></trkpt><trkpt lat="43.44571383361471" lon="11.418235771686602"><ele>350.3333333333333</ele><time>2026-04-11T07:30:55.999Z</time></trkpt><trkpt lat="43.44567846501453" lon="11.418392392238783"><ele>348.66666666666663</ele><time>2026-04-11T07:30:57.999Z</time></trkpt><trkpt lat="43.44565104519198" lon="11.41855983832433"><ele>347.0</ele><time>2026-04-11T07:30:59.999Z</time></trkpt><trkpt lat="43.44563868858884" lon="11.418646563699133"><ele>345.3333333333333</ele><time>2026-04-11T07:31:00.999Z</time></trkpt><trkpt lat="43.44563093379251" lon="11.418735198375188"><ele>343.6666666666667</ele><time>2026-04-11T07:31:01.999Z</time></trkpt><trkpt lat="43.44563325712077" lon="11.418823790636015"><ele>342.0</ele><time>2026-04-11T07:31:02.999Z</time></trkpt><trkpt lat="43.44563712674511" lon="11.41891175170645"><ele>340.6666666666667</ele><time>2026-04-11T07:31:03.999Z</time></trkpt><trkpt lat="43.4456407846975" lon="11.419004231459857"><ele>339.3333333333333</ele><time>2026-04-11T07:31:04.999Z</time></trkpt><trkpt lat="43.44564411950311" lon="11.419094425802111"><ele>338.0</ele><time>2026-04-11T07:31:05.999Z</time></trkpt><trkpt lat="43.44563033502718" lon="11.419196318287474"><ele>336.66666666666663</ele><time>2026-04-11T07:31:07Z</time></trkpt><trkpt lat="43.44563336566343" lon="11.419283078709757"><ele>335.3333333333333</ele><time>2026-04-11T07:31:08Z</time></trkpt><trkpt lat="43.44561923695867" lon="11.419444479531363"><ele>334.0</ele><time>2026-04-11T07:31:10Z</time></trkpt><trkpt lat="43.44560068349068" lon="11.41952876591063"><ele>335.0</ele><time>2026-04-11T07:31:11Z</time></trkpt><trkpt lat="43.44552493537577" lon="11.419661983456606"><ele>336.0</ele><time>2026-04-11T07:31:13Z</time></trkpt><trkpt lat="43.44542050509488" lon="11.419756237356774"><ele>337.0</ele><time>2026-04-11T07:31:15Z</time></trkpt><trkpt lat="43.445359830190206" lon="11.419785134027709"><ele>338.0</ele><time>2026-04-11T07:31:16Z</time></trkpt><trkpt lat="43.44524442884928" lon="11.419854463085924"><ele>339.0</ele><time>2026-04-11T07:31:18Z</time></trkpt><trkpt lat="43.44518543745299" lon="11.41988886197492"><ele>339.0</ele><time>2026-04-11T07:31:19Z</time></trkpt><trkpt lat="43.44506987357148" lon="11.419957481835379"><ele>339.0</ele><time>2026-04-11T07:31:21Z</time></trkpt><trkpt lat="43.444951635777876" lon="11.42001926441206"><ele>339.0</ele><time>2026-04-11T07:31:23Z</time></trkpt><trkpt lat="43.44489377769426" lon="11.420054183825028"><ele>339.0</ele><time>2026-04-11T07:31:24Z</time></trkpt><trkpt lat="43.444781042850245" lon="11.420123003478475"><ele>339.0</ele><time>2026-04-11T07:31:26Z</time></trkpt><trkpt lat="43.44467056734998" lon="11.42020183883417"><ele>338.6</ele><time>2026-04-11T07:31:28Z</time></trkpt><trkpt lat="43.444570017204235" lon="11.420303341221983"><ele>338.2</ele><time>2026-04-11T07:31:30Z</time></trkpt><trkpt lat="43.44447712319073" lon="11.420419604397585"><ele>337.8</ele><time>2026-04-11T07:31:32Z</time></trkpt><trkpt lat="43.44439859518549" lon="11.42055608901406"><ele>337.40000000000003</ele><time>2026-04-11T07:31:34Z</time></trkpt><trkpt lat="43.4443553155482" lon="11.420623454314901"><ele>337.0</ele><time>2026-04-11T07:31:35Z</time></trkpt><trkpt lat="43.44430853675493" lon="11.42068928536073"><ele>337.00000000000006</ele><time>2026-04-11T07:31:36Z</time></trkpt><trkpt lat="43.44426352194776" lon="11.420756858387014"><ele>337.0</ele><time>2026-04-11T07:31:37Z</time></trkpt><trkpt lat="43.44421244347762" lon="11.420822341162"><ele>337.0</ele><time>2026-04-11T07:31:38Z</time></trkpt><trkpt lat="43.44415685229759" lon="11.42088146810909"><ele>337.0</ele><time>2026-04-11T07:31:39Z</time></trkpt><trkpt lat="43.44409638300795" lon="11.420934133528048"><ele>337.0</ele><time>2026-04-11T07:31:40Z</time></trkpt><trkpt lat="43.44403154383696" lon="11.420979432206826"><ele>337.00000000000006</ele><time>2026-04-11T07:31:40.999Z</time></trkpt><trkpt lat="43.44396704899422" lon="11.421020635615266"><ele>337.0</ele><time>2026-04-11T07:31:41.999Z</time></trkpt><trkpt lat="43.44390342742874" lon="11.42106500596638"><ele>337.00000000000006</ele><time>2026-04-11T07:31:42.999Z</time></trkpt><trkpt lat="43.44383986002834" lon="11.421111362409157"><ele>337.0</ele><time>2026-04-11T07:31:43.999Z</time></trkpt><trkpt lat="43.44377479306364" lon="11.421154651819547"><ele>337.0</ele><time>2026-04-11T07:31:44.999Z</time></trkpt><trkpt lat="43.44371027415656" lon="11.421202701018458"><ele>337.0</ele><time>2026-04-11T07:31:45.999Z</time></trkpt><trkpt lat="43.443646847580766" lon="11.421249852740175"><ele>337.0</ele><time>2026-04-11T07:31:46.999Z</time></trkpt><trkpt lat="43.44358419895826" lon="11.421294695641311"><ele>337.00000000000006</ele><time>2026-04-11T07:31:47.999Z</time></trkpt><trkpt lat="43.443522886986955" lon="11.421340500323236"><ele>337.0</ele><time>2026-04-11T07:31:48.999Z</time></trkpt><trkpt lat="43.44346214596991" lon="11.421385092433598"><ele>335.7142857142857</ele><time>2026-04-11T07:31:49.999Z</time></trkpt><trkpt lat="43.44340101494543" lon="11.42143077991267"><ele>334.42857142857144</ele><time>2026-04-11T07:31:50.999Z</time></trkpt><trkpt lat="43.44333565591905" lon="11.421471925708387"><ele>333.1428571428571</ele><time>2026-04-11T07:31:51.999Z</time></trkpt><trkpt lat="43.44326740821553" lon="11.421506595090271"><ele>331.8571428571429</ele><time>2026-04-11T07:31:52.999Z</time></trkpt><trkpt lat="43.443196499833505" lon="11.421532305635962"><ele>330.57142857142856</ele><time>2026-04-11T07:31:53.999Z</time></trkpt><trkpt lat="43.44312430849334" lon="11.421552952228865"><ele>329.2857142857143</ele><time>2026-04-11T07:31:54.999Z</time></trkpt><trkpt lat="43.44305011944384" lon="11.42156575922526"><ele>328.0</ele><time>2026-04-11T07:31:55.999Z</time></trkpt><trkpt lat="43.44297603436198" lon="11.421568495360505"><ele>328.0</ele><time>2026-04-11T07:31:56.999Z</time></trkpt><trkpt lat="43.44290137940665" lon="11.421566375041767"><ele>328.0</ele><time>2026-04-11T07:31:57.999Z</time></trkpt><trkpt lat="43.442825432577756" lon="11.421548946244606"><ele>328.0</ele><time>2026-04-11T07:31:58.999Z</time></trkpt><trkpt lat="43.442750105822796" lon="11.421554983654886"><ele>328.0</ele><time>2026-04-11T07:31:59.999Z</time></trkpt><trkpt lat="43.44267329297287" lon="11.421556789635787"><ele>328.0</ele><time>2026-04-11T07:32:00.999Z</time></trkpt><trkpt lat="43.442595610467386" lon="11.421558535344703"><ele>328.0</ele><time>2026-04-11T07:32:01.999Z</time></trkpt><trkpt lat="43.442519287182556" lon="11.421553511573542"><ele>328.0</ele><time>2026-04-11T07:32:02.999Z</time></trkpt><trkpt lat="43.44244305968476" lon="11.421538725641632"><ele>328.0</ele><time>2026-04-11T07:32:03.999Z</time></trkpt><trkpt lat="43.44236693717741" lon="11.421526339825467"><ele>328.0</ele><time>2026-04-11T07:32:04.999Z</time></trkpt><trkpt lat="43.442290899172754" lon="11.421516065395517"><ele>328.0</ele><time>2026-04-11T07:32:05.999Z</time></trkpt><trkpt lat="43.442216091210724" lon="11.421505403275994"><ele>328.0</ele><time>2026-04-11T07:32:06.999Z</time></trkpt><trkpt lat="43.44213979225216" lon="11.421496901999694"><ele>328.0</ele><time>2026-04-11T07:32:07.999Z</time></trkpt><trkpt lat="43.4420652368307" lon="11.421486142872173"><ele>327.2857142857143</ele><time>2026-04-11T07:32:08.999Z</time></trkpt><trkpt lat="43.441990660965644" lon="11.421477668509105"><ele>326.57142857142856</ele><time>2026-04-11T07:32:09.999Z</time></trkpt><trkpt lat="43.44191705253342" lon="11.421468225760378"><ele>325.8571428571429</ele><time>2026-04-11T07:32:10.999Z</time></trkpt><trkpt lat="43.441844239082194" lon="11.421455441035423"><ele>325.1428571428571</ele><time>2026-04-11T07:32:11.999Z</time></trkpt><trkpt lat="43.44177162475493" lon="11.421443024216849"><ele>324.42857142857144</ele><time>2026-04-11T07:32:12.999Z</time></trkpt><trkpt lat="43.44169666904179" lon="11.421431650651884"><ele>323.7142857142857</ele><time>2026-04-11T07:32:13.999Z</time></trkpt><trkpt lat="43.44162150175701" lon="11.421418290484675"><ele>323.0</ele><time>2026-04-11T07:32:14.999Z</time></trkpt><trkpt lat="43.44154540778734" lon="11.421409825974727"><ele>323.0</ele><time>2026-04-11T07:32:15.999Z</time></trkpt><trkpt lat="43.441468599798945" lon="11.421397571163963"><ele>323.0</ele><time>2026-04-11T07:32:16.999Z</time></trkpt><trkpt lat="43.44139316081832" lon="11.421386044312962"><ele>323.0</ele><time>2026-04-11T07:32:17.999Z</time></trkpt><trkpt lat="43.44131521187704" lon="11.421366907318886"><ele>323.0</ele><time>2026-04-11T07:32:18.999Z</time></trkpt><trkpt lat="43.44123976619414" lon="11.421349088459001"><ele>323.0</ele><time>2026-04-11T07:32:19.999Z</time></trkpt><trkpt lat="43.441166281600395" lon="11.421329323600913"><ele>323.0</ele><time>2026-04-11T07:32:20.999Z</time></trkpt><trkpt lat="43.44109619802902" lon="11.42130180227389"><ele>324.00000000000006</ele><time>2026-04-11T07:32:21.999Z</time></trkpt><trkpt lat="43.44103035256045" lon="11.421262942404521"><ele>325.0</ele><time>2026-04-11T07:32:22.999Z</time></trkpt><trkpt lat="43.44096797184239" lon="11.421212628343076"><ele>326.0</ele><time>2026-04-11T07:32:23.999Z</time></trkpt><trkpt lat="43.44090698549437" lon="11.421162532063795"><ele>327.0</ele><time>2026-04-11T07:32:24.999Z</time></trkpt><trkpt lat="43.44084559874673" lon="11.421115002885507"><ele>328.0</ele><time>2026-04-11T07:32:25.999Z</time></trkpt><trkpt lat="43.44078481449502" lon="11.42106510387612"><ele>329.00000000000006</ele><time>2026-04-11T07:32:26.999Z</time></trkpt><trkpt lat="43.44072371948565" lon="11.421011068582272"><ele>330.0</ele><time>2026-04-11T07:32:27.999Z</time></trkpt><trkpt lat="43.44066084591184" lon="11.420960956965015"><ele>330.00000000000006</ele><time>2026-04-11T07:32:28.999Z</time></trkpt><trkpt lat="43.44059761980891" lon="11.420909564833531"><ele>330.0</ele><time>2026-04-11T07:32:29.999Z</time></trkpt><trkpt lat="43.440535743933545" lon="11.420860256759433"><ele>330.0</ele><time>2026-04-11T07:32:30.999Z</time></trkpt><trkpt lat="43.44046968537045" lon="11.420807807899976"><ele>330.0</ele><time>2026-04-11T07:32:31.999Z</time></trkpt><trkpt lat="43.44040605346805" lon="11.420757068757437"><ele>330.0</ele><time>2026-04-11T07:32:32.999Z</time></trkpt><trkpt lat="43.44034349141458" lon="11.42070150710559"><ele>330.00000000000006</ele><time>2026-04-11T07:32:33.999Z</time></trkpt><trkpt lat="43.44028254149837" lon="11.420645149256206"><ele>330.0</ele><time>2026-04-11T07:32:34.999Z</time></trkpt><trkpt lat="43.44022151176044" lon="11.420578573536627"><ele>329.8333333333333</ele><time>2026-04-11T07:32:35.999Z</time></trkpt><trkpt lat="43.44014864669502" lon="11.420512512105201"><ele>329.6666666666667</ele><time>2026-04-11T07:32:36.999Z</time></trkpt><trkpt lat="43.440086283435946" lon="11.420468145326087"><ele>329.5</ele><time>2026-04-11T07:32:37.999Z</time></trkpt><trkpt lat="43.44002943499463" lon="11.420406972425825"><ele>329.33333333333337</ele><time>2026-04-11T07:32:38.999Z</time></trkpt><trkpt lat="43.43996576498199" lon="11.420356294362017"><ele>329.1666666666667</ele><time>2026-04-11T07:32:39.999Z</time></trkpt><trkpt lat="43.439900976683546" lon="11.42030318552443"><ele>329.0</ele><time>2026-04-11T07:32:40.999Z</time></trkpt><trkpt lat="43.43977592963957" lon="11.420201074226014"><ele>329.0</ele><time>2026-04-11T07:32:42.999Z</time></trkpt><trkpt lat="43.43971526898418" lon="11.420147347357517"><ele>329.0</ele><time>2026-04-11T07:32:43.999Z</time></trkpt><trkpt lat="43.43965600758292" lon="11.420090125173491"><ele>329.0</ele><time>2026-04-11T07:32:44.999Z</time></trkpt><trkpt lat="43.43959023827222" lon="11.420039873711762"><ele>329.0</ele><time>2026-04-11T07:32:45.999Z</time></trkpt><trkpt lat="43.439534809219616" lon="11.419988076367957"><ele>329.0</ele><time>2026-04-11T07:32:46.999Z</time></trkpt><trkpt lat="43.439470044254804" lon="11.41994465489387"><ele>329.0</ele><time>2026-04-11T07:32:47.999Z</time></trkpt><trkpt lat="43.439406538421615" lon="11.419898943672264"><ele>329.0</ele><time>2026-04-11T07:32:48.999Z</time></trkpt><trkpt lat="43.43934462453281" lon="11.419852904776574"><ele>327.1666666666667</ele><time>2026-04-11T07:32:49.999Z</time></trkpt><trkpt lat="43.43928037787047" lon="11.419806825659597"><ele>325.33333333333337</ele><time>2026-04-11T07:32:50.999Z</time></trkpt><trkpt lat="43.4392128922164" lon="11.419765384758986"><ele>323.5</ele><time>2026-04-11T07:32:51.999Z</time></trkpt><trkpt lat="43.43914396262971" lon="11.419732212209038"><ele>321.6666666666667</ele><time>2026-04-11T07:32:52.999Z</time></trkpt><trkpt lat="43.43906865078961" lon="11.419704265258824"><ele>319.8333333333333</ele><time>2026-04-11T07:32:53.999Z</time></trkpt><trkpt lat="43.438994777312736" lon="11.41968009689129"><ele>318.0</ele><time>2026-04-11T07:32:54.999Z</time></trkpt><trkpt lat="43.4389202891998" lon="11.419657461407285"><ele>319.6666666666667</ele><time>2026-04-11T07:32:55.999Z</time></trkpt><trkpt lat="43.43884097623967" lon="11.419634299511742"><ele>321.3333333333333</ele><time>2026-04-11T07:32:56.999Z</time></trkpt><trkpt lat="43.438765048532105" lon="11.419621642321205"><ele>323.0</ele><time>2026-04-11T07:32:57.999Z</time></trkpt><trkpt lat="43.43868741225076" lon="11.419610490344194"><ele>324.66666666666663</ele><time>2026-04-11T07:32:58.999Z</time></trkpt><trkpt lat="43.4386098446419" lon="11.419605461344174"><ele>326.3333333333333</ele><time>2026-04-11T07:32:59.999Z</time></trkpt><trkpt lat="43.438532581865054" lon="11.419598210953385"><ele>328.0</ele><time>2026-04-11T07:33:00.999Z</time></trkpt><trkpt lat="43.438454034291645" lon="11.419589638064068"><ele>328.0</ele><time>2026-04-11T07:33:01.999Z</time></trkpt><trkpt lat="43.43837565236154" lon="11.419583892317682"><ele>328.0</ele><time>2026-04-11T07:33:02.999Z</time></trkpt><trkpt lat="43.43830024778452" lon="11.419575101287863"><ele>328.0</ele><time>2026-04-11T07:33:03.999Z</time></trkpt><trkpt lat="43.43822461833505" lon="11.419564168577482"><ele>328.0</ele><time>2026-04-11T07:33:04.999Z</time></trkpt><trkpt lat="43.43815098078285" lon="11.419551408626102"><ele>328.0</ele><time>2026-04-11T07:33:05.999Z</time></trkpt><trkpt lat="43.43807348539552" lon="11.419548468192957"><ele>328.0</ele><time>2026-04-11T07:33:06.999Z</time></trkpt><trkpt lat="43.43800153204501" lon="11.419530886171728"><ele>327.16666666666663</ele><time>2026-04-11T07:33:07.999Z</time></trkpt><trkpt lat="43.43792026883826" lon="11.419513970886882"><ele>326.3333333333333</ele><time>2026-04-11T07:33:08.999Z</time></trkpt><trkpt lat="43.437842134554224" lon="11.419500002690457"><ele>325.5</ele><time>2026-04-11T07:33:09.999Z</time></trkpt><trkpt lat="43.43775935723733" lon="11.419484927732261"><ele>324.6666666666667</ele><time>2026-04-11T07:33:10.999Z</time></trkpt><trkpt lat="43.43767563235916" lon="11.419473567441083"><ele>323.83333333333337</ele><time>2026-04-11T07:33:12Z</time></trkpt><trkpt lat="43.43759425406019" lon="11.419459150876042"><ele>323.0</ele><time>2026-04-11T07:33:13Z</time></trkpt><trkpt lat="43.43751164209841" lon="11.419443392237431"><ele>323.0</ele><time>2026-04-11T07:33:14Z</time></trkpt><trkpt lat="43.43742735771944" lon="11.419429185255964"><ele>323.0</ele><time>2026-04-11T07:33:15Z</time></trkpt><trkpt lat="43.43734505991126" lon="11.41942184153899"><ele>323.0</ele><time>2026-04-11T07:33:16Z</time></trkpt><trkpt lat="43.43726161826006" lon="11.419417082390844"><ele>323.0</ele><time>2026-04-11T07:33:17Z</time></trkpt><trkpt lat="43.43717915777466" lon="11.419396524978135"><ele>323.0</ele><time>2026-04-11T07:33:18Z</time></trkpt><trkpt lat="43.43709507035888" lon="11.419371185229448"><ele>323.0</ele><time>2026-04-11T07:33:19Z</time></trkpt><trkpt lat="43.43702194034695" lon="11.419356870593212"><ele>322.5</ele><time>2026-04-11T07:33:20Z</time></trkpt><trkpt lat="43.436931679957546" lon="11.419339573964397"><ele>322.0</ele><time>2026-04-11T07:33:21Z</time></trkpt><trkpt lat="43.43684690122482" lon="11.419321594307068"><ele>321.5</ele><time>2026-04-11T07:33:22Z</time></trkpt><trkpt lat="43.43676070812251" lon="11.419303558586725"><ele>321.0</ele><time>2026-04-11T07:33:23Z</time></trkpt><trkpt lat="43.436672007742814" lon="11.419283259880919"><ele>320.5</ele><time>2026-04-11T07:33:24Z</time></trkpt><trkpt lat="43.43658666362365" lon="11.419270151565602"><ele>320.0</ele><time>2026-04-11T07:33:25Z</time></trkpt><trkpt lat="43.436498869010485" lon="11.419255553047797"><ele>320.0</ele><time>2026-04-11T07:33:26Z</time></trkpt><trkpt lat="43.43641353505135" lon="11.419239775381936"><ele>320.0</ele><time>2026-04-11T07:33:27Z</time></trkpt><trkpt lat="43.43632598498166" lon="11.419222896305502"><ele>320.0</ele><time>2026-04-11T07:33:28Z</time></trkpt><trkpt lat="43.436238772646156" lon="11.419208627791985"><ele>320.0</ele><time>2026-04-11T07:33:29Z</time></trkpt><trkpt lat="43.43615366137824" lon="11.419194895012284"><ele>320.0</ele><time>2026-04-11T07:33:30Z</time></trkpt><trkpt lat="43.43607269248213" lon="11.419181358340271"><ele>320.0</ele><time>2026-04-11T07:33:31Z</time></trkpt><trkpt lat="43.43598806338397" lon="11.419164916899861"><ele>319.33333333333337</ele><time>2026-04-11T07:33:32Z</time></trkpt><trkpt lat="43.43590337251863" lon="11.419144539319689"><ele>318.6666666666667</ele><time>2026-04-11T07:33:33Z</time></trkpt><trkpt lat="43.43582190039254" lon="11.419125853682752"><ele>318.0</ele><time>2026-04-11T07:33:34Z</time></trkpt><trkpt lat="43.435738505646576" lon="11.419113667645568"><ele>317.3333333333333</ele><time>2026-04-11T07:33:35Z</time></trkpt><trkpt lat="43.43565305703074" lon="11.419102789243881"><ele>316.66666666666663</ele><time>2026-04-11T07:33:36Z</time></trkpt><trkpt lat="43.435573157581125" lon="11.41908960243062"><ele>316.0</ele><time>2026-04-11T07:33:37Z</time></trkpt><trkpt lat="43.43549158982993" lon="11.419069026440882"><ele>316.5</ele><time>2026-04-11T07:33:37.999Z</time></trkpt><trkpt lat="43.43541472427202" lon="11.419064261393915"><ele>317.0</ele><time>2026-04-11T07:33:38.999Z</time></trkpt><trkpt lat="43.43533154099447" lon="11.419070634355823"><ele>317.5</ele><time>2026-04-11T07:33:39.999Z</time></trkpt><trkpt lat="43.43525413712346" lon="11.419082087778168"><ele>318.0</ele><time>2026-04-11T07:33:40.999Z</time></trkpt><trkpt lat="43.43517971310364" lon="11.419110702525813"><ele>318.5</ele><time>2026-04-11T07:33:41.999Z</time></trkpt><trkpt lat="43.43510812572858" lon="11.419160499678819"><ele>319.0</ele><time>2026-04-11T07:33:42.999Z</time></trkpt><trkpt lat="43.4350339220375" lon="11.419213610635168"><ele>319.0</ele><time>2026-04-11T07:33:43.999Z</time></trkpt><trkpt lat="43.43496393825361" lon="11.419271961649224"><ele>319.0</ele><time>2026-04-11T07:33:44.999Z</time></trkpt><trkpt lat="43.4348881082213" lon="11.419327386390583"><ele>319.0</ele><time>2026-04-11T07:33:45.999Z</time></trkpt><trkpt lat="43.43481562074289" lon="11.419389041189126"><ele>319.0</ele><time>2026-04-11T07:33:46.999Z</time></trkpt><trkpt lat="43.43474429771953" lon="11.41945235462946"><ele>319.0</ele><time>2026-04-11T07:33:47.999Z</time></trkpt><trkpt lat="43.434676656065065" lon="11.419512892099174"><ele>319.0</ele><time>2026-04-11T07:33:48.999Z</time></trkpt><trkpt lat="43.43461156669581" lon="11.41958338616854"><ele>318.5</ele><time>2026-04-11T07:33:49.999Z</time></trkpt><trkpt lat="43.43454879266638" lon="11.419654377225397"><ele>318.0</ele><time>2026-04-11T07:33:50.999Z</time></trkpt><trkpt lat="43.43448318931597" lon="11.419728398214831"><ele>317.5</ele><time>2026-04-11T07:33:51.999Z</time></trkpt><trkpt lat="43.43441701707973" lon="11.419800844607863"><ele>317.0</ele><time>2026-04-11T07:33:52.999Z</time></trkpt><trkpt lat="43.43434976232343" lon="11.419877935235505"><ele>316.5</ele><time>2026-04-11T07:33:53.999Z</time></trkpt><trkpt lat="43.43427986193829" lon="11.419955404562444"><ele>316.0</ele><time>2026-04-11T07:33:54.999Z</time></trkpt><trkpt lat="43.434213929756204" lon="11.420032366782305"><ele>316.0</ele><time>2026-04-11T07:33:55.999Z</time></trkpt><trkpt lat="43.434150057494946" lon="11.42011316881602"><ele>316.0</ele><time>2026-04-11T07:33:56.999Z</time></trkpt><trkpt lat="43.43408497968239" lon="11.42019232879148"><ele>316.0</ele><time>2026-04-11T07:33:57.999Z</time></trkpt><trkpt lat="43.43401979072083" lon="11.420267809719592"><ele>316.0</ele><time>2026-04-11T07:33:58.999Z</time></trkpt><trkpt lat="43.433955064600354" lon="11.420341272333205"><ele>316.0</ele><time>2026-04-11T07:33:59.999Z</time></trkpt><trkpt lat="43.433893893932364" lon="11.420421915864758"><ele>316.0</ele><time>2026-04-11T07:34:00.999Z</time></trkpt><trkpt lat="43.43383052619376" lon="11.420504888360037"><ele>313.8333333333333</ele><time>2026-04-11T07:34:01.999Z</time></trkpt><trkpt lat="43.433768495838834" lon="11.420588048605802"><ele>311.66666666666663</ele><time>2026-04-11T07:34:02.999Z</time></trkpt><trkpt lat="43.43370583179442" lon="11.420670139427447"><ele>309.5</ele><time>2026-04-11T07:34:03.999Z</time></trkpt><trkpt lat="43.43364023036167" lon="11.420747155807105"><ele>307.3333333333333</ele><time>2026-04-11T07:34:04.999Z</time></trkpt><trkpt lat="43.43357296736494" lon="11.42081970025087"><ele>305.1666666666667</ele><time>2026-04-11T07:34:05.999Z</time></trkpt><trkpt lat="43.4334963081542" lon="11.420872155359408"><ele>303.0</ele><time>2026-04-11T07:34:06.999Z</time></trkpt><trkpt lat="43.433408552313125" lon="11.420879679714977"><ele>303.0</ele><time>2026-04-11T07:34:07.999Z</time></trkpt><trkpt lat="43.433317406520146" lon="11.420842477352357"><ele>303.0</ele><time>2026-04-11T07:34:08.999Z</time></trkpt><trkpt lat="43.43323940486714" lon="11.420772511597212"><ele>303.0</ele><time>2026-04-11T07:34:09.999Z</time></trkpt><trkpt lat="43.43317816319018" lon="11.42068497397326"><ele>303.0</ele><time>2026-04-11T07:34:10.999Z</time></trkpt><trkpt lat="43.433127401597424" lon="11.420587661661651"><ele>303.0</ele><time>2026-04-11T07:34:11.999Z</time></trkpt><trkpt lat="43.43308299025933" lon="11.420483531828442"><ele>302.6666666666667</ele><time>2026-04-11T07:34:12.999Z</time></trkpt><trkpt lat="43.433045685000806" lon="11.420385979104324"><ele>302.3333333333333</ele><time>2026-04-11T07:34:13.999Z</time></trkpt><trkpt lat="43.43300648002918" lon="11.42028980947704"><ele>302.0</ele><time>2026-04-11T07:34:14.999Z</time></trkpt><trkpt lat="43.43296518974354" lon="11.420192888910615"><ele>301.66666666666663</ele><time>2026-04-11T07:34:15.999Z</time></trkpt><trkpt lat="43.43292518518553" lon="11.420093338730862"><ele>301.3333333333333</ele><time>2026-04-11T07:34:16.999Z</time></trkpt><trkpt lat="43.432884870845974" lon="11.41999465800648"><ele>301.0</ele><time>2026-04-11T07:34:17.999Z</time></trkpt><trkpt lat="43.43284303663407" lon="11.419903136123928"><ele>301.0</ele><time>2026-04-11T07:34:18.999Z</time></trkpt><trkpt lat="43.43280255744558" lon="11.419810997151828"><ele>301.0</ele><time>2026-04-11T07:34:19.999Z</time></trkpt><trkpt lat="43.432764888064625" lon="11.419719105447983"><ele>301.0</ele><time>2026-04-11T07:34:20.999Z</time></trkpt><trkpt lat="43.432722694837594" lon="11.419631519279061"><ele>301.0</ele><time>2026-04-11T07:34:21.999Z</time></trkpt><trkpt lat="43.43267503128764" lon="11.419548536772005"><ele>301.0</ele><time>2026-04-11T07:34:22.999Z</time></trkpt><trkpt lat="43.43262279818894" lon="11.419470866722822"><ele>301.0</ele><time>2026-04-11T07:34:23.999Z</time></trkpt><trkpt lat="43.43257208534946" lon="11.41939292712277"><ele>301.5</ele><time>2026-04-11T07:34:24.999Z</time></trkpt><trkpt lat="43.4325156499777" lon="11.419318434379512"><ele>302.0</ele><time>2026-04-11T07:34:25.999Z</time></trkpt><trkpt lat="43.43246386022391" lon="11.419240129994606"><ele>302.5</ele><time>2026-04-11T07:34:26.999Z</time></trkpt><trkpt lat="43.432411440297564" lon="11.41915842795416"><ele>303.0</ele><time>2026-04-11T07:34:27.999Z</time></trkpt><trkpt lat="43.432358046432846" lon="11.419083125550916"><ele>303.5</ele><time>2026-04-11T07:34:28.999Z</time></trkpt><trkpt lat="43.43230745310371" lon="11.419004612972481"><ele>304.0</ele><time>2026-04-11T07:34:29.999Z</time></trkpt><trkpt lat="43.43225619639295" lon="11.418926289968379"><ele>304.0</ele><time>2026-04-11T07:34:30.999Z</time></trkpt><trkpt lat="43.43220243700662" lon="11.41885129672107"><ele>304.0</ele><time>2026-04-11T07:34:31.999Z</time></trkpt><trkpt lat="43.432152677171935" lon="11.418769909906652"><ele>304.0</ele><time>2026-04-11T07:34:32.999Z</time></trkpt><trkpt lat="43.43210049003509" lon="11.418692470499337"><ele>304.0</ele><time>2026-04-11T07:34:33.999Z</time></trkpt><trkpt lat="43.43205044950747" lon="11.418621343658069"><ele>304.0</ele><time>2026-04-11T07:34:34.999Z</time></trkpt><trkpt lat="43.43200307570322" lon="11.418548322544666"><ele>304.0</ele><time>2026-04-11T07:34:35.999Z</time></trkpt><trkpt lat="43.431953292323875" lon="11.418474617850038"><ele>304.0</ele><time>2026-04-11T07:34:36.999Z</time></trkpt><trkpt lat="43.43190242489312" lon="11.418405854947313"><ele>303.2857142857143</ele><time>2026-04-11T07:34:37.999Z</time></trkpt><trkpt lat="43.4318511909055" lon="11.418326796332543"><ele>302.5714285714286</ele><time>2026-04-11T07:34:38.999Z</time></trkpt><trkpt lat="43.4317996845127" lon="11.4182490163983"><ele>301.8571428571429</ele><time>2026-04-11T07:34:39.999Z</time></trkpt><trkpt lat="43.431748568204696" lon="11.418173755265817"><ele>301.1428571428571</ele><time>2026-04-11T07:34:40.999Z</time></trkpt><trkpt lat="43.4316999744824" lon="11.418105713322905"><ele>300.42857142857144</ele><time>2026-04-11T07:34:41.999Z</time></trkpt><trkpt lat="43.43164452398132" lon="11.418032697630004"><ele>299.7142857142857</ele><time>2026-04-11T07:34:42.999Z</time></trkpt><trkpt lat="43.43159861759562" lon="11.417965352344627"><ele>299.0</ele><time>2026-04-11T07:34:43.999Z</time></trkpt><trkpt lat="43.43154659529245" lon="11.417896340459633"><ele>299.33333333333337</ele><time>2026-04-11T07:34:44.999Z</time></trkpt><trkpt lat="43.431500398850375" lon="11.417827440583732"><ele>299.6666666666667</ele><time>2026-04-11T07:34:45.999Z</time></trkpt><trkpt lat="43.43145439987602" lon="11.41775540747876"><ele>300.0</ele><time>2026-04-11T07:34:46.999Z</time></trkpt><trkpt lat="43.431408561256426" lon="11.417690089953613"><ele>300.3333333333333</ele><time>2026-04-11T07:34:47.999Z</time></trkpt><trkpt lat="43.43135933611495" lon="11.417629520052023"><ele>300.66666666666663</ele><time>2026-04-11T07:34:48.999Z</time></trkpt><trkpt lat="43.43129871910429" lon="11.417506634868879"><ele>301.0</ele><time>2026-04-11T07:34:50.999Z</time></trkpt><trkpt lat="43.4311685003959" lon="11.417618677761515"><ele>301.0</ele><time>2026-04-11T07:34:51.999Z</time></trkpt><trkpt lat="43.43110687983852" lon="11.417659573916414"><ele>301.0</ele><time>2026-04-11T07:34:52.999Z</time></trkpt><trkpt lat="43.431050320936585" lon="11.417708133256145"><ele>301.0</ele><time>2026-04-11T07:34:53.999Z</time></trkpt><trkpt lat="43.430990564637895" lon="11.417753094553692"><ele>301.0</ele><time>2026-04-11T07:34:54.999Z</time></trkpt><trkpt lat="43.43092859346312" lon="11.41779308487124"><ele>301.0</ele><time>2026-04-11T07:34:55.999Z</time></trkpt><trkpt lat="43.43086931599548" lon="11.41783985803091"><ele>301.0</ele><time>2026-04-11T07:34:56.999Z</time></trkpt><trkpt lat="43.43081039197344" lon="11.4178891579979"><ele>301.0</ele><time>2026-04-11T07:34:57.999Z</time></trkpt><trkpt lat="43.430750745722925" lon="11.417929924548798"><ele>301.0</ele><time>2026-04-11T07:34:58.999Z</time></trkpt><trkpt lat="43.43068974228605" lon="11.417971861383874"><ele>301.0</ele><time>2026-04-11T07:34:59.999Z</time></trkpt><trkpt lat="43.430632355642196" lon="11.418008818741905"><ele>301.0</ele><time>2026-04-11T07:35:00.999Z</time></trkpt><trkpt lat="43.43057438478867" lon="11.418051058969242"><ele>301.0</ele><time>2026-04-11T07:35:01.999Z</time></trkpt><trkpt lat="43.43046222420343" lon="11.418129535555023"><ele>301.0</ele><time>2026-04-11T07:35:03.999Z</time></trkpt><trkpt lat="43.43040542702951" lon="11.418169971465165"><ele>301.0</ele><time>2026-04-11T07:35:04.999Z</time></trkpt><trkpt lat="43.430348106180716" lon="11.418213860338463"><ele>301.14285714285717</ele><time>2026-04-11T07:35:05.999Z</time></trkpt><trkpt lat="43.43029143487218" lon="11.41825804088094"><ele>301.2857142857143</ele><time>2026-04-11T07:35:06.999Z</time></trkpt><trkpt lat="43.430232419992336" lon="11.418298475467177"><ele>301.42857142857144</ele><time>2026-04-11T07:35:07.999Z</time></trkpt><trkpt lat="43.43017262562877" lon="11.418338309325838"><ele>301.57142857142856</ele><time>2026-04-11T07:35:08.999Z</time></trkpt><trkpt lat="43.430117469352545" lon="11.418389731938138"><ele>301.7142857142857</ele><time>2026-04-11T07:35:09.999Z</time></trkpt><trkpt lat="43.43005894319722" lon="11.418433149299112"><ele>301.8571428571429</ele><time>2026-04-11T07:35:10.999Z</time></trkpt><trkpt lat="43.42999913540475" lon="11.418477031903594"><ele>302.0</ele><time>2026-04-11T07:35:11.999Z</time></trkpt><trkpt lat="43.42994072222588" lon="11.418514990343192"><ele>302.00000000000006</ele><time>2026-04-11T07:35:12.999Z</time></trkpt><trkpt lat="43.42988469011727" lon="11.418559561731396"><ele>302.0</ele><time>2026-04-11T07:35:13.999Z</time></trkpt><trkpt lat="43.429826039972134" lon="11.418606347583443"><ele>302.0</ele><time>2026-04-11T07:35:14.999Z</time></trkpt><trkpt lat="43.429766364039544" lon="11.418647447588548"><ele>302.0</ele><time>2026-04-11T07:35:15.999Z</time></trkpt><trkpt lat="43.429706138737124" lon="11.418687991054357"><ele>302.0</ele><time>2026-04-11T07:35:17Z</time></trkpt><trkpt lat="43.42964707316004" lon="11.418726310775966"><ele>302.00000000000006</ele><time>2026-04-11T07:35:18Z</time></trkpt><trkpt lat="43.429591797447635" lon="11.418767925507522"><ele>302.0</ele><time>2026-04-11T07:35:19Z</time></trkpt><trkpt lat="43.42948200897639" lon="11.418844157046019"><ele>303.6</ele><time>2026-04-11T07:35:21Z</time></trkpt><trkpt lat="43.42937901377879" lon="11.418909155775218"><ele>305.2</ele><time>2026-04-11T07:35:23Z</time></trkpt><trkpt lat="43.42927728893204" lon="11.41896721740919"><ele>306.8</ele><time>2026-04-11T07:35:25Z</time></trkpt><trkpt lat="43.429178785560744" lon="11.419018157215037"><ele>308.4</ele><time>2026-04-11T07:35:27Z</time></trkpt><trkpt lat="43.42908317630562" lon="11.419059965195547"><ele>310.0</ele><time>2026-04-11T07:35:29Z</time></trkpt><trkpt lat="43.42897511252972" lon="11.419081342667901"><ele>310.0</ele><time>2026-04-11T07:35:32Z</time></trkpt><trkpt lat="43.42889534134845" lon="11.419107564704428"><ele>310.0</ele><time>2026-04-11T07:35:34Z</time></trkpt><trkpt lat="43.42882720985147" lon="11.41911683994805"><ele>310.0</ele><time>2026-04-11T07:35:36Z</time></trkpt><trkpt lat="43.42875418356974" lon="11.419137198971098"><ele>310.0</ele><time>2026-04-11T07:35:37Z</time></trkpt><trkpt lat="43.42866006590093" lon="11.419164200931538"><ele>310.0</ele><time>2026-04-11T07:35:39Z</time></trkpt><trkpt lat="43.42856304205826" lon="11.419196616004749"><ele>310.0</ele><time>2026-04-11T07:35:41Z</time></trkpt><trkpt lat="43.428476948630596" lon="11.419242350110093"><ele>310.16666666666663</ele><time>2026-04-11T07:35:43Z</time></trkpt><trkpt lat="43.428391478722354" lon="11.419289868702027"><ele>310.3333333333333</ele><time>2026-04-11T07:35:44.999Z</time></trkpt><trkpt lat="43.42831291973333" lon="11.419338320026993"><ele>310.5</ele><time>2026-04-11T07:35:46.999Z</time></trkpt><trkpt lat="43.428242033444064" lon="11.419410842556115"><ele>310.6666666666667</ele><time>2026-04-11T07:35:48.999Z</time></trkpt><trkpt lat="43.428167629941655" lon="11.419471286992591"><ele>310.83333333333337</ele><time>2026-04-11T07:35:50.999Z</time></trkpt><trkpt lat="43.428099199821034" lon="11.419541212202844"><ele>311.0</ele><time>2026-04-11T07:35:52.999Z</time></trkpt><trkpt lat="43.4280346488873" lon="11.419625035293045"><ele>311.33333333333337</ele><time>2026-04-11T07:35:54.999Z</time></trkpt><trkpt lat="43.427976631316085" lon="11.419688327683604"><ele>311.6666666666667</ele><time>2026-04-11T07:35:56.999Z</time></trkpt><trkpt lat="43.42791587734801" lon="11.419776066390009"><ele>312.0</ele><time>2026-04-11T07:35:58.999Z</time></trkpt><trkpt lat="43.42786300191652" lon="11.419862016122199"><ele>312.3333333333333</ele><time>2026-04-11T07:36:00.999Z</time></trkpt><trkpt lat="43.42780914516312" lon="11.419951022273251"><ele>312.66666666666663</ele><time>2026-04-11T07:36:02.999Z</time></trkpt><trkpt lat="43.427750627418135" lon="11.420062556145254"><ele>313.0</ele><time>2026-04-11T07:36:04.999Z</time></trkpt><trkpt lat="43.42771062603671" lon="11.420177003046236"><ele>313.0</ele><time>2026-04-11T07:36:06.999Z</time></trkpt><trkpt lat="43.42768776157688" lon="11.42029457457856"><ele>313.0</ele><time>2026-04-11T07:36:08.999Z</time></trkpt><trkpt lat="43.4276947706417" lon="11.420410993531673"><ele>313.0</ele><time>2026-04-11T07:36:10.999Z</time></trkpt><trkpt lat="43.42771903441398" lon="11.420520074555029"><ele>313.0</ele><time>2026-04-11T07:36:12.999Z</time></trkpt><trkpt lat="43.4277444242335" lon="11.420637140466496"><ele>313.0</ele><time>2026-04-11T07:36:14.999Z</time></trkpt><trkpt lat="43.42777035662831" lon="11.420780540046565"><ele>312.66666666666663</ele><time>2026-04-11T07:36:17.999Z</time></trkpt><trkpt lat="43.42778812191444" lon="11.420878806350313"><ele>312.3333333333333</ele><time>2026-04-11T07:36:18.999Z</time></trkpt><trkpt lat="43.427799220126104" lon="11.420981924994486"><ele>312.0</ele><time>2026-04-11T07:36:20.999Z</time></trkpt><trkpt lat="43.42780813591071" lon="11.421083275651231"><ele>311.6666666666667</ele><time>2026-04-11T07:36:22.999Z</time></trkpt><trkpt lat="43.42782145442185" lon="11.421199149743536"><ele>311.33333333333337</ele><time>2026-04-11T07:36:24.999Z</time></trkpt><trkpt lat="43.42782102657333" lon="11.421295024979882"><ele>311.0</ele><time>2026-04-11T07:36:26.999Z</time></trkpt><trkpt lat="43.42782118797112" lon="11.42141568133466"><ele>310.85714285714283</ele><time>2026-04-11T07:36:28.999Z</time></trkpt><trkpt lat="43.427813273329804" lon="11.42151737794591"><ele>310.7142857142857</ele><time>2026-04-11T07:36:30.999Z</time></trkpt><trkpt lat="43.427811535116" lon="11.42160508875606"><ele>310.57142857142856</ele><time>2026-04-11T07:36:31.999Z</time></trkpt><trkpt lat="43.427810208837805" lon="11.421707614054782"><ele>310.42857142857144</ele><time>2026-04-11T07:36:33.999Z</time></trkpt><trkpt lat="43.427788319099726" lon="11.421822263715175"><ele>310.2857142857143</ele><time>2026-04-11T07:36:35.999Z</time></trkpt><trkpt lat="43.427769104196514" lon="11.421915921851708"><ele>310.14285714285717</ele><time>2026-04-11T07:36:37.999Z</time></trkpt><trkpt lat="43.42774660121843" lon="11.422019354986732"><ele>310.0</ele><time>2026-04-11T07:36:39.999Z</time></trkpt><trkpt lat="43.42771692878891" lon="11.4221438310928"><ele>311.3333333333333</ele><time>2026-04-11T07:36:41.999Z</time></trkpt><trkpt lat="43.42767320710342" lon="11.422233490019282"><ele>312.66666666666663</ele><time>2026-04-11T07:36:42.999Z</time></trkpt><trkpt lat="43.42764274690171" lon="11.422326439718058"><ele>314.0</ele><time>2026-04-11T07:36:44.999Z</time></trkpt><trkpt lat="43.4275953673583" lon="11.422419580301858"><ele>315.3333333333333</ele><time>2026-04-11T07:36:46.999Z</time></trkpt><trkpt lat="43.42755417690983" lon="11.422510641494604"><ele>316.6666666666667</ele><time>2026-04-11T07:36:48.999Z</time></trkpt><trkpt lat="43.42749310794021" lon="11.422583842947116"><ele>318.0</ele><time>2026-04-11T07:36:50.999Z</time></trkpt><trkpt lat="43.427416282448135" lon="11.422639450540778"><ele>318.0</ele><time>2026-04-11T07:36:52.999Z</time></trkpt><trkpt lat="43.42733241138703" lon="11.422669420839146"><ele>318.0</ele><time>2026-04-11T07:36:54.999Z</time></trkpt><trkpt lat="43.427251720959944" lon="11.422695333795371"><ele>318.0</ele><time>2026-04-11T07:36:56.999Z</time></trkpt><trkpt lat="43.427170687475865" lon="11.42272142861644"><ele>318.0</ele><time>2026-04-11T07:36:58.999Z</time></trkpt><trkpt lat="43.427101052427865" lon="11.422734232432758"><ele>318.0</ele><time>2026-04-11T07:37:01.999Z</time></trkpt><trkpt lat="43.42699063340736" lon="11.422753275788494"><ele>318.0</ele><time>2026-04-11T07:37:03.999Z</time></trkpt><trkpt lat="43.42691445460292" lon="11.422774441616255"><ele>317.2</ele><time>2026-04-11T07:37:05.999Z</time></trkpt><trkpt lat="43.42680890990776" lon="11.42279585969093"><ele>316.4</ele><time>2026-04-11T07:37:08.999Z</time></trkpt><trkpt lat="43.42674664639049" lon="11.422811394277161"><ele>315.59999999999997</ele><time>2026-04-11T07:37:10.999Z</time></trkpt><trkpt lat="43.42663607596112" lon="11.422846950090948"><ele>314.8</ele><time>2026-04-11T07:37:13.999Z</time></trkpt><trkpt lat="43.42655203768354" lon="11.422870332421152"><ele>314.0</ele><time>2026-04-11T07:37:15.999Z</time></trkpt><trkpt lat="43.426464136530186" lon="11.422895456665469"><ele>314.0</ele><time>2026-04-11T07:37:17.999Z</time></trkpt><trkpt lat="43.426388549247974" lon="11.42292530762227"><ele>314.0</ele><time>2026-04-11T07:37:19.999Z</time></trkpt><trkpt lat="43.42630494246826" lon="11.42297506053432"><ele>314.0</ele><time>2026-04-11T07:37:23Z</time></trkpt><trkpt lat="43.42624347091594" lon="11.423031614057802"><ele>314.0</ele><time>2026-04-11T07:37:25Z</time></trkpt><trkpt lat="43.4261878244542" lon="11.423113424765008"><ele>314.0</ele><time>2026-04-11T07:37:27Z</time></trkpt><trkpt lat="43.42614911918134" lon="11.423208495373249"><ele>314.0</ele><time>2026-04-11T07:37:29Z</time></trkpt><trkpt lat="43.42613517916454" lon="11.423312220012853"><ele>314.2</ele><time>2026-04-11T07:37:31Z</time></trkpt><trkpt lat="43.42613775389545" lon="11.423412604200177"><ele>314.4</ele><time>2026-04-11T07:37:33Z</time></trkpt><trkpt lat="43.42616402485" lon="11.423544369945715"><ele>314.6</ele><time>2026-04-11T07:37:34Z</time></trkpt><trkpt lat="43.42620124270196" lon="11.423707702172392"><ele>314.8</ele><time>2026-04-11T07:37:37Z</time></trkpt><trkpt lat="43.42623460810132" lon="11.423822957746287"><ele>315.0</ele><time>2026-04-11T07:37:39Z</time></trkpt><trkpt lat="43.4262646706502" lon="11.423942183785147"><ele>315.5</ele><time>2026-04-11T07:37:41Z</time></trkpt><trkpt lat="43.42628931653968" lon="11.42405652424393"><ele>316.0</ele><time>2026-04-11T07:37:43Z</time></trkpt><trkpt lat="43.426319429378026" lon="11.424172331710738"><ele>316.5</ele><time>2026-04-11T07:37:45Z</time></trkpt><trkpt lat="43.42634326880492" lon="11.424291036409475"><ele>317.0</ele><time>2026-04-11T07:37:47Z</time></trkpt><trkpt lat="43.426372233607026" lon="11.424406477891333"><ele>317.5</ele><time>2026-04-11T07:37:49Z</time></trkpt><trkpt lat="43.42639158952673" lon="11.424528852483693"><ele>318.0</ele><time>2026-04-11T07:37:51Z</time></trkpt><trkpt lat="43.42641933282268" lon="11.424648147026092"><ele>319.8333333333333</ele><time>2026-04-11T07:37:52.999Z</time></trkpt><trkpt lat="43.426439503900596" lon="11.424767108572045"><ele>321.6666666666667</ele><time>2026-04-11T07:37:54.999Z</time></trkpt><trkpt lat="43.4264560119492" lon="11.424871872159354"><ele>323.5</ele><time>2026-04-11T07:37:56.999Z</time></trkpt><trkpt lat="43.426481983786516" lon="11.42499346599348"><ele>325.33333333333337</ele><time>2026-04-11T07:37:58.999Z</time></trkpt><trkpt lat="43.42650661509859" lon="11.425108319037259"><ele>327.1666666666667</ele><time>2026-04-11T07:38:00.999Z</time></trkpt><trkpt lat="43.426530108507094" lon="11.425227888783894"><ele>329.0</ele><time>2026-04-11T07:38:02.999Z</time></trkpt><trkpt lat="43.42654829573704" lon="11.425353096285573"><ele>329.2</ele><time>2026-04-11T07:38:04.999Z</time></trkpt><trkpt lat="43.42654883350647" lon="11.425484369791477"><ele>329.4</ele><time>2026-04-11T07:38:06.999Z</time></trkpt><trkpt lat="43.426539136231035" lon="11.425611793473431"><ele>329.6</ele><time>2026-04-11T07:38:08.999Z</time></trkpt><trkpt lat="43.42652829912576" lon="11.425734839281104"><ele>329.8</ele><time>2026-04-11T07:38:10.999Z</time></trkpt><trkpt lat="43.42651985935617" lon="11.425859782795118"><ele>330.0</ele><time>2026-04-11T07:38:12.999Z</time></trkpt><trkpt lat="43.42650151553178" lon="11.426013524550068"><ele>330.0</ele><time>2026-04-11T07:38:15.999Z</time></trkpt><trkpt lat="43.42647591297618" lon="11.426268021013106"><ele>330.0</ele><time>2026-04-11T07:38:18.999Z</time></trkpt><trkpt lat="43.42645060895751" lon="11.426394204664057"><ele>330.0</ele><time>2026-04-11T07:38:20.999Z</time></trkpt><trkpt lat="43.42642274437815" lon="11.426515379633088"><ele>330.0</ele><time>2026-04-11T07:38:22.999Z</time></trkpt><trkpt lat="43.4263928088727" lon="11.426638381165565"><ele>330.2</ele><time>2026-04-11T07:38:24.999Z</time></trkpt><trkpt lat="43.42635357556321" lon="11.426756531323242"><ele>330.4</ele><time>2026-04-11T07:38:26.999Z</time></trkpt><trkpt lat="43.426313760157015" lon="11.426890179397114"><ele>330.6</ele><time>2026-04-11T07:38:28.999Z</time></trkpt><trkpt lat="43.426256990340676" lon="11.426999674023287"><ele>330.8</ele><time>2026-04-11T07:38:30.999Z</time></trkpt><trkpt lat="43.4261948527399" lon="11.427105503722307"><ele>331.0</ele><time>2026-04-11T07:38:32.999Z</time></trkpt><trkpt lat="43.42612765031384" lon="11.427193444034094"><ele>330.20000000000005</ele><time>2026-04-11T07:38:34.999Z</time></trkpt><trkpt lat="43.42603190787715" lon="11.42730527782126"><ele>329.40000000000003</ele><time>2026-04-11T07:38:36.999Z</time></trkpt><trkpt lat="43.42597405961873" lon="11.427376651573006"><ele>328.6</ele><time>2026-04-11T07:38:38.999Z</time></trkpt><trkpt lat="43.425919688883596" lon="11.427479365343341"><ele>327.8</ele><time>2026-04-11T07:38:40.999Z</time></trkpt><trkpt lat="43.425885764949115" lon="11.427593021849209"><ele>327.0</ele><time>2026-04-11T07:38:42.999Z</time></trkpt><trkpt lat="43.425878216470274" lon="11.427719193585032"><ele>327.0</ele><time>2026-04-11T07:38:44.999Z</time></trkpt><trkpt lat="43.425881622780516" lon="11.427844986833211"><ele>327.0</ele><time>2026-04-11T07:38:46.999Z</time></trkpt><trkpt lat="43.425884767458655" lon="11.427975409517343"><ele>327.0</ele><time>2026-04-11T07:38:48.999Z</time></trkpt><trkpt lat="43.425887139948756" lon="11.428107915335236"><ele>327.0</ele><time>2026-04-11T07:38:50.999Z</time></trkpt><trkpt lat="43.4258914075176" lon="11.428238824329815"><ele>327.0</ele><time>2026-04-11T07:38:52.999Z</time></trkpt><trkpt lat="43.425890233927596" lon="11.428370731518493"><ele>327.20000000000005</ele><time>2026-04-11T07:38:54.999Z</time></trkpt><trkpt lat="43.42589243993645" lon="11.428495581032841"><ele>327.4</ele><time>2026-04-11T07:38:56.999Z</time></trkpt><trkpt lat="43.42589340287946" lon="11.428620455889313"><ele>327.6</ele><time>2026-04-11T07:38:58.999Z</time></trkpt><trkpt lat="43.42589583021765" lon="11.42874263799959"><ele>327.79999999999995</ele><time>2026-04-11T07:39:00.999Z</time></trkpt><trkpt lat="43.42589712008041" lon="11.428872034562163"><ele>328.0</ele><time>2026-04-11T07:39:02.999Z</time></trkpt><trkpt lat="43.425896977265054" lon="11.4289988149355"><ele>328.79999999999995</ele><time>2026-04-11T07:39:04.999Z</time></trkpt><trkpt lat="43.425897383496626" lon="11.429123503096053"><ele>329.6</ele><time>2026-04-11T07:39:06.999Z</time></trkpt><trkpt lat="43.42589666510498" lon="11.429253062468666"><ele>330.4</ele><time>2026-04-11T07:39:08.999Z</time></trkpt><trkpt lat="43.42589731186952" lon="11.429381497670597"><ele>331.20000000000005</ele><time>2026-04-11T07:39:10.999Z</time></trkpt><trkpt lat="43.425893451552305" lon="11.429508785816882"><ele>332.0</ele><time>2026-04-11T07:39:12.999Z</time></trkpt><trkpt lat="43.42589741473656" lon="11.429638476246906"><ele>332.0</ele><time>2026-04-11T07:39:14.999Z</time></trkpt><trkpt lat="43.42589921523226" lon="11.42977020286902"><ele>332.0</ele><time>2026-04-11T07:39:16.999Z</time></trkpt><trkpt lat="43.425898594124384" lon="11.42990301103515"><ele>332.0</ele><time>2026-04-11T07:39:18.999Z</time></trkpt><trkpt lat="43.4258973550311" lon="11.430037436342207"><ele>332.0</ele><time>2026-04-11T07:39:20.999Z</time></trkpt><trkpt lat="43.42590039754477" lon="11.430161788766984"><ele>332.0</ele><time>2026-04-11T07:39:22.999Z</time></trkpt><trkpt lat="43.42588904744632" lon="11.43028538737749"><ele>332.0</ele><time>2026-04-11T07:39:24.999Z</time></trkpt><trkpt lat="43.425874199560056" lon="11.430408560767106"><ele>332.0</ele><time>2026-04-11T07:39:26.999Z</time></trkpt><trkpt lat="43.425846105051406" lon="11.430532114359057"><ele>332.0</ele><time>2026-04-11T07:39:29Z</time></trkpt><trkpt lat="43.4258120196033" lon="11.430652882918272"><ele>332.0</ele><time>2026-04-11T07:39:31Z</time></trkpt><trkpt lat="43.42577458170513" lon="11.430764988427821"><ele>332.0</ele><time>2026-04-11T07:39:33Z</time></trkpt><trkpt lat="43.42573156500854" lon="11.430875736068726"><ele>332.40000000000003</ele><time>2026-04-11T07:39:35Z</time></trkpt><trkpt lat="43.42569085430966" lon="11.430992611727559"><ele>332.8</ele><time>2026-04-11T07:39:37Z</time></trkpt><trkpt lat="43.42565424618079" lon="11.431118056333306"><ele>333.2</ele><time>2026-04-11T07:39:39Z</time></trkpt><trkpt lat="43.42560775743028" lon="11.431234766816756"><ele>333.6</ele><time>2026-04-11T07:39:41Z</time></trkpt><trkpt lat="43.42554883916132" lon="11.431417107086059"><ele>334.0</ele><time>2026-04-11T07:39:44Z</time></trkpt><trkpt lat="43.425503026817424" lon="11.431537191606548"><ele>335.79999999999995</ele><time>2026-04-11T07:39:46Z</time></trkpt><trkpt lat="43.42546107838029" lon="11.431655843352052"><ele>337.59999999999997</ele><time>2026-04-11T07:39:48Z</time></trkpt><trkpt lat="43.42542398803309" lon="11.431778809898427"><ele>339.4</ele><time>2026-04-11T07:39:50Z</time></trkpt><trkpt lat="43.42538291903256" lon="11.431890416924936"><ele>341.2</ele><time>2026-04-11T07:39:52Z</time></trkpt><trkpt lat="43.4253427168389" lon="11.431999959592533"><ele>343.0</ele><time>2026-04-11T07:39:54Z</time></trkpt><trkpt lat="43.4253003168009" lon="11.432107057377902"><ele>342.4</ele><time>2026-04-11T07:39:55.999Z</time></trkpt><trkpt lat="43.4252421419949" lon="11.43219916092211"><ele>341.79999999999995</ele><time>2026-04-11T07:39:57.999Z</time></trkpt><trkpt lat="43.4251411670665" lon="11.432219193285238"><ele>341.2</ele><time>2026-04-11T07:39:59.999Z</time></trkpt><trkpt lat="43.425047801160794" lon="11.432259011001504"><ele>340.6</ele><time>2026-04-11T07:40:01.999Z</time></trkpt><trkpt lat="43.42495206881749" lon="11.432338281127919"><ele>340.0</ele><time>2026-04-11T07:40:03.999Z</time></trkpt><trkpt lat="43.424910148809715" lon="11.432450840629983"><ele>340.0</ele><time>2026-04-11T07:40:05.999Z</time></trkpt><trkpt lat="43.4248721767385" lon="11.43255826635101"><ele>340.0</ele><time>2026-04-11T07:40:07.999Z</time></trkpt><trkpt lat="43.42483006847423" lon="11.432666083232988"><ele>340.0</ele><time>2026-04-11T07:40:09.999Z</time></trkpt><trkpt lat="43.424789669223216" lon="11.432772325106056"><ele>340.0</ele><time>2026-04-11T07:40:11.999Z</time></trkpt><trkpt lat="43.42474860821044" lon="11.432870542926475"><ele>340.0</ele><time>2026-04-11T07:40:13.999Z</time></trkpt><trkpt lat="43.42471535023729" lon="11.432972937248891"><ele>340.0</ele><time>2026-04-11T07:40:15.999Z</time></trkpt><trkpt lat="43.4246770485339" lon="11.433069962232965"><ele>344.8</ele><time>2026-04-11T07:40:17.999Z</time></trkpt><trkpt lat="43.42463678281166" lon="11.433165847933267"><ele>349.6</ele><time>2026-04-11T07:40:19.999Z</time></trkpt><trkpt lat="43.42460199795854" lon="11.433258642181817"><ele>354.4</ele><time>2026-04-11T07:40:21.999Z</time></trkpt><trkpt lat="43.424562434422" lon="11.433355021192133"><ele>359.2</ele><time>2026-04-11T07:40:23.999Z</time></trkpt><trkpt lat="43.4245352427344" lon="11.43344683180477"><ele>364.0</ele><time>2026-04-11T07:40:26.999Z</time></trkpt><trkpt lat="43.42447448807015" lon="11.433631116366012"><ele>364.0</ele><time>2026-04-11T07:40:29.999Z</time></trkpt><trkpt lat="43.42444354454864" lon="11.433718722354339"><ele>364.0</ele><time>2026-04-11T07:40:31.999Z</time></trkpt><trkpt lat="43.424421317740176" lon="11.433809315425474"><ele>364.0</ele><time>2026-04-11T07:40:33.999Z</time></trkpt><trkpt lat="43.424398142530755" lon="11.433905058845212"><ele>364.0</ele><time>2026-04-11T07:40:35.999Z</time></trkpt><trkpt lat="43.42438796422569" lon="11.433999554359497"><ele>364.0</ele><time>2026-04-11T07:40:37.999Z</time></trkpt><trkpt lat="43.424377395180386" lon="11.434097203978803"><ele>364.0</ele><time>2026-04-11T07:40:39.999Z</time></trkpt><trkpt lat="43.42436034006077" lon="11.434224637361446"><ele>364.0</ele><time>2026-04-11T07:40:42.999Z</time></trkpt><trkpt lat="43.42435351065713" lon="11.43431092078971"><ele>361.4</ele><time>2026-04-11T07:40:44.999Z</time></trkpt><trkpt lat="43.42434740990297" lon="11.434401324588055"><ele>358.79999999999995</ele><time>2026-04-11T07:40:46.999Z</time></trkpt><trkpt lat="43.42432867351582" lon="11.434519008660516"><ele>356.20000000000005</ele><time>2026-04-11T07:40:49.999Z</time></trkpt><trkpt lat="43.42435364139174" lon="11.434604390490163"><ele>353.6</ele><time>2026-04-11T07:40:51.999Z</time></trkpt><trkpt lat="43.4244256197507" lon="11.434797515986203"><ele>351.0</ele><time>2026-04-11T07:40:54.999Z</time></trkpt><trkpt lat="43.424467915927565" lon="11.434884537238254"><ele>350.6666666666667</ele><time>2026-04-11T07:40:56.999Z</time></trkpt><trkpt lat="43.42452915106233" lon="11.434960161071807"><ele>350.3333333333333</ele><time>2026-04-11T07:40:58.999Z</time></trkpt><trkpt lat="43.42459731277319" lon="11.43502620576643"><ele>350.0</ele><time>2026-04-11T07:41:00.999Z</time></trkpt><trkpt lat="43.42467209829149" lon="11.435074818528854"><ele>349.66666666666663</ele><time>2026-04-11T07:41:02.999Z</time></trkpt><trkpt lat="43.42473676949484" lon="11.435129589658112"><ele>349.3333333333333</ele><time>2026-04-11T07:41:04.999Z</time></trkpt><trkpt lat="43.42480491575607" lon="11.435174159794661"><ele>349.0</ele><time>2026-04-11T07:41:06.999Z</time></trkpt><trkpt lat="43.424871851130575" lon="11.435219523415988"><ele>349.4285714285714</ele><time>2026-04-11T07:41:08.999Z</time></trkpt><trkpt lat="43.42493493798779" lon="11.435262475018245"><ele>349.85714285714283</ele><time>2026-04-11T07:41:10.999Z</time></trkpt><trkpt lat="43.42500466864967" lon="11.435298595443385"><ele>350.2857142857143</ele><time>2026-04-11T07:41:12.999Z</time></trkpt><trkpt lat="43.42506507917072" lon="11.435326295103003"><ele>350.71428571428567</ele><time>2026-04-11T07:41:14.999Z</time></trkpt><trkpt lat="43.42511470738537" lon="11.435380166012783"><ele>351.1428571428571</ele><time>2026-04-11T07:41:16.999Z</time></trkpt><trkpt lat="43.425174932840996" lon="11.435433074824294"><ele>351.57142857142856</ele><time>2026-04-11T07:41:18.999Z</time></trkpt><trkpt lat="43.42522942706686" lon="11.435487948073868"><ele>352.0</ele><time>2026-04-11T07:41:20.999Z</time></trkpt><trkpt lat="43.42528387056937" lon="11.435552637887596"><ele>352.0</ele><time>2026-04-11T07:41:22.999Z</time></trkpt><trkpt lat="43.42532122415828" lon="11.435633126996239"><ele>352.0</ele><time>2026-04-11T07:41:24.999Z</time></trkpt><trkpt lat="43.42533678225947" lon="11.435731916525247"><ele>352.0</ele><time>2026-04-11T07:41:26.999Z</time></trkpt><trkpt lat="43.42532923502934" lon="11.435824784238491"><ele>352.0</ele><time>2026-04-11T07:41:28.999Z</time></trkpt><trkpt lat="43.42528489408153" lon="11.435909277324997"><ele>352.0</ele><time>2026-04-11T07:41:30.999Z</time></trkpt><trkpt lat="43.42523235893204" lon="11.435989383741694"><ele>352.0</ele><time>2026-04-11T07:41:33.998Z</time></trkpt><trkpt lat="43.425188089864825" lon="11.43605245182578"><ele>352.0</ele><time>2026-04-11T07:41:36Z</time></trkpt><trkpt lat="43.425141733093696" lon="11.436123851725275"><ele>352.0</ele><time>2026-04-11T07:41:38Z</time></trkpt><trkpt lat="43.425104345177466" lon="11.436198961610538"><ele>352.0</ele><time>2026-04-11T07:41:40Z</time></trkpt><trkpt lat="43.42507082851824" lon="11.436278349680128"><ele>352.0</ele><time>2026-04-11T07:41:42Z</time></trkpt><trkpt lat="43.4250426481075" lon="11.436357221241995"><ele>352.0</ele><time>2026-04-11T07:41:44Z</time></trkpt><trkpt lat="43.42500756995014" lon="11.436478650532347"><ele>352.0</ele><time>2026-04-11T07:41:47Z</time></trkpt><trkpt lat="43.424987356080116" lon="11.436569460820843"><ele>352.0</ele><time>2026-04-11T07:41:49Z</time></trkpt><trkpt lat="43.424969643099004" lon="11.436658328169667"><ele>352.0</ele><time>2026-04-11T07:41:51Z</time></trkpt><trkpt lat="43.424960198600644" lon="11.43674436366904"><ele>352.42857142857144</ele><time>2026-04-11T07:41:53Z</time></trkpt><trkpt lat="43.42495129946032" lon="11.43686627234105"><ele>352.85714285714283</ele><time>2026-04-11T07:41:56Z</time></trkpt><trkpt lat="43.42494495362871" lon="11.436994398251604"><ele>353.2857142857143</ele><time>2026-04-11T07:41:59Z</time></trkpt><trkpt lat="43.424943574976936" lon="11.437081434914836"><ele>353.7142857142857</ele><time>2026-04-11T07:42:00.999Z</time></trkpt><trkpt lat="43.42493687153813" lon="11.437179325131126"><ele>354.14285714285717</ele><time>2026-04-11T07:42:02.999Z</time></trkpt><trkpt lat="43.424937317533264" lon="11.437269959321927"><ele>354.57142857142856</ele><time>2026-04-11T07:42:04.999Z</time></trkpt><trkpt lat="43.424936650936665" lon="11.43735862682921"><ele>355.0</ele><time>2026-04-11T07:42:06.999Z</time></trkpt><trkpt lat="43.42494412698591" lon="11.43749197936171"><ele>355.0</ele><time>2026-04-11T07:42:08.999Z</time></trkpt><trkpt lat="43.42495123644586" lon="11.437594198355704"><ele>355.0</ele><time>2026-04-11T07:42:10.999Z</time></trkpt><trkpt lat="43.42496621667576" lon="11.43770053656097"><ele>355.0</ele><time>2026-04-11T07:42:12.999Z</time></trkpt><trkpt lat="43.424983613823656" lon="11.437804226499454"><ele>355.0</ele><time>2026-04-11T07:42:14.999Z</time></trkpt><trkpt lat="43.42500114584905" lon="11.437901438278221"><ele>355.0</ele><time>2026-04-11T07:42:16.999Z</time></trkpt><trkpt lat="43.4250173191426" lon="11.437996501043639"><ele>355.0</ele><time>2026-04-11T07:42:18.999Z</time></trkpt><trkpt lat="43.42503702987116" lon="11.438092132255784"><ele>355.0</ele><time>2026-04-11T07:42:20.999Z</time></trkpt><trkpt lat="43.42505512407541" lon="11.438185013837613"><ele>355.85714285714283</ele><time>2026-04-11T07:42:22.999Z</time></trkpt><trkpt lat="43.42508169288921" lon="11.43827630038223"><ele>356.7142857142857</ele><time>2026-04-11T07:42:24.999Z</time></trkpt><trkpt lat="43.425102360311264" lon="11.438365762970173"><ele>357.57142857142856</ele><time>2026-04-11T07:42:26.999Z</time></trkpt><trkpt lat="43.425122937098664" lon="11.438457100080988"><ele>358.42857142857144</ele><time>2026-04-11T07:42:28.999Z</time></trkpt><trkpt lat="43.42514263112318" lon="11.438548751885321"><ele>359.2857142857143</ele><time>2026-04-11T07:42:30.999Z</time></trkpt><trkpt lat="43.42516098928924" lon="11.438637535550559"><ele>360.14285714285717</ele><time>2026-04-11T07:42:32.999Z</time></trkpt><trkpt lat="43.425185590415616" lon="11.438722350191078"><ele>361.0</ele><time>2026-04-11T07:42:34.999Z</time></trkpt><trkpt lat="43.425207668545355" lon="11.438811044709594"><ele>360.14285714285717</ele><time>2026-04-11T07:42:36.999Z</time></trkpt><trkpt lat="43.42522811453144" lon="11.438896773099065"><ele>359.2857142857143</ele><time>2026-04-11T07:42:38.999Z</time></trkpt><trkpt lat="43.42524817205463" lon="11.43897950324258"><ele>358.42857142857144</ele><time>2026-04-11T07:42:40.999Z</time></trkpt><trkpt lat="43.42528504977822" lon="11.439111258378624"><ele>357.57142857142856</ele><time>2026-04-11T07:42:43.999Z</time></trkpt><trkpt lat="43.42532034615536" lon="11.439191187751101"><ele>356.7142857142857</ele><time>2026-04-11T07:42:45.999Z</time></trkpt><trkpt lat="43.425363253903306" lon="11.439261411212543"><ele>355.85714285714283</ele><time>2026-04-11T07:42:47.999Z</time></trkpt><trkpt lat="43.4254203060252" lon="11.439307456219112"><ele>355.0</ele><time>2026-04-11T07:42:49.999Z</time></trkpt><trkpt lat="43.425491362430634" lon="11.439332915235134"><ele>355.0</ele><time>2026-04-11T07:42:51.999Z</time></trkpt><trkpt lat="43.42556718389651" lon="11.439340055862143"><ele>355.0</ele><time>2026-04-11T07:42:53.999Z</time></trkpt><trkpt lat="43.42563612739632" lon="11.439334070224856"><ele>355.0</ele><time>2026-04-11T07:42:55.999Z</time></trkpt><trkpt lat="43.42572324057258" lon="11.439334007744886"><ele>355.0</ele><time>2026-04-11T07:42:57.999Z</time></trkpt><trkpt lat="43.425815968455005" lon="11.439336030546297"><ele>355.0</ele><time>2026-04-11T07:43:00.999Z</time></trkpt><trkpt lat="43.42588109266112" lon="11.439356931918303"><ele>355.0</ele><time>2026-04-11T07:43:02.999Z</time></trkpt><trkpt lat="43.425942459587915" lon="11.439406728621755"><ele>355.0</ele><time>2026-04-11T07:43:04.999Z</time></trkpt><trkpt lat="43.42599061807124" lon="11.439468248528907"><ele>355.0</ele><time>2026-04-11T07:43:06.999Z</time></trkpt><trkpt lat="43.426031016642" lon="11.439549112266075"><ele>355.0</ele><time>2026-04-11T07:43:08.999Z</time></trkpt><trkpt lat="43.42605915933523" lon="11.439639169229464"><ele>355.0</ele><time>2026-04-11T07:43:11.999Z</time></trkpt><trkpt lat="43.42607626840226" lon="11.43972265685868"><ele>355.0</ele><time>2026-04-11T07:43:13.999Z</time></trkpt><trkpt lat="43.42608356231384" lon="11.439851145698478"><ele>355.0</ele><time>2026-04-11T07:43:16.999Z</time></trkpt><trkpt lat="43.426088219203706" lon="11.439973176098333"><ele>356.0</ele><time>2026-04-11T07:43:19.999Z</time></trkpt><trkpt lat="43.42609793878752" lon="11.440097115015956"><ele>357.0</ele><time>2026-04-11T07:43:22.999Z</time></trkpt><trkpt lat="43.4260965683635" lon="11.440207956500826"><ele>358.0</ele><time>2026-04-11T07:43:24.999Z</time></trkpt><trkpt lat="43.426097403205354" lon="11.440308659801076"><ele>359.0</ele><time>2026-04-11T07:43:25.999Z</time></trkpt><trkpt lat="43.426107566254444" lon="11.440396745233173"><ele>360.0</ele><time>2026-04-11T07:43:27.999Z</time></trkpt><trkpt lat="43.42611430306953" lon="11.440494542442458"><ele>361.0</ele><time>2026-04-11T07:43:29.999Z</time></trkpt><trkpt lat="43.42611696988339" lon="11.44059268752507"><ele>361.7142857142857</ele><time>2026-04-11T07:43:31.999Z</time></trkpt><trkpt lat="43.42612147617258" lon="11.440692669520754"><ele>362.4285714285714</ele><time>2026-04-11T07:43:33.999Z</time></trkpt><trkpt lat="43.42612763377449" lon="11.440794971559788"><ele>363.1428571428571</ele><time>2026-04-11T07:43:35.999Z</time></trkpt><trkpt lat="43.426134369515125" lon="11.440883544661975"><ele>363.8571428571429</ele><time>2026-04-11T07:43:37.999Z</time></trkpt><trkpt lat="43.426140975171236" lon="11.44097547559978"><ele>364.57142857142856</ele><time>2026-04-11T07:43:39.999Z</time></trkpt><trkpt lat="43.42613785407404" lon="11.441071435382222"><ele>365.2857142857143</ele><time>2026-04-11T07:43:42Z</time></trkpt><trkpt lat="43.42612395924814" lon="11.441181724673427"><ele>366.0</ele><time>2026-04-11T07:43:45Z</time></trkpt><trkpt lat="43.4261084301751" lon="11.441268506685113"><ele>365.6666666666667</ele><time>2026-04-11T07:43:46Z</time></trkpt><trkpt lat="43.42605355797191" lon="11.44138312397243"><ele>365.3333333333333</ele><time>2026-04-11T07:43:48Z</time></trkpt><trkpt lat="43.42599115819504" lon="11.441448388799838"><ele>365.0</ele><time>2026-04-11T07:43:50Z</time></trkpt><trkpt lat="43.4259280686215" lon="11.441506644033435"><ele>364.66666666666663</ele><time>2026-04-11T07:43:52Z</time></trkpt><trkpt lat="43.425813843363855" lon="11.44156846590073"><ele>364.3333333333333</ele><time>2026-04-11T07:43:54Z</time></trkpt><trkpt lat="43.425749804742026" lon="11.44159636774917"><ele>364.0</ele><time>2026-04-11T07:43:55Z</time></trkpt><trkpt lat="43.42565221139818" lon="11.441640150697562"><ele>364.0</ele><time>2026-04-11T07:43:57Z</time></trkpt><trkpt lat="43.42554909819866" lon="11.441693831598247"><ele>364.0</ele><time>2026-04-11T07:43:59Z</time></trkpt><trkpt lat="43.42545099608781" lon="11.441751641258612"><ele>364.0</ele><time>2026-04-11T07:44:01Z</time></trkpt><trkpt lat="43.425357760903324" lon="11.441813327544311"><ele>364.0</ele><time>2026-04-11T07:44:02.999Z</time></trkpt><trkpt lat="43.42526482287128" lon="11.441883226441567"><ele>364.0</ele><time>2026-04-11T07:44:04.999Z</time></trkpt><trkpt lat="43.42518646804851" lon="11.441979479769785"><ele>365.0</ele><time>2026-04-11T07:44:06.999Z</time></trkpt><trkpt lat="43.42511706113192" lon="11.442081653290863"><ele>366.0</ele><time>2026-04-11T07:44:08.999Z</time></trkpt><trkpt lat="43.42506382314216" lon="11.442193901763499"><ele>367.0</ele><time>2026-04-11T07:44:10.999Z</time></trkpt><trkpt lat="43.425029570656335" lon="11.44231980150494"><ele>368.0</ele><time>2026-04-11T07:44:12.999Z</time></trkpt><trkpt lat="43.42498092812368" lon="11.442433419269541"><ele>369.0</ele><time>2026-04-11T07:44:14.999Z</time></trkpt><trkpt lat="43.424940626468775" lon="11.44254629100936"><ele>369.0</ele><time>2026-04-11T07:44:16.999Z</time></trkpt><trkpt lat="43.424912022678754" lon="11.442671183412156"><ele>369.0</ele><time>2026-04-11T07:44:18.999Z</time></trkpt><trkpt lat="43.42488388845991" lon="11.442792390116212"><ele>369.0</ele><time>2026-04-11T07:44:20.999Z</time></trkpt><trkpt lat="43.424856590278715" lon="11.442912832806696"><ele>369.0</ele><time>2026-04-11T07:44:22.999Z</time></trkpt><trkpt lat="43.42484939066417" lon="11.443015382837809"><ele>369.0</ele><time>2026-04-11T07:44:25.999Z</time></trkpt><trkpt lat="43.4248453506982" lon="11.443168701525897"><ele>368.8333333333333</ele><time>2026-04-11T07:44:26.999Z</time></trkpt><trkpt lat="43.42484818230023" lon="11.44329240259422"><ele>368.6666666666667</ele><time>2026-04-11T07:44:28.999Z</time></trkpt><trkpt lat="43.4248421439979" lon="11.443414380272797"><ele>368.5</ele><time>2026-04-11T07:44:30.999Z</time></trkpt><trkpt lat="43.424834891025576" lon="11.443536962139442"><ele>368.33333333333337</ele><time>2026-04-11T07:44:32.999Z</time></trkpt><trkpt lat="43.42483076404504" lon="11.443660286910866"><ele>368.1666666666667</ele><time>2026-04-11T07:44:34.999Z</time></trkpt><trkpt lat="43.42480621854799" lon="11.443776070221432"><ele>368.0</ele><time>2026-04-11T07:44:36.999Z</time></trkpt><trkpt lat="43.42477594676116" lon="11.443885252997488"><ele>367.7142857142857</ele><time>2026-04-11T07:44:38.999Z</time></trkpt><trkpt lat="43.424720180727164" lon="11.443962391369652"><ele>367.4285714285714</ele><time>2026-04-11T07:44:40.999Z</time></trkpt><trkpt lat="43.42467055458958" lon="11.444037572730462"><ele>367.1428571428571</ele><time>2026-04-11T07:44:42.999Z</time></trkpt><trkpt lat="43.42461456278708" lon="11.444106681079617"><ele>366.8571428571429</ele><time>2026-04-11T07:44:44.999Z</time></trkpt><trkpt lat="43.42456359805823" lon="11.44416722227517"><ele>366.57142857142856</ele><time>2026-04-11T07:44:46.999Z</time></trkpt><trkpt lat="43.42451347218524" lon="11.444238119442332"><ele>366.2857142857143</ele><time>2026-04-11T07:44:48.999Z</time></trkpt><trkpt lat="43.42446178605975" lon="11.44429347005909"><ele>366.0</ele><time>2026-04-11T07:44:50.999Z</time></trkpt><trkpt lat="43.424405155254036" lon="11.444390960775504"><ele>368.0</ele><time>2026-04-11T07:44:53.999Z</time></trkpt><trkpt lat="43.42436791712453" lon="11.44446518202695"><ele>370.0</ele><time>2026-04-11T07:44:55.999Z</time></trkpt><trkpt lat="43.424327910905156" lon="11.444537200299651"><ele>372.0</ele><time>2026-04-11T07:44:57.999Z</time></trkpt><trkpt lat="43.42429465673942" lon="11.44461170144484"><ele>374.0</ele><time>2026-04-11T07:44:59.999Z</time></trkpt><trkpt lat="43.42425049208049" lon="11.444724585674917"><ele>376.0</ele><time>2026-04-11T07:45:02.999Z</time></trkpt><trkpt lat="43.42422174608691" lon="11.444803221565609"><ele>378.0</ele><time>2026-04-11T07:45:04.999Z</time></trkpt><trkpt lat="43.4241878265951" lon="11.444876855423798"><ele>380.0</ele><time>2026-04-11T07:45:06.999Z</time></trkpt><trkpt lat="43.4241373813254" lon="11.444958973034558"><ele>380.0</ele><time>2026-04-11T07:45:09.999Z</time></trkpt><trkpt lat="43.424110147996956" lon="11.445042929223085"><ele>380.0</ele><time>2026-04-11T07:45:11.999Z</time></trkpt><trkpt lat="43.424066992713044" lon="11.445120316625903"><ele>380.0</ele><time>2026-04-11T07:45:14.999Z</time></trkpt><trkpt lat="43.42403876038769" lon="11.445221280643203"><ele>380.0</ele><time>2026-04-11T07:45:17.999Z</time></trkpt><trkpt lat="43.42398356679111" lon="11.445339644848437"><ele>380.0</ele><time>2026-04-11T07:45:20.999Z</time></trkpt><trkpt lat="43.42393627546811" lon="11.445463339133148"><ele>380.0</ele><time>2026-04-11T07:45:23.999Z</time></trkpt><trkpt lat="43.42390314601297" lon="11.445545931505952"><ele>380.0</ele><time>2026-04-11T07:45:25.999Z</time></trkpt><trkpt lat="43.42388123266058" lon="11.445638513279423"><ele>380.0</ele><time>2026-04-11T07:45:27.999Z</time></trkpt><trkpt lat="43.42384272139377" lon="11.445742111248954"><ele>380.0</ele><time>2026-04-11T07:45:29.999Z</time></trkpt><trkpt lat="43.423842489035074" lon="11.445835067571867"><ele>380.0</ele><time>2026-04-11T07:45:31.999Z</time></trkpt><trkpt lat="43.423870985406154" lon="11.445951855647733"><ele>380.0</ele><time>2026-04-11T07:45:33.999Z</time></trkpt><trkpt lat="43.42391184594643" lon="11.446035378878777"><ele>380.0</ele><time>2026-04-11T07:45:35.999Z</time></trkpt><trkpt lat="43.423969679004266" lon="11.44608310675765"><ele>380.0</ele><time>2026-04-11T07:45:37.999Z</time></trkpt><trkpt lat="43.42403327333367" lon="11.446112931616593"><ele>380.0</ele><time>2026-04-11T07:45:39.999Z</time></trkpt><trkpt lat="43.424105438797056" lon="11.44613301419375"><ele>380.0</ele><time>2026-04-11T07:45:41.998Z</time></trkpt><trkpt lat="43.424174822680364" lon="11.446163893522641"><ele>380.0</ele><time>2026-04-11T07:45:43.998Z</time></trkpt><trkpt lat="43.424242386118465" lon="11.446194320503258"><ele>380.0</ele><time>2026-04-11T07:45:45.998Z</time></trkpt><trkpt lat="43.42430327869835" lon="11.44624724711638"><ele>380.0</ele><time>2026-04-11T07:45:48Z</time></trkpt><trkpt lat="43.424342636830325" lon="11.446318621481577"><ele>380.0</ele><time>2026-04-11T07:45:50Z</time></trkpt><trkpt lat="43.42438374065748" lon="11.446393314452049"><ele>381.6666666666667</ele><time>2026-04-11T07:45:52Z</time></trkpt><trkpt lat="43.424429517289255" lon="11.446485100468763"><ele>383.33333333333337</ele><time>2026-04-11T07:45:55Z</time></trkpt><trkpt lat="43.42444797919057" lon="11.4465894910066"><ele>385.0</ele><time>2026-04-11T07:45:58Z</time></trkpt><trkpt lat="43.42446820699075" lon="11.446705319683774"><ele>386.6666666666667</ele><time>2026-04-11T07:46:01Z</time></trkpt><trkpt lat="43.424459894030484" lon="11.446822309949031"><ele>388.3333333333333</ele><time>2026-04-11T07:46:04Z</time></trkpt><trkpt lat="43.42445339707653" lon="11.446924737855438"><ele>390.0</ele><time>2026-04-11T07:46:07Z</time></trkpt><trkpt lat="43.424443391459306" lon="11.44703306545577"><ele>390.6666666666667</ele><time>2026-04-11T07:46:09.999Z</time></trkpt><trkpt lat="43.42442070198285" lon="11.447146789065604"><ele>391.33333333333337</ele><time>2026-04-11T07:46:12.999Z</time></trkpt><trkpt lat="43.42440069984907" lon="11.447247798683243"><ele>392.0</ele><time>2026-04-11T07:46:15.999Z</time></trkpt><trkpt lat="43.42437333843684" lon="11.447336771058518"><ele>392.6666666666667</ele><time>2026-04-11T07:46:18.999Z</time></trkpt><trkpt lat="43.42432320733716" lon="11.447427700295194"><ele>393.33333333333337</ele><time>2026-04-11T07:46:21.999Z</time></trkpt><trkpt lat="43.4242727849067" lon="11.447509603016654"><ele>394.0</ele><time>2026-04-11T07:46:24.999Z</time></trkpt><trkpt lat="43.42420979872383" lon="11.447579788304038"><ele>394.00000000000006</ele><time>2026-04-11T07:46:27.999Z</time></trkpt><trkpt lat="43.42414328272501" lon="11.447648172136867"><ele>394.0</ele><time>2026-04-11T07:46:30.999Z</time></trkpt><trkpt lat="43.424077956520414" lon="11.447719049186583"><ele>394.0</ele><time>2026-04-11T07:46:33.999Z</time></trkpt><trkpt lat="43.42401532668045" lon="11.447787148297135"><ele>394.0</ele><time>2026-04-11T07:46:36.999Z</time></trkpt><trkpt lat="43.423953998502405" lon="11.447849455353534"><ele>394.00000000000006</ele><time>2026-04-11T07:46:39.999Z</time></trkpt><trkpt lat="43.42389856242851" lon="11.447923650211928"><ele>394.0</ele><time>2026-04-11T07:46:42.999Z</time></trkpt><trkpt lat="43.42385785056477" lon="11.448016251680867"><ele>393.6666666666667</ele><time>2026-04-11T07:46:45.999Z</time></trkpt><trkpt lat="43.42381792687552" lon="11.448112422291617"><ele>393.33333333333337</ele><time>2026-04-11T07:46:48.999Z</time></trkpt><trkpt lat="43.42379845254504" lon="11.448220857578933"><ele>393.0</ele><time>2026-04-11T07:46:51.999Z</time></trkpt><trkpt lat="43.42379992226729" lon="11.448336996301357"><ele>392.66666666666663</ele><time>2026-04-11T07:46:54.999Z</time></trkpt><trkpt lat="43.42381679498809" lon="11.448426277290803"><ele>392.3333333333333</ele><time>2026-04-11T07:46:56.999Z</time></trkpt><trkpt lat="43.42384760069095" lon="11.448547320781064"><ele>392.0</ele><time>2026-04-11T07:46:59.999Z</time></trkpt><trkpt lat="43.423861935987595" lon="11.448635766525035"><ele>392.0</ele><time>2026-04-11T07:47:01.999Z</time></trkpt><trkpt lat="43.423891098800674" lon="11.448718839753463"><ele>392.0</ele><time>2026-04-11T07:47:03.999Z</time></trkpt><trkpt lat="43.42391839900332" lon="11.44880310907442"><ele>392.0</ele><time>2026-04-11T07:47:05.999Z</time></trkpt><trkpt lat="43.42393673464826" lon="11.448886931770712"><ele>392.0</ele><time>2026-04-11T07:47:07.999Z</time></trkpt><trkpt lat="43.42395852990773" lon="11.448971688100293"><ele>392.0</ele><time>2026-04-11T07:47:09.999Z</time></trkpt><trkpt lat="43.42397521402832" lon="11.44906444637802"><ele>392.0</ele><time>2026-04-11T07:47:11.999Z</time></trkpt><trkpt lat="43.42398154699919" lon="11.449162724232623"><ele>392.0</ele><time>2026-04-11T07:47:13.999Z</time></trkpt><trkpt lat="43.42397749480479" lon="11.449264397551119"><ele>391.99999999999994</ele><time>2026-04-11T07:47:15.999Z</time></trkpt><trkpt lat="43.42396313799215" lon="11.449366196481602"><ele>392.0</ele><time>2026-04-11T07:47:17.999Z</time></trkpt><trkpt lat="43.42395017563623" lon="11.449475919095503"><ele>392.0</ele><time>2026-04-11T07:47:19.999Z</time></trkpt><trkpt lat="43.42392867684484" lon="11.44957960824495"><ele>392.0</ele><time>2026-04-11T07:47:21.999Z</time></trkpt><trkpt lat="43.42389667741405" lon="11.44969117291277"><ele>391.99999999999994</ele><time>2026-04-11T07:47:23.999Z</time></trkpt><trkpt lat="43.42385409092545" lon="11.449798034790126"><ele>392.0</ele><time>2026-04-11T07:47:25.999Z</time></trkpt><trkpt lat="43.423804910360275" lon="11.44989062020633"><ele>395.3333333333333</ele><time>2026-04-11T07:47:27.999Z</time></trkpt><trkpt lat="43.423748184112476" lon="11.449964489802541"><ele>398.66666666666663</ele><time>2026-04-11T07:47:29.999Z</time></trkpt><trkpt lat="43.42368985387972" lon="11.450054307044319"><ele>402.0</ele><time>2026-04-11T07:47:31.999Z</time></trkpt><trkpt lat="43.423631515507" lon="11.450132611293059"><ele>405.33333333333337</ele><time>2026-04-11T07:47:33.999Z</time></trkpt><trkpt lat="43.42357647827471" lon="11.450216764677482"><ele>408.6666666666667</ele><time>2026-04-11T07:47:35.999Z</time></trkpt><trkpt lat="43.42352309614394" lon="11.450307598805184"><ele>412.0</ele><time>2026-04-11T07:47:37.999Z</time></trkpt><trkpt lat="43.42346617240677" lon="11.450384543317561"><ele>409.50000000000006</ele><time>2026-04-11T07:47:39.999Z</time></trkpt><trkpt lat="43.42340617562208" lon="11.450466931644618"><ele>407.0</ele><time>2026-04-11T07:47:41.999Z</time></trkpt><trkpt lat="43.42335359883141" lon="11.450553622423572"><ele>404.5</ele><time>2026-04-11T07:47:43.999Z</time></trkpt><trkpt lat="43.42329463455501" lon="11.45063494391026"><ele>402.0</ele><time>2026-04-11T07:47:45.999Z</time></trkpt><trkpt lat="43.42323029086823" lon="11.450708104376993"><ele>399.50000000000006</ele><time>2026-04-11T07:47:47.998Z</time></trkpt><trkpt lat="43.42315739482979" lon="11.450766720113949"><ele>397.0</ele><time>2026-04-11T07:47:49.998Z</time></trkpt><trkpt lat="43.42308866417586" lon="11.450828904217083"><ele>397.00000000000006</ele><time>2026-04-11T07:47:51.998Z</time></trkpt><trkpt lat="43.42302248539975" lon="11.450892750188444"><ele>397.0</ele><time>2026-04-11T07:47:54Z</time></trkpt><trkpt lat="43.42295339618843" lon="11.450958891678159"><ele>397.0</ele><time>2026-04-11T07:47:56Z</time></trkpt><trkpt lat="43.42288315561746" lon="11.451018200087058"><ele>397.0</ele><time>2026-04-11T07:47:58Z</time></trkpt><trkpt lat="43.42281545300767" lon="11.451079593492272"><ele>397.00000000000006</ele><time>2026-04-11T07:48:00Z</time></trkpt><trkpt lat="43.422743390734524" lon="11.451135100398204"><ele>397.0</ele><time>2026-04-11T07:48:02Z</time></trkpt><trkpt lat="43.422672043205154" lon="11.451188053012647"><ele>396.83333333333337</ele><time>2026-04-11T07:48:04Z</time></trkpt><trkpt lat="43.42259646828199" lon="11.451228799126067"><ele>396.6666666666667</ele><time>2026-04-11T07:48:06Z</time></trkpt><trkpt lat="43.42252425339206" lon="11.451260725458523"><ele>396.5</ele><time>2026-04-11T07:48:08Z</time></trkpt><trkpt lat="43.422448193033176" lon="11.451281638472611"><ele>396.33333333333337</ele><time>2026-04-11T07:48:10Z</time></trkpt><trkpt lat="43.422370511775256" lon="11.451298271782976"><ele>396.1666666666667</ele><time>2026-04-11T07:48:12Z</time></trkpt><trkpt lat="43.4222908386456" lon="11.451313386470124"><ele>396.0</ele><time>2026-04-11T07:48:14Z</time></trkpt><trkpt lat="43.4222156206967" lon="11.451313552481254"><ele>396.0</ele><time>2026-04-11T07:48:16Z</time></trkpt><trkpt lat="43.42215158862564" lon="11.451307067440121"><ele>396.0</ele><time>2026-04-11T07:48:17.999Z</time></trkpt><trkpt lat="43.42208859056628" lon="11.451312295951592"><ele>396.0</ele><time>2026-04-11T07:48:19.999Z</time></trkpt><trkpt lat="43.4219895309766" lon="11.45134575577577"><ele>396.0</ele><time>2026-04-11T07:48:22.999Z</time></trkpt><trkpt lat="43.421927108145454" lon="11.451384473863946"><ele>396.0</ele><time>2026-04-11T07:48:24.999Z</time></trkpt><trkpt lat="43.421872002243035" lon="11.45143625989271"><ele>396.0</ele><time>2026-04-11T07:48:26.999Z</time></trkpt><trkpt lat="43.42182754129213" lon="11.451498478373932"><ele>396.0</ele><time>2026-04-11T07:48:28.999Z</time></trkpt><trkpt lat="43.421793521927825" lon="11.451590937501527"><ele>399.8333333333333</ele><time>2026-04-11T07:48:31.999Z</time></trkpt><trkpt lat="43.42176730879483" lon="11.451691865696544"><ele>403.66666666666663</ele><time>2026-04-11T07:48:34.999Z</time></trkpt><trkpt lat="43.421758781135445" lon="11.451832618748853"><ele>407.5</ele><time>2026-04-11T07:48:36.999Z</time></trkpt><trkpt lat="43.421762788056945" lon="11.451952910450016"><ele>411.3333333333333</ele><time>2026-04-11T07:48:39.999Z</time></trkpt><trkpt lat="43.421759446588375" lon="11.452076498382402"><ele>415.16666666666663</ele><time>2026-04-11T07:48:42.999Z</time></trkpt><trkpt lat="43.42173479734267" lon="11.452167782551113"><ele>419.0</ele><time>2026-04-11T07:48:45.999Z</time></trkpt><trkpt lat="43.42170712321068" lon="11.452280091864473"><ele>418.99999999999994</ele><time>2026-04-11T07:48:47.999Z</time></trkpt><trkpt lat="43.42167380409489" lon="11.45237234216825"><ele>419.0</ele><time>2026-04-11T07:48:50.999Z</time></trkpt><trkpt lat="43.421642447545885" lon="11.452468096601919"><ele>419.0</ele><time>2026-04-11T07:48:53.999Z</time></trkpt><trkpt lat="43.421608235659356" lon="11.452570038757251"><ele>419.0</ele><time>2026-04-11T07:48:56.999Z</time></trkpt><trkpt lat="43.421600444710855" lon="11.452674478576649"><ele>418.99999999999994</ele><time>2026-04-11T07:48:59.999Z</time></trkpt><trkpt lat="43.42157910268699" lon="11.452770532657784"><ele>419.0</ele><time>2026-04-11T07:49:01.999Z</time></trkpt><trkpt lat="43.42156542129277" lon="11.45287571056983"><ele>418.3333333333333</ele><time>2026-04-11T07:49:03.999Z</time></trkpt><trkpt lat="43.421570176180126" lon="11.452974181091003"><ele>417.66666666666663</ele><time>2026-04-11T07:49:05.999Z</time></trkpt><trkpt lat="43.42159056934485" lon="11.453068772145839"><ele>417.0</ele><time>2026-04-11T07:49:07.999Z</time></trkpt><trkpt lat="43.42163932648903" lon="11.453165722057905"><ele>416.33333333333337</ele><time>2026-04-11T07:49:10.999Z</time></trkpt><trkpt lat="43.42168080005598" lon="11.453236925664015"><ele>415.6666666666667</ele><time>2026-04-11T07:49:12.999Z</time></trkpt><trkpt lat="43.42171839046006" lon="11.45330971767786"><ele>415.0</ele><time>2026-04-11T07:49:14.999Z</time></trkpt><trkpt lat="43.42176874626897" lon="11.453415279025107"><ele>415.0</ele><time>2026-04-11T07:49:17.999Z</time></trkpt><trkpt lat="43.42179965575351" lon="11.45349243789449"><ele>415.0</ele><time>2026-04-11T07:49:19.999Z</time></trkpt><trkpt lat="43.42182876438238" lon="11.453581751174504"><ele>415.0</ele><time>2026-04-11T07:49:21.999Z</time></trkpt><trkpt lat="43.42184210822471" lon="11.453670045459992"><ele>415.0</ele><time>2026-04-11T07:49:23.999Z</time></trkpt><trkpt lat="43.42183196468588" lon="11.45375928592983"><ele>415.0</ele><time>2026-04-11T07:49:25.999Z</time></trkpt><trkpt lat="43.421798936131395" lon="11.45386470661078"><ele>415.0</ele><time>2026-04-11T07:49:29.999Z</time></trkpt><trkpt lat="43.42176302224066" lon="11.453955927615079"><ele>415.0</ele><time>2026-04-11T07:49:32.999Z</time></trkpt><trkpt lat="43.42171798092863" lon="11.454033045486186"><ele>414.6666666666667</ele><time>2026-04-11T07:49:34.999Z</time></trkpt><trkpt lat="43.4216619709708" lon="11.454110126978245"><ele>414.33333333333337</ele><time>2026-04-11T07:49:36.999Z</time></trkpt><trkpt lat="43.421587773812384" lon="11.454191627347045"><ele>414.0</ele><time>2026-04-11T07:49:39.999Z</time></trkpt><trkpt lat="43.42151462535469" lon="11.454260581726194"><ele>413.66666666666663</ele><time>2026-04-11T07:49:42.999Z</time></trkpt><trkpt lat="43.42144365842764" lon="11.45433428987922"><ele>413.3333333333333</ele><time>2026-04-11T07:49:45.999Z</time></trkpt><trkpt lat="43.42136833446135" lon="11.454388990053655"><ele>413.0</ele><time>2026-04-11T07:49:48.999Z</time></trkpt><trkpt lat="43.421303725518534" lon="11.454437920037595"><ele>414.49999999999994</ele><time>2026-04-11T07:49:51.999Z</time></trkpt><trkpt lat="43.42123753030438" lon="11.454496930923442"><ele>416.0</ele><time>2026-04-11T07:49:54.999Z</time></trkpt><trkpt lat="43.42115010054416" lon="11.454540918068695"><ele>417.5</ele><time>2026-04-11T07:49:57.999Z</time></trkpt><trkpt lat="43.4210946176286" lon="11.454589849564048"><ele>419.0</ele><time>2026-04-11T07:50:00Z</time></trkpt><trkpt lat="43.42104227206648" lon="11.454641814696888"><ele>420.49999999999994</ele><time>2026-04-11T07:50:02Z</time></trkpt><trkpt lat="43.42097939693576" lon="11.454726372962"><ele>422.0</ele><time>2026-04-11T07:50:05Z</time></trkpt><trkpt lat="43.42091422706532" lon="11.454813103079118"><ele>421.99999999999994</ele><time>2026-04-11T07:50:08Z</time></trkpt><trkpt lat="43.42086630439974" lon="11.454918276601493"><ele>422.0</ele><time>2026-04-11T07:50:11Z</time></trkpt><trkpt lat="43.42081904437999" lon="11.455025014384402"><ele>422.0</ele><time>2026-04-11T07:50:14Z</time></trkpt><trkpt lat="43.42077295340608" lon="11.455126870133693"><ele>422.0</ele><time>2026-04-11T07:50:17Z</time></trkpt><trkpt lat="43.420713193273585" lon="11.45521821113536"><ele>421.99999999999994</ele><time>2026-04-11T07:50:19.999Z</time></trkpt><trkpt lat="43.420650834845475" lon="11.455304037449782"><ele>422.0</ele><time>2026-04-11T07:50:22.999Z</time></trkpt><trkpt lat="43.42058669932011" lon="11.455384493009037"><ele>422.99999999999994</ele><time>2026-04-11T07:50:25.999Z</time></trkpt><trkpt lat="43.420527952220354" lon="11.455467466032415"><ele>424.0</ele><time>2026-04-11T07:50:28.999Z</time></trkpt><trkpt lat="43.420466695079845" lon="11.455546906186349"><ele>425.0</ele><time>2026-04-11T07:50:31.999Z</time></trkpt><trkpt lat="43.42040948364597" lon="11.455627742428899"><ele>426.0</ele><time>2026-04-11T07:50:34.999Z</time></trkpt><trkpt lat="43.42035349273369" lon="11.455714549692892"><ele>426.99999999999994</ele><time>2026-04-11T07:50:37.999Z</time></trkpt><trkpt lat="43.42029670842091" lon="11.455798199080425"><ele>428.0</ele><time>2026-04-11T07:50:40.999Z</time></trkpt><trkpt lat="43.42024556196084" lon="11.455893201300121"><ele>427.99999999999994</ele><time>2026-04-11T07:50:43.999Z</time></trkpt><trkpt lat="43.42018190294889" lon="11.455976387005274"><ele>428.0</ele><time>2026-04-11T07:50:46.999Z</time></trkpt><trkpt lat="43.42012296978254" lon="11.456071883091926"><ele>428.0</ele><time>2026-04-11T07:50:49.999Z</time></trkpt><trkpt lat="43.42006052295582" lon="11.456154914991616"><ele>428.0</ele><time>2026-04-11T07:50:52.999Z</time></trkpt><trkpt lat="43.41999984937156" lon="11.456243315946526"><ele>427.99999999999994</ele><time>2026-04-11T07:50:55.999Z</time></trkpt><trkpt lat="43.41995241184949" lon="11.456306025913484"><ele>428.0</ele><time>2026-04-11T07:50:57.999Z</time></trkpt><trkpt lat="43.419894202439124" lon="11.456384784352116"><ele>427.16666666666663</ele><time>2026-04-11T07:51:00.999Z</time></trkpt><trkpt lat="43.41983100207247" lon="11.456466513155897"><ele>426.3333333333333</ele><time>2026-04-11T07:51:03.999Z</time></trkpt><trkpt lat="43.419771361544505" lon="11.456550722413063"><ele>425.5</ele><time>2026-04-11T07:51:06.999Z</time></trkpt><trkpt lat="43.41970172331991" lon="11.45662865515691"><ele>424.66666666666663</ele><time>2026-04-11T07:51:09.999Z</time></trkpt><trkpt lat="43.4196376770962" lon="11.45670529123087"><ele>423.8333333333333</ele><time>2026-04-11T07:51:12.999Z</time></trkpt><trkpt lat="43.41956002158066" lon="11.456762679128335"><ele>423.0</ele><time>2026-04-11T07:51:15.999Z</time></trkpt><trkpt lat="43.419498824175335" lon="11.456787912405886"><ele>424.85714285714283</ele><time>2026-04-11T07:51:17.999Z</time></trkpt><trkpt lat="43.41943279852189" lon="11.456820402299972"><ele>426.7142857142857</ele><time>2026-04-11T07:51:19.999Z</time></trkpt><trkpt lat="43.41936151895813" lon="11.456830185757555"><ele>428.57142857142856</ele><time>2026-04-11T07:51:21.999Z</time></trkpt><trkpt lat="43.41929163257913" lon="11.456830802994752"><ele>430.42857142857144</ele><time>2026-04-11T07:51:23.999Z</time></trkpt><trkpt lat="43.41921697034581" lon="11.456847623977307"><ele>432.28571428571433</ele><time>2026-04-11T07:51:25.999Z</time></trkpt><trkpt lat="43.419150812986516" lon="11.456893699796021"><ele>434.14285714285717</ele><time>2026-04-11T07:51:27.999Z</time></trkpt><trkpt lat="43.41909412080489" lon="11.456942473212692"><ele>436.0</ele><time>2026-04-11T07:51:29.999Z</time></trkpt><trkpt lat="43.41905307204971" lon="11.457020299869168"><ele>436.00000000000006</ele><time>2026-04-11T07:51:31.999Z</time></trkpt><trkpt lat="43.41902686869538" lon="11.457104265952317"><ele>436.0</ele><time>2026-04-11T07:51:33.999Z</time></trkpt><trkpt lat="43.4189991501309" lon="11.457225656696767"><ele>436.0</ele><time>2026-04-11T07:51:36.999Z</time></trkpt><trkpt lat="43.41899061613067" lon="11.457354175405117"><ele>436.0</ele><time>2026-04-11T07:51:39.999Z</time></trkpt><trkpt lat="43.41897612491165" lon="11.457441614220992"><ele>436.00000000000006</ele><time>2026-04-11T07:51:41.999Z</time></trkpt><trkpt lat="43.41894981324311" lon="11.457531734559678"><ele>436.0</ele><time>2026-04-11T07:51:43.999Z</time></trkpt><trkpt lat="43.41891815040427" lon="11.457615595376854"><ele>435.50000000000006</ele><time>2026-04-11T07:51:45.999Z</time></trkpt><trkpt lat="43.418864999900144" lon="11.457694033940419"><ele>435.0</ele><time>2026-04-11T07:51:48.999Z</time></trkpt><trkpt lat="43.4188100988067" lon="11.457775227309764"><ele>434.5</ele><time>2026-04-11T07:51:51.999Z</time></trkpt><trkpt lat="43.41873485652921" lon="11.457837831894585"><ele>434.0</ele><time>2026-04-11T07:51:53.999Z</time></trkpt><trkpt lat="43.41867091470093" lon="11.457886740336154"><ele>433.50000000000006</ele><time>2026-04-11T07:51:55.999Z</time></trkpt><trkpt lat="43.418614018786734" lon="11.457928538669202"><ele>433.0</ele><time>2026-04-11T07:51:56.999Z</time></trkpt><trkpt lat="43.41854314804722" lon="11.457978899127289"><ele>433.00000000000006</ele><time>2026-04-11T07:51:58.999Z</time></trkpt><trkpt lat="43.41846940060067" lon="11.45803760256939"><ele>433.0</ele><time>2026-04-11T07:52:00.998Z</time></trkpt><trkpt lat="43.41839934915012" lon="11.45808766458838"><ele>433.0</ele><time>2026-04-11T07:52:02.998Z</time></trkpt><trkpt lat="43.41833075370701" lon="11.458147998886458"><ele>433.0</ele><time>2026-04-11T07:52:05Z</time></trkpt><trkpt lat="43.41826125235642" lon="11.45819954079969"><ele>433.00000000000006</ele><time>2026-04-11T07:52:07Z</time></trkpt><trkpt lat="43.418194549898864" lon="11.458247902249"><ele>433.0</ele><time>2026-04-11T07:52:09Z</time></trkpt><trkpt lat="43.41812579933774" lon="11.45829521311623"><ele>432.99999999999994</ele><time>2026-04-11T07:52:11Z</time></trkpt><trkpt lat="43.4180559833815" lon="11.458334318963175"><ele>433.0</ele><time>2026-04-11T07:52:13Z</time></trkpt><trkpt lat="43.417991076344386" lon="11.458362325873194"><ele>433.0</ele><time>2026-04-11T07:52:15Z</time></trkpt><trkpt lat="43.41791934308396" lon="11.458378334962415"><ele>433.0</ele><time>2026-04-11T07:52:17Z</time></trkpt><trkpt lat="43.41784485983075" lon="11.458384489079679"><ele>433.0</ele><time>2026-04-11T07:52:19Z</time></trkpt><trkpt lat="43.417778469413456" lon="11.458366944808724"><ele>432.99999999999994</ele><time>2026-04-11T07:52:21Z</time></trkpt><trkpt lat="43.417709217016665" lon="11.458333760045221"><ele>433.0</ele><time>2026-04-11T07:52:22.999Z</time></trkpt><trkpt lat="43.41764286845104" lon="11.458295111025082"><ele>433.85714285714283</ele><time>2026-04-11T07:52:24.999Z</time></trkpt><trkpt lat="43.417571245648844" lon="11.458250287649536"><ele>434.7142857142857</ele><time>2026-04-11T07:52:26.999Z</time></trkpt><trkpt lat="43.417509034076964" lon="11.458198264232449"><ele>435.57142857142856</ele><time>2026-04-11T07:52:28.999Z</time></trkpt><trkpt lat="43.41744192497866" lon="11.458154075571795"><ele>436.42857142857144</ele><time>2026-04-11T07:52:30.999Z</time></trkpt><trkpt lat="43.41738309257584" lon="11.458103652303235"><ele>437.2857142857143</ele><time>2026-04-11T07:52:32.999Z</time></trkpt><trkpt lat="43.4173193973504" lon="11.45805832345975"><ele>438.1428571428571</ele><time>2026-04-11T07:52:34.999Z</time></trkpt><trkpt lat="43.41724531506163" lon="11.458024241508875"><ele>439.0</ele><time>2026-04-11T07:52:37.999Z</time></trkpt><trkpt lat="43.4171744149665" lon="11.458006641474876"><ele>439.33333333333337</ele><time>2026-04-11T07:52:39.999Z</time></trkpt><trkpt lat="43.4170901115473" lon="11.457987639019736"><ele>439.6666666666667</ele><time>2026-04-11T07:52:41.999Z</time></trkpt><trkpt lat="43.417021308882006" lon="11.457973724442745"><ele>440.0</ele><time>2026-04-11T07:52:43.999Z</time></trkpt><trkpt lat="43.416954063452295" lon="11.457964714626147"><ele>440.33333333333337</ele><time>2026-04-11T07:52:46.999Z</time></trkpt><trkpt lat="43.41685383914269" lon="11.457956041361873"><ele>440.6666666666667</ele><time>2026-04-11T07:52:48.999Z</time></trkpt><trkpt lat="43.4167796967522" lon="11.457946657333995"><ele>441.0</ele><time>2026-04-11T07:52:50.999Z</time></trkpt><trkpt lat="43.41670714499282" lon="11.457933985098151"><ele>441.0</ele><time>2026-04-11T07:52:53.999Z</time></trkpt><trkpt lat="43.416631509697886" lon="11.457923750554052"><ele>441.0</ele><time>2026-04-11T07:52:56.999Z</time></trkpt><trkpt lat="43.41655413565645" lon="11.457936372574768"><ele>441.0</ele><time>2026-04-11T07:52:57.999Z</time></trkpt><trkpt lat="43.41648464994737" lon="11.45795767753766"><ele>441.0</ele><time>2026-04-11T07:52:59.999Z</time></trkpt><trkpt lat="43.41641772402667" lon="11.457991939480307"><ele>441.0</ele><time>2026-04-11T07:53:01.999Z</time></trkpt><trkpt lat="43.41635086714916" lon="11.458033911371823"><ele>441.0</ele><time>2026-04-11T07:53:03.999Z</time></trkpt><trkpt lat="43.41628804492723" lon="11.458089117132406"><ele>441.0</ele><time>2026-04-11T07:53:05.999Z</time></trkpt><trkpt lat="43.41620595863077" lon="11.45812745092029"><ele>441.7142857142857</ele><time>2026-04-11T07:53:07.999Z</time></trkpt><trkpt lat="43.41616096980257" lon="11.45820023458911"><ele>442.42857142857144</ele><time>2026-04-11T07:53:09.999Z</time></trkpt><trkpt lat="43.41610650479663" lon="11.458258121709807"><ele>443.1428571428571</ele><time>2026-04-11T07:53:11.999Z</time></trkpt><trkpt lat="43.416061161136774" lon="11.45832556095124"><ele>443.8571428571429</ele><time>2026-04-11T07:53:13.999Z</time></trkpt><trkpt lat="43.41601121087545" lon="11.4583829310649"><ele>444.57142857142856</ele><time>2026-04-11T07:53:15.999Z</time></trkpt><trkpt lat="43.415945195214974" lon="11.458465748315373"><ele>445.2857142857143</ele><time>2026-04-11T07:53:18.999Z</time></trkpt><trkpt lat="43.415917083675815" lon="11.45855386947566"><ele>446.0</ele><time>2026-04-11T07:53:20.999Z</time></trkpt><trkpt lat="43.41589294476325" lon="11.458639236056875"><ele>446.0</ele><time>2026-04-11T07:53:22.999Z</time></trkpt><trkpt lat="43.41587180122159" lon="11.45872868708044"><ele>446.0</ele><time>2026-04-11T07:53:24.999Z</time></trkpt><trkpt lat="43.41585576936896" lon="11.458827818995692"><ele>446.0</ele><time>2026-04-11T07:53:26.999Z</time></trkpt><trkpt lat="43.41584269211412" lon="11.458916182814413"><ele>446.0</ele><time>2026-04-11T07:53:28.999Z</time></trkpt><trkpt lat="43.415828500476046" lon="11.459001351093997"><ele>446.0</ele><time>2026-04-11T07:53:30.999Z</time></trkpt><trkpt lat="43.415835020152215" lon="11.459125157931608"><ele>446.0</ele><time>2026-04-11T07:53:34.999Z</time></trkpt><trkpt lat="43.41585035981623" lon="11.459232754241988"><ele>446.0</ele><time>2026-04-11T07:53:38.999Z</time></trkpt><trkpt lat="43.415864279990224" lon="11.45933204563922"><ele>446.57142857142856</ele><time>2026-04-11T07:53:42.999Z</time></trkpt><trkpt lat="43.41587572099764" lon="11.459431856949891"><ele>447.1428571428571</ele><time>2026-04-11T07:53:46.999Z</time></trkpt><trkpt lat="43.41587697672948" lon="11.459531088874938"><ele>447.7142857142858</ele><time>2026-04-11T07:53:50.999Z</time></trkpt><trkpt lat="43.41588090557869" lon="11.459623991510407"><ele>448.28571428571433</ele><time>2026-04-11T07:53:54.999Z</time></trkpt><trkpt lat="43.41588447788257" lon="11.459723218891606"><ele>448.8571428571429</ele><time>2026-04-11T07:53:58.999Z</time></trkpt><trkpt lat="43.415889476936364" lon="11.459826622916605"><ele>449.4285714285715</ele><time>2026-04-11T07:54:02.998Z</time></trkpt><trkpt lat="43.415885078289" lon="11.459922002643445"><ele>450.00000000000006</ele><time>2026-04-11T07:54:06.998Z</time></trkpt><trkpt lat="43.41589906104675" lon="11.460013092335862"><ele>451.00000000000006</ele><time>2026-04-11T07:54:11Z</time></trkpt><trkpt lat="43.41588969573669" lon="11.46011794773144"><ele>452.0</ele><time>2026-04-11T07:54:15Z</time></trkpt><trkpt lat="43.41588447879228" lon="11.460214294817924"><ele>453.00000000000006</ele><time>2026-04-11T07:54:19Z</time></trkpt><trkpt lat="43.4158894222488" lon="11.4603069027127"><ele>454.00000000000006</ele><time>2026-04-11T07:54:23Z</time></trkpt><trkpt lat="43.415900985483624" lon="11.460409181542898"><ele>455.0</ele><time>2026-04-11T07:54:26.999Z</time></trkpt><trkpt lat="43.41590771282938" lon="11.460498229013238"><ele>456.00000000000006</ele><time>2026-04-11T07:54:30.999Z</time></trkpt><trkpt lat="43.41589448136301" lon="11.460585550681706"><ele>457.00000000000006</ele><time>2026-04-11T07:54:34.999Z</time></trkpt><trkpt lat="43.415922540577036" lon="11.46068806245652"><ele>459.00000000000006</ele><time>2026-04-11T07:54:38.999Z</time></trkpt><trkpt lat="43.415957655081925" lon="11.460763152707717"><ele>461.0</ele><time>2026-04-11T07:54:42.999Z</time></trkpt><trkpt lat="43.41600247814807" lon="11.460841208664178"><ele>463.00000000000006</ele><time>2026-04-11T07:54:46.999Z</time></trkpt><trkpt lat="43.41604200155697" lon="11.460911646471425"><ele>465.00000000000006</ele><time>2026-04-11T07:54:50.999Z</time></trkpt><trkpt lat="43.41608174681626" lon="11.460979363096863"><ele>467.0</ele><time>2026-04-11T07:54:53.999Z</time></trkpt><trkpt lat="43.41611598627154" lon="11.461060192184526"><ele>469.00000000000006</ele><time>2026-04-11T07:54:58Z</time></trkpt><trkpt lat="43.41613435262096" lon="11.461145556579464"><ele>471.00000000000006</ele><time>2026-04-11T07:55:02Z</time></trkpt><trkpt lat="43.41611223568221" lon="11.461242276523468"><ele>471.8571428571429</ele><time>2026-04-11T07:55:07Z</time></trkpt><trkpt lat="43.41607608626201" lon="11.461340212459213"><ele>472.7142857142857</ele><time>2026-04-11T07:55:12Z</time></trkpt><trkpt lat="43.41602124695738" lon="11.461390595233624"><ele>473.57142857142856</ele><time>2026-04-11T07:55:16Z</time></trkpt><trkpt lat="43.4159625343635" lon="11.461433126074974"><ele>474.42857142857144</ele><time>2026-04-11T07:55:20Z</time></trkpt><trkpt lat="43.415886177508334" lon="11.46145604102038"><ele>475.2857142857142</ele><time>2026-04-11T07:55:24Z</time></trkpt><trkpt lat="43.41581704821882" lon="11.461441025121704"><ele>476.1428571428571</ele><time>2026-04-11T07:55:28Z</time></trkpt><trkpt lat="43.415758551951875" lon="11.461403092691212"><ele>477.0</ele><time>2026-04-11T07:55:32Z</time></trkpt><trkpt lat="43.41572486425849" lon="11.461319995114374"><ele>477.4285714285714</ele><time>2026-04-11T07:55:36Z</time></trkpt><trkpt lat="43.415693557351986" lon="11.46123151467055"><ele>477.8571428571428</ele><time>2026-04-11T07:55:40Z</time></trkpt><trkpt lat="43.415669614760084" lon="11.46114150694415"><ele>478.2857142857143</ele><time>2026-04-11T07:55:44Z</time></trkpt><trkpt lat="43.415657337434055" lon="11.461055477705372"><ele>478.71428571428567</ele><time>2026-04-11T07:55:48Z</time></trkpt><trkpt lat="43.4156288858696" lon="11.460960903606967"><ele>479.1428571428571</ele><time>2026-04-11T07:55:52Z</time></trkpt><trkpt lat="43.415610006762776" lon="11.460856674719095"><ele>479.57142857142856</ele><time>2026-04-11T07:55:56Z</time></trkpt><trkpt lat="43.41555098215983" lon="11.46076408664513"><ele>480.0</ele><time>2026-04-11T07:56:00Z</time></trkpt><trkpt lat="43.41548529498126" lon="11.46069917831366"><ele>480.0</ele><time>2026-04-11T07:56:03.999Z</time></trkpt><trkpt lat="43.41543158262162" lon="11.460652120683394"><ele>480.0</ele><time>2026-04-11T07:56:07.999Z</time></trkpt><trkpt lat="43.41538008738308" lon="11.460601750090259"><ele>480.0</ele><time>2026-04-11T07:56:10.999Z</time></trkpt><trkpt lat="43.415311358817775" lon="11.460586770859132"><ele>480.0</ele><time>2026-04-11T07:56:15.999Z</time></trkpt><trkpt lat="43.41527357822702" lon="11.460666390327118"><ele>480.0</ele><time>2026-04-11T07:56:21Z</time></trkpt><trkpt lat="43.415301719695606" lon="11.460756840078108"><ele>480.0</ele><time>2026-04-11T07:56:26Z</time></trkpt><trkpt lat="43.41536053437513" lon="11.460814142986877"><ele>480.0</ele><time>2026-04-11T07:56:31Z</time></trkpt><trkpt lat="43.41540669451148" lon="11.460879956453512"><ele>480.0</ele><time>2026-04-11T07:56:35Z</time></trkpt><trkpt lat="43.415428208865386" lon="11.46097358768403"><ele>480.0</ele><time>2026-04-11T07:56:39Z</time></trkpt><trkpt lat="43.41545808862175" lon="11.46106769214889"><ele>480.0</ele><time>2026-04-11T07:56:43Z</time></trkpt><trkpt lat="43.41544920220364" lon="11.461169342302929"><ele>480.0</ele><time>2026-04-11T07:56:47Z</time></trkpt><trkpt lat="43.41544419740965" lon="11.461258447535421"><ele>480.0</ele><time>2026-04-11T07:56:50Z</time></trkpt><trkpt lat="43.415411189726605" lon="11.461345713427063"><ele>480.0</ele><time>2026-04-11T07:56:54Z</time></trkpt><trkpt lat="43.41540149224625" lon="11.461443970800625"><ele>480.0</ele><time>2026-04-11T07:56:58Z</time></trkpt><trkpt lat="43.415387135208455" lon="11.46153114139473"><ele>481.42857142857144</ele><time>2026-04-11T07:57:02Z</time></trkpt><trkpt lat="43.41538384902461" lon="11.4616278403332"><ele>482.85714285714283</ele><time>2026-04-11T07:57:06Z</time></trkpt><trkpt lat="43.41536598169892" lon="11.461728812166234"><ele>484.2857142857143</ele><time>2026-04-11T07:57:11Z</time></trkpt><trkpt lat="43.41529632407178" lon="11.46173744965232"><ele>485.7142857142857</ele><time>2026-04-11T07:57:18Z</time></trkpt><trkpt lat="43.41526085261433" lon="11.461641118570782"><ele>487.1428571428571</ele><time>2026-04-11T07:57:23Z</time></trkpt><trkpt lat="43.41523594510119" lon="11.461550726073785"><ele>488.57142857142856</ele><time>2026-04-11T07:57:28Z</time></trkpt><trkpt lat="43.41521506994839" lon="11.461463082529445"><ele>490.0</ele><time>2026-04-11T07:57:32Z</time></trkpt><trkpt lat="43.41515437511965" lon="11.461394582991941"><ele>490.0</ele><time>2026-04-11T07:57:36Z</time></trkpt><trkpt lat="43.41509913253657" lon="11.461349026780706"><ele>490.0</ele><time>2026-04-11T07:57:40Z</time></trkpt><trkpt lat="43.41503179367261" lon="11.461373055915098"><ele>490.0</ele><time>2026-04-11T07:57:45Z</time></trkpt><trkpt lat="43.414986487863516" lon="11.461456965837302"><ele>490.0</ele><time>2026-04-11T07:57:50Z</time></trkpt><trkpt lat="43.414969766017364" lon="11.461554656901022"><ele>490.0</ele><time>2026-04-11T07:57:55Z</time></trkpt><trkpt lat="43.41495338479822" lon="11.461656029014877"><ele>490.0</ele><time>2026-04-11T07:58:00Z</time></trkpt><trkpt lat="43.41494508038244" lon="11.461742955850799"><ele>490.0</ele><time>2026-04-11T07:58:04Z</time></trkpt><trkpt lat="43.41492548789297" lon="11.461827602027158"><ele>490.0</ele><time>2026-04-11T07:58:07.999Z</time></trkpt><trkpt lat="43.41489772024823" lon="11.461919369073014"><ele>490.0</ele><time>2026-04-11T07:58:12.999Z</time></trkpt><trkpt lat="43.41485959430051" lon="11.461999426760752"><ele>490.0</ele><time>2026-04-11T07:58:17.999Z</time></trkpt><trkpt lat="43.41480641485181" lon="11.462060208816183"><ele>490.0</ele><time>2026-04-11T07:58:23Z</time></trkpt><trkpt lat="43.41475907306544" lon="11.462130462827028"><ele>490.0</ele><time>2026-04-11T07:58:28Z</time></trkpt><trkpt lat="43.4147199768084" lon="11.462220820607056"><ele>490.0</ele><time>2026-04-11T07:58:34Z</time></trkpt><trkpt lat="43.41469935240645" lon="11.462302806952314"><ele>490.0</ele><time>2026-04-11T07:58:38Z</time></trkpt><trkpt lat="43.41468347279399" lon="11.462391077429947"><ele>491.1428571428571</ele><time>2026-04-11T07:58:42Z</time></trkpt><trkpt lat="43.4146601975819" lon="11.46249258121614"><ele>492.2857142857143</ele><time>2026-04-11T07:58:46Z</time></trkpt><trkpt lat="43.414638100112576" lon="11.462590970146572"><ele>493.42857142857144</ele><time>2026-04-11T07:58:51Z</time></trkpt><trkpt lat="43.414594183603114" lon="11.462673119771603"><ele>494.57142857142856</ele><time>2026-04-11T07:58:55Z</time></trkpt><trkpt lat="43.414573415804426" lon="11.46275744187362"><ele>495.71428571428567</ele><time>2026-04-11T07:58:58Z</time></trkpt><trkpt lat="43.414544207577" lon="11.46285676600462"><ele>496.85714285714283</ele><time>2026-04-11T07:59:03Z</time></trkpt><trkpt lat="43.41453047564751" lon="11.462953575755257"><ele>498.0</ele><time>2026-04-11T07:59:08Z</time></trkpt><trkpt lat="43.41453756797673" lon="11.463059212816178"><ele>502.2857142857143</ele><time>2026-04-11T07:59:13Z</time></trkpt><trkpt lat="43.414553478298615" lon="11.463176100429793"><ele>506.57142857142856</ele><time>2026-04-11T07:59:18Z</time></trkpt><trkpt lat="43.414552596294044" lon="11.4632729665392"><ele>510.85714285714283</ele><time>2026-04-11T07:59:21Z</time></trkpt><trkpt lat="43.414553822457684" lon="11.463374496962158"><ele>515.1428571428571</ele><time>2026-04-11T07:59:25Z</time></trkpt><trkpt lat="43.41456202097938" lon="11.463467148946433"><ele>519.4285714285714</ele><time>2026-04-11T07:59:28Z</time></trkpt><trkpt lat="43.41456220650519" lon="11.463566023076185"><ele>523.7142857142857</ele><time>2026-04-11T07:59:31Z</time></trkpt><trkpt lat="43.41454411747205" lon="11.46365761019445"><ele>528.0</ele><time>2026-04-11T07:59:34Z</time></trkpt><trkpt lat="43.41453028163685" lon="11.463761049582159"><ele>527.3333333333334</ele><time>2026-04-11T07:59:37Z</time></trkpt><trkpt lat="43.41451277699287" lon="11.46387694030914"><ele>526.6666666666666</ele><time>2026-04-11T07:59:41Z</time></trkpt><trkpt lat="43.414491169196154" lon="11.463964225756502"><ele>526.0</ele><time>2026-04-11T07:59:45Z</time></trkpt><trkpt lat="43.41445181081103" lon="11.464050477217253"><ele>525.3333333333333</ele><time>2026-04-11T07:59:49Z</time></trkpt><trkpt lat="43.41439415163154" lon="11.46412108913578"><ele>524.6666666666666</ele><time>2026-04-11T07:59:53Z</time></trkpt><trkpt lat="43.4143333663401" lon="11.46418609866939"><ele>524.0</ele><time>2026-04-11T07:59:57Z</time></trkpt><trkpt lat="43.41426271209293" lon="11.464254491944311"><ele>524.0</ele><time>2026-04-11T08:00:01Z</time></trkpt><trkpt lat="43.41421359462236" lon="11.464317659499187"><ele>524.0</ele><time>2026-04-11T08:00:04Z</time></trkpt><trkpt lat="43.41414783219459" lon="11.46436628822866"><ele>524.0</ele><time>2026-04-11T08:00:07Z</time></trkpt><trkpt lat="43.41409106763738" lon="11.464411600681188"><ele>524.0</ele><time>2026-04-11T08:00:10Z</time></trkpt><trkpt lat="43.414028743733176" lon="11.464452156719839"><ele>524.0</ele><time>2026-04-11T08:00:13.999Z</time></trkpt><trkpt lat="43.41395389551095" lon="11.464468543082452"><ele>524.0</ele><time>2026-04-11T08:00:17.999Z</time></trkpt><trkpt lat="43.41388630694404" lon="11.464494272245208"><ele>524.0</ele><time>2026-04-11T08:00:21.999Z</time></trkpt><trkpt lat="43.413829140304" lon="11.464547765961585"><ele>525.1666666666666</ele><time>2026-04-11T08:00:26.999Z</time></trkpt><trkpt lat="43.41374404109016" lon="11.464579932669402"><ele>526.3333333333333</ele><time>2026-04-11T08:00:31Z</time></trkpt><trkpt lat="43.413656939817876" lon="11.464604656149447"><ele>527.5</ele><time>2026-04-11T08:00:35Z</time></trkpt><trkpt lat="43.41359357520471" lon="11.464631560741001"><ele>528.6666666666666</ele><time>2026-04-11T08:00:38Z</time></trkpt><trkpt lat="43.41351799835367" lon="11.464623732626306"><ele>529.8333333333334</ele><time>2026-04-11T08:00:41Z</time></trkpt><trkpt lat="43.41343982473126" lon="11.464624210179547"><ele>531.0</ele><time>2026-04-11T08:00:45Z</time></trkpt><trkpt lat="43.41337400716006" lon="11.464607490509634"><ele>531.0</ele><time>2026-04-11T08:00:48Z</time></trkpt><trkpt lat="43.413310363313265" lon="11.464569959538782"><ele>531.0</ele><time>2026-04-11T08:00:51Z</time></trkpt><trkpt lat="43.41324642252306" lon="11.464527570339426"><ele>531.0</ele><time>2026-04-11T08:00:55Z</time></trkpt><trkpt lat="43.41318881366482" lon="11.464489218054222"><ele>531.0</ele><time>2026-04-11T08:00:59Z</time></trkpt><trkpt lat="43.4131232452815" lon="11.464445956089225"><ele>531.0</ele><time>2026-04-11T08:01:03Z</time></trkpt><trkpt lat="43.413062826672416" lon="11.464404272219669"><ele>531.0</ele><time>2026-04-11T08:01:06Z</time></trkpt><trkpt lat="43.41299511165792" lon="11.464404209323359"><ele>531.0</ele><time>2026-04-11T08:01:10Z</time></trkpt><trkpt lat="43.412928962875476" lon="11.46440735635616"><ele>528.5714285714286</ele><time>2026-04-11T08:01:13Z</time></trkpt><trkpt lat="43.412846328538414" lon="11.464385327139258"><ele>526.1428571428572</ele><time>2026-04-11T08:02:02Z</time></trkpt><trkpt lat="43.4127816683545" lon="11.464355367538321"><ele>523.7142857142858</ele><time>2026-04-11T08:02:05Z</time></trkpt><trkpt lat="43.4127098871543" lon="11.464348285660375"><ele>521.2857142857143</ele><time>2026-04-11T08:02:09Z</time></trkpt><trkpt lat="43.41264336346612" lon="11.464358955269859"><ele>518.8571428571429</ele><time>2026-04-11T08:02:38Z</time></trkpt><trkpt lat="43.412561779564754" lon="11.46434688623646"><ele>516.4285714285714</ele><time>2026-04-11T08:02:44Z</time></trkpt><trkpt lat="43.41249744063553" lon="11.464361702578335"><ele>514.0</ele><time>2026-04-11T08:02:46Z</time></trkpt><trkpt lat="43.412426755332454" lon="11.464391750690366"><ele>514.0</ele><time>2026-04-11T08:02:48Z</time></trkpt><trkpt lat="43.41234749531456" lon="11.464427895462915"><ele>514.0</ele><time>2026-04-11T08:02:50Z</time></trkpt><trkpt lat="43.4122623372998" lon="11.4644866261031"><ele>514.0</ele><time>2026-04-11T08:02:52Z</time></trkpt><trkpt lat="43.41215755621775" lon="11.464559321373695"><ele>514.0</ele><time>2026-04-11T08:02:54Z</time></trkpt><trkpt lat="43.41204172622515" lon="11.464631291193193"><ele>514.0</ele><time>2026-04-11T08:02:56Z</time></trkpt><trkpt lat="43.41198490899944" lon="11.464671381185168"><ele>512.4285714285714</ele><time>2026-04-11T08:02:57Z</time></trkpt><trkpt lat="43.411927979147805" lon="11.464711617435269"><ele>510.8571428571429</ele><time>2026-04-11T08:02:58Z</time></trkpt><trkpt lat="43.411864419137835" lon="11.464752815673512"><ele>509.28571428571433</ele><time>2026-04-11T08:02:59Z</time></trkpt><trkpt lat="43.41179713363732" lon="11.4647881139589"><ele>507.7142857142857</ele><time>2026-04-11T08:03:00Z</time></trkpt><trkpt lat="43.41172686154463" lon="11.464791320291106"><ele>506.1428571428572</ele><time>2026-04-11T08:03:01Z</time></trkpt><trkpt lat="43.4116644077688" lon="11.46482661319764"><ele>504.5714285714286</ele><time>2026-04-11T08:03:02Z</time></trkpt><trkpt lat="43.41159882871906" lon="11.464797246814422"><ele>503.0</ele><time>2026-04-11T08:03:03Z</time></trkpt><trkpt lat="43.41148245841316" lon="11.464741393188346"><ele>503.0</ele><time>2026-04-11T08:03:05Z</time></trkpt><trkpt lat="43.411415023844285" lon="11.464700468481963"><ele>503.00000000000006</ele><time>2026-04-11T08:03:06Z</time></trkpt><trkpt lat="43.41135370761588" lon="11.464658422277333"><ele>503.0</ele><time>2026-04-11T08:03:07Z</time></trkpt><trkpt lat="43.41128562334316" lon="11.46460913912896"><ele>503.0</ele><time>2026-04-11T08:03:08Z</time></trkpt><trkpt lat="43.41121722051862" lon="11.464558666522798"><ele>503.00000000000006</ele><time>2026-04-11T08:03:09Z</time></trkpt><trkpt lat="43.411150231579384" lon="11.464506702454416"><ele>503.0</ele><time>2026-04-11T08:03:10Z</time></trkpt><trkpt lat="43.41108384759407" lon="11.464457483527822"><ele>503.0</ele><time>2026-04-11T08:03:11Z</time></trkpt><trkpt lat="43.41101338570051" lon="11.46443963698517"><ele>501.49999999999994</ele><time>2026-04-11T08:03:12Z</time></trkpt><trkpt lat="43.410945205112505" lon="11.464414359394441"><ele>500.0</ele><time>2026-04-11T08:03:13Z</time></trkpt><trkpt lat="43.410858075582716" lon="11.464405378139698"><ele>498.5</ele><time>2026-04-11T08:03:14Z</time></trkpt><trkpt lat="43.41078292979909" lon="11.464425401072791"><ele>497.0</ele><time>2026-04-11T08:03:15Z</time></trkpt><trkpt lat="43.41069697809376" lon="11.464441588941858"><ele>495.49999999999994</ele><time>2026-04-11T08:03:16Z</time></trkpt><trkpt lat="43.41062184880172" lon="11.464455888662135"><ele>494.0</ele><time>2026-04-11T08:03:17Z</time></trkpt><trkpt lat="43.410544296291654" lon="11.46446243551861"><ele>493.66666666666663</ele><time>2026-04-11T08:03:18Z</time></trkpt><trkpt lat="43.410466331496096" lon="11.464462022942925"><ele>493.3333333333333</ele><time>2026-04-11T08:03:19Z</time></trkpt><trkpt lat="43.410390244023844" lon="11.464454200177078"><ele>493.0</ele><time>2026-04-11T08:03:20Z</time></trkpt><trkpt lat="43.410317572937835" lon="11.464443157386858"><ele>492.66666666666663</ele><time>2026-04-11T08:03:21Z</time></trkpt><trkpt lat="43.41024163337003" lon="11.464457248083782"><ele>492.3333333333333</ele><time>2026-04-11T08:03:22Z</time></trkpt><trkpt lat="43.41016671105183" lon="11.464460087735112"><ele>492.0</ele><time>2026-04-11T08:03:23Z</time></trkpt><trkpt lat="43.41009246994426" lon="11.464465678316056"><ele>492.00000000000006</ele><time>2026-04-11T08:03:24Z</time></trkpt><trkpt lat="43.41001778481205" lon="11.464468116746563"><ele>492.0</ele><time>2026-04-11T08:03:25Z</time></trkpt><trkpt lat="43.40994636963773" lon="11.464469028553177"><ele>492.00000000000006</ele><time>2026-04-11T08:03:26Z</time></trkpt><trkpt lat="43.409875295343696" lon="11.46446782461778"><ele>492.00000000000006</ele><time>2026-04-11T08:03:27Z</time></trkpt><trkpt lat="43.40980671636028" lon="11.464469859959168"><ele>492.0</ele><time>2026-04-11T08:03:28Z</time></trkpt><trkpt lat="43.409739382826416" lon="11.464472965001162"><ele>492.00000000000006</ele><time>2026-04-11T08:03:29Z</time></trkpt><trkpt lat="43.40967128790847" lon="11.464472153599473"><ele>492.00000000000006</ele><time>2026-04-11T08:03:30Z</time></trkpt><trkpt lat="43.409607835092174" lon="11.464474239487124"><ele>492.20000000000005</ele><time>2026-04-11T08:03:31Z</time></trkpt><trkpt lat="43.40954474692167" lon="11.464477010997006"><ele>492.40000000000003</ele><time>2026-04-11T08:03:32Z</time></trkpt><trkpt lat="43.409420647867464" lon="11.464484919146487"><ele>492.59999999999997</ele><time>2026-04-11T08:03:34Z</time></trkpt><trkpt lat="43.40930002606637" lon="11.464489219222699"><ele>492.79999999999995</ele><time>2026-04-11T08:03:36Z</time></trkpt><trkpt lat="43.409184424467654" lon="11.464502398066607"><ele>493.0</ele><time>2026-04-11T08:03:38Z</time></trkpt><trkpt lat="43.40907334368328" lon="11.4645189831287"><ele>493.00000000000006</ele><time>2026-04-11T08:03:40Z</time></trkpt><trkpt lat="43.40895994234821" lon="11.464531587088825"><ele>493.0</ele><time>2026-04-11T08:03:42Z</time></trkpt><trkpt lat="43.408836656155565" lon="11.464541683876776"><ele>493.0</ele><time>2026-04-11T08:03:44Z</time></trkpt><trkpt lat="43.40877279465991" lon="11.464547222086118"><ele>493.0</ele><time>2026-04-11T08:03:45Z</time></trkpt><trkpt lat="43.408705425103776" lon="11.46454900394587"><ele>493.00000000000006</ele><time>2026-04-11T08:03:46Z</time></trkpt><trkpt lat="43.40864004648902" lon="11.464554701661704"><ele>493.0</ele><time>2026-04-11T08:03:47Z</time></trkpt><trkpt lat="43.408567247423214" lon="11.46454671371078"><ele>492.33333333333337</ele><time>2026-04-11T08:03:48Z</time></trkpt><trkpt lat="43.40849180853837" lon="11.464535827565683"><ele>491.6666666666667</ele><time>2026-04-11T08:03:49Z</time></trkpt><trkpt lat="43.4084126704547" lon="11.464532311550554"><ele>491.0</ele><time>2026-04-11T08:03:50Z</time></trkpt><trkpt lat="43.40832750593828" lon="11.464526393289852"><ele>490.33333333333337</ele><time>2026-04-11T08:03:51Z</time></trkpt><trkpt lat="43.40823494516845" lon="11.464526014953407"><ele>489.6666666666667</ele><time>2026-04-11T08:03:52Z</time></trkpt><trkpt lat="43.40813629426862" lon="11.46452768968982"><ele>489.0</ele><time>2026-04-11T08:03:53Z</time></trkpt><trkpt lat="43.40803286293539" lon="11.464532911842701"><ele>487.0</ele><time>2026-04-11T08:03:54Z</time></trkpt><trkpt lat="43.40792414352502" lon="11.464533194831354"><ele>485.0</ele><time>2026-04-11T08:03:55Z</time></trkpt><trkpt lat="43.407812779126054" lon="11.46454081648226"><ele>483.0</ele><time>2026-04-11T08:03:56Z</time></trkpt><trkpt lat="43.40770379459172" lon="11.464552255575013"><ele>481.0</ele><time>2026-04-11T08:03:57Z</time></trkpt><trkpt lat="43.407602364492" lon="11.464569780931335"><ele>479.0</ele><time>2026-04-11T08:03:58Z</time></trkpt><trkpt lat="43.40750291295714" lon="11.46458541812045"><ele>478.99999999999994</ele><time>2026-04-11T08:03:59Z</time></trkpt><trkpt lat="43.40740913759648" lon="11.464598881517498"><ele>479.0</ele><time>2026-04-11T08:04:00Z</time></trkpt><trkpt lat="43.40731822444102" lon="11.464614229289348"><ele>479.0</ele><time>2026-04-11T08:04:01Z</time></trkpt><trkpt lat="43.40723008609066" lon="11.464630134624223"><ele>479.0</ele><time>2026-04-11T08:04:02Z</time></trkpt><trkpt lat="43.407146401812525" lon="11.46463896856771"><ele>478.99999999999994</ele><time>2026-04-11T08:04:03Z</time></trkpt><trkpt lat="43.40706548566222" lon="11.464642644260493"><ele>479.0</ele><time>2026-04-11T08:04:04Z</time></trkpt><trkpt lat="43.40698877648191" lon="11.464644456540004"><ele>478.85714285714283</ele><time>2026-04-11T08:04:05Z</time></trkpt><trkpt lat="43.40691399691998" lon="11.464636540396038"><ele>478.7142857142858</ele><time>2026-04-11T08:04:06Z</time></trkpt><trkpt lat="43.40684030904456" lon="11.464616178612514"><ele>478.5714285714286</ele><time>2026-04-11T08:04:07Z</time></trkpt><trkpt lat="43.40676892895763" lon="11.46458781108168"><ele>478.42857142857144</ele><time>2026-04-11T08:04:08Z</time></trkpt><trkpt lat="43.40669701009074" lon="11.464559211637663"><ele>478.28571428571433</ele><time>2026-04-11T08:04:09Z</time></trkpt><trkpt lat="43.406625724620746" lon="11.464527811165608"><ele>478.1428571428572</ele><time>2026-04-11T08:04:10Z</time></trkpt><trkpt lat="43.40655412378464" lon="11.46449654208547"><ele>478.00000000000006</ele><time>2026-04-11T08:04:11Z</time></trkpt><trkpt lat="43.406481968492365" lon="11.464470664866436"><ele>477.33333333333337</ele><time>2026-04-11T08:04:12Z</time></trkpt><trkpt lat="43.406405309893366" lon="11.464449103877907"><ele>476.6666666666667</ele><time>2026-04-11T08:04:13Z</time></trkpt><trkpt lat="43.406329461442475" lon="11.464427207807436"><ele>476.0</ele><time>2026-04-11T08:04:14Z</time></trkpt><trkpt lat="43.40625885284708" lon="11.464406421811367"><ele>475.33333333333337</ele><time>2026-04-11T08:04:15Z</time></trkpt><trkpt lat="43.40618689763697" lon="11.464383548245927"><ele>474.6666666666667</ele><time>2026-04-11T08:04:16Z</time></trkpt><trkpt lat="43.40611096901176" lon="11.46435069896945"><ele>474.0</ele><time>2026-04-11T08:04:17Z</time></trkpt><trkpt lat="43.40602813657906" lon="11.46430344549872"><ele>473.0</ele><time>2026-04-11T08:04:18Z</time></trkpt><trkpt lat="43.405943550317566" lon="11.464249304405921"><ele>472.0</ele><time>2026-04-11T08:04:19Z</time></trkpt><trkpt lat="43.40586842317585" lon="11.464192392726904"><ele>471.0</ele><time>2026-04-11T08:04:20Z</time></trkpt><trkpt lat="43.40579611093082" lon="11.464132507885953"><ele>470.0</ele><time>2026-04-11T08:04:20.999Z</time></trkpt><trkpt lat="43.40571844893295" lon="11.464068698566138"><ele>469.0</ele><time>2026-04-11T08:04:21.999Z</time></trkpt><trkpt lat="43.405642888450394" lon="11.464003714260247"><ele>468.0</ele><time>2026-04-11T08:04:22.999Z</time></trkpt><trkpt lat="43.40556729761038" lon="11.463936711559992"><ele>465.0</ele><time>2026-04-11T08:04:23.999Z</time></trkpt><trkpt lat="43.405492664433865" lon="11.463863966066109"><ele>461.99999999999994</ele><time>2026-04-11T08:04:24.999Z</time></trkpt><trkpt lat="43.40541363838099" lon="11.46378641381302"><ele>458.99999999999994</ele><time>2026-04-11T08:04:25.999Z</time></trkpt><trkpt lat="43.40533218954503" lon="11.46369558366756"><ele>456.0</ele><time>2026-04-11T08:04:26.999Z</time></trkpt><trkpt lat="43.40526229316783" lon="11.463575360962839"><ele>453.0</ele><time>2026-04-11T08:04:27.999Z</time></trkpt><trkpt lat="43.40517844480952" lon="11.46346963509606"><ele>453.0</ele><time>2026-04-11T08:04:28.999Z</time></trkpt><trkpt lat="43.40508138129327" lon="11.46338140745826"><ele>453.0</ele><time>2026-04-11T08:04:29.999Z</time></trkpt><trkpt lat="43.405015410470064" lon="11.463251843022489"><ele>453.0</ele><time>2026-04-11T08:04:30.999Z</time></trkpt><trkpt lat="43.40494668667862" lon="11.46312916102524"><ele>453.0</ele><time>2026-04-11T08:04:31.999Z</time></trkpt><trkpt lat="43.40488165201207" lon="11.463007794272766"><ele>452.2</ele><time>2026-04-11T08:04:32.999Z</time></trkpt><trkpt lat="43.40482130112746" lon="11.46289221770704"><ele>451.4</ele><time>2026-04-11T08:04:33.999Z</time></trkpt><trkpt lat="43.404738057132455" lon="11.462801231179894"><ele>450.59999999999997</ele><time>2026-04-11T08:04:34.999Z</time></trkpt><trkpt lat="43.4046986762561" lon="11.462682290210047"><ele>449.79999999999995</ele><time>2026-04-11T08:04:35.999Z</time></trkpt><trkpt lat="43.40467448848273" lon="11.462562749925555"><ele>449.0</ele><time>2026-04-11T08:04:36.999Z</time></trkpt><trkpt lat="43.40466284432975" lon="11.462452640378098"><ele>449.0</ele><time>2026-04-11T08:04:37.999Z</time></trkpt><trkpt lat="43.4046891092897" lon="11.462351061066263"><ele>449.0</ele><time>2026-04-11T08:04:38.999Z</time></trkpt><trkpt lat="43.40467487294476" lon="11.462261230847613"><ele>449.0</ele><time>2026-04-11T08:04:40Z</time></trkpt><trkpt lat="43.40464987935029" lon="11.462103523261806"><ele>449.0</ele><time>2026-04-11T08:04:42Z</time></trkpt><trkpt lat="43.4046284134249" lon="11.461971691973368"><ele>449.0</ele><time>2026-04-11T08:04:44Z</time></trkpt><trkpt lat="43.4046057724008" lon="11.461841632694664"><ele>450.4</ele><time>2026-04-11T08:04:46Z</time></trkpt><trkpt lat="43.40458262198749" lon="11.461720921508638"><ele>451.79999999999995</ele><time>2026-04-11T08:04:48Z</time></trkpt><trkpt lat="43.40455197732815" lon="11.461598596229237"><ele>453.20000000000005</ele><time>2026-04-11T08:04:50Z</time></trkpt><trkpt lat="43.40450823602873" lon="11.461484825668476"><ele>454.6</ele><time>2026-04-11T08:04:52Z</time></trkpt><trkpt lat="43.40445808560704" lon="11.46137543598558"><ele>456.0</ele><time>2026-04-11T08:04:54Z</time></trkpt><trkpt lat="43.40440551987164" lon="11.461265892840094"><ele>456.4</ele><time>2026-04-11T08:04:56Z</time></trkpt><trkpt lat="43.40434953265885" lon="11.46114915601463"><ele>456.8</ele><time>2026-04-11T08:04:58Z</time></trkpt><trkpt lat="43.40428415560435" lon="11.461049849165288"><ele>457.19999999999993</ele><time>2026-04-11T08:05:00Z</time></trkpt><trkpt lat="43.40424554053623" lon="11.460926554709667"><ele>457.59999999999997</ele><time>2026-04-11T08:05:02Z</time></trkpt><trkpt lat="43.40419429914572" lon="11.460810187255372"><ele>458.0</ele><time>2026-04-11T08:05:04Z</time></trkpt><trkpt lat="43.40413359515817" lon="11.460701530537156"><ele>458.0</ele><time>2026-04-11T08:05:06Z</time></trkpt><trkpt lat="43.404094727412755" lon="11.460578261665862"><ele>457.99999999999994</ele><time>2026-04-11T08:05:08Z</time></trkpt><trkpt lat="43.40407757466117" lon="11.460447796386076"><ele>457.99999999999994</ele><time>2026-04-11T08:05:10Z</time></trkpt><trkpt lat="43.40407762761154" lon="11.460325149674652"><ele>458.0</ele><time>2026-04-11T08:05:12Z</time></trkpt><trkpt lat="43.40409405178714" lon="11.460207936491324"><ele>458.0</ele><time>2026-04-11T08:05:14Z</time></trkpt><trkpt lat="43.40410561741967" lon="11.4600862329539"><ele>457.59999999999997</ele><time>2026-04-11T08:05:16Z</time></trkpt><trkpt lat="43.40412545783291" lon="11.459963584437649"><ele>457.19999999999993</ele><time>2026-04-11T08:05:18Z</time></trkpt><trkpt lat="43.40414580392051" lon="11.459839268923544"><ele>456.8</ele><time>2026-04-11T08:05:20Z</time></trkpt><trkpt lat="43.40416733240035" lon="11.459717976406672"><ele>456.4</ele><time>2026-04-11T08:05:22Z</time></trkpt><trkpt lat="43.40419479253846" lon="11.459590977246492"><ele>456.0</ele><time>2026-04-11T08:05:24Z</time></trkpt><trkpt lat="43.404237153199986" lon="11.459466019005701"><ele>455.8</ele><time>2026-04-11T08:05:26Z</time></trkpt><trkpt lat="43.4042968252186" lon="11.459342645701952"><ele>455.6</ele><time>2026-04-11T08:05:28Z</time></trkpt><trkpt lat="43.40436645707399" lon="11.459227334320211"><ele>455.4</ele><time>2026-04-11T08:05:30Z</time></trkpt><trkpt lat="43.404437932997276" lon="11.459123186211015"><ele>455.2</ele><time>2026-04-11T08:05:32Z</time></trkpt><trkpt lat="43.40450476589654" lon="11.459024794253741"><ele>455.0</ele><time>2026-04-11T08:05:34Z</time></trkpt><trkpt lat="43.404567365000474" lon="11.45893784436941"><ele>455.0</ele><time>2026-04-11T08:05:36Z</time></trkpt><trkpt lat="43.40463179246483" lon="11.458862817750928"><ele>455.0</ele><time>2026-04-11T08:05:38Z</time></trkpt><trkpt lat="43.40469258583071" lon="11.458780898300956"><ele>455.0</ele><time>2026-04-11T08:05:40Z</time></trkpt><trkpt lat="43.40474970779524" lon="11.458677236467059"><ele>455.0</ele><time>2026-04-11T08:05:42Z</time></trkpt><trkpt lat="43.40478748606998" lon="11.458540810551352"><ele>455.0</ele><time>2026-04-11T08:05:44Z</time></trkpt><trkpt lat="43.404844645771554" lon="11.45840166548854"><ele>454.2</ele><time>2026-04-11T08:05:46Z</time></trkpt><trkpt lat="43.40487819474374" lon="11.458256699004345"><ele>453.4</ele><time>2026-04-11T08:05:48Z</time></trkpt><trkpt lat="43.40493804954204" lon="11.458134292988138"><ele>452.6</ele><time>2026-04-11T08:05:50Z</time></trkpt><trkpt lat="43.40502006997598" lon="11.458007850080998"><ele>451.8</ele><time>2026-04-11T08:05:52Z</time></trkpt><trkpt lat="43.40503549196351" lon="11.457906891307706"><ele>451.0</ele><time>2026-04-11T08:05:53Z</time></trkpt><trkpt lat="43.405041244290544" lon="11.4577986306765"><ele>449.4</ele><time>2026-04-11T08:05:54Z</time></trkpt><trkpt lat="43.405034821390885" lon="11.457674756166039"><ele>447.8</ele><time>2026-04-11T08:05:55Z</time></trkpt><trkpt lat="43.40501892636977" lon="11.457547658612757"><ele>446.19999999999993</ele><time>2026-04-11T08:05:56Z</time></trkpt><trkpt lat="43.40502497351449" lon="11.457413079549466"><ele>444.59999999999997</ele><time>2026-04-11T08:05:57Z</time></trkpt><trkpt lat="43.40501103735486" lon="11.457280723696488"><ele>443.0</ele><time>2026-04-11T08:05:58Z</time></trkpt><trkpt lat="43.40499653731897" lon="11.457166182951754"><ele>441.8333333333333</ele><time>2026-04-11T08:05:59Z</time></trkpt><trkpt lat="43.404973176466385" lon="11.457023347061718"><ele>440.66666666666663</ele><time>2026-04-11T08:06:00Z</time></trkpt><trkpt lat="43.40494564454737" lon="11.45690655007591"><ele>439.5</ele><time>2026-04-11T08:06:01Z</time></trkpt><trkpt lat="43.40490791609485" lon="11.456799119047488"><ele>438.33333333333337</ele><time>2026-04-11T08:06:02Z</time></trkpt><trkpt lat="43.40487418688004" lon="11.456704744225169"><ele>437.1666666666667</ele><time>2026-04-11T08:06:03Z</time></trkpt><trkpt lat="43.40484553575843" lon="11.456617864132175"><ele>436.0</ele><time>2026-04-11T08:06:04Z</time></trkpt><trkpt lat="43.404807836565" lon="11.456484219311417"><ele>436.00000000000006</ele><time>2026-04-11T08:06:06Z</time></trkpt><trkpt lat="43.404827911899055" lon="11.456370205519029"><ele>436.0</ele><time>2026-04-11T08:06:08Z</time></trkpt><trkpt lat="43.40489885988569" lon="11.45635348373185"><ele>436.0</ele><time>2026-04-11T08:06:09Z</time></trkpt><trkpt lat="43.40496977375653" lon="11.456350943872481"><ele>436.0</ele><time>2026-04-11T08:06:10Z</time></trkpt><trkpt lat="43.40504060473851" lon="11.456369563763745"><ele>436.00000000000006</ele><time>2026-04-11T08:06:11Z</time></trkpt><trkpt lat="43.405118921814854" lon="11.456378022030941"><ele>436.0</ele><time>2026-04-11T08:06:12Z</time></trkpt><trkpt lat="43.40519733696834" lon="11.456388657027418"><ele>436.00000000000006</ele><time>2026-04-11T08:06:13Z</time></trkpt><trkpt lat="43.40527924690865" lon="11.456399828294066"><ele>436.0</ele><time>2026-04-11T08:06:14Z</time></trkpt><trkpt lat="43.405357330808314" lon="11.456409607742133"><ele>436.0</ele><time>2026-04-11T08:06:15Z</time></trkpt><trkpt lat="43.405432784844336" lon="11.456416602499504"><ele>436.0</ele><time>2026-04-11T08:06:16Z</time></trkpt><trkpt lat="43.405505849067424" lon="11.456398834353694"><ele>436.00000000000006</ele><time>2026-04-11T08:06:17Z</time></trkpt><trkpt lat="43.4055809656655" lon="11.456396263449614"><ele>436.0</ele><time>2026-04-11T08:06:18Z</time></trkpt><trkpt lat="43.40565920527556" lon="11.456362056664688"><ele>434.20000000000005</ele><time>2026-04-11T08:06:19Z</time></trkpt><trkpt lat="43.40573640979044" lon="11.456302353552907"><ele>432.40000000000003</ele><time>2026-04-11T08:06:20Z</time></trkpt><trkpt lat="43.40581065010898" lon="11.45622416334717"><ele>430.6</ele><time>2026-04-11T08:06:21Z</time></trkpt><trkpt lat="43.40587912041398" lon="11.45613005958141"><ele>428.8</ele><time>2026-04-11T08:06:22Z</time></trkpt><trkpt lat="43.4059427976901" lon="11.456019689657339"><ele>427.0</ele><time>2026-04-11T08:06:23Z</time></trkpt><trkpt lat="43.40599565493692" lon="11.455897143401794"><ele>426.8</ele><time>2026-04-11T08:06:24Z</time></trkpt><trkpt lat="43.406033397315" lon="11.455761045578054"><ele>426.6</ele><time>2026-04-11T08:06:24.999Z</time></trkpt><trkpt lat="43.40605760338564" lon="11.455619041802917"><ele>426.40000000000003</ele><time>2026-04-11T08:06:25.999Z</time></trkpt><trkpt lat="43.40607176009122" lon="11.45547780506494"><ele>426.20000000000005</ele><time>2026-04-11T08:06:26.999Z</time></trkpt><trkpt lat="43.40608850495554" lon="11.455336273256044"><ele>426.0</ele><time>2026-04-11T08:06:27.999Z</time></trkpt><trkpt lat="43.40611840240964" lon="11.45519845025717"><ele>425.3333333333333</ele><time>2026-04-11T08:06:28.999Z</time></trkpt><trkpt lat="43.40614312729801" lon="11.455067143074265"><ele>424.66666666666663</ele><time>2026-04-11T08:06:29.999Z</time></trkpt><trkpt lat="43.40617324655353" lon="11.454954857657727"><ele>424.0</ele><time>2026-04-11T08:06:30.999Z</time></trkpt><trkpt lat="43.40619881245864" lon="11.454854718600773"><ele>423.3333333333333</ele><time>2026-04-11T08:06:31.999Z</time></trkpt><trkpt lat="43.40623139035713" lon="11.454747222298892"><ele>422.66666666666663</ele><time>2026-04-11T08:06:32.999Z</time></trkpt><trkpt lat="43.40627790086963" lon="11.454645429675585"><ele>422.0</ele><time>2026-04-11T08:06:33.999Z</time></trkpt><trkpt lat="43.406332406112014" lon="11.45454815631219"><ele>420.0</ele><time>2026-04-11T08:06:34.999Z</time></trkpt><trkpt lat="43.4063950327761" lon="11.454450576426394"><ele>418.0</ele><time>2026-04-11T08:06:35.999Z</time></trkpt><trkpt lat="43.40644760985879" lon="11.454341332785342"><ele>416.0</ele><time>2026-04-11T08:06:36.999Z</time></trkpt><trkpt lat="43.40648815865915" lon="11.45421942154578"><ele>414.0</ele><time>2026-04-11T08:06:37.999Z</time></trkpt><trkpt lat="43.40652139771592" lon="11.454091905508326"><ele>412.0</ele><time>2026-04-11T08:06:38.999Z</time></trkpt><trkpt lat="43.40655095507022" lon="11.453966019927291"><ele>412.00000000000006</ele><time>2026-04-11T08:06:39.999Z</time></trkpt><trkpt lat="43.406567889380725" lon="11.453840296530014"><ele>412.0</ele><time>2026-04-11T08:06:40.999Z</time></trkpt><trkpt lat="43.40656606916227" lon="11.453717100958896"><ele>412.0</ele><time>2026-04-11T08:06:41.999Z</time></trkpt><trkpt lat="43.40654576938074" lon="11.453603123139578"><ele>412.0</ele><time>2026-04-11T08:06:42.999Z</time></trkpt><trkpt lat="43.40651279672908" lon="11.453503335822505"><ele>412.00000000000006</ele><time>2026-04-11T08:06:43.999Z</time></trkpt><trkpt lat="43.40648102214017" lon="11.453407923391369"><ele>412.0</ele><time>2026-04-11T08:06:45Z</time></trkpt><trkpt lat="43.40645676482105" lon="11.453308865168573"><ele>411.99999999999994</ele><time>2026-04-11T08:06:46Z</time></trkpt><trkpt lat="43.406444138786775" lon="11.453203384049022"><ele>412.0</ele><time>2026-04-11T08:06:47Z</time></trkpt><trkpt lat="43.40643970068005" lon="11.453100482861629"><ele>412.0</ele><time>2026-04-11T08:06:48Z</time></trkpt><trkpt lat="43.40644273559198" lon="11.452999563027594"><ele>412.0</ele><time>2026-04-11T08:06:49Z</time></trkpt><trkpt lat="43.40645708677097" lon="11.452901865842469"><ele>412.0</ele><time>2026-04-11T08:06:50Z</time></trkpt><trkpt lat="43.40649286268452" lon="11.452813863689817"><ele>411.99999999999994</ele><time>2026-04-11T08:06:51Z</time></trkpt><trkpt lat="43.40649548184814" lon="11.452715622007116"><ele>412.0</ele><time>2026-04-11T08:06:52Z</time></trkpt><trkpt lat="43.40650958734799" lon="11.452618881705545"><ele>411.50000000000006</ele><time>2026-04-11T08:06:53Z</time></trkpt><trkpt lat="43.406515803648844" lon="11.452518623797618"><ele>411.0</ele><time>2026-04-11T08:06:54Z</time></trkpt><trkpt lat="43.406521200637684" lon="11.452416370819876"><ele>410.5</ele><time>2026-04-11T08:06:55Z</time></trkpt><trkpt lat="43.406523496444706" lon="11.452311430102156"><ele>410.0</ele><time>2026-04-11T08:06:56Z</time></trkpt><trkpt lat="43.406519866110585" lon="11.452203128786337"><ele>409.50000000000006</ele><time>2026-04-11T08:06:57Z</time></trkpt><trkpt lat="43.40651565739359" lon="11.452094405542224"><ele>409.0</ele><time>2026-04-11T08:06:58Z</time></trkpt><trkpt lat="43.40650249708103" lon="11.45198679003355"><ele>409.2857142857143</ele><time>2026-04-11T08:06:59Z</time></trkpt><trkpt lat="43.406469578267476" lon="11.451888940222256"><ele>409.5714285714286</ele><time>2026-04-11T08:07:00Z</time></trkpt><trkpt lat="43.406436462041455" lon="11.451798201534148"><ele>409.8571428571429</ele><time>2026-04-11T08:07:01Z</time></trkpt><trkpt lat="43.40640135082696" lon="11.451711962436546"><ele>410.1428571428571</ele><time>2026-04-11T08:07:02Z</time></trkpt><trkpt lat="43.40636560428587" lon="11.451634135807542"><ele>410.42857142857144</ele><time>2026-04-11T08:07:03Z</time></trkpt><trkpt lat="43.406329754740916" lon="11.451559105645318"><ele>410.7142857142857</ele><time>2026-04-11T08:07:04Z</time></trkpt><trkpt lat="43.406292937169205" lon="11.451487072511457"><ele>411.0</ele><time>2026-04-11T08:07:05Z</time></trkpt><trkpt lat="43.40622108325476" lon="11.451351132970148"><ele>411.0</ele><time>2026-04-11T08:07:07Z</time></trkpt><trkpt lat="43.406145996605325" lon="11.451222983591947"><ele>411.0</ele><time>2026-04-11T08:07:09Z</time></trkpt><trkpt lat="43.406107894544355" lon="11.451153340326501"><ele>411.0</ele><time>2026-04-11T08:07:10Z</time></trkpt><trkpt lat="43.40606984938899" lon="11.451080483151436"><ele>411.0</ele><time>2026-04-11T08:07:11Z</time></trkpt><trkpt lat="43.40603309421734" lon="11.45100532800346"><ele>411.0</ele><time>2026-04-11T08:07:12Z</time></trkpt><trkpt lat="43.40599917826808" lon="11.450929949909781"><ele>411.0</ele><time>2026-04-11T08:07:13Z</time></trkpt><trkpt lat="43.40594693077884" lon="11.450772164489788"><ele>411.0</ele><time>2026-04-11T08:07:15Z</time></trkpt><trkpt lat="43.40592048143068" lon="11.450604957592196"><ele>411.0</ele><time>2026-04-11T08:07:17Z</time></trkpt><trkpt lat="43.405904137019014" lon="11.450519084697909"><ele>411.0</ele><time>2026-04-11T08:07:18Z</time></trkpt><trkpt lat="43.40587107791165" lon="11.450438282979162"><ele>411.0</ele><time>2026-04-11T08:07:19Z</time></trkpt><trkpt lat="43.405848450689305" lon="11.45035432439415"><ele>411.0</ele><time>2026-04-11T08:07:20Z</time></trkpt><trkpt lat="43.405819905556164" lon="11.450272703396204"><ele>411.0</ele><time>2026-04-11T08:07:21Z</time></trkpt><trkpt lat="43.40578363590919" lon="11.45019631474215"><ele>410.5</ele><time>2026-04-11T08:07:22Z</time></trkpt><trkpt lat="43.405749091954796" lon="11.45011617254847"><ele>410.0</ele><time>2026-04-11T08:07:23Z</time></trkpt><trkpt lat="43.40571961150628" lon="11.450025916858115"><ele>409.5</ele><time>2026-04-11T08:07:24Z</time></trkpt><trkpt lat="43.40568451930769" lon="11.449931958708001"><ele>409.0</ele><time>2026-04-11T08:07:25Z</time></trkpt><trkpt lat="43.40564202510149" lon="11.44984090166715"><ele>408.5</ele><time>2026-04-11T08:07:26Z</time></trkpt><trkpt lat="43.40559503205258" lon="11.449751902405316"><ele>408.0</ele><time>2026-04-11T08:07:27Z</time></trkpt><trkpt lat="43.40554683630101" lon="11.449663072559689"><ele>406.8333333333333</ele><time>2026-04-11T08:07:28Z</time></trkpt><trkpt lat="43.40549803345972" lon="11.449581500064454"><ele>405.66666666666663</ele><time>2026-04-11T08:07:29Z</time></trkpt><trkpt lat="43.40544531581828" lon="11.449499342064861"><ele>404.5</ele><time>2026-04-11T08:07:30Z</time></trkpt><trkpt lat="43.405390485274395" lon="11.44941388988848"><ele>403.3333333333333</ele><time>2026-04-11T08:07:31Z</time></trkpt><trkpt lat="43.40533667790624" lon="11.449324299174599"><ele>402.16666666666663</ele><time>2026-04-11T08:07:32Z</time></trkpt><trkpt lat="43.40528147882048" lon="11.44923570491113"><ele>401.0</ele><time>2026-04-11T08:07:33Z</time></trkpt><trkpt lat="43.405229441685954" lon="11.44915050264517"><ele>401.0</ele><time>2026-04-11T08:07:34Z</time></trkpt><trkpt lat="43.405184341676424" lon="11.449077854071636"><ele>401.0</ele><time>2026-04-11T08:07:35Z</time></trkpt><trkpt lat="43.405120740858756" lon="11.448961094983835"><ele>401.0</ele><time>2026-04-11T08:07:37Z</time></trkpt><trkpt lat="43.40511223613066" lon="11.448839806293877"><ele>401.0</ele><time>2026-04-11T08:07:39Z</time></trkpt><trkpt lat="43.405087628660496" lon="11.448720135084633"><ele>401.0</ele><time>2026-04-11T08:07:41Z</time></trkpt><trkpt lat="43.405004206133086" lon="11.448637738822207"><ele>400.6</ele><time>2026-04-11T08:07:43Z</time></trkpt><trkpt lat="43.404910673016516" lon="11.44857812577341"><ele>400.20000000000005</ele><time>2026-04-11T08:07:45Z</time></trkpt><trkpt lat="43.404826331707845" lon="11.44849942873491"><ele>399.79999999999995</ele><time>2026-04-11T08:07:47Z</time></trkpt><trkpt lat="43.404727123040665" lon="11.448412927800272"><ele>399.4</ele><time>2026-04-11T08:07:49Z</time></trkpt><trkpt lat="43.4046202426472" lon="11.448334920576468"><ele>399.0</ele><time>2026-04-11T08:07:51Z</time></trkpt><trkpt lat="43.40456607001488" lon="11.448290121200454"><ele>398.85714285714283</ele><time>2026-04-11T08:07:52Z</time></trkpt><trkpt lat="43.404511855807606" lon="11.448242956224393"><ele>398.7142857142857</ele><time>2026-04-11T08:07:53Z</time></trkpt><trkpt lat="43.40445366928403" lon="11.44819989252473"><ele>398.57142857142856</ele><time>2026-04-11T08:07:54Z</time></trkpt><trkpt lat="43.40439254685244" lon="11.44815755475047"><ele>398.42857142857144</ele><time>2026-04-11T08:07:55Z</time></trkpt><trkpt lat="43.40433082742507" lon="11.448110721327714"><ele>398.2857142857143</ele><time>2026-04-11T08:07:56Z</time></trkpt><trkpt lat="43.40426658281613" lon="11.448062559996021"><ele>398.1428571428571</ele><time>2026-04-11T08:07:57Z</time></trkpt><trkpt lat="43.404200848305734" lon="11.44801342323249"><ele>398.0</ele><time>2026-04-11T08:07:58Z</time></trkpt><trkpt lat="43.404134892601505" lon="11.447965349462548"><ele>398.16666666666663</ele><time>2026-04-11T08:07:59Z</time></trkpt><trkpt lat="43.404067931069115" lon="11.447920544129667"><ele>398.3333333333333</ele><time>2026-04-11T08:08:00Z</time></trkpt><trkpt lat="43.40399941462492" lon="11.44788071235177"><ele>398.5</ele><time>2026-04-11T08:08:01Z</time></trkpt><trkpt lat="43.40393000185608" lon="11.447844979924577"><ele>398.66666666666663</ele><time>2026-04-11T08:08:02Z</time></trkpt><trkpt lat="43.40385942315314" lon="11.447809873610678"><ele>398.8333333333333</ele><time>2026-04-11T08:08:03Z</time></trkpt><trkpt lat="43.403787257282595" lon="11.447776213298201"><ele>399.0</ele><time>2026-04-11T08:08:04Z</time></trkpt><trkpt lat="43.4037137568365" lon="11.44774527491601"><ele>399.0</ele><time>2026-04-11T08:08:05Z</time></trkpt><trkpt lat="43.40363894160473" lon="11.447720236899814"><ele>399.0</ele><time>2026-04-11T08:08:06Z</time></trkpt><trkpt lat="43.403564101005855" lon="11.447691871174543"><ele>399.0</ele><time>2026-04-11T08:08:07Z</time></trkpt><trkpt lat="43.40348975922385" lon="11.447657660075079"><ele>399.0</ele><time>2026-04-11T08:08:08Z</time></trkpt><trkpt lat="43.40341525256741" lon="11.44762176709206"><ele>399.0</ele><time>2026-04-11T08:08:09Z</time></trkpt><trkpt lat="43.40334017831268" lon="11.44758500981034"><ele>399.0</ele><time>2026-04-11T08:08:10Z</time></trkpt><trkpt lat="43.40326566970876" lon="11.447542789763204"><ele>399.0</ele><time>2026-04-11T08:08:11Z</time></trkpt><trkpt lat="43.4031912189793" lon="11.447497182580863"><ele>399.0</ele><time>2026-04-11T08:08:12Z</time></trkpt><trkpt lat="43.40311507903229" lon="11.447453379814467"><ele>399.0</ele><time>2026-04-11T08:08:13Z</time></trkpt><trkpt lat="43.40304029964916" lon="11.447409115993791"><ele>399.0</ele><time>2026-04-11T08:08:14Z</time></trkpt><trkpt lat="43.40296400289702" lon="11.447368884544243"><ele>399.0</ele><time>2026-04-11T08:08:15Z</time></trkpt><trkpt lat="43.40288840806512" lon="11.447330100551792"><ele>399.0</ele><time>2026-04-11T08:08:16Z</time></trkpt><trkpt lat="43.40281355556891" lon="11.447284158250898"><ele>399.0</ele><time>2026-04-11T08:08:17Z</time></trkpt><trkpt lat="43.40273925897907" lon="11.447240221561497"><ele>399.0</ele><time>2026-04-11T08:08:18Z</time></trkpt><trkpt lat="43.40266414139311" lon="11.447196907464596"><ele>399.0</ele><time>2026-04-11T08:08:19Z</time></trkpt><trkpt lat="43.40258831331829" lon="11.447148404798599"><ele>399.0</ele><time>2026-04-11T08:08:20Z</time></trkpt><trkpt lat="43.402509584307005" lon="11.44709948149002"><ele>399.0</ele><time>2026-04-11T08:08:21Z</time></trkpt><trkpt lat="43.402428115744975" lon="11.447050670710844"><ele>399.0</ele><time>2026-04-11T08:08:22Z</time></trkpt><trkpt lat="43.402345684559194" lon="11.447002085733105"><ele>399.0</ele><time>2026-04-11T08:08:23Z</time></trkpt><trkpt lat="43.402263350045594" lon="11.446953500622042"><ele>399.0</ele><time>2026-04-11T08:08:24Z</time></trkpt><trkpt lat="43.402181198491256" lon="11.44689899667672"><ele>399.0</ele><time>2026-04-11T08:08:25Z</time></trkpt><trkpt lat="43.402100810086715" lon="11.446835770827755"><ele>399.0</ele><time>2026-04-11T08:08:26Z</time></trkpt><trkpt lat="43.40201849820099" lon="11.44676564723095"><ele>399.0</ele><time>2026-04-11T08:08:27Z</time></trkpt><trkpt lat="43.40193783718194" lon="11.446691533482632"><ele>397.2</ele><time>2026-04-11T08:08:28Z</time></trkpt><trkpt lat="43.40185789231426" lon="11.446614774371517"><ele>395.4</ele><time>2026-04-11T08:08:29Z</time></trkpt><trkpt lat="43.40178196796514" lon="11.44652773374659"><ele>393.6</ele><time>2026-04-11T08:08:29.999Z</time></trkpt><trkpt lat="43.40170674190924" lon="11.446441313428583"><ele>391.8</ele><time>2026-04-11T08:08:30.999Z</time></trkpt><trkpt lat="43.401637411053635" lon="11.446347360869247"><ele>390.0</ele><time>2026-04-11T08:08:31.999Z</time></trkpt><trkpt lat="43.40156498072822" lon="11.446254260477994"><ele>390.0</ele><time>2026-04-11T08:08:32.999Z</time></trkpt><trkpt lat="43.4014901823717" lon="11.446164332944505"><ele>390.0</ele><time>2026-04-11T08:08:33.999Z</time></trkpt><trkpt lat="43.40141584277576" lon="11.44606931327926"><ele>390.0</ele><time>2026-04-11T08:08:34.999Z</time></trkpt><trkpt lat="43.40134440857393" lon="11.445970633843562"><ele>390.0</ele><time>2026-04-11T08:08:35.999Z</time></trkpt><trkpt lat="43.40127835439868" lon="11.445866771799073"><ele>390.0</ele><time>2026-04-11T08:08:36.999Z</time></trkpt><trkpt lat="43.401215710537876" lon="11.445762754020746"><ele>388.6</ele><time>2026-04-11T08:08:37.999Z</time></trkpt><trkpt lat="43.40115498163588" lon="11.44565761018899"><ele>387.2</ele><time>2026-04-11T08:08:38.999Z</time></trkpt><trkpt lat="43.40109359599748" lon="11.445551218590829"><ele>385.79999999999995</ele><time>2026-04-11T08:08:39.999Z</time></trkpt><trkpt lat="43.40103373309904" lon="11.445445698185447"><ele>384.4</ele><time>2026-04-11T08:08:40.999Z</time></trkpt><trkpt lat="43.40097074041867" lon="11.44533771325519"><ele>383.0</ele><time>2026-04-11T08:08:41.999Z</time></trkpt><trkpt lat="43.4009018578103" lon="11.445234229008403"><ele>382.79999999999995</ele><time>2026-04-11T08:08:42.999Z</time></trkpt><trkpt lat="43.400829226979084" lon="11.445134676609213"><ele>382.6</ele><time>2026-04-11T08:08:43.999Z</time></trkpt><trkpt lat="43.40075005736776" lon="11.445035598411618"><ele>382.4</ele><time>2026-04-11T08:08:44.999Z</time></trkpt><trkpt lat="43.40067602299031" lon="11.44493283888631"><ele>382.20000000000005</ele><time>2026-04-11T08:08:45.999Z</time></trkpt><trkpt lat="43.40059872952226" lon="11.444833611404892"><ele>382.0</ele><time>2026-04-11T08:08:46.999Z</time></trkpt><trkpt lat="43.40052130042767" lon="11.444735067292415"><ele>381.0</ele><time>2026-04-11T08:08:47.999Z</time></trkpt><trkpt lat="43.40044045560474" lon="11.4446422715145"><ele>380.0</ele><time>2026-04-11T08:08:48.999Z</time></trkpt><trkpt lat="43.400361076029824" lon="11.444542376762922"><ele>379.0</ele><time>2026-04-11T08:08:49.999Z</time></trkpt><trkpt lat="43.40028527025438" lon="11.444436151815824"><ele>378.0</ele><time>2026-04-11T08:08:51Z</time></trkpt><trkpt lat="43.40021081702421" lon="11.444330440228"><ele>377.0</ele><time>2026-04-11T08:08:52Z</time></trkpt><trkpt lat="43.40013789549597" lon="11.444221529688036"><ele>377.0</ele><time>2026-04-11T08:08:53Z</time></trkpt><trkpt lat="43.400062405502304" lon="11.444121756283472"><ele>377.0</ele><time>2026-04-11T08:08:54Z</time></trkpt><trkpt lat="43.39998798595678" lon="11.444027710091373"><ele>377.0</ele><time>2026-04-11T08:08:55Z</time></trkpt><trkpt lat="43.399914715325174" lon="11.443938017180782"><ele>377.0</ele><time>2026-04-11T08:08:56Z</time></trkpt><trkpt lat="43.39984256629048" lon="11.44384969594999"><ele>377.0</ele><time>2026-04-11T08:08:57Z</time></trkpt><trkpt lat="43.39976973327924" lon="11.443770787986123"><ele>376.83333333333337</ele><time>2026-04-11T08:08:58Z</time></trkpt><trkpt lat="43.399690599515914" lon="11.443709448565867"><ele>376.6666666666667</ele><time>2026-04-11T08:08:59Z</time></trkpt><trkpt lat="43.39960918166427" lon="11.44366199390362"><ele>376.5</ele><time>2026-04-11T08:09:00Z</time></trkpt><trkpt lat="43.39952793086337" lon="11.443624988513916"><ele>376.3333333333333</ele><time>2026-04-11T08:09:01Z</time></trkpt><trkpt lat="43.39944948567552" lon="11.443593833420392"><ele>376.16666666666663</ele><time>2026-04-11T08:09:02Z</time></trkpt><trkpt lat="43.3993739296525" lon="11.44355583402247"><ele>376.0</ele><time>2026-04-11T08:09:03Z</time></trkpt><trkpt lat="43.39929994021886" lon="11.44352107147384"><ele>376.0</ele><time>2026-04-11T08:09:04Z</time></trkpt><trkpt lat="43.39922763674888" lon="11.443489653451993"><ele>376.0</ele><time>2026-04-11T08:09:05Z</time></trkpt><trkpt lat="43.39915280503207" lon="11.443457771999194"><ele>376.0</ele><time>2026-04-11T08:09:06Z</time></trkpt><trkpt lat="43.39907953500848" lon="11.443436617801991"><ele>376.0</ele><time>2026-04-11T08:09:07Z</time></trkpt><trkpt lat="43.39900893765627" lon="11.44342354862142"><ele>376.0</ele><time>2026-04-11T08:09:08Z</time></trkpt><trkpt lat="43.398936502443505" lon="11.443419219524918"><ele>376.0</ele><time>2026-04-11T08:09:09Z</time></trkpt><trkpt lat="43.39886457450382" lon="11.44342860699554"><ele>376.0</ele><time>2026-04-11T08:09:10Z</time></trkpt><trkpt lat="43.39879514060481" lon="11.443447165007889"><ele>376.0</ele><time>2026-04-11T08:09:11Z</time></trkpt><trkpt lat="43.39872584958278" lon="11.443459408553613"><ele>376.0</ele><time>2026-04-11T08:09:12Z</time></trkpt><trkpt lat="43.39865461167065" lon="11.443471212141624"><ele>376.0</ele><time>2026-04-11T08:09:13Z</time></trkpt><trkpt lat="43.39857811697607" lon="11.443480902597049"><ele>376.0</ele><time>2026-04-11T08:09:14Z</time></trkpt><trkpt lat="43.39850364263703" lon="11.443493426124535"><ele>376.0</ele><time>2026-04-11T08:09:15Z</time></trkpt><trkpt lat="43.398428461666214" lon="11.443509382107546"><ele>376.0</ele><time>2026-04-11T08:09:16Z</time></trkpt><trkpt lat="43.39835247289461" lon="11.443528839372874"><ele>376.0</ele><time>2026-04-11T08:09:17Z</time></trkpt><trkpt lat="43.39827697940858" lon="11.443546319257788"><ele>376.0</ele><time>2026-04-11T08:09:18Z</time></trkpt><trkpt lat="43.39820333517064" lon="11.44356246361485"><ele>376.0</ele><time>2026-04-11T08:09:19Z</time></trkpt><trkpt lat="43.39812904139836" lon="11.443579287122319"><ele>376.0</ele><time>2026-04-11T08:09:20Z</time></trkpt><trkpt lat="43.398054848263094" lon="11.443593936485879"><ele>376.0</ele><time>2026-04-11T08:09:21Z</time></trkpt><trkpt lat="43.39797974643874" lon="11.443611960605288"><ele>376.0</ele><time>2026-04-11T08:09:22Z</time></trkpt><trkpt lat="43.397902389288255" lon="11.443624404587322"><ele>376.0</ele><time>2026-04-11T08:09:23Z</time></trkpt><trkpt lat="43.397824206784286" lon="11.443619496044114"><ele>375.5</ele><time>2026-04-11T08:09:24Z</time></trkpt><trkpt lat="43.3977476476546" lon="11.4435930430682"><ele>375.0</ele><time>2026-04-11T08:09:25Z</time></trkpt><trkpt lat="43.3976732180626" lon="11.443555900641844"><ele>374.5</ele><time>2026-04-11T08:09:26Z</time></trkpt><trkpt lat="43.39759923049822" lon="11.443518158998872"><ele>374.0</ele><time>2026-04-11T08:09:27Z</time></trkpt><trkpt lat="43.39752210739414" lon="11.443486339804243"><ele>373.5</ele><time>2026-04-11T08:09:28Z</time></trkpt><trkpt lat="43.39744271405194" lon="11.443455383435246"><ele>373.0</ele><time>2026-04-11T08:09:29Z</time></trkpt><trkpt lat="43.397363711699604" lon="11.443423317068934"><ele>373.0</ele><time>2026-04-11T08:09:30Z</time></trkpt><trkpt lat="43.39728144674657" lon="11.443395079462833"><ele>373.0</ele><time>2026-04-11T08:09:31Z</time></trkpt><trkpt lat="43.39719456597024" lon="11.443366803746956"><ele>373.0</ele><time>2026-04-11T08:09:32Z</time></trkpt><trkpt lat="43.39710658822104" lon="11.443334676756862"><ele>373.0</ele><time>2026-04-11T08:09:33Z</time></trkpt><trkpt lat="43.39701714788991" lon="11.44329704853933"><ele>373.0</ele><time>2026-04-11T08:09:34Z</time></trkpt><trkpt lat="43.396925509084085" lon="11.443260921081277"><ele>372.59999999999997</ele><time>2026-04-11T08:09:35Z</time></trkpt><trkpt lat="43.396833359250486" lon="11.443224197872082"><ele>372.2</ele><time>2026-04-11T08:09:36Z</time></trkpt><trkpt lat="43.396741664307" lon="11.443191007223108"><ele>371.8</ele><time>2026-04-11T08:09:37Z</time></trkpt><trkpt lat="43.3966491741465" lon="11.443155759441366"><ele>371.4</ele><time>2026-04-11T08:09:38Z</time></trkpt><trkpt lat="43.3965632142712" lon="11.44311886174674"><ele>371.0</ele><time>2026-04-11T08:09:39Z</time></trkpt><trkpt lat="43.396473268292866" lon="11.443082144974465"><ele>371.0</ele><time>2026-04-11T08:09:40Z</time></trkpt><trkpt lat="43.3963904190703" lon="11.443049483190746"><ele>371.0</ele><time>2026-04-11T08:09:41Z</time></trkpt><trkpt lat="43.39630586659047" lon="11.443015697868677"><ele>371.0</ele><time>2026-04-11T08:09:42Z</time></trkpt><trkpt lat="43.39622233304115" lon="11.44297879106674"><ele>371.0</ele><time>2026-04-11T08:09:43Z</time></trkpt><trkpt lat="43.396137880544934" lon="11.442950454433046"><ele>371.0</ele><time>2026-04-11T08:09:44Z</time></trkpt><trkpt lat="43.396051904981476" lon="11.442919852750727"><ele>371.0</ele><time>2026-04-11T08:09:45Z</time></trkpt><trkpt lat="43.39596466361438" lon="11.442884776963972"><ele>370.20000000000005</ele><time>2026-04-11T08:09:46Z</time></trkpt><trkpt lat="43.39587577506837" lon="11.442842937339096"><ele>369.40000000000003</ele><time>2026-04-11T08:09:47Z</time></trkpt><trkpt lat="43.395783955123704" lon="11.442806298684282"><ele>368.6</ele><time>2026-04-11T08:09:48Z</time></trkpt><trkpt lat="43.39569547675074" lon="11.442770873289835"><ele>367.8</ele><time>2026-04-11T08:09:49Z</time></trkpt><trkpt lat="43.395606394488006" lon="11.442737943954077"><ele>367.0</ele><time>2026-04-11T08:09:50Z</time></trkpt><trkpt lat="43.39551774550983" lon="11.442704643375313"><ele>367.16666666666663</ele><time>2026-04-11T08:09:51Z</time></trkpt><trkpt lat="43.395428880762175" lon="11.442680851214627"><ele>367.3333333333333</ele><time>2026-04-11T08:09:52Z</time></trkpt><trkpt lat="43.39533992131506" lon="11.442663409010661"><ele>367.5</ele><time>2026-04-11T08:09:53Z</time></trkpt><trkpt lat="43.39525337952815" lon="11.442651145855784"><ele>367.6666666666667</ele><time>2026-04-11T08:09:54Z</time></trkpt><trkpt lat="43.395165329361824" lon="11.442643835683613"><ele>367.83333333333337</ele><time>2026-04-11T08:09:55Z</time></trkpt><trkpt lat="43.395082040128656" lon="11.442644002505368"><ele>368.0</ele><time>2026-04-11T08:09:56Z</time></trkpt><trkpt lat="43.39500087305019" lon="11.442650180417075"><ele>368.0</ele><time>2026-04-11T08:09:57Z</time></trkpt><trkpt lat="43.394925012722474" lon="11.442661460307063"><ele>368.0</ele><time>2026-04-11T08:09:58Z</time></trkpt><trkpt lat="43.394854914766306" lon="11.442670956623724"><ele>368.0</ele><time>2026-04-11T08:09:59Z</time></trkpt><trkpt lat="43.394791708731894" lon="11.442677567197903"><ele>368.0</ele><time>2026-04-11T08:10:00Z</time></trkpt><trkpt lat="43.39466955876448" lon="11.442690181260982"><ele>368.0</ele><time>2026-04-11T08:10:02Z</time></trkpt><trkpt lat="43.39455383575715" lon="11.44268195409122"><ele>368.0</ele><time>2026-04-11T08:10:04Z</time></trkpt><trkpt lat="43.39444801749871" lon="11.442673511298466"><ele>368.0</ele><time>2026-04-11T08:10:06Z</time></trkpt><trkpt lat="43.39434789737999" lon="11.442659355236485"><ele>368.0</ele><time>2026-04-11T08:10:08Z</time></trkpt><trkpt lat="43.39423901142136" lon="11.442645350625067"><ele>368.0</ele><time>2026-04-11T08:10:10Z</time></trkpt><trkpt lat="43.39411741564782" lon="11.442629944006452"><ele>368.0</ele><time>2026-04-11T08:10:12Z</time></trkpt><trkpt lat="43.39405324511324" lon="11.442623246431944"><ele>368.0</ele><time>2026-04-11T08:10:13Z</time></trkpt><trkpt lat="43.39398806930776" lon="11.44261310070668"><ele>368.0</ele><time>2026-04-11T08:10:14Z</time></trkpt><trkpt lat="43.39392019264307" lon="11.442605934611393"><ele>368.0</ele><time>2026-04-11T08:10:15Z</time></trkpt><trkpt lat="43.39385407901585" lon="11.442594208843575"><ele>368.0</ele><time>2026-04-11T08:10:16Z</time></trkpt><trkpt lat="43.39378535205884" lon="11.442583276749556"><ele>368.0</ele><time>2026-04-11T08:10:17Z</time></trkpt><trkpt lat="43.39371609529207" lon="11.442571794250444"><ele>368.0</ele><time>2026-04-11T08:10:18Z</time></trkpt><trkpt lat="43.39364522587911" lon="11.44255847460402"><ele>368.0</ele><time>2026-04-11T08:10:19Z</time></trkpt><trkpt lat="43.393574497018925" lon="11.442536850297175"><ele>368.0</ele><time>2026-04-11T08:10:20Z</time></trkpt><trkpt lat="43.39350420693392" lon="11.442508647765456"><ele>368.0</ele><time>2026-04-11T08:10:21Z</time></trkpt><trkpt lat="43.39343623757035" lon="11.442474617252188"><ele>368.0</ele><time>2026-04-11T08:10:22Z</time></trkpt><trkpt lat="43.3933691288212" lon="11.442435750604899"><ele>368.0</ele><time>2026-04-11T08:10:23Z</time></trkpt><trkpt lat="43.39330426508538" lon="11.442398968264001"><ele>368.0</ele><time>2026-04-11T08:10:24Z</time></trkpt><trkpt lat="43.39324006119151" lon="11.44236380148909"><ele>368.0</ele><time>2026-04-11T08:10:25Z</time></trkpt><trkpt lat="43.393175847811065" lon="11.442335096166731"><ele>368.0</ele><time>2026-04-11T08:10:26Z</time></trkpt><trkpt lat="43.39311028931983" lon="11.442310612061334"><ele>368.0</ele><time>2026-04-11T08:10:27Z</time></trkpt><trkpt lat="43.39304354009699" lon="11.442294672007092"><ele>368.1666666666667</ele><time>2026-04-11T08:10:28Z</time></trkpt><trkpt lat="43.39297851145404" lon="11.442281357813489"><ele>368.33333333333337</ele><time>2026-04-11T08:10:29Z</time></trkpt><trkpt lat="43.39291009418892" lon="11.442271375191057"><ele>368.5</ele><time>2026-04-11T08:10:30Z</time></trkpt><trkpt lat="43.39284467965722" lon="11.442264796437907"><ele>368.6666666666667</ele><time>2026-04-11T08:10:31Z</time></trkpt><trkpt lat="43.39278100175791" lon="11.442270407181603"><ele>368.8333333333333</ele><time>2026-04-11T08:10:32Z</time></trkpt><trkpt lat="43.392662133319696" lon="11.442292467761314"><ele>369.0</ele><time>2026-04-11T08:10:33.999Z</time></trkpt><trkpt lat="43.39254646618141" lon="11.442316232695543"><ele>369.0</ele><time>2026-04-11T08:10:35.999Z</time></trkpt><trkpt lat="43.39243130675995" lon="11.442356102685821"><ele>369.0</ele><time>2026-04-11T08:10:37.999Z</time></trkpt><trkpt lat="43.392314456536056" lon="11.44241285334081"><ele>369.0</ele><time>2026-04-11T08:10:39.999Z</time></trkpt><trkpt lat="43.39225614169528" lon="11.442448598047784"><ele>369.0</ele><time>2026-04-11T08:10:40.999Z</time></trkpt><trkpt lat="43.39219718777043" lon="11.442483210473942"><ele>369.0</ele><time>2026-04-11T08:10:41.999Z</time></trkpt><trkpt lat="43.39213942714224" lon="11.44251817030276"><ele>369.0</ele><time>2026-04-11T08:10:42.999Z</time></trkpt><trkpt lat="43.392081059927825" lon="11.442556939953615"><ele>368.57142857142856</ele><time>2026-04-11T08:10:43.999Z</time></trkpt><trkpt lat="43.39202374045883" lon="11.442597538267298"><ele>368.1428571428571</ele><time>2026-04-11T08:10:44.999Z</time></trkpt><trkpt lat="43.39196785027115" lon="11.442639531993517"><ele>367.7142857142857</ele><time>2026-04-11T08:10:45.999Z</time></trkpt><trkpt lat="43.391912204027015" lon="11.442683508968285"><ele>367.2857142857143</ele><time>2026-04-11T08:10:46.999Z</time></trkpt><trkpt lat="43.391855853601975" lon="11.442724451762704"><ele>366.8571428571429</ele><time>2026-04-11T08:10:47.999Z</time></trkpt><trkpt lat="43.39179844928993" lon="11.44276189865813"><ele>366.42857142857144</ele><time>2026-04-11T08:10:48.999Z</time></trkpt><trkpt lat="43.39167825795144" lon="11.442808898126565"><ele>366.0</ele><time>2026-04-11T08:10:50.999Z</time></trkpt><trkpt lat="43.391561259619905" lon="11.442832451258996"><ele>366.0</ele><time>2026-04-11T08:10:52.999Z</time></trkpt><trkpt lat="43.39145231539897" lon="11.442831546326223"><ele>366.0</ele><time>2026-04-11T08:10:54.999Z</time></trkpt><trkpt lat="43.391347487679916" lon="11.442827930772756"><ele>366.0</ele><time>2026-04-11T08:10:57Z</time></trkpt><trkpt lat="43.39124119863194" lon="11.442828615732417"><ele>366.0</ele><time>2026-04-11T08:10:59Z</time></trkpt><trkpt lat="43.39113107105464" lon="11.442842562229957"><ele>366.0</ele><time>2026-04-11T08:11:01Z</time></trkpt><trkpt lat="43.391010838576435" lon="11.44286089812976"><ele>365.8333333333333</ele><time>2026-04-11T08:11:03Z</time></trkpt><trkpt lat="43.39088669317202" lon="11.442882167651577"><ele>365.6666666666667</ele><time>2026-04-11T08:11:05Z</time></trkpt><trkpt lat="43.390823576569424" lon="11.44289420945879"><ele>365.5</ele><time>2026-04-11T08:11:06Z</time></trkpt><trkpt lat="43.39069848455945" lon="11.44292030548357"><ele>365.33333333333337</ele><time>2026-04-11T08:11:08Z</time></trkpt><trkpt lat="43.39063369611533" lon="11.44293702773455"><ele>365.1666666666667</ele><time>2026-04-11T08:11:09Z</time></trkpt><trkpt lat="43.39056682505624" lon="11.442943359267197"><ele>365.0</ele><time>2026-04-11T08:11:10Z</time></trkpt><trkpt lat="43.39050114920721" lon="11.442940981849087"><ele>365.00000000000006</ele><time>2026-04-11T08:11:11Z</time></trkpt><trkpt lat="43.39043457984663" lon="11.44293608283248"><ele>365.0</ele><time>2026-04-11T08:11:12Z</time></trkpt><trkpt lat="43.390369779546354" lon="11.442924319338458"><ele>365.0</ele><time>2026-04-11T08:11:13Z</time></trkpt><trkpt lat="43.39029975399421" lon="11.44291084830175"><ele>365.0</ele><time>2026-04-11T08:11:14Z</time></trkpt><trkpt lat="43.39023023352216" lon="11.44290065745073"><ele>365.0</ele><time>2026-04-11T08:11:15Z</time></trkpt><trkpt lat="43.39015929432885" lon="11.44289235318623"><ele>365.00000000000006</ele><time>2026-04-11T08:11:16Z</time></trkpt><trkpt lat="43.39008738820186" lon="11.44288191078299"><ele>365.0</ele><time>2026-04-11T08:11:17Z</time></trkpt><trkpt lat="43.3900142011534" lon="11.442868252673883"><ele>365.0</ele><time>2026-04-11T08:11:18Z</time></trkpt><trkpt lat="43.38994023461934" lon="11.44284561243275"><ele>365.0</ele><time>2026-04-11T08:11:19Z</time></trkpt><trkpt lat="43.38986714708696" lon="11.442808387396829"><ele>365.0</ele><time>2026-04-11T08:11:20Z</time></trkpt><trkpt lat="43.38980718795635" lon="11.442722525884598"><ele>365.0</ele><time>2026-04-11T08:11:21Z</time></trkpt><trkpt lat="43.38976214231383" lon="11.44262477899927"><ele>365.0</ele><time>2026-04-11T08:11:22Z</time></trkpt><trkpt lat="43.38971832980444" lon="11.442521887719606"><ele>365.0</ele><time>2026-04-11T08:11:23Z</time></trkpt><trkpt lat="43.38967532847849" lon="11.4424182760477"><ele>363.6666666666667</ele><time>2026-04-11T08:11:24Z</time></trkpt><trkpt lat="43.38962206124912" lon="11.442329306975617"><ele>362.33333333333337</ele><time>2026-04-11T08:11:25Z</time></trkpt><trkpt lat="43.38957933202363" lon="11.442234881723223"><ele>361.0</ele><time>2026-04-11T08:11:26Z</time></trkpt><trkpt lat="43.389533767828226" lon="11.44214658747558"><ele>359.6666666666667</ele><time>2026-04-11T08:11:27Z</time></trkpt><trkpt lat="43.3894830728093" lon="11.442062215144986"><ele>358.3333333333333</ele><time>2026-04-11T08:11:28Z</time></trkpt><trkpt lat="43.38943051472667" lon="11.441983272708462"><ele>357.0</ele><time>2026-04-11T08:11:29Z</time></trkpt><trkpt lat="43.389378383884214" lon="11.441904310416236"><ele>357.0</ele><time>2026-04-11T08:11:30Z</time></trkpt><trkpt lat="43.389327313541706" lon="11.441822460792613"><ele>357.0</ele><time>2026-04-11T08:11:31Z</time></trkpt><trkpt lat="43.38927438332612" lon="11.441741870366712"><ele>357.0</ele><time>2026-04-11T08:11:32Z</time></trkpt><trkpt lat="43.38922198405214" lon="11.44166121471165"><ele>357.0</ele><time>2026-04-11T08:11:33Z</time></trkpt><trkpt lat="43.389170784838875" lon="11.441575983025597"><ele>357.0</ele><time>2026-04-11T08:11:34Z</time></trkpt><trkpt lat="43.389119529128955" lon="11.441489061948795"><ele>357.0</ele><time>2026-04-11T08:11:35Z</time></trkpt><trkpt lat="43.38906386797897" lon="11.441402654233583"><ele>357.0</ele><time>2026-04-11T08:11:36Z</time></trkpt><trkpt lat="43.389005741134824" lon="11.44131298989155"><ele>357.0</ele><time>2026-04-11T08:11:37Z</time></trkpt><trkpt lat="43.388943597910014" lon="11.441220774297495"><ele>357.0</ele><time>2026-04-11T08:11:38Z</time></trkpt><trkpt lat="43.388879077461986" lon="11.441129798423155"><ele>357.0</ele><time>2026-04-11T08:11:39Z</time></trkpt><trkpt lat="43.388814375943326" lon="11.44103389832707"><ele>357.0</ele><time>2026-04-11T08:11:40Z</time></trkpt><trkpt lat="43.388747474436464" lon="11.440939499565104"><ele>356.40000000000003</ele><time>2026-04-11T08:11:41Z</time></trkpt><trkpt lat="43.38867150651735" lon="11.440851405375215"><ele>355.8</ele><time>2026-04-11T08:11:42Z</time></trkpt><trkpt lat="43.3885874639073" lon="11.440770391428767"><ele>355.2</ele><time>2026-04-11T08:11:43Z</time></trkpt><trkpt lat="43.38850332142495" lon="11.440687694475303"><ele>354.6</ele><time>2026-04-11T08:11:44Z</time></trkpt><trkpt lat="43.38842074875859" lon="11.440596019824547"><ele>354.0</ele><time>2026-04-11T08:11:45Z</time></trkpt><trkpt lat="43.38834187061296" lon="11.440497468522027"><ele>352.4</ele><time>2026-04-11T08:11:46Z</time></trkpt><trkpt lat="43.388267960520615" lon="11.440389027645077"><ele>350.79999999999995</ele><time>2026-04-11T08:11:47Z</time></trkpt><trkpt lat="43.38819303657615" lon="11.440279486312736"><ele>349.20000000000005</ele><time>2026-04-11T08:11:48Z</time></trkpt><trkpt lat="43.38811557041213" lon="11.440167691450498"><ele>347.6</ele><time>2026-04-11T08:11:49Z</time></trkpt><trkpt lat="43.38803947278858" lon="11.440052041573315"><ele>346.0</ele><time>2026-04-11T08:11:50Z</time></trkpt><trkpt lat="43.38796374138915" lon="11.439931083298173"><ele>346.0</ele><time>2026-04-11T08:11:51Z</time></trkpt><trkpt lat="43.38789058223832" lon="11.43980536874549"><ele>346.0</ele><time>2026-04-11T08:11:52Z</time></trkpt><trkpt lat="43.387822433795804" lon="11.439672940643845"><ele>346.0</ele><time>2026-04-11T08:11:53Z</time></trkpt><trkpt lat="43.387754555458635" lon="11.439537616072672"><ele>346.0</ele><time>2026-04-11T08:11:54Z</time></trkpt><trkpt lat="43.387682452558806" lon="11.439401379706876"><ele>345.0</ele><time>2026-04-11T08:11:55Z</time></trkpt><trkpt lat="43.387603050781145" lon="11.439273620291223"><ele>344.0</ele><time>2026-04-11T08:11:56Z</time></trkpt><trkpt lat="43.38752155712168" lon="11.439148597360774"><ele>343.0</ele><time>2026-04-11T08:11:57Z</time></trkpt><trkpt lat="43.38744222060541" lon="11.439024276749155"><ele>342.0</ele><time>2026-04-11T08:11:58Z</time></trkpt><trkpt lat="43.38736600207431" lon="11.43890255922378"><ele>342.20000000000005</ele><time>2026-04-11T08:11:59Z</time></trkpt><trkpt lat="43.387295311165246" lon="11.438781792477089"><ele>342.4</ele><time>2026-04-11T08:12:00Z</time></trkpt><trkpt lat="43.38722849646083" lon="11.438661761679082"><ele>342.6</ele><time>2026-04-11T08:12:01Z</time></trkpt><trkpt lat="43.38716670113384" lon="11.438545398153718"><ele>342.79999999999995</ele><time>2026-04-11T08:12:02Z</time></trkpt><trkpt lat="43.387116746306766" lon="11.43842132767142"><ele>343.0</ele><time>2026-04-11T08:12:03Z</time></trkpt><trkpt lat="43.38707857456824" lon="11.438294902965593"><ele>343.0</ele><time>2026-04-11T08:12:04Z</time></trkpt><trkpt lat="43.38704920743195" lon="11.43816914373539"><ele>343.0</ele><time>2026-04-11T08:12:05Z</time></trkpt><trkpt lat="43.387022588799404" lon="11.438048615084679"><ele>343.0</ele><time>2026-04-11T08:12:06Z</time></trkpt><trkpt lat="43.386995292263144" lon="11.437931523386107"><ele>343.0</ele><time>2026-04-11T08:12:07Z</time></trkpt><trkpt lat="43.386964001941244" lon="11.437819133620616"><ele>343.0</ele><time>2026-04-11T08:12:08Z</time></trkpt><trkpt lat="43.38695296306752" lon="11.437702457156735"><ele>343.16666666666663</ele><time>2026-04-11T08:12:09Z</time></trkpt><trkpt lat="43.38692456394817" lon="11.437592452931433"><ele>343.3333333333333</ele><time>2026-04-11T08:12:10Z</time></trkpt><trkpt lat="43.38689618193029" lon="11.437488028764156"><ele>343.5</ele><time>2026-04-11T08:12:11Z</time></trkpt><trkpt lat="43.38686606809669" lon="11.437384709456888"><ele>343.6666666666667</ele><time>2026-04-11T08:12:12Z</time></trkpt><trkpt lat="43.386833126890636" lon="11.437285515427467"><ele>343.83333333333337</ele><time>2026-04-11T08:12:13Z</time></trkpt><trkpt lat="43.3867873137439" lon="11.437194120864747"><ele>344.0</ele><time>2026-04-11T08:12:14Z</time></trkpt><trkpt lat="43.38675719926319" lon="11.437093826610859"><ele>342.6666666666667</ele><time>2026-04-11T08:12:15Z</time></trkpt><trkpt lat="43.386705071939765" lon="11.437006398650684"><ele>341.33333333333337</ele><time>2026-04-11T08:12:16Z</time></trkpt><trkpt lat="43.386652520796105" lon="11.436924630229186"><ele>340.0</ele><time>2026-04-11T08:12:17Z</time></trkpt><trkpt lat="43.38659212128162" lon="11.436853816890196"><ele>338.6666666666667</ele><time>2026-04-11T08:12:18Z</time></trkpt><trkpt lat="43.3865310080226" lon="11.43679025748219"><ele>337.3333333333333</ele><time>2026-04-11T08:12:19Z</time></trkpt><trkpt lat="43.386470042476205" lon="11.436727099254702"><ele>336.0</ele><time>2026-04-11T08:12:20Z</time></trkpt><trkpt lat="43.386409535325534" lon="11.436662200872108"><ele>336.0</ele><time>2026-04-11T08:12:21Z</time></trkpt><trkpt lat="43.38635162840459" lon="11.436594947826846"><ele>336.0</ele><time>2026-04-11T08:12:22Z</time></trkpt><trkpt lat="43.38628730083858" lon="11.43651536300118"><ele>336.0</ele><time>2026-04-11T08:12:23Z</time></trkpt><trkpt lat="43.38622846813793" lon="11.436454870002674"><ele>336.0</ele><time>2026-04-11T08:12:24Z</time></trkpt><trkpt lat="43.386166957034135" lon="11.436385368746754"><ele>336.0</ele><time>2026-04-11T08:12:25Z</time></trkpt><trkpt lat="43.38610744456502" lon="11.4363144245132"><ele>336.0</ele><time>2026-04-11T08:12:26Z</time></trkpt><trkpt lat="43.38605020057937" lon="11.436241672399513"><ele>336.0</ele><time>2026-04-11T08:12:27Z</time></trkpt><trkpt lat="43.385997098299214" lon="11.436164584719338"><ele>336.0</ele><time>2026-04-11T08:12:28Z</time></trkpt><trkpt lat="43.385946371944314" lon="11.436087653533587"><ele>336.0</ele><time>2026-04-11T08:12:29Z</time></trkpt><trkpt lat="43.385895508869886" lon="11.436008304771478"><ele>336.0</ele><time>2026-04-11T08:12:30Z</time></trkpt><trkpt lat="43.38584499491532" lon="11.435933987144072"><ele>336.0</ele><time>2026-04-11T08:12:31Z</time></trkpt><trkpt lat="43.38578418022536" lon="11.435872374645486"><ele>336.0</ele><time>2026-04-11T08:12:32Z</time></trkpt><trkpt lat="43.38571643305349" lon="11.43582535453606"><ele>336.0</ele><time>2026-04-11T08:12:33Z</time></trkpt><trkpt lat="43.38565007767735" lon="11.435769513653266"><ele>336.0</ele><time>2026-04-11T08:12:34Z</time></trkpt><trkpt lat="43.38558138805935" lon="11.435712467582837"><ele>336.0</ele><time>2026-04-11T08:12:35Z</time></trkpt><trkpt lat="43.385509554343734" lon="11.435655177665135"><ele>336.0</ele><time>2026-04-11T08:12:36Z</time></trkpt><trkpt lat="43.38543118301948" lon="11.435591214866175"><ele>336.0</ele><time>2026-04-11T08:12:37Z</time></trkpt><trkpt lat="43.385349781868435" lon="11.43552418900869"><ele>336.0</ele><time>2026-04-11T08:12:38Z</time></trkpt><trkpt lat="43.38526372960127" lon="11.435452143539973"><ele>334.6</ele><time>2026-04-11T08:12:38.999Z</time></trkpt><trkpt lat="43.38517570065907" lon="11.435382144580258"><ele>333.20000000000005</ele><time>2026-04-11T08:12:39.999Z</time></trkpt><trkpt lat="43.3850841826768" lon="11.435313275653362"><ele>331.79999999999995</ele><time>2026-04-11T08:12:40.999Z</time></trkpt><trkpt lat="43.384988946681645" lon="11.43524756033471"><ele>330.4</ele><time>2026-04-11T08:12:41.999Z</time></trkpt><trkpt lat="43.384891828000775" lon="11.435192994653812"><ele>329.0</ele><time>2026-04-11T08:12:42.999Z</time></trkpt><trkpt lat="43.38478756238323" lon="11.435155061923332"><ele>329.0</ele><time>2026-04-11T08:12:43.999Z</time></trkpt><trkpt lat="43.384683957403794" lon="11.435130338059986"><ele>329.0</ele><time>2026-04-11T08:12:44.999Z</time></trkpt><trkpt lat="43.384576713153244" lon="11.435108488290425"><ele>329.0</ele><time>2026-04-11T08:12:45.999Z</time></trkpt><trkpt lat="43.3844717868527" lon="11.435089917147382"><ele>329.0</ele><time>2026-04-11T08:12:46.999Z</time></trkpt><trkpt lat="43.384367579791714" lon="11.435070588488038"><ele>329.0</ele><time>2026-04-11T08:12:47.999Z</time></trkpt><trkpt lat="43.38426538393036" lon="11.435045287222673"><ele>328.2</ele><time>2026-04-11T08:12:48.999Z</time></trkpt><trkpt lat="43.38416534006473" lon="11.435016944545056"><ele>327.4</ele><time>2026-04-11T08:12:49.999Z</time></trkpt><trkpt lat="43.38406521834484" lon="11.434993241099662"><ele>326.6</ele><time>2026-04-11T08:12:50.999Z</time></trkpt><trkpt lat="43.383963931658776" lon="11.43496691565666"><ele>325.8</ele><time>2026-04-11T08:12:51.999Z</time></trkpt><trkpt lat="43.38385979837022" lon="11.434937294929608"><ele>325.0</ele><time>2026-04-11T08:12:52.999Z</time></trkpt><trkpt lat="43.3837564481836" lon="11.434902181286626"><ele>324.8</ele><time>2026-04-11T08:12:53.999Z</time></trkpt><trkpt lat="43.3836526477151" lon="11.434864641042141"><ele>324.6</ele><time>2026-04-11T08:12:54.999Z</time></trkpt><trkpt lat="43.3835521530619" lon="11.43482471565126"><ele>324.4</ele><time>2026-04-11T08:12:55.999Z</time></trkpt><trkpt lat="43.38345769547997" lon="11.434776151461696"><ele>324.2</ele><time>2026-04-11T08:12:56.999Z</time></trkpt><trkpt lat="43.38337003611139" lon="11.43472395578033"><ele>324.0</ele><time>2026-04-11T08:12:57.999Z</time></trkpt><trkpt lat="43.38329007971983" lon="11.434664167076306"><ele>324.5</ele><time>2026-04-11T08:12:58.999Z</time></trkpt><trkpt lat="43.38321674545813" lon="11.434596447266118"><ele>325.0</ele><time>2026-04-11T08:12:59.999Z</time></trkpt><trkpt lat="43.38314219607014" lon="11.434532669609851"><ele>325.5</ele><time>2026-04-11T08:13:00.999Z</time></trkpt><trkpt lat="43.3830736997208" lon="11.434463312458979"><ele>326.0</ele><time>2026-04-11T08:13:01.999Z</time></trkpt><trkpt lat="43.383009520333204" lon="11.434395098604815"><ele>326.5</ele><time>2026-04-11T08:13:03Z</time></trkpt><trkpt lat="43.382946713223106" lon="11.434323251982816"><ele>327.0</ele><time>2026-04-11T08:13:04Z</time></trkpt><trkpt lat="43.38288513684882" lon="11.434266199749612"><ele>327.0</ele><time>2026-04-11T08:13:05Z</time></trkpt><trkpt lat="43.38281885391303" lon="11.434213664516093"><ele>327.0</ele><time>2026-04-11T08:13:06Z</time></trkpt><trkpt lat="43.38275482267851" lon="11.434175528728161"><ele>327.0</ele><time>2026-04-11T08:13:07Z</time></trkpt><trkpt lat="43.38269282142605" lon="11.434143304914688"><ele>327.0</ele><time>2026-04-11T08:13:08Z</time></trkpt><trkpt lat="43.38257999168742" lon="11.434097482238073"><ele>327.0</ele><time>2026-04-11T08:13:10Z</time></trkpt><trkpt lat="43.3824782799694" lon="11.434062931715411"><ele>327.0</ele><time>2026-04-11T08:13:12Z</time></trkpt><trkpt lat="43.38238574754859" lon="11.434036115755752"><ele>327.0</ele><time>2026-04-11T08:13:14Z</time></trkpt><trkpt lat="43.38228651027992" lon="11.434015986266239"><ele>327.0</ele><time>2026-04-11T08:13:16Z</time></trkpt><trkpt lat="43.382184950541344" lon="11.433994584283015"><ele>327.0</ele><time>2026-04-11T08:13:18Z</time></trkpt><trkpt lat="43.382074984001235" lon="11.433979615807438"><ele>327.0</ele><time>2026-04-11T08:13:20Z</time></trkpt><trkpt lat="43.381964749925224" lon="11.43397293746616"><ele>327.0</ele><time>2026-04-11T08:13:22Z</time></trkpt><trkpt lat="43.381853599657155" lon="11.433962048533875"><ele>326.6</ele><time>2026-04-11T08:13:24Z</time></trkpt><trkpt lat="43.38173332993801" lon="11.433933932807438"><ele>326.20000000000005</ele><time>2026-04-11T08:13:26Z</time></trkpt><trkpt lat="43.38161033288215" lon="11.43388554675063"><ele>325.8</ele><time>2026-04-11T08:13:28Z</time></trkpt><trkpt lat="43.38154327938108" lon="11.433841417924237"><ele>325.4</ele><time>2026-04-11T08:13:29Z</time></trkpt><trkpt lat="43.38147268325989" lon="11.433783916284929"><ele>325.0</ele><time>2026-04-11T08:13:30Z</time></trkpt><trkpt lat="43.38139415130995" lon="11.43372976595851"><ele>323.4</ele><time>2026-04-11T08:13:31Z</time></trkpt><trkpt lat="43.38130791658341" lon="11.43367738919702"><ele>321.8</ele><time>2026-04-11T08:13:32Z</time></trkpt><trkpt lat="43.381216141838756" lon="11.433622689655035"><ele>320.2</ele><time>2026-04-11T08:13:33Z</time></trkpt><trkpt lat="43.381124518377476" lon="11.43355798048734"><ele>318.6</ele><time>2026-04-11T08:13:34Z</time></trkpt><trkpt lat="43.38103235315919" lon="11.433482163251453"><ele>317.0</ele><time>2026-04-11T08:13:35Z</time></trkpt><trkpt lat="43.380947570269065" lon="11.433393212700942"><ele>317.0</ele><time>2026-04-11T08:13:36Z</time></trkpt><trkpt lat="43.38086874350137" lon="11.433292254034644"><ele>317.0</ele><time>2026-04-11T08:13:37Z</time></trkpt><trkpt lat="43.38080045656802" lon="11.433181611123246"><ele>317.0</ele><time>2026-04-11T08:13:38Z</time></trkpt><trkpt lat="43.38075769282086" lon="11.433050500432353"><ele>317.0</ele><time>2026-04-11T08:13:39Z</time></trkpt><trkpt lat="43.38070318224916" lon="11.432931724107936"><ele>317.0</ele><time>2026-04-11T08:13:40Z</time></trkpt><trkpt lat="43.380634708975826" lon="11.432832630723276"><ele>317.1666666666667</ele><time>2026-04-11T08:13:41Z</time></trkpt><trkpt lat="43.3805660004039" lon="11.432746940124193"><ele>317.33333333333337</ele><time>2026-04-11T08:13:42Z</time></trkpt><trkpt lat="43.38048500625898" lon="11.432692222974788"><ele>317.5</ele><time>2026-04-11T08:13:43Z</time></trkpt><trkpt lat="43.380401877795265" lon="11.432668634803374"><ele>317.6666666666667</ele><time>2026-04-11T08:13:44Z</time></trkpt><trkpt lat="43.380327956872584" lon="11.432647300883044"><ele>317.8333333333333</ele><time>2026-04-11T08:13:45Z</time></trkpt><trkpt lat="43.38025679542361" lon="11.432631224009443"><ele>318.0</ele><time>2026-04-11T08:13:46Z</time></trkpt><trkpt lat="43.38018880469399" lon="11.432624131752597"><ele>318.5</ele><time>2026-04-11T08:13:47Z</time></trkpt><trkpt lat="43.38012510196273" lon="11.432616782433023"><ele>319.0</ele><time>2026-04-11T08:13:48Z</time></trkpt><trkpt lat="43.38006212055879" lon="11.432603640326727"><ele>319.5</ele><time>2026-04-11T08:13:49Z</time></trkpt><trkpt lat="43.379940365464144" lon="11.432595109292384"><ele>320.0</ele><time>2026-04-11T08:13:51Z</time></trkpt><trkpt lat="43.37982185030998" lon="11.432576466893629"><ele>320.5</ele><time>2026-04-11T08:13:53Z</time></trkpt><trkpt lat="43.37975981673477" lon="11.432558378567387"><ele>321.0</ele><time>2026-04-11T08:13:54Z</time></trkpt><trkpt lat="43.37969785539444" lon="11.432541173595979"><ele>320.25</ele><time>2026-04-11T08:13:55Z</time></trkpt><trkpt lat="43.379578318514135" lon="11.43249614864538"><ele>319.5</ele><time>2026-04-11T08:13:57Z</time></trkpt><trkpt lat="43.37946371314459" lon="11.432438993627548"><ele>318.75</ele><time>2026-04-11T08:13:59Z</time></trkpt><trkpt lat="43.37934728281637" lon="11.432384243187949"><ele>318.0</ele><time>2026-04-11T08:14:01Z</time></trkpt><trkpt lat="43.37923354129511" lon="11.43233188003498"><ele>318.0</ele><time>2026-04-11T08:14:03Z</time></trkpt><trkpt lat="43.3791185244352" lon="11.432276477236845"><ele>318.0</ele><time>2026-04-11T08:14:05Z</time></trkpt><trkpt lat="43.37905853963539" lon="11.432249452636057"><ele>318.0</ele><time>2026-04-11T08:14:06Z</time></trkpt><trkpt lat="43.378941795458125" lon="11.432188438979939"><ele>318.0</ele><time>2026-04-11T08:14:08Z</time></trkpt><trkpt lat="43.37882201489721" lon="11.43213202356419"><ele>318.0</ele><time>2026-04-11T08:14:10Z</time></trkpt><trkpt lat="43.37876230429809" lon="11.432102473700105"><ele>317.8333333333333</ele><time>2026-04-11T08:14:11Z</time></trkpt><trkpt lat="43.37864434845447" lon="11.43203847963642"><ele>317.6666666666667</ele><time>2026-04-11T08:14:13Z</time></trkpt><trkpt lat="43.3785247495829" lon="11.431980074399346"><ele>317.5</ele><time>2026-04-11T08:14:15Z</time></trkpt><trkpt lat="43.37846576299263" lon="11.431948556493502"><ele>317.33333333333337</ele><time>2026-04-11T08:14:16Z</time></trkpt><trkpt lat="43.37840626467046" lon="11.431915770463982"><ele>317.1666666666667</ele><time>2026-04-11T08:14:17Z</time></trkpt><trkpt lat="43.37834271580708" lon="11.43188352955648"><ele>317.0</ele><time>2026-04-11T08:14:18Z</time></trkpt><trkpt lat="43.378280620704864" lon="11.431849479602395"><ele>317.0</ele><time>2026-04-11T08:14:19Z</time></trkpt><trkpt lat="43.37821671920973" lon="11.431816015277388"><ele>317.0</ele><time>2026-04-11T08:14:20Z</time></trkpt><trkpt lat="43.37815328636559" lon="11.431784653881376"><ele>317.0</ele><time>2026-04-11T08:14:21Z</time></trkpt><trkpt lat="43.37808867676136" lon="11.431753981995717"><ele>317.0</ele><time>2026-04-11T08:14:22Z</time></trkpt><trkpt lat="43.378023217693006" lon="11.431721791989133"><ele>317.0</ele><time>2026-04-11T08:14:23Z</time></trkpt><trkpt lat="43.37795861574012" lon="11.431683223284445"><ele>317.0</ele><time>2026-04-11T08:14:24Z</time></trkpt><trkpt lat="43.37789266122235" lon="11.431649550884321"><ele>317.0</ele><time>2026-04-11T08:14:25Z</time></trkpt><trkpt lat="43.377827387675715" lon="11.431614711361659"><ele>317.2857142857143</ele><time>2026-04-11T08:14:26Z</time></trkpt><trkpt lat="43.37776149756815" lon="11.43157931066419"><ele>317.57142857142856</ele><time>2026-04-11T08:14:27Z</time></trkpt><trkpt lat="43.37769652325241" lon="11.43154350378864"><ele>317.8571428571429</ele><time>2026-04-11T08:14:28Z</time></trkpt><trkpt lat="43.37763006197583" lon="11.431515408225176"><ele>318.1428571428571</ele><time>2026-04-11T08:14:29Z</time></trkpt><trkpt lat="43.37756555056501" lon="11.4314853637973"><ele>318.4285714285714</ele><time>2026-04-11T08:14:30Z</time></trkpt><trkpt lat="43.37749797870888" lon="11.431453580874356"><ele>318.7142857142857</ele><time>2026-04-11T08:14:31Z</time></trkpt><trkpt lat="43.37743104789604" lon="11.43142172642411"><ele>319.0</ele><time>2026-04-11T08:14:32Z</time></trkpt><trkpt lat="43.37736272182828" lon="11.431395244355851"><ele>319.0</ele><time>2026-04-11T08:14:33Z</time></trkpt><trkpt lat="43.377291866451365" lon="11.431373775393444"><ele>319.0</ele><time>2026-04-11T08:14:34Z</time></trkpt><trkpt lat="43.37722065388634" lon="11.431356671020596"><ele>319.0</ele><time>2026-04-11T08:14:35Z</time></trkpt><trkpt lat="43.37714721950739" lon="11.431343779575107"><ele>319.0</ele><time>2026-04-11T08:14:36Z</time></trkpt><trkpt lat="43.377072192725066" lon="11.43133486198138"><ele>319.0</ele><time>2026-04-11T08:14:37Z</time></trkpt><trkpt lat="43.376998068430275" lon="11.43132594989305"><ele>319.0</ele><time>2026-04-11T08:14:38Z</time></trkpt><trkpt lat="43.37692030424967" lon="11.431317451855941"><ele>319.0</ele><time>2026-04-11T08:14:39Z</time></trkpt><trkpt lat="43.37684303773741" lon="11.431307916642988"><ele>317.5</ele><time>2026-04-11T08:14:39.999Z</time></trkpt><trkpt lat="43.37676544401687" lon="11.431299329136563"><ele>316.0</ele><time>2026-04-11T08:14:40.999Z</time></trkpt><trkpt lat="43.37668603803924" lon="11.431290261996725"><ele>314.5</ele><time>2026-04-11T08:14:41.999Z</time></trkpt><trkpt lat="43.376604812228344" lon="11.431283137159223"><ele>313.0</ele><time>2026-04-11T08:14:42.999Z</time></trkpt><trkpt lat="43.37652192775156" lon="11.431274854470207"><ele>311.5</ele><time>2026-04-11T08:14:43.999Z</time></trkpt><trkpt lat="43.37643913909089" lon="11.431262307233945"><ele>310.0</ele><time>2026-04-11T08:14:44.999Z</time></trkpt><trkpt lat="43.37635538252584" lon="11.431253077216422"><ele>310.6</ele><time>2026-04-11T08:14:45.999Z</time></trkpt><trkpt lat="43.376267624832785" lon="11.43124793365802"><ele>311.2</ele><time>2026-04-11T08:14:46.999Z</time></trkpt><trkpt lat="43.376181139825505" lon="11.431235112899927"><ele>311.8</ele><time>2026-04-11T08:14:47.999Z</time></trkpt><trkpt lat="43.37609280980743" lon="11.431224379371852"><ele>312.4</ele><time>2026-04-11T08:14:48.999Z</time></trkpt><trkpt lat="43.376000081461626" lon="11.431209786940432"><ele>313.0</ele><time>2026-04-11T08:14:49.999Z</time></trkpt><trkpt lat="43.37590154496156" lon="11.431183956853074"><ele>313.0</ele><time>2026-04-11T08:14:50.999Z</time></trkpt><trkpt lat="43.375808157131694" lon="11.431156726900323"><ele>313.0</ele><time>2026-04-11T08:14:51.999Z</time></trkpt><trkpt lat="43.37570972910793" lon="11.431114981065342"><ele>313.0</ele><time>2026-04-11T08:14:52.999Z</time></trkpt><trkpt lat="43.37561294806307" lon="11.43104603612419"><ele>313.0</ele><time>2026-04-11T08:14:53.999Z</time></trkpt><trkpt lat="43.375514473336274" lon="11.430963628187193"><ele>313.0</ele><time>2026-04-11T08:14:54.999Z</time></trkpt><trkpt lat="43.3754286149862" lon="11.430901075258676"><ele>311.2</ele><time>2026-04-11T08:14:55.999Z</time></trkpt><trkpt lat="43.37533461360326" lon="11.43082490852945"><ele>309.4</ele><time>2026-04-11T08:14:56.999Z</time></trkpt><trkpt lat="43.37524230284408" lon="11.430747876391235"><ele>307.59999999999997</ele><time>2026-04-11T08:14:57.999Z</time></trkpt><trkpt lat="43.37515065848552" lon="11.430679219444908"><ele>305.8</ele><time>2026-04-11T08:14:58.999Z</time></trkpt><trkpt lat="43.375059469856005" lon="11.430616595013328"><ele>304.0</ele><time>2026-04-11T08:14:59.999Z</time></trkpt><trkpt lat="43.374971073755155" lon="11.43056480952986"><ele>304.0</ele><time>2026-04-11T08:15:00.999Z</time></trkpt><trkpt lat="43.374881825869814" lon="11.430520354586577"><ele>304.0</ele><time>2026-04-11T08:15:01.999Z</time></trkpt><trkpt lat="43.374794178052085" lon="11.430475264311376"><ele>304.0</ele><time>2026-04-11T08:15:02.999Z</time></trkpt><trkpt lat="43.37470579401355" lon="11.43043733029756"><ele>304.0</ele><time>2026-04-11T08:15:03.999Z</time></trkpt><trkpt lat="43.37461599319786" lon="11.430402172034238"><ele>304.0</ele><time>2026-04-11T08:15:04.999Z</time></trkpt><trkpt lat="43.374529217605996" lon="11.430370671823901"><ele>304.2</ele><time>2026-04-11T08:15:05.999Z</time></trkpt><trkpt lat="43.37444218501451" lon="11.430341917455094"><ele>304.4</ele><time>2026-04-11T08:15:06.999Z</time></trkpt><trkpt lat="43.37435384742045" lon="11.430313552249293"><ele>304.6</ele><time>2026-04-11T08:15:07.999Z</time></trkpt><trkpt lat="43.374263533410684" lon="11.430289670144004"><ele>304.8</ele><time>2026-04-11T08:15:09Z</time></trkpt><trkpt lat="43.37417255910749" lon="11.430260482617705"><ele>305.0</ele><time>2026-04-11T08:15:10Z</time></trkpt><trkpt lat="43.37408261121216" lon="11.430225422424403"><ele>305.0</ele><time>2026-04-11T08:15:11Z</time></trkpt><trkpt lat="43.37399098259636" lon="11.430194657834123"><ele>305.0</ele><time>2026-04-11T08:15:12Z</time></trkpt><trkpt lat="43.3738981143531" lon="11.430163357999204"><ele>305.0</ele><time>2026-04-11T08:15:13Z</time></trkpt><trkpt lat="43.37380187993475" lon="11.430127527619511"><ele>305.0</ele><time>2026-04-11T08:15:14Z</time></trkpt><trkpt lat="43.373705635011895" lon="11.430085400768437"><ele>305.0</ele><time>2026-04-11T08:15:15Z</time></trkpt><trkpt lat="43.37360980769119" lon="11.43003666921346"><ele>304.8</ele><time>2026-04-11T08:15:16Z</time></trkpt><trkpt lat="43.37351187857342" lon="11.429985192503347"><ele>304.6</ele><time>2026-04-11T08:15:17Z</time></trkpt><trkpt lat="43.37341277564226" lon="11.429931034663479"><ele>304.4</ele><time>2026-04-11T08:15:18Z</time></trkpt><trkpt lat="43.37331396006592" lon="11.429875735384552"><ele>304.2</ele><time>2026-04-11T08:15:19Z</time></trkpt><trkpt lat="43.373215548478235" lon="11.429821282172144"><ele>304.0</ele><time>2026-04-11T08:15:20Z</time></trkpt><trkpt lat="43.3731186805772" lon="11.429766736442058"><ele>304.0</ele><time>2026-04-11T08:15:21Z</time></trkpt><trkpt lat="43.37302465876985" lon="11.429709793434542"><ele>304.0</ele><time>2026-04-11T08:15:22Z</time></trkpt><trkpt lat="43.372931971842775" lon="11.429652945519004"><ele>304.0</ele><time>2026-04-11T08:15:23Z</time></trkpt><trkpt lat="43.37284101732744" lon="11.429596054884"><ele>304.0</ele><time>2026-04-11T08:15:24Z</time></trkpt><trkpt lat="43.3727513932669" lon="11.429542851554782"><ele>304.0</ele><time>2026-04-11T08:15:25Z</time></trkpt><trkpt lat="43.37266172437449" lon="11.429491065005932"><ele>302.59999999999997</ele><time>2026-04-11T08:15:26Z</time></trkpt><trkpt lat="43.37257210710543" lon="11.429436273940322"><ele>301.2</ele><time>2026-04-11T08:15:27Z</time></trkpt><trkpt lat="43.37248199763899" lon="11.42938794859208"><ele>299.79999999999995</ele><time>2026-04-11T08:15:28Z</time></trkpt><trkpt lat="43.37239333091282" lon="11.429337898405413"><ele>298.4</ele><time>2026-04-11T08:15:29Z</time></trkpt><trkpt lat="43.3723019799779" lon="11.429286749849885"><ele>297.0</ele><time>2026-04-11T08:15:30Z</time></trkpt><trkpt lat="43.37221337370223" lon="11.429233345197193"><ele>296.2</ele><time>2026-04-11T08:15:31Z</time></trkpt><trkpt lat="43.372123685578266" lon="11.429188796375756"><ele>295.4</ele><time>2026-04-11T08:15:32Z</time></trkpt><trkpt lat="43.37203345294928" lon="11.429140707572895"><ele>294.6</ele><time>2026-04-11T08:15:33Z</time></trkpt><trkpt lat="43.371943529297354" lon="11.429093713029339"><ele>293.8</ele><time>2026-04-11T08:15:34Z</time></trkpt><trkpt lat="43.371854136254285" lon="11.429038998796777"><ele>293.0</ele><time>2026-04-11T08:15:35Z</time></trkpt><trkpt lat="43.37176727836049" lon="11.428983312372962"><ele>293.0</ele><time>2026-04-11T08:15:36Z</time></trkpt><trkpt lat="43.3716812076843" lon="11.428931605216889"><ele>293.0</ele><time>2026-04-11T08:15:37Z</time></trkpt><trkpt lat="43.371591144491674" lon="11.428879642714614"><ele>293.0</ele><time>2026-04-11T08:15:38Z</time></trkpt><trkpt lat="43.37150438808744" lon="11.428833573293028"><ele>293.0</ele><time>2026-04-11T08:15:39Z</time></trkpt><trkpt lat="43.37141409536475" lon="11.428798852149873"><ele>293.0</ele><time>2026-04-11T08:15:40Z</time></trkpt><trkpt lat="43.37132741876901" lon="11.42876740452733"><ele>293.1666666666667</ele><time>2026-04-11T08:15:41Z</time></trkpt><trkpt lat="43.371243465573556" lon="11.428741531503094"><ele>293.33333333333337</ele><time>2026-04-11T08:15:42Z</time></trkpt><trkpt lat="43.3711573984431" lon="11.428718666400083"><ele>293.5</ele><time>2026-04-11T08:15:43Z</time></trkpt><trkpt lat="43.371069695553146" lon="11.428693108018404"><ele>293.6666666666667</ele><time>2026-04-11T08:15:44Z</time></trkpt><trkpt lat="43.37098421743731" lon="11.42867487325663"><ele>293.8333333333333</ele><time>2026-04-11T08:15:45Z</time></trkpt><trkpt lat="43.37089672260881" lon="11.428658091956281"><ele>294.0</ele><time>2026-04-11T08:15:46Z</time></trkpt><trkpt lat="43.37080695471477" lon="11.428646496655674"><ele>294.0</ele><time>2026-04-11T08:15:47Z</time></trkpt><trkpt lat="43.37071827787037" lon="11.428633098346683"><ele>294.0</ele><time>2026-04-11T08:15:48Z</time></trkpt><trkpt lat="43.370627112337054" lon="11.428616477258172"><ele>294.0</ele><time>2026-04-11T08:15:49Z</time></trkpt><trkpt lat="43.37053485957305" lon="11.428602407683373"><ele>294.0</ele><time>2026-04-11T08:15:50Z</time></trkpt><trkpt lat="43.370440925938595" lon="11.428591600245424"><ele>294.0</ele><time>2026-04-11T08:15:51Z</time></trkpt><trkpt lat="43.37034711392478" lon="11.428576692740178"><ele>292.59999999999997</ele><time>2026-04-11T08:15:52Z</time></trkpt><trkpt lat="43.37025178207343" lon="11.428558932710452"><ele>291.2</ele><time>2026-04-11T08:15:53Z</time></trkpt><trkpt lat="43.370153758694684" lon="11.428544970699495"><ele>289.79999999999995</ele><time>2026-04-11T08:15:54Z</time></trkpt><trkpt lat="43.370054300605766" lon="11.428536460919064"><ele>288.4</ele><time>2026-04-11T08:15:55Z</time></trkpt><trkpt lat="43.36995589141489" lon="11.428526303265183"><ele>287.0</ele><time>2026-04-11T08:15:56Z</time></trkpt><trkpt lat="43.36985685830489" lon="11.428514048769213"><ele>287.0</ele><time>2026-04-11T08:15:57Z</time></trkpt><trkpt lat="43.36975663747431" lon="11.428502647267111"><ele>287.0</ele><time>2026-04-11T08:15:58Z</time></trkpt><trkpt lat="43.36965549848662" lon="11.42849428965787"><ele>287.0</ele><time>2026-04-11T08:15:59Z</time></trkpt><trkpt lat="43.36955280076215" lon="11.42848655107187"><ele>287.0</ele><time>2026-04-11T08:16:00Z</time></trkpt><trkpt lat="43.369453102959866" lon="11.428477478630471"><ele>287.0</ele><time>2026-04-11T08:16:01Z</time></trkpt><trkpt lat="43.36935037789688" lon="11.428468952728329"><ele>286.0</ele><time>2026-04-11T08:16:02Z</time></trkpt><trkpt lat="43.36925062378397" lon="11.428464323732213"><ele>285.0</ele><time>2026-04-11T08:16:03Z</time></trkpt><trkpt lat="43.369151787630564" lon="11.428459913310597"><ele>284.0</ele><time>2026-04-11T08:16:04Z</time></trkpt><trkpt lat="43.36905388069614" lon="11.428459228086087"><ele>283.0</ele><time>2026-04-11T08:16:05Z</time></trkpt><trkpt lat="43.36895721808545" lon="11.428457291994237"><ele>282.0</ele><time>2026-04-11T08:16:06Z</time></trkpt><trkpt lat="43.3688648175858" lon="11.428448069100611"><ele>282.4</ele><time>2026-04-11T08:16:07Z</time></trkpt><trkpt lat="43.3687728810541" lon="11.428424795011622"><ele>282.79999999999995</ele><time>2026-04-11T08:16:08Z</time></trkpt><trkpt lat="43.36868549476469" lon="11.428388324925239"><ele>283.2</ele><time>2026-04-11T08:16:09Z</time></trkpt><trkpt lat="43.3685988023923" lon="11.42834603531642"><ele>283.59999999999997</ele><time>2026-04-11T08:16:10Z</time></trkpt><trkpt lat="43.36851699059718" lon="11.42828896958218"><ele>284.0</ele><time>2026-04-11T08:16:11Z</time></trkpt><trkpt lat="43.3684388155859" lon="11.428223137305249"><ele>284.0</ele><time>2026-04-11T08:16:12Z</time></trkpt><trkpt lat="43.36836232713979" lon="11.428155597545896"><ele>284.0</ele><time>2026-04-11T08:16:13Z</time></trkpt><trkpt lat="43.36829197923615" lon="11.428074541124685"><ele>284.0</ele><time>2026-04-11T08:16:14Z</time></trkpt><trkpt lat="43.368228219713004" lon="11.427984865724092"><ele>284.0</ele><time>2026-04-11T08:16:15Z</time></trkpt><trkpt lat="43.368168475459086" lon="11.427886922731812"><ele>284.0</ele><time>2026-04-11T08:16:16Z</time></trkpt><trkpt lat="43.368121119580884" lon="11.427779687320065"><ele>283.8</ele><time>2026-04-11T08:16:17Z</time></trkpt><trkpt lat="43.368079550822735" lon="11.427668034192468"><ele>283.59999999999997</ele><time>2026-04-11T08:16:18Z</time></trkpt><trkpt lat="43.36804517858283" lon="11.42755355538131"><ele>283.4</ele><time>2026-04-11T08:16:19Z</time></trkpt><trkpt lat="43.368013921339546" lon="11.427438328652707"><ele>283.2</ele><time>2026-04-11T08:16:20Z</time></trkpt><trkpt lat="43.36798363038347" lon="11.427322675652878"><ele>283.0</ele><time>2026-04-11T08:16:21Z</time></trkpt><trkpt lat="43.36794676158709" lon="11.427207381023216"><ele>283.14285714285717</ele><time>2026-04-11T08:16:22Z</time></trkpt><trkpt lat="43.36790944103185" lon="11.427100853240075"><ele>283.28571428571433</ele><time>2026-04-11T08:16:23Z</time></trkpt><trkpt lat="43.367868900499246" lon="11.427002133753973"><ele>283.42857142857144</ele><time>2026-04-11T08:16:24Z</time></trkpt><trkpt lat="43.36782296350683" lon="11.426919372944502"><ele>283.57142857142856</ele><time>2026-04-11T08:16:25Z</time></trkpt><trkpt lat="43.36777696848128" lon="11.426849862134693"><ele>283.71428571428567</ele><time>2026-04-11T08:16:26Z</time></trkpt><trkpt lat="43.36772362229196" lon="11.426802958511514"><ele>283.85714285714283</ele><time>2026-04-11T08:16:27Z</time></trkpt><trkpt lat="43.367665789981984" lon="11.426767403323609"><ele>284.0</ele><time>2026-04-11T08:16:28Z</time></trkpt><trkpt lat="43.36754681649043" lon="11.426713563870317"><ele>284.0</ele><time>2026-04-11T08:16:30Z</time></trkpt><trkpt lat="43.36743098260949" lon="11.426657836813265"><ele>284.0</ele><time>2026-04-11T08:16:32Z</time></trkpt><trkpt lat="43.367311863293274" lon="11.426613254168737"><ele>284.0</ele><time>2026-04-11T08:16:34Z</time></trkpt><trkpt lat="43.36719342677316" lon="11.426567761002397"><ele>284.0</ele><time>2026-04-11T08:16:36Z</time></trkpt><trkpt lat="43.36708099832659" lon="11.426515623892271"><ele>285.0</ele><time>2026-04-11T08:16:38Z</time></trkpt><trkpt lat="43.36697604054845" lon="11.426460022071952"><ele>286.0</ele><time>2026-04-11T08:16:40Z</time></trkpt><trkpt lat="43.36686914684076" lon="11.426420185545997"><ele>287.0</ele><time>2026-04-11T08:16:42Z</time></trkpt><trkpt lat="43.36676861757177" lon="11.426368498221228"><ele>288.0</ele><time>2026-04-11T08:16:44Z</time></trkpt><trkpt lat="43.36666613576049" lon="11.42633183465273"><ele>289.0</ele><time>2026-04-11T08:16:46Z</time></trkpt><trkpt lat="43.36656575048285" lon="11.426310100977304"><ele>289.4</ele><time>2026-04-11T08:16:47.999Z</time></trkpt><trkpt lat="43.36645383773695" lon="11.426307514362811"><ele>289.79999999999995</ele><time>2026-04-11T08:16:49.999Z</time></trkpt><trkpt lat="43.366334484394585" lon="11.426315886373423"><ele>290.20000000000005</ele><time>2026-04-11T08:16:51.999Z</time></trkpt><trkpt lat="43.366211983317946" lon="11.426340516751775"><ele>290.6</ele><time>2026-04-11T08:16:53.999Z</time></trkpt><trkpt lat="43.36614897427628" lon="11.426354692912275"><ele>291.0</ele><time>2026-04-11T08:16:54.999Z</time></trkpt><trkpt lat="43.36608206666743" lon="11.426359591820423"><ele>290.85714285714283</ele><time>2026-04-11T08:16:55.999Z</time></trkpt><trkpt lat="43.36601388370374" lon="11.426361544822715"><ele>290.71428571428567</ele><time>2026-04-11T08:16:56.999Z</time></trkpt><trkpt lat="43.365946513409256" lon="11.42635207692006"><ele>290.57142857142856</ele><time>2026-04-11T08:16:57.999Z</time></trkpt><trkpt lat="43.365878106966115" lon="11.426325778383305"><ele>290.42857142857144</ele><time>2026-04-11T08:16:58.999Z</time></trkpt><trkpt lat="43.36582042558213" lon="11.426274794243664"><ele>290.28571428571433</ele><time>2026-04-11T08:16:59.999Z</time></trkpt><trkpt lat="43.365767295269976" lon="11.426214350407282"><ele>290.14285714285717</ele><time>2026-04-11T08:17:00.999Z</time></trkpt><trkpt lat="43.365720874153425" lon="11.426152107072193"><ele>290.0</ele><time>2026-04-11T08:17:01.999Z</time></trkpt><trkpt lat="43.36567956763507" lon="11.42608273075878"><ele>290.0</ele><time>2026-04-11T08:17:02.999Z</time></trkpt><trkpt lat="43.365636560875735" lon="11.426010550222173"><ele>290.0</ele><time>2026-04-11T08:17:03.999Z</time></trkpt><trkpt lat="43.365595630434136" lon="11.42593769025933"><ele>290.0</ele><time>2026-04-11T08:17:04.999Z</time></trkpt><trkpt lat="43.365553359364384" lon="11.425864907990734"><ele>290.0</ele><time>2026-04-11T08:17:05.999Z</time></trkpt><trkpt lat="43.36550229825672" lon="11.425785064533203"><ele>290.0</ele><time>2026-04-11T08:17:06.999Z</time></trkpt><trkpt lat="43.365451321629195" lon="11.425707585246736"><ele>290.0</ele><time>2026-04-11T08:17:07.999Z</time></trkpt><trkpt lat="43.36539886155835" lon="11.425624183790891"><ele>290.0</ele><time>2026-04-11T08:17:08.999Z</time></trkpt><trkpt lat="43.36534804584488" lon="11.425539966754268"><ele>288.5</ele><time>2026-04-11T08:17:09.999Z</time></trkpt><trkpt lat="43.365294969698915" lon="11.425450661569592"><ele>287.0</ele><time>2026-04-11T08:17:10.999Z</time></trkpt><trkpt lat="43.36524200687808" lon="11.425362034436304"><ele>285.5</ele><time>2026-04-11T08:17:11.999Z</time></trkpt><trkpt lat="43.36518363770067" lon="11.42526834603517"><ele>284.0</ele><time>2026-04-11T08:17:12.999Z</time></trkpt><trkpt lat="43.36512631228463" lon="11.42518321394404"><ele>282.5</ele><time>2026-04-11T08:17:13.999Z</time></trkpt><trkpt lat="43.365071687009994" lon="11.425097487944747"><ele>281.0</ele><time>2026-04-11T08:17:15Z</time></trkpt><trkpt lat="43.36501614701517" lon="11.425004551317622"><ele>281.0</ele><time>2026-04-11T08:17:16Z</time></trkpt><trkpt lat="43.36496837216996" lon="11.424906314874422"><ele>281.0</ele><time>2026-04-11T08:17:17Z</time></trkpt><trkpt lat="43.364903980010816" lon="11.424807604967025"><ele>281.0</ele><time>2026-04-11T08:17:18Z</time></trkpt><trkpt lat="43.3648456683054" lon="11.424704640311019"><ele>281.0</ele><time>2026-04-11T08:17:19Z</time></trkpt><trkpt lat="43.36478549811726" lon="11.42459837201428"><ele>281.0</ele><time>2026-04-11T08:17:20Z</time></trkpt><trkpt lat="43.36472856004527" lon="11.42447924915683"><ele>280.40000000000003</ele><time>2026-04-11T08:17:21Z</time></trkpt><trkpt lat="43.36467546949709" lon="11.42435758934686"><ele>279.8</ele><time>2026-04-11T08:17:22Z</time></trkpt><trkpt lat="43.36463418791553" lon="11.424215597129843"><ele>279.20000000000005</ele><time>2026-04-11T08:17:23Z</time></trkpt><trkpt lat="43.3645979259685" lon="11.424067341858152"><ele>278.6</ele><time>2026-04-11T08:17:24Z</time></trkpt><trkpt lat="43.36456527940073" lon="11.423911154214837"><ele>278.0</ele><time>2026-04-11T08:17:25Z</time></trkpt><trkpt lat="43.364558675139584" lon="11.423745632752432"><ele>276.25</ele><time>2026-04-11T08:17:26Z</time></trkpt><trkpt lat="43.36454623298334" lon="11.423582034402854"><ele>274.5</ele><time>2026-04-11T08:17:27Z</time></trkpt><trkpt lat="43.36453768791161" lon="11.423412633527503"><ele>272.75</ele><time>2026-04-11T08:17:28Z</time></trkpt><trkpt lat="43.36451342273968" lon="11.423243161887138"><ele>271.0</ele><time>2026-04-11T08:17:29Z</time></trkpt><trkpt lat="43.364505204610516" lon="11.423069229509833"><ele>269.25</ele><time>2026-04-11T08:17:30Z</time></trkpt><trkpt lat="43.36449482595669" lon="11.42289518873255"><ele>267.5</ele><time>2026-04-11T08:17:31Z</time></trkpt><trkpt lat="43.36448580137631" lon="11.422720259428688"><ele>265.75</ele><time>2026-04-11T08:17:32Z</time></trkpt><trkpt lat="43.36447727582129" lon="11.422541942320567"><ele>264.0</ele><time>2026-04-11T08:17:33Z</time></trkpt><trkpt lat="43.36446955323712" lon="11.422362895859896"><ele>264.0</ele><time>2026-04-11T08:17:34Z</time></trkpt><trkpt lat="43.36445936236602" lon="11.422181588507769"><ele>264.0</ele><time>2026-04-11T08:17:35Z</time></trkpt><trkpt lat="43.36444854096501" lon="11.421999325916229"><ele>264.0</ele><time>2026-04-11T08:17:36Z</time></trkpt><trkpt lat="43.36443858477828" lon="11.421817208481265"><ele>264.0</ele><time>2026-04-11T08:17:37Z</time></trkpt><trkpt lat="43.36442729687834" lon="11.421639794332709"><ele>262.25</ele><time>2026-04-11T08:17:38Z</time></trkpt><trkpt lat="43.36441358374231" lon="11.421464769316932"><ele>260.5</ele><time>2026-04-11T08:17:39Z</time></trkpt><trkpt lat="43.364385229543025" lon="11.421297603840378"><ele>258.75</ele><time>2026-04-11T08:17:40Z</time></trkpt><trkpt lat="43.36434652416755" lon="11.421137363014827"><ele>257.0</ele><time>2026-04-11T08:17:41Z</time></trkpt><trkpt lat="43.36429405272653" lon="11.420981979531849"><ele>256.75</ele><time>2026-04-11T08:17:42Z</time></trkpt><trkpt lat="43.36424203678663" lon="11.420832365125827"><ele>256.5</ele><time>2026-04-11T08:17:43Z</time></trkpt><trkpt lat="43.3641970952329" lon="11.420681941488098"><ele>256.25</ele><time>2026-04-11T08:17:44Z</time></trkpt><trkpt lat="43.36416162120627" lon="11.420532631741562"><ele>256.0</ele><time>2026-04-11T08:17:45Z</time></trkpt><trkpt lat="43.364130216515086" lon="11.420381141739615"><ele>255.60000000000002</ele><time>2026-04-11T08:17:46Z</time></trkpt><trkpt lat="43.36410689624996" lon="11.420230849266668"><ele>255.20000000000002</ele><time>2026-04-11T08:17:47Z</time></trkpt><trkpt lat="43.364090619462424" lon="11.420079752450153"><ele>254.79999999999998</ele><time>2026-04-11T08:17:48Z</time></trkpt><trkpt lat="43.36407898968712" lon="11.419933244301548"><ele>254.39999999999998</ele><time>2026-04-11T08:17:49Z</time></trkpt><trkpt lat="43.36406263226282" lon="11.419787064200749"><ele>254.0</ele><time>2026-04-11T08:17:50Z</time></trkpt><trkpt lat="43.36405115231082" lon="11.419644101748958"><ele>253.2</ele><time>2026-04-11T08:17:51Z</time></trkpt><trkpt lat="43.36404180275191" lon="11.41951016402745"><ele>252.39999999999998</ele><time>2026-04-11T08:17:52Z</time></trkpt><trkpt lat="43.36403577350484" lon="11.419376787402937"><ele>251.6</ele><time>2026-04-11T08:17:53Z</time></trkpt><trkpt lat="43.36402886325836" lon="11.419240986490596"><ele>250.8</ele><time>2026-04-11T08:17:54Z</time></trkpt><trkpt lat="43.36402281992024" lon="11.419102619874298"><ele>250.0</ele><time>2026-04-11T08:17:55Z</time></trkpt><trkpt lat="43.36401906244568" lon="11.418964076637618"><ele>249.99999999999997</ele><time>2026-04-11T08:17:56Z</time></trkpt><trkpt lat="43.36401744879963" lon="11.418836180367352"><ele>250.0</ele><time>2026-04-11T08:17:57Z</time></trkpt><trkpt lat="43.36400911284739" lon="11.418736109962666"><ele>250.0</ele><time>2026-04-11T08:17:58Z</time></trkpt><trkpt lat="43.36406155647348" lon="11.418601039002207"><ele>250.0</ele><time>2026-04-11T08:18:00Z</time></trkpt><trkpt lat="43.364047370825794" lon="11.418495643648214"><ele>249.99999999999997</ele><time>2026-04-11T08:18:05Z</time></trkpt><trkpt lat="43.36404939520299" lon="11.4183940442404"><ele>250.0</ele><time>2026-04-11T08:18:09Z</time></trkpt><trkpt lat="43.363666023414396" lon="11.418414611639871"><ele>248.0</ele><time>2026-04-11T08:18:14Z</time></trkpt><trkpt lat="43.36354814052371" lon="11.418417300271742"><ele>246.0</ele><time>2026-04-11T08:18:16Z</time></trkpt><trkpt lat="43.36342572024061" lon="11.418423326914356"><ele>244.0</ele><time>2026-04-11T08:18:18Z</time></trkpt><trkpt lat="43.363355337873585" lon="11.418418363604086"><ele>242.0</ele><time>2026-04-11T08:18:19Z</time></trkpt><trkpt lat="43.36328346638352" lon="11.418419541278258"><ele>240.0</ele><time>2026-04-11T08:18:20Z</time></trkpt><trkpt lat="43.3632120672236" lon="11.418417585991756"><ele>240.0</ele><time>2026-04-11T08:18:21Z</time></trkpt><trkpt lat="43.36313490606613" lon="11.418411160938993"><ele>240.0</ele><time>2026-04-11T08:18:22Z</time></trkpt><trkpt lat="43.363055169980036" lon="11.418399321151568"><ele>240.0</ele><time>2026-04-11T08:18:23Z</time></trkpt><trkpt lat="43.36297428733214" lon="11.418382315875524"><ele>240.0</ele><time>2026-04-11T08:18:24Z</time></trkpt><trkpt lat="43.3628928977358" lon="11.418363087735132"><ele>240.0</ele><time>2026-04-11T08:18:25Z</time></trkpt><trkpt lat="43.36281054042163" lon="11.418340097235834"><ele>240.0</ele><time>2026-04-11T08:18:26Z</time></trkpt><trkpt lat="43.36272755644479" lon="11.418314865041928"><ele>239.5</ele><time>2026-04-11T08:18:27Z</time></trkpt><trkpt lat="43.3626439513315" lon="11.41827989436489"><ele>239.0</ele><time>2026-04-11T08:18:28Z</time></trkpt><trkpt lat="43.362558932715906" lon="11.418248773750715"><ele>238.5</ele><time>2026-04-11T08:18:29Z</time></trkpt><trkpt lat="43.362474648950595" lon="11.418221749390371"><ele>238.0</ele><time>2026-04-11T08:18:30Z</time></trkpt><trkpt lat="43.362387503998306" lon="11.418202392889707"><ele>237.5</ele><time>2026-04-11T08:18:31Z</time></trkpt><trkpt lat="43.36229802880971" lon="11.418201822014076"><ele>237.0</ele><time>2026-04-11T08:18:32Z</time></trkpt><trkpt lat="43.36220843972294" lon="11.418232145485517"><ele>235.8</ele><time>2026-04-11T08:18:33Z</time></trkpt><trkpt lat="43.362124791744485" lon="11.418285611046011"><ele>234.6</ele><time>2026-04-11T08:18:34Z</time></trkpt><trkpt lat="43.36204830623462" lon="11.41836080309269"><ele>233.40000000000003</ele><time>2026-04-11T08:18:35Z</time></trkpt><trkpt lat="43.36197922771753" lon="11.418452505924263"><ele>232.20000000000002</ele><time>2026-04-11T08:18:36Z</time></trkpt><trkpt lat="43.361914417309904" lon="11.418539225791822"><ele>231.0</ele><time>2026-04-11T08:18:37Z</time></trkpt><trkpt lat="43.361851522590314" lon="11.418645480398167"><ele>231.0</ele><time>2026-04-11T08:18:38Z</time></trkpt><trkpt lat="43.36179324675686" lon="11.418752814772091"><ele>231.00000000000003</ele><time>2026-04-11T08:18:39Z</time></trkpt><trkpt lat="43.36173454039099" lon="11.418856248721388"><ele>231.00000000000003</ele><time>2026-04-11T08:18:40Z</time></trkpt><trkpt lat="43.36167351960752" lon="11.418958838964665"><ele>231.0</ele><time>2026-04-11T08:18:41Z</time></trkpt><trkpt lat="43.36160143979978" lon="11.41904815659278"><ele>231.0</ele><time>2026-04-11T08:18:42Z</time></trkpt><trkpt lat="43.3615143501221" lon="11.41911405384837"><ele>231.20000000000002</ele><time>2026-04-11T08:18:43Z</time></trkpt><trkpt lat="43.361419962896356" lon="11.419157231425945"><ele>231.40000000000003</ele><time>2026-04-11T08:18:44Z</time></trkpt><trkpt lat="43.36132257179278" lon="11.419192409158692"><ele>231.6</ele><time>2026-04-11T08:18:45Z</time></trkpt><trkpt lat="43.36122239465252" lon="11.419219672695819"><ele>231.8</ele><time>2026-04-11T08:18:46Z</time></trkpt><trkpt lat="43.36112346853487" lon="11.419247966236691"><ele>232.0</ele><time>2026-04-11T08:18:47Z</time></trkpt><trkpt lat="43.361022017364725" lon="11.41928220678918"><ele>232.0</ele><time>2026-04-11T08:18:48Z</time></trkpt><trkpt lat="43.360920955466334" lon="11.419318383861901"><ele>232.0</ele><time>2026-04-11T08:18:49Z</time></trkpt><trkpt lat="43.36082045536316" lon="11.419352972409847"><ele>232.0</ele><time>2026-04-11T08:18:50Z</time></trkpt><trkpt lat="43.36072201428108" lon="11.419388730699511"><ele>232.0</ele><time>2026-04-11T08:18:51Z</time></trkpt><trkpt lat="43.36062400524653" lon="11.419420995587583"><ele>232.0</ele><time>2026-04-11T08:18:52Z</time></trkpt><trkpt lat="43.36052618975945" lon="11.419459667776996"><ele>231.6</ele><time>2026-04-11T08:18:52.999Z</time></trkpt><trkpt lat="43.36042835537169" lon="11.41949697506265"><ele>231.2</ele><time>2026-04-11T08:18:53.999Z</time></trkpt><trkpt lat="43.36033075126008" lon="11.419532845686819"><ele>230.8</ele><time>2026-04-11T08:18:54.999Z</time></trkpt><trkpt lat="43.360232518618126" lon="11.419568088585331"><ele>230.4</ele><time>2026-04-11T08:18:55.999Z</time></trkpt><trkpt lat="43.360132048965816" lon="11.41960156521505"><ele>230.0</ele><time>2026-04-11T08:18:56.999Z</time></trkpt><trkpt lat="43.36003172491548" lon="11.419639242355812"><ele>230.4</ele><time>2026-04-11T08:18:57.999Z</time></trkpt><trkpt lat="43.359932207869875" lon="11.419678643085415"><ele>230.8</ele><time>2026-04-11T08:18:58.999Z</time></trkpt><trkpt lat="43.35983299393575" lon="11.419716387417882"><ele>231.2</ele><time>2026-04-11T08:18:59.999Z</time></trkpt><trkpt lat="43.35973486897376" lon="11.41975201166208"><ele>231.6</ele><time>2026-04-11T08:19:00.999Z</time></trkpt><trkpt lat="43.359642985543815" lon="11.419785080896785"><ele>232.0</ele><time>2026-04-11T08:19:01.999Z</time></trkpt><trkpt lat="43.35954836061579" lon="11.419822293308163"><ele>231.2</ele><time>2026-04-11T08:19:02.999Z</time></trkpt><trkpt lat="43.359452334875364" lon="11.419859569379282"><ele>230.39999999999998</ele><time>2026-04-11T08:19:03.999Z</time></trkpt><trkpt lat="43.35935413935858" lon="11.419896445807964"><ele>229.60000000000002</ele><time>2026-04-11T08:19:04.999Z</time></trkpt><trkpt lat="43.35925437111002" lon="11.419926760530004"><ele>228.8</ele><time>2026-04-11T08:19:05.999Z</time></trkpt><trkpt lat="43.3591535632333" lon="11.419936872053437"><ele>228.0</ele><time>2026-04-11T08:19:06.999Z</time></trkpt><trkpt lat="43.3590541088041" lon="11.419911868265674"><ele>228.0</ele><time>2026-04-11T08:19:07.999Z</time></trkpt><trkpt lat="43.35896587255423" lon="11.419852976357134"><ele>228.0</ele><time>2026-04-11T08:19:08.999Z</time></trkpt><trkpt lat="43.35889173733254" lon="11.419757541725028"><ele>228.0</ele><time>2026-04-11T08:19:09.999Z</time></trkpt><trkpt lat="43.35882867700318" lon="11.419647678499356"><ele>228.0</ele><time>2026-04-11T08:19:10.999Z</time></trkpt><trkpt lat="43.35877026406507" lon="11.419540284064208"><ele>228.0</ele><time>2026-04-11T08:19:11.999Z</time></trkpt><trkpt lat="43.35870522474215" lon="11.419436883923549"><ele>226.8</ele><time>2026-04-11T08:19:12.999Z</time></trkpt><trkpt lat="43.358639989276384" lon="11.419333486020477"><ele>225.60000000000002</ele><time>2026-04-11T08:19:13.999Z</time></trkpt><trkpt lat="43.358573634182335" lon="11.419232793398114"><ele>224.39999999999998</ele><time>2026-04-11T08:19:14.999Z</time></trkpt><trkpt lat="43.358507033570575" lon="11.419130527968637"><ele>223.2</ele><time>2026-04-11T08:19:15.999Z</time></trkpt><trkpt lat="43.35844160589502" lon="11.419027640284824"><ele>222.0</ele><time>2026-04-11T08:19:16.999Z</time></trkpt><trkpt lat="43.35837535682419" lon="11.418925801658096"><ele>222.0</ele><time>2026-04-11T08:19:17.999Z</time></trkpt><trkpt lat="43.358309759691345" lon="11.41882670562516"><ele>222.0</ele><time>2026-04-11T08:19:18.999Z</time></trkpt><trkpt lat="43.35824729855991" lon="11.418726041421278"><ele>222.0</ele><time>2026-04-11T08:19:20Z</time></trkpt><trkpt lat="43.35818221100457" lon="11.418628835016596"><ele>222.0</ele><time>2026-04-11T08:19:21Z</time></trkpt><trkpt lat="43.358116320257" lon="11.418530474641475"><ele>222.0</ele><time>2026-04-11T08:19:22Z</time></trkpt><trkpt lat="43.35805274811974" lon="11.418432016751275"><ele>221.6</ele><time>2026-04-11T08:19:23Z</time></trkpt><trkpt lat="43.357987161654044" lon="11.418335429323857"><ele>221.2</ele><time>2026-04-11T08:19:24Z</time></trkpt><trkpt lat="43.357919519377" lon="11.418240183089585"><ele>220.8</ele><time>2026-04-11T08:19:25Z</time></trkpt><trkpt lat="43.35785414997991" lon="11.418145263339646"><ele>220.4</ele><time>2026-04-11T08:19:26Z</time></trkpt><trkpt lat="43.35778979609897" lon="11.418046257310733"><ele>220.0</ele><time>2026-04-11T08:19:27Z</time></trkpt><trkpt lat="43.35772700030506" lon="11.417946367863781"><ele>220.0</ele><time>2026-04-11T08:19:28Z</time></trkpt><trkpt lat="43.35766560563568" lon="11.417845491750885"><ele>220.0</ele><time>2026-04-11T08:19:29Z</time></trkpt><trkpt lat="43.35760156042807" lon="11.417751650407208"><ele>220.0</ele><time>2026-04-11T08:19:30Z</time></trkpt><trkpt lat="43.35753850887675" lon="11.417657854632532"><ele>220.0</ele><time>2026-04-11T08:19:31Z</time></trkpt><trkpt lat="43.35747747324621" lon="11.417563295448758"><ele>220.0</ele><time>2026-04-11T08:19:32Z</time></trkpt><trkpt lat="43.35742208089124" lon="11.417470548507543"><ele>219.99999999999997</ele><time>2026-04-11T08:19:33Z</time></trkpt><trkpt lat="43.35736482451387" lon="11.41737815697311"><ele>220.0</ele><time>2026-04-11T08:19:34Z</time></trkpt><trkpt lat="43.35730541418189" lon="11.41729676142785"><ele>220.0</ele><time>2026-04-11T08:19:35Z</time></trkpt><trkpt lat="43.35724753688107" lon="11.417214118723633"><ele>220.0</ele><time>2026-04-11T08:19:36Z</time></trkpt><trkpt lat="43.35719573725925" lon="11.417124719479816"><ele>219.99999999999997</ele><time>2026-04-11T08:19:37Z</time></trkpt><trkpt lat="43.35714356860222" lon="11.41704289521176"><ele>220.0</ele><time>2026-04-11T08:19:38Z</time></trkpt><trkpt lat="43.357093664811224" lon="11.41696517650754"><ele>219.85714285714283</ele><time>2026-04-11T08:19:39Z</time></trkpt><trkpt lat="43.35704152356249" lon="11.41688780643088"><ele>219.71428571428572</ele><time>2026-04-11T08:19:40Z</time></trkpt><trkpt lat="43.356990005599535" lon="11.416813342074834"><ele>219.57142857142856</ele><time>2026-04-11T08:19:41Z</time></trkpt><trkpt lat="43.35693864135257" lon="11.41673807177852"><ele>219.42857142857142</ele><time>2026-04-11T08:19:42Z</time></trkpt><trkpt lat="43.356889986464935" lon="11.416662384444075"><ele>219.28571428571428</ele><time>2026-04-11T08:19:43Z</time></trkpt><trkpt lat="43.35684175592625" lon="11.41658667015103"><ele>219.14285714285714</ele><time>2026-04-11T08:19:44Z</time></trkpt><trkpt lat="43.35679623314056" lon="11.416510352303224"><ele>219.0</ele><time>2026-04-11T08:19:45Z</time></trkpt><trkpt lat="43.3567505992399" lon="11.41643085265469"><ele>219.0</ele><time>2026-04-11T08:19:46Z</time></trkpt><trkpt lat="43.35670475464722" lon="11.416351786853214"><ele>219.0</ele><time>2026-04-11T08:19:47Z</time></trkpt><trkpt lat="43.35665917266205" lon="11.41627421731842"><ele>219.0</ele><time>2026-04-11T08:19:48Z</time></trkpt><trkpt lat="43.35661286667304" lon="11.416198221556824"><ele>219.0</ele><time>2026-04-11T08:19:49Z</time></trkpt><trkpt lat="43.35656758976275" lon="11.416118486665086"><ele>219.0</ele><time>2026-04-11T08:19:50Z</time></trkpt><trkpt lat="43.356521533768785" lon="11.416040108924621"><ele>219.0</ele><time>2026-04-11T08:19:51Z</time></trkpt><trkpt lat="43.35647454544108" lon="11.41596643872133"><ele>219.0</ele><time>2026-04-11T08:19:52Z</time></trkpt><trkpt lat="43.35642512769571" lon="11.415896317551603"><ele>219.42857142857144</ele><time>2026-04-11T08:19:53Z</time></trkpt><trkpt lat="43.35636934234781" lon="11.415841081786178"><ele>219.85714285714283</ele><time>2026-04-11T08:19:54Z</time></trkpt><trkpt lat="43.356304268534224" lon="11.415803838853977"><ele>220.28571428571428</ele><time>2026-04-11T08:19:55Z</time></trkpt><trkpt lat="43.35623475735987" lon="11.415785789266032"><ele>220.71428571428572</ele><time>2026-04-11T08:19:56Z</time></trkpt><trkpt lat="43.35616610273136" lon="11.415784348624173"><ele>221.14285714285717</ele><time>2026-04-11T08:19:57Z</time></trkpt><trkpt lat="43.35609761179137" lon="11.415803417313999"><ele>221.57142857142856</ele><time>2026-04-11T08:19:58Z</time></trkpt><trkpt lat="43.35603224897904" lon="11.41583814659658"><ele>222.0</ele><time>2026-04-11T08:19:59Z</time></trkpt><trkpt lat="43.355967062085405" lon="11.415875021245023"><ele>222.0</ele><time>2026-04-11T08:20:00Z</time></trkpt><trkpt lat="43.35590231989938" lon="11.415910218596398"><ele>222.0</ele><time>2026-04-11T08:20:01Z</time></trkpt><trkpt lat="43.355839991875385" lon="11.415949083270412"><ele>222.0</ele><time>2026-04-11T08:20:02Z</time></trkpt><trkpt lat="43.35578095624392" lon="11.41599655655661"><ele>222.0</ele><time>2026-04-11T08:20:03Z</time></trkpt><trkpt lat="43.355723073421075" lon="11.41604373873423"><ele>222.0</ele><time>2026-04-11T08:20:04Z</time></trkpt><trkpt lat="43.355663586042446" lon="11.416087148998926"><ele>222.0</ele><time>2026-04-11T08:20:05Z</time></trkpt><trkpt lat="43.35560392712983" lon="11.416126145508256"><ele>222.0</ele><time>2026-04-11T08:20:06Z</time></trkpt><trkpt lat="43.355543098948516" lon="11.416162703732144"><ele>222.71428571428572</ele><time>2026-04-11T08:20:07Z</time></trkpt><trkpt lat="43.35548348901376" lon="11.416196932458417"><ele>223.42857142857144</ele><time>2026-04-11T08:20:08Z</time></trkpt><trkpt lat="43.35542040919613" lon="11.416222619155441"><ele>224.14285714285717</ele><time>2026-04-11T08:20:09Z</time></trkpt><trkpt lat="43.35535409835856" lon="11.416235206894322"><ele>224.85714285714286</ele><time>2026-04-11T08:20:10Z</time></trkpt><trkpt lat="43.35528682831615" lon="11.416233263249184"><ele>225.5714285714286</ele><time>2026-04-11T08:20:11Z</time></trkpt><trkpt lat="43.35521825317054" lon="11.416219507287348"><ele>226.2857142857143</ele><time>2026-04-11T08:20:12Z</time></trkpt><trkpt lat="43.35514970043187" lon="11.416205148826135"><ele>227.0</ele><time>2026-04-11T08:20:13Z</time></trkpt><trkpt lat="43.35508109541041" lon="11.416192408239331"><ele>227.0</ele><time>2026-04-11T08:20:14Z</time></trkpt><trkpt lat="43.35501010815405" lon="11.4161804210125"><ele>227.00000000000003</ele><time>2026-04-11T08:20:15Z</time></trkpt><trkpt lat="43.3549407045029" lon="11.416168957076652"><ele>227.0</ele><time>2026-04-11T08:20:16Z</time></trkpt><trkpt lat="43.35486973709357" lon="11.416160398888923"><ele>227.0</ele><time>2026-04-11T08:20:17Z</time></trkpt><trkpt lat="43.354796693181015" lon="11.416153966616276"><ele>227.00000000000003</ele><time>2026-04-11T08:20:18Z</time></trkpt><trkpt lat="43.35472495797884" lon="11.416149871439252"><ele>227.0</ele><time>2026-04-11T08:20:19Z</time></trkpt><trkpt lat="43.35465131599075" lon="11.416145725616431"><ele>227.0</ele><time>2026-04-11T08:20:20Z</time></trkpt><trkpt lat="43.35457869300944" lon="11.416136504646088"><ele>226.71428571428572</ele><time>2026-04-11T08:20:21Z</time></trkpt><trkpt lat="43.35450355035956" lon="11.416128072602634"><ele>226.42857142857144</ele><time>2026-04-11T08:20:22Z</time></trkpt><trkpt lat="43.354429464613276" lon="11.416122750156276"><ele>226.14285714285717</ele><time>2026-04-11T08:20:23Z</time></trkpt><trkpt lat="43.35435641939246" lon="11.416110859014323"><ele>225.8571428571429</ele><time>2026-04-11T08:20:24Z</time></trkpt><trkpt lat="43.35428316100114" lon="11.41610021715666"><ele>225.57142857142858</ele><time>2026-04-11T08:20:25Z</time></trkpt><trkpt lat="43.354210223560614" lon="11.416091594494183"><ele>225.28571428571433</ele><time>2026-04-11T08:20:26Z</time></trkpt><trkpt lat="43.354136453313174" lon="11.41608395271725"><ele>225.00000000000003</ele><time>2026-04-11T08:20:27Z</time></trkpt><trkpt lat="43.35406477863026" lon="11.416077870158022"><ele>225.00000000000003</ele><time>2026-04-11T08:20:28Z</time></trkpt><trkpt lat="43.353993354870376" lon="11.416070667529977"><ele>225.0</ele><time>2026-04-11T08:20:29Z</time></trkpt><trkpt lat="43.35392535786498" lon="11.416053444750547"><ele>225.00000000000003</ele><time>2026-04-11T08:20:30Z</time></trkpt><trkpt lat="43.353854187175784" lon="11.416045892538724"><ele>225.00000000000003</ele><time>2026-04-11T08:20:31Z</time></trkpt><trkpt lat="43.35378671741985" lon="11.416046715850934"><ele>225.0</ele><time>2026-04-11T08:20:32Z</time></trkpt><trkpt lat="43.35371476502717" lon="11.416032886575618"><ele>225.00000000000003</ele><time>2026-04-11T08:20:33Z</time></trkpt><trkpt lat="43.353646657696714" lon="11.416020463818958"><ele>225.00000000000003</ele><time>2026-04-11T08:20:34Z</time></trkpt><trkpt lat="43.3535785238652" lon="11.416005848309895"><ele>224.71428571428575</ele><time>2026-04-11T08:20:35Z</time></trkpt><trkpt lat="43.35350911666201" lon="11.415983952696847"><ele>224.42857142857144</ele><time>2026-04-11T08:20:36Z</time></trkpt><trkpt lat="43.353438066837676" lon="11.415960978827027"><ele>224.14285714285717</ele><time>2026-04-11T08:20:37Z</time></trkpt><trkpt lat="43.35336435684643" lon="11.415938703671003"><ele>223.8571428571429</ele><time>2026-04-11T08:20:38Z</time></trkpt><trkpt lat="43.353292390703245" lon="11.415918789214714"><ele>223.57142857142856</ele><time>2026-04-11T08:20:39Z</time></trkpt><trkpt lat="43.353217161078014" lon="11.415897665484996"><ele>223.28571428571428</ele><time>2026-04-11T08:20:40Z</time></trkpt><trkpt lat="43.35314385271812" lon="11.415873468407293"><ele>223.0</ele><time>2026-04-11T08:20:41Z</time></trkpt><trkpt lat="43.353067942170554" lon="11.415853062758028"><ele>222.99999999999997</ele><time>2026-04-11T08:20:42Z</time></trkpt><trkpt lat="43.35299163960352" lon="11.415827644401217"><ele>223.0</ele><time>2026-04-11T08:20:43Z</time></trkpt><trkpt lat="43.35291527088399" lon="11.415807508708394"><ele>223.0</ele><time>2026-04-11T08:20:44Z</time></trkpt><trkpt lat="43.35284020218458" lon="11.415783819805188"><ele>223.0</ele><time>2026-04-11T08:20:45Z</time></trkpt><trkpt lat="43.35276647115361" lon="11.41576051886406"><ele>222.99999999999997</ele><time>2026-04-11T08:20:46Z</time></trkpt><trkpt lat="43.35269197762719" lon="11.415741592682787"><ele>223.0</ele><time>2026-04-11T08:20:47Z</time></trkpt><trkpt lat="43.35261858531182" lon="11.415717714560774"><ele>223.0</ele><time>2026-04-11T08:20:48Z</time></trkpt><trkpt lat="43.352547006892564" lon="11.41569781997042"><ele>223.0</ele><time>2026-04-11T08:20:49Z</time></trkpt><trkpt lat="43.35247432062883" lon="11.415675657601517"><ele>223.0</ele><time>2026-04-11T08:20:50Z</time></trkpt><trkpt lat="43.35240017117112" lon="11.415655976551966"><ele>223.0</ele><time>2026-04-11T08:20:51Z</time></trkpt><trkpt lat="43.35232656708713" lon="11.415638476195022"><ele>223.0</ele><time>2026-04-11T08:20:52Z</time></trkpt><trkpt lat="43.35225444805104" lon="11.415620645624893"><ele>223.0</ele><time>2026-04-11T08:20:53Z</time></trkpt><trkpt lat="43.3521826432385" lon="11.415604850022248"><ele>223.0</ele><time>2026-04-11T08:20:53.999Z</time></trkpt><trkpt lat="43.3521118583776" lon="11.415586252708307"><ele>222.66666666666666</ele><time>2026-04-11T08:20:54.999Z</time></trkpt><trkpt lat="43.35204143143651" lon="11.415563112157137"><ele>222.33333333333331</ele><time>2026-04-11T08:20:55.999Z</time></trkpt><trkpt lat="43.35197007024911" lon="11.415543970840863"><ele>222.0</ele><time>2026-04-11T08:20:56.999Z</time></trkpt><trkpt lat="43.35189693093595" lon="11.415522727073911"><ele>221.66666666666669</ele><time>2026-04-11T08:20:57.999Z</time></trkpt><trkpt lat="43.3518225908521" lon="11.415499243652029"><ele>221.33333333333334</ele><time>2026-04-11T08:20:58.999Z</time></trkpt><trkpt lat="43.35174557637141" lon="11.415478725173358"><ele>221.0</ele><time>2026-04-11T08:20:59.999Z</time></trkpt><trkpt lat="43.35166672241317" lon="11.415456751855958"><ele>221.00000000000003</ele><time>2026-04-11T08:21:00.999Z</time></trkpt><trkpt lat="43.35158879400761" lon="11.415432716288992"><ele>221.0</ele><time>2026-04-11T08:21:01.999Z</time></trkpt><trkpt lat="43.3515111988052" lon="11.415408465766685"><ele>221.0</ele><time>2026-04-11T08:21:02.999Z</time></trkpt><trkpt lat="43.35143437610142" lon="11.41538445922031"><ele>221.0</ele><time>2026-04-11T08:21:03.999Z</time></trkpt><trkpt lat="43.35135734318504" lon="11.415361403471525"><ele>221.00000000000003</ele><time>2026-04-11T08:21:04.999Z</time></trkpt><trkpt lat="43.351281317860945" lon="11.415340215441098"><ele>221.0</ele><time>2026-04-11T08:21:05.999Z</time></trkpt><trkpt lat="43.35120528386637" lon="11.415317626798158"><ele>220.85714285714286</ele><time>2026-04-11T08:21:06.999Z</time></trkpt><trkpt lat="43.35112961139339" lon="11.415294136668656"><ele>220.71428571428572</ele><time>2026-04-11T08:21:07.999Z</time></trkpt><trkpt lat="43.35105446615005" lon="11.415272092317759"><ele>220.57142857142856</ele><time>2026-04-11T08:21:08.999Z</time></trkpt><trkpt lat="43.3509813061731" lon="11.415251167401495"><ele>220.42857142857144</ele><time>2026-04-11T08:21:09.999Z</time></trkpt><trkpt lat="43.350908914408684" lon="11.415233866820783"><ele>220.28571428571428</ele><time>2026-04-11T08:21:10.999Z</time></trkpt><trkpt lat="43.35083899380488" lon="11.415214517212712"><ele>220.14285714285714</ele><time>2026-04-11T08:21:11.999Z</time></trkpt><trkpt lat="43.35077256186389" lon="11.415189617587464"><ele>220.0</ele><time>2026-04-11T08:21:12.999Z</time></trkpt><trkpt lat="43.35070718860231" lon="11.41516872245884"><ele>220.0</ele><time>2026-04-11T08:21:13.999Z</time></trkpt><trkpt lat="43.35064245993775" lon="11.41514957240807"><ele>220.0</ele><time>2026-04-11T08:21:14.999Z</time></trkpt><trkpt lat="43.35052306160912" lon="11.41511706149406"><ele>220.0</ele><time>2026-04-11T08:21:16.999Z</time></trkpt><trkpt lat="43.35040736027904" lon="11.415087360225668"><ele>220.0</ele><time>2026-04-11T08:21:18.999Z</time></trkpt><trkpt lat="43.35029998891708" lon="11.415052492299262"><ele>220.0</ele><time>2026-04-11T08:21:20.999Z</time></trkpt><trkpt lat="43.35020279501221" lon="11.415003534395275"><ele>220.4</ele><time>2026-04-11T08:21:22.999Z</time></trkpt><trkpt lat="43.35011950705539" lon="11.414926580749267"><ele>220.8</ele><time>2026-04-11T08:21:24.999Z</time></trkpt><trkpt lat="43.35004376713686" lon="11.414844535693748"><ele>221.2</ele><time>2026-04-11T08:21:27Z</time></trkpt><trkpt lat="43.34998364020383" lon="11.414754845168806"><ele>221.6</ele><time>2026-04-11T08:21:29Z</time></trkpt><trkpt lat="43.34993360342293" lon="11.414642942076087"><ele>222.0</ele><time>2026-04-11T08:21:31Z</time></trkpt><trkpt lat="43.349879463015704" lon="11.41454519403162"><ele>222.0</ele><time>2026-04-11T08:21:33Z</time></trkpt><trkpt lat="43.3498224821389" lon="11.414453523340025"><ele>222.0</ele><time>2026-04-11T08:21:35Z</time></trkpt><trkpt lat="43.34977084981034" lon="11.414352151365875"><ele>222.0</ele><time>2026-04-11T08:21:37Z</time></trkpt><trkpt lat="43.349717629188774" lon="11.414253620580448"><ele>222.0</ele><time>2026-04-11T08:21:39Z</time></trkpt><trkpt lat="43.34966563189038" lon="11.414159734799606"><ele>222.0</ele><time>2026-04-11T08:21:41Z</time></trkpt><trkpt lat="43.349619426849195" lon="11.414070103300398"><ele>222.0</ele><time>2026-04-11T08:21:43Z</time></trkpt><trkpt lat="43.34957713597407" lon="11.413973886901218"><ele>222.83333333333334</ele><time>2026-04-11T08:21:45Z</time></trkpt><trkpt lat="43.34954198156223" lon="11.413867543537087"><ele>223.66666666666669</ele><time>2026-04-11T08:21:47Z</time></trkpt><trkpt lat="43.349503836632394" lon="11.413766052397797"><ele>224.5</ele><time>2026-04-11T08:21:49Z</time></trkpt><trkpt lat="43.3494672799647" lon="11.413664708075592"><ele>225.33333333333334</ele><time>2026-04-11T08:21:51Z</time></trkpt><trkpt lat="43.34943585343556" lon="11.413557960408758"><ele>226.16666666666669</ele><time>2026-04-11T08:21:53Z</time></trkpt><trkpt lat="43.349410041698455" lon="11.413463621039767"><ele>227.0</ele><time>2026-04-11T08:21:55Z</time></trkpt><trkpt lat="43.349372605724575" lon="11.413363690033984"><ele>227.0</ele><time>2026-04-11T08:21:58Z</time></trkpt><trkpt lat="43.349317594888866" lon="11.413231542838675"><ele>227.0</ele><time>2026-04-11T08:22:01Z</time></trkpt><trkpt lat="43.34926377024984" lon="11.413144088985687"><ele>227.0</ele><time>2026-04-11T08:22:02Z</time></trkpt><trkpt lat="43.34920814732222" lon="11.413050846144328"><ele>227.0</ele><time>2026-04-11T08:22:04Z</time></trkpt><trkpt lat="43.3491452565104" lon="11.41296653733079"><ele>227.0</ele><time>2026-04-11T08:22:06Z</time></trkpt><trkpt lat="43.349077216402236" lon="11.412875919269757"><ele>226.6</ele><time>2026-04-11T08:22:08Z</time></trkpt><trkpt lat="43.34900708401384" lon="11.412785145137008"><ele>226.2</ele><time>2026-04-11T08:22:10Z</time></trkpt><trkpt lat="43.34894221988207" lon="11.412686752602568"><ele>225.8</ele><time>2026-04-11T08:22:12Z</time></trkpt><trkpt lat="43.34887769823769" lon="11.412588162762908"><ele>225.4</ele><time>2026-04-11T08:22:14Z</time></trkpt><trkpt lat="43.34882355078307" lon="11.412475069756768"><ele>225.0</ele><time>2026-04-11T08:22:16Z</time></trkpt><trkpt lat="43.348773512712796" lon="11.412364470863894"><ele>226.4</ele><time>2026-04-11T08:22:18Z</time></trkpt><trkpt lat="43.34872446795629" lon="11.412254793120784"><ele>227.8</ele><time>2026-04-11T08:22:20Z</time></trkpt><trkpt lat="43.34867574694075" lon="11.412136796822661"><ele>229.2</ele><time>2026-04-11T08:22:22Z</time></trkpt><trkpt lat="43.34863514374105" lon="11.412020418007122"><ele>230.6</ele><time>2026-04-11T08:22:24Z</time></trkpt><trkpt lat="43.348601608614246" lon="11.411902122121772"><ele>232.0</ele><time>2026-04-11T08:22:26Z</time></trkpt><trkpt lat="43.34857725909346" lon="11.411779408772363"><ele>231.99999999999997</ele><time>2026-04-11T08:22:28Z</time></trkpt><trkpt lat="43.34855981208047" lon="11.411653787404637"><ele>232.0</ele><time>2026-04-11T08:22:30Z</time></trkpt><trkpt lat="43.34854931702262" lon="11.411527256105098"><ele>232.0</ele><time>2026-04-11T08:22:32Z</time></trkpt><trkpt lat="43.34854087234724" lon="11.411409114941597"><ele>232.0</ele><time>2026-04-11T08:22:34Z</time></trkpt><trkpt lat="43.348535300954026" lon="11.411308574046178"><ele>231.99999999999997</ele><time>2026-04-11T08:22:36Z</time></trkpt><trkpt lat="43.34853035101508" lon="11.411217557244616"><ele>232.0</ele><time>2026-04-11T08:22:38Z</time></trkpt><trkpt lat="43.34852569029369" lon="11.411130495655458"><ele>232.99999999999997</ele><time>2026-04-11T08:22:40Z</time></trkpt><trkpt lat="43.34851813549598" lon="11.411017055420157"><ele>234.0</ele><time>2026-04-11T08:22:43Z</time></trkpt><trkpt lat="43.348505975961196" lon="11.410899114113422"><ele>235.0</ele><time>2026-04-11T08:22:46Z</time></trkpt><trkpt lat="43.34849166878957" lon="11.410775497654019"><ele>236.0</ele><time>2026-04-11T08:22:49Z</time></trkpt><trkpt lat="43.34847830859856" lon="11.410686246102076"><ele>236.99999999999997</ele><time>2026-04-11T08:22:52Z</time></trkpt><trkpt lat="43.34845911762867" lon="11.410586765688524"><ele>238.0</ele><time>2026-04-11T08:22:55Z</time></trkpt><trkpt lat="43.348433516997375" lon="11.410454752831173"><ele>238.33333333333331</ele><time>2026-04-11T08:22:57.999Z</time></trkpt><trkpt lat="43.34841236836927" lon="11.410353691384909"><ele>238.66666666666666</ele><time>2026-04-11T08:23:00.999Z</time></trkpt><trkpt lat="43.34838322353071" lon="11.41022764236154"><ele>239.0</ele><time>2026-04-11T08:23:04.999Z</time></trkpt><trkpt lat="43.34836181059609" lon="11.410143725451265"><ele>239.33333333333331</ele><time>2026-04-11T08:23:06.999Z</time></trkpt><trkpt lat="43.34833578064168" lon="11.410029919881772"><ele>239.66666666666666</ele><time>2026-04-11T08:23:09.999Z</time></trkpt><trkpt lat="43.34830273656918" lon="11.409911146841239"><ele>240.0</ele><time>2026-04-11T08:23:12.999Z</time></trkpt><trkpt lat="43.34827705471207" lon="11.409808845720434"><ele>240.0</ele><time>2026-04-11T08:23:15.999Z</time></trkpt><trkpt lat="43.34825235227578" lon="11.409710784554903"><ele>240.0</ele><time>2026-04-11T08:23:18.999Z</time></trkpt><trkpt lat="43.34822583084425" lon="11.409607463836679"><ele>240.0</ele><time>2026-04-11T08:23:21.999Z</time></trkpt><trkpt lat="43.348198613993254" lon="11.409500868841697"><ele>240.0</ele><time>2026-04-11T08:23:24.999Z</time></trkpt><trkpt lat="43.34816959074925" lon="11.40939787789518"><ele>240.0</ele><time>2026-04-11T08:23:27.999Z</time></trkpt><trkpt lat="43.34814625953925" lon="11.409294384719937"><ele>240.0</ele><time>2026-04-11T08:23:30.999Z</time></trkpt><trkpt lat="43.3481215130544" lon="11.409185226134044"><ele>240.0</ele><time>2026-04-11T08:23:34Z</time></trkpt><trkpt lat="43.34810263722325" lon="11.409080552590172"><ele>240.0</ele><time>2026-04-11T08:23:37Z</time></trkpt><trkpt lat="43.348082002541624" lon="11.408976274162645"><ele>240.0</ele><time>2026-04-11T08:23:40Z</time></trkpt><trkpt lat="43.34806496942085" lon="11.408869736751235"><ele>240.0</ele><time>2026-04-11T08:23:43Z</time></trkpt><trkpt lat="43.34806218854525" lon="11.408755809350366"><ele>240.0</ele><time>2026-04-11T08:23:46Z</time></trkpt><trkpt lat="43.34805166891786" lon="11.40864117550887"><ele>240.0</ele><time>2026-04-11T08:23:49Z</time></trkpt><trkpt lat="43.34804510444539" lon="11.40852949793995"><ele>240.5</ele><time>2026-04-11T08:23:52Z</time></trkpt><trkpt lat="43.34804592579657" lon="11.408414786426587"><ele>241.0</ele><time>2026-04-11T08:23:55Z</time></trkpt><trkpt lat="43.34803908636851" lon="11.408301975543212"><ele>241.5</ele><time>2026-04-11T08:23:58Z</time></trkpt><trkpt lat="43.34803750710694" lon="11.408193686723449"><ele>242.0</ele><time>2026-04-11T08:24:01Z</time></trkpt><trkpt lat="43.34803392916008" lon="11.408083075510836"><ele>242.5</ele><time>2026-04-11T08:24:04Z</time></trkpt><trkpt lat="43.34803292180584" lon="11.40797344526657"><ele>243.0</ele><time>2026-04-11T08:24:07Z</time></trkpt><trkpt lat="43.34803738495861" lon="11.40785540359269"><ele>243.5</ele><time>2026-04-11T08:24:10Z</time></trkpt><trkpt lat="43.348038526095046" lon="11.407733317128752"><ele>244.0</ele><time>2026-04-11T08:24:13Z</time></trkpt><trkpt lat="43.34804180467769" lon="11.407618960519585"><ele>244.5</ele><time>2026-04-11T08:24:16Z</time></trkpt><trkpt lat="43.34804682439228" lon="11.407504535144511"><ele>245.0</ele><time>2026-04-11T08:24:19Z</time></trkpt><trkpt lat="43.34804827878522" lon="11.407394221227488"><ele>245.5</ele><time>2026-04-11T08:24:22Z</time></trkpt><trkpt lat="43.34805568235365" lon="11.407284957877065"><ele>246.0</ele><time>2026-04-11T08:24:25Z</time></trkpt><trkpt lat="43.34805675337749" lon="11.407174404534725"><ele>246.5</ele><time>2026-04-11T08:24:28Z</time></trkpt><trkpt lat="43.34805755982019" lon="11.407060031768628"><ele>247.0</ele><time>2026-04-11T08:24:31Z</time></trkpt><trkpt lat="43.34807322781645" lon="11.40694489808152"><ele>247.5</ele><time>2026-04-11T08:24:34Z</time></trkpt><trkpt lat="43.34808778263958" lon="11.406823012713396"><ele>248.0</ele><time>2026-04-11T08:24:37Z</time></trkpt><trkpt lat="43.34809838570263" lon="11.40670612070793"><ele>248.5</ele><time>2026-04-11T08:24:40Z</time></trkpt><trkpt lat="43.34811214890207" lon="11.406592403868638"><ele>249.0</ele><time>2026-04-11T08:24:43Z</time></trkpt><trkpt lat="43.34813128896545" lon="11.406479724553613"><ele>249.0</ele><time>2026-04-11T08:24:46Z</time></trkpt><trkpt lat="43.34814964041083" lon="11.406382628911494"><ele>249.0</ele><time>2026-04-11T08:24:48Z</time></trkpt><trkpt lat="43.34818170476613" lon="11.406265770896644"><ele>249.0</ele><time>2026-04-11T08:24:51Z</time></trkpt><trkpt lat="43.348209263278825" lon="11.406186520477576"><ele>249.0</ele><time>2026-04-11T08:24:53Z</time></trkpt><trkpt lat="43.34823982619843" lon="11.406075707202891"><ele>249.0</ele><time>2026-04-11T08:24:56Z</time></trkpt><trkpt lat="43.348271785153024" lon="11.405973163953488"><ele>249.0</ele><time>2026-04-11T08:24:59Z</time></trkpt><trkpt lat="43.348296871517306" lon="11.405872169955373"><ele>250.16666666666666</ele><time>2026-04-11T08:25:02Z</time></trkpt><trkpt lat="43.348327014168134" lon="11.405774532134902"><ele>251.33333333333331</ele><time>2026-04-11T08:25:04.999Z</time></trkpt><trkpt lat="43.34835485618876" lon="11.405665593592005"><ele>252.5</ele><time>2026-04-11T08:25:07.999Z</time></trkpt><trkpt lat="43.34837913832063" lon="11.405559059707326"><ele>253.66666666666666</ele><time>2026-04-11T08:25:10.999Z</time></trkpt><trkpt lat="43.34839842760606" lon="11.40544996387155"><ele>254.83333333333331</ele><time>2026-04-11T08:25:13.999Z</time></trkpt><trkpt lat="43.34841405948161" lon="11.405339951974922"><ele>256.0</ele><time>2026-04-11T08:25:16.999Z</time></trkpt><trkpt lat="43.348432898937084" lon="11.405244950993268"><ele>257.8333333333333</ele><time>2026-04-11T08:25:19.999Z</time></trkpt><trkpt lat="43.348445811287625" lon="11.405138425659931"><ele>259.66666666666663</ele><time>2026-04-11T08:25:22.999Z</time></trkpt><trkpt lat="43.34845304010134" lon="11.40503001922663"><ele>261.5</ele><time>2026-04-11T08:25:24.999Z</time></trkpt><trkpt lat="43.34846519993523" lon="11.404925888296066"><ele>263.3333333333333</ele><time>2026-04-11T08:25:27.999Z</time></trkpt><trkpt lat="43.348471292597026" lon="11.404830009750249"><ele>265.1666666666667</ele><time>2026-04-11T08:25:30.999Z</time></trkpt><trkpt lat="43.34848923164631" lon="11.404731734921276"><ele>267.0</ele><time>2026-04-11T08:25:33.999Z</time></trkpt><trkpt lat="43.348510947193745" lon="11.404621730924816"><ele>267.28571428571433</ele><time>2026-04-11T08:25:36.999Z</time></trkpt><trkpt lat="43.3485359292964" lon="11.404518947099186"><ele>267.57142857142856</ele><time>2026-04-11T08:25:40Z</time></trkpt><trkpt lat="43.348569211744596" lon="11.404420415926333"><ele>267.8571428571429</ele><time>2026-04-11T08:25:43Z</time></trkpt><trkpt lat="43.348603439966894" lon="11.404323311712364"><ele>268.14285714285717</ele><time>2026-04-11T08:25:46Z</time></trkpt><trkpt lat="43.348644804291816" lon="11.404245324019227"><ele>268.42857142857144</ele><time>2026-04-11T08:25:49Z</time></trkpt><trkpt lat="43.34868638505018" lon="11.4041761357743"><ele>268.7142857142857</ele><time>2026-04-11T08:25:52Z</time></trkpt><trkpt lat="43.34873876163055" lon="11.404100489406963"><ele>269.0</ele><time>2026-04-11T08:25:56Z</time></trkpt><trkpt lat="43.34880096098665" lon="11.404021152839043"><ele>269.0</ele><time>2026-04-11T08:26:00Z</time></trkpt><trkpt lat="43.348852874362954" lon="11.403958704108092"><ele>269.0</ele><time>2026-04-11T08:26:03Z</time></trkpt><trkpt lat="43.34890413417734" lon="11.403900768628949"><ele>269.0</ele><time>2026-04-11T08:26:06Z</time></trkpt><trkpt lat="43.348941801235846" lon="11.40382941565597"><ele>269.0</ele><time>2026-04-11T08:26:09Z</time></trkpt><trkpt lat="43.34898374772633" lon="11.403758000250708"><ele>269.0</ele><time>2026-04-11T08:26:12Z</time></trkpt><trkpt lat="43.349018902615505" lon="11.403679409160283"><ele>269.0</ele><time>2026-04-11T08:26:15Z</time></trkpt><trkpt lat="43.349053483206276" lon="11.403574418419192"><ele>269.0</ele><time>2026-04-11T08:26:19Z</time></trkpt><trkpt lat="43.349075620397066" lon="11.403492712363901"><ele>269.42857142857144</ele><time>2026-04-11T08:26:22Z</time></trkpt><trkpt lat="43.34909736978608" lon="11.403407316998129"><ele>269.8571428571429</ele><time>2026-04-11T08:26:25Z</time></trkpt><trkpt lat="43.34911874195633" lon="11.403310452905075"><ele>270.2857142857143</ele><time>2026-04-11T08:26:28Z</time></trkpt><trkpt lat="43.3491264876815" lon="11.4032112214543"><ele>270.7142857142857</ele><time>2026-04-11T08:26:31Z</time></trkpt><trkpt lat="43.349135553292015" lon="11.403114496883619"><ele>271.1428571428571</ele><time>2026-04-11T08:26:34Z</time></trkpt><trkpt lat="43.349146224311134" lon="11.403012227042188"><ele>271.57142857142856</ele><time>2026-04-11T08:26:37Z</time></trkpt><trkpt lat="43.34916088040714" lon="11.402909840609512"><ele>272.0</ele><time>2026-04-11T08:26:40Z</time></trkpt><trkpt lat="43.3491669364687" lon="11.402803765450331"><ele>273.1666666666667</ele><time>2026-04-11T08:26:43Z</time></trkpt><trkpt lat="43.34917270548301" lon="11.402716360054143"><ele>274.33333333333337</ele><time>2026-04-11T08:26:45Z</time></trkpt><trkpt lat="43.34917939686972" lon="11.402610615447465"><ele>275.5</ele><time>2026-04-11T08:26:48Z</time></trkpt><trkpt lat="43.349183022849566" lon="11.402504728926967"><ele>276.6666666666667</ele><time>2026-04-11T08:26:51Z</time></trkpt><trkpt lat="43.349191848591936" lon="11.402399386145568"><ele>277.8333333333333</ele><time>2026-04-11T08:26:54Z</time></trkpt><trkpt lat="43.349205857090915" lon="11.402293878071255"><ele>279.0</ele><time>2026-04-11T08:26:57Z</time></trkpt><trkpt lat="43.34922126907383" lon="11.402185682305696"><ele>280.3333333333333</ele><time>2026-04-11T08:27:00Z</time></trkpt><trkpt lat="43.34923554999569" lon="11.402080126718726"><ele>281.6666666666667</ele><time>2026-04-11T08:27:03Z</time></trkpt><trkpt lat="43.34925220923825" lon="11.401970361649235"><ele>283.0</ele><time>2026-04-11T08:27:05.999Z</time></trkpt><trkpt lat="43.3492812503622" lon="11.401864295627052"><ele>284.33333333333337</ele><time>2026-04-11T08:27:08.999Z</time></trkpt><trkpt lat="43.34931622258947" lon="11.401765003535843"><ele>285.6666666666667</ele><time>2026-04-11T08:27:11.999Z</time></trkpt><trkpt lat="43.349363805003556" lon="11.401677959042386"><ele>287.0</ele><time>2026-04-11T08:27:14.999Z</time></trkpt><trkpt lat="43.34941242619834" lon="11.401607667756661"><ele>287.0</ele><time>2026-04-11T08:27:17.999Z</time></trkpt><trkpt lat="43.3494792982757" lon="11.401549184938427"><ele>287.0</ele><time>2026-04-11T08:27:20.999Z</time></trkpt><trkpt lat="43.349556625108946" lon="11.401521394600065"><ele>287.0</ele><time>2026-04-11T08:27:23.999Z</time></trkpt><trkpt lat="43.349638814646674" lon="11.401517592486192"><ele>287.0</ele><time>2026-04-11T08:27:26.999Z</time></trkpt><trkpt lat="43.34970844905676" lon="11.401537183196199"><ele>287.0</ele><time>2026-04-11T08:27:29.999Z</time></trkpt><trkpt lat="43.34977627317844" lon="11.401561467838276"><ele>287.0</ele><time>2026-04-11T08:27:32.999Z</time></trkpt><trkpt lat="43.34984438302163" lon="11.401583490683471"><ele>286.2857142857143</ele><time>2026-04-11T08:27:35.999Z</time></trkpt><trkpt lat="43.34990805311895" lon="11.401605626966303"><ele>285.57142857142856</ele><time>2026-04-11T08:27:38.999Z</time></trkpt><trkpt lat="43.34997817433338" lon="11.401617473670353"><ele>284.8571428571429</ele><time>2026-04-11T08:27:41.999Z</time></trkpt><trkpt lat="43.350054681659905" lon="11.401615164164317"><ele>284.1428571428571</ele><time>2026-04-11T08:27:45Z</time></trkpt><trkpt lat="43.350117722126186" lon="11.401582147767337"><ele>283.42857142857144</ele><time>2026-04-11T08:27:47Z</time></trkpt><trkpt lat="43.35018111788562" lon="11.401521809769745"><ele>282.7142857142857</ele><time>2026-04-11T08:27:50Z</time></trkpt><trkpt lat="43.35023139804856" lon="11.401426764482935"><ele>282.0</ele><time>2026-04-11T08:27:53Z</time></trkpt><trkpt lat="43.3502500469862" lon="11.401317674888901"><ele>283.42857142857144</ele><time>2026-04-11T08:27:57Z</time></trkpt><trkpt lat="43.35023146614019" lon="11.401234572396362"><ele>284.85714285714283</ele><time>2026-04-11T08:28:00Z</time></trkpt><trkpt lat="43.35019645303104" lon="11.401150676300349"><ele>286.2857142857143</ele><time>2026-04-11T08:28:03Z</time></trkpt><trkpt lat="43.35014836964009" lon="11.40107102058121"><ele>287.7142857142857</ele><time>2026-04-11T08:28:06Z</time></trkpt><trkpt lat="43.35009674808175" lon="11.400994078043928"><ele>289.14285714285717</ele><time>2026-04-11T08:28:09Z</time></trkpt><trkpt lat="43.350043231391375" lon="11.400919824924397"><ele>290.57142857142856</ele><time>2026-04-11T08:28:12Z</time></trkpt><trkpt lat="43.34998005783194" lon="11.400838773340686"><ele>292.0</ele><time>2026-04-11T08:28:15Z</time></trkpt><trkpt lat="43.3499213192257" lon="11.40077072944728"><ele>292.0</ele><time>2026-04-11T08:28:18Z</time></trkpt><trkpt lat="43.349860648505285" lon="11.40070957059057"><ele>292.0</ele><time>2026-04-11T08:28:21Z</time></trkpt><trkpt lat="43.34979119464642" lon="11.400662947538228"><ele>292.0</ele><time>2026-04-11T08:28:24Z</time></trkpt><trkpt lat="43.34971391778623" lon="11.400626747335512"><ele>292.0</ele><time>2026-04-11T08:28:27Z</time></trkpt><trkpt lat="43.34962479295735" lon="11.40060896614146"><ele>292.0</ele><time>2026-04-11T08:28:30Z</time></trkpt><trkpt lat="43.34953342298332" lon="11.400612575215048"><ele>292.0</ele><time>2026-04-11T08:28:33Z</time></trkpt><trkpt lat="43.34946043719228" lon="11.400635523237025"><ele>292.3333333333333</ele><time>2026-04-11T08:28:36Z</time></trkpt><trkpt lat="43.34938746692953" lon="11.400670351506207"><ele>292.66666666666663</ele><time>2026-04-11T08:28:39Z</time></trkpt><trkpt lat="43.349309251468505" lon="11.400712274731923"><ele>293.0</ele><time>2026-04-11T08:28:42Z</time></trkpt><trkpt lat="43.34922068426992" lon="11.40075582851403"><ele>293.3333333333333</ele><time>2026-04-11T08:28:45Z</time></trkpt><trkpt lat="43.349135954831986" lon="11.400810242184663"><ele>293.6666666666667</ele><time>2026-04-11T08:28:48Z</time></trkpt><trkpt lat="43.34907692295688" lon="11.40084152879921"><ele>294.0</ele><time>2026-04-11T08:28:50Z</time></trkpt><trkpt lat="43.348993063476264" lon="11.40088459175967"><ele>294.0</ele><time>2026-04-11T08:28:53Z</time></trkpt><trkpt lat="43.34891402435175" lon="11.400942977273447"><ele>294.0</ele><time>2026-04-11T08:28:56Z</time></trkpt><trkpt lat="43.348830260520124" lon="11.400990026483496"><ele>294.0</ele><time>2026-04-11T08:28:59Z</time></trkpt><trkpt lat="43.3487468060027" lon="11.401026793287938"><ele>294.0</ele><time>2026-04-11T08:29:02Z</time></trkpt><trkpt lat="43.34864986607221" lon="11.401029009875504"><ele>294.0</ele><time>2026-04-11T08:29:05Z</time></trkpt><trkpt lat="43.34856693883899" lon="11.400980641889857"><ele>295.0</ele><time>2026-04-11T08:29:08Z</time></trkpt><trkpt lat="43.34849803853729" lon="11.400907662544792"><ele>296.0</ele><time>2026-04-11T08:29:10.999Z</time></trkpt><trkpt lat="43.348427073958334" lon="11.400827410189493"><ele>297.0</ele><time>2026-04-11T08:29:13.999Z</time></trkpt><trkpt lat="43.34835664215483" lon="11.400746331530671"><ele>298.0</ele><time>2026-04-11T08:29:16.999Z</time></trkpt><trkpt lat="43.34829045127748" lon="11.400662498073368"><ele>299.0</ele><time>2026-04-11T08:29:19.999Z</time></trkpt><trkpt lat="43.34822149293612" lon="11.400585585770354"><ele>300.0</ele><time>2026-04-11T08:29:22.999Z</time></trkpt><trkpt lat="43.348146542322716" lon="11.400515737325046"><ele>301.1666666666667</ele><time>2026-04-11T08:29:25.999Z</time></trkpt><trkpt lat="43.34807259461675" lon="11.40045107456702"><ele>302.3333333333333</ele><time>2026-04-11T08:29:28.999Z</time></trkpt><trkpt lat="43.347998058677135" lon="11.400390398936585"><ele>303.5</ele><time>2026-04-11T08:29:31.999Z</time></trkpt><trkpt lat="43.347922977035346" lon="11.400335948717476"><ele>304.66666666666663</ele><time>2026-04-11T08:29:34.999Z</time></trkpt><trkpt lat="43.34784413569043" lon="11.400297271288625"><ele>305.8333333333333</ele><time>2026-04-11T08:29:37.999Z</time></trkpt><trkpt lat="43.34776575266778" lon="11.400244735428588"><ele>307.0</ele><time>2026-04-11T08:29:40.999Z</time></trkpt><trkpt lat="43.34769000202672" lon="11.400201363737386"><ele>307.0</ele><time>2026-04-11T08:29:43.999Z</time></trkpt><trkpt lat="43.34761480296197" lon="11.400143960128066"><ele>307.0</ele><time>2026-04-11T08:29:46.999Z</time></trkpt><trkpt lat="43.34754391305245" lon="11.400074943909523"><ele>307.0</ele><time>2026-04-11T08:29:50Z</time></trkpt><trkpt lat="43.34749151552186" lon="11.399986641515563"><ele>307.0</ele><time>2026-04-11T08:29:53Z</time></trkpt><trkpt lat="43.34744743627517" lon="11.39988576302206"><ele>307.0</ele><time>2026-04-11T08:29:56Z</time></trkpt><trkpt lat="43.34742974186485" lon="11.399770821659299"><ele>307.0</ele><time>2026-04-11T08:29:59Z</time></trkpt><trkpt lat="43.3474322683569" lon="11.399652576931745"><ele>307.16666666666663</ele><time>2026-04-11T08:30:02Z</time></trkpt><trkpt lat="43.34746808572998" lon="11.399536752908176"><ele>307.3333333333333</ele><time>2026-04-11T08:30:05Z</time></trkpt><trkpt lat="43.34752637732497" lon="11.399443377472677"><ele>307.5</ele><time>2026-04-11T08:30:08Z</time></trkpt><trkpt lat="43.34758896241257" lon="11.399357519170058"><ele>307.6666666666667</ele><time>2026-04-11T08:30:11Z</time></trkpt><trkpt lat="43.34767206539502" lon="11.399294925285862"><ele>307.83333333333337</ele><time>2026-04-11T08:30:14Z</time></trkpt><trkpt lat="43.347731409142355" lon="11.399247796396981"><ele>308.0</ele><time>2026-04-11T08:30:16Z</time></trkpt><trkpt lat="43.34779596044725" lon="11.399205161916566"><ele>308.0</ele><time>2026-04-11T08:30:18Z</time></trkpt><trkpt lat="43.347863388812115" lon="11.399152917946658"><ele>308.0</ele><time>2026-04-11T08:30:20Z</time></trkpt><trkpt lat="43.34793501087841" lon="11.39911241881452"><ele>308.0</ele><time>2026-04-11T08:30:22Z</time></trkpt><trkpt lat="43.348010433788446" lon="11.399082229207881"><ele>308.0</ele><time>2026-04-11T08:30:24Z</time></trkpt><trkpt lat="43.34808663747538" lon="11.399060802750535"><ele>308.0</ele><time>2026-04-11T08:30:26Z</time></trkpt><trkpt lat="43.34816319811003" lon="11.39903583759352"><ele>308.0</ele><time>2026-04-11T08:30:28Z</time></trkpt><trkpt lat="43.34823752269725" lon="11.399017490252536"><ele>308.33333333333337</ele><time>2026-04-11T08:30:30Z</time></trkpt><trkpt lat="43.348307793930026" lon="11.399006160889574"><ele>308.6666666666667</ele><time>2026-04-11T08:30:32Z</time></trkpt><trkpt lat="43.34839552936171" lon="11.398986190489772"><ele>309.0</ele><time>2026-04-11T08:30:35Z</time></trkpt><trkpt lat="43.34843198793926" lon="11.398899207378978"><ele>309.3333333333333</ele><time>2026-04-11T08:30:38Z</time></trkpt><trkpt lat="43.348408710430974" lon="11.398799096562477"><ele>309.66666666666663</ele><time>2026-04-11T08:30:40Z</time></trkpt><trkpt lat="43.34836564485906" lon="11.39870274547952"><ele>310.0</ele><time>2026-04-11T08:30:42Z</time></trkpt><trkpt lat="43.34830941632085" lon="11.398603862111893"><ele>309.0</ele><time>2026-04-11T08:30:44Z</time></trkpt><trkpt lat="43.3482387466001" lon="11.398504029618268"><ele>308.0</ele><time>2026-04-11T08:30:46Z</time></trkpt><trkpt lat="43.34813865928542" lon="11.398448346602887"><ele>307.0</ele><time>2026-04-11T08:30:48Z</time></trkpt><trkpt lat="43.34802723090081" lon="11.398465809695494"><ele>306.0</ele><time>2026-04-11T08:30:50Z</time></trkpt><trkpt lat="43.34791487336101" lon="11.398537335998922"><ele>305.0</ele><time>2026-04-11T08:30:52Z</time></trkpt><trkpt lat="43.347793813852505" lon="11.398595280597654"><ele>304.14285714285717</ele><time>2026-04-11T08:30:54Z</time></trkpt><trkpt lat="43.34772984275696" lon="11.398614981572143"><ele>303.2857142857143</ele><time>2026-04-11T08:30:55Z</time></trkpt><trkpt lat="43.34766119486163" lon="11.398630452530838"><ele>302.42857142857144</ele><time>2026-04-11T08:30:56Z</time></trkpt><trkpt lat="43.34758853514434" lon="11.398644828990589"><ele>301.57142857142856</ele><time>2026-04-11T08:30:57Z</time></trkpt><trkpt lat="43.34751452851504" lon="11.398656555377716"><ele>300.7142857142857</ele><time>2026-04-11T08:30:58Z</time></trkpt><trkpt lat="43.34743961881343" lon="11.398668211022843"><ele>299.85714285714283</ele><time>2026-04-11T08:30:59Z</time></trkpt><trkpt lat="43.347365649612364" lon="11.398680586766933"><ele>299.0</ele><time>2026-04-11T08:31:00Z</time></trkpt><trkpt lat="43.34728920440275" lon="11.398695911978407"><ele>299.0</ele><time>2026-04-11T08:31:01Z</time></trkpt><trkpt lat="43.34721626345594" lon="11.398707113717323"><ele>299.0</ele><time>2026-04-11T08:31:02Z</time></trkpt><trkpt lat="43.34714025002807" lon="11.398720890277827"><ele>299.0</ele><time>2026-04-11T08:31:03Z</time></trkpt><trkpt lat="43.347064374973876" lon="11.398737386355284"><ele>299.0</ele><time>2026-04-11T08:31:04Z</time></trkpt><trkpt lat="43.34699276926083" lon="11.39875900556329"><ele>299.0</ele><time>2026-04-11T08:31:05Z</time></trkpt><trkpt lat="43.346923562835514" lon="11.398787928922467"><ele>299.0</ele><time>2026-04-11T08:31:06Z</time></trkpt><trkpt lat="43.34685823652844" lon="11.398827328742167"><ele>299.0</ele><time>2026-04-11T08:31:07Z</time></trkpt><trkpt lat="43.34679979830535" lon="11.398878502491888"><ele>299.42857142857144</ele><time>2026-04-11T08:31:08Z</time></trkpt><trkpt lat="43.34674801571085" lon="11.398935409127787"><ele>299.8571428571429</ele><time>2026-04-11T08:31:09Z</time></trkpt><trkpt lat="43.34669998980231" lon="11.39899780360592"><ele>300.28571428571433</ele><time>2026-04-11T08:31:10Z</time></trkpt><trkpt lat="43.34665736464083" lon="11.399073325407944"><ele>300.7142857142857</ele><time>2026-04-11T08:31:10.999Z</time></trkpt><trkpt lat="43.346606328171184" lon="11.399149296404694"><ele>301.14285714285717</ele><time>2026-04-11T08:31:11.999Z</time></trkpt><trkpt lat="43.34655478615569" lon="11.39922831736829"><ele>301.5714285714286</ele><time>2026-04-11T08:31:12.999Z</time></trkpt><trkpt lat="43.34650374367195" lon="11.399314660066644"><ele>302.0</ele><time>2026-04-11T08:31:13.999Z</time></trkpt><trkpt lat="43.34644951804517" lon="11.399402348738912"><ele>302.0</ele><time>2026-04-11T08:31:14.999Z</time></trkpt><trkpt lat="43.346394515567425" lon="11.399492138758726"><ele>302.0</ele><time>2026-04-11T08:31:15.999Z</time></trkpt><trkpt lat="43.34633708139931" lon="11.39958235430004"><ele>302.0</ele><time>2026-04-11T08:31:16.999Z</time></trkpt><trkpt lat="43.346280283822985" lon="11.399670692610947"><ele>302.0</ele><time>2026-04-11T08:31:17.999Z</time></trkpt><trkpt lat="43.34622272149536" lon="11.399759758475728"><ele>302.0</ele><time>2026-04-11T08:31:18.999Z</time></trkpt><trkpt lat="43.34616804975855" lon="11.39985123393985"><ele>302.0</ele><time>2026-04-11T08:31:19.999Z</time></trkpt><trkpt lat="43.34611565236543" lon="11.399936002315751"><ele>301.5</ele><time>2026-04-11T08:31:20.999Z</time></trkpt><trkpt lat="43.346064946764855" lon="11.400019295578122"><ele>301.0</ele><time>2026-04-11T08:31:21.999Z</time></trkpt><trkpt lat="43.34601717773899" lon="11.400098544042779"><ele>300.5</ele><time>2026-04-11T08:31:22.999Z</time></trkpt><trkpt lat="43.34596894446946" lon="11.400173056207676"><ele>300.0</ele><time>2026-04-11T08:31:23.999Z</time></trkpt><trkpt lat="43.34592052355629" lon="11.400239174128306"><ele>299.5</ele><time>2026-04-11T08:31:24.999Z</time></trkpt><trkpt lat="43.34587550265889" lon="11.400303397550068"><ele>299.0</ele><time>2026-04-11T08:31:25.999Z</time></trkpt><trkpt lat="43.345793395050855" lon="11.400420064793183"><ele>299.0</ele><time>2026-04-11T08:31:27.999Z</time></trkpt><trkpt lat="43.345717105276655" lon="11.400534061311028"><ele>299.0</ele><time>2026-04-11T08:31:29.999Z</time></trkpt><trkpt lat="43.34564185228225" lon="11.400648805120165"><ele>299.0</ele><time>2026-04-11T08:31:31.999Z</time></trkpt><trkpt lat="43.345561841581144" lon="11.400768209963463"><ele>299.0</ele><time>2026-04-11T08:31:33.999Z</time></trkpt><trkpt lat="43.345478626442656" lon="11.400898564495725"><ele>299.0</ele><time>2026-04-11T08:31:35.999Z</time></trkpt><trkpt lat="43.34543626417398" lon="11.400965240269382"><ele>299.0</ele><time>2026-04-11T08:31:36.999Z</time></trkpt><trkpt lat="43.34537701512976" lon="11.401010454100224"><ele>299.0</ele><time>2026-04-11T08:31:37.999Z</time></trkpt><trkpt lat="43.34532260090056" lon="11.401059326343434"><ele>299.0</ele><time>2026-04-11T08:31:38.999Z</time></trkpt><trkpt lat="43.34526814652779" lon="11.401116230672228"><ele>299.0</ele><time>2026-04-11T08:31:39.999Z</time></trkpt><trkpt lat="43.34519884271238" lon="11.401146803298031"><ele>299.0</ele><time>2026-04-11T08:31:40.999Z</time></trkpt><trkpt lat="43.34512664088231" lon="11.401177453893489"><ele>299.0</ele><time>2026-04-11T08:31:41.999Z</time></trkpt><trkpt lat="43.34505221394189" lon="11.401212288708805"><ele>299.0</ele><time>2026-04-11T08:31:42.999Z</time></trkpt><trkpt lat="43.34497637334987" lon="11.401248338454526"><ele>299.0</ele><time>2026-04-11T08:31:43.999Z</time></trkpt><trkpt lat="43.344895513815466" lon="11.40127404474985"><ele>299.0</ele><time>2026-04-11T08:31:44.999Z</time></trkpt><trkpt lat="43.34481182877939" lon="11.401296726130555"><ele>299.0</ele><time>2026-04-11T08:31:45.999Z</time></trkpt><trkpt lat="43.344654900756005" lon="11.401326767017354"><ele>299.0</ele><time>2026-04-11T08:31:47.999Z</time></trkpt><trkpt lat="43.34456955775916" lon="11.401329368185275"><ele>298.6666666666667</ele><time>2026-04-11T08:31:48.999Z</time></trkpt><trkpt lat="43.344485291957746" lon="11.401326300186955"><ele>298.33333333333337</ele><time>2026-04-11T08:31:49.999Z</time></trkpt><trkpt lat="43.344401363037655" lon="11.40132306948607"><ele>298.0</ele><time>2026-04-11T08:31:50.999Z</time></trkpt><trkpt lat="43.34431643166147" lon="11.401323147391777"><ele>297.6666666666667</ele><time>2026-04-11T08:31:51.999Z</time></trkpt><trkpt lat="43.344236696392954" lon="11.401328313281141"><ele>297.3333333333333</ele><time>2026-04-11T08:31:52.999Z</time></trkpt><trkpt lat="43.34415854915535" lon="11.40134091037024"><ele>297.0</ele><time>2026-04-11T08:31:53.999Z</time></trkpt><trkpt lat="43.344082239016544" lon="11.401363940734276"><ele>296.3333333333333</ele><time>2026-04-11T08:31:54.999Z</time></trkpt><trkpt lat="43.34400956442096" lon="11.401392546208333"><ele>295.6666666666667</ele><time>2026-04-11T08:31:56Z</time></trkpt><trkpt lat="43.34393408443464" lon="11.401424452002725"><ele>295.0</ele><time>2026-04-11T08:31:57Z</time></trkpt><trkpt lat="43.34385963991981" lon="11.401461385613569"><ele>294.33333333333337</ele><time>2026-04-11T08:31:58Z</time></trkpt><trkpt lat="43.34378244593981" lon="11.401506698024246"><ele>293.6666666666667</ele><time>2026-04-11T08:31:59Z</time></trkpt><trkpt lat="43.34371341641227" lon="11.401546810796424"><ele>293.0</ele><time>2026-04-11T08:32:00Z</time></trkpt><trkpt lat="43.343637717304375" lon="11.40159406098699"><ele>292.83333333333337</ele><time>2026-04-11T08:32:01Z</time></trkpt><trkpt lat="43.34356782693526" lon="11.401638279488822"><ele>292.6666666666667</ele><time>2026-04-11T08:32:02Z</time></trkpt><trkpt lat="43.34349816743786" lon="11.401683126028242"><ele>292.5</ele><time>2026-04-11T08:32:03Z</time></trkpt><trkpt lat="43.343428553227945" lon="11.401728063558798"><ele>292.3333333333333</ele><time>2026-04-11T08:32:04Z</time></trkpt><trkpt lat="43.343363733029356" lon="11.40178113411994"><ele>292.16666666666663</ele><time>2026-04-11T08:32:05Z</time></trkpt><trkpt lat="43.343296994142186" lon="11.401847559937737"><ele>292.0</ele><time>2026-04-11T08:32:06Z</time></trkpt><trkpt lat="43.343241047724796" lon="11.401927118436154"><ele>292.0</ele><time>2026-04-11T08:32:07Z</time></trkpt><trkpt lat="43.34319066090473" lon="11.40201599474285"><ele>292.0</ele><time>2026-04-11T08:32:08Z</time></trkpt><trkpt lat="43.343149743209814" lon="11.402105034821252"><ele>292.0</ele><time>2026-04-11T08:32:09Z</time></trkpt><trkpt lat="43.343121266608854" lon="11.402200680746"><ele>292.0</ele><time>2026-04-11T08:32:10Z</time></trkpt><trkpt lat="43.34309502574524" lon="11.402302143439918"><ele>292.0</ele><time>2026-04-11T08:32:11Z</time></trkpt><trkpt lat="43.34307790109277" lon="11.40239847960801"><ele>292.0</ele><time>2026-04-11T08:32:12Z</time></trkpt><trkpt lat="43.34306707736029" lon="11.402496809522257"><ele>291.57142857142856</ele><time>2026-04-11T08:32:13Z</time></trkpt><trkpt lat="43.34305943182713" lon="11.40258964532211"><ele>291.14285714285717</ele><time>2026-04-11T08:32:14Z</time></trkpt><trkpt lat="43.3430576546557" lon="11.40268480179342"><ele>290.7142857142857</ele><time>2026-04-11T08:32:15Z</time></trkpt><trkpt lat="43.34305150412572" lon="11.402781910985741"><ele>290.2857142857143</ele><time>2026-04-11T08:32:16Z</time></trkpt><trkpt lat="43.34304112485853" lon="11.402881683485036"><ele>289.85714285714283</ele><time>2026-04-11T08:32:17Z</time></trkpt><trkpt lat="43.34302062617481" lon="11.402985051219865"><ele>289.42857142857144</ele><time>2026-04-11T08:32:18Z</time></trkpt><trkpt lat="43.34298744522216" lon="11.403080368203002"><ele>289.0</ele><time>2026-04-11T08:32:19Z</time></trkpt><trkpt lat="43.342937890830584" lon="11.403164772621771"><ele>289.0</ele><time>2026-04-11T08:32:20Z</time></trkpt><trkpt lat="43.3428768000499" lon="11.403240003011616"><ele>289.0</ele><time>2026-04-11T08:32:21Z</time></trkpt><trkpt lat="43.34279967809009" lon="11.403284521244014"><ele>289.0</ele><time>2026-04-11T08:32:22Z</time></trkpt><trkpt lat="43.34271882163408" lon="11.403303920545815"><ele>289.0</ele><time>2026-04-11T08:32:23Z</time></trkpt><trkpt lat="43.34263508660289" lon="11.403315707512744"><ele>289.0</ele><time>2026-04-11T08:32:24Z</time></trkpt><trkpt lat="43.34254906544128" lon="11.403323630973455"><ele>289.0</ele><time>2026-04-11T08:32:25Z</time></trkpt><trkpt lat="43.34246085004758" lon="11.403338447141621"><ele>289.0</ele><time>2026-04-11T08:32:26Z</time></trkpt><trkpt lat="43.34237418337044" lon="11.403379530503765"><ele>289.0</ele><time>2026-04-11T08:32:27Z</time></trkpt><trkpt lat="43.342296235247524" lon="11.40344342132572"><ele>289.0</ele><time>2026-04-11T08:32:28Z</time></trkpt><trkpt lat="43.34221820398678" lon="11.403523737993584"><ele>289.0</ele><time>2026-04-11T08:32:29Z</time></trkpt><trkpt lat="43.34213800616591" lon="11.403616083310506"><ele>289.0</ele><time>2026-04-11T08:32:30Z</time></trkpt><trkpt lat="43.34205661136002" lon="11.403712456908378"><ele>288.0</ele><time>2026-04-11T08:32:31Z</time></trkpt><trkpt lat="43.341976159307926" lon="11.403800592032118"><ele>287.0</ele><time>2026-04-11T08:32:32Z</time></trkpt><trkpt lat="43.34190004936464" lon="11.40388785705877"><ele>286.0</ele><time>2026-04-11T08:32:33Z</time></trkpt><trkpt lat="43.34182649343846" lon="11.403968905439958"><ele>285.0</ele><time>2026-04-11T08:32:34Z</time></trkpt><trkpt lat="43.341757784875085" lon="11.404044657206498"><ele>284.0</ele><time>2026-04-11T08:32:35Z</time></trkpt><trkpt lat="43.34169642861458" lon="11.404124532197509"><ele>284.0</ele><time>2026-04-11T08:32:36Z</time></trkpt><trkpt lat="43.34163250041402" lon="11.404198927035008"><ele>284.0</ele><time>2026-04-11T08:32:37Z</time></trkpt><trkpt lat="43.34156765922894" lon="11.404273583018664"><ele>284.0</ele><time>2026-04-11T08:32:38Z</time></trkpt><trkpt lat="43.341504252774676" lon="11.404347014715187"><ele>284.0</ele><time>2026-04-11T08:32:39Z</time></trkpt><trkpt lat="43.341448229855644" lon="11.404411523942843"><ele>284.0</ele><time>2026-04-11T08:32:40Z</time></trkpt><trkpt lat="43.341391242262" lon="11.40447892632159"><ele>284.0</ele><time>2026-04-11T08:32:41Z</time></trkpt><trkpt lat="43.34133828451661" lon="11.404550630309734"><ele>285.2</ele><time>2026-04-11T08:32:42Z</time></trkpt><trkpt lat="43.341291050946644" lon="11.40462458288416"><ele>286.4</ele><time>2026-04-11T08:32:43Z</time></trkpt><trkpt lat="43.34124927344732" lon="11.404697539281488"><ele>287.6</ele><time>2026-04-11T08:32:44Z</time></trkpt><trkpt lat="43.34117509658726" lon="11.404826381891285"><ele>288.8</ele><time>2026-04-11T08:32:46Z</time></trkpt><trkpt lat="43.341104737796094" lon="11.404949337736921"><ele>290.0</ele><time>2026-04-11T08:32:48Z</time></trkpt><trkpt lat="43.34103292617458" lon="11.405059660556407"><ele>290.0</ele><time>2026-04-11T08:32:50Z</time></trkpt><trkpt lat="43.34095671820336" lon="11.405160335723425"><ele>290.0</ele><time>2026-04-11T08:32:52Z</time></trkpt><trkpt lat="43.340870541513944" lon="11.405255933907233"><ele>290.0</ele><time>2026-04-11T08:32:54Z</time></trkpt><trkpt lat="43.34077514855037" lon="11.40532092354951"><ele>290.0</ele><time>2026-04-11T08:32:56Z</time></trkpt><trkpt lat="43.34068071677934" lon="11.405388235385386"><ele>290.0</ele><time>2026-04-11T08:32:58Z</time></trkpt><trkpt lat="43.34058278215267" lon="11.405455400118354"><ele>290.0</ele><time>2026-04-11T08:33:00Z</time></trkpt><trkpt lat="43.34048043140272" lon="11.40551647305157"><ele>290.0</ele><time>2026-04-11T08:33:02Z</time></trkpt><trkpt lat="43.34037929440064" lon="11.405573925865825"><ele>290.0</ele><time>2026-04-11T08:33:04Z</time></trkpt><trkpt lat="43.3402847958199" lon="11.405631445613409"><ele>290.0</ele><time>2026-04-11T08:33:06Z</time></trkpt><trkpt lat="43.34019344457365" lon="11.40568199611237"><ele>290.0</ele><time>2026-04-11T08:33:08Z</time></trkpt><trkpt lat="43.340079048838064" lon="11.4057627604627"><ele>290.0</ele><time>2026-04-11T08:33:11Z</time></trkpt><trkpt lat="43.3399992707053" lon="11.405816989785258"><ele>290.0</ele><time>2026-04-11T08:33:13Z</time></trkpt><trkpt lat="43.339926167087896" lon="11.405861244317572"><ele>290.0</ele><time>2026-04-11T08:33:15Z</time></trkpt><trkpt lat="43.33985770713846" lon="11.405900223348805"><ele>290.0</ele><time>2026-04-11T08:33:17Z</time></trkpt><trkpt lat="43.33979385151181" lon="11.405941536404695"><ele>290.0</ele><time>2026-04-11T08:33:18.999Z</time></trkpt><trkpt lat="43.339734245173055" lon="11.405987766889124"><ele>290.0</ele><time>2026-04-11T08:33:20.999Z</time></trkpt><trkpt lat="43.339677602045136" lon="11.406033274266811"><ele>290.0</ele><time>2026-04-11T08:33:22.999Z</time></trkpt><trkpt lat="43.33962724341672" lon="11.406091096776905"><ele>289.5</ele><time>2026-04-11T08:33:24.999Z</time></trkpt><trkpt lat="43.33956883066322" lon="11.406190160369057"><ele>289.0</ele><time>2026-04-11T08:33:27.999Z</time></trkpt><trkpt lat="43.33950681982794" lon="11.40625388205262"><ele>288.5</ele><time>2026-04-11T08:33:30.999Z</time></trkpt><trkpt lat="43.33946610901476" lon="11.40639838243168"><ele>288.0</ele><time>2026-04-11T08:33:33.999Z</time></trkpt><trkpt lat="43.339430983870734" lon="11.406485305933272"><ele>287.5</ele><time>2026-04-11T08:33:35.999Z</time></trkpt><trkpt lat="43.33938724580005" lon="11.406562000417352"><ele>287.0</ele><time>2026-04-11T08:33:37.999Z</time></trkpt><trkpt lat="43.33933882483407" lon="11.406644424215404"><ele>287.0</ele><time>2026-04-11T08:33:38.999Z</time></trkpt><trkpt lat="43.33927992410994" lon="11.406725739224598"><ele>287.0</ele><time>2026-04-11T08:33:40.999Z</time></trkpt><trkpt lat="43.33917962274068" lon="11.406845213939985"><ele>287.0</ele><time>2026-04-11T08:33:43.999Z</time></trkpt><trkpt lat="43.339113327117026" lon="11.406925340098999"><ele>287.0</ele><time>2026-04-11T08:33:45.999Z</time></trkpt><trkpt lat="43.33905627978197" lon="11.407023862340166"><ele>287.0</ele><time>2026-04-11T08:33:47.999Z</time></trkpt><trkpt lat="43.33897750274487" lon="11.407089500008693"><ele>287.0</ele><time>2026-04-11T08:33:49.999Z</time></trkpt><trkpt lat="43.33891764553748" lon="11.407185548955763"><ele>287.0</ele><time>2026-04-11T08:33:51.999Z</time></trkpt><trkpt lat="43.33883834218659" lon="11.407255182851216"><ele>287.0</ele><time>2026-04-11T08:33:53.999Z</time></trkpt><trkpt lat="43.33876672330115" lon="11.407339621563532"><ele>287.0</ele><time>2026-04-11T08:33:55.999Z</time></trkpt><trkpt lat="43.33869314286652" lon="11.407420094785495"><ele>287.0</ele><time>2026-04-11T08:33:57.999Z</time></trkpt><trkpt lat="43.33862398217032" lon="11.407489747834507"><ele>287.33333333333337</ele><time>2026-04-11T08:33:59.999Z</time></trkpt><trkpt lat="43.338553064502804" lon="11.407554516167233"><ele>287.6666666666667</ele><time>2026-04-11T08:34:02Z</time></trkpt><trkpt lat="43.33847534787827" lon="11.40761855929669"><ele>288.0</ele><time>2026-04-11T08:34:04Z</time></trkpt><trkpt lat="43.338386444072675" lon="11.407699492546298"><ele>288.3333333333333</ele><time>2026-04-11T08:34:07Z</time></trkpt><trkpt lat="43.338330324012816" lon="11.407741560274655"><ele>288.66666666666663</ele><time>2026-04-11T08:34:08Z</time></trkpt><trkpt lat="43.33825637326623" lon="11.407792033149628"><ele>289.0</ele><time>2026-04-11T08:34:10Z</time></trkpt><trkpt lat="43.3381585598608" lon="11.407805844361434"><ele>289.0</ele><time>2026-04-11T08:34:12Z</time></trkpt><trkpt lat="43.33806191971536" lon="11.407801925432683"><ele>289.0</ele><time>2026-04-11T08:34:14Z</time></trkpt><trkpt lat="43.33797909202327" lon="11.407741258297708"><ele>289.0</ele><time>2026-04-11T08:34:16Z</time></trkpt><trkpt lat="43.337893191553235" lon="11.40766068298849"><ele>289.0</ele><time>2026-04-11T08:34:18Z</time></trkpt><trkpt lat="43.33780835897242" lon="11.407576416032729"><ele>289.0</ele><time>2026-04-11T08:34:20Z</time></trkpt><trkpt lat="43.3377255455527" lon="11.4074884072923"><ele>289.2</ele><time>2026-04-11T08:34:22Z</time></trkpt><trkpt lat="43.33765336456984" lon="11.407407223243778"><ele>289.4</ele><time>2026-04-11T08:34:24Z</time></trkpt><trkpt lat="43.337573597230445" lon="11.407330992021967"><ele>289.6</ele><time>2026-04-11T08:34:26Z</time></trkpt><trkpt lat="43.33749159105251" lon="11.407255406305156"><ele>289.8</ele><time>2026-04-11T08:34:28Z</time></trkpt><trkpt lat="43.33741451581595" lon="11.40718135914276"><ele>290.0</ele><time>2026-04-11T08:34:30Z</time></trkpt><trkpt lat="43.33734187050972" lon="11.407114967749068"><ele>290.0</ele><time>2026-04-11T08:34:32Z</time></trkpt><trkpt lat="43.33726417450897" lon="11.40704717001025"><ele>290.0</ele><time>2026-04-11T08:34:34Z</time></trkpt><trkpt lat="43.33718164459553" lon="11.406995410641686"><ele>290.0</ele><time>2026-04-11T08:34:36Z</time></trkpt><trkpt lat="43.33708471082688" lon="11.406940475763856"><ele>290.0</ele><time>2026-04-11T08:34:38Z</time></trkpt><trkpt lat="43.33697804516919" lon="11.40689093316194"><ele>290.0</ele><time>2026-04-11T08:34:40Z</time></trkpt><trkpt lat="43.336866494057" lon="11.406850666728042"><ele>290.4</ele><time>2026-04-11T08:34:42Z</time></trkpt><trkpt lat="43.336765868923095" lon="11.406807565265453"><ele>290.8</ele><time>2026-04-11T08:34:44Z</time></trkpt><trkpt lat="43.336708905488905" lon="11.406766120364729"><ele>291.2</ele><time>2026-04-11T08:34:45Z</time></trkpt><trkpt lat="43.33660905940666" lon="11.4067231969056"><ele>291.6</ele><time>2026-04-11T08:34:47Z</time></trkpt><trkpt lat="43.33650228934308" lon="11.40667603757804"><ele>292.0</ele><time>2026-04-11T08:34:49Z</time></trkpt><trkpt lat="43.33638737119155" lon="11.40664665006667"><ele>293.4</ele><time>2026-04-11T08:34:51Z</time></trkpt><trkpt lat="43.336269181308325" lon="11.406628801455065"><ele>294.79999999999995</ele><time>2026-04-11T08:34:53Z</time></trkpt><trkpt lat="43.33615669259146" lon="11.406649856725858"><ele>296.2</ele><time>2026-04-11T08:34:55Z</time></trkpt><trkpt lat="43.33605489140019" lon="11.406692664455036"><ele>297.59999999999997</ele><time>2026-04-11T08:34:57Z</time></trkpt><trkpt lat="43.335964366215826" lon="11.406765022081885"><ele>299.0</ele><time>2026-04-11T08:34:59Z</time></trkpt><trkpt lat="43.33588285406089" lon="11.406842663157754"><ele>299.0</ele><time>2026-04-11T08:35:01Z</time></trkpt><trkpt lat="43.33580232201971" lon="11.406928576065766"><ele>299.0</ele><time>2026-04-11T08:35:03Z</time></trkpt><trkpt lat="43.33572737689738" lon="11.407022368864032"><ele>299.0</ele><time>2026-04-11T08:35:05Z</time></trkpt><trkpt lat="43.33565991763281" lon="11.40711186645468"><ele>299.0</ele><time>2026-04-11T08:35:07Z</time></trkpt><trkpt lat="43.33555857121527" lon="11.40725368845284"><ele>299.0</ele><time>2026-04-11T08:35:10Z</time></trkpt><trkpt lat="43.33547892516577" lon="11.407321766687987"><ele>298.6666666666667</ele><time>2026-04-11T08:35:12Z</time></trkpt><trkpt lat="43.33540034996448" lon="11.407348256750263"><ele>298.33333333333337</ele><time>2026-04-11T08:35:14Z</time></trkpt><trkpt lat="43.33532700298678" lon="11.40737033373147"><ele>298.0</ele><time>2026-04-11T08:35:16Z</time></trkpt><trkpt lat="43.33525424869664" lon="11.40736828780569"><ele>297.6666666666667</ele><time>2026-04-11T08:35:18Z</time></trkpt><trkpt lat="43.33516652340079" lon="11.407391104052957"><ele>297.3333333333333</ele><time>2026-04-11T08:35:20Z</time></trkpt><trkpt lat="43.335069234119324" lon="11.407409838984911"><ele>297.0</ele><time>2026-04-11T08:35:22Z</time></trkpt><trkpt lat="43.33496740452214" lon="11.407439770673284"><ele>297.0</ele><time>2026-04-11T08:35:24Z</time></trkpt><trkpt lat="43.334841076545736" lon="11.407463120931949"><ele>297.0</ele><time>2026-04-11T08:35:25.999Z</time></trkpt><trkpt lat="43.33476853553636" lon="11.407462155075375"><ele>297.0</ele><time>2026-04-11T08:35:26.999Z</time></trkpt><trkpt lat="43.33469533027075" lon="11.407459999470564"><ele>297.0</ele><time>2026-04-11T08:35:27.999Z</time></trkpt><trkpt lat="43.33460956341625" lon="11.407466963824923"><ele>297.0</ele><time>2026-04-11T08:35:28.999Z</time></trkpt><trkpt lat="43.334524438754066" lon="11.407470536085677"><ele>297.0</ele><time>2026-04-11T08:35:29.999Z</time></trkpt><trkpt lat="43.334451205685966" lon="11.407468332426928"><ele>295.8333333333333</ele><time>2026-04-11T08:35:30.999Z</time></trkpt><trkpt lat="43.33438057913119" lon="11.407460917883364"><ele>294.6666666666667</ele><time>2026-04-11T08:35:31.999Z</time></trkpt><trkpt lat="43.33427495818098" lon="11.407365219945564"><ele>293.5</ele><time>2026-04-11T08:35:33.999Z</time></trkpt><trkpt lat="43.334245083610405" lon="11.407266904688422"><ele>292.33333333333337</ele><time>2026-04-11T08:35:34.999Z</time></trkpt><trkpt lat="43.33423359405031" lon="11.407156953717553"><ele>291.1666666666667</ele><time>2026-04-11T08:35:35.999Z</time></trkpt><trkpt lat="43.33422731127673" lon="11.407045863224855"><ele>290.0</ele><time>2026-04-11T08:35:36.999Z</time></trkpt><trkpt lat="43.33421716120936" lon="11.406933999421328"><ele>289.83333333333337</ele><time>2026-04-11T08:35:37.999Z</time></trkpt><trkpt lat="43.334205094664846" lon="11.406815638754882"><ele>289.6666666666667</ele><time>2026-04-11T08:35:38.999Z</time></trkpt><trkpt lat="43.33418982349763" lon="11.406701922700028"><ele>289.5</ele><time>2026-04-11T08:35:39.999Z</time></trkpt><trkpt lat="43.33417351756677" lon="11.406588920642276"><ele>289.3333333333333</ele><time>2026-04-11T08:35:40.999Z</time></trkpt><trkpt lat="43.33415850475756" lon="11.406478849613993"><ele>289.16666666666663</ele><time>2026-04-11T08:35:41.999Z</time></trkpt><trkpt lat="43.334149008688684" lon="11.40637016300689"><ele>289.0</ele><time>2026-04-11T08:35:42.999Z</time></trkpt><trkpt lat="43.33413458645323" lon="11.406262976698173"><ele>288.5</ele><time>2026-04-11T08:35:43.999Z</time></trkpt><trkpt lat="43.33411906542506" lon="11.40616303134971"><ele>288.0</ele><time>2026-04-11T08:35:44.999Z</time></trkpt><trkpt lat="43.33410415534329" lon="11.406062301731202"><ele>287.5</ele><time>2026-04-11T08:35:45.999Z</time></trkpt><trkpt lat="43.33408884301223" lon="11.405962276412764"><ele>287.0</ele><time>2026-04-11T08:35:46.999Z</time></trkpt><trkpt lat="43.33408790363756" lon="11.405858538898087"><ele>286.5</ele><time>2026-04-11T08:35:47.999Z</time></trkpt><trkpt lat="43.33409522363996" lon="11.405753640915949"><ele>286.0</ele><time>2026-04-11T08:35:48.999Z</time></trkpt><trkpt lat="43.334105569562716" lon="11.405647264144502"><ele>286.0</ele><time>2026-04-11T08:35:49.999Z</time></trkpt><trkpt lat="43.334117420121174" lon="11.405538402180863"><ele>286.0</ele><time>2026-04-11T08:35:50.999Z</time></trkpt><trkpt lat="43.33412874349761" lon="11.405427003633235"><ele>286.0</ele><time>2026-04-11T08:35:51.999Z</time></trkpt><trkpt lat="43.33413748773774" lon="11.405312983553731"><ele>286.0</ele><time>2026-04-11T08:35:52.999Z</time></trkpt><trkpt lat="43.33414391094709" lon="11.405196444537722"><ele>286.0</ele><time>2026-04-11T08:35:53.999Z</time></trkpt><trkpt lat="43.33415343339594" lon="11.405079015996687"><ele>286.0</ele><time>2026-04-11T08:35:54.999Z</time></trkpt><trkpt lat="43.33416072178316" lon="11.40496251967702"><ele>285.3333333333333</ele><time>2026-04-11T08:35:55.999Z</time></trkpt><trkpt lat="43.33417429232047" lon="11.404845645087503"><ele>284.66666666666663</ele><time>2026-04-11T08:35:56.999Z</time></trkpt><trkpt lat="43.33418340119849" lon="11.404723084358096"><ele>284.0</ele><time>2026-04-11T08:35:57.999Z</time></trkpt><trkpt lat="43.33419282067243" lon="11.404607995294274"><ele>283.3333333333333</ele><time>2026-04-11T08:35:58.999Z</time></trkpt><trkpt lat="43.33420259576976" lon="11.404496607457823"><ele>282.6666666666667</ele><time>2026-04-11T08:35:59.999Z</time></trkpt><trkpt lat="43.33421342478584" lon="11.40438683029965"><ele>282.0</ele><time>2026-04-11T08:36:00.999Z</time></trkpt><trkpt lat="43.334218781654485" lon="11.404283137356215"><ele>282.0</ele><time>2026-04-11T08:36:01.999Z</time></trkpt><trkpt lat="43.33422020118335" lon="11.404190072050586"><ele>282.0</ele><time>2026-04-11T08:36:02.999Z</time></trkpt><trkpt lat="43.33420625570419" lon="11.404098630188985"><ele>282.0</ele><time>2026-04-11T08:36:03.999Z</time></trkpt><trkpt lat="43.334170983616545" lon="11.404026068096364"><ele>282.0</ele><time>2026-04-11T08:36:04.999Z</time></trkpt><trkpt lat="43.334107375653595" lon="11.40398467724992"><ele>282.0</ele><time>2026-04-11T08:36:05.999Z</time></trkpt><trkpt lat="43.334048307517705" lon="11.403948518853797"><ele>282.0</ele><time>2026-04-11T08:36:06.999Z</time></trkpt><trkpt lat="43.33397036857052" lon="11.404021780020106"><ele>282.0</ele><time>2026-04-11T08:36:08Z</time></trkpt><trkpt lat="43.33390818294098" lon="11.404068698259673"><ele>281.7142857142857</ele><time>2026-04-11T08:36:09Z</time></trkpt><trkpt lat="43.33384467682517" lon="11.404111364812337"><ele>281.42857142857144</ele><time>2026-04-11T08:36:10Z</time></trkpt><trkpt lat="43.33377919117347" lon="11.40414846059406"><ele>281.1428571428571</ele><time>2026-04-11T08:36:11Z</time></trkpt><trkpt lat="43.33371321676621" lon="11.40418258105941"><ele>280.8571428571429</ele><time>2026-04-11T08:36:12Z</time></trkpt><trkpt lat="43.33365028254842" lon="11.404204058863884"><ele>280.57142857142856</ele><time>2026-04-11T08:36:13Z</time></trkpt><trkpt lat="43.33357903966801" lon="11.40424678393031"><ele>280.2857142857143</ele><time>2026-04-11T08:36:14Z</time></trkpt><trkpt lat="43.33350916117368" lon="11.404282215244075"><ele>280.0</ele><time>2026-04-11T08:36:15Z</time></trkpt><trkpt lat="43.333438030084494" lon="11.40432101316775"><ele>280.0</ele><time>2026-04-11T08:36:16Z</time></trkpt><trkpt lat="43.333368486524606" lon="11.404355780454965"><ele>280.0</ele><time>2026-04-11T08:36:17Z</time></trkpt><trkpt lat="43.33329871486354" lon="11.404392342771816"><ele>280.0</ele><time>2026-04-11T08:36:18Z</time></trkpt><trkpt lat="43.333226900790216" lon="11.40442658446925"><ele>280.0</ele><time>2026-04-11T08:36:19Z</time></trkpt><trkpt lat="43.33315495826105" lon="11.40445646275429"><ele>280.0</ele><time>2026-04-11T08:36:20Z</time></trkpt><trkpt lat="43.33307957467857" lon="11.404496914745497"><ele>280.0</ele><time>2026-04-11T08:36:21Z</time></trkpt><trkpt lat="43.33300639542472" lon="11.404535776523176"><ele>280.16666666666663</ele><time>2026-04-11T08:36:22Z</time></trkpt><trkpt lat="43.33293098102075" lon="11.404574197530836"><ele>280.3333333333333</ele><time>2026-04-11T08:36:23Z</time></trkpt><trkpt lat="43.33285576575619" lon="11.404615107641565"><ele>280.5</ele><time>2026-04-11T08:36:24Z</time></trkpt><trkpt lat="43.33277853242137" lon="11.404658376182953"><ele>280.6666666666667</ele><time>2026-04-11T08:36:25Z</time></trkpt><trkpt lat="43.332699114410225" lon="11.404699100897137"><ele>280.83333333333337</ele><time>2026-04-11T08:36:26Z</time></trkpt><trkpt lat="43.33261956987682" lon="11.404746006265134"><ele>281.0</ele><time>2026-04-11T08:36:27Z</time></trkpt><trkpt lat="43.33253881097459" lon="11.4047921018708"><ele>280.5</ele><time>2026-04-11T08:36:28Z</time></trkpt><trkpt lat="43.33245994072003" lon="11.404836744091845"><ele>280.0</ele><time>2026-04-11T08:36:29Z</time></trkpt><trkpt lat="43.33237830182196" lon="11.404882641510868"><ele>279.5</ele><time>2026-04-11T08:36:30Z</time></trkpt><trkpt lat="43.332298083468764" lon="11.404926294090156"><ele>279.0</ele><time>2026-04-11T08:36:31Z</time></trkpt><trkpt lat="43.33221876450112" lon="11.404975738675496"><ele>278.5</ele><time>2026-04-11T08:36:32Z</time></trkpt><trkpt lat="43.33214033320056" lon="11.405018611392826"><ele>278.0</ele><time>2026-04-11T08:36:33Z</time></trkpt><trkpt lat="43.33205998254849" lon="11.40506156255225"><ele>278.0</ele><time>2026-04-11T08:36:34Z</time></trkpt><trkpt lat="43.331978898678415" lon="11.405103160895507"><ele>278.0</ele><time>2026-04-11T08:36:35Z</time></trkpt><trkpt lat="43.33190164278831" lon="11.405144556478184"><ele>278.0</ele><time>2026-04-11T08:36:36Z</time></trkpt><trkpt lat="43.33182542154484" lon="11.405185495672912"><ele>278.0</ele><time>2026-04-11T08:36:37Z</time></trkpt><trkpt lat="43.331739036821425" lon="11.405211722119462"><ele>278.0</ele><time>2026-04-11T08:36:38Z</time></trkpt><trkpt lat="43.331653678957736" lon="11.405233870697623"><ele>278.0</ele><time>2026-04-11T08:36:39Z</time></trkpt><trkpt lat="43.33157115867156" lon="11.405247984345966"><ele>278.0</ele><time>2026-04-11T08:36:40Z</time></trkpt><trkpt lat="43.33149425017146" lon="11.405264616658954"><ele>278.0</ele><time>2026-04-11T08:36:41Z</time></trkpt><trkpt lat="43.33141479635357" lon="11.405287024594102"><ele>278.0</ele><time>2026-04-11T08:36:42Z</time></trkpt><trkpt lat="43.33133792201839" lon="11.405298948069472"><ele>278.0</ele><time>2026-04-11T08:36:43Z</time></trkpt><trkpt lat="43.331257703661585" lon="11.405315028459055"><ele>278.0</ele><time>2026-04-11T08:36:44Z</time></trkpt><trkpt lat="43.331177258714284" lon="11.405335871763954"><ele>278.0</ele><time>2026-04-11T08:36:45Z</time></trkpt><trkpt lat="43.331095654945784" lon="11.405358826704662"><ele>277.0</ele><time>2026-04-11T08:36:46Z</time></trkpt><trkpt lat="43.3310141113113" lon="11.405381765087393"><ele>276.0</ele><time>2026-04-11T08:36:47Z</time></trkpt><trkpt lat="43.330932711411414" lon="11.405407875452278"><ele>275.0</ele><time>2026-04-11T08:36:48Z</time></trkpt><trkpt lat="43.330848517903235" lon="11.405435262788146"><ele>274.0</ele><time>2026-04-11T08:36:49Z</time></trkpt><trkpt lat="43.33076553281089" lon="11.405459409767525"><ele>273.0</ele><time>2026-04-11T08:36:50Z</time></trkpt><trkpt lat="43.33067619301142" lon="11.405487054461814"><ele>272.0</ele><time>2026-04-11T08:36:51Z</time></trkpt><trkpt lat="43.33058610132664" lon="11.40552131231699"><ele>270.4</ele><time>2026-04-11T08:36:52Z</time></trkpt><trkpt lat="43.330493020126184" lon="11.40554613901022"><ele>268.79999999999995</ele><time>2026-04-11T08:36:53Z</time></trkpt><trkpt lat="43.330397525524425" lon="11.405579633171158"><ele>267.2</ele><time>2026-04-11T08:36:54Z</time></trkpt><trkpt lat="43.330304928026564" lon="11.4056167996952"><ele>265.59999999999997</ele><time>2026-04-11T08:36:55Z</time></trkpt><trkpt lat="43.330212926925746" lon="11.405665715152022"><ele>264.0</ele><time>2026-04-11T08:36:56Z</time></trkpt><trkpt lat="43.33011861995142" lon="11.405716763123872"><ele>264.0</ele><time>2026-04-11T08:36:57Z</time></trkpt><trkpt lat="43.33002444963348" lon="11.405771638024206"><ele>264.0</ele><time>2026-04-11T08:36:58Z</time></trkpt><trkpt lat="43.32993014471434" lon="11.405825513009722"><ele>264.0</ele><time>2026-04-11T08:36:59Z</time></trkpt><trkpt lat="43.32983697472707" lon="11.405881261178921"><ele>264.0</ele><time>2026-04-11T08:37:00Z</time></trkpt><trkpt lat="43.32974566144217" lon="11.405949341578054"><ele>264.0</ele><time>2026-04-11T08:37:01Z</time></trkpt><trkpt lat="43.32965898156209" lon="11.406023200494852"><ele>263.0</ele><time>2026-04-11T08:37:02Z</time></trkpt><trkpt lat="43.329574610917426" lon="11.40610222556614"><ele>262.0</ele><time>2026-04-11T08:37:03Z</time></trkpt><trkpt lat="43.329491586651166" lon="11.40618409704483"><ele>261.0</ele><time>2026-04-11T08:37:04Z</time></trkpt><trkpt lat="43.32941199138609" lon="11.406271364278455"><ele>260.0</ele><time>2026-04-11T08:37:05Z</time></trkpt><trkpt lat="43.32933561960372" lon="11.406363098274058"><ele>259.0</ele><time>2026-04-11T08:37:06Z</time></trkpt><trkpt lat="43.32926008714108" lon="11.406457892535538"><ele>258.8</ele><time>2026-04-11T08:37:07Z</time></trkpt><trkpt lat="43.329183497216775" lon="11.406555270361263"><ele>258.59999999999997</ele><time>2026-04-11T08:37:08Z</time></trkpt><trkpt lat="43.32910698312275" lon="11.406649363860929"><ele>258.4</ele><time>2026-04-11T08:37:09Z</time></trkpt><trkpt lat="43.32902683051479" lon="11.406744309224091"><ele>258.2</ele><time>2026-04-11T08:37:10Z</time></trkpt><trkpt lat="43.328946961723936" lon="11.40683723933045"><ele>258.0</ele><time>2026-04-11T08:37:11Z</time></trkpt><trkpt lat="43.32887041688881" lon="11.406930986292526"><ele>257.8</ele><time>2026-04-11T08:37:12Z</time></trkpt><trkpt lat="43.32879717865059" lon="11.407026949367337"><ele>257.6</ele><time>2026-04-11T08:37:13Z</time></trkpt><trkpt lat="43.328718607048195" lon="11.407114878100167"><ele>257.4</ele><time>2026-04-11T08:37:14Z</time></trkpt><trkpt lat="43.32864223325594" lon="11.40720036050099"><ele>257.2</ele><time>2026-04-11T08:37:15Z</time></trkpt><trkpt lat="43.328570999437176" lon="11.40728939729018"><ele>257.0</ele><time>2026-04-11T08:37:16Z</time></trkpt><trkpt lat="43.32849826947839" lon="11.407377193073021"><ele>256.2</ele><time>2026-04-11T08:37:17Z</time></trkpt><trkpt lat="43.32842395261889" lon="11.40746276282035"><ele>255.39999999999998</ele><time>2026-04-11T08:37:18Z</time></trkpt><trkpt lat="43.32834951515224" lon="11.407549929600627"><ele>254.60000000000002</ele><time>2026-04-11T08:37:19Z</time></trkpt><trkpt lat="43.328279821067845" lon="11.407638418421717"><ele>253.8</ele><time>2026-04-11T08:37:20Z</time></trkpt><trkpt lat="43.328209387581275" lon="11.407722437786918"><ele>253.0</ele><time>2026-04-11T08:37:21Z</time></trkpt><trkpt lat="43.32814166208834" lon="11.40780946354347"><ele>252.99999999999997</ele><time>2026-04-11T08:37:22Z</time></trkpt><trkpt lat="43.32807384761639" lon="11.407892195880208"><ele>253.0</ele><time>2026-04-11T08:37:23Z</time></trkpt><trkpt lat="43.32800522866037" lon="11.407973788154147"><ele>253.0</ele><time>2026-04-11T08:37:24Z</time></trkpt><trkpt lat="43.327941043345696" lon="11.40805206722787"><ele>253.0</ele><time>2026-04-11T08:37:25Z</time></trkpt><trkpt lat="43.32787890397641" lon="11.408130208035296"><ele>252.99999999999997</ele><time>2026-04-11T08:37:25.999Z</time></trkpt><trkpt lat="43.327815607944025" lon="11.408204811027366"><ele>253.0</ele><time>2026-04-11T08:37:26.999Z</time></trkpt><trkpt lat="43.327750986285125" lon="11.408277968926487"><ele>252.99999999999997</ele><time>2026-04-11T08:37:27.999Z</time></trkpt><trkpt lat="43.32768550683794" lon="11.408349869639363"><ele>253.0</ele><time>2026-04-11T08:37:28.999Z</time></trkpt><trkpt lat="43.32761987367819" lon="11.408424103055612"><ele>253.0</ele><time>2026-04-11T08:37:29.999Z</time></trkpt><trkpt lat="43.32755426389298" lon="11.40849709024209"><ele>253.0</ele><time>2026-04-11T08:37:30.999Z</time></trkpt><trkpt lat="43.32748778043232" lon="11.408570709968336"><ele>252.99999999999997</ele><time>2026-04-11T08:37:31.999Z</time></trkpt><trkpt lat="43.32742024649391" lon="11.408647395421697"><ele>253.0</ele><time>2026-04-11T08:37:32.999Z</time></trkpt><trkpt lat="43.32735116594979" lon="11.408725847137951"><ele>253.0</ele><time>2026-04-11T08:37:33.999Z</time></trkpt><trkpt lat="43.327276120118476" lon="11.408790971251854"><ele>253.0</ele><time>2026-04-11T08:37:34.999Z</time></trkpt><trkpt lat="43.327209889297876" lon="11.408889901123178"><ele>253.0</ele><time>2026-04-11T08:37:35.999Z</time></trkpt><trkpt lat="43.327137632574484" lon="11.408966566246779"><ele>253.0</ele><time>2026-04-11T08:37:36.999Z</time></trkpt><trkpt lat="43.32707098877835" lon="11.409047764475346"><ele>253.0</ele><time>2026-04-11T08:37:37.999Z</time></trkpt><trkpt lat="43.327007051048895" lon="11.409133658312973"><ele>251.83333333333331</ele><time>2026-04-11T08:37:38.999Z</time></trkpt><trkpt lat="43.326951790324244" lon="11.409223291350477"><ele>250.66666666666666</ele><time>2026-04-11T08:37:39.999Z</time></trkpt><trkpt lat="43.32690050352987" lon="11.409313576718803"><ele>249.5</ele><time>2026-04-11T08:37:40.999Z</time></trkpt><trkpt lat="43.326850262029936" lon="11.409411269636175"><ele>248.33333333333331</ele><time>2026-04-11T08:37:41.999Z</time></trkpt><trkpt lat="43.326795732584635" lon="11.409506957751427"><ele>247.16666666666666</ele><time>2026-04-11T08:37:42.999Z</time></trkpt><trkpt lat="43.32673501702685" lon="11.409599063994628"><ele>246.0</ele><time>2026-04-11T08:37:43.999Z</time></trkpt><trkpt lat="43.32666371105592" lon="11.409685871770037"><ele>245.5</ele><time>2026-04-11T08:37:44.999Z</time></trkpt><trkpt lat="43.32659144119405" lon="11.409762377407098"><ele>245.0</ele><time>2026-04-11T08:37:45.999Z</time></trkpt><trkpt lat="43.32651681438932" lon="11.40983414326723"><ele>244.5</ele><time>2026-04-11T08:37:46.999Z</time></trkpt><trkpt lat="43.32644575668166" lon="11.409905434753115"><ele>244.0</ele><time>2026-04-11T08:37:47.999Z</time></trkpt><trkpt lat="43.32637680153421" lon="11.409981931792505"><ele>243.5</ele><time>2026-04-11T08:37:48.999Z</time></trkpt><trkpt lat="43.32631133785918" lon="11.410057171148898"><ele>243.0</ele><time>2026-04-11T08:37:49.999Z</time></trkpt><trkpt lat="43.32624810202086" lon="11.410132036670285"><ele>243.0</ele><time>2026-04-11T08:37:50.999Z</time></trkpt><trkpt lat="43.326190706785056" lon="11.41020318129972"><ele>243.0</ele><time>2026-04-11T08:37:51.999Z</time></trkpt><trkpt lat="43.326135566309745" lon="11.410265464247273"><ele>243.0</ele><time>2026-04-11T08:37:52.999Z</time></trkpt><trkpt lat="43.326083323866015" lon="11.410318176498711"><ele>243.0</ele><time>2026-04-11T08:37:53.999Z</time></trkpt><trkpt lat="43.326001559495495" lon="11.410371156607129"><ele>243.0</ele><time>2026-04-11T08:37:55.999Z</time></trkpt><trkpt lat="43.32593379836557" lon="11.41021998238076"><ele>243.0</ele><time>2026-04-11T08:37:56.999Z</time></trkpt><trkpt lat="43.32588718725705" lon="11.410114192595394"><ele>243.0</ele><time>2026-04-11T08:37:57.999Z</time></trkpt><trkpt lat="43.325835155937824" lon="11.410006152570997"><ele>243.0</ele><time>2026-04-11T08:37:58.999Z</time></trkpt><trkpt lat="43.32580885405902" lon="11.40986717272821"><ele>243.0</ele><time>2026-04-11T08:37:59.999Z</time></trkpt><trkpt lat="43.3257987989811" lon="11.409711244812343"><ele>243.0</ele><time>2026-04-11T08:38:00.999Z</time></trkpt><trkpt lat="43.325827139773956" lon="11.409544684390768"><ele>243.0</ele><time>2026-04-11T08:38:01.999Z</time></trkpt><trkpt lat="43.32582909498827" lon="11.40936473902584"><ele>241.0</ele><time>2026-04-11T08:38:02.999Z</time></trkpt><trkpt lat="43.32584017748897" lon="11.409177952415137"><ele>239.0</ele><time>2026-04-11T08:38:03.999Z</time></trkpt><trkpt lat="43.325831981756394" lon="11.408981955173768"><ele>237.0</ele><time>2026-04-11T08:38:04.999Z</time></trkpt><trkpt lat="43.32581332547209" lon="11.408783384199676"><ele>235.0</ele><time>2026-04-11T08:38:05.999Z</time></trkpt><trkpt lat="43.325789456816935" lon="11.408578303571884"><ele>233.66666666666666</ele><time>2026-04-11T08:38:06.999Z</time></trkpt><trkpt lat="43.325761738349314" lon="11.40837622295956"><ele>232.33333333333331</ele><time>2026-04-11T08:38:07.999Z</time></trkpt><trkpt lat="43.325742487614946" lon="11.408168783653247"><ele>231.0</ele><time>2026-04-11T08:38:08.999Z</time></trkpt><trkpt lat="43.32572539890888" lon="11.407962156552799"><ele>230.0</ele><time>2026-04-11T08:38:09.999Z</time></trkpt><trkpt lat="43.325703847037694" lon="11.407758094415886"><ele>229.0</ele><time>2026-04-11T08:38:10.999Z</time></trkpt><trkpt lat="43.325681006658" lon="11.40755735386764"><ele>228.0</ele><time>2026-04-11T08:38:11.999Z</time></trkpt><trkpt lat="43.32565989191305" lon="11.407358050289707"><ele>227.0</ele><time>2026-04-11T08:38:12.999Z</time></trkpt><trkpt lat="43.32563699942916" lon="11.407161031790357"><ele>226.0</ele><time>2026-04-11T08:38:14Z</time></trkpt><trkpt lat="43.32561185747563" lon="11.406969625565848"><ele>225.0</ele><time>2026-04-11T08:38:15Z</time></trkpt><trkpt lat="43.32557448901318" lon="11.406784063465107"><ele>224.0</ele><time>2026-04-11T08:38:16Z</time></trkpt><trkpt lat="43.32551818839617" lon="11.40661431246545"><ele>223.0</ele><time>2026-04-11T08:38:17Z</time></trkpt><trkpt lat="43.325443047001826" lon="11.406461441396438"><ele>221.5</ele><time>2026-04-11T08:38:18Z</time></trkpt><trkpt lat="43.32536546156321" lon="11.406313501957795"><ele>220.0</ele><time>2026-04-11T08:38:19Z</time></trkpt><trkpt lat="43.32529285222573" lon="11.406166736499463"><ele>218.5</ele><time>2026-04-11T08:38:20Z</time></trkpt><trkpt lat="43.32522658901918" lon="11.406013976142725"><ele>217.0</ele><time>2026-04-11T08:38:21Z</time></trkpt><trkpt lat="43.325170707019076" lon="11.405854497604315"><ele>217.0</ele><time>2026-04-11T08:38:22Z</time></trkpt><trkpt lat="43.32512351621156" lon="11.405693272637324"><ele>217.0</ele><time>2026-04-11T08:38:23Z</time></trkpt><trkpt lat="43.32507942937538" lon="11.405536493994958"><ele>217.0</ele><time>2026-04-11T08:38:24Z</time></trkpt><trkpt lat="43.32504512414546" lon="11.405380202386459"><ele>217.0</ele><time>2026-04-11T08:38:25Z</time></trkpt><trkpt lat="43.32501121283838" lon="11.40522234895271"><ele>216.5</ele><time>2026-04-11T08:38:26Z</time></trkpt><trkpt lat="43.324984373293375" lon="11.405062175257951"><ele>216.0</ele><time>2026-04-11T08:38:27Z</time></trkpt><trkpt lat="43.32496841613148" lon="11.404899589060292"><ele>215.5</ele><time>2026-04-11T08:38:28Z</time></trkpt><trkpt lat="43.324961395484685" lon="11.404738392542722"><ele>215.0</ele><time>2026-04-11T08:38:29Z</time></trkpt><trkpt lat="43.32495503724776" lon="11.404582734623228"><ele>214.8</ele><time>2026-04-11T08:38:30Z</time></trkpt><trkpt lat="43.32495239797695" lon="11.404429729632275"><ele>214.6</ele><time>2026-04-11T08:38:31Z</time></trkpt><trkpt lat="43.32494905280111" lon="11.404284469179125"><ele>214.39999999999998</ele><time>2026-04-11T08:38:32Z</time></trkpt><trkpt lat="43.3249506223126" lon="11.404138537894255"><ele>214.2</ele><time>2026-04-11T08:38:33Z</time></trkpt><trkpt lat="43.324950517141346" lon="11.403998598395319"><ele>214.0</ele><time>2026-04-11T08:38:34Z</time></trkpt><trkpt lat="43.32495027121608" lon="11.403859064932693"><ele>213.6</ele><time>2026-04-11T08:38:35Z</time></trkpt><trkpt lat="43.32494982797439" lon="11.403723314044331"><ele>213.2</ele><time>2026-04-11T08:38:36Z</time></trkpt><trkpt lat="43.32495269520443" lon="11.403594040739808"><ele>212.79999999999998</ele><time>2026-04-11T08:38:37Z</time></trkpt><trkpt lat="43.32496210133477" lon="11.403463457608346"><ele>212.39999999999998</ele><time>2026-04-11T08:38:38Z</time></trkpt><trkpt lat="43.324975684986846" lon="11.403336637650636"><ele>212.0</ele><time>2026-04-11T08:38:39Z</time></trkpt><trkpt lat="43.32498952492604" lon="11.403216101899426"><ele>212.00000000000003</ele><time>2026-04-11T08:38:40Z</time></trkpt><trkpt lat="43.325001646020645" lon="11.403100173913572"><ele>212.0</ele><time>2026-04-11T08:38:41Z</time></trkpt><trkpt lat="43.32501527181771" lon="11.402988817561484"><ele>212.0</ele><time>2026-04-11T08:38:42Z</time></trkpt><trkpt lat="43.325023272770636" lon="11.402883763051275"><ele>212.0</ele><time>2026-04-11T08:38:43Z</time></trkpt><trkpt lat="43.32503310457712" lon="11.40278496065562"><ele>212.00000000000003</ele><time>2026-04-11T08:38:44Z</time></trkpt><trkpt lat="43.32504451799885" lon="11.40262751248383"><ele>212.0</ele><time>2026-04-11T08:38:46Z</time></trkpt><trkpt lat="43.3250556245699" lon="11.402528405233255"><ele>212.57142857142858</ele><time>2026-04-11T08:38:48Z</time></trkpt><trkpt lat="43.32506744768725" lon="11.40243229395421"><ele>213.14285714285714</ele><time>2026-04-11T08:38:52Z</time></trkpt><trkpt lat="43.3250723639429" lon="11.402326950583664"><ele>213.71428571428572</ele><time>2026-04-11T08:38:56Z</time></trkpt><trkpt lat="43.325082036220486" lon="11.402223877578223"><ele>214.28571428571428</ele><time>2026-04-11T08:39:01Z</time></trkpt><trkpt lat="43.32508621593789" lon="11.402123989844682"><ele>214.85714285714283</ele><time>2026-04-11T08:39:06Z</time></trkpt><trkpt lat="43.32508780602636" lon="11.402027937241566"><ele>215.42857142857142</ele><time>2026-04-11T08:39:11Z</time></trkpt><trkpt lat="43.325094178382805" lon="11.40192230302407"><ele>216.0</ele><time>2026-04-11T08:39:17Z</time></trkpt><trkpt lat="43.32509981634105" lon="11.401826177811763"><ele>217.42857142857142</ele><time>2026-04-11T08:39:22Z</time></trkpt><trkpt lat="43.325106067547345" lon="11.401735449717759"><ele>218.85714285714283</ele><time>2026-04-11T08:39:27Z</time></trkpt><trkpt lat="43.325111185346394" lon="11.401635171008875"><ele>220.28571428571428</ele><time>2026-04-11T08:39:33Z</time></trkpt><trkpt lat="43.32511472168384" lon="11.401531956499579"><ele>221.71428571428572</ele><time>2026-04-11T08:39:38.999Z</time></trkpt><trkpt lat="43.325106802351804" lon="11.40144589116594"><ele>223.14285714285714</ele><time>2026-04-11T08:39:44.999Z</time></trkpt><trkpt lat="43.325109023660644" lon="11.40134953592388"><ele>224.57142857142858</ele><time>2026-04-11T08:39:50.999Z</time></trkpt><trkpt lat="43.32510312008664" lon="11.401263197972547"><ele>226.0</ele><time>2026-04-11T08:39:56.999Z</time></trkpt><trkpt lat="43.32509977188732" lon="11.401164890008223"><ele>226.71428571428572</ele><time>2026-04-11T08:40:02.999Z</time></trkpt><trkpt lat="43.32509778433825" lon="11.401070463127592"><ele>227.42857142857142</ele><time>2026-04-11T08:40:08.999Z</time></trkpt><trkpt lat="43.32508861820419" lon="11.400975357666677"><ele>228.14285714285714</ele><time>2026-04-11T08:40:14.999Z</time></trkpt><trkpt lat="43.32509421245876" lon="11.400877853945572"><ele>228.85714285714286</ele><time>2026-04-11T08:40:21Z</time></trkpt><trkpt lat="43.32508538856906" lon="11.400789717024002"><ele>229.57142857142856</ele><time>2026-04-11T08:40:26Z</time></trkpt><trkpt lat="43.32509559493733" lon="11.400690943776517"><ele>230.28571428571428</ele><time>2026-04-11T08:40:31Z</time></trkpt><trkpt lat="43.32510959651339" lon="11.400597062456342"><ele>231.0</ele><time>2026-04-11T08:40:35Z</time></trkpt><trkpt lat="43.3251213805992" lon="11.400483824385427"><ele>231.71428571428572</ele><time>2026-04-11T08:40:39Z</time></trkpt><trkpt lat="43.32513961234284" lon="11.400392012479395"><ele>232.42857142857144</ele><time>2026-04-11T08:40:43Z</time></trkpt><trkpt lat="43.325155943329726" lon="11.400292536916327"><ele>233.14285714285714</ele><time>2026-04-11T08:40:47Z</time></trkpt><trkpt lat="43.32516541403009" lon="11.400193180873325"><ele>233.85714285714286</ele><time>2026-04-11T08:40:51Z</time></trkpt><trkpt lat="43.32517439811611" lon="11.400089055102614"><ele>234.57142857142858</ele><time>2026-04-11T08:40:55Z</time></trkpt><trkpt lat="43.325182670478625" lon="11.399972627559466"><ele>235.28571428571428</ele><time>2026-04-11T08:40:59Z</time></trkpt><trkpt lat="43.325182929129866" lon="11.399884242327971"><ele>236.0</ele><time>2026-04-11T08:41:02Z</time></trkpt><trkpt lat="43.32518089536789" lon="11.399771528172106"><ele>236.71428571428572</ele><time>2026-04-11T08:41:06Z</time></trkpt><trkpt lat="43.32517347485343" lon="11.399660203439327"><ele>237.42857142857144</ele><time>2026-04-11T08:41:10Z</time></trkpt><trkpt lat="43.325165570590514" lon="11.399568869200984"><ele>238.14285714285717</ele><time>2026-04-11T08:41:13Z</time></trkpt><trkpt lat="43.32515479633905" lon="11.399458304098818"><ele>238.85714285714286</ele><time>2026-04-11T08:41:17Z</time></trkpt><trkpt lat="43.32514905815998" lon="11.399367777561821"><ele>239.5714285714286</ele><time>2026-04-11T08:41:20Z</time></trkpt><trkpt lat="43.32514809725971" lon="11.399266785007129"><ele>240.2857142857143</ele><time>2026-04-11T08:41:23Z</time></trkpt><trkpt lat="43.325140896417416" lon="11.399159395218428"><ele>241.0</ele><time>2026-04-11T08:41:26Z</time></trkpt><trkpt lat="43.3251293418826" lon="11.399047898844081"><ele>240.99999999999997</ele><time>2026-04-11T08:41:29Z</time></trkpt><trkpt lat="43.32512107584839" lon="11.39893502122385"><ele>241.0</ele><time>2026-04-11T08:41:32Z</time></trkpt><trkpt lat="43.32511576449241" lon="11.398819788720074"><ele>241.0</ele><time>2026-04-11T08:41:35Z</time></trkpt><trkpt lat="43.3251066760399" lon="11.398708103462978"><ele>241.0</ele><time>2026-04-11T08:41:37.999Z</time></trkpt><trkpt lat="43.32510172095426" lon="11.398594963377775"><ele>240.99999999999997</ele><time>2026-04-11T08:41:40.999Z</time></trkpt><trkpt lat="43.32509955903048" lon="11.39848882160384"><ele>241.0</ele><time>2026-04-11T08:41:43.999Z</time></trkpt><trkpt lat="43.32509221750903" lon="11.398379004518523"><ele>241.99999999999997</ele><time>2026-04-11T08:41:46.999Z</time></trkpt><trkpt lat="43.32508567807688" lon="11.398267433899653"><ele>243.0</ele><time>2026-04-11T08:41:49.999Z</time></trkpt><trkpt lat="43.32508383297105" lon="11.398156029652244"><ele>244.0</ele><time>2026-04-11T08:41:52.999Z</time></trkpt><trkpt lat="43.325081449544996" lon="11.398038648961716"><ele>245.0</ele><time>2026-04-11T08:41:55.999Z</time></trkpt><trkpt lat="43.32508382812025" lon="11.397918952169933"><ele>245.99999999999997</ele><time>2026-04-11T08:41:58.999Z</time></trkpt><trkpt lat="43.32509283840581" lon="11.39780011748945"><ele>247.0</ele><time>2026-04-11T08:42:01.999Z</time></trkpt><trkpt lat="43.325120568460726" lon="11.397695989634645"><ele>247.0</ele><time>2026-04-11T08:42:04.999Z</time></trkpt><trkpt lat="43.32515639479449" lon="11.397589238777252"><ele>247.0</ele><time>2026-04-11T08:42:07.999Z</time></trkpt><trkpt lat="43.325195594677666" lon="11.397509288569225"><ele>247.0</ele><time>2026-04-11T08:42:09.999Z</time></trkpt><trkpt lat="43.32522808105615" lon="11.397424873510177"><ele>247.0</ele><time>2026-04-11T08:42:11.999Z</time></trkpt><trkpt lat="43.32526053921619" lon="11.397334102282166"><ele>247.0</ele><time>2026-04-11T08:42:14.999Z</time></trkpt><trkpt lat="43.32529497613109" lon="11.397232742397863"><ele>247.0</ele><time>2026-04-11T08:42:17.999Z</time></trkpt><trkpt lat="43.325324231648956" lon="11.397148994991156"><ele>247.0</ele><time>2026-04-11T08:42:19.999Z</time></trkpt><trkpt lat="43.32536032798822" lon="11.397040397573772"><ele>246.99999999999997</ele><time>2026-04-11T08:42:21.999Z</time></trkpt><trkpt lat="43.325401636065415" lon="11.396926642502489"><ele>247.0</ele><time>2026-04-11T08:42:24.999Z</time></trkpt><trkpt lat="43.325421086780516" lon="11.396832323510184"><ele>247.0</ele><time>2026-04-11T08:42:27Z</time></trkpt><trkpt lat="43.32545083781686" lon="11.396745847020416"><ele>247.0</ele><time>2026-04-11T08:42:29Z</time></trkpt><trkpt lat="43.32547805434254" lon="11.39665111901427"><ele>246.99999999999997</ele><time>2026-04-11T08:42:31Z</time></trkpt><trkpt lat="43.32550478294777" lon="11.396546625320333"><ele>247.0</ele><time>2026-04-11T08:42:33Z</time></trkpt><trkpt lat="43.325526713955746" lon="11.39645248961065"><ele>246.83333333333331</ele><time>2026-04-11T08:42:35Z</time></trkpt><trkpt lat="43.32556308457249" lon="11.39636080333948"><ele>246.66666666666666</ele><time>2026-04-11T08:42:37Z</time></trkpt><trkpt lat="43.32559304403294" lon="11.396262982459444"><ele>246.5</ele><time>2026-04-11T08:42:39Z</time></trkpt><trkpt lat="43.32562429418779" lon="11.396155991498498"><ele>246.33333333333331</ele><time>2026-04-11T08:42:41Z</time></trkpt><trkpt lat="43.325656061098655" lon="11.396052305732354"><ele>246.16666666666666</ele><time>2026-04-11T08:42:43Z</time></trkpt><trkpt lat="43.32567625175755" lon="11.3959522061749"><ele>246.0</ele><time>2026-04-11T08:42:45Z</time></trkpt><trkpt lat="43.32569383687342" lon="11.395843835933164"><ele>246.66666666666666</ele><time>2026-04-11T08:42:47Z</time></trkpt><trkpt lat="43.325698588529626" lon="11.39573267467972"><ele>247.33333333333331</ele><time>2026-04-11T08:42:49Z</time></trkpt><trkpt lat="43.32569967298207" lon="11.395625082273511"><ele>248.0</ele><time>2026-04-11T08:42:51Z</time></trkpt><trkpt lat="43.32569493440058" lon="11.395518307576225"><ele>248.66666666666666</ele><time>2026-04-11T08:42:53Z</time></trkpt><trkpt lat="43.32569516208838" lon="11.395414958222787"><ele>249.33333333333331</ele><time>2026-04-11T08:42:55Z</time></trkpt><trkpt lat="43.32569695435846" lon="11.39531450969397"><ele>250.0</ele><time>2026-04-11T08:42:57Z</time></trkpt><trkpt lat="43.325697752859526" lon="11.395215215745848"><ele>250.33333333333331</ele><time>2026-04-11T08:43:00Z</time></trkpt><trkpt lat="43.325699148963345" lon="11.39505695637181"><ele>250.66666666666666</ele><time>2026-04-11T08:43:02Z</time></trkpt><trkpt lat="43.3257029188987" lon="11.394956276130978"><ele>251.0</ele><time>2026-04-11T08:43:04Z</time></trkpt><trkpt lat="43.32571492111597" lon="11.3948638075573"><ele>251.33333333333331</ele><time>2026-04-11T08:43:06Z</time></trkpt><trkpt lat="43.325706181642175" lon="11.394763267738"><ele>251.66666666666666</ele><time>2026-04-11T08:43:08Z</time></trkpt><trkpt lat="43.32569249248198" lon="11.39466250532002"><ele>252.0</ele><time>2026-04-11T08:43:10Z</time></trkpt><trkpt lat="43.32568420243127" lon="11.394560009429267"><ele>252.42857142857144</ele><time>2026-04-11T08:43:12Z</time></trkpt><trkpt lat="43.32567050355554" lon="11.394455972268217"><ele>252.85714285714286</ele><time>2026-04-11T08:43:14Z</time></trkpt><trkpt lat="43.325644792913856" lon="11.394357022590576"><ele>253.28571428571428</ele><time>2026-04-11T08:43:16Z</time></trkpt><trkpt lat="43.325616040749814" lon="11.39425859471572"><ele>253.71428571428572</ele><time>2026-04-11T08:43:18Z</time></trkpt><trkpt lat="43.32558890090313" lon="11.394159036938827"><ele>254.14285714285717</ele><time>2026-04-11T08:43:20Z</time></trkpt><trkpt lat="43.325568792071635" lon="11.394072988410374"><ele>254.57142857142858</ele><time>2026-04-11T08:43:22Z</time></trkpt><trkpt lat="43.325543856318205" lon="11.393976066941185"><ele>255.0</ele><time>2026-04-11T08:43:24Z</time></trkpt><trkpt lat="43.325506907331295" lon="11.393867428764347"><ele>255.83333333333334</ele><time>2026-04-11T08:43:26Z</time></trkpt><trkpt lat="43.3254809839771" lon="11.393770021270981"><ele>256.6666666666667</ele><time>2026-04-11T08:43:28Z</time></trkpt><trkpt lat="43.325453228448936" lon="11.393671611232966"><ele>257.5</ele><time>2026-04-11T08:43:30Z</time></trkpt><trkpt lat="43.325417733839494" lon="11.393578552381594"><ele>258.33333333333337</ele><time>2026-04-11T08:43:32Z</time></trkpt><trkpt lat="43.32539256118971" lon="11.393479651688118"><ele>259.1666666666667</ele><time>2026-04-11T08:43:34Z</time></trkpt><trkpt lat="43.3253589846205" lon="11.393380713713404"><ele>260.0</ele><time>2026-04-11T08:43:36Z</time></trkpt><trkpt lat="43.32533580090502" lon="11.393295381809606"><ele>260.00000000000006</ele><time>2026-04-11T08:43:38Z</time></trkpt><trkpt lat="43.32530855172724" lon="11.393203925881899"><ele>260.0</ele><time>2026-04-11T08:43:39.999Z</time></trkpt><trkpt lat="43.325278079811724" lon="11.393113577695257"><ele>260.0</ele><time>2026-04-11T08:43:41.999Z</time></trkpt><trkpt lat="43.325246529440996" lon="11.39302167931005"><ele>260.0</ele><time>2026-04-11T08:43:43.999Z</time></trkpt><trkpt lat="43.325212145547" lon="11.392929695586913"><ele>260.0</ele><time>2026-04-11T08:43:45.999Z</time></trkpt><trkpt lat="43.325182219401704" lon="11.392834341632424"><ele>260.00000000000006</ele><time>2026-04-11T08:43:47.999Z</time></trkpt><trkpt lat="43.32515356147281" lon="11.39274022522491"><ele>260.0</ele><time>2026-04-11T08:43:49.999Z</time></trkpt><trkpt lat="43.32511936167003" lon="11.392652696064529"><ele>260.6666666666667</ele><time>2026-04-11T08:43:51.999Z</time></trkpt><trkpt lat="43.32507804470552" lon="11.39257479521391"><ele>261.33333333333337</ele><time>2026-04-11T08:43:53.999Z</time></trkpt><trkpt lat="43.325026441591284" lon="11.392521288613045"><ele>262.0</ele><time>2026-04-11T08:43:55.999Z</time></trkpt><trkpt lat="43.324940209974685" lon="11.392494582727794"><ele>262.6666666666667</ele><time>2026-04-11T08:43:58.999Z</time></trkpt><trkpt lat="43.32485735882857" lon="11.392491610441917"><ele>263.3333333333333</ele><time>2026-04-11T08:44:01.999Z</time></trkpt><trkpt lat="43.324775954110955" lon="11.392517127371088"><ele>264.0</ele><time>2026-04-11T08:44:04.999Z</time></trkpt><trkpt lat="43.32470494169397" lon="11.392519801862402"><ele>264.1666666666667</ele><time>2026-04-11T08:44:07.999Z</time></trkpt><trkpt lat="43.324634607922846" lon="11.392528830541147"><ele>264.3333333333333</ele><time>2026-04-11T08:44:10.999Z</time></trkpt><trkpt lat="43.324559557354206" lon="11.39253001916884"><ele>264.5</ele><time>2026-04-11T08:44:13.999Z</time></trkpt><trkpt lat="43.32447837013245" lon="11.392510767039976"><ele>264.66666666666663</ele><time>2026-04-11T08:44:16.999Z</time></trkpt><trkpt lat="43.32439219653631" lon="11.39248371436548"><ele>264.8333333333333</ele><time>2026-04-11T08:44:19.999Z</time></trkpt><trkpt lat="43.32432801260498" lon="11.392451059830023"><ele>265.0</ele><time>2026-04-11T08:44:21.999Z</time></trkpt><trkpt lat="43.324253190971206" lon="11.39240789524703"><ele>265.0</ele><time>2026-04-11T08:44:23.999Z</time></trkpt><trkpt lat="43.3241638867094" lon="11.392367633257543"><ele>265.0</ele><time>2026-04-11T08:44:25.999Z</time></trkpt><trkpt lat="43.32406539475585" lon="11.39233683657863"><ele>265.0</ele><time>2026-04-11T08:44:27.999Z</time></trkpt><trkpt lat="43.323896542979114" lon="11.392296689264537"><ele>265.0</ele><time>2026-04-11T08:44:29.999Z</time></trkpt><trkpt lat="43.32376900515587" lon="11.392273083245371"><ele>264.8333333333333</ele><time>2026-04-11T08:44:32Z</time></trkpt><trkpt lat="43.32370674943167" lon="11.392243987242981"><ele>264.66666666666663</ele><time>2026-04-11T08:44:33Z</time></trkpt><trkpt lat="43.32364498695443" lon="11.392223916150021"><ele>264.5</ele><time>2026-04-11T08:44:34Z</time></trkpt><trkpt lat="43.32358223280589" lon="11.39220587905475"><ele>264.3333333333333</ele><time>2026-04-11T08:44:35Z</time></trkpt><trkpt lat="43.323516882248626" lon="11.392193223212804"><ele>264.1666666666667</ele><time>2026-04-11T08:44:36Z</time></trkpt><trkpt lat="43.32345230345494" lon="11.39219006202442"><ele>264.0</ele><time>2026-04-11T08:44:37Z</time></trkpt><trkpt lat="43.32332654085989" lon="11.392168583890841"><ele>262.8333333333333</ele><time>2026-04-11T08:44:39Z</time></trkpt><trkpt lat="43.32326056812533" lon="11.39215065339859"><ele>261.6666666666667</ele><time>2026-04-11T08:44:40Z</time></trkpt><trkpt lat="43.323192998054495" lon="11.392139116159148"><ele>260.5</ele><time>2026-04-11T08:44:41Z</time></trkpt><trkpt lat="43.32306707703094" lon="11.392110587839582"><ele>259.33333333333337</ele><time>2026-04-11T08:44:43Z</time></trkpt><trkpt lat="43.32300032637283" lon="11.39209549243654"><ele>258.1666666666667</ele><time>2026-04-11T08:44:44Z</time></trkpt><trkpt lat="43.322935496365304" lon="11.392069711677042"><ele>257.0</ele><time>2026-04-11T08:44:45Z</time></trkpt><trkpt lat="43.322871793980916" lon="11.392046806436019"><ele>257.0</ele><time>2026-04-11T08:44:46Z</time></trkpt><trkpt lat="43.32280531370133" lon="11.39202793598533"><ele>257.0</ele><time>2026-04-11T08:44:47Z</time></trkpt><trkpt lat="43.322734726538236" lon="11.392010558992826"><ele>257.0</ele><time>2026-04-11T08:44:48Z</time></trkpt><trkpt lat="43.32264370523028" lon="11.391996380990776"><ele>257.0</ele><time>2026-04-11T08:44:49Z</time></trkpt><trkpt lat="43.32256584293693" lon="11.39197302517161"><ele>257.0</ele><time>2026-04-11T08:44:50Z</time></trkpt><trkpt lat="43.32248468486572" lon="11.3919483089383"><ele>257.0</ele><time>2026-04-11T08:44:51Z</time></trkpt><trkpt lat="43.32239749207567" lon="11.39191893846126"><ele>257.0</ele><time>2026-04-11T08:44:52Z</time></trkpt><trkpt lat="43.32230770037455" lon="11.391898764227273"><ele>257.0</ele><time>2026-04-11T08:44:53Z</time></trkpt><trkpt lat="43.32222094335767" lon="11.391868462388562"><ele>257.0</ele><time>2026-04-11T08:44:54Z</time></trkpt><trkpt lat="43.32212980424527" lon="11.39184726410979"><ele>257.0</ele><time>2026-04-11T08:44:55Z</time></trkpt><trkpt lat="43.32203628409061" lon="11.391822866055557"><ele>257.0</ele><time>2026-04-11T08:44:56Z</time></trkpt><trkpt lat="43.32194270465948" lon="11.391794250308417"><ele>256.2</ele><time>2026-04-11T08:44:57Z</time></trkpt><trkpt lat="43.32184586906049" lon="11.39176700147323"><ele>255.39999999999998</ele><time>2026-04-11T08:44:58Z</time></trkpt><trkpt lat="43.32174931003362" lon="11.391733734320992"><ele>254.60000000000002</ele><time>2026-04-11T08:44:59Z</time></trkpt><trkpt lat="43.32165573283047" lon="11.391704699429136"><ele>253.8</ele><time>2026-04-11T08:45:00Z</time></trkpt><trkpt lat="43.32156236180335" lon="11.391669106262032"><ele>253.0</ele><time>2026-04-11T08:45:01Z</time></trkpt><trkpt lat="43.321473579875644" lon="11.391621646373395"><ele>252.33333333333331</ele><time>2026-04-11T08:45:02Z</time></trkpt><trkpt lat="43.32138983389567" lon="11.391566114773934"><ele>251.66666666666666</ele><time>2026-04-11T08:45:03Z</time></trkpt><trkpt lat="43.32130909457682" lon="11.391508213644292"><ele>251.0</ele><time>2026-04-11T08:45:04Z</time></trkpt><trkpt lat="43.321230304736986" lon="11.39144378011692"><ele>250.33333333333331</ele><time>2026-04-11T08:45:05Z</time></trkpt><trkpt lat="43.32115651029181" lon="11.391383096368449"><ele>249.66666666666666</ele><time>2026-04-11T08:45:06Z</time></trkpt><trkpt lat="43.321080081221886" lon="11.391326881231059"><ele>249.0</ele><time>2026-04-11T08:45:07Z</time></trkpt><trkpt lat="43.32100483995126" lon="11.391271026663098"><ele>249.0</ele><time>2026-04-11T08:45:08Z</time></trkpt><trkpt lat="43.32092349698709" lon="11.391220643696693"><ele>249.0</ele><time>2026-04-11T08:45:09Z</time></trkpt><trkpt lat="43.320844549587" lon="11.391170336723532"><ele>249.0</ele><time>2026-04-11T08:45:10Z</time></trkpt><trkpt lat="43.3207703867551" lon="11.391117731851475"><ele>249.0</ele><time>2026-04-11T08:45:11Z</time></trkpt><trkpt lat="43.320693522875665" lon="11.391064373798512"><ele>249.0</ele><time>2026-04-11T08:45:12Z</time></trkpt><trkpt lat="43.32061652977807" lon="11.391020945238227"><ele>249.0</ele><time>2026-04-11T08:45:13Z</time></trkpt><trkpt lat="43.32054030218265" lon="11.390980089827409"><ele>249.0</ele><time>2026-04-11T08:45:14Z</time></trkpt><trkpt lat="43.32046509628947" lon="11.390949084766143"><ele>249.0</ele><time>2026-04-11T08:45:15Z</time></trkpt><trkpt lat="43.320389136773976" lon="11.390933052289066"><ele>249.0</ele><time>2026-04-11T08:45:16Z</time></trkpt><trkpt lat="43.32031474399714" lon="11.390923129432379"><ele>249.0</ele><time>2026-04-11T08:45:17Z</time></trkpt><trkpt lat="43.320243236311" lon="11.390906996790173"><ele>249.0</ele><time>2026-04-11T08:45:18Z</time></trkpt><trkpt lat="43.320176876557554" lon="11.390870781247836"><ele>249.0</ele><time>2026-04-11T08:45:19Z</time></trkpt><trkpt lat="43.32011915014546" lon="11.390803683178284"><ele>249.0</ele><time>2026-04-11T08:45:20Z</time></trkpt><trkpt lat="43.32008135482333" lon="11.390704191438996"><ele>249.0</ele><time>2026-04-11T08:45:21Z</time></trkpt><trkpt lat="43.32006781534518" lon="11.390585436470687"><ele>249.0</ele><time>2026-04-11T08:45:22Z</time></trkpt><trkpt lat="43.32005693692117" lon="11.39046730341481"><ele>249.0</ele><time>2026-04-11T08:45:23Z</time></trkpt><trkpt lat="43.3200407066658" lon="11.390348915104685"><ele>249.0</ele><time>2026-04-11T08:45:24Z</time></trkpt><trkpt lat="43.32003144727333" lon="11.390229453147395"><ele>249.0</ele><time>2026-04-11T08:45:25Z</time></trkpt><trkpt lat="43.32002258238422" lon="11.390107347424076"><ele>248.6</ele><time>2026-04-11T08:45:26Z</time></trkpt><trkpt lat="43.31999843728733" lon="11.389986708387658"><ele>248.2</ele><time>2026-04-11T08:45:27Z</time></trkpt><trkpt lat="43.31996809879938" lon="11.389868476161393"><ele>247.79999999999998</ele><time>2026-04-11T08:45:28Z</time></trkpt><trkpt lat="43.31994059192685" lon="11.389746088546891"><ele>247.39999999999998</ele><time>2026-04-11T08:45:29Z</time></trkpt><trkpt lat="43.319908232351146" lon="11.38962235310197"><ele>247.0</ele><time>2026-04-11T08:45:30Z</time></trkpt><trkpt lat="43.319869232372795" lon="11.38950051243171"><ele>246.2</ele><time>2026-04-11T08:45:31Z</time></trkpt><trkpt lat="43.319829361035545" lon="11.389375193090338"><ele>245.39999999999998</ele><time>2026-04-11T08:45:32Z</time></trkpt><trkpt lat="43.31978661181547" lon="11.3892479320762"><ele>244.60000000000002</ele><time>2026-04-11T08:45:33Z</time></trkpt><trkpt lat="43.3197496439061" lon="11.389112453334015"><ele>243.8</ele><time>2026-04-11T08:45:34Z</time></trkpt><trkpt lat="43.31971639163065" lon="11.388971122594866"><ele>243.0</ele><time>2026-04-11T08:45:35Z</time></trkpt><trkpt lat="43.31968464834971" lon="11.388824484752984"><ele>239.5</ele><time>2026-04-11T08:45:36Z</time></trkpt><trkpt lat="43.3196535354991" lon="11.388674556749981"><ele>236.0</ele><time>2026-04-11T08:45:37Z</time></trkpt><trkpt lat="43.319624664559115" lon="11.388521230221063"><ele>232.5</ele><time>2026-04-11T08:45:38Z</time></trkpt><trkpt lat="43.31959648890912" lon="11.388365187654033"><ele>229.0</ele><time>2026-04-11T08:45:39Z</time></trkpt><trkpt lat="43.31956508538169" lon="11.388207829545456"><ele>229.0</ele><time>2026-04-11T08:45:40Z</time></trkpt><trkpt lat="43.31953450533351" lon="11.38804517447101"><ele>229.0</ele><time>2026-04-11T08:45:41Z</time></trkpt><trkpt lat="43.3195051035565" lon="11.387879751837472"><ele>229.0</ele><time>2026-04-11T08:45:42Z</time></trkpt><trkpt lat="43.31947916197569" lon="11.3877174278724"><ele>229.0</ele><time>2026-04-11T08:45:43Z</time></trkpt><trkpt lat="43.31944352799019" lon="11.38757021563976"><ele>229.0</ele><time>2026-04-11T08:45:44Z</time></trkpt><trkpt lat="43.319372088279465" lon="11.38745307513619"><ele>228.99999999999997</ele><time>2026-04-11T08:45:44.999Z</time></trkpt><trkpt lat="43.319269212381" lon="11.387373597643158"><ele>228.99999999999997</ele><time>2026-04-11T08:45:45.999Z</time></trkpt><trkpt lat="43.31916004956203" lon="11.387327245317975"><ele>229.0</ele><time>2026-04-11T08:45:46.999Z</time></trkpt><trkpt lat="43.31907447831895" lon="11.387269672967314"><ele>229.0</ele><time>2026-04-11T08:45:47.999Z</time></trkpt><trkpt lat="43.31902474125896" lon="11.387168214356123"><ele>228.6</ele><time>2026-04-11T08:45:48.999Z</time></trkpt><trkpt lat="43.319016608072474" lon="11.387019996099712"><ele>228.2</ele><time>2026-04-11T08:45:49.999Z</time></trkpt><trkpt lat="43.319058908878795" lon="11.386883674288443"><ele>227.79999999999998</ele><time>2026-04-11T08:45:50.999Z</time></trkpt><trkpt lat="43.319081830793294" lon="11.386744492812952"><ele>227.39999999999998</ele><time>2026-04-11T08:45:51.999Z</time></trkpt><trkpt lat="43.31912915206566" lon="11.386621875634626"><ele>227.0</ele><time>2026-04-11T08:45:52.999Z</time></trkpt><trkpt lat="43.319215839396776" lon="11.386528170125702"><ele>227.0</ele><time>2026-04-11T08:45:53.999Z</time></trkpt><trkpt lat="43.3193024055214" lon="11.386457410582505"><ele>227.0</ele><time>2026-04-11T08:45:54.999Z</time></trkpt><trkpt lat="43.3193988997455" lon="11.386396375015218"><ele>227.0</ele><time>2026-04-11T08:45:55.999Z</time></trkpt><trkpt lat="43.319496116145004" lon="11.38634077382556"><ele>227.0</ele><time>2026-04-11T08:45:56.999Z</time></trkpt><trkpt lat="43.31958954099419" lon="11.386262856052712"><ele>227.0</ele><time>2026-04-11T08:45:57.999Z</time></trkpt><trkpt lat="43.319689797150915" lon="11.38620828766563"><ele>226.0</ele><time>2026-04-11T08:45:58.999Z</time></trkpt><trkpt lat="43.319792705603255" lon="11.386156047218263"><ele>225.0</ele><time>2026-04-11T08:45:59.999Z</time></trkpt><trkpt lat="43.31989458867212" lon="11.386100530139409"><ele>224.0</ele><time>2026-04-11T08:46:00.999Z</time></trkpt><trkpt lat="43.31999275047744" lon="11.386023786288277"><ele>223.0</ele><time>2026-04-11T08:46:01.999Z</time></trkpt><trkpt lat="43.32006752650672" lon="11.385910242366775"><ele>222.0</ele><time>2026-04-11T08:46:02.999Z</time></trkpt><trkpt lat="43.320120068604744" lon="11.385769828985454"><ele>222.0</ele><time>2026-04-11T08:46:03.999Z</time></trkpt><trkpt lat="43.32014358068836" lon="11.385609312802444"><ele>222.0</ele><time>2026-04-11T08:46:04.999Z</time></trkpt><trkpt lat="43.32012793489328" lon="11.385438458809029"><ele>222.0</ele><time>2026-04-11T08:46:05.999Z</time></trkpt><trkpt lat="43.32011222387261" lon="11.385271678292483"><ele>222.0</ele><time>2026-04-11T08:46:06.999Z</time></trkpt><trkpt lat="43.32012050113062" lon="11.38510151348324"><ele>220.75</ele><time>2026-04-11T08:46:07.999Z</time></trkpt><trkpt lat="43.3201635939763" lon="11.384933782165525"><ele>219.5</ele><time>2026-04-11T08:46:08.999Z</time></trkpt><trkpt lat="43.32023527426927" lon="11.38478782960843"><ele>218.25</ele><time>2026-04-11T08:46:09.999Z</time></trkpt><trkpt lat="43.32033944421656" lon="11.384679814099192"><ele>217.0</ele><time>2026-04-11T08:46:10.999Z</time></trkpt><trkpt lat="43.32043596237903" lon="11.384564640020185"><ele>216.0</ele><time>2026-04-11T08:46:11.999Z</time></trkpt><trkpt lat="43.32053491908393" lon="11.38444972963614"><ele>215.0</ele><time>2026-04-11T08:46:12.999Z</time></trkpt><trkpt lat="43.320629890036734" lon="11.384339447997796"><ele>214.0</ele><time>2026-04-11T08:46:13.999Z</time></trkpt><trkpt lat="43.32070608757994" lon="11.384216975431974"><ele>213.0</ele><time>2026-04-11T08:46:14.999Z</time></trkpt><trkpt lat="43.32076814069617" lon="11.384082644066494"><ele>212.25</ele><time>2026-04-11T08:46:15.999Z</time></trkpt><trkpt lat="43.32079461899871" lon="11.383933547090294"><ele>211.5</ele><time>2026-04-11T08:46:16.999Z</time></trkpt><trkpt lat="43.32078186863314" lon="11.38377554965116"><ele>210.75</ele><time>2026-04-11T08:46:17.999Z</time></trkpt><trkpt lat="43.32074251047699" lon="11.383625139293185"><ele>210.0</ele><time>2026-04-11T08:46:18.999Z</time></trkpt><trkpt lat="43.32069098455214" lon="11.38347867385615"><ele>208.0</ele><time>2026-04-11T08:46:19.999Z</time></trkpt><trkpt lat="43.32064560259342" lon="11.383333348899397"><ele>206.0</ele><time>2026-04-11T08:46:20.999Z</time></trkpt><trkpt lat="43.320616461688374" lon="11.383179565416919"><ele>204.0</ele><time>2026-04-11T08:46:21.999Z</time></trkpt><trkpt lat="43.32060010966161" lon="11.383020867296453"><ele>202.0</ele><time>2026-04-11T08:46:22.999Z</time></trkpt><trkpt lat="43.32059180146998" lon="11.382859798504633"><ele>201.25</ele><time>2026-04-11T08:46:23.999Z</time></trkpt><trkpt lat="43.320580487697804" lon="11.382698882361991"><ele>200.5</ele><time>2026-04-11T08:46:24.999Z</time></trkpt><trkpt lat="43.32056275161708" lon="11.382539081933736"><ele>199.75</ele><time>2026-04-11T08:46:25.999Z</time></trkpt><trkpt lat="43.320538391368174" lon="11.382383990221312"><ele>199.0</ele><time>2026-04-11T08:46:26.999Z</time></trkpt><trkpt lat="43.320513170407615" lon="11.382229362827617"><ele>198.75</ele><time>2026-04-11T08:46:27.999Z</time></trkpt><trkpt lat="43.32048686319858" lon="11.382074616224324"><ele>198.5</ele><time>2026-04-11T08:46:28.999Z</time></trkpt><trkpt lat="43.32046051553078" lon="11.381922369164476"><ele>198.25</ele><time>2026-04-11T08:46:29.999Z</time></trkpt><trkpt lat="43.320435315977484" lon="11.38177090969384"><ele>198.0</ele><time>2026-04-11T08:46:30.999Z</time></trkpt><trkpt lat="43.320411327187706" lon="11.381621689176074"><ele>198.0</ele><time>2026-04-11T08:46:31.999Z</time></trkpt><trkpt lat="43.320385842763116" lon="11.381473262898606"><ele>198.0</ele><time>2026-04-11T08:46:32.999Z</time></trkpt><trkpt lat="43.32036142185975" lon="11.381331569755787"><ele>198.0</ele><time>2026-04-11T08:46:33.999Z</time></trkpt><trkpt lat="43.32033936858153" lon="11.381191201876954"><ele>198.0</ele><time>2026-04-11T08:46:34.999Z</time></trkpt><trkpt lat="43.32032313264042" lon="11.381053540337287"><ele>198.0</ele><time>2026-04-11T08:46:35.999Z</time></trkpt><trkpt lat="43.320314728891184" lon="11.380914803146513"><ele>197.8</ele><time>2026-04-11T08:46:36.999Z</time></trkpt><trkpt lat="43.32031572214608" lon="11.380777095470973"><ele>197.60000000000002</ele><time>2026-04-11T08:46:38Z</time></trkpt><trkpt lat="43.32032867211473" lon="11.38063593505103"><ele>197.39999999999998</ele><time>2026-04-11T08:46:39Z</time></trkpt><trkpt lat="43.32035379828058" lon="11.380513130527273"><ele>197.2</ele><time>2026-04-11T08:46:40Z</time></trkpt><trkpt lat="43.32037713853437" lon="11.38038958892372"><ele>197.0</ele><time>2026-04-11T08:46:41Z</time></trkpt><trkpt lat="43.32039991766348" lon="11.380273606569629"><ele>197.00000000000003</ele><time>2026-04-11T08:46:42Z</time></trkpt><trkpt lat="43.32041375271371" lon="11.380159789897393"><ele>197.0</ele><time>2026-04-11T08:46:43Z</time></trkpt><trkpt lat="43.320424436519176" lon="11.380048809075557"><ele>197.0</ele><time>2026-04-11T08:46:44Z</time></trkpt><trkpt lat="43.32043147792652" lon="11.379944380924913"><ele>197.0</ele><time>2026-04-11T08:46:45Z</time></trkpt><trkpt lat="43.32044273898209" lon="11.379844493212678"><ele>197.00000000000003</ele><time>2026-04-11T08:46:46Z</time></trkpt><trkpt lat="43.320455194223285" lon="11.379748751824366"><ele>197.0</ele><time>2026-04-11T08:46:47Z</time></trkpt><trkpt lat="43.32046939235123" lon="11.379652536750433"><ele>197.50000000000003</ele><time>2026-04-11T08:46:48Z</time></trkpt><trkpt lat="43.32048647881867" lon="11.379552396940937"><ele>198.0</ele><time>2026-04-11T08:46:49Z</time></trkpt><trkpt lat="43.32049960186037" lon="11.379452495938205"><ele>198.5</ele><time>2026-04-11T08:46:50Z</time></trkpt><trkpt lat="43.32050938432932" lon="11.37935089982618"><ele>199.0</ele><time>2026-04-11T08:46:51Z</time></trkpt><trkpt lat="43.320524064716544" lon="11.37924705944552"><ele>199.50000000000003</ele><time>2026-04-11T08:46:52Z</time></trkpt><trkpt lat="43.32053655817974" lon="11.3791435719867"><ele>200.0</ele><time>2026-04-11T08:46:53Z</time></trkpt><trkpt lat="43.320550994118975" lon="11.379040814059659"><ele>200.00000000000003</ele><time>2026-04-11T08:46:54Z</time></trkpt><trkpt lat="43.320563872047785" lon="11.378939084380422"><ele>200.0</ele><time>2026-04-11T08:46:55Z</time></trkpt><trkpt lat="43.32057346229297" lon="11.378838743380095"><ele>200.0</ele><time>2026-04-11T08:46:56Z</time></trkpt><trkpt lat="43.32058606151257" lon="11.378736521309387"><ele>200.0</ele><time>2026-04-11T08:46:57Z</time></trkpt><trkpt lat="43.32059891585061" lon="11.3786346623566"><ele>200.00000000000003</ele><time>2026-04-11T08:46:58Z</time></trkpt><trkpt lat="43.32060379591566" lon="11.378528215725819"><ele>200.0</ele><time>2026-04-11T08:46:59Z</time></trkpt><trkpt lat="43.32060194459502" lon="11.378419836487984"><ele>201.00000000000003</ele><time>2026-04-11T08:47:00Z</time></trkpt><trkpt lat="43.320594852867856" lon="11.378313962617485"><ele>202.0</ele><time>2026-04-11T08:47:01Z</time></trkpt><trkpt lat="43.32058579069853" lon="11.378207761514956"><ele>203.0</ele><time>2026-04-11T08:47:02Z</time></trkpt><trkpt lat="43.32057596819863" lon="11.378104537967712"><ele>204.0</ele><time>2026-04-11T08:47:03Z</time></trkpt><trkpt lat="43.320563928488234" lon="11.378000676518939"><ele>205.00000000000003</ele><time>2026-04-11T08:47:04Z</time></trkpt><trkpt lat="43.320550762413546" lon="11.377896926676938"><ele>206.0</ele><time>2026-04-11T08:47:05Z</time></trkpt><trkpt lat="43.320537947643466" lon="11.377795150016082"><ele>207.14285714285714</ele><time>2026-04-11T08:47:06Z</time></trkpt><trkpt lat="43.32052576970863" lon="11.377693734401538"><ele>208.28571428571428</ele><time>2026-04-11T08:47:07Z</time></trkpt><trkpt lat="43.32051289582357" lon="11.377593563713784"><ele>209.42857142857144</ele><time>2026-04-11T08:47:08Z</time></trkpt><trkpt lat="43.320498357022664" lon="11.377496684942365"><ele>210.57142857142856</ele><time>2026-04-11T08:47:09Z</time></trkpt><trkpt lat="43.32048568948479" lon="11.377401672418227"><ele>211.71428571428572</ele><time>2026-04-11T08:47:10Z</time></trkpt><trkpt lat="43.320472567626084" lon="11.377307517568571"><ele>212.85714285714286</ele><time>2026-04-11T08:47:11Z</time></trkpt><trkpt lat="43.32045997433079" lon="11.37721524034874"><ele>214.0</ele><time>2026-04-11T08:47:12Z</time></trkpt><trkpt lat="43.32044953464511" lon="11.37712053643688"><ele>215.66666666666666</ele><time>2026-04-11T08:47:13Z</time></trkpt><trkpt lat="43.32044312439086" lon="11.377024331894749"><ele>217.33333333333331</ele><time>2026-04-11T08:47:14Z</time></trkpt><trkpt lat="43.3204367005198" lon="11.376930806925218"><ele>219.0</ele><time>2026-04-11T08:47:15Z</time></trkpt><trkpt lat="43.32043523368692" lon="11.376837328634222"><ele>220.66666666666669</ele><time>2026-04-11T08:47:16Z</time></trkpt><trkpt lat="43.32043948435056" lon="11.376748002642824"><ele>222.33333333333334</ele><time>2026-04-11T08:47:17Z</time></trkpt><trkpt lat="43.32043974104608" lon="11.376654084602892"><ele>224.0</ele><time>2026-04-11T08:47:18Z</time></trkpt><trkpt lat="43.320455592444475" lon="11.376484020322785"><ele>223.39999999999998</ele><time>2026-04-11T08:47:20Z</time></trkpt><trkpt lat="43.320476709490976" lon="11.376321826111287"><ele>222.79999999999998</ele><time>2026-04-11T08:47:22Z</time></trkpt><trkpt lat="43.3204933913794" lon="11.376179349520916"><ele>222.20000000000002</ele><time>2026-04-11T08:47:24Z</time></trkpt><trkpt lat="43.32050553900259" lon="11.376057349316284"><ele>221.60000000000002</ele><time>2026-04-11T08:47:26Z</time></trkpt><trkpt lat="43.32051077298322" lon="11.375960395950916"><ele>221.0</ele><time>2026-04-11T08:47:28Z</time></trkpt><trkpt lat="43.32051361157861" lon="11.375866641290713"><ele>221.00000000000003</ele><time>2026-04-11T08:47:31Z</time></trkpt><trkpt lat="43.320513103588404" lon="11.375773865001019"><ele>221.0</ele><time>2026-04-11T08:47:35Z</time></trkpt><trkpt lat="43.320504741732876" lon="11.375686556215877"><ele>221.0</ele><time>2026-04-11T08:47:39Z</time></trkpt><trkpt lat="43.320472104005006" lon="11.375587589620636"><ele>221.0</ele><time>2026-04-11T08:47:43Z</time></trkpt><trkpt lat="43.32047089887881" lon="11.375493993777951"><ele>221.0</ele><time>2026-04-11T08:47:47Z</time></trkpt><trkpt lat="43.32042987733756" lon="11.375400255379814"><ele>221.00000000000003</ele><time>2026-04-11T08:47:50.999Z</time></trkpt><trkpt lat="43.320383396042494" lon="11.375321215595557"><ele>221.0</ele><time>2026-04-11T08:47:54.999Z</time></trkpt><trkpt lat="43.320333344891445" lon="11.37525398809674"><ele>221.00000000000003</ele><time>2026-04-11T08:47:58.999Z</time></trkpt><trkpt lat="43.320285334174514" lon="11.375166146212909"><ele>221.0</ele><time>2026-04-11T08:48:03.999Z</time></trkpt><trkpt lat="43.320246007871155" lon="11.37509690942473"><ele>221.0</ele><time>2026-04-11T08:48:07.999Z</time></trkpt><trkpt lat="43.32022599994725" lon="11.37499842547043"><ele>221.0</ele><time>2026-04-11T08:48:12.999Z</time></trkpt><trkpt lat="43.32023132905125" lon="11.374893432391458"><ele>221.0</ele><time>2026-04-11T08:48:17.999Z</time></trkpt><trkpt lat="43.32025073675107" lon="11.374799306634479"><ele>221.00000000000003</ele><time>2026-04-11T08:48:22.999Z</time></trkpt><trkpt lat="43.32026854569605" lon="11.374704009211637"><ele>221.0</ele><time>2026-04-11T08:48:27.999Z</time></trkpt><trkpt lat="43.320295909461336" lon="11.374605410097518"><ele>221.00000000000003</ele><time>2026-04-11T08:48:32.999Z</time></trkpt><trkpt lat="43.32031220704421" lon="11.374505353180028"><ele>221.0</ele><time>2026-04-11T08:48:36.999Z</time></trkpt><trkpt lat="43.32033898224471" lon="11.374406687526811"><ele>221.0</ele><time>2026-04-11T08:48:40.999Z</time></trkpt><trkpt lat="43.32037290543191" lon="11.374313809306791"><ele>221.0</ele><time>2026-04-11T08:48:44Z</time></trkpt><trkpt lat="43.320395893697736" lon="11.37420940761131"><ele>221.00000000000003</ele><time>2026-04-11T08:48:48Z</time></trkpt><trkpt lat="43.3204273879285" lon="11.374108156458684"><ele>221.0</ele><time>2026-04-11T08:48:52Z</time></trkpt><trkpt lat="43.320450349624124" lon="11.374005865947701"><ele>221.00000000000003</ele><time>2026-04-11T08:48:56Z</time></trkpt><trkpt lat="43.320480356437336" lon="11.373908832433438"><ele>221.0</ele><time>2026-04-11T08:49:00Z</time></trkpt><trkpt lat="43.32051002428121" lon="11.373807722853481"><ele>221.0</ele><time>2026-04-11T08:49:04Z</time></trkpt><trkpt lat="43.32054652810597" lon="11.373716092437943"><ele>221.0</ele><time>2026-04-11T08:49:08Z</time></trkpt><trkpt lat="43.320591720875" lon="11.37362368037954"><ele>221.00000000000003</ele><time>2026-04-11T08:49:12Z</time></trkpt><trkpt lat="43.32062180188695" lon="11.373528672248451"><ele>221.0</ele><time>2026-04-11T08:49:16Z</time></trkpt><trkpt lat="43.32066809367632" lon="11.373444852961569"><ele>222.14285714285717</ele><time>2026-04-11T08:49:21Z</time></trkpt><trkpt lat="43.32070071901428" lon="11.373359871036001"><ele>223.28571428571428</ele><time>2026-04-11T08:49:26Z</time></trkpt><trkpt lat="43.3207448424631" lon="11.373280316264378"><ele>224.42857142857144</ele><time>2026-04-11T08:49:31Z</time></trkpt><trkpt lat="43.32078876274001" lon="11.373194634475613"><ele>225.57142857142858</ele><time>2026-04-11T08:49:36Z</time></trkpt><trkpt lat="43.32082927268425" lon="11.373107041682047"><ele>226.71428571428572</ele><time>2026-04-11T08:49:41Z</time></trkpt><trkpt lat="43.32087722301505" lon="11.37302102202774"><ele>227.85714285714286</ele><time>2026-04-11T08:49:46Z</time></trkpt><trkpt lat="43.32091475533368" lon="11.372939190913273"><ele>229.0</ele><time>2026-04-11T08:49:50Z</time></trkpt><trkpt lat="43.32095709046843" lon="11.372863484615507"><ele>230.28571428571428</ele><time>2026-04-11T08:49:54Z</time></trkpt><trkpt lat="43.320990694395185" lon="11.372783650764298"><ele>231.57142857142858</ele><time>2026-04-11T08:49:57.999Z</time></trkpt><trkpt lat="43.3210217811575" lon="11.37268240856342"><ele>232.85714285714286</ele><time>2026-04-11T08:50:01.999Z</time></trkpt><trkpt lat="43.321038565608355" lon="11.372596914279637"><ele>234.14285714285714</ele><time>2026-04-11T08:50:04.999Z</time></trkpt><trkpt lat="43.32105158338073" lon="11.372509182774333"><ele>235.42857142857144</ele><time>2026-04-11T08:50:07.999Z</time></trkpt><trkpt lat="43.321060410944526" lon="11.372400924342612"><ele>236.71428571428572</ele><time>2026-04-11T08:50:11.999Z</time></trkpt><trkpt lat="43.321078126921954" lon="11.372305934282341"><ele>238.0</ele><time>2026-04-11T08:50:14.999Z</time></trkpt><trkpt lat="43.32108977914017" lon="11.372200675108678"><ele>239.28571428571428</ele><time>2026-04-11T08:50:18.999Z</time></trkpt><trkpt lat="43.32109761377931" lon="11.372112778986002"><ele>240.57142857142856</ele><time>2026-04-11T08:50:21.999Z</time></trkpt><trkpt lat="43.32111866076749" lon="11.372011241807302"><ele>241.85714285714286</ele><time>2026-04-11T08:50:25.999Z</time></trkpt><trkpt lat="43.321142010690174" lon="11.371908474299335"><ele>243.14285714285714</ele><time>2026-04-11T08:50:29.999Z</time></trkpt><trkpt lat="43.32115369459443" lon="11.371804827348305"><ele>244.42857142857142</ele><time>2026-04-11T08:50:33.999Z</time></trkpt><trkpt lat="43.32116890528067" lon="11.371699946309908"><ele>245.71428571428572</ele><time>2026-04-11T08:50:37.999Z</time></trkpt><trkpt lat="43.32117832217827" lon="11.371602551534034"><ele>247.0</ele><time>2026-04-11T08:50:40.999Z</time></trkpt><trkpt lat="43.3211903932051" lon="11.371496970531322"><ele>247.0</ele><time>2026-04-11T08:50:43.999Z</time></trkpt><trkpt lat="43.321198398012825" lon="11.371393887226565"><ele>247.0</ele><time>2026-04-11T08:50:46.999Z</time></trkpt><trkpt lat="43.32120551775045" lon="11.371300645550315"><ele>247.0</ele><time>2026-04-11T08:50:48.999Z</time></trkpt><trkpt lat="43.32122256599845" lon="11.37120057587564"><ele>247.0</ele><time>2026-04-11T08:50:52Z</time></trkpt><trkpt lat="43.32123889005504" lon="11.371094122966477"><ele>247.0</ele><time>2026-04-11T08:50:55Z</time></trkpt><trkpt lat="43.32126179169202" lon="11.37101219799864"><ele>247.0</ele><time>2026-04-11T08:50:58Z</time></trkpt><trkpt lat="43.32128717700245" lon="11.370919832198728"><ele>247.0</ele><time>2026-04-11T08:51:01Z</time></trkpt><trkpt lat="43.321311373592756" lon="11.370829284146339"><ele>246.71428571428572</ele><time>2026-04-11T08:51:04Z</time></trkpt><trkpt lat="43.321344298708475" lon="11.370745780410592"><ele>246.42857142857142</ele><time>2026-04-11T08:51:07Z</time></trkpt><trkpt lat="43.321383390882325" lon="11.370664346258256"><ele>246.14285714285714</ele><time>2026-04-11T08:51:10Z</time></trkpt><trkpt lat="43.321419385381354" lon="11.37058319230024"><ele>245.85714285714286</ele><time>2026-04-11T08:51:13Z</time></trkpt><trkpt lat="43.32145476534741" lon="11.37050194771973"><ele>245.57142857142856</ele><time>2026-04-11T08:51:16Z</time></trkpt><trkpt lat="43.321487514065765" lon="11.370421618486708"><ele>245.28571428571428</ele><time>2026-04-11T08:51:19Z</time></trkpt><trkpt lat="43.321529407958046" lon="11.370340389491012"><ele>245.0</ele><time>2026-04-11T08:51:22Z</time></trkpt><trkpt lat="43.32157362850162" lon="11.370252633513243"><ele>246.0</ele><time>2026-04-11T08:51:25Z</time></trkpt><trkpt lat="43.32160776668549" lon="11.370179297429544"><ele>247.0</ele><time>2026-04-11T08:51:28Z</time></trkpt><trkpt lat="43.32164455668131" lon="11.370107337907463"><ele>248.0</ele><time>2026-04-11T08:51:31Z</time></trkpt><trkpt lat="43.321680620513014" lon="11.370034528316028"><ele>249.0</ele><time>2026-04-11T08:51:34Z</time></trkpt><trkpt lat="43.321717821097735" lon="11.369961299187198"><ele>250.0</ele><time>2026-04-11T08:51:37Z</time></trkpt><trkpt lat="43.321753045403064" lon="11.36987901156382"><ele>251.0</ele><time>2026-04-11T08:51:40Z</time></trkpt><trkpt lat="43.32179721065635" lon="11.369806243133933"><ele>252.0</ele><time>2026-04-11T08:51:43Z</time></trkpt><trkpt lat="43.32183545387793" lon="11.369723664380967"><ele>253.28571428571428</ele><time>2026-04-11T08:51:46Z</time></trkpt><trkpt lat="43.321874447390144" lon="11.3696471777455"><ele>254.57142857142856</ele><time>2026-04-11T08:51:49Z</time></trkpt><trkpt lat="43.32191577276252" lon="11.369564429032536"><ele>255.85714285714286</ele><time>2026-04-11T08:51:52Z</time></trkpt><trkpt lat="43.32195673173019" lon="11.369481595919227"><ele>257.1428571428571</ele><time>2026-04-11T08:51:55Z</time></trkpt><trkpt lat="43.3219932293069" lon="11.369403002084772"><ele>258.42857142857144</ele><time>2026-04-11T08:51:58Z</time></trkpt><trkpt lat="43.32202745313755" lon="11.36932005871911"><ele>259.7142857142857</ele><time>2026-04-11T08:52:01Z</time></trkpt><trkpt lat="43.322035958391034" lon="11.36920752080459"><ele>261.0</ele><time>2026-04-11T08:52:05Z</time></trkpt><trkpt lat="43.321997460160134" lon="11.369133413026395"><ele>261.0</ele><time>2026-04-11T08:52:08.999Z</time></trkpt><trkpt lat="43.32192647078928" lon="11.369129748004527"><ele>261.0</ele><time>2026-04-11T08:52:12.999Z</time></trkpt><trkpt lat="43.32185912302421" lon="11.369146405821706"><ele>261.0</ele><time>2026-04-11T08:52:16.999Z</time></trkpt><trkpt lat="43.32179484189817" lon="11.369202675266783"><ele>261.0</ele><time>2026-04-11T08:52:20.999Z</time></trkpt><trkpt lat="43.32174423913984" lon="11.369254918023605"><ele>261.0</ele><time>2026-04-11T08:52:23.999Z</time></trkpt><trkpt lat="43.32169417122148" lon="11.369308024294936"><ele>261.0</ele><time>2026-04-11T08:52:26.999Z</time></trkpt><trkpt lat="43.321623040540175" lon="11.369363580671697"><ele>261.0</ele><time>2026-04-11T08:52:30.999Z</time></trkpt><trkpt lat="43.321547699450015" lon="11.369395347449746"><ele>261.0</ele><time>2026-04-11T08:52:34.999Z</time></trkpt><trkpt lat="43.32146736651802" lon="11.369386939773905"><ele>261.0</ele><time>2026-04-11T08:52:38.999Z</time></trkpt><trkpt lat="43.3213939683157" lon="11.369344828608062"><ele>261.0</ele><time>2026-04-11T08:52:42.999Z</time></trkpt><trkpt lat="43.32132904850612" lon="11.3692883054883"><ele>261.0</ele><time>2026-04-11T08:52:46.999Z</time></trkpt><trkpt lat="43.3212718311433" lon="11.36921554205065"><ele>261.0</ele><time>2026-04-11T08:52:50.999Z</time></trkpt><trkpt lat="43.321210350494766" lon="11.369148526969623"><ele>261.0</ele><time>2026-04-11T08:52:54.999Z</time></trkpt><trkpt lat="43.32114981710736" lon="11.369074746919297"><ele>261.3333333333333</ele><time>2026-04-11T08:52:59Z</time></trkpt><trkpt lat="43.32109113492996" lon="11.369007799363668"><ele>261.6666666666667</ele><time>2026-04-11T08:53:03Z</time></trkpt><trkpt lat="43.321032075812056" lon="11.368940528697346"><ele>262.0</ele><time>2026-04-11T08:53:07Z</time></trkpt><trkpt lat="43.32098181002605" lon="11.368865904176118"><ele>262.33333333333337</ele><time>2026-04-11T08:53:11Z</time></trkpt><trkpt lat="43.32096397418745" lon="11.368773962929952"><ele>262.6666666666667</ele><time>2026-04-11T08:53:15Z</time></trkpt><trkpt lat="43.32098033591165" lon="11.368674245518624"><ele>263.0</ele><time>2026-04-11T08:53:19Z</time></trkpt><trkpt lat="43.32101156258211" lon="11.368569299293869"><ele>263.0</ele><time>2026-04-11T08:53:23Z</time></trkpt><trkpt lat="43.321032010344496" lon="11.368479957240588"><ele>263.0</ele><time>2026-04-11T08:53:26Z</time></trkpt><trkpt lat="43.32104768737444" lon="11.368385597519243"><ele>263.0</ele><time>2026-04-11T08:53:29Z</time></trkpt><trkpt lat="43.32106908341845" lon="11.368285510160897"><ele>263.0</ele><time>2026-04-11T08:53:32Z</time></trkpt><trkpt lat="43.32107940345025" lon="11.36818554063964"><ele>263.0</ele><time>2026-04-11T08:53:35Z</time></trkpt><trkpt lat="43.32108985331978" lon="11.368082754919849"><ele>263.0</ele><time>2026-04-11T08:53:38Z</time></trkpt><trkpt lat="43.321093822268445" lon="11.367977391744693"><ele>263.0</ele><time>2026-04-11T08:53:41Z</time></trkpt><trkpt lat="43.32109609791618" lon="11.36786654479947"><ele>263.6666666666667</ele><time>2026-04-11T08:53:44Z</time></trkpt><trkpt lat="43.32110153275001" lon="11.36774667437461"><ele>264.33333333333337</ele><time>2026-04-11T08:53:47Z</time></trkpt><trkpt lat="43.32110536926965" lon="11.367632202963543"><ele>265.0</ele><time>2026-04-11T08:53:50Z</time></trkpt><trkpt lat="43.32110853747919" lon="11.367519591115768"><ele>265.6666666666667</ele><time>2026-04-11T08:53:53Z</time></trkpt><trkpt lat="43.321114745107984" lon="11.367388549218832"><ele>266.3333333333333</ele><time>2026-04-11T08:53:56Z</time></trkpt><trkpt lat="43.32111491674313" lon="11.367292389514763"><ele>267.0</ele><time>2026-04-11T08:53:58Z</time></trkpt><trkpt lat="43.32111681649646" lon="11.367168404774946"><ele>267.6666666666667</ele><time>2026-04-11T08:54:00.999Z</time></trkpt><trkpt lat="43.32111875678875" lon="11.367050730633418"><ele>268.3333333333333</ele><time>2026-04-11T08:54:03.999Z</time></trkpt><trkpt lat="43.32111923024245" lon="11.36692897468904"><ele>269.0</ele><time>2026-04-11T08:54:06.999Z</time></trkpt><trkpt lat="43.32111780214224" lon="11.36680696960566"><ele>269.66666666666663</ele><time>2026-04-11T08:54:09.999Z</time></trkpt><trkpt lat="43.321110382287706" lon="11.366684202352477"><ele>270.3333333333333</ele><time>2026-04-11T08:54:12.999Z</time></trkpt><trkpt lat="43.32109817323677" lon="11.366566282729098"><ele>271.0</ele><time>2026-04-11T08:54:15.999Z</time></trkpt><trkpt lat="43.32108217603" lon="11.366450495766147"><ele>271.0</ele><time>2026-04-11T08:54:18.999Z</time></trkpt><trkpt lat="43.321063316625164" lon="11.366331105444047"><ele>271.0</ele><time>2026-04-11T08:54:21.999Z</time></trkpt><trkpt lat="43.3210460137389" lon="11.366202495876344"><ele>271.0</ele><time>2026-04-11T08:54:24.999Z</time></trkpt><trkpt lat="43.32103771839189" lon="11.366111184765467"><ele>271.0</ele><time>2026-04-11T08:54:26.999Z</time></trkpt><trkpt lat="43.32101720257061" lon="11.366005758606628"><ele>271.0</ele><time>2026-04-11T08:54:28.999Z</time></trkpt><trkpt lat="43.32099966633436" lon="11.365889300561088"><ele>271.0</ele><time>2026-04-11T08:54:30.999Z</time></trkpt><trkpt lat="43.32097160116454" lon="11.365753178319151"><ele>271.0</ele><time>2026-04-11T08:54:32.999Z</time></trkpt><trkpt lat="43.32091626721407" lon="11.365568257187885"><ele>271.0</ele><time>2026-04-11T08:54:34.999Z</time></trkpt><trkpt lat="43.32086665796406" lon="11.36541897175124"><ele>271.0</ele><time>2026-04-11T08:54:36.999Z</time></trkpt><trkpt lat="43.320811195995965" lon="11.36527020523977"><ele>271.0</ele><time>2026-04-11T08:54:38.999Z</time></trkpt><trkpt lat="43.32075501572727" lon="11.365125576693735"><ele>271.25</ele><time>2026-04-11T08:54:40.999Z</time></trkpt><trkpt lat="43.32070104863309" lon="11.364985070587696"><ele>271.5</ele><time>2026-04-11T08:54:42.999Z</time></trkpt><trkpt lat="43.32063720420115" lon="11.364845425062505"><ele>271.75</ele><time>2026-04-11T08:54:44.999Z</time></trkpt><trkpt lat="43.32056984994253" lon="11.36471478934844"><ele>272.0</ele><time>2026-04-11T08:54:46.999Z</time></trkpt><trkpt lat="43.32049930461415" lon="11.364598138854188"><ele>272.4</ele><time>2026-04-11T08:54:48.999Z</time></trkpt><trkpt lat="43.32043275125302" lon="11.36448624177193"><ele>272.79999999999995</ele><time>2026-04-11T08:54:50.999Z</time></trkpt><trkpt lat="43.320369312849635" lon="11.364378549602238"><ele>273.2</ele><time>2026-04-11T08:54:52.999Z</time></trkpt><trkpt lat="43.32030769405706" lon="11.364276184551958"><ele>273.59999999999997</ele><time>2026-04-11T08:54:54.999Z</time></trkpt><trkpt lat="43.32023840105772" lon="11.36417195800378"><ele>274.0</ele><time>2026-04-11T08:54:56.999Z</time></trkpt><trkpt lat="43.32016669318229" lon="11.364053036553965"><ele>274.00000000000006</ele><time>2026-04-11T08:54:58.999Z</time></trkpt><trkpt lat="43.320098836383906" lon="11.363915946568595"><ele>274.0</ele><time>2026-04-11T08:55:00.999Z</time></trkpt><trkpt lat="43.320057155555304" lon="11.363850627205503"><ele>274.0</ele><time>2026-04-11T08:55:02Z</time></trkpt><trkpt lat="43.32001429564576" lon="11.363784461296833"><ele>274.0</ele><time>2026-04-11T08:55:03Z</time></trkpt><trkpt lat="43.31997092701792" lon="11.363717262697138"><ele>274.0</ele><time>2026-04-11T08:55:04Z</time></trkpt><trkpt lat="43.319929245373615" lon="11.363647035081556"><ele>274.00000000000006</ele><time>2026-04-11T08:55:05Z</time></trkpt><trkpt lat="43.319885087615084" lon="11.363582689609293"><ele>274.0</ele><time>2026-04-11T08:55:06Z</time></trkpt><trkpt lat="43.31984086230014" lon="11.363517339938216"><ele>274.75</ele><time>2026-04-11T08:55:07Z</time></trkpt><trkpt lat="43.31974963998815" lon="11.363403308530943"><ele>275.5</ele><time>2026-04-11T08:55:09Z</time></trkpt><trkpt lat="43.31966565552635" lon="11.363289809824812"><ele>276.25</ele><time>2026-04-11T08:55:11Z</time></trkpt><trkpt lat="43.319581743813735" lon="11.363202904495948"><ele>277.0</ele><time>2026-04-11T08:55:13Z</time></trkpt><trkpt lat="43.31951684733446" lon="11.36306974952222"><ele>275.8333333333333</ele><time>2026-04-11T08:55:15Z</time></trkpt><trkpt lat="43.31945485317876" lon="11.362916713671812"><ele>274.66666666666663</ele><time>2026-04-11T08:55:17Z</time></trkpt><trkpt lat="43.31943132566706" lon="11.36282925609437"><ele>273.5</ele><time>2026-04-11T08:55:18Z</time></trkpt><trkpt lat="43.31941824705979" lon="11.36272913785421"><ele>272.3333333333333</ele><time>2026-04-11T08:55:19Z</time></trkpt><trkpt lat="43.31939583436458" lon="11.362636124651935"><ele>271.1666666666667</ele><time>2026-04-11T08:55:20Z</time></trkpt><trkpt lat="43.319363602709934" lon="11.362542208936935"><ele>270.0</ele><time>2026-04-11T08:55:21Z</time></trkpt><trkpt lat="43.319311756786846" lon="11.362461381427243"><ele>270.0</ele><time>2026-04-11T08:55:22Z</time></trkpt><trkpt lat="43.319259454730144" lon="11.362384463859835"><ele>270.0</ele><time>2026-04-11T08:55:23Z</time></trkpt><trkpt lat="43.31920246900561" lon="11.362304288673723"><ele>270.0</ele><time>2026-04-11T08:55:24Z</time></trkpt><trkpt lat="43.319145319024685" lon="11.362222048589164"><ele>270.0</ele><time>2026-04-11T08:55:25Z</time></trkpt><trkpt lat="43.319088774404555" lon="11.362129925564728"><ele>270.0</ele><time>2026-04-11T08:55:26Z</time></trkpt><trkpt lat="43.31902727605446" lon="11.362038053776885"><ele>270.0</ele><time>2026-04-11T08:55:27Z</time></trkpt><trkpt lat="43.31895955514434" lon="11.361943192137185"><ele>269.2</ele><time>2026-04-11T08:55:28Z</time></trkpt><trkpt lat="43.31890070422126" lon="11.361833920620052"><ele>268.4</ele><time>2026-04-11T08:55:29Z</time></trkpt><trkpt lat="43.318831260651734" lon="11.361724700609031"><ele>267.6</ele><time>2026-04-11T08:55:30Z</time></trkpt><trkpt lat="43.318768069807135" lon="11.361610007535619"><ele>266.8</ele><time>2026-04-11T08:55:31Z</time></trkpt><trkpt lat="43.31871130557614" lon="11.361483937385453"><ele>266.0</ele><time>2026-04-11T08:55:32Z</time></trkpt><trkpt lat="43.31865843234078" lon="11.36134744063508"><ele>264.0</ele><time>2026-04-11T08:55:33Z</time></trkpt><trkpt lat="43.318608531821276" lon="11.36120572795636"><ele>262.0</ele><time>2026-04-11T08:55:34Z</time></trkpt><trkpt lat="43.318563043864714" lon="11.361059977088551"><ele>260.0</ele><time>2026-04-11T08:55:35Z</time></trkpt><trkpt lat="43.31851648510326" lon="11.36091505781152"><ele>258.0</ele><time>2026-04-11T08:55:36Z</time></trkpt><trkpt lat="43.31845417751867" lon="11.360774844113791"><ele>258.0</ele><time>2026-04-11T08:55:37Z</time></trkpt><trkpt lat="43.31838751556322" lon="11.360639276459919"><ele>258.0</ele><time>2026-04-11T08:55:38Z</time></trkpt><trkpt lat="43.31832225243515" lon="11.36049921255931"><ele>258.0</ele><time>2026-04-11T08:55:39Z</time></trkpt><trkpt lat="43.318257705247355" lon="11.360354412677239"><ele>258.0</ele><time>2026-04-11T08:55:40Z</time></trkpt><trkpt lat="43.31819389285556" lon="11.360206192078627"><ele>256.25</ele><time>2026-04-11T08:55:41Z</time></trkpt><trkpt lat="43.31811784646835" lon="11.360065411323113"><ele>254.5</ele><time>2026-04-11T08:55:42Z</time></trkpt><trkpt lat="43.318033779166775" lon="11.359937437179994"><ele>252.75</ele><time>2026-04-11T08:55:43Z</time></trkpt><trkpt lat="43.31795233366299" lon="11.359806948621719"><ele>251.0</ele><time>2026-04-11T08:55:44Z</time></trkpt><trkpt lat="43.31788765779157" lon="11.359672409641187"><ele>249.0</ele><time>2026-04-11T08:55:45Z</time></trkpt><trkpt lat="43.317835940041505" lon="11.359530818785425"><ele>247.00000000000003</ele><time>2026-04-11T08:55:46Z</time></trkpt><trkpt lat="43.317790924838015" lon="11.359387926052909"><ele>245.00000000000003</ele><time>2026-04-11T08:55:47Z</time></trkpt><trkpt lat="43.31776420998954" lon="11.359240356642058"><ele>243.0</ele><time>2026-04-11T08:55:48Z</time></trkpt><trkpt lat="43.31773761204722" lon="11.359108926153546"><ele>241.0</ele><time>2026-04-11T08:55:49Z</time></trkpt><trkpt lat="43.31771652704646" lon="11.358956997854985"><ele>240.0</ele><time>2026-04-11T08:55:50Z</time></trkpt><trkpt lat="43.317688780998694" lon="11.358811547334232"><ele>239.0</ele><time>2026-04-11T08:55:51Z</time></trkpt><trkpt lat="43.31764326685931" lon="11.358669065306684"><ele>238.0</ele><time>2026-04-11T08:55:52Z</time></trkpt><trkpt lat="43.31757175341013" lon="11.35854230866756"><ele>237.0</ele><time>2026-04-11T08:55:53Z</time></trkpt><trkpt lat="43.317473988438124" lon="11.358432084184633"><ele>237.0</ele><time>2026-04-11T08:55:54Z</time></trkpt><trkpt lat="43.31736725557526" lon="11.358337226709798"><ele>237.0</ele><time>2026-04-11T08:55:55Z</time></trkpt><trkpt lat="43.317245310123816" lon="11.358283192170736"><ele>237.0</ele><time>2026-04-11T08:55:56Z</time></trkpt><trkpt lat="43.3171125356039" lon="11.358270425744664"><ele>237.0</ele><time>2026-04-11T08:55:57Z</time></trkpt><trkpt lat="43.31698075991799" lon="11.358282668043008"><ele>235.75</ele><time>2026-04-11T08:55:58Z</time></trkpt><trkpt lat="43.316856970271395" lon="11.35828144416698"><ele>234.5</ele><time>2026-04-11T08:55:59Z</time></trkpt><trkpt lat="43.31674166138259" lon="11.358239538092489"><ele>233.25</ele><time>2026-04-11T08:56:00Z</time></trkpt><trkpt lat="43.31664061683513" lon="11.358137139519977"><ele>232.0</ele><time>2026-04-11T08:56:01Z</time></trkpt><trkpt lat="43.31654941563248" lon="11.358006173160804"><ele>232.0</ele><time>2026-04-11T08:56:02Z</time></trkpt><trkpt lat="43.316460233068355" lon="11.357867371674814"><ele>232.0</ele><time>2026-04-11T08:56:03Z</time></trkpt><trkpt lat="43.3163860802173" lon="11.357712860898246"><ele>232.0</ele><time>2026-04-11T08:56:04Z</time></trkpt><trkpt lat="43.31630227891789" lon="11.35757258963829"><ele>232.0</ele><time>2026-04-11T08:56:05Z</time></trkpt><trkpt lat="43.3162191534706" lon="11.357444155686208"><ele>230.75</ele><time>2026-04-11T08:56:06Z</time></trkpt><trkpt lat="43.316144508481266" lon="11.357305339273992"><ele>229.5</ele><time>2026-04-11T08:56:07Z</time></trkpt><trkpt lat="43.31609105409839" lon="11.35714565668344"><ele>228.25</ele><time>2026-04-11T08:56:08Z</time></trkpt><trkpt lat="43.316062723126706" lon="11.356974211376436"><ele>227.0</ele><time>2026-04-11T08:56:09Z</time></trkpt><trkpt lat="43.31605185196823" lon="11.356803615089031"><ele>226.8</ele><time>2026-04-11T08:56:10Z</time></trkpt><trkpt lat="43.31604766384284" lon="11.35664202987184"><ele>226.6</ele><time>2026-04-11T08:56:11Z</time></trkpt><trkpt lat="43.31604003038373" lon="11.356485256334857"><ele>226.40000000000003</ele><time>2026-04-11T08:56:12Z</time></trkpt><trkpt lat="43.31603067821147" lon="11.356341854199703"><ele>226.20000000000002</ele><time>2026-04-11T08:56:13Z</time></trkpt><trkpt lat="43.31602090987422" lon="11.356223705678014"><ele>226.0</ele><time>2026-04-11T08:56:13.999Z</time></trkpt><trkpt lat="43.3160576591784" lon="11.35604851733191"><ele>225.83333333333331</ele><time>2026-04-11T08:56:15.999Z</time></trkpt><trkpt lat="43.31610819873342" lon="11.355972319799415"><ele>225.66666666666666</ele><time>2026-04-11T08:56:16.999Z</time></trkpt><trkpt lat="43.31615389791294" lon="11.355905486461998"><ele>225.5</ele><time>2026-04-11T08:56:17.999Z</time></trkpt><trkpt lat="43.31619408792857" lon="11.355837446002969"><ele>225.33333333333331</ele><time>2026-04-11T08:56:18.999Z</time></trkpt><trkpt lat="43.31628141902724" lon="11.355720840844214"><ele>225.16666666666666</ele><time>2026-04-11T08:56:20.999Z</time></trkpt><trkpt lat="43.31635619973474" lon="11.355593536396478"><ele>225.0</ele><time>2026-04-11T08:56:22.999Z</time></trkpt><trkpt lat="43.31639960387072" lon="11.355445830402747"><ele>225.33333333333334</ele><time>2026-04-11T08:56:24.999Z</time></trkpt><trkpt lat="43.31639518829541" lon="11.355357031089655"><ele>225.66666666666669</ele><time>2026-04-11T08:56:25.999Z</time></trkpt><trkpt lat="43.316372657530756" lon="11.35526132858598"><ele>226.0</ele><time>2026-04-11T08:56:26.999Z</time></trkpt><trkpt lat="43.31627095549516" lon="11.355166601292346"><ele>226.33333333333334</ele><time>2026-04-11T08:56:28.999Z</time></trkpt><trkpt lat="43.316206619086266" lon="11.355148235061401"><ele>226.66666666666669</ele><time>2026-04-11T08:56:29.999Z</time></trkpt><trkpt lat="43.31615229835816" lon="11.355193837185105"><ele>227.0</ele><time>2026-04-11T08:56:30.999Z</time></trkpt><trkpt lat="43.31605144417393" lon="11.355126681304213"><ele>227.00000000000003</ele><time>2026-04-11T08:56:32.999Z</time></trkpt><trkpt lat="43.31599991484651" lon="11.35499837040519"><ele>227.0</ele><time>2026-04-11T08:56:34.999Z</time></trkpt><trkpt lat="43.315971710473136" lon="11.354894873678898"><ele>227.0</ele><time>2026-04-11T08:56:36.999Z</time></trkpt><trkpt lat="43.3159497848453" lon="11.354801599030438"><ele>227.0</ele><time>2026-04-11T08:56:38.999Z</time></trkpt><trkpt lat="43.31592712572324" lon="11.354717674417747"><ele>227.00000000000003</ele><time>2026-04-11T08:56:40.999Z</time></trkpt><trkpt lat="43.31590268922106" lon="11.3546364081769"><ele>227.0</ele><time>2026-04-11T08:56:42.999Z</time></trkpt><trkpt lat="43.315882013483154" lon="11.354554383871765"><ele>227.66666666666669</ele><time>2026-04-11T08:56:44.999Z</time></trkpt><trkpt lat="43.31584743891733" lon="11.354440935957513"><ele>228.33333333333334</ele><time>2026-04-11T08:56:47.999Z</time></trkpt><trkpt lat="43.315818363390655" lon="11.35433477502228"><ele>229.0</ele><time>2026-04-11T08:56:50.999Z</time></trkpt><trkpt lat="43.315797092891906" lon="11.354239026542311"><ele>229.66666666666669</ele><time>2026-04-11T08:56:53.999Z</time></trkpt><trkpt lat="43.3157717893723" lon="11.354143475686026"><ele>230.33333333333334</ele><time>2026-04-11T08:56:56.999Z</time></trkpt><trkpt lat="43.315749362718265" lon="11.354045116711747"><ele>231.0</ele><time>2026-04-11T08:56:59.999Z</time></trkpt><trkpt lat="43.31572101943534" lon="11.353948497754747"><ele>231.42857142857144</ele><time>2026-04-11T08:57:02.999Z</time></trkpt><trkpt lat="43.31569391876513" lon="11.353855452357543"><ele>231.85714285714286</ele><time>2026-04-11T08:57:05.999Z</time></trkpt><trkpt lat="43.315665460311294" lon="11.353763322577196"><ele>232.28571428571428</ele><time>2026-04-11T08:57:09Z</time></trkpt><trkpt lat="43.31563818728029" lon="11.353669697459896"><ele>232.71428571428572</ele><time>2026-04-11T08:57:12Z</time></trkpt><trkpt lat="43.31561792956685" lon="11.35358135565349"><ele>233.14285714285717</ele><time>2026-04-11T08:57:15Z</time></trkpt><trkpt lat="43.31559861507443" lon="11.353487791534596"><ele>233.57142857142858</ele><time>2026-04-11T08:57:18Z</time></trkpt><trkpt lat="43.31557265531517" lon="11.353403810119712"><ele>234.0</ele><time>2026-04-11T08:57:21Z</time></trkpt><trkpt lat="43.31555087924984" lon="11.353319177639085"><ele>234.0</ele><time>2026-04-11T08:57:24Z</time></trkpt><trkpt lat="43.315533245671105" lon="11.353227427481029"><ele>234.00000000000003</ele><time>2026-04-11T08:57:27Z</time></trkpt><trkpt lat="43.31550436265972" lon="11.353139521538571"><ele>234.0</ele><time>2026-04-11T08:57:30Z</time></trkpt><trkpt lat="43.315477539825935" lon="11.353047750568443"><ele>234.0</ele><time>2026-04-11T08:57:33Z</time></trkpt><trkpt lat="43.31545450878124" lon="11.352951961774757"><ele>234.00000000000003</ele><time>2026-04-11T08:57:36Z</time></trkpt><trkpt lat="43.31542967902063" lon="11.352858599233286"><ele>234.0</ele><time>2026-04-11T08:57:39Z</time></trkpt><trkpt lat="43.31540614279304" lon="11.35276608502475"><ele>234.0</ele><time>2026-04-11T08:57:42Z</time></trkpt><trkpt lat="43.315377674473645" lon="11.352674468669296"><ele>234.42857142857144</ele><time>2026-04-11T08:57:45Z</time></trkpt><trkpt lat="43.31535490392879" lon="11.352579461491565"><ele>234.8571428571429</ele><time>2026-04-11T08:57:48Z</time></trkpt><trkpt lat="43.31532898725571" lon="11.352485833810261"><ele>235.28571428571428</ele><time>2026-04-11T08:57:51Z</time></trkpt><trkpt lat="43.315308585127646" lon="11.352389422197064"><ele>235.71428571428572</ele><time>2026-04-11T08:57:54Z</time></trkpt><trkpt lat="43.31528140875063" lon="11.35229655700797"><ele>236.14285714285714</ele><time>2026-04-11T08:57:57Z</time></trkpt><trkpt lat="43.315257079705695" lon="11.352203351118149"><ele>236.57142857142856</ele><time>2026-04-11T08:58:00Z</time></trkpt><trkpt lat="43.31523849718619" lon="11.352109761511992"><ele>236.99999999999997</ele><time>2026-04-11T08:58:03Z</time></trkpt><trkpt lat="43.31521227280153" lon="11.352016596933918"><ele>237.99999999999997</ele><time>2026-04-11T08:58:06Z</time></trkpt><trkpt lat="43.31518688814977" lon="11.351924888033189"><ele>239.0</ele><time>2026-04-11T08:58:09Z</time></trkpt><trkpt lat="43.31516050070097" lon="11.351838408092503"><ele>239.99999999999997</ele><time>2026-04-11T08:58:12Z</time></trkpt><trkpt lat="43.31512965786767" lon="11.351753512073548"><ele>240.99999999999997</ele><time>2026-04-11T08:58:15Z</time></trkpt><trkpt lat="43.31509121089692" lon="11.351670622906239"><ele>242.0</ele><time>2026-04-11T08:58:18Z</time></trkpt><trkpt lat="43.315054913227044" lon="11.3515870902327"><ele>242.99999999999997</ele><time>2026-04-11T08:58:20.999Z</time></trkpt><trkpt lat="43.31501607779585" lon="11.35150566735531"><ele>243.99999999999997</ele><time>2026-04-11T08:58:23.999Z</time></trkpt><trkpt lat="43.31497723876468" lon="11.351426119552452"><ele>243.85714285714283</ele><time>2026-04-11T08:58:26.999Z</time></trkpt><trkpt lat="43.314934980256965" lon="11.351350936805293"><ele>243.71428571428572</ele><time>2026-04-11T08:58:29.999Z</time></trkpt><trkpt lat="43.31490007220748" lon="11.351277383199188"><ele>243.57142857142856</ele><time>2026-04-11T08:58:32.999Z</time></trkpt><trkpt lat="43.31485786125147" lon="11.351195552721734"><ele>243.42857142857142</ele><time>2026-04-11T08:58:35.999Z</time></trkpt><trkpt lat="43.314811963612655" lon="11.351121340045617"><ele>243.28571428571428</ele><time>2026-04-11T08:58:38.999Z</time></trkpt><trkpt lat="43.314758131074974" lon="11.35103386283821"><ele>243.14285714285714</ele><time>2026-04-11T08:58:42.999Z</time></trkpt><trkpt lat="43.314711947874926" lon="11.350961444492656"><ele>243.0</ele><time>2026-04-11T08:58:45.999Z</time></trkpt><trkpt lat="43.31466771403764" lon="11.35088990541468"><ele>243.0</ele><time>2026-04-11T08:58:48.999Z</time></trkpt><trkpt lat="43.314622724353185" lon="11.350816456023876"><ele>243.0</ele><time>2026-04-11T08:58:51.999Z</time></trkpt><trkpt lat="43.31457505566404" lon="11.350747803312006"><ele>243.0</ele><time>2026-04-11T08:58:54.999Z</time></trkpt><trkpt lat="43.314527837178034" lon="11.350677750455562"><ele>243.0</ele><time>2026-04-11T08:58:57.999Z</time></trkpt><trkpt lat="43.3144851689118" lon="11.350602772712506"><ele>243.0</ele><time>2026-04-11T08:59:00.999Z</time></trkpt><trkpt lat="43.31444805240237" lon="11.350521472259379"><ele>243.0</ele><time>2026-04-11T08:59:03.999Z</time></trkpt><trkpt lat="43.31442742307193" lon="11.350427176543059"><ele>243.0</ele><time>2026-04-11T08:59:06.999Z</time></trkpt><trkpt lat="43.314416663763424" lon="11.35033484177097"><ele>243.42857142857142</ele><time>2026-04-11T08:59:09.999Z</time></trkpt><trkpt lat="43.31441728080592" lon="11.350244595207238"><ele>243.8571428571429</ele><time>2026-04-11T08:59:12.999Z</time></trkpt><trkpt lat="43.31442857366619" lon="11.350157064036416"><ele>244.2857142857143</ele><time>2026-04-11T08:59:16Z</time></trkpt><trkpt lat="43.314446638205204" lon="11.350071661843483"><ele>244.71428571428572</ele><time>2026-04-11T08:59:19Z</time></trkpt><trkpt lat="43.314486718590494" lon="11.350000569281747"><ele>245.14285714285717</ele><time>2026-04-11T08:59:22Z</time></trkpt><trkpt lat="43.31455591480362" lon="11.349938773820218"><ele>245.5714285714286</ele><time>2026-04-11T08:59:26Z</time></trkpt><trkpt lat="43.31463496065059" lon="11.349914643745436"><ele>246.00000000000003</ele><time>2026-04-11T08:59:30Z</time></trkpt><trkpt lat="43.31469909981826" lon="11.349912261729472"><ele>248.14285714285717</ele><time>2026-04-11T08:59:33Z</time></trkpt><trkpt lat="43.3147629564012" lon="11.349903766339313"><ele>250.28571428571428</ele><time>2026-04-11T08:59:36Z</time></trkpt><trkpt lat="43.31484563414757" lon="11.349892660524036"><ele>252.42857142857144</ele><time>2026-04-11T08:59:40Z</time></trkpt><trkpt lat="43.31490933940217" lon="11.34986818968866"><ele>254.57142857142858</ele><time>2026-04-11T08:59:43Z</time></trkpt><trkpt lat="43.314971651018354" lon="11.349833302047545"><ele>256.7142857142857</ele><time>2026-04-11T08:59:46Z</time></trkpt><trkpt lat="43.31502978886895" lon="11.349770666698346"><ele>258.8571428571429</ele><time>2026-04-11T08:59:49Z</time></trkpt><trkpt lat="43.31508733653891" lon="11.349679410798416"><ele>261.0</ele><time>2026-04-11T08:59:52Z</time></trkpt><trkpt lat="43.315123312776954" lon="11.34958474897399"><ele>261.5</ele><time>2026-04-11T08:59:55Z</time></trkpt><trkpt lat="43.3151400996992" lon="11.3494728753707"><ele>262.0</ele><time>2026-04-11T08:59:59Z</time></trkpt><trkpt lat="43.31514123354655" lon="11.349370603037304"><ele>262.5</ele><time>2026-04-11T09:00:02Z</time></trkpt><trkpt lat="43.31512244300116" lon="11.349269129176124"><ele>263.0</ele><time>2026-04-11T09:00:05Z</time></trkpt><trkpt lat="43.31509321817835" lon="11.349176315837196"><ele>263.5</ele><time>2026-04-11T09:00:08Z</time></trkpt><trkpt lat="43.315046987378686" lon="11.349098442437311"><ele>264.0</ele><time>2026-04-11T09:00:11Z</time></trkpt><trkpt lat="43.314985840805136" lon="11.349030235378411"><ele>264.0</ele><time>2026-04-11T09:00:14Z</time></trkpt><trkpt lat="43.31492851712921" lon="11.348973686557498"><ele>264.0</ele><time>2026-04-11T09:00:17Z</time></trkpt><trkpt lat="43.31486159864218" lon="11.348927494431743"><ele>264.0</ele><time>2026-04-11T09:00:20Z</time></trkpt><trkpt lat="43.31478201991264" lon="11.348893513337126"><ele>264.0</ele><time>2026-04-11T09:00:23Z</time></trkpt><trkpt lat="43.31470846148285" lon="11.348833108673803"><ele>264.0</ele><time>2026-04-11T09:00:26Z</time></trkpt><trkpt lat="43.31464775412459" lon="11.34875563023867"><ele>264.0</ele><time>2026-04-11T09:00:29Z</time></trkpt><trkpt lat="43.31461113674378" lon="11.348649639631226"><ele>262.5</ele><time>2026-04-11T09:00:32Z</time></trkpt><trkpt lat="43.314592426233304" lon="11.348543089972676"><ele>261.0</ele><time>2026-04-11T09:00:34.999Z</time></trkpt><trkpt lat="43.3145901355027" lon="11.34843534160077"><ele>259.5</ele><time>2026-04-11T09:00:37.999Z</time></trkpt><trkpt lat="43.31460103037882" lon="11.348331918204348"><ele>258.0</ele><time>2026-04-11T09:00:40.999Z</time></trkpt><trkpt lat="43.314621260166945" lon="11.34823113185882"><ele>256.5</ele><time>2026-04-11T09:00:43.999Z</time></trkpt><trkpt lat="43.314647893232994" lon="11.348127726206803"><ele>255.0</ele><time>2026-04-11T09:00:46.999Z</time></trkpt><trkpt lat="43.31468039179773" lon="11.348028157645961"><ele>254.66666666666666</ele><time>2026-04-11T09:00:49.999Z</time></trkpt><trkpt lat="43.314723248974516" lon="11.347938370953285"><ele>254.33333333333331</ele><time>2026-04-11T09:00:52.999Z</time></trkpt><trkpt lat="43.314775967916376" lon="11.347856686881526"><ele>254.0</ele><time>2026-04-11T09:00:55.999Z</time></trkpt><trkpt lat="43.314829842095236" lon="11.347775367883557"><ele>253.66666666666666</ele><time>2026-04-11T09:00:58.999Z</time></trkpt><trkpt lat="43.314880035635554" lon="11.347695108127963"><ele>253.33333333333331</ele><time>2026-04-11T09:01:01.999Z</time></trkpt><trkpt lat="43.31492424858091" lon="11.347603536144119"><ele>253.0</ele><time>2026-04-11T09:01:04.999Z</time></trkpt><trkpt lat="43.31497434780943" lon="11.347517015047694"><ele>255.49999999999997</ele><time>2026-04-11T09:01:07.999Z</time></trkpt><trkpt lat="43.31502430457571" lon="11.34743294692624"><ele>258.0</ele><time>2026-04-11T09:01:10.999Z</time></trkpt><trkpt lat="43.31507532748943" lon="11.347353372445982"><ele>260.5</ele><time>2026-04-11T09:01:13.999Z</time></trkpt><trkpt lat="43.31512807882823" lon="11.34727751992088"><ele>263.0</ele><time>2026-04-11T09:01:16.999Z</time></trkpt><trkpt lat="43.315175464516024" lon="11.34719894870399"><ele>265.5</ele><time>2026-04-11T09:01:20Z</time></trkpt><trkpt lat="43.31522194973907" lon="11.347123637827536"><ele>268.0</ele><time>2026-04-11T09:01:23Z</time></trkpt><trkpt lat="43.31527353555525" lon="11.347034658267747"><ele>268.0</ele><time>2026-04-11T09:01:27Z</time></trkpt><trkpt lat="43.31532302209869" lon="11.346953810825342"><ele>268.0</ele><time>2026-04-11T09:01:31Z</time></trkpt><trkpt lat="43.3153661328621" lon="11.346862196019195"><ele>268.0</ele><time>2026-04-11T09:01:35Z</time></trkpt><trkpt lat="43.31541692032466" lon="11.346771096068501"><ele>268.0</ele><time>2026-04-11T09:01:39Z</time></trkpt><trkpt lat="43.315458025518" lon="11.346704094807516"><ele>268.0</ele><time>2026-04-11T09:01:42Z</time></trkpt><trkpt lat="43.31551229736497" lon="11.346621653862139"><ele>268.0</ele><time>2026-04-11T09:01:46Z</time></trkpt><trkpt lat="43.31556127796996" lon="11.346537877386139"><ele>270.0</ele><time>2026-04-11T09:01:50Z</time></trkpt><trkpt lat="43.31561631984539" lon="11.346459114863702"><ele>272.0</ele><time>2026-04-11T09:01:54Z</time></trkpt><trkpt lat="43.315664198001656" lon="11.3463722563787"><ele>274.0</ele><time>2026-04-11T09:01:58Z</time></trkpt><trkpt lat="43.31571190902621" lon="11.346283833176894"><ele>276.0</ele><time>2026-04-11T09:02:02Z</time></trkpt><trkpt lat="43.31575776259275" lon="11.346195262466768"><ele>278.0</ele><time>2026-04-11T09:02:06Z</time></trkpt><trkpt lat="43.31580888962831" lon="11.346113560275388"><ele>280.0</ele><time>2026-04-11T09:02:10Z</time></trkpt><trkpt lat="43.31586085656223" lon="11.346031572011608"><ele>280.0</ele><time>2026-04-11T09:02:14Z</time></trkpt><trkpt lat="43.315912065126135" lon="11.345948278036888"><ele>280.0</ele><time>2026-04-11T09:02:18Z</time></trkpt><trkpt lat="43.3159554620979" lon="11.345863325271532"><ele>280.0</ele><time>2026-04-11T09:02:22Z</time></trkpt><trkpt lat="43.315997675500036" lon="11.345798545832267"><ele>280.0</ele><time>2026-04-11T09:02:25Z</time></trkpt><trkpt lat="43.31604303576519" lon="11.34571368482964"><ele>280.0</ele><time>2026-04-11T09:02:29Z</time></trkpt><trkpt lat="43.31609593759698" lon="11.345636644688524"><ele>280.0</ele><time>2026-04-11T09:02:32.999Z</time></trkpt><trkpt lat="43.316133679823764" lon="11.34556728412411"><ele>280.0</ele><time>2026-04-11T09:02:35.999Z</time></trkpt><trkpt lat="43.31618177908162" lon="11.345489874373815"><ele>281.0</ele><time>2026-04-11T09:02:39.999Z</time></trkpt><trkpt lat="43.31623158388574" lon="11.34540560116842"><ele>282.0</ele><time>2026-04-11T09:02:43.999Z</time></trkpt><trkpt lat="43.31628372799287" lon="11.345321638315266"><ele>283.0</ele><time>2026-04-11T09:02:47.999Z</time></trkpt><trkpt lat="43.316324510812386" lon="11.345254593259725"><ele>284.0</ele><time>2026-04-11T09:02:50.999Z</time></trkpt><trkpt lat="43.31637882624939" lon="11.345169424602187"><ele>285.0</ele><time>2026-04-11T09:02:54.999Z</time></trkpt><trkpt lat="43.31641781756037" lon="11.345098861146116"><ele>286.0</ele><time>2026-04-11T09:02:57.999Z</time></trkpt><trkpt lat="43.316467169343426" lon="11.345008149425041"><ele>285.99999999999994</ele><time>2026-04-11T09:03:01.999Z</time></trkpt><trkpt lat="43.31651962523616" lon="11.344921565402837"><ele>286.0</ele><time>2026-04-11T09:03:05.999Z</time></trkpt><trkpt lat="43.31656336401225" lon="11.3448584595592"><ele>286.0</ele><time>2026-04-11T09:03:08.999Z</time></trkpt><trkpt lat="43.31660406788006" lon="11.344790819030884"><ele>286.0</ele><time>2026-04-11T09:03:11.999Z</time></trkpt><trkpt lat="43.31664936979631" lon="11.344727856477316"><ele>286.0</ele><time>2026-04-11T09:03:14.999Z</time></trkpt><trkpt lat="43.31669021985409" lon="11.344659405045924"><ele>285.99999999999994</ele><time>2026-04-11T09:03:17.999Z</time></trkpt><trkpt lat="43.316738716961986" lon="11.344568682970833"><ele>286.0</ele><time>2026-04-11T09:03:21.999Z</time></trkpt><trkpt lat="43.316795032070765" lon="11.344499867625453"><ele>285.66666666666663</ele><time>2026-04-11T09:03:26Z</time></trkpt><trkpt lat="43.316835403498715" lon="11.34441178276093"><ele>285.3333333333333</ele><time>2026-04-11T09:03:30Z</time></trkpt><trkpt lat="43.316874415043394" lon="11.34433260965211"><ele>285.0</ele><time>2026-04-11T09:03:34Z</time></trkpt><trkpt lat="43.31685317002641" lon="11.344245568348477"><ele>284.6666666666667</ele><time>2026-04-11T09:04:58.999Z</time></trkpt><trkpt lat="43.316782046110504" lon="11.344152203796874"><ele>284.33333333333337</ele><time>2026-04-11T09:05:01.999Z</time></trkpt><trkpt lat="43.31671679990485" lon="11.34410079780249"><ele>284.0</ele><time>2026-04-11T09:05:03.999Z</time></trkpt><trkpt lat="43.31664423475479" lon="11.344011889385051"><ele>283.6666666666667</ele><time>2026-04-11T09:05:05.999Z</time></trkpt><trkpt lat="43.31661309189215" lon="11.34385666042614"><ele>283.33333333333337</ele><time>2026-04-11T09:05:07.999Z</time></trkpt><trkpt lat="43.316633262198565" lon="11.34377076330214"><ele>283.0</ele><time>2026-04-11T09:05:08.999Z</time></trkpt><trkpt lat="43.316673421855306" lon="11.343693473495875"><ele>282.6666666666667</ele><time>2026-04-11T09:05:09.999Z</time></trkpt><trkpt lat="43.31672177237625" lon="11.343624602641144"><ele>282.3333333333333</ele><time>2026-04-11T09:05:10.999Z</time></trkpt><trkpt lat="43.31675825910554" lon="11.34354512030361"><ele>282.0</ele><time>2026-04-11T09:05:11.999Z</time></trkpt><trkpt lat="43.316783985098446" lon="11.34345151076228"><ele>282.0</ele><time>2026-04-11T09:05:12.999Z</time></trkpt><trkpt lat="43.31679597878679" lon="11.343346688527715"><ele>282.0</ele><time>2026-04-11T09:05:13.999Z</time></trkpt><trkpt lat="43.31680751001115" lon="11.343237211005984"><ele>282.0</ele><time>2026-04-11T09:05:14.999Z</time></trkpt><trkpt lat="43.31682201714459" lon="11.34312201104437"><ele>282.0</ele><time>2026-04-11T09:05:15.999Z</time></trkpt><trkpt lat="43.31684032781225" lon="11.343004084003871"><ele>282.0</ele><time>2026-04-11T09:05:16.999Z</time></trkpt><trkpt lat="43.31685970273804" lon="11.342882855713237"><ele>282.0</ele><time>2026-04-11T09:05:17.999Z</time></trkpt><trkpt lat="43.31688203671304" lon="11.342758462949346"><ele>281.2</ele><time>2026-04-11T09:05:18.999Z</time></trkpt><trkpt lat="43.316904581372164" lon="11.342630900268695"><ele>280.4</ele><time>2026-04-11T09:05:19.999Z</time></trkpt><trkpt lat="43.31690876828653" lon="11.34249869706432"><ele>279.6</ele><time>2026-04-11T09:05:20.999Z</time></trkpt><trkpt lat="43.31686836132364" lon="11.342385100706599"><ele>278.8</ele><time>2026-04-11T09:05:21.999Z</time></trkpt><trkpt lat="43.31677912682833" lon="11.342305790174132"><ele>278.0</ele><time>2026-04-11T09:05:22.999Z</time></trkpt><trkpt lat="43.31667652171953" lon="11.342274109115976"><ele>278.0</ele><time>2026-04-11T09:05:23.999Z</time></trkpt><trkpt lat="43.31657831502817" lon="11.342262872313311"><ele>278.0</ele><time>2026-04-11T09:05:24.999Z</time></trkpt><trkpt lat="43.316487220890544" lon="11.342242519380433"><ele>278.0</ele><time>2026-04-11T09:05:25.999Z</time></trkpt><trkpt lat="43.31639600221831" lon="11.342214066431726"><ele>278.0</ele><time>2026-04-11T09:05:26.999Z</time></trkpt><trkpt lat="43.31630765677307" lon="11.342186467697625"><ele>278.0</ele><time>2026-04-11T09:05:27.999Z</time></trkpt><trkpt lat="43.316218544421325" lon="11.342156443449117"><ele>278.5</ele><time>2026-04-11T09:05:28.999Z</time></trkpt><trkpt lat="43.31613387289124" lon="11.342124823821758"><ele>279.0</ele><time>2026-04-11T09:05:29.999Z</time></trkpt><trkpt lat="43.31604849022485" lon="11.342096292064431"><ele>279.5</ele><time>2026-04-11T09:05:31Z</time></trkpt><trkpt lat="43.31596354665511" lon="11.342071475156128"><ele>280.0</ele><time>2026-04-11T09:05:32Z</time></trkpt><trkpt lat="43.31588201953017" lon="11.342051773823743"><ele>280.5</ele><time>2026-04-11T09:05:33Z</time></trkpt><trkpt lat="43.315800870883066" lon="11.34203784778472"><ele>281.0</ele><time>2026-04-11T09:05:34Z</time></trkpt><trkpt lat="43.315718967766706" lon="11.342040668066591"><ele>281.0</ele><time>2026-04-11T09:05:35Z</time></trkpt><trkpt lat="43.31563967875847" lon="11.342063389259906"><ele>281.0</ele><time>2026-04-11T09:05:36Z</time></trkpt><trkpt lat="43.31556773588617" lon="11.342099881979784"><ele>281.0</ele><time>2026-04-11T09:05:37Z</time></trkpt><trkpt lat="43.31550050010756" lon="11.342149921039564"><ele>281.0</ele><time>2026-04-11T09:05:38Z</time></trkpt><trkpt lat="43.315440813068555" lon="11.342210182602223"><ele>281.0</ele><time>2026-04-11T09:05:39Z</time></trkpt><trkpt lat="43.315374750635684" lon="11.342266214989738"><ele>281.0</ele><time>2026-04-11T09:05:40Z</time></trkpt><trkpt lat="43.3153106595834" lon="11.342319552064346"><ele>280.6666666666667</ele><time>2026-04-11T09:05:41Z</time></trkpt><trkpt lat="43.31524386190847" lon="11.342371792341421"><ele>280.33333333333337</ele><time>2026-04-11T09:05:42Z</time></trkpt><trkpt lat="43.31517841003365" lon="11.342423673380761"><ele>280.0</ele><time>2026-04-11T09:05:43Z</time></trkpt><trkpt lat="43.315112844316246" lon="11.342478105654493"><ele>279.6666666666667</ele><time>2026-04-11T09:05:44Z</time></trkpt><trkpt lat="43.315048788375115" lon="11.34253545344096"><ele>279.3333333333333</ele><time>2026-04-11T09:05:45Z</time></trkpt><trkpt lat="43.31498426596822" lon="11.342585856346965"><ele>279.0</ele><time>2026-04-11T09:05:46Z</time></trkpt><trkpt lat="43.3149183187303" lon="11.342635047384128"><ele>278.99999999999994</ele><time>2026-04-11T09:05:47Z</time></trkpt><trkpt lat="43.31485545761946" lon="11.342684998775528"><ele>279.0</ele><time>2026-04-11T09:05:48Z</time></trkpt><trkpt lat="43.31479149240063" lon="11.342735759197874"><ele>279.0</ele><time>2026-04-11T09:05:49Z</time></trkpt><trkpt lat="43.31472793956549" lon="11.342782908697142"><ele>279.0</ele><time>2026-04-11T09:05:50Z</time></trkpt><trkpt lat="43.31465824636681" lon="11.342821571099229"><ele>279.0</ele><time>2026-04-11T09:05:51Z</time></trkpt><trkpt lat="43.31458442801874" lon="11.342834877567562"><ele>278.99999999999994</ele><time>2026-04-11T09:05:52Z</time></trkpt><trkpt lat="43.31450891137772" lon="11.342806436042764"><ele>279.0</ele><time>2026-04-11T09:05:53Z</time></trkpt><trkpt lat="43.31444462568359" lon="11.342746441080982"><ele>279.3333333333333</ele><time>2026-04-11T09:05:54Z</time></trkpt><trkpt lat="43.31438228198731" lon="11.342569734185634"><ele>279.6666666666667</ele><time>2026-04-11T09:05:56Z</time></trkpt><trkpt lat="43.31437277030439" lon="11.342473578236426"><ele>280.0</ele><time>2026-04-11T09:05:57Z</time></trkpt><trkpt lat="43.31436651559123" lon="11.342369312131337"><ele>280.33333333333337</ele><time>2026-04-11T09:05:58Z</time></trkpt><trkpt lat="43.3143518194816" lon="11.342275011789415"><ele>280.6666666666667</ele><time>2026-04-11T09:05:59Z</time></trkpt><trkpt lat="43.31432994769954" lon="11.342184695625413"><ele>281.0</ele><time>2026-04-11T09:06:00Z</time></trkpt><trkpt lat="43.31430637468606" lon="11.342079733173653"><ele>281.0</ele><time>2026-04-11T09:06:01Z</time></trkpt><trkpt lat="43.3142391699856" lon="11.341929082964722"><ele>281.0</ele><time>2026-04-11T09:06:03Z</time></trkpt><trkpt lat="43.314188340895" lon="11.341863804166467"><ele>281.0</ele><time>2026-04-11T09:06:04Z</time></trkpt><trkpt lat="43.31412830588723" lon="11.341815871659938"><ele>281.0</ele><time>2026-04-11T09:06:05Z</time></trkpt><trkpt lat="43.31406592143384" lon="11.341776706298743"><ele>281.0</ele><time>2026-04-11T09:06:06Z</time></trkpt><trkpt lat="43.31400238227506" lon="11.341742532092141"><ele>281.0</ele><time>2026-04-11T09:06:07Z</time></trkpt><trkpt lat="43.313935794359644" lon="11.341728460576693"><ele>280.42857142857144</ele><time>2026-04-11T09:06:08Z</time></trkpt><trkpt lat="43.313868093574726" lon="11.341718932095528"><ele>279.8571428571429</ele><time>2026-04-11T09:06:09Z</time></trkpt><trkpt lat="43.31380113056921" lon="11.341702742195396"><ele>279.2857142857143</ele><time>2026-04-11T09:06:10Z</time></trkpt><trkpt lat="43.31373488195237" lon="11.341681616355856"><ele>278.7142857142857</ele><time>2026-04-11T09:06:11Z</time></trkpt><trkpt lat="43.313667703311665" lon="11.341658855480667"><ele>278.1428571428571</ele><time>2026-04-11T09:06:12Z</time></trkpt><trkpt lat="43.31360353024052" lon="11.34163415515561"><ele>277.57142857142856</ele><time>2026-04-11T09:06:13Z</time></trkpt><trkpt lat="43.31353743881573" lon="11.341614787566886"><ele>277.0</ele><time>2026-04-11T09:06:14Z</time></trkpt><trkpt lat="43.31347161477739" lon="11.341593223311605"><ele>277.0</ele><time>2026-04-11T09:06:15Z</time></trkpt><trkpt lat="43.31340593140781" lon="11.341572578071908"><ele>277.0</ele><time>2026-04-11T09:06:16Z</time></trkpt><trkpt lat="43.3133403527588" lon="11.341555042162934"><ele>277.0</ele><time>2026-04-11T09:06:17Z</time></trkpt><trkpt lat="43.31327439263983" lon="11.341531468545085"><ele>277.0</ele><time>2026-04-11T09:06:18Z</time></trkpt><trkpt lat="43.31320730300248" lon="11.341508652252347"><ele>277.0</ele><time>2026-04-11T09:06:19Z</time></trkpt><trkpt lat="43.31314121190381" lon="11.341486679795139"><ele>277.0</ele><time>2026-04-11T09:06:20Z</time></trkpt><trkpt lat="43.313075643020035" lon="11.341463839006646"><ele>277.0</ele><time>2026-04-11T09:06:21Z</time></trkpt><trkpt lat="43.31301140860794" lon="11.341444399243116"><ele>276.7142857142857</ele><time>2026-04-11T09:06:22Z</time></trkpt><trkpt lat="43.31294777412141" lon="11.341424185143874"><ele>276.4285714285714</ele><time>2026-04-11T09:06:23Z</time></trkpt><trkpt lat="43.31288326416603" lon="11.34140562314806"><ele>276.1428571428571</ele><time>2026-04-11T09:06:24Z</time></trkpt><trkpt lat="43.31282603784105" lon="11.341363143880853"><ele>275.85714285714283</ele><time>2026-04-11T09:06:25Z</time></trkpt><trkpt lat="43.31276092964267" lon="11.341363907648278"><ele>275.57142857142856</ele><time>2026-04-11T09:06:26Z</time></trkpt><trkpt lat="43.31270068189801" lon="11.341337474361001"><ele>275.2857142857143</ele><time>2026-04-11T09:06:27Z</time></trkpt><trkpt lat="43.31264195529114" lon="11.341301703350954"><ele>275.0</ele><time>2026-04-11T09:06:28Z</time></trkpt><trkpt lat="43.31258668232814" lon="11.341251824939791"><ele>276.5</ele><time>2026-04-11T09:06:29Z</time></trkpt><trkpt lat="43.31253556655935" lon="11.341101075957157"><ele>278.0</ele><time>2026-04-11T09:06:31Z</time></trkpt><trkpt lat="43.31252858856223" lon="11.341013360446318"><ele>279.5</ele><time>2026-04-11T09:06:32Z</time></trkpt><trkpt lat="43.312496220602" lon="11.340878260007319"><ele>281.0</ele><time>2026-04-11T09:06:34Z</time></trkpt><trkpt lat="43.31245651474295" lon="11.340777096007741"><ele>282.5</ele><time>2026-04-11T09:06:36Z</time></trkpt><trkpt lat="43.31240511375338" lon="11.340700514042693"><ele>284.0</ele><time>2026-04-11T09:06:38Z</time></trkpt><trkpt lat="43.312347473433384" lon="11.340650967761281"><ele>284.0</ele><time>2026-04-11T09:06:40.999Z</time></trkpt><trkpt lat="43.31227276815347" lon="11.340587088761668"><ele>284.0</ele><time>2026-04-11T09:06:43.999Z</time></trkpt><trkpt lat="43.31220629760756" lon="11.340515115202185"><ele>284.0</ele><time>2026-04-11T09:06:46.999Z</time></trkpt><trkpt lat="43.31212954504482" lon="11.340473767863672"><ele>284.0</ele><time>2026-04-11T09:06:49.999Z</time></trkpt><trkpt lat="43.31206301857206" lon="11.340406662286291"><ele>284.0</ele><time>2026-04-11T09:06:52.999Z</time></trkpt><trkpt lat="43.31199344313632" lon="11.340340372275646"><ele>284.0</ele><time>2026-04-11T09:06:55.999Z</time></trkpt><trkpt lat="43.3119391695358" lon="11.340255800656369"><ele>284.42857142857144</ele><time>2026-04-11T09:06:57.999Z</time></trkpt><trkpt lat="43.31189180588251" lon="11.340166505899557"><ele>284.85714285714283</ele><time>2026-04-11T09:07:00.999Z</time></trkpt><trkpt lat="43.31185121895892" lon="11.340073483543218"><ele>285.2857142857143</ele><time>2026-04-11T09:07:03.999Z</time></trkpt><trkpt lat="43.3118185902043" lon="11.339979732568326"><ele>285.7142857142857</ele><time>2026-04-11T09:07:06.999Z</time></trkpt><trkpt lat="43.311799767727095" lon="11.339884907392978"><ele>286.1428571428571</ele><time>2026-04-11T09:07:09.999Z</time></trkpt><trkpt lat="43.31179112826222" lon="11.339796819240624"><ele>286.57142857142856</ele><time>2026-04-11T09:07:12.999Z</time></trkpt><trkpt lat="43.31176944064756" lon="11.339695765881414"><ele>287.0</ele><time>2026-04-11T09:07:16.999Z</time></trkpt><trkpt lat="43.311761197227" lon="11.339600107406914"><ele>287.0</ele><time>2026-04-11T09:07:20.999Z</time></trkpt><trkpt lat="43.31176410543409" lon="11.339508497587103"><ele>287.0</ele><time>2026-04-11T09:07:24.999Z</time></trkpt><trkpt lat="43.31176701850097" lon="11.339407914301438"><ele>287.0</ele><time>2026-04-11T09:07:28.999Z</time></trkpt><trkpt lat="43.311709335007755" lon="11.339355823477538"><ele>287.0</ele><time>2026-04-11T09:07:30.999Z</time></trkpt><trkpt lat="43.3116107122784" lon="11.339359202176484"><ele>287.0</ele><time>2026-04-11T09:07:32.999Z</time></trkpt><trkpt lat="43.31149928227934" lon="11.339367559281017"><ele>287.0</ele><time>2026-04-11T09:07:34.999Z</time></trkpt><trkpt lat="43.31137609913585" lon="11.339325140377314"><ele>287.0</ele><time>2026-04-11T09:07:37Z</time></trkpt><trkpt lat="43.311311259874174" lon="11.339323035391208"><ele>287.0</ele><time>2026-04-11T09:07:38Z</time></trkpt><trkpt lat="43.31124531810691" lon="11.339321395874288"><ele>287.0</ele><time>2026-04-11T09:07:39Z</time></trkpt><trkpt lat="43.3111774357699" lon="11.339320413125574"><ele>287.0</ele><time>2026-04-11T09:07:40Z</time></trkpt><trkpt lat="43.31110712451111" lon="11.339319395214467"><ele>287.0</ele><time>2026-04-11T09:07:41Z</time></trkpt><trkpt lat="43.311035829455086" lon="11.33931807958708"><ele>287.0</ele><time>2026-04-11T09:07:42Z</time></trkpt><trkpt lat="43.31096034837349" lon="11.339316565482012"><ele>287.0</ele><time>2026-04-11T09:07:43Z</time></trkpt><trkpt lat="43.310885922809355" lon="11.339313091547556"><ele>287.0</ele><time>2026-04-11T09:07:44Z</time></trkpt><trkpt lat="43.31080846422192" lon="11.339307878694278"><ele>287.0</ele><time>2026-04-11T09:07:45Z</time></trkpt><trkpt lat="43.310731205995275" lon="11.339300165855516"><ele>287.0</ele><time>2026-04-11T09:07:46Z</time></trkpt><trkpt lat="43.310654312850225" lon="11.339290998830014"><ele>287.0</ele><time>2026-04-11T09:07:47Z</time></trkpt><trkpt lat="43.3105758436768" lon="11.339279415729358"><ele>287.0</ele><time>2026-04-11T09:07:48Z</time></trkpt><trkpt lat="43.31049574407526" lon="11.339266373956205"><ele>287.0</ele><time>2026-04-11T09:07:49Z</time></trkpt><trkpt lat="43.31041635176138" lon="11.339252076616468"><ele>286.5</ele><time>2026-04-11T09:07:50Z</time></trkpt><trkpt lat="43.310335540249454" lon="11.339237523473406"><ele>286.0</ele><time>2026-04-11T09:07:51Z</time></trkpt><trkpt lat="43.31025582456977" lon="11.339220589232868"><ele>285.5</ele><time>2026-04-11T09:07:52Z</time></trkpt><trkpt lat="43.31017635471531" lon="11.339204266640255"><ele>285.0</ele><time>2026-04-11T09:07:53Z</time></trkpt><trkpt lat="43.310096229290465" lon="11.339187809367973"><ele>284.5</ele><time>2026-04-11T09:07:54Z</time></trkpt><trkpt lat="43.31001937377223" lon="11.339172023725375"><ele>284.0</ele><time>2026-04-11T09:07:55Z</time></trkpt><trkpt lat="43.3099424515996" lon="11.339156224394888"><ele>284.0</ele><time>2026-04-11T09:07:56Z</time></trkpt><trkpt lat="43.309865400420136" lon="11.339140398220792"><ele>284.0</ele><time>2026-04-11T09:07:57Z</time></trkpt><trkpt lat="43.309790494926666" lon="11.3391271418545"><ele>284.0</ele><time>2026-04-11T09:07:58Z</time></trkpt><trkpt lat="43.30971158330123" lon="11.339132980183216"><ele>284.0</ele><time>2026-04-11T09:07:59Z</time></trkpt><trkpt lat="43.3096305298177" lon="11.33912207793981"><ele>284.0</ele><time>2026-04-11T09:08:00Z</time></trkpt><trkpt lat="43.309552840425205" lon="11.339089682848277"><ele>284.0</ele><time>2026-04-11T09:08:01Z</time></trkpt><trkpt lat="43.309470206406175" lon="11.339078107384363"><ele>283.5</ele><time>2026-04-11T09:08:02Z</time></trkpt><trkpt lat="43.309387326568014" lon="11.339087515896972"><ele>283.0</ele><time>2026-04-11T09:08:03Z</time></trkpt><trkpt lat="43.309306580185186" lon="11.339076964958862"><ele>282.5</ele><time>2026-04-11T09:08:04Z</time></trkpt><trkpt lat="43.30922444790491" lon="11.339062179818361"><ele>282.0</ele><time>2026-04-11T09:08:05Z</time></trkpt><trkpt lat="43.309145011358964" lon="11.339051873338809"><ele>281.5</ele><time>2026-04-11T09:08:06Z</time></trkpt><trkpt lat="43.30906402255744" lon="11.339038558720539"><ele>281.0</ele><time>2026-04-11T09:08:07Z</time></trkpt><trkpt lat="43.308982433197066" lon="11.339026816816352"><ele>280.0</ele><time>2026-04-11T09:08:08Z</time></trkpt><trkpt lat="43.30890323431216" lon="11.339022897795322"><ele>279.0</ele><time>2026-04-11T09:08:09Z</time></trkpt><trkpt lat="43.30882561579646" lon="11.338992533761528"><ele>278.0</ele><time>2026-04-11T09:08:10Z</time></trkpt><trkpt lat="43.308749557511376" lon="11.338982133954513"><ele>277.0</ele><time>2026-04-11T09:08:11Z</time></trkpt><trkpt lat="43.308670930546434" lon="11.338973439698616"><ele>276.0</ele><time>2026-04-11T09:08:12Z</time></trkpt><trkpt lat="43.308598062399504" lon="11.338967016539444"><ele>275.0</ele><time>2026-04-11T09:08:13Z</time></trkpt><trkpt lat="43.30852351103215" lon="11.33898239654668"><ele>275.0</ele><time>2026-04-11T09:08:14Z</time></trkpt><trkpt lat="43.308454069804974" lon="11.338953588669884"><ele>275.0</ele><time>2026-04-11T09:08:15Z</time></trkpt><trkpt lat="43.30838643191332" lon="11.338947080471439"><ele>275.0</ele><time>2026-04-11T09:08:16Z</time></trkpt><trkpt lat="43.30831873285982" lon="11.33894056643723"><ele>275.0</ele><time>2026-04-11T09:08:17Z</time></trkpt><trkpt lat="43.308250888731564" lon="11.338944368322933"><ele>275.0</ele><time>2026-04-11T09:08:18Z</time></trkpt><trkpt lat="43.308185165321866" lon="11.338946082848981"><ele>275.0</ele><time>2026-04-11T09:08:19Z</time></trkpt><trkpt lat="43.30811792669599" lon="11.338950810766196"><ele>275.0</ele><time>2026-04-11T09:08:20Z</time></trkpt><trkpt lat="43.30805420160261" lon="11.338978110077"><ele>276.4</ele><time>2026-04-11T09:08:21Z</time></trkpt><trkpt lat="43.307933796258084" lon="11.338993580310202"><ele>277.8</ele><time>2026-04-11T09:08:23Z</time></trkpt><trkpt lat="43.307871002059244" lon="11.339000711544617"><ele>279.2</ele><time>2026-04-11T09:08:24Z</time></trkpt><trkpt lat="43.30775203676939" lon="11.33901302764959"><ele>280.6</ele><time>2026-04-11T09:08:26Z</time></trkpt><trkpt lat="43.30763341146114" lon="11.339029850063254"><ele>282.0</ele><time>2026-04-11T09:08:28Z</time></trkpt><trkpt lat="43.30752484708768" lon="11.339054775185925"><ele>282.0</ele><time>2026-04-11T09:08:30Z</time></trkpt><trkpt lat="43.30741661478683" lon="11.339085851983773"><ele>282.0</ele><time>2026-04-11T09:08:32Z</time></trkpt><trkpt lat="43.30730498182504" lon="11.339122283747507"><ele>282.0</ele><time>2026-04-11T09:08:34Z</time></trkpt><trkpt lat="43.30719894036804" lon="11.339161325615196"><ele>282.0</ele><time>2026-04-11T09:08:36Z</time></trkpt><trkpt lat="43.307127982073915" lon="11.339181005122581"><ele>282.0</ele><time>2026-04-11T09:08:37Z</time></trkpt><trkpt lat="43.307063592250415" lon="11.339195126400108"><ele>281.8571428571429</ele><time>2026-04-11T09:08:38Z</time></trkpt><trkpt lat="43.30699867293316" lon="11.33918143820575"><ele>281.7142857142857</ele><time>2026-04-11T09:08:39Z</time></trkpt><trkpt lat="43.30693335085898" lon="11.339183593007915"><ele>281.57142857142856</ele><time>2026-04-11T09:08:40Z</time></trkpt><trkpt lat="43.30686749251272" lon="11.339193555656795"><ele>281.42857142857144</ele><time>2026-04-11T09:08:41Z</time></trkpt><trkpt lat="43.30680286583619" lon="11.339180415271244"><ele>281.2857142857143</ele><time>2026-04-11T09:08:42Z</time></trkpt><trkpt lat="43.306737288187314" lon="11.339160775641687"><ele>281.14285714285717</ele><time>2026-04-11T09:08:43Z</time></trkpt><trkpt lat="43.30667144408603" lon="11.339145425360703"><ele>281.0</ele><time>2026-04-11T09:08:44Z</time></trkpt><trkpt lat="43.30660655717187" lon="11.33912458889127"><ele>281.00000000000006</ele><time>2026-04-11T09:08:45Z</time></trkpt><trkpt lat="43.30654271333081" lon="11.339100328160246"><ele>281.0</ele><time>2026-04-11T09:08:46Z</time></trkpt><trkpt lat="43.30647608954491" lon="11.339073898029309"><ele>281.0</ele><time>2026-04-11T09:08:47Z</time></trkpt><trkpt lat="43.30640754902466" lon="11.339046061031164"><ele>281.0</ele><time>2026-04-11T09:08:47.999Z</time></trkpt><trkpt lat="43.30634458338655" lon="11.33901098104519"><ele>281.0</ele><time>2026-04-11T09:08:48.999Z</time></trkpt><trkpt lat="43.306281863200084" lon="11.338969784229668"><ele>281.00000000000006</ele><time>2026-04-11T09:08:49.999Z</time></trkpt><trkpt lat="43.306223654682185" lon="11.338933347186607"><ele>281.0</ele><time>2026-04-11T09:08:50.999Z</time></trkpt><trkpt lat="43.306171072169676" lon="11.338883562263257"><ele>280.75</ele><time>2026-04-11T09:08:51.999Z</time></trkpt><trkpt lat="43.30608036425632" lon="11.338775345702386"><ele>280.5</ele><time>2026-04-11T09:08:53.999Z</time></trkpt><trkpt lat="43.30599625880969" lon="11.338660557635158"><ele>280.25</ele><time>2026-04-11T09:08:55.999Z</time></trkpt><trkpt lat="43.30591327921874" lon="11.338538151286727"><ele>280.0</ele><time>2026-04-11T09:08:57.999Z</time></trkpt><trkpt lat="43.305822419140945" lon="11.338416072714889"><ele>280.0</ele><time>2026-04-11T09:08:59.999Z</time></trkpt><trkpt lat="43.30577384896639" lon="11.338354192116917"><ele>280.0</ele><time>2026-04-11T09:09:00.999Z</time></trkpt><trkpt lat="43.305726143588515" lon="11.338290055488907"><ele>280.0</ele><time>2026-04-11T09:09:01.999Z</time></trkpt><trkpt lat="43.30567537026623" lon="11.33822635582518"><ele>280.0</ele><time>2026-04-11T09:09:02.999Z</time></trkpt><trkpt lat="43.30562515052067" lon="11.338160120573416"><ele>280.0</ele><time>2026-04-11T09:09:03.999Z</time></trkpt><trkpt lat="43.305573836024124" lon="11.338099037012634"><ele>280.0</ele><time>2026-04-11T09:09:04.999Z</time></trkpt><trkpt lat="43.30552239215823" lon="11.338033170276987"><ele>280.0</ele><time>2026-04-11T09:09:05.999Z</time></trkpt><trkpt lat="43.30547353271705" lon="11.337968749690829"><ele>279.85714285714283</ele><time>2026-04-11T09:09:06.999Z</time></trkpt><trkpt lat="43.3054243976989" lon="11.337897429785292"><ele>279.7142857142857</ele><time>2026-04-11T09:09:07.999Z</time></trkpt><trkpt lat="43.30537079411932" lon="11.337825835540652"><ele>279.57142857142856</ele><time>2026-04-11T09:09:08.999Z</time></trkpt><trkpt lat="43.30531924380215" lon="11.33775833114776"><ele>279.42857142857144</ele><time>2026-04-11T09:09:09.999Z</time></trkpt><trkpt lat="43.305266933378476" lon="11.337688449035898"><ele>279.2857142857143</ele><time>2026-04-11T09:09:10.999Z</time></trkpt><trkpt lat="43.30521076052711" lon="11.337622880788828"><ele>279.1428571428571</ele><time>2026-04-11T09:09:11.999Z</time></trkpt><trkpt lat="43.30514939298735" lon="11.337560494333355"><ele>279.0</ele><time>2026-04-11T09:09:12.999Z</time></trkpt><trkpt lat="43.305081830309476" lon="11.337505338164464"><ele>279.0</ele><time>2026-04-11T09:09:13.999Z</time></trkpt><trkpt lat="43.305005380602935" lon="11.337463367421336"><ele>279.0</ele><time>2026-04-11T09:09:14.999Z</time></trkpt><trkpt lat="43.30492367658365" lon="11.33742289170921"><ele>279.0</ele><time>2026-04-11T09:09:15.999Z</time></trkpt><trkpt lat="43.304843561149696" lon="11.33738086491843"><ele>279.0</ele><time>2026-04-11T09:09:16.999Z</time></trkpt><trkpt lat="43.30476335037113" lon="11.33732534507883"><ele>279.0</ele><time>2026-04-11T09:09:17.999Z</time></trkpt><trkpt lat="43.304686103652806" lon="11.33726537389678"><ele>279.0</ele><time>2026-04-11T09:09:18.999Z</time></trkpt><trkpt lat="43.304613415510026" lon="11.33720431017583"><ele>277.6666666666667</ele><time>2026-04-11T09:09:19.999Z</time></trkpt><trkpt lat="43.30453565502666" lon="11.33714765337637"><ele>276.3333333333333</ele><time>2026-04-11T09:09:20.999Z</time></trkpt><trkpt lat="43.30446108749348" lon="11.337084561379728"><ele>275.0</ele><time>2026-04-11T09:09:21.999Z</time></trkpt><trkpt lat="43.30438108126454" lon="11.337031665481483"><ele>273.66666666666663</ele><time>2026-04-11T09:09:22.999Z</time></trkpt><trkpt lat="43.30430138782482" lon="11.336983400796752"><ele>272.3333333333333</ele><time>2026-04-11T09:09:23.999Z</time></trkpt><trkpt lat="43.30421370387031" lon="11.336952097544442"><ele>271.0</ele><time>2026-04-11T09:09:24.999Z</time></trkpt><trkpt lat="43.304121155026664" lon="11.336949044226738"><ele>271.0</ele><time>2026-04-11T09:09:25.999Z</time></trkpt><trkpt lat="43.30402644759848" lon="11.336969818837964"><ele>271.0</ele><time>2026-04-11T09:09:26.999Z</time></trkpt><trkpt lat="43.30393440316019" lon="11.337004054693134"><ele>271.0</ele><time>2026-04-11T09:09:27.999Z</time></trkpt><trkpt lat="43.30384455936364" lon="11.337044006791205"><ele>271.0</ele><time>2026-04-11T09:09:28.999Z</time></trkpt><trkpt lat="43.30375746380303" lon="11.337080680104611"><ele>271.0</ele><time>2026-04-11T09:09:29.999Z</time></trkpt><trkpt lat="43.3036728125747" lon="11.337120045409478"><ele>270.8333333333333</ele><time>2026-04-11T09:09:30.999Z</time></trkpt><trkpt lat="43.303585058751885" lon="11.337155197963675"><ele>270.66666666666663</ele><time>2026-04-11T09:09:31.999Z</time></trkpt><trkpt lat="43.30349691949942" lon="11.33719357645874"><ele>270.5</ele><time>2026-04-11T09:09:32.999Z</time></trkpt><trkpt lat="43.303413441590614" lon="11.33723310351262"><ele>270.3333333333333</ele><time>2026-04-11T09:09:33.999Z</time></trkpt><trkpt lat="43.3033287343951" lon="11.33726716236872"><ele>270.1666666666667</ele><time>2026-04-11T09:09:34.999Z</time></trkpt><trkpt lat="43.303248005045944" lon="11.337299035276887"><ele>270.0</ele><time>2026-04-11T09:09:35.999Z</time></trkpt><trkpt lat="43.30316546518965" lon="11.337338540253473"><ele>270.0</ele><time>2026-04-11T09:09:36.999Z</time></trkpt><trkpt lat="43.30308834502939" lon="11.337384268400626"><ele>270.0</ele><time>2026-04-11T09:09:37.999Z</time></trkpt><trkpt lat="43.303010576235636" lon="11.337431782149803"><ele>270.0</ele><time>2026-04-11T09:09:38.999Z</time></trkpt><trkpt lat="43.302933374054774" lon="11.337478951188514"><ele>270.0</ele><time>2026-04-11T09:09:39.999Z</time></trkpt><trkpt lat="43.30285923110489" lon="11.337531898695794"><ele>270.0</ele><time>2026-04-11T09:09:40.999Z</time></trkpt><trkpt lat="43.30278351390124" lon="11.337588234746613"><ele>270.0</ele><time>2026-04-11T09:09:41.999Z</time></trkpt><trkpt lat="43.30270306929869" lon="11.337647019444688"><ele>269.6</ele><time>2026-04-11T09:09:43Z</time></trkpt><trkpt lat="43.302626659864075" lon="11.337708714636184"><ele>269.2</ele><time>2026-04-11T09:09:44Z</time></trkpt><trkpt lat="43.302544944641205" lon="11.337771677163612"><ele>268.8</ele><time>2026-04-11T09:09:45Z</time></trkpt><trkpt lat="43.30245862817161" lon="11.337834113616141"><ele>268.4</ele><time>2026-04-11T09:09:46Z</time></trkpt><trkpt lat="43.30236240858283" lon="11.337882062058096"><ele>268.0</ele><time>2026-04-11T09:09:47Z</time></trkpt><trkpt lat="43.3022559303281" lon="11.337909896401863"><ele>265.6</ele><time>2026-04-11T09:09:48Z</time></trkpt><trkpt lat="43.30214557052681" lon="11.33793182988197"><ele>263.20000000000005</ele><time>2026-04-11T09:09:49Z</time></trkpt><trkpt lat="43.30203559769654" lon="11.337959354821603"><ele>260.8</ele><time>2026-04-11T09:09:50Z</time></trkpt><trkpt lat="43.30193078340289" lon="11.337989632256033"><ele>258.40000000000003</ele><time>2026-04-11T09:09:51Z</time></trkpt><trkpt lat="43.30182532299798" lon="11.338017563996583"><ele>256.0</ele><time>2026-04-11T09:09:52Z</time></trkpt><trkpt lat="43.301717537020586" lon="11.338034964024866"><ele>256.0</ele><time>2026-04-11T09:09:53Z</time></trkpt><trkpt lat="43.30160822295073" lon="11.338006627508033"><ele>256.0</ele><time>2026-04-11T09:09:54Z</time></trkpt><trkpt lat="43.30149736329248" lon="11.338006684749779"><ele>256.0</ele><time>2026-04-11T09:09:55Z</time></trkpt><trkpt lat="43.30139349908793" lon="11.337966172906688"><ele>256.0</ele><time>2026-04-11T09:09:56Z</time></trkpt><trkpt lat="43.301291668337846" lon="11.337918254036628"><ele>256.0</ele><time>2026-04-11T09:09:57Z</time></trkpt><trkpt lat="43.301201823272486" lon="11.337862410702924"><ele>255.4</ele><time>2026-04-11T09:09:58Z</time></trkpt><trkpt lat="43.30110306667025" lon="11.337800948274833"><ele>254.8</ele><time>2026-04-11T09:09:59Z</time></trkpt><trkpt lat="43.30101429134021" lon="11.337732841712983"><ele>254.20000000000002</ele><time>2026-04-11T09:10:00Z</time></trkpt><trkpt lat="43.300930658125544" lon="11.337658507551314"><ele>253.60000000000002</ele><time>2026-04-11T09:10:01Z</time></trkpt><trkpt lat="43.30084760811479" lon="11.337589789216835"><ele>253.0</ele><time>2026-04-11T09:10:02Z</time></trkpt><trkpt lat="43.30076762154706" lon="11.337519470405846"><ele>252.99999999999997</ele><time>2026-04-11T09:10:03Z</time></trkpt><trkpt lat="43.30069024520168" lon="11.337452309098348"><ele>253.0</ele><time>2026-04-11T09:10:04Z</time></trkpt><trkpt lat="43.300610490540414" lon="11.337390893070813"><ele>253.0</ele><time>2026-04-11T09:10:05Z</time></trkpt><trkpt lat="43.30053140263817" lon="11.337335630185164"><ele>253.0</ele><time>2026-04-11T09:10:06Z</time></trkpt><trkpt lat="43.300451286370254" lon="11.337302204555122"><ele>252.99999999999997</ele><time>2026-04-11T09:10:07Z</time></trkpt><trkpt lat="43.30036821034162" lon="11.337285844126678"><ele>253.0</ele><time>2026-04-11T09:10:08Z</time></trkpt><trkpt lat="43.30028738119517" lon="11.337256514608612"><ele>253.16666666666666</ele><time>2026-04-11T09:10:09Z</time></trkpt><trkpt lat="43.30020576311624" lon="11.337238109714567"><ele>253.33333333333331</ele><time>2026-04-11T09:10:10Z</time></trkpt><trkpt lat="43.3001224733809" lon="11.3372160800813"><ele>253.5</ele><time>2026-04-11T09:10:11Z</time></trkpt><trkpt lat="43.30004055033203" lon="11.337197819954707"><ele>253.66666666666669</ele><time>2026-04-11T09:10:12Z</time></trkpt><trkpt lat="43.299957347541365" lon="11.337178036682637"><ele>253.83333333333334</ele><time>2026-04-11T09:10:13Z</time></trkpt><trkpt lat="43.29987986218733" lon="11.33716315087897"><ele>254.0</ele><time>2026-04-11T09:10:14Z</time></trkpt><trkpt lat="43.29980216480972" lon="11.337150310130063"><ele>252.33333333333334</ele><time>2026-04-11T09:10:15Z</time></trkpt><trkpt lat="43.29972482854319" lon="11.33713793368372"><ele>250.66666666666669</ele><time>2026-04-11T09:10:16Z</time></trkpt><trkpt lat="43.299645526463" lon="11.33713335009802"><ele>249.0</ele><time>2026-04-11T09:10:17Z</time></trkpt><trkpt lat="43.299567286972156" lon="11.337134488275433"><ele>247.33333333333331</ele><time>2026-04-11T09:10:18Z</time></trkpt><trkpt lat="43.29949077148256" lon="11.337143024585165"><ele>245.66666666666666</ele><time>2026-04-11T09:10:19Z</time></trkpt><trkpt lat="43.29941230552482" lon="11.337158276372984"><ele>244.0</ele><time>2026-04-11T09:10:20Z</time></trkpt><trkpt lat="43.29933884333211" lon="11.33717605263725"><ele>243.99999999999997</ele><time>2026-04-11T09:10:21Z</time></trkpt><trkpt lat="43.29926549178705" lon="11.337195015485786"><ele>244.0</ele><time>2026-04-11T09:10:22Z</time></trkpt><trkpt lat="43.299188775908576" lon="11.337212968132144"><ele>243.99999999999997</ele><time>2026-04-11T09:10:23Z</time></trkpt><trkpt lat="43.29911619602197" lon="11.337235492430754"><ele>243.99999999999997</ele><time>2026-04-11T09:10:24Z</time></trkpt><trkpt lat="43.299045634169126" lon="11.337255297502224"><ele>244.0</ele><time>2026-04-11T09:10:25Z</time></trkpt><trkpt lat="43.29897298022499" lon="11.337275811163616"><ele>243.99999999999997</ele><time>2026-04-11T09:10:26Z</time></trkpt><trkpt lat="43.298905174341314" lon="11.33729494767153"><ele>243.99999999999997</ele><time>2026-04-11T09:10:27Z</time></trkpt><trkpt lat="43.29883427269124" lon="11.337320135441765"><ele>243.99999999999997</ele><time>2026-04-11T09:10:28Z</time></trkpt><trkpt lat="43.29876417848911" lon="11.337352637642319"><ele>244.0</ele><time>2026-04-11T09:10:29Z</time></trkpt><trkpt lat="43.29869417003447" lon="11.33739562002904"><ele>244.0</ele><time>2026-04-11T09:10:30Z</time></trkpt><trkpt lat="43.298622925170605" lon="11.337443399491628"><ele>244.0</ele><time>2026-04-11T09:10:31Z</time></trkpt><trkpt lat="43.29855169116172" lon="11.337494691526592"><ele>243.99999999999997</ele><time>2026-04-11T09:10:32Z</time></trkpt><trkpt lat="43.298476320703834" lon="11.337548503238432"><ele>244.0</ele><time>2026-04-11T09:10:33Z</time></trkpt><trkpt lat="43.298400265995056" lon="11.337601408671258"><ele>244.0</ele><time>2026-04-11T09:10:34Z</time></trkpt><trkpt lat="43.29832296326684" lon="11.33766039141651"><ele>243.99999999999997</ele><time>2026-04-11T09:10:35Z</time></trkpt><trkpt lat="43.29824832457116" lon="11.337733058039355"><ele>243.99999999999997</ele><time>2026-04-11T09:10:36Z</time></trkpt><trkpt lat="43.29817790578218" lon="11.337817692670146"><ele>244.0</ele><time>2026-04-11T09:10:37Z</time></trkpt><trkpt lat="43.29810790098724" lon="11.33791048277746"><ele>244.0</ele><time>2026-04-11T09:10:38Z</time></trkpt><trkpt lat="43.298040386385615" lon="11.33801110206374"><ele>243.39999999999998</ele><time>2026-04-11T09:10:39Z</time></trkpt><trkpt lat="43.29797161215951" lon="11.338112496862433"><ele>242.79999999999998</ele><time>2026-04-11T09:10:40Z</time></trkpt><trkpt lat="43.29790022968866" lon="11.33820744392578"><ele>242.20000000000002</ele><time>2026-04-11T09:10:41Z</time></trkpt><trkpt lat="43.297830508814656" lon="11.338307620151514"><ele>241.60000000000002</ele><time>2026-04-11T09:10:42Z</time></trkpt><trkpt lat="43.29776103231731" lon="11.338407365679979"><ele>241.0</ele><time>2026-04-11T09:10:43Z</time></trkpt><trkpt lat="43.297692064264275" lon="11.338504807824512"><ele>241.0</ele><time>2026-04-11T09:10:44Z</time></trkpt><trkpt lat="43.297621279240154" lon="11.338601483423258"><ele>241.00000000000003</ele><time>2026-04-11T09:10:45Z</time></trkpt><trkpt lat="43.297552996849475" lon="11.338701132019693"><ele>241.00000000000003</ele><time>2026-04-11T09:10:46Z</time></trkpt><trkpt lat="43.297482067325966" lon="11.338796940164608"><ele>241.0</ele><time>2026-04-11T09:10:47Z</time></trkpt><trkpt lat="43.29741077637961" lon="11.338889220763637"><ele>241.0</ele><time>2026-04-11T09:10:48Z</time></trkpt><trkpt lat="43.29733889971268" lon="11.338981460721355"><ele>240.8</ele><time>2026-04-11T09:10:49Z</time></trkpt><trkpt lat="43.29726965582933" lon="11.339072962262438"><ele>240.60000000000002</ele><time>2026-04-11T09:10:50Z</time></trkpt><trkpt lat="43.29720086001992" lon="11.339160006521823"><ele>240.4</ele><time>2026-04-11T09:10:51Z</time></trkpt><trkpt lat="43.297132104981024" lon="11.339247204257248"><ele>240.2</ele><time>2026-04-11T09:10:52Z</time></trkpt><trkpt lat="43.29706191897402" lon="11.339334337078675"><ele>240.0</ele><time>2026-04-11T09:10:53Z</time></trkpt><trkpt lat="43.29699468316358" lon="11.339421745613512"><ele>240.0</ele><time>2026-04-11T09:10:53.999Z</time></trkpt><trkpt lat="43.296932883996305" lon="11.339511654264351"><ele>240.0</ele><time>2026-04-11T09:10:54.999Z</time></trkpt><trkpt lat="43.29687682966515" lon="11.339602085322324"><ele>240.0</ele><time>2026-04-11T09:10:55.999Z</time></trkpt><trkpt lat="43.29681902638696" lon="11.339690593867987"><ele>240.0</ele><time>2026-04-11T09:10:56.999Z</time></trkpt><trkpt lat="43.296762969536694" lon="11.339775472010169"><ele>240.0</ele><time>2026-04-11T09:10:57.999Z</time></trkpt><trkpt lat="43.29670640813795" lon="11.339858119974338"><ele>240.0</ele><time>2026-04-11T09:10:58.999Z</time></trkpt><trkpt lat="43.29665432369306" lon="11.339939132462701"><ele>240.28571428571428</ele><time>2026-04-11T09:10:59.999Z</time></trkpt><trkpt lat="43.2966020914249" lon="11.340014946814282"><ele>240.57142857142856</ele><time>2026-04-11T09:11:00.999Z</time></trkpt><trkpt lat="43.29655161509552" lon="11.34008793077369"><ele>240.85714285714283</ele><time>2026-04-11T09:11:01.999Z</time></trkpt><trkpt lat="43.29650617484375" lon="11.340167623180497"><ele>241.14285714285714</ele><time>2026-04-11T09:11:02.999Z</time></trkpt><trkpt lat="43.296461661141166" lon="11.340245482045173"><ele>241.4285714285714</ele><time>2026-04-11T09:11:03.999Z</time></trkpt><trkpt lat="43.29642663136573" lon="11.340328442139942"><ele>241.7142857142857</ele><time>2026-04-11T09:11:04.999Z</time></trkpt><trkpt lat="43.29639189058279" lon="11.340409987193324"><ele>242.0</ele><time>2026-04-11T09:11:05.999Z</time></trkpt><trkpt lat="43.296359694880245" lon="11.340489337493045"><ele>242.6</ele><time>2026-04-11T09:11:06.999Z</time></trkpt><trkpt lat="43.296328367098404" lon="11.340568802828878"><ele>243.2</ele><time>2026-04-11T09:11:07.999Z</time></trkpt><trkpt lat="43.29629617608179" lon="11.340644361489243"><ele>243.8</ele><time>2026-04-11T09:11:08.999Z</time></trkpt><trkpt lat="43.2962342608446" lon="11.340789278618756"><ele>244.4</ele><time>2026-04-11T09:11:10.999Z</time></trkpt><trkpt lat="43.29617879315295" lon="11.340923050623115"><ele>245.0</ele><time>2026-04-11T09:11:12.999Z</time></trkpt><trkpt lat="43.2961298911674" lon="11.341047649462691"><ele>245.00000000000003</ele><time>2026-04-11T09:11:14.999Z</time></trkpt><trkpt lat="43.296092462271574" lon="11.341158340073873"><ele>245.0</ele><time>2026-04-11T09:11:16.999Z</time></trkpt><trkpt lat="43.29606593842189" lon="11.341261503942262"><ele>245.0</ele><time>2026-04-11T09:11:18.999Z</time></trkpt><trkpt lat="43.296027671597514" lon="11.341340727773591"><ele>245.0</ele><time>2026-04-11T09:11:20.999Z</time></trkpt><trkpt lat="43.29598835298992" lon="11.341413183408054"><ele>245.00000000000003</ele><time>2026-04-11T09:11:22.999Z</time></trkpt><trkpt lat="43.29591974020291" lon="11.341495415854324"><ele>245.0</ele><time>2026-04-11T09:11:24.999Z</time></trkpt><trkpt lat="43.29586667009849" lon="11.341617090327928"><ele>245.0</ele><time>2026-04-11T09:11:26.999Z</time></trkpt><trkpt lat="43.295817875244225" lon="11.341742369421999"><ele>245.0</ele><time>2026-04-11T09:11:28.999Z</time></trkpt><trkpt lat="43.295764430389276" lon="11.341863945623937"><ele>245.0</ele><time>2026-04-11T09:11:30.999Z</time></trkpt><trkpt lat="43.29569519857951" lon="11.341983381974762"><ele>245.0</ele><time>2026-04-11T09:11:32.999Z</time></trkpt><trkpt lat="43.295611097988456" lon="11.34209736596165"><ele>245.0</ele><time>2026-04-11T09:11:34.999Z</time></trkpt><trkpt lat="43.29550958302697" lon="11.342203308536751"><ele>245.0</ele><time>2026-04-11T09:11:36.999Z</time></trkpt><trkpt lat="43.295455283515096" lon="11.342257033393803"><ele>245.0</ele><time>2026-04-11T09:11:37.999Z</time></trkpt><trkpt lat="43.29539952996101" lon="11.342311362872778"><ele>245.0</ele><time>2026-04-11T09:11:38.999Z</time></trkpt><trkpt lat="43.29534099915226" lon="11.342360350943208"><ele>245.0</ele><time>2026-04-11T09:11:39.999Z</time></trkpt><trkpt lat="43.295284312914426" lon="11.342414102641325"><ele>245.0</ele><time>2026-04-11T09:11:40.999Z</time></trkpt><trkpt lat="43.29522337131276" lon="11.342463378409429"><ele>245.0</ele><time>2026-04-11T09:11:41.999Z</time></trkpt><trkpt lat="43.295160585179126" lon="11.342511883447603"><ele>245.0</ele><time>2026-04-11T09:11:42.999Z</time></trkpt><trkpt lat="43.295093845653795" lon="11.342552936871387"><ele>245.0</ele><time>2026-04-11T09:11:43.999Z</time></trkpt><trkpt lat="43.29502980461666" lon="11.3425990061597"><ele>245.0</ele><time>2026-04-11T09:11:44.999Z</time></trkpt><trkpt lat="43.29496445284361" lon="11.342637997508902"><ele>245.0</ele><time>2026-04-11T09:11:45.999Z</time></trkpt><trkpt lat="43.29489678434909" lon="11.342676286569196"><ele>245.0</ele><time>2026-04-11T09:11:46.999Z</time></trkpt><trkpt lat="43.29482321506466" lon="11.342714973778069"><ele>245.0</ele><time>2026-04-11T09:11:47.999Z</time></trkpt><trkpt lat="43.2947588671548" lon="11.342760489836715"><ele>245.0</ele><time>2026-04-11T09:11:49Z</time></trkpt><trkpt lat="43.29469191628356" lon="11.342801559914948"><ele>245.0</ele><time>2026-04-11T09:11:50Z</time></trkpt><trkpt lat="43.29462102793907" lon="11.342836278653595"><ele>244.85714285714286</ele><time>2026-04-11T09:11:51Z</time></trkpt><trkpt lat="43.294550044110146" lon="11.342874881771575"><ele>244.71428571428572</ele><time>2026-04-11T09:11:52Z</time></trkpt><trkpt lat="43.29448224641878" lon="11.342909178116951"><ele>244.57142857142856</ele><time>2026-04-11T09:11:53Z</time></trkpt><trkpt lat="43.294412976991424" lon="11.342944669395187"><ele>244.42857142857142</ele><time>2026-04-11T09:11:54Z</time></trkpt><trkpt lat="43.29434368266703" lon="11.34297647107387"><ele>244.28571428571428</ele><time>2026-04-11T09:11:55Z</time></trkpt><trkpt lat="43.294273511683215" lon="11.343004021623987"><ele>244.1428571428571</ele><time>2026-04-11T09:11:56Z</time></trkpt><trkpt lat="43.29420375039492" lon="11.34303357809312"><ele>243.99999999999997</ele><time>2026-04-11T09:11:57Z</time></trkpt><trkpt lat="43.29413186075489" lon="11.343065901504284"><ele>243.99999999999997</ele><time>2026-04-11T09:11:58Z</time></trkpt><trkpt lat="43.294057820689424" lon="11.343084727670268"><ele>244.0</ele><time>2026-04-11T09:11:59Z</time></trkpt><trkpt lat="43.29398371263313" lon="11.343109654418873"><ele>244.0</ele><time>2026-04-11T09:12:00Z</time></trkpt><trkpt lat="43.29391084689244" lon="11.34312536554331"><ele>244.0</ele><time>2026-04-11T09:12:01Z</time></trkpt><trkpt lat="43.293835577660296" lon="11.343144698183677"><ele>243.99999999999997</ele><time>2026-04-11T09:12:02Z</time></trkpt><trkpt lat="43.29376232674841" lon="11.343163996256159"><ele>244.0</ele><time>2026-04-11T09:12:03Z</time></trkpt><trkpt lat="43.29368677644129" lon="11.343181379568694"><ele>243.85714285714283</ele><time>2026-04-11T09:12:04Z</time></trkpt><trkpt lat="43.29361228330847" lon="11.343199320290301"><ele>243.71428571428572</ele><time>2026-04-11T09:12:05Z</time></trkpt><trkpt lat="43.29353840391389" lon="11.343220349942488"><ele>243.57142857142856</ele><time>2026-04-11T09:12:06Z</time></trkpt><trkpt lat="43.29346487566398" lon="11.343236829780672"><ele>243.42857142857142</ele><time>2026-04-11T09:12:07Z</time></trkpt><trkpt lat="43.293391678789824" lon="11.343258528020405"><ele>243.28571428571428</ele><time>2026-04-11T09:12:07.999Z</time></trkpt><trkpt lat="43.293320516045064" lon="11.34327476938555"><ele>243.14285714285714</ele><time>2026-04-11T09:12:08.999Z</time></trkpt><trkpt lat="43.29324648225431" lon="11.343293895841686"><ele>243.0</ele><time>2026-04-11T09:12:09.999Z</time></trkpt><trkpt lat="43.29317580244151" lon="11.343316056000525"><ele>243.0</ele><time>2026-04-11T09:12:10.999Z</time></trkpt><trkpt lat="43.29310646662588" lon="11.343334871317696"><ele>243.0</ele><time>2026-04-11T09:12:11.999Z</time></trkpt><trkpt lat="43.29304218312743" lon="11.343353059252184"><ele>243.0</ele><time>2026-04-11T09:12:12.999Z</time></trkpt><trkpt lat="43.2929771321486" lon="11.343375965708509"><ele>243.0</ele><time>2026-04-11T09:12:13.999Z</time></trkpt><trkpt lat="43.29291090640619" lon="11.34340159198683"><ele>243.0</ele><time>2026-04-11T09:12:14.999Z</time></trkpt><trkpt lat="43.29284707630928" lon="11.343424865495331"><ele>243.0</ele><time>2026-04-11T09:12:15.999Z</time></trkpt><trkpt lat="43.29278224290572" lon="11.343448501979841"><ele>243.0</ele><time>2026-04-11T09:12:16.999Z</time></trkpt><trkpt lat="43.29271903515717" lon="11.34347010650258"><ele>243.16666666666666</ele><time>2026-04-11T09:12:17.999Z</time></trkpt><trkpt lat="43.29265799330325" lon="11.343491723908313"><ele>243.33333333333331</ele><time>2026-04-11T09:12:18.999Z</time></trkpt><trkpt lat="43.292538214744596" lon="11.343542612790532"><ele>243.5</ele><time>2026-04-11T09:12:20.999Z</time></trkpt><trkpt lat="43.29247525017796" lon="11.343565626181999"><ele>243.66666666666666</ele><time>2026-04-11T09:12:21.999Z</time></trkpt><trkpt lat="43.29241398304101" lon="11.343587870009355"><ele>243.83333333333331</ele><time>2026-04-11T09:12:22.998Z</time></trkpt><trkpt lat="43.29229690156049" lon="11.343635636465041"><ele>244.0</ele><time>2026-04-11T09:12:24.998Z</time></trkpt><trkpt lat="43.29218805733751" lon="11.34369717951554"><ele>244.0</ele><time>2026-04-11T09:12:26.998Z</time></trkpt><trkpt lat="43.2921284984716" lon="11.343726111628957"><ele>243.99999999999997</ele><time>2026-04-11T09:12:27.998Z</time></trkpt><trkpt lat="43.29201616218329" lon="11.34376635583045"><ele>243.99999999999997</ele><time>2026-04-11T09:12:29.998Z</time></trkpt><trkpt lat="43.29189721790056" lon="11.343793473784428"><ele>244.0</ele><time>2026-04-11T09:12:31.998Z</time></trkpt><trkpt lat="43.29178076782402" lon="11.343810620406424"><ele>244.0</ele><time>2026-04-11T09:12:33.998Z</time></trkpt><trkpt lat="43.29166472318084" lon="11.343832048780268"><ele>244.0</ele><time>2026-04-11T09:12:35.998Z</time></trkpt><trkpt lat="43.291548936252944" lon="11.343849167236488"><ele>244.0</ele><time>2026-04-11T09:12:37.998Z</time></trkpt><trkpt lat="43.29143260080624" lon="11.343875076810482"><ele>244.0</ele><time>2026-04-11T09:12:39.998Z</time></trkpt><trkpt lat="43.2913132726478" lon="11.343890873961056"><ele>244.0</ele><time>2026-04-11T09:12:41.998Z</time></trkpt><trkpt lat="43.29118875231699" lon="11.343906100452573"><ele>244.0</ele><time>2026-04-11T09:12:43.998Z</time></trkpt><trkpt lat="43.291069232122005" lon="11.343916424521566"><ele>243.99999999999997</ele><time>2026-04-11T09:12:45.998Z</time></trkpt><trkpt lat="43.29094577913983" lon="11.343924443759914"><ele>243.99999999999997</ele><time>2026-04-11T09:12:47.998Z</time></trkpt><trkpt lat="43.29081805903654" lon="11.343925549588219"><ele>244.0</ele><time>2026-04-11T09:12:49.998Z</time></trkpt><trkpt lat="43.29075268889856" lon="11.343925431826802"><ele>244.0</ele><time>2026-04-11T09:12:50.998Z</time></trkpt><trkpt lat="43.290688211600965" lon="11.343927437805181"><ele>243.99999999999997</ele><time>2026-04-11T09:12:51.998Z</time></trkpt><trkpt lat="43.29062309382446" lon="11.343924051226239"><ele>244.0</ele><time>2026-04-11T09:12:52.998Z</time></trkpt><trkpt lat="43.29055698858189" lon="11.343922127214961"><ele>244.0</ele><time>2026-04-11T09:12:53.998Z</time></trkpt><trkpt lat="43.29049140046834" lon="11.343918340677066"><ele>244.0</ele><time>2026-04-11T09:12:54.998Z</time></trkpt><trkpt lat="43.290362233331905" lon="11.343904178721619"><ele>243.99999999999997</ele><time>2026-04-11T09:12:56.998Z</time></trkpt><trkpt lat="43.29029646626211" lon="11.343886085962088"><ele>244.0</ele><time>2026-04-11T09:12:57.998Z</time></trkpt><trkpt lat="43.29017462058359" lon="11.34384947207251"><ele>244.75</ele><time>2026-04-11T09:12:59.998Z</time></trkpt><trkpt lat="43.2900555799902" lon="11.34381190823991"><ele>245.5</ele><time>2026-04-11T09:13:01.998Z</time></trkpt><trkpt lat="43.289939518075016" lon="11.343776867906865"><ele>246.25</ele><time>2026-04-11T09:13:03.998Z</time></trkpt><trkpt lat="43.28982597748094" lon="11.343743890373164"><ele>247.0</ele><time>2026-04-11T09:13:05.998Z</time></trkpt><trkpt lat="43.28971307092132" lon="11.343722290855217"><ele>247.25</ele><time>2026-04-11T09:13:07.998Z</time></trkpt><trkpt lat="43.289600371997196" lon="11.3437125327074"><ele>247.5</ele><time>2026-04-11T09:13:09.998Z</time></trkpt><trkpt lat="43.28948877777467" lon="11.343725682251229"><ele>247.75</ele><time>2026-04-11T09:13:11.998Z</time></trkpt><trkpt lat="43.28937737314094" lon="11.343756342530677"><ele>248.0</ele><time>2026-04-11T09:13:13.998Z</time></trkpt><trkpt lat="43.289259490251695" lon="11.34378568126824"><ele>248.0</ele><time>2026-04-11T09:13:15.998Z</time></trkpt><trkpt lat="43.28914048175725" lon="11.343809067563132"><ele>248.0</ele><time>2026-04-11T09:13:17.998Z</time></trkpt><trkpt lat="43.28901900319762" lon="11.34383430508952"><ele>248.0</ele><time>2026-04-11T09:13:19.998Z</time></trkpt><trkpt lat="43.28890603311694" lon="11.343852827002287"><ele>248.0</ele><time>2026-04-11T09:13:21.998Z</time></trkpt><trkpt lat="43.288838528869995" lon="11.343868314431933"><ele>248.0</ele><time>2026-04-11T09:13:22.998Z</time></trkpt><trkpt lat="43.28871701933016" lon="11.343891617537837"><ele>247.57142857142858</ele><time>2026-04-11T09:13:24.998Z</time></trkpt><trkpt lat="43.288653757095105" lon="11.34390134152211"><ele>247.14285714285717</ele><time>2026-04-11T09:13:25.997Z</time></trkpt><trkpt lat="43.288588843658225" lon="11.343915341420336"><ele>246.71428571428572</ele><time>2026-04-11T09:13:26.997Z</time></trkpt><trkpt lat="43.28852353498809" lon="11.343932854775577"><ele>246.28571428571428</ele><time>2026-04-11T09:13:27.997Z</time></trkpt><trkpt lat="43.28845605079065" lon="11.343951635351761"><ele>245.85714285714286</ele><time>2026-04-11T09:13:28.997Z</time></trkpt><trkpt lat="43.28838818388552" lon="11.343966815884237"><ele>245.42857142857144</ele><time>2026-04-11T09:13:29.997Z</time></trkpt><trkpt lat="43.2883202812809" lon="11.343986789264454"><ele>245.0</ele><time>2026-04-11T09:13:30.997Z</time></trkpt><trkpt lat="43.28825116887149" lon="11.344006095657512"><ele>245.0</ele><time>2026-04-11T09:13:31.997Z</time></trkpt><trkpt lat="43.28818191116813" lon="11.344028712530545"><ele>245.0</ele><time>2026-04-11T09:13:32.997Z</time></trkpt><trkpt lat="43.28811215080041" lon="11.344055584684142"><ele>245.0</ele><time>2026-04-11T09:13:33.997Z</time></trkpt><trkpt lat="43.288044935345894" lon="11.34408728312074"><ele>245.0</ele><time>2026-04-11T09:13:34.997Z</time></trkpt><trkpt lat="43.28797791992019" lon="11.344121611641643"><ele>245.0</ele><time>2026-04-11T09:13:35.997Z</time></trkpt><trkpt lat="43.287908897337914" lon="11.344156077575516"><ele>245.0</ele><time>2026-04-11T09:13:36.997Z</time></trkpt><trkpt lat="43.28784350583512" lon="11.344197053021558"><ele>245.0</ele><time>2026-04-11T09:13:37.997Z</time></trkpt><trkpt lat="43.287779811652506" lon="11.344244650401796"><ele>245.42857142857144</ele><time>2026-04-11T09:13:38.997Z</time></trkpt><trkpt lat="43.287717836624395" lon="11.344300732100223"><ele>245.85714285714286</ele><time>2026-04-11T09:13:39.997Z</time></trkpt><trkpt lat="43.28766036721065" lon="11.34436249438435"><ele>246.28571428571428</ele><time>2026-04-11T09:13:40.997Z</time></trkpt><trkpt lat="43.287600742836986" lon="11.344421641843548"><ele>246.71428571428572</ele><time>2026-04-11T09:13:41.997Z</time></trkpt><trkpt lat="43.28754642793587" lon="11.344489060287502"><ele>247.14285714285717</ele><time>2026-04-11T09:13:42.997Z</time></trkpt><trkpt lat="43.2874917775025" lon="11.344557743211942"><ele>247.57142857142858</ele><time>2026-04-11T09:13:43.997Z</time></trkpt><trkpt lat="43.287437179032736" lon="11.344629889918007"><ele>248.0</ele><time>2026-04-11T09:13:44.997Z</time></trkpt><trkpt lat="43.28738223237151" lon="11.344700816086712"><ele>247.33333333333334</ele><time>2026-04-11T09:13:45.997Z</time></trkpt><trkpt lat="43.287329462949984" lon="11.344776765370971"><ele>246.66666666666669</ele><time>2026-04-11T09:13:46.997Z</time></trkpt><trkpt lat="43.28727833269893" lon="11.344853299727001"><ele>246.0</ele><time>2026-04-11T09:13:47.997Z</time></trkpt><trkpt lat="43.28722831321137" lon="11.344930317415567"><ele>245.33333333333331</ele><time>2026-04-11T09:13:48.997Z</time></trkpt><trkpt lat="43.28717807818173" lon="11.345011165383468"><ele>244.66666666666666</ele><time>2026-04-11T09:13:49.997Z</time></trkpt><trkpt lat="43.28712986446872" lon="11.345093168576602"><ele>244.0</ele><time>2026-04-11T09:13:50.997Z</time></trkpt><trkpt lat="43.287080266514636" lon="11.34517606793007"><ele>243.99999999999997</ele><time>2026-04-11T09:13:51.997Z</time></trkpt><trkpt lat="43.28703403707402" lon="11.345258642835084"><ele>244.0</ele><time>2026-04-11T09:13:52.997Z</time></trkpt><trkpt lat="43.28699046886915" lon="11.345347065149369"><ele>244.0</ele><time>2026-04-11T09:13:53.997Z</time></trkpt><trkpt lat="43.28695077535997" lon="11.345436155149116"><ele>244.0</ele><time>2026-04-11T09:13:54.998Z</time></trkpt><trkpt lat="43.286912911182846" lon="11.345526258400085"><ele>243.99999999999997</ele><time>2026-04-11T09:13:55.998Z</time></trkpt><trkpt lat="43.28687653720113" lon="11.34561999023939"><ele>244.0</ele><time>2026-04-11T09:13:56.998Z</time></trkpt><trkpt lat="43.28684267610204" lon="11.345714015483903"><ele>244.16666666666666</ele><time>2026-04-11T09:13:57.998Z</time></trkpt><trkpt lat="43.2868132689105" lon="11.34580998684101"><ele>244.33333333333331</ele><time>2026-04-11T09:13:58.999Z</time></trkpt><trkpt lat="43.28678802920252" lon="11.34590729611017"><ele>244.5</ele><time>2026-04-11T09:13:59.999Z</time></trkpt><trkpt lat="43.28676945525455" lon="11.346007736138432"><ele>244.66666666666669</ele><time>2026-04-11T09:14:00.999Z</time></trkpt><trkpt lat="43.28675059951912" lon="11.346109148002238"><ele>244.83333333333334</ele><time>2026-04-11T09:14:01.999Z</time></trkpt><trkpt lat="43.286730496174364" lon="11.346209620778055"><ele>245.0</ele><time>2026-04-11T09:14:02.999Z</time></trkpt><trkpt lat="43.28671205531796" lon="11.346312192066618"><ele>244.33333333333334</ele><time>2026-04-11T09:14:03.999Z</time></trkpt><trkpt lat="43.28669871008376" lon="11.3464172202031"><ele>243.66666666666669</ele><time>2026-04-11T09:14:04.999Z</time></trkpt><trkpt lat="43.28669341232784" lon="11.346526917527921"><ele>243.0</ele><time>2026-04-11T09:14:05.999Z</time></trkpt><trkpt lat="43.286687254317286" lon="11.346638291651413"><ele>242.33333333333331</ele><time>2026-04-11T09:14:06.999Z</time></trkpt><trkpt lat="43.28668162337119" lon="11.346751121803992"><ele>241.66666666666666</ele><time>2026-04-11T09:14:07.999Z</time></trkpt><trkpt lat="43.28667524012348" lon="11.346865823433612"><ele>241.0</ele><time>2026-04-11T09:14:08.999Z</time></trkpt><trkpt lat="43.28666950169467" lon="11.346982607596239"><ele>241.0</ele><time>2026-04-11T09:14:09.999Z</time></trkpt><trkpt lat="43.28666170443207" lon="11.347100625021419"><ele>241.00000000000003</ele><time>2026-04-11T09:14:10.999Z</time></trkpt><trkpt lat="43.28665020505578" lon="11.347223030266502"><ele>241.00000000000003</ele><time>2026-04-11T09:14:11.999Z</time></trkpt><trkpt lat="43.28662898997634" lon="11.347343386116611"><ele>241.0</ele><time>2026-04-11T09:14:12.999Z</time></trkpt><trkpt lat="43.286602300225574" lon="11.347464770828598"><ele>241.0</ele><time>2026-04-11T09:14:14Z</time></trkpt><trkpt lat="43.28655385646371" lon="11.347625374427937"><ele>241.0</ele><time>2026-04-11T09:14:15Z</time></trkpt><trkpt lat="43.2865043500148" lon="11.347823288680228"><ele>241.00000000000003</ele><time>2026-04-11T09:14:17Z</time></trkpt><trkpt lat="43.28647137877696" lon="11.347945418934549"><ele>241.00000000000003</ele><time>2026-04-11T09:14:18Z</time></trkpt><trkpt lat="43.286432358493144" lon="11.34806341813574"><ele>241.0</ele><time>2026-04-11T09:14:19Z</time></trkpt><trkpt lat="43.28639556667235" lon="11.348191222267848"><ele>241.0</ele><time>2026-04-11T09:14:20Z</time></trkpt><trkpt lat="43.28634906202909" lon="11.348320127286257"><ele>239.60000000000002</ele><time>2026-04-11T09:14:21Z</time></trkpt><trkpt lat="43.28630385277443" lon="11.348441587607258"><ele>238.20000000000002</ele><time>2026-04-11T09:14:22Z</time></trkpt><trkpt lat="43.28625287628721" lon="11.348561692700732"><ele>236.79999999999998</ele><time>2026-04-11T09:14:23Z</time></trkpt><trkpt lat="43.286206005954476" lon="11.348685202193828"><ele>235.39999999999998</ele><time>2026-04-11T09:14:24Z</time></trkpt><trkpt lat="43.28615795779682" lon="11.348801279519028"><ele>234.0</ele><time>2026-04-11T09:14:25Z</time></trkpt><trkpt lat="43.28611026828745" lon="11.348922645239066"><ele>234.0</ele><time>2026-04-11T09:14:26Z</time></trkpt><trkpt lat="43.286062769245035" lon="11.349040579354353"><ele>233.99999999999997</ele><time>2026-04-11T09:14:27Z</time></trkpt><trkpt lat="43.2860183661485" lon="11.349158753453453"><ele>233.99999999999997</ele><time>2026-04-11T09:14:28Z</time></trkpt><trkpt lat="43.28596998109963" lon="11.349262766642365"><ele>234.0</ele><time>2026-04-11T09:14:29Z</time></trkpt><trkpt lat="43.28592783970991" lon="11.34937260032622"><ele>234.0</ele><time>2026-04-11T09:14:30Z</time></trkpt><trkpt lat="43.285880903169335" lon="11.349480153412213"><ele>234.0</ele><time>2026-04-11T09:14:31Z</time></trkpt><trkpt lat="43.28583956487316" lon="11.349580602930963"><ele>234.0</ele><time>2026-04-11T09:14:32Z</time></trkpt><trkpt lat="43.285797105400654" lon="11.34968038834755"><ele>234.0</ele><time>2026-04-11T09:14:33Z</time></trkpt><trkpt lat="43.285759562092124" lon="11.349786339270718"><ele>234.0</ele><time>2026-04-11T09:14:34Z</time></trkpt><trkpt lat="43.285728344757736" lon="11.349887611230338"><ele>234.0</ele><time>2026-04-11T09:14:35Z</time></trkpt><trkpt lat="43.28569529104775" lon="11.349995054442871"><ele>234.0</ele><time>2026-04-11T09:14:36Z</time></trkpt><trkpt lat="43.285658943208595" lon="11.350093757251427"><ele>234.16666666666666</ele><time>2026-04-11T09:14:37Z</time></trkpt><trkpt lat="43.28562220235006" lon="11.350193130571132"><ele>234.33333333333331</ele><time>2026-04-11T09:14:38Z</time></trkpt><trkpt lat="43.28558840861949" lon="11.350295022889622"><ele>234.5</ele><time>2026-04-11T09:14:39Z</time></trkpt><trkpt lat="43.28555569481514" lon="11.350389070106496"><ele>234.66666666666666</ele><time>2026-04-11T09:14:40Z</time></trkpt><trkpt lat="43.285525207646536" lon="11.350477130411024"><ele>234.83333333333331</ele><time>2026-04-11T09:14:41Z</time></trkpt><trkpt lat="43.28550057657961" lon="11.350566338302281"><ele>235.0</ele><time>2026-04-11T09:14:42Z</time></trkpt><trkpt lat="43.28547287022311" lon="11.350657327077212"><ele>235.42857142857142</ele><time>2026-04-11T09:14:43Z</time></trkpt><trkpt lat="43.2854443589858" lon="11.350744511199863"><ele>235.85714285714283</ele><time>2026-04-11T09:14:44Z</time></trkpt><trkpt lat="43.28541549366802" lon="11.35083376937625"><ele>236.28571428571428</ele><time>2026-04-11T09:14:45Z</time></trkpt><trkpt lat="43.28538692779144" lon="11.350921990160707"><ele>236.71428571428572</ele><time>2026-04-11T09:14:46Z</time></trkpt><trkpt lat="43.28535974237569" lon="11.351009963139644"><ele>237.14285714285714</ele><time>2026-04-11T09:14:47Z</time></trkpt><trkpt lat="43.28533139390639" lon="11.351100836113076"><ele>237.57142857142856</ele><time>2026-04-11T09:14:48Z</time></trkpt><trkpt lat="43.28530345433934" lon="11.351190743809399"><ele>238.0</ele><time>2026-04-11T09:14:49Z</time></trkpt><trkpt lat="43.28527486290678" lon="11.351281104595806"><ele>238.0</ele><time>2026-04-11T09:14:50Z</time></trkpt><trkpt lat="43.28524861305331" lon="11.351370783993927"><ele>238.0</ele><time>2026-04-11T09:14:51Z</time></trkpt><trkpt lat="43.28521876151666" lon="11.35146222276072"><ele>238.0</ele><time>2026-04-11T09:14:52Z</time></trkpt><trkpt lat="43.2851885533347" lon="11.351553629737474"><ele>238.0</ele><time>2026-04-11T09:14:53Z</time></trkpt><trkpt lat="43.285156994404474" lon="11.351644438885687"><ele>238.0</ele><time>2026-04-11T09:14:54Z</time></trkpt><trkpt lat="43.28512718867902" lon="11.351734452243651"><ele>238.0</ele><time>2026-04-11T09:14:55Z</time></trkpt><trkpt lat="43.2850971227117" lon="11.35182352765336"><ele>238.0</ele><time>2026-04-11T09:14:56Z</time></trkpt><trkpt lat="43.285070267766955" lon="11.351916436427885"><ele>238.0</ele><time>2026-04-11T09:14:57Z</time></trkpt><trkpt lat="43.285038491659684" lon="11.352007686322537"><ele>238.0</ele><time>2026-04-11T09:14:58Z</time></trkpt><trkpt lat="43.2850088591195" lon="11.352099025620785"><ele>238.0</ele><time>2026-04-11T09:14:59Z</time></trkpt><trkpt lat="43.28497974768203" lon="11.352185906525694"><ele>238.0</ele><time>2026-04-11T09:15:00Z</time></trkpt><trkpt lat="43.284951543258714" lon="11.3522738169142"><ele>238.0</ele><time>2026-04-11T09:15:01Z</time></trkpt><trkpt lat="43.28492290267743" lon="11.35236111918421"><ele>238.0</ele><time>2026-04-11T09:15:02Z</time></trkpt><trkpt lat="43.284897154762696" lon="11.352447039544664"><ele>238.0</ele><time>2026-04-11T09:15:03Z</time></trkpt><trkpt lat="43.28486545663836" lon="11.35252876932988"><ele>238.0</ele><time>2026-04-11T09:15:04Z</time></trkpt><trkpt lat="43.284831826193354" lon="11.352604176370907"><ele>238.0</ele><time>2026-04-11T09:15:05Z</time></trkpt><trkpt lat="43.284770280720934" lon="11.35274651072618"><ele>238.0</ele><time>2026-04-11T09:15:07Z</time></trkpt><trkpt lat="43.28469802694159" lon="11.352860219521254"><ele>238.0</ele><time>2026-04-11T09:15:09Z</time></trkpt><trkpt lat="43.284612994661316" lon="11.352978039091226"><ele>238.0</ele><time>2026-04-11T09:15:11Z</time></trkpt><trkpt lat="43.284565895857924" lon="11.353040167756667"><ele>237.71428571428572</ele><time>2026-04-11T09:15:12Z</time></trkpt><trkpt lat="43.284516461188154" lon="11.35309617940241"><ele>237.42857142857144</ele><time>2026-04-11T09:15:13Z</time></trkpt><trkpt lat="43.28446259462837" lon="11.353152917965703"><ele>237.14285714285714</ele><time>2026-04-11T09:15:14Z</time></trkpt><trkpt lat="43.28440695103679" lon="11.353206158518933"><ele>236.85714285714286</ele><time>2026-04-11T09:15:15Z</time></trkpt><trkpt lat="43.28434813944309" lon="11.353265286179356"><ele>236.57142857142858</ele><time>2026-04-11T09:15:16Z</time></trkpt><trkpt lat="43.28428796815314" lon="11.353320239535993"><ele>236.28571428571428</ele><time>2026-04-11T09:15:17Z</time></trkpt><trkpt lat="43.284230022900985" lon="11.353372305862045"><ele>236.0</ele><time>2026-04-11T09:15:18Z</time></trkpt><trkpt lat="43.28417104873701" lon="11.353422595541966"><ele>236.0</ele><time>2026-04-11T09:15:19Z</time></trkpt><trkpt lat="43.28410770554196" lon="11.353467719195237"><ele>236.0</ele><time>2026-04-11T09:15:19.999Z</time></trkpt><trkpt lat="43.28404041802554" lon="11.35350252357948"><ele>236.0</ele><time>2026-04-11T09:15:20.999Z</time></trkpt><trkpt lat="43.283977540385166" lon="11.353531053111835"><ele>236.0</ele><time>2026-04-11T09:15:21.999Z</time></trkpt><trkpt lat="43.28390811831747" lon="11.353560186692158"><ele>236.0</ele><time>2026-04-11T09:15:22.999Z</time></trkpt><trkpt lat="43.28384042506311" lon="11.353589581475287"><ele>236.0</ele><time>2026-04-11T09:15:23.999Z</time></trkpt><trkpt lat="43.28377410880214" lon="11.353612992213701"><ele>236.0</ele><time>2026-04-11T09:15:24.999Z</time></trkpt><trkpt lat="43.28370665213744" lon="11.353631531510384"><ele>236.28571428571428</ele><time>2026-04-11T09:15:25.999Z</time></trkpt><trkpt lat="43.283640980278726" lon="11.353649294880617"><ele>236.57142857142858</ele><time>2026-04-11T09:15:26.999Z</time></trkpt><trkpt lat="43.28357248521893" lon="11.353661921697196"><ele>236.85714285714286</ele><time>2026-04-11T09:15:27.999Z</time></trkpt><trkpt lat="43.28350491041706" lon="11.353663953230738"><ele>237.14285714285714</ele><time>2026-04-11T09:15:28.999Z</time></trkpt><trkpt lat="43.283435509582766" lon="11.35366474543933"><ele>237.42857142857144</ele><time>2026-04-11T09:15:29.999Z</time></trkpt><trkpt lat="43.283366847557566" lon="11.353664414470606"><ele>237.71428571428572</ele><time>2026-04-11T09:15:30.999Z</time></trkpt><trkpt lat="43.28329720028425" lon="11.3536595248289"><ele>238.0</ele><time>2026-04-11T09:15:31.999Z</time></trkpt><trkpt lat="43.28322759107238" lon="11.353651797466012"><ele>238.0</ele><time>2026-04-11T09:15:32.999Z</time></trkpt><trkpt lat="43.28315934705842" lon="11.35363990829273"><ele>238.0</ele><time>2026-04-11T09:15:33.999Z</time></trkpt><trkpt lat="43.2830907397179" lon="11.353627632562018"><ele>238.0</ele><time>2026-04-11T09:15:34.999Z</time></trkpt><trkpt lat="43.28302289837558" lon="11.353611924566797"><ele>238.0</ele><time>2026-04-11T09:15:35.999Z</time></trkpt><trkpt lat="43.282955651646716" lon="11.353594807519832"><ele>238.0</ele><time>2026-04-11T09:15:36.999Z</time></trkpt><trkpt lat="43.28288818164288" lon="11.35357931221037"><ele>238.0</ele><time>2026-04-11T09:15:37.999Z</time></trkpt><trkpt lat="43.28282132729047" lon="11.3535665787666"><ele>238.0</ele><time>2026-04-11T09:15:38.999Z</time></trkpt><trkpt lat="43.2827533233443" lon="11.353554247883112"><ele>237.99999999999997</ele><time>2026-04-11T09:15:39.999Z</time></trkpt><trkpt lat="43.28268512060243" lon="11.353539832491249"><ele>238.0</ele><time>2026-04-11T09:15:40.999Z</time></trkpt><trkpt lat="43.282619189317764" lon="11.353527275502566"><ele>238.0</ele><time>2026-04-11T09:15:41.999Z</time></trkpt><trkpt lat="43.282489137559644" lon="11.353496678524124"><ele>238.0</ele><time>2026-04-11T09:15:43.999Z</time></trkpt><trkpt lat="43.282423595224685" lon="11.353482754936302"><ele>237.99999999999997</ele><time>2026-04-11T09:15:44.999Z</time></trkpt><trkpt lat="43.28235820839323" lon="11.353465577726197"><ele>238.0</ele><time>2026-04-11T09:15:45.999Z</time></trkpt><trkpt lat="43.282295097801025" lon="11.353447915564445"><ele>238.0</ele><time>2026-04-11T09:15:46.999Z</time></trkpt><trkpt lat="43.282223401581206" lon="11.353434534998426"><ele>238.0</ele><time>2026-04-11T09:15:47.999Z</time></trkpt><trkpt lat="43.28215472524462" lon="11.353419705490095"><ele>238.0</ele><time>2026-04-11T09:15:48.999Z</time></trkpt><trkpt lat="43.28208689030197" lon="11.35340618316675"><ele>238.0</ele><time>2026-04-11T09:15:49.999Z</time></trkpt><trkpt lat="43.28201949134538" lon="11.353390687559385"><ele>238.0</ele><time>2026-04-11T09:15:50.999Z</time></trkpt><trkpt lat="43.281951042213265" lon="11.353376307889258"><ele>238.0</ele><time>2026-04-11T09:15:51.999Z</time></trkpt><trkpt lat="43.2818839067713" lon="11.35336214375909"><ele>238.0</ele><time>2026-04-11T09:15:52.999Z</time></trkpt><trkpt lat="43.281817724157726" lon="11.353346655527815"><ele>238.0</ele><time>2026-04-11T09:15:53.999Z</time></trkpt><trkpt lat="43.28175062867929" lon="11.353330712405848"><ele>238.0</ele><time>2026-04-11T09:15:54.999Z</time></trkpt><trkpt lat="43.28168238649505" lon="11.353314015919354"><ele>238.0</ele><time>2026-04-11T09:15:55.999Z</time></trkpt><trkpt lat="43.28161465210933" lon="11.353298312740735"><ele>238.0</ele><time>2026-04-11T09:15:56.999Z</time></trkpt><trkpt lat="43.28154715799965" lon="11.353282958686703"><ele>238.0</ele><time>2026-04-11T09:15:57.999Z</time></trkpt><trkpt lat="43.28147929975724" lon="11.353268708042915"><ele>238.0</ele><time>2026-04-11T09:15:58.999Z</time></trkpt><trkpt lat="43.28140994168251" lon="11.353252989936802"><ele>238.0</ele><time>2026-04-11T09:15:59.999Z</time></trkpt><trkpt lat="43.281340026303525" lon="11.353239663692486"><ele>238.0</ele><time>2026-04-11T09:16:01Z</time></trkpt><trkpt lat="43.28127036604079" lon="11.353219445896602"><ele>238.0</ele><time>2026-04-11T09:16:02Z</time></trkpt><trkpt lat="43.28120238493177" lon="11.353195596081317"><ele>238.0</ele><time>2026-04-11T09:16:03Z</time></trkpt><trkpt lat="43.28113007221207" lon="11.353171347233713"><ele>238.0</ele><time>2026-04-11T09:16:04Z</time></trkpt><trkpt lat="43.28105509580431" lon="11.353151220584989"><ele>238.0</ele><time>2026-04-11T09:16:05Z</time></trkpt><trkpt lat="43.280981156493525" lon="11.353126567411671"><ele>238.0</ele><time>2026-04-11T09:16:06Z</time></trkpt><trkpt lat="43.280903595346985" lon="11.353097212015342"><ele>238.0</ele><time>2026-04-11T09:16:07Z</time></trkpt><trkpt lat="43.28082446351013" lon="11.35306738830765"><ele>237.49999999999997</ele><time>2026-04-11T09:16:08Z</time></trkpt><trkpt lat="43.280745174435" lon="11.353035322443239"><ele>237.0</ele><time>2026-04-11T09:16:09Z</time></trkpt><trkpt lat="43.28066384354635" lon="11.35300798390546"><ele>236.5</ele><time>2026-04-11T09:16:10Z</time></trkpt><trkpt lat="43.28058031506215" lon="11.352980648468584"><ele>236.0</ele><time>2026-04-11T09:16:11Z</time></trkpt><trkpt lat="43.28049731514045" lon="11.352951678423727"><ele>235.49999999999997</ele><time>2026-04-11T09:16:12Z</time></trkpt><trkpt lat="43.280412801670906" lon="11.352921974211075"><ele>235.0</ele><time>2026-04-11T09:16:13Z</time></trkpt><trkpt lat="43.28032916101276" lon="11.352892666067694"><ele>234.16666666666666</ele><time>2026-04-11T09:16:14Z</time></trkpt><trkpt lat="43.28024447835278" lon="11.35286324856601"><ele>233.33333333333331</ele><time>2026-04-11T09:16:15Z</time></trkpt><trkpt lat="43.280161382978726" lon="11.352831902514367"><ele>232.5</ele><time>2026-04-11T09:16:16Z</time></trkpt><trkpt lat="43.280074262545504" lon="11.352805726276374"><ele>231.66666666666669</ele><time>2026-04-11T09:16:17Z</time></trkpt><trkpt lat="43.27998794180101" lon="11.35278162604315"><ele>230.83333333333334</ele><time>2026-04-11T09:16:18Z</time></trkpt><trkpt lat="43.27990287384787" lon="11.35275376165811"><ele>230.0</ele><time>2026-04-11T09:16:19Z</time></trkpt><trkpt lat="43.27981966127129" lon="11.35272746856323"><ele>229.50000000000003</ele><time>2026-04-11T09:16:20Z</time></trkpt><trkpt lat="43.279734823922716" lon="11.352703133688708"><ele>229.0</ele><time>2026-04-11T09:16:21Z</time></trkpt><trkpt lat="43.279650697785655" lon="11.352683354167018"><ele>228.5</ele><time>2026-04-11T09:16:22Z</time></trkpt><trkpt lat="43.27956781278468" lon="11.35267121908719"><ele>228.0</ele><time>2026-04-11T09:16:23Z</time></trkpt><trkpt lat="43.27948522144395" lon="11.352659678338131"><ele>227.50000000000003</ele><time>2026-04-11T09:16:24Z</time></trkpt><trkpt lat="43.279404577762726" lon="11.352642596373505"><ele>227.0</ele><time>2026-04-11T09:16:25Z</time></trkpt><trkpt lat="43.279325065587216" lon="11.352631893384183"><ele>227.00000000000003</ele><time>2026-04-11T09:16:26Z</time></trkpt><trkpt lat="43.279248959808925" lon="11.35262106312078"><ele>227.0</ele><time>2026-04-11T09:16:27Z</time></trkpt><trkpt lat="43.279173882922805" lon="11.352612073809828"><ele>227.0</ele><time>2026-04-11T09:16:28Z</time></trkpt><trkpt lat="43.27909752984383" lon="11.35260346710467"><ele>227.0</ele><time>2026-04-11T09:16:29Z</time></trkpt><trkpt lat="43.27902161751252" lon="11.352599931217199"><ele>227.00000000000003</ele><time>2026-04-11T09:16:30Z</time></trkpt><trkpt lat="43.27894524103521" lon="11.352605107037071"><ele>227.0</ele><time>2026-04-11T09:16:31Z</time></trkpt><trkpt lat="43.2788701289459" lon="11.352618688310908"><ele>227.00000000000003</ele><time>2026-04-11T09:16:32Z</time></trkpt><trkpt lat="43.27879670333839" lon="11.352631646622424"><ele>227.0</ele><time>2026-04-11T09:16:33Z</time></trkpt><trkpt lat="43.27872219399804" lon="11.352651305831532"><ele>227.0</ele><time>2026-04-11T09:16:34Z</time></trkpt><trkpt lat="43.278650716130336" lon="11.352686145019666"><ele>227.0</ele><time>2026-04-11T09:16:35Z</time></trkpt><trkpt lat="43.27858084532687" lon="11.352729362256078"><ele>227.00000000000003</ele><time>2026-04-11T09:16:36Z</time></trkpt><trkpt lat="43.27850865605089" lon="11.352770789384845"><ele>227.0</ele><time>2026-04-11T09:16:37Z</time></trkpt><trkpt lat="43.27843765689274" lon="11.352814567102877"><ele>227.00000000000003</ele><time>2026-04-11T09:16:38Z</time></trkpt><trkpt lat="43.278366225079886" lon="11.35285852999531"><ele>227.0</ele><time>2026-04-11T09:16:39Z</time></trkpt><trkpt lat="43.278293310919906" lon="11.352902961388232"><ele>227.0</ele><time>2026-04-11T09:16:40Z</time></trkpt><trkpt lat="43.27821991386924" lon="11.35295021483768"><ele>227.0</ele><time>2026-04-11T09:16:41Z</time></trkpt><trkpt lat="43.278147233362894" lon="11.35299591923065"><ele>227.00000000000003</ele><time>2026-04-11T09:16:42Z</time></trkpt><trkpt lat="43.27807483046071" lon="11.353044449857565"><ele>227.0</ele><time>2026-04-11T09:16:43Z</time></trkpt><trkpt lat="43.27800110221794" lon="11.35309218811552"><ele>227.66666666666669</ele><time>2026-04-11T09:16:44Z</time></trkpt><trkpt lat="43.277925738119194" lon="11.353139306415878"><ele>228.33333333333334</ele><time>2026-04-11T09:16:45Z</time></trkpt><trkpt lat="43.277850061173986" lon="11.353186702771486"><ele>229.0</ele><time>2026-04-11T09:16:46Z</time></trkpt><trkpt lat="43.27777195714952" lon="11.353232877670823"><ele>229.66666666666669</ele><time>2026-04-11T09:16:47Z</time></trkpt><trkpt lat="43.27769367108694" lon="11.353277464547107"><ele>230.33333333333334</ele><time>2026-04-11T09:16:48Z</time></trkpt><trkpt lat="43.277616241561" lon="11.353325908887978"><ele>231.0</ele><time>2026-04-11T09:16:49Z</time></trkpt><trkpt lat="43.27754085860787" lon="11.353373159714586"><ele>231.0</ele><time>2026-04-11T09:16:50Z</time></trkpt><trkpt lat="43.27746533752653" lon="11.353419403444807"><ele>231.0</ele><time>2026-04-11T09:16:51Z</time></trkpt><trkpt lat="43.27738941849956" lon="11.353462545063477"><ele>231.0</ele><time>2026-04-11T09:16:52Z</time></trkpt><trkpt lat="43.27731379358156" lon="11.353504175040952"><ele>231.0</ele><time>2026-04-11T09:16:53Z</time></trkpt><trkpt lat="43.27723833252562" lon="11.353542596359292"><ele>231.0</ele><time>2026-04-11T09:16:54Z</time></trkpt><trkpt lat="43.27716155224886" lon="11.353575751222536"><ele>231.0</ele><time>2026-04-11T09:16:55Z</time></trkpt><trkpt lat="43.27708239264671" lon="11.353605574751525"><ele>231.16666666666666</ele><time>2026-04-11T09:16:56Z</time></trkpt><trkpt lat="43.27700488796715" lon="11.353634938084912"><ele>231.33333333333331</ele><time>2026-04-11T09:16:57Z</time></trkpt><trkpt lat="43.27692589639733" lon="11.35365548205792"><ele>231.5</ele><time>2026-04-11T09:16:58Z</time></trkpt><trkpt lat="43.27684387213784" lon="11.35366988806321"><ele>231.66666666666666</ele><time>2026-04-11T09:16:59Z</time></trkpt><trkpt lat="43.27676024417902" lon="11.35368661805922"><ele>231.83333333333331</ele><time>2026-04-11T09:17:00Z</time></trkpt><trkpt lat="43.276674338719616" lon="11.353705332731565"><ele>232.0</ele><time>2026-04-11T09:17:01Z</time></trkpt><trkpt lat="43.276586617266844" lon="11.353719994151"><ele>232.0</ele><time>2026-04-11T09:17:02Z</time></trkpt><trkpt lat="43.276497996666905" lon="11.353737507490226"><ele>232.0</ele><time>2026-04-11T09:17:03Z</time></trkpt><trkpt lat="43.276408050230245" lon="11.353752143299117"><ele>232.0</ele><time>2026-04-11T09:17:04Z</time></trkpt><trkpt lat="43.27631797819449" lon="11.353769977140171"><ele>232.0</ele><time>2026-04-11T09:17:05Z</time></trkpt><trkpt lat="43.276227061710195" lon="11.353790920140705"><ele>232.0</ele><time>2026-04-11T09:17:06Z</time></trkpt><trkpt lat="43.27613296704465" lon="11.353811185612843"><ele>231.0</ele><time>2026-04-11T09:17:07Z</time></trkpt><trkpt lat="43.27603933184717" lon="11.35382825617615"><ele>230.0</ele><time>2026-04-11T09:17:08Z</time></trkpt><trkpt lat="43.27594478701515" lon="11.353848622135349"><ele>229.0</ele><time>2026-04-11T09:17:09Z</time></trkpt><trkpt lat="43.275848975267245" lon="11.353868548810574"><ele>228.0</ele><time>2026-04-11T09:17:10Z</time></trkpt><trkpt lat="43.2757527884424" lon="11.3538843709159"><ele>227.0</ele><time>2026-04-11T09:17:11Z</time></trkpt><trkpt lat="43.2756557276763" lon="11.35390575973556"><ele>226.0</ele><time>2026-04-11T09:17:12Z</time></trkpt><trkpt lat="43.27556006441306" lon="11.353928376084848"><ele>225.0</ele><time>2026-04-11T09:17:13Z</time></trkpt><trkpt lat="43.27546368581391" lon="11.353945125196656"><ele>224.0</ele><time>2026-04-11T09:17:14Z</time></trkpt><trkpt lat="43.27536866670668" lon="11.35396401661734"><ele>223.0</ele><time>2026-04-11T09:17:15Z</time></trkpt><trkpt lat="43.27527909464768" lon="11.353979163817643"><ele>222.0</ele><time>2026-04-11T09:17:16Z</time></trkpt><trkpt lat="43.275190175483004" lon="11.353996186183595"><ele>222.0</ele><time>2026-04-11T09:17:17Z</time></trkpt><trkpt lat="43.275100674563824" lon="11.35401582115619"><ele>222.0</ele><time>2026-04-11T09:17:18Z</time></trkpt><trkpt lat="43.27501076725755" lon="11.354032903350546"><ele>222.0</ele><time>2026-04-11T09:17:19Z</time></trkpt><trkpt lat="43.274922472639055" lon="11.354056138584301"><ele>222.0</ele><time>2026-04-11T09:17:20Z</time></trkpt><trkpt lat="43.274834799757144" lon="11.354090303654683"><ele>222.0</ele><time>2026-04-11T09:17:21Z</time></trkpt><trkpt lat="43.27475061151471" lon="11.354127451657943"><ele>222.5</ele><time>2026-04-11T09:17:21.999Z</time></trkpt><trkpt lat="43.27466890381585" lon="11.35417219800679"><ele>223.0</ele><time>2026-04-11T09:17:22.999Z</time></trkpt><trkpt lat="43.274592986917476" lon="11.354227228911281"><ele>223.5</ele><time>2026-04-11T09:17:23.999Z</time></trkpt><trkpt lat="43.27452127033022" lon="11.3542938386082"><ele>224.0</ele><time>2026-04-11T09:17:24.999Z</time></trkpt><trkpt lat="43.274452997158704" lon="11.354362972135563"><ele>224.5</ele><time>2026-04-11T09:17:25.999Z</time></trkpt><trkpt lat="43.27438914967294" lon="11.354435486039398"><ele>225.0</ele><time>2026-04-11T09:17:26.999Z</time></trkpt><trkpt lat="43.27433054946827" lon="11.35451225781396"><ele>225.0</ele><time>2026-04-11T09:17:27.999Z</time></trkpt><trkpt lat="43.27427560229073" lon="11.354593201176018"><ele>225.0</ele><time>2026-04-11T09:17:28.999Z</time></trkpt><trkpt lat="43.274221248626056" lon="11.35467470795206"><ele>225.0</ele><time>2026-04-11T09:17:29.999Z</time></trkpt><trkpt lat="43.27417091281812" lon="11.354756618868619"><ele>225.0</ele><time>2026-04-11T09:17:30.999Z</time></trkpt><trkpt lat="43.27412017346438" lon="11.354832095706936"><ele>225.0</ele><time>2026-04-11T09:17:31.999Z</time></trkpt><trkpt lat="43.27407002240737" lon="11.354907968184266"><ele>225.0</ele><time>2026-04-11T09:17:32.999Z</time></trkpt><trkpt lat="43.2740198523763" lon="11.354982426266885"><ele>224.5714285714286</ele><time>2026-04-11T09:17:33.999Z</time></trkpt><trkpt lat="43.273967919226784" lon="11.355050601418355"><ele>224.14285714285717</ele><time>2026-04-11T09:17:34.999Z</time></trkpt><trkpt lat="43.273912743598636" lon="11.355113904365663"><ele>223.71428571428572</ele><time>2026-04-11T09:17:35.999Z</time></trkpt><trkpt lat="43.27385631623807" lon="11.355173318390975"><ele>223.2857142857143</ele><time>2026-04-11T09:17:36.999Z</time></trkpt><trkpt lat="43.273802346091095" lon="11.355233767277843"><ele>222.8571428571429</ele><time>2026-04-11T09:17:37.999Z</time></trkpt><trkpt lat="43.27374892745645" lon="11.355295413492392"><ele>222.42857142857142</ele><time>2026-04-11T09:17:38.999Z</time></trkpt><trkpt lat="43.27369646385965" lon="11.355356930709604"><ele>222.0</ele><time>2026-04-11T09:17:39.999Z</time></trkpt><trkpt lat="43.27364330455301" lon="11.355413912896237"><ele>222.14285714285714</ele><time>2026-04-11T09:17:40.999Z</time></trkpt><trkpt lat="43.27358989601823" lon="11.355471407200243"><ele>222.2857142857143</ele><time>2026-04-11T09:17:41.999Z</time></trkpt><trkpt lat="43.27353926028471" lon="11.355531402229612"><ele>222.42857142857144</ele><time>2026-04-11T09:17:42.999Z</time></trkpt><trkpt lat="43.2734871127889" lon="11.35558594691591"><ele>222.57142857142856</ele><time>2026-04-11T09:17:43.999Z</time></trkpt><trkpt lat="43.273436087514575" lon="11.355642942019893"><ele>222.71428571428572</ele><time>2026-04-11T09:17:44.999Z</time></trkpt><trkpt lat="43.273385858767504" lon="11.355701064563668"><ele>222.85714285714286</ele><time>2026-04-11T09:17:45.999Z</time></trkpt><trkpt lat="43.27333537893971" lon="11.355759293981802"><ele>223.0</ele><time>2026-04-11T09:17:46.999Z</time></trkpt><trkpt lat="43.273283883204186" lon="11.35581383748193"><ele>223.0</ele><time>2026-04-11T09:17:47.999Z</time></trkpt><trkpt lat="43.273235299544794" lon="11.355870017512725"><ele>223.0</ele><time>2026-04-11T09:17:48.999Z</time></trkpt><trkpt lat="43.27318622485829" lon="11.355926589854336"><ele>223.0</ele><time>2026-04-11T09:17:49.999Z</time></trkpt><trkpt lat="43.27313562651735" lon="11.355984350936408"><ele>223.0</ele><time>2026-04-11T09:17:50.999Z</time></trkpt><trkpt lat="43.27308318599105" lon="11.35604044403671"><ele>223.0</ele><time>2026-04-11T09:17:51.999Z</time></trkpt><trkpt lat="43.27303400127488" lon="11.356096016074618"><ele>223.0</ele><time>2026-04-11T09:17:52.999Z</time></trkpt><trkpt lat="43.272985427102164" lon="11.356151644145083"><ele>223.0</ele><time>2026-04-11T09:17:53.999Z</time></trkpt><trkpt lat="43.272933973196736" lon="11.356207283143107"><ele>223.66666666666666</ele><time>2026-04-11T09:17:54.999Z</time></trkpt><trkpt lat="43.2728823319101" lon="11.356267084827527"><ele>224.33333333333331</ele><time>2026-04-11T09:17:55.999Z</time></trkpt><trkpt lat="43.27278715728012" lon="11.356381735047695"><ele>225.0</ele><time>2026-04-11T09:17:57.999Z</time></trkpt><trkpt lat="43.27273758193171" lon="11.35643645082354"><ele>225.66666666666669</ele><time>2026-04-11T09:17:58.999Z</time></trkpt><trkpt lat="43.27263834272659" lon="11.356541293979184"><ele>226.33333333333334</ele><time>2026-04-11T09:18:00.999Z</time></trkpt><trkpt lat="43.27258841879888" lon="11.35659535657429"><ele>227.0</ele><time>2026-04-11T09:18:01.999Z</time></trkpt><trkpt lat="43.27253303860965" lon="11.356649340168715"><ele>227.0</ele><time>2026-04-11T09:18:02.999Z</time></trkpt><trkpt lat="43.27243953035475" lon="11.356764917983877"><ele>227.0</ele><time>2026-04-11T09:18:04.999Z</time></trkpt><trkpt lat="43.272387283511776" lon="11.356815468196503"><ele>227.0</ele><time>2026-04-11T09:18:05.999Z</time></trkpt><trkpt lat="43.2723369448737" lon="11.356868679236287"><ele>227.0</ele><time>2026-04-11T09:18:07Z</time></trkpt><trkpt lat="43.272243670821815" lon="11.356979342134524"><ele>227.0</ele><time>2026-04-11T09:18:09Z</time></trkpt><trkpt lat="43.27214902496947" lon="11.357084042470508"><ele>226.0</ele><time>2026-04-11T09:18:11Z</time></trkpt><trkpt lat="43.27205700225536" lon="11.357190299178491"><ele>225.0</ele><time>2026-04-11T09:18:13Z</time></trkpt><trkpt lat="43.27196769852679" lon="11.357293404523123"><ele>224.0</ele><time>2026-04-11T09:18:15Z</time></trkpt><trkpt lat="43.271869241553865" lon="11.357374326339517"><ele>223.0</ele><time>2026-04-11T09:18:17Z</time></trkpt><trkpt lat="43.27175632293727" lon="11.357370790072945"><ele>223.0</ele><time>2026-04-11T09:18:19Z</time></trkpt><trkpt lat="43.27170261837207" lon="11.35732213503481"><ele>223.0</ele><time>2026-04-11T09:18:20Z</time></trkpt><trkpt lat="43.27164637914862" lon="11.35725826255084"><ele>223.0</ele><time>2026-04-11T09:18:21Z</time></trkpt><trkpt lat="43.2715925013439" lon="11.357197906202837"><ele>223.0</ele><time>2026-04-11T09:18:22Z</time></trkpt><trkpt lat="43.27153558279053" lon="11.35713433938302"><ele>223.0</ele><time>2026-04-11T09:18:23Z</time></trkpt><trkpt lat="43.271472833232714" lon="11.357072874090319"><ele>223.0</ele><time>2026-04-11T09:18:24Z</time></trkpt><trkpt lat="43.271410903324636" lon="11.357006466614882"><ele>223.0</ele><time>2026-04-11T09:18:25Z</time></trkpt><trkpt lat="43.27134802120437" lon="11.356932849885377"><ele>222.83333333333331</ele><time>2026-04-11T09:18:26Z</time></trkpt><trkpt lat="43.27128390280263" lon="11.356854987153506"><ele>222.66666666666666</ele><time>2026-04-11T09:18:27Z</time></trkpt><trkpt lat="43.27121593087024" lon="11.356777143495162"><ele>222.5</ele><time>2026-04-11T09:18:28Z</time></trkpt><trkpt lat="43.27114551257346" lon="11.35670270880309"><ele>222.33333333333331</ele><time>2026-04-11T09:18:29Z</time></trkpt><trkpt lat="43.27107500271448" lon="11.356631664329278"><ele>222.16666666666666</ele><time>2026-04-11T09:18:30Z</time></trkpt><trkpt lat="43.27099967198855" lon="11.356559009874081"><ele>222.0</ele><time>2026-04-11T09:18:31Z</time></trkpt><trkpt lat="43.270925321446356" lon="11.356482772564773"><ele>222.0</ele><time>2026-04-11T09:18:32Z</time></trkpt><trkpt lat="43.27085283541347" lon="11.356407932002417"><ele>222.0</ele><time>2026-04-11T09:18:33Z</time></trkpt><trkpt lat="43.27078390613995" lon="11.356334038252465"><ele>222.0</ele><time>2026-04-11T09:18:34Z</time></trkpt><trkpt lat="43.270714335335825" lon="11.356265070280635"><ele>222.0</ele><time>2026-04-11T09:18:35Z</time></trkpt><trkpt lat="43.270644017506896" lon="11.35619136084739"><ele>222.0</ele><time>2026-04-11T09:18:36Z</time></trkpt><trkpt lat="43.270574864403486" lon="11.356114701519726"><ele>222.0</ele><time>2026-04-11T09:18:37Z</time></trkpt><trkpt lat="43.27050601387941" lon="11.356039917688516"><ele>220.0</ele><time>2026-04-11T09:18:38Z</time></trkpt><trkpt lat="43.27043470647293" lon="11.355978620384045"><ele>218.0</ele><time>2026-04-11T09:18:39Z</time></trkpt><trkpt lat="43.27035726786851" lon="11.355934286459908"><ele>216.0</ele><time>2026-04-11T09:18:40Z</time></trkpt><trkpt lat="43.27027444078898" lon="11.355903328732971"><ele>214.0</ele><time>2026-04-11T09:18:41Z</time></trkpt><trkpt lat="43.270187353238" lon="11.355889617532263"><ele>212.0</ele><time>2026-04-11T09:18:42Z</time></trkpt><trkpt lat="43.27009853404889" lon="11.355883368750149"><ele>210.0</ele><time>2026-04-11T09:18:43Z</time></trkpt><trkpt lat="43.270007162712844" lon="11.355887420500062"><ele>210.0</ele><time>2026-04-11T09:18:44Z</time></trkpt><trkpt lat="43.26991307780859" lon="11.355898920551779"><ele>210.0</ele><time>2026-04-11T09:18:45Z</time></trkpt><trkpt lat="43.26982198588142" lon="11.355919613941435"><ele>210.0</ele><time>2026-04-11T09:18:46Z</time></trkpt><trkpt lat="43.269733258030314" lon="11.355950326506697"><ele>210.0</ele><time>2026-04-11T09:18:47Z</time></trkpt><trkpt lat="43.26964146668831" lon="11.35599330487361"><ele>210.0</ele><time>2026-04-11T09:18:48Z</time></trkpt><trkpt lat="43.26955211957492" lon="11.35605216698884"><ele>208.4</ele><time>2026-04-11T09:18:49Z</time></trkpt><trkpt lat="43.269464760858284" lon="11.356120791248232"><ele>206.8</ele><time>2026-04-11T09:18:50Z</time></trkpt><trkpt lat="43.269383142449115" lon="11.356199070864085"><ele>205.2</ele><time>2026-04-11T09:18:51Z</time></trkpt><trkpt lat="43.26930733243459" lon="11.356287253725336"><ele>203.6</ele><time>2026-04-11T09:18:52Z</time></trkpt><trkpt lat="43.26924080359556" lon="11.356390257053421"><ele>202.0</ele><time>2026-04-11T09:18:53Z</time></trkpt><trkpt lat="43.26917399067261" lon="11.356499500681142"><ele>202.0</ele><time>2026-04-11T09:18:54Z</time></trkpt><trkpt lat="43.26911504088195" lon="11.356617976473924"><ele>202.0</ele><time>2026-04-11T09:18:55Z</time></trkpt><trkpt lat="43.26906110503875" lon="11.356746748782184"><ele>202.0</ele><time>2026-04-11T09:18:56Z</time></trkpt><trkpt lat="43.26899843949289" lon="11.356872512514405"><ele>202.0</ele><time>2026-04-11T09:18:57Z</time></trkpt><trkpt lat="43.26895953042908" lon="11.357015124336035"><ele>202.0</ele><time>2026-04-11T09:18:58Z</time></trkpt><trkpt lat="43.268940327618424" lon="11.357169694343145"><ele>202.39999999999998</ele><time>2026-04-11T09:18:59Z</time></trkpt><trkpt lat="43.268945722087814" lon="11.357324734313373"><ele>202.79999999999998</ele><time>2026-04-11T09:19:00Z</time></trkpt><trkpt lat="43.26893999992844" lon="11.357477055683924"><ele>203.2</ele><time>2026-04-11T09:19:01Z</time></trkpt><trkpt lat="43.26893631512078" lon="11.357627204913005"><ele>203.6</ele><time>2026-04-11T09:19:02Z</time></trkpt><trkpt lat="43.26893386780031" lon="11.357774237456018"><ele>204.0</ele><time>2026-04-11T09:19:03Z</time></trkpt><trkpt lat="43.26893317244668" lon="11.357917764454909"><ele>201.0</ele><time>2026-04-11T09:19:04Z</time></trkpt><trkpt lat="43.26892879676474" lon="11.358060140920752"><ele>198.0</ele><time>2026-04-11T09:19:05Z</time></trkpt><trkpt lat="43.268923243862595" lon="11.358205662463916"><ele>195.0</ele><time>2026-04-11T09:19:06Z</time></trkpt><trkpt lat="43.26890813971729" lon="11.35835034484398"><ele>192.0</ele><time>2026-04-11T09:19:07Z</time></trkpt><trkpt lat="43.26888299468534" lon="11.358486446758501"><ele>189.0</ele><time>2026-04-11T09:19:08Z</time></trkpt><trkpt lat="43.26884779156394" lon="11.35861239842987"><ele>189.0</ele><time>2026-04-11T09:19:09Z</time></trkpt><trkpt lat="43.26880720211136" lon="11.358731278051831"><ele>189.0</ele><time>2026-04-11T09:19:10Z</time></trkpt><trkpt lat="43.268758837428855" lon="11.358854521614752"><ele>189.0</ele><time>2026-04-11T09:19:11Z</time></trkpt><trkpt lat="43.26869439676618" lon="11.358964804661234"><ele>189.0</ele><time>2026-04-11T09:19:12Z</time></trkpt><trkpt lat="43.26861886716545" lon="11.35907207062902"><ele>189.0</ele><time>2026-04-11T09:19:13Z</time></trkpt><trkpt lat="43.26853224979699" lon="11.359169449304195"><ele>189.25</ele><time>2026-04-11T09:19:14Z</time></trkpt><trkpt lat="43.26843480554776" lon="11.359250445167262"><ele>189.5</ele><time>2026-04-11T09:19:15Z</time></trkpt><trkpt lat="43.26832595580832" lon="11.359315995799527"><ele>189.75</ele><time>2026-04-11T09:19:16Z</time></trkpt><trkpt lat="43.268212440215656" lon="11.35936727332988"><ele>190.0</ele><time>2026-04-11T09:19:17Z</time></trkpt><trkpt lat="43.268095898103475" lon="11.35939783982597"><ele>189.2</ele><time>2026-04-11T09:19:18Z</time></trkpt><trkpt lat="43.267980644915674" lon="11.359406832410475"><ele>188.4</ele><time>2026-04-11T09:19:19Z</time></trkpt><trkpt lat="43.26788005665412" lon="11.35939276953244"><ele>187.60000000000002</ele><time>2026-04-11T09:19:20Z</time></trkpt><trkpt lat="43.2677857019258" lon="11.359367687706659"><ele>186.8</ele><time>2026-04-11T09:19:21Z</time></trkpt><trkpt lat="43.26769620865645" lon="11.35933761955359"><ele>186.0</ele><time>2026-04-11T09:19:22Z</time></trkpt><trkpt lat="43.26761873079722" lon="11.359309611879535"><ele>186.00000000000003</ele><time>2026-04-11T09:19:23Z</time></trkpt><trkpt lat="43.2675491457491" lon="11.359284744320755"><ele>186.0</ele><time>2026-04-11T09:19:24Z</time></trkpt><trkpt lat="43.26748144750781" lon="11.35925832336276"><ele>186.0</ele><time>2026-04-11T09:19:24.999Z</time></trkpt><trkpt lat="43.26741270824723" lon="11.35923207692748"><ele>186.0</ele><time>2026-04-11T09:19:25.999Z</time></trkpt><trkpt lat="43.26734562775922" lon="11.359197159058219"><ele>186.0</ele><time>2026-04-11T09:19:26.999Z</time></trkpt><trkpt lat="43.26728052688056" lon="11.359156461469833"><ele>186.00000000000003</ele><time>2026-04-11T09:19:27.999Z</time></trkpt><trkpt lat="43.26721736802416" lon="11.359126354385133"><ele>186.0</ele><time>2026-04-11T09:19:28.999Z</time></trkpt><trkpt lat="43.26715230639379" lon="11.359101165183242"><ele>185.85714285714286</ele><time>2026-04-11T09:19:29.999Z</time></trkpt><trkpt lat="43.2670869054089" lon="11.35907708735694"><ele>185.71428571428572</ele><time>2026-04-11T09:19:30.999Z</time></trkpt><trkpt lat="43.2670221685254" lon="11.35905294872089"><ele>185.57142857142856</ele><time>2026-04-11T09:19:31.999Z</time></trkpt><trkpt lat="43.26695952669868" lon="11.359028526992148"><ele>185.42857142857144</ele><time>2026-04-11T09:19:32.999Z</time></trkpt><trkpt lat="43.266896445000434" lon="11.35900411717868"><ele>185.28571428571428</ele><time>2026-04-11T09:19:33.999Z</time></trkpt><trkpt lat="43.26683245570221" lon="11.358980382808697"><ele>185.14285714285714</ele><time>2026-04-11T09:19:34.999Z</time></trkpt><trkpt lat="43.26676903779507" lon="11.358954821110322"><ele>185.0</ele><time>2026-04-11T09:19:35.999Z</time></trkpt><trkpt lat="43.26670753677047" lon="11.358928499870714"><ele>185.0</ele><time>2026-04-11T09:19:36.999Z</time></trkpt><trkpt lat="43.26658966154913" lon="11.358873640599244"><ele>185.0</ele><time>2026-04-11T09:19:38.999Z</time></trkpt><trkpt lat="43.26648295514222" lon="11.358815870160953"><ele>185.0</ele><time>2026-04-11T09:19:40.999Z</time></trkpt><trkpt lat="43.266370784109306" lon="11.358765315355683"><ele>185.0</ele><time>2026-04-11T09:19:42.999Z</time></trkpt><trkpt lat="43.26624824372618" lon="11.358715419381253"><ele>185.0</ele><time>2026-04-11T09:19:44.999Z</time></trkpt><trkpt lat="43.26617932056855" lon="11.358687713041327"><ele>185.0</ele><time>2026-04-11T09:19:45.999Z</time></trkpt><trkpt lat="43.266106027492384" lon="11.358658343119032"><ele>185.0</ele><time>2026-04-11T09:19:46.999Z</time></trkpt><trkpt lat="43.26603284845733" lon="11.358627055493127"><ele>185.0</ele><time>2026-04-11T09:19:47.999Z</time></trkpt><trkpt lat="43.265961599483" lon="11.358595342785764"><ele>185.0</ele><time>2026-04-11T09:19:48.999Z</time></trkpt><trkpt lat="43.26588798900729" lon="11.358561400635782"><ele>185.0</ele><time>2026-04-11T09:19:49.999Z</time></trkpt><trkpt lat="43.2658159157015" lon="11.358531755479294"><ele>185.0</ele><time>2026-04-11T09:19:50.999Z</time></trkpt><trkpt lat="43.265745889476165" lon="11.358504241086768"><ele>185.0</ele><time>2026-04-11T09:19:51.999Z</time></trkpt><trkpt lat="43.26567480932219" lon="11.358472018834233"><ele>185.0</ele><time>2026-04-11T09:19:52.999Z</time></trkpt><trkpt lat="43.265603798399006" lon="11.358442169175097"><ele>185.0</ele><time>2026-04-11T09:19:53.999Z</time></trkpt><trkpt lat="43.26552367358899" lon="11.358409083334232"><ele>185.0</ele><time>2026-04-11T09:19:54.999Z</time></trkpt><trkpt lat="43.26545228061616" lon="11.358378809993583"><ele>185.0</ele><time>2026-04-11T09:19:55.999Z</time></trkpt><trkpt lat="43.265377877746715" lon="11.358341422151245"><ele>184.85714285714283</ele><time>2026-04-11T09:19:56.999Z</time></trkpt><trkpt lat="43.265307514009635" lon="11.358309344831481"><ele>184.71428571428572</ele><time>2026-04-11T09:19:57.999Z</time></trkpt><trkpt lat="43.265236472394704" lon="11.358279276083113"><ele>184.57142857142856</ele><time>2026-04-11T09:19:58.999Z</time></trkpt><trkpt lat="43.26516751963294" lon="11.358253947652678"><ele>184.42857142857142</ele><time>2026-04-11T09:19:59.999Z</time></trkpt><trkpt lat="43.265099829305" lon="11.358229200521249"><ele>184.28571428571428</ele><time>2026-04-11T09:20:00.999Z</time></trkpt><trkpt lat="43.26503394583781" lon="11.358205697137214"><ele>184.14285714285714</ele><time>2026-04-11T09:20:01.999Z</time></trkpt><trkpt lat="43.264965761021635" lon="11.358188957846023"><ele>184.0</ele><time>2026-04-11T09:20:02.999Z</time></trkpt><trkpt lat="43.26489498648106" lon="11.35818295770322"><ele>184.0</ele><time>2026-04-11T09:20:03.999Z</time></trkpt><trkpt lat="43.264823119174906" lon="11.358194334241336"><ele>184.0</ele><time>2026-04-11T09:20:04.999Z</time></trkpt><trkpt lat="43.26475502263643" lon="11.358224641227215"><ele>184.0</ele><time>2026-04-11T09:20:05.999Z</time></trkpt><trkpt lat="43.26469244839464" lon="11.358265775568405"><ele>184.0</ele><time>2026-04-11T09:20:06.999Z</time></trkpt><trkpt lat="43.26463493557952" lon="11.358316459501118"><ele>184.0</ele><time>2026-04-11T09:20:07.999Z</time></trkpt><trkpt lat="43.26458566427077" lon="11.358374507843585"><ele>184.0</ele><time>2026-04-11T09:20:08.999Z</time></trkpt><trkpt lat="43.26454221222676" lon="11.358443104515974"><ele>184.0</ele><time>2026-04-11T09:20:09.999Z</time></trkpt><trkpt lat="43.26450614002937" lon="11.358516458382157"><ele>184.0</ele><time>2026-04-11T09:20:10.999Z</time></trkpt><trkpt lat="43.26446900706033" lon="11.358594546109865"><ele>184.0</ele><time>2026-04-11T09:20:11.999Z</time></trkpt><trkpt lat="43.26442498564282" lon="11.358660807850816"><ele>184.0</ele><time>2026-04-11T09:20:13Z</time></trkpt><trkpt lat="43.264389432454685" lon="11.358732986938234"><ele>184.0</ele><time>2026-04-11T09:20:14Z</time></trkpt><trkpt lat="43.26434613479081" lon="11.358807179166664"><ele>184.0</ele><time>2026-04-11T09:20:15Z</time></trkpt><trkpt lat="43.264302464087706" lon="11.358881720501945"><ele>184.0</ele><time>2026-04-11T09:20:16Z</time></trkpt><trkpt lat="43.26425962917908" lon="11.358955529360411"><ele>184.0</ele><time>2026-04-11T09:20:17Z</time></trkpt><trkpt lat="43.264214175567616" lon="11.3590272773038"><ele>184.0</ele><time>2026-04-11T09:20:18Z</time></trkpt><trkpt lat="43.26416589577497" lon="11.359094682844935"><ele>184.0</ele><time>2026-04-11T09:20:19Z</time></trkpt><trkpt lat="43.264113874892956" lon="11.359157062714004"><ele>184.0</ele><time>2026-04-11T09:20:20Z</time></trkpt><trkpt lat="43.26405866436491" lon="11.359214871519441"><ele>184.0</ele><time>2026-04-11T09:20:21Z</time></trkpt><trkpt lat="43.26400066531542" lon="11.359266169349679"><ele>184.0</ele><time>2026-04-11T09:20:22Z</time></trkpt><trkpt lat="43.2639397611505" lon="11.359312866011466"><ele>184.0</ele><time>2026-04-11T09:20:23Z</time></trkpt><trkpt lat="43.2638801472539" lon="11.359358874262137"><ele>184.0</ele><time>2026-04-11T09:20:24Z</time></trkpt><trkpt lat="43.263815676427946" lon="11.359401988871621"><ele>183.85714285714286</ele><time>2026-04-11T09:20:25Z</time></trkpt><trkpt lat="43.26375050049778" lon="11.359447055189744"><ele>183.7142857142857</ele><time>2026-04-11T09:20:26Z</time></trkpt><trkpt lat="43.26368518432672" lon="11.359492191233578"><ele>183.57142857142856</ele><time>2026-04-11T09:20:27Z</time></trkpt><trkpt lat="43.263618811609334" lon="11.359535436170283"><ele>183.42857142857144</ele><time>2026-04-11T09:20:28Z</time></trkpt><trkpt lat="43.263551608267576" lon="11.3595823096529"><ele>183.28571428571428</ele><time>2026-04-11T09:20:29Z</time></trkpt><trkpt lat="43.263488995921584" lon="11.359634680253683"><ele>183.14285714285714</ele><time>2026-04-11T09:20:30Z</time></trkpt><trkpt lat="43.263424606181445" lon="11.359691819009914"><ele>183.0</ele><time>2026-04-11T09:20:31Z</time></trkpt><trkpt lat="43.263360779212" lon="11.359749310314411"><ele>182.83333333333334</ele><time>2026-04-11T09:20:32Z</time></trkpt><trkpt lat="43.2632961687949" lon="11.359807854672823"><ele>182.66666666666666</ele><time>2026-04-11T09:20:33Z</time></trkpt><trkpt lat="43.26323313012867" lon="11.35986973684669"><ele>182.5</ele><time>2026-04-11T09:20:34Z</time></trkpt><trkpt lat="43.263175428760064" lon="11.359935220358855"><ele>182.33333333333331</ele><time>2026-04-11T09:20:35Z</time></trkpt><trkpt lat="43.26311770989154" lon="11.360001011713099"><ele>182.16666666666666</ele><time>2026-04-11T09:20:36Z</time></trkpt><trkpt lat="43.2630611405642" lon="11.360065168672483"><ele>182.0</ele><time>2026-04-11T09:20:37Z</time></trkpt><trkpt lat="43.26300291332327" lon="11.360130634247238"><ele>182.14285714285714</ele><time>2026-04-11T09:20:38Z</time></trkpt><trkpt lat="43.262948507603724" lon="11.360191367473798"><ele>182.28571428571428</ele><time>2026-04-11T09:20:39Z</time></trkpt><trkpt lat="43.26289037026147" lon="11.360253387235923"><ele>182.42857142857144</ele><time>2026-04-11T09:20:40Z</time></trkpt><trkpt lat="43.262832999337384" lon="11.360313373317137"><ele>182.57142857142856</ele><time>2026-04-11T09:20:41Z</time></trkpt><trkpt lat="43.26277588533454" lon="11.36037715948018"><ele>182.71428571428572</ele><time>2026-04-11T09:20:42Z</time></trkpt><trkpt lat="43.262721934945745" lon="11.360440292948681"><ele>182.85714285714286</ele><time>2026-04-11T09:20:43Z</time></trkpt><trkpt lat="43.26266817342954" lon="11.360502607749066"><ele>183.0</ele><time>2026-04-11T09:20:44Z</time></trkpt><trkpt lat="43.262614809434474" lon="11.360566483460754"><ele>183.0</ele><time>2026-04-11T09:20:45Z</time></trkpt><trkpt lat="43.262561948190665" lon="11.360631406982238"><ele>183.0</ele><time>2026-04-11T09:20:46Z</time></trkpt><trkpt lat="43.26251089694961" lon="11.360693903568372"><ele>183.0</ele><time>2026-04-11T09:20:47Z</time></trkpt><trkpt lat="43.26246080764127" lon="11.360756152268992"><ele>183.0</ele><time>2026-04-11T09:20:48Z</time></trkpt><trkpt lat="43.262408847517776" lon="11.36082030115835"><ele>183.0</ele><time>2026-04-11T09:20:49Z</time></trkpt><trkpt lat="43.262314333742594" lon="11.360943804813772"><ele>183.0</ele><time>2026-04-11T09:20:51Z</time></trkpt><trkpt lat="43.26226700890461" lon="11.361008941977028"><ele>182.85714285714286</ele><time>2026-04-11T09:20:52Z</time></trkpt><trkpt lat="43.26221725443136" lon="11.36107011932262"><ele>182.71428571428572</ele><time>2026-04-11T09:20:53Z</time></trkpt><trkpt lat="43.26216929776629" lon="11.36113056047496"><ele>182.57142857142856</ele><time>2026-04-11T09:20:54Z</time></trkpt><trkpt lat="43.26212167604441" lon="11.361187214108414"><ele>182.42857142857144</ele><time>2026-04-11T09:20:55Z</time></trkpt><trkpt lat="43.26207006393819" lon="11.361237294617968"><ele>182.28571428571428</ele><time>2026-04-11T09:20:56Z</time></trkpt><trkpt lat="43.26201784300157" lon="11.361290426941082"><ele>182.14285714285714</ele><time>2026-04-11T09:20:57Z</time></trkpt><trkpt lat="43.261966242656946" lon="11.36134676534029"><ele>182.0</ele><time>2026-04-11T09:20:58Z</time></trkpt><trkpt lat="43.26191483253776" lon="11.36139931280125"><ele>182.0</ele><time>2026-04-11T09:20:59Z</time></trkpt><trkpt lat="43.261859321381195" lon="11.361448159691145"><ele>182.0</ele><time>2026-04-11T09:21:00Z</time></trkpt><trkpt lat="43.26176269659948" lon="11.361521875932484"><ele>182.0</ele><time>2026-04-11T09:21:02Z</time></trkpt><trkpt lat="43.26169956182241" lon="11.36156463975347"><ele>182.0</ele><time>2026-04-11T09:21:03Z</time></trkpt><trkpt lat="43.26164107471183" lon="11.361606282184812"><ele>182.0</ele><time>2026-04-11T09:21:04Z</time></trkpt><trkpt lat="43.26158375107512" lon="11.361648606197525"><ele>182.0</ele><time>2026-04-11T09:21:05Z</time></trkpt><trkpt lat="43.261524619695216" lon="11.361687021192784"><ele>182.0</ele><time>2026-04-11T09:21:06Z</time></trkpt><trkpt lat="43.26146377997001" lon="11.361720847216763"><ele>182.0</ele><time>2026-04-11T09:21:07Z</time></trkpt><trkpt lat="43.26140538232533" lon="11.361758054037743"><ele>182.0</ele><time>2026-04-11T09:21:08Z</time></trkpt><trkpt lat="43.26133992337768" lon="11.361770505287396"><ele>182.0</ele><time>2026-04-11T09:21:09Z</time></trkpt><trkpt lat="43.26127935882648" lon="11.361802278115732"><ele>182.0</ele><time>2026-04-11T09:21:10Z</time></trkpt><trkpt lat="43.26121903412135" lon="11.361828876795224"><ele>182.0</ele><time>2026-04-11T09:21:11Z</time></trkpt><trkpt lat="43.26115509971038" lon="11.361856689716346"><ele>182.0</ele><time>2026-04-11T09:21:12Z</time></trkpt><trkpt lat="43.261093327560076" lon="11.361882637605474"><ele>182.0</ele><time>2026-04-11T09:21:13Z</time></trkpt><trkpt lat="43.26096658636607" lon="11.361919465561613"><ele>182.0</ele><time>2026-04-11T09:21:15Z</time></trkpt><trkpt lat="43.26090653458096" lon="11.361950704448006"><ele>182.0</ele><time>2026-04-11T09:21:16Z</time></trkpt><trkpt lat="43.2607847002726" lon="11.361962378755857"><ele>182.0</ele><time>2026-04-11T09:21:18Z</time></trkpt><trkpt lat="43.26066406810018" lon="11.361941228100594"><ele>182.0</ele><time>2026-04-11T09:21:20Z</time></trkpt><trkpt lat="43.260550163219385" lon="11.361929881686628"><ele>182.0</ele><time>2026-04-11T09:21:22Z</time></trkpt><trkpt lat="43.2604400478027" lon="11.361926257222308"><ele>182.6</ele><time>2026-04-11T09:21:24Z</time></trkpt><trkpt lat="43.26034065284695" lon="11.361905738563907"><ele>183.2</ele><time>2026-04-11T09:21:25.999Z</time></trkpt><trkpt lat="43.2602574429983" lon="11.361877613699024"><ele>183.8</ele><time>2026-04-11T09:21:27.999Z</time></trkpt><trkpt lat="43.26014280689612" lon="11.361837499303448"><ele>184.4</ele><time>2026-04-11T09:21:30.999Z</time></trkpt><trkpt lat="43.260076979673244" lon="11.361806004777677"><ele>185.0</ele><time>2026-04-11T09:21:33.999Z</time></trkpt><trkpt lat="43.26000175324881" lon="11.36179097468023"><ele>185.0</ele><time>2026-04-11T09:21:34.999Z</time></trkpt><trkpt lat="43.2599378011877" lon="11.361779438412174"><ele>185.0</ele><time>2026-04-11T09:21:36.999Z</time></trkpt><trkpt lat="43.25987600554705" lon="11.361756317906462"><ele>185.0</ele><time>2026-04-11T09:21:38.999Z</time></trkpt><trkpt lat="43.25981090383377" lon="11.361737798399938"><ele>185.0</ele><time>2026-04-11T09:21:41.999Z</time></trkpt><trkpt lat="43.25973581754097" lon="11.361713338471857"><ele>185.0</ele><time>2026-04-11T09:21:44.999Z</time></trkpt><trkpt lat="43.259634140098605" lon="11.361666138283258"><ele>185.0</ele><time>2026-04-11T09:21:47.999Z</time></trkpt><trkpt lat="43.25956328999777" lon="11.3616309735003"><ele>186.33333333333331</ele><time>2026-04-11T09:21:50.999Z</time></trkpt><trkpt lat="43.25948902370225" lon="11.361589695809021"><ele>187.66666666666666</ele><time>2026-04-11T09:21:53.999Z</time></trkpt><trkpt lat="43.25940948876869" lon="11.361551741063886"><ele>189.0</ele><time>2026-04-11T09:21:57.999Z</time></trkpt><trkpt lat="43.259342678597456" lon="11.361518724123085"><ele>190.33333333333331</ele><time>2026-04-11T09:22:00.999Z</time></trkpt><trkpt lat="43.2592729941559" lon="11.361482941519704"><ele>191.66666666666666</ele><time>2026-04-11T09:22:03.999Z</time></trkpt><trkpt lat="43.25920245893248" lon="11.361444171388015"><ele>193.0</ele><time>2026-04-11T09:22:06.999Z</time></trkpt><trkpt lat="43.259129926025736" lon="11.361404539938524"><ele>193.33333333333331</ele><time>2026-04-11T09:22:09.999Z</time></trkpt><trkpt lat="43.25905388382466" lon="11.361355245745425"><ele>193.66666666666666</ele><time>2026-04-11T09:22:12.999Z</time></trkpt><trkpt lat="43.25898766314968" lon="11.361297429634952"><ele>194.0</ele><time>2026-04-11T09:22:19Z</time></trkpt><trkpt lat="43.25891948360389" lon="11.361258975584562"><ele>194.33333333333331</ele><time>2026-04-11T09:22:22Z</time></trkpt><trkpt lat="43.25885912899701" lon="11.361209082628243"><ele>194.66666666666666</ele><time>2026-04-11T09:22:24Z</time></trkpt><trkpt lat="43.25878556129957" lon="11.361153109289306"><ele>195.0</ele><time>2026-04-11T09:22:27Z</time></trkpt><trkpt lat="43.25871972216399" lon="11.361106334699551"><ele>195.0</ele><time>2026-04-11T09:22:30Z</time></trkpt><trkpt lat="43.25864012351101" lon="11.361032565439817"><ele>195.0</ele><time>2026-04-11T09:22:33Z</time></trkpt><trkpt lat="43.25856869941417" lon="11.360957081623033"><ele>195.0</ele><time>2026-04-11T09:22:36Z</time></trkpt><trkpt lat="43.258504162419094" lon="11.36088052254206"><ele>195.0</ele><time>2026-04-11T09:22:38Z</time></trkpt><trkpt lat="43.258439691974274" lon="11.360818372368005"><ele>195.0</ele><time>2026-04-11T09:22:41Z</time></trkpt><trkpt lat="43.25834739004602" lon="11.360736316449684"><ele>195.0</ele><time>2026-04-11T09:22:44Z</time></trkpt><trkpt lat="43.258283626313506" lon="11.360675001932123"><ele>195.0</ele><time>2026-04-11T09:22:46Z</time></trkpt><trkpt lat="43.25820446136644" lon="11.360608507722764"><ele>195.0</ele><time>2026-04-11T09:22:49Z</time></trkpt><trkpt lat="43.25815041018307" lon="11.360563827322958"><ele>195.0</ele><time>2026-04-11T09:22:51Z</time></trkpt><trkpt lat="43.25808104060904" lon="11.360516379927459"><ele>195.0</ele><time>2026-04-11T09:22:54Z</time></trkpt><trkpt lat="43.258002063957385" lon="11.360462455791483"><ele>195.0</ele><time>2026-04-11T09:22:57Z</time></trkpt><trkpt lat="43.25792476054367" lon="11.360418491070526"><ele>195.0</ele><time>2026-04-11T09:23:00Z</time></trkpt><trkpt lat="43.25784409679384" lon="11.360377240897881"><ele>195.0</ele><time>2026-04-11T09:23:03Z</time></trkpt><trkpt lat="43.257760644077585" lon="11.360329536702213"><ele>195.0</ele><time>2026-04-11T09:23:06Z</time></trkpt><trkpt lat="43.25767430022751" lon="11.360295580914771"><ele>195.0</ele><time>2026-04-11T09:23:09Z</time></trkpt><trkpt lat="43.25759027823689" lon="11.360253925212975"><ele>195.0</ele><time>2026-04-11T09:23:12Z</time></trkpt><trkpt lat="43.25750733180024" lon="11.36021653797226"><ele>195.0</ele><time>2026-04-11T09:23:15Z</time></trkpt><trkpt lat="43.2574269546658" lon="11.360184497839274"><ele>195.0</ele><time>2026-04-11T09:23:18Z</time></trkpt><trkpt lat="43.257345033206235" lon="11.36015153201542"><ele>195.0</ele><time>2026-04-11T09:23:21Z</time></trkpt><trkpt lat="43.2572631641594" lon="11.360127656909066"><ele>195.0</ele><time>2026-04-11T09:23:24Z</time></trkpt><trkpt lat="43.257175042251845" lon="11.360113667456819"><ele>195.0</ele><time>2026-04-11T09:23:26.999Z</time></trkpt><trkpt lat="43.25708842924028" lon="11.360105776791361"><ele>195.0</ele><time>2026-04-11T09:23:29.999Z</time></trkpt><trkpt lat="43.25700563135991" lon="11.360091847231809"><ele>195.0</ele><time>2026-04-11T09:23:32.999Z</time></trkpt><trkpt lat="43.256907926396806" lon="11.360081345109618"><ele>195.66666666666666</ele><time>2026-04-11T09:23:35.999Z</time></trkpt><trkpt lat="43.25682086772783" lon="11.36008648931211"><ele>196.33333333333331</ele><time>2026-04-11T09:23:38.999Z</time></trkpt><trkpt lat="43.256731408193765" lon="11.360097755287342"><ele>197.0</ele><time>2026-04-11T09:23:41.999Z</time></trkpt><trkpt lat="43.256644030765145" lon="11.360103931272638"><ele>197.66666666666666</ele><time>2026-04-11T09:23:44.999Z</time></trkpt><trkpt lat="43.25655908380413" lon="11.36011147434303"><ele>198.33333333333331</ele><time>2026-04-11T09:23:47.999Z</time></trkpt><trkpt lat="43.25647255599184" lon="11.360125793673417"><ele>199.0</ele><time>2026-04-11T09:23:50.999Z</time></trkpt><trkpt lat="43.256386887539726" lon="11.3601416337196"><ele>199.66666666666666</ele><time>2026-04-11T09:23:53.999Z</time></trkpt><trkpt lat="43.256303598637366" lon="11.36016200361583"><ele>200.33333333333331</ele><time>2026-04-11T09:23:56.999Z</time></trkpt><trkpt lat="43.256225758278845" lon="11.360186882942699"><ele>201.0</ele><time>2026-04-11T09:23:59.999Z</time></trkpt><trkpt lat="43.25616391019327" lon="11.360211245726946"><ele>201.66666666666669</ele><time>2026-04-11T09:24:02.999Z</time></trkpt><trkpt lat="43.25610326540944" lon="11.360240434481438"><ele>202.33333333333334</ele><time>2026-04-11T09:24:04.999Z</time></trkpt><trkpt lat="43.25602948033639" lon="11.360287193578673"><ele>203.0</ele><time>2026-04-11T09:24:07.999Z</time></trkpt><trkpt lat="43.255956107295425" lon="11.360340520303213"><ele>203.00000000000003</ele><time>2026-04-11T09:24:10.999Z</time></trkpt><trkpt lat="43.25588585678421" lon="11.36039313580766"><ele>203.0</ele><time>2026-04-11T09:24:13.999Z</time></trkpt><trkpt lat="43.255822331332396" lon="11.360430553204457"><ele>203.0</ele><time>2026-04-11T09:24:16.999Z</time></trkpt><trkpt lat="43.255732284606474" lon="11.360497859680265"><ele>203.0</ele><time>2026-04-11T09:24:19.999Z</time></trkpt><trkpt lat="43.255662422143224" lon="11.360541607256701"><ele>203.00000000000003</ele><time>2026-04-11T09:24:22.999Z</time></trkpt><trkpt lat="43.25558401328148" lon="11.360595013179706"><ele>203.0</ele><time>2026-04-11T09:24:27Z</time></trkpt><trkpt lat="43.25551564069649" lon="11.36064031269917"><ele>204.83333333333334</ele><time>2026-04-11T09:24:30Z</time></trkpt><trkpt lat="43.25544830436078" lon="11.360693496573283"><ele>206.66666666666669</ele><time>2026-04-11T09:24:33Z</time></trkpt><trkpt lat="43.25538122729973" lon="11.36074283534343"><ele>208.5</ele><time>2026-04-11T09:24:36Z</time></trkpt><trkpt lat="43.255314159138265" lon="11.360802639729059"><ele>210.33333333333331</ele><time>2026-04-11T09:24:39Z</time></trkpt><trkpt lat="43.25525127350676" lon="11.360874024589794"><ele>212.16666666666666</ele><time>2026-04-11T09:24:42Z</time></trkpt><trkpt lat="43.25519026991814" lon="11.36095608496516"><ele>214.0</ele><time>2026-04-11T09:24:45Z</time></trkpt><trkpt lat="43.25513379824059" lon="11.361031459320769"><ele>213.99999999999997</ele><time>2026-04-11T09:24:48Z</time></trkpt><trkpt lat="43.255064477515766" lon="11.361132272481806"><ele>214.0</ele><time>2026-04-11T09:24:51Z</time></trkpt><trkpt lat="43.255015307372176" lon="11.361232234756553"><ele>214.0</ele><time>2026-04-11T09:24:55Z</time></trkpt><trkpt lat="43.25496227531637" lon="11.361338661379877"><ele>214.0</ele><time>2026-04-11T09:24:58Z</time></trkpt><trkpt lat="43.25491447175018" lon="11.361434455432514"><ele>213.99999999999997</ele><time>2026-04-11T09:25:01Z</time></trkpt><trkpt lat="43.254867455547284" lon="11.361523702333361"><ele>214.0</ele><time>2026-04-11T09:25:04Z</time></trkpt><trkpt lat="43.2548224629404" lon="11.36160845523989"><ele>215.57142857142858</ele><time>2026-04-11T09:25:07Z</time></trkpt><trkpt lat="43.25477968273891" lon="11.361705547761234"><ele>217.14285714285717</ele><time>2026-04-11T09:25:11Z</time></trkpt><trkpt lat="43.25473853309834" lon="11.361781476998477"><ele>218.71428571428572</ele><time>2026-04-11T09:25:15Z</time></trkpt><trkpt lat="43.254692066776805" lon="11.361847967652501"><ele>220.2857142857143</ele><time>2026-04-11T09:25:19Z</time></trkpt><trkpt lat="43.25465429635853" lon="11.361930126233807"><ele>221.85714285714286</ele><time>2026-04-11T09:25:22Z</time></trkpt><trkpt lat="43.2546024496511" lon="11.362001481225516"><ele>223.42857142857147</ele><time>2026-04-11T09:25:26Z</time></trkpt><trkpt lat="43.25454342184581" lon="11.362067026519199"><ele>225.00000000000003</ele><time>2026-04-11T09:25:29.999Z</time></trkpt><trkpt lat="43.25447659941272" lon="11.362131817636678"><ele>225.0</ele><time>2026-04-11T09:25:33.999Z</time></trkpt><trkpt lat="43.254404364542594" lon="11.36219413882959"><ele>225.0</ele><time>2026-04-11T09:25:37.999Z</time></trkpt><trkpt lat="43.25433629348" lon="11.362231449494429"><ele>225.0</ele><time>2026-04-11T09:25:40.999Z</time></trkpt><trkpt lat="43.25426262916473" lon="11.362267277581921"><ele>225.0</ele><time>2026-04-11T09:25:43.999Z</time></trkpt><trkpt lat="43.25417768696475" lon="11.362302069809154"><ele>225.0</ele><time>2026-04-11T09:25:46.999Z</time></trkpt><trkpt lat="43.25408811694916" lon="11.362331547933728"><ele>225.0</ele><time>2026-04-11T09:25:49.999Z</time></trkpt><trkpt lat="43.254020117169176" lon="11.362354103906867"><ele>225.00000000000003</ele><time>2026-04-11T09:25:51.999Z</time></trkpt><trkpt lat="43.253951474848066" lon="11.362361258967336"><ele>225.0</ele><time>2026-04-11T09:25:54.999Z</time></trkpt><trkpt lat="43.253883680518086" lon="11.362368671709332"><ele>225.00000000000003</ele><time>2026-04-11T09:25:57.999Z</time></trkpt><trkpt lat="43.253813557586156" lon="11.362371541356925"><ele>225.00000000000003</ele><time>2026-04-11T09:26:00.999Z</time></trkpt><trkpt lat="43.253749480110386" lon="11.362378848834702"><ele>225.0</ele><time>2026-04-11T09:26:03.999Z</time></trkpt><trkpt lat="43.25367956238587" lon="11.36238966092401"><ele>225.00000000000003</ele><time>2026-04-11T09:26:07.999Z</time></trkpt><trkpt lat="43.253601607990596" lon="11.362405388440125"><ele>225.00000000000003</ele><time>2026-04-11T09:26:11.999Z</time></trkpt><trkpt lat="43.25351718339393" lon="11.362428696781299"><ele>225.0</ele><time>2026-04-11T09:26:15.999Z</time></trkpt><trkpt lat="43.25344311348497" lon="11.362439334514987"><ele>225.0</ele><time>2026-04-11T09:26:18.999Z</time></trkpt><trkpt lat="43.25337166458082" lon="11.362462743372804"><ele>225.0</ele><time>2026-04-11T09:26:21.999Z</time></trkpt><trkpt lat="43.25329843868161" lon="11.362491954404437"><ele>225.0</ele><time>2026-04-11T09:26:24.999Z</time></trkpt><trkpt lat="43.253216810719316" lon="11.362522980810596"><ele>225.0</ele><time>2026-04-11T09:26:27.999Z</time></trkpt><trkpt lat="43.25315572068219" lon="11.362550484214198"><ele>225.0</ele><time>2026-04-11T09:26:29.999Z</time></trkpt><trkpt lat="43.25307735874105" lon="11.362589209684263"><ele>225.42857142857144</ele><time>2026-04-11T09:26:33Z</time></trkpt><trkpt lat="43.25300781405249" lon="11.362629809846165"><ele>225.85714285714286</ele><time>2026-04-11T09:26:36Z</time></trkpt><trkpt lat="43.25293170616147" lon="11.362666580241967"><ele>226.28571428571428</ele><time>2026-04-11T09:26:40Z</time></trkpt><trkpt lat="43.25286905791629" lon="11.362699793635906"><ele>226.71428571428572</ele><time>2026-04-11T09:26:44Z</time></trkpt><trkpt lat="43.252808218597686" lon="11.362727966409631"><ele>227.1428571428571</ele><time>2026-04-11T09:26:48Z</time></trkpt><trkpt lat="43.25274524047189" lon="11.362774641589978"><ele>227.57142857142856</ele><time>2026-04-11T09:26:53Z</time></trkpt><trkpt lat="43.2526812286216" lon="11.362809602668783"><ele>228.0</ele><time>2026-04-11T09:26:58Z</time></trkpt><trkpt lat="43.25261455596027" lon="11.362849845666613"><ele>228.0</ele><time>2026-04-11T09:27:03Z</time></trkpt><trkpt lat="43.25256161768147" lon="11.362905414238917"><ele>227.99999999999997</ele><time>2026-04-11T09:27:08Z</time></trkpt><trkpt lat="43.25250671448516" lon="11.36295779965909"><ele>228.0</ele><time>2026-04-11T09:27:13Z</time></trkpt><trkpt lat="43.25244473491106" lon="11.363016773008926"><ele>228.0</ele><time>2026-04-11T09:27:18Z</time></trkpt><trkpt lat="43.25238049062039" lon="11.36305205554606"><ele>227.99999999999997</ele><time>2026-04-11T09:27:22Z</time></trkpt><trkpt lat="43.252315715978895" lon="11.36310640738283"><ele>228.0</ele><time>2026-04-11T09:27:26Z</time></trkpt><trkpt lat="43.252251769002534" lon="11.363183181160888"><ele>228.0</ele><time>2026-04-11T09:27:30Z</time></trkpt><trkpt lat="43.25219217395455" lon="11.363255976283673"><ele>228.83333333333334</ele><time>2026-04-11T09:27:32.999Z</time></trkpt><trkpt lat="43.25212810212226" lon="11.363331279755588"><ele>229.66666666666669</ele><time>2026-04-11T09:27:35.999Z</time></trkpt><trkpt lat="43.25205369639708" lon="11.363419350292101"><ele>230.5</ele><time>2026-04-11T09:27:38.999Z</time></trkpt><trkpt lat="43.25199389755082" lon="11.363455579719986"><ele>231.33333333333334</ele><time>2026-04-11T09:27:39.999Z</time></trkpt><trkpt lat="43.25189060868557" lon="11.363547693134267"><ele>232.16666666666669</ele><time>2026-04-11T09:27:41.999Z</time></trkpt><trkpt lat="43.25182457392289" lon="11.36358506150694"><ele>233.0</ele><time>2026-04-11T09:27:42.999Z</time></trkpt><trkpt lat="43.25175005565003" lon="11.36357427713059"><ele>233.0</ele><time>2026-04-11T09:27:43.999Z</time></trkpt><trkpt lat="43.25167820142451" lon="11.36359292796559"><ele>233.0</ele><time>2026-04-11T09:27:44.999Z</time></trkpt><trkpt lat="43.25160612423589" lon="11.363599172440914"><ele>233.0</ele><time>2026-04-11T09:27:45.999Z</time></trkpt><trkpt lat="43.251541324075546" lon="11.363598838753678"><ele>233.0</ele><time>2026-04-11T09:27:46.999Z</time></trkpt><trkpt lat="43.25146772320867" lon="11.363593774082082"><ele>233.0</ele><time>2026-04-11T09:27:47.999Z</time></trkpt><trkpt lat="43.2513909755271" lon="11.363583052016425"><ele>233.0</ele><time>2026-04-11T09:27:48.999Z</time></trkpt><trkpt lat="43.25131604165621" lon="11.363562989685692"><ele>233.0</ele><time>2026-04-11T09:27:49.999Z</time></trkpt><trkpt lat="43.25124116858285" lon="11.363546698629262"><ele>231.4</ele><time>2026-04-11T09:27:50.999Z</time></trkpt><trkpt lat="43.25115369694382" lon="11.363516864048362"><ele>229.8</ele><time>2026-04-11T09:27:51.999Z</time></trkpt><trkpt lat="43.25107089542201" lon="11.363476154698258"><ele>228.2</ele><time>2026-04-11T09:27:52.999Z</time></trkpt><trkpt lat="43.250980692075714" lon="11.363437521715431"><ele>226.6</ele><time>2026-04-11T09:27:53.999Z</time></trkpt><trkpt lat="43.250887278284964" lon="11.363392194545463"><ele>225.0</ele><time>2026-04-11T09:27:54.999Z</time></trkpt><trkpt lat="43.250789727609906" lon="11.363359846394632"><ele>225.0</ele><time>2026-04-11T09:27:55.999Z</time></trkpt><trkpt lat="43.25069476181538" lon="11.363328479058499"><ele>225.0</ele><time>2026-04-11T09:27:56.999Z</time></trkpt><trkpt lat="43.25060308741959" lon="11.363282754033802"><ele>225.0</ele><time>2026-04-11T09:27:57.999Z</time></trkpt><trkpt lat="43.25050767015117" lon="11.36325836894729"><ele>225.0</ele><time>2026-04-11T09:27:58.999Z</time></trkpt><trkpt lat="43.250414235719084" lon="11.363237740083703"><ele>225.0</ele><time>2026-04-11T09:27:59.999Z</time></trkpt><trkpt lat="43.25032413368516" lon="11.36321784696925"><ele>224.6</ele><time>2026-04-11T09:28:00.999Z</time></trkpt><trkpt lat="43.25022453851262" lon="11.363215561223186"><ele>224.2</ele><time>2026-04-11T09:28:01.999Z</time></trkpt><trkpt lat="43.250146486054575" lon="11.363195362518104"><ele>223.8</ele><time>2026-04-11T09:28:02.999Z</time></trkpt><trkpt lat="43.250056214231066" lon="11.363167073426444"><ele>223.4</ele><time>2026-04-11T09:28:03.999Z</time></trkpt><trkpt lat="43.24996880092763" lon="11.363138350601067"><ele>223.0</ele><time>2026-04-11T09:28:04.999Z</time></trkpt><trkpt lat="43.24988226258306" lon="11.36311108798173"><ele>222.99999999999997</ele><time>2026-04-11T09:28:05.999Z</time></trkpt><trkpt lat="43.249798909614235" lon="11.363085798991047"><ele>223.0</ele><time>2026-04-11T09:28:06.999Z</time></trkpt><trkpt lat="43.24971581482442" lon="11.363074237183977"><ele>223.0</ele><time>2026-04-11T09:28:07.999Z</time></trkpt><trkpt lat="43.24963485848451" lon="11.363070969041138"><ele>223.0</ele><time>2026-04-11T09:28:08.999Z</time></trkpt><trkpt lat="43.249557987622694" lon="11.363072431672109"><ele>222.99999999999997</ele><time>2026-04-11T09:28:09.999Z</time></trkpt><trkpt lat="43.24948295959735" lon="11.363083328770724"><ele>223.0</ele><time>2026-04-11T09:28:10.999Z</time></trkpt><trkpt lat="43.249412535857275" lon="11.363106390745871"><ele>223.71428571428572</ele><time>2026-04-11T09:28:11.999Z</time></trkpt><trkpt lat="43.249342772028946" lon="11.36313774909254"><ele>224.42857142857142</ele><time>2026-04-11T09:28:12.999Z</time></trkpt><trkpt lat="43.24927685887932" lon="11.363175158060647"><ele>225.14285714285714</ele><time>2026-04-11T09:28:13.999Z</time></trkpt><trkpt lat="43.24921684877346" lon="11.363219446065965"><ele>225.85714285714283</ele><time>2026-04-11T09:28:14.999Z</time></trkpt><trkpt lat="43.2491590774793" lon="11.363265573118088"><ele>226.57142857142856</ele><time>2026-04-11T09:28:15.999Z</time></trkpt><trkpt lat="43.24910524208547" lon="11.36331437305575"><ele>227.28571428571428</ele><time>2026-04-11T09:28:16.999Z</time></trkpt><trkpt lat="43.24905197972176" lon="11.363362458238415"><ele>228.0</ele><time>2026-04-11T09:28:17.999Z</time></trkpt><trkpt lat="43.248964429773366" lon="11.363467971398654"><ele>228.0</ele><time>2026-04-11T09:28:19.999Z</time></trkpt><trkpt lat="43.248886515466154" lon="11.363580270714893"><ele>228.0</ele><time>2026-04-11T09:28:21.999Z</time></trkpt><trkpt lat="43.24880276228162" lon="11.363703745310307"><ele>228.0</ele><time>2026-04-11T09:28:23.999Z</time></trkpt><trkpt lat="43.24874562561263" lon="11.36375698526878"><ele>228.0</ele><time>2026-04-11T09:28:24.999Z</time></trkpt><trkpt lat="43.24870027403626" lon="11.363824393293937"><ele>228.0</ele><time>2026-04-11T09:28:25.999Z</time></trkpt><trkpt lat="43.24865423889641" lon="11.363891729944129"><ele>228.0</ele><time>2026-04-11T09:28:26.999Z</time></trkpt><trkpt lat="43.248608264154754" lon="11.36395608997976"><ele>227.8</ele><time>2026-04-11T09:28:27.999Z</time></trkpt><trkpt lat="43.24857364685396" lon="11.364036395492494"><ele>227.60000000000002</ele><time>2026-04-11T09:28:28.999Z</time></trkpt><trkpt lat="43.24852799121736" lon="11.364097948897326"><ele>227.39999999999998</ele><time>2026-04-11T09:28:29.999Z</time></trkpt><trkpt lat="43.248441276359344" lon="11.36421639517936"><ele>227.2</ele><time>2026-04-11T09:28:31.999Z</time></trkpt><trkpt lat="43.24836152753586" lon="11.364324935328652"><ele>227.0</ele><time>2026-04-11T09:28:33.999Z</time></trkpt><trkpt lat="43.24830725374087" lon="11.364458375122247"><ele>227.00000000000003</ele><time>2026-04-11T09:28:35.999Z</time></trkpt><trkpt lat="43.24825484082194" lon="11.364610570013898"><ele>227.0</ele><time>2026-04-11T09:28:38Z</time></trkpt><trkpt lat="43.24824490244048" lon="11.364696116829926"><ele>227.0</ele><time>2026-04-11T09:28:39Z</time></trkpt><trkpt lat="43.24824049454187" lon="11.364782332556759"><ele>227.0</ele><time>2026-04-11T09:28:40Z</time></trkpt><trkpt lat="43.24825696952897" lon="11.364869165338586"><ele>227.00000000000003</ele><time>2026-04-11T09:28:41Z</time></trkpt><trkpt lat="43.2482462133803" lon="11.365025997157929"><ele>227.0</ele><time>2026-04-11T09:28:43Z</time></trkpt><trkpt lat="43.24823845909959" lon="11.365165088196811"><ele>226.6</ele><time>2026-04-11T09:28:45Z</time></trkpt><trkpt lat="43.24823772004471" lon="11.36528886372341"><ele>226.2</ele><time>2026-04-11T09:28:47Z</time></trkpt><trkpt lat="43.24819244595822" lon="11.365435043900256"><ele>225.8</ele><time>2026-04-11T09:28:50Z</time></trkpt><trkpt lat="43.2481189494507" lon="11.365540374425246"><ele>225.4</ele><time>2026-04-11T09:28:52Z</time></trkpt><trkpt lat="43.24805513660393" lon="11.365645263649235"><ele>225.0</ele><time>2026-04-11T09:28:54Z</time></trkpt><trkpt lat="43.24797946486947" lon="11.365753441383525"><ele>224.66666666666666</ele><time>2026-04-11T09:28:56Z</time></trkpt><trkpt lat="43.2478994764241" lon="11.365881817099472"><ele>224.33333333333331</ele><time>2026-04-11T09:28:58Z</time></trkpt><trkpt lat="43.24784773968271" lon="11.36593197797554"><ele>224.0</ele><time>2026-04-11T09:28:59Z</time></trkpt><trkpt lat="43.247787949733656" lon="11.36598029918395"><ele>223.66666666666666</ele><time>2026-04-11T09:29:00Z</time></trkpt><trkpt lat="43.247717520593916" lon="11.366016243768913"><ele>223.33333333333331</ele><time>2026-04-11T09:29:01Z</time></trkpt><trkpt lat="43.24763887630315" lon="11.366040274634308"><ele>223.0</ele><time>2026-04-11T09:29:02Z</time></trkpt><trkpt lat="43.24756058142084" lon="11.366054577117177"><ele>222.99999999999997</ele><time>2026-04-11T09:29:03Z</time></trkpt><trkpt lat="43.24748490773451" lon="11.366067917614528"><ele>223.0</ele><time>2026-04-11T09:29:04Z</time></trkpt><trkpt lat="43.247408528986234" lon="11.366081527865873"><ele>223.0</ele><time>2026-04-11T09:29:05Z</time></trkpt><trkpt lat="43.24733003557897" lon="11.366079428919011"><ele>223.0</ele><time>2026-04-11T09:29:06Z</time></trkpt><trkpt lat="43.24725331386971" lon="11.366094901551675"><ele>222.99999999999997</ele><time>2026-04-11T09:29:07Z</time></trkpt><trkpt lat="43.247177693486954" lon="11.366116714839787"><ele>223.0</ele><time>2026-04-11T09:29:08Z</time></trkpt><trkpt lat="43.24710389251378" lon="11.3661407634336"><ele>222.71428571428572</ele><time>2026-04-11T09:29:09Z</time></trkpt><trkpt lat="43.24703665688648" lon="11.36618638416935"><ele>222.42857142857142</ele><time>2026-04-11T09:29:10Z</time></trkpt><trkpt lat="43.2469653276447" lon="11.366210057605032"><ele>222.14285714285717</ele><time>2026-04-11T09:29:11Z</time></trkpt><trkpt lat="43.2468973088241" lon="11.366236145024292"><ele>221.85714285714286</ele><time>2026-04-11T09:29:12Z</time></trkpt><trkpt lat="43.24682446621524" lon="11.366241291012734"><ele>221.57142857142858</ele><time>2026-04-11T09:29:13Z</time></trkpt><trkpt lat="43.24675665921492" lon="11.366267705278116"><ele>221.2857142857143</ele><time>2026-04-11T09:29:14Z</time></trkpt><trkpt lat="43.24669769439105" lon="11.366313962757864"><ele>221.0</ele><time>2026-04-11T09:29:15Z</time></trkpt><trkpt lat="43.24663669020064" lon="11.366339144372443"><ele>221.4</ele><time>2026-04-11T09:29:16Z</time></trkpt><trkpt lat="43.24652064353464" lon="11.366390984210218"><ele>221.8</ele><time>2026-04-11T09:29:18Z</time></trkpt><trkpt lat="43.24642018261654" lon="11.36645258202121"><ele>222.20000000000002</ele><time>2026-04-11T09:29:20Z</time></trkpt><trkpt lat="43.24633301747579" lon="11.366513110734031"><ele>222.60000000000002</ele><time>2026-04-11T09:29:22Z</time></trkpt><trkpt lat="43.246246761040396" lon="11.366555252849004"><ele>223.0</ele><time>2026-04-11T09:29:24Z</time></trkpt><trkpt lat="43.24617698199127" lon="11.366643846316572"><ele>223.16666666666666</ele><time>2026-04-11T09:29:26Z</time></trkpt><trkpt lat="43.246093428987514" lon="11.366725248875618"><ele>223.33333333333331</ele><time>2026-04-11T09:29:28Z</time></trkpt><trkpt lat="43.24599883643875" lon="11.366829031050747"><ele>223.5</ele><time>2026-04-11T09:29:30Z</time></trkpt><trkpt lat="43.24594834423917" lon="11.366889604454462"><ele>223.66666666666669</ele><time>2026-04-11T09:29:30.999Z</time></trkpt><trkpt lat="43.245889500324495" lon="11.366953937373246"><ele>223.83333333333334</ele><time>2026-04-11T09:29:31.999Z</time></trkpt><trkpt lat="43.24582677709461" lon="11.367019887607816"><ele>224.0</ele><time>2026-04-11T09:29:32.999Z</time></trkpt><trkpt lat="43.24576325449005" lon="11.367082943220124"><ele>224.00000000000003</ele><time>2026-04-11T09:29:33.999Z</time></trkpt><trkpt lat="43.245697350038974" lon="11.367147451024024"><ele>224.0</ele><time>2026-04-11T09:29:34.999Z</time></trkpt><trkpt lat="43.24562464406486" lon="11.367209040299203"><ele>224.0</ele><time>2026-04-11T09:29:35.999Z</time></trkpt><trkpt lat="43.24554755918964" lon="11.367265979997704"><ele>224.0</ele><time>2026-04-11T09:29:36.999Z</time></trkpt><trkpt lat="43.24546337145351" lon="11.36731610951734"><ele>224.00000000000003</ele><time>2026-04-11T09:29:37.999Z</time></trkpt><trkpt lat="43.24537870904497" lon="11.367360787804172"><ele>224.0</ele><time>2026-04-11T09:29:38.999Z</time></trkpt><trkpt lat="43.245294453089926" lon="11.36739994708891"><ele>223.33333333333334</ele><time>2026-04-11T09:29:39.999Z</time></trkpt><trkpt lat="43.24520941122847" lon="11.36743064374821"><ele>222.66666666666669</ele><time>2026-04-11T09:29:40.999Z</time></trkpt><trkpt lat="43.24512593793758" lon="11.36745753057351"><ele>222.0</ele><time>2026-04-11T09:29:41.999Z</time></trkpt><trkpt lat="43.24504292344496" lon="11.36748031375852"><ele>221.33333333333331</ele><time>2026-04-11T09:29:42.999Z</time></trkpt><trkpt lat="43.244962452411684" lon="11.367504753105298"><ele>220.66666666666666</ele><time>2026-04-11T09:29:43.999Z</time></trkpt><trkpt lat="43.24488518733391" lon="11.367530601769362"><ele>220.0</ele><time>2026-04-11T09:29:44.999Z</time></trkpt><trkpt lat="43.24481038548803" lon="11.367555803995113"><ele>220.49999999999997</ele><time>2026-04-11T09:29:45.999Z</time></trkpt><trkpt lat="43.24473669186928" lon="11.367580404937227"><ele>221.0</ele><time>2026-04-11T09:29:46.999Z</time></trkpt><trkpt lat="43.24466610532753" lon="11.36760288630788"><ele>221.5</ele><time>2026-04-11T09:29:47.999Z</time></trkpt><trkpt lat="43.244601200700586" lon="11.36762268839781"><ele>222.0</ele><time>2026-04-11T09:29:48.999Z</time></trkpt><trkpt lat="43.24448280869124" lon="11.36765865300263"><ele>222.49999999999997</ele><time>2026-04-11T09:29:50.999Z</time></trkpt><trkpt lat="43.244382731294834" lon="11.367689624767957"><ele>223.0</ele><time>2026-04-11T09:29:52.999Z</time></trkpt><trkpt lat="43.244294269618095" lon="11.367720015140184"><ele>222.99999999999997</ele><time>2026-04-11T09:29:54.999Z</time></trkpt><trkpt lat="43.24419936703541" lon="11.36773306214402"><ele>223.0</ele><time>2026-04-11T09:29:56.999Z</time></trkpt><trkpt lat="43.244121737149996" lon="11.36776638114912"><ele>223.0</ele><time>2026-04-11T09:29:58.999Z</time></trkpt><trkpt lat="43.24404979894265" lon="11.367806541810655"><ele>223.0</ele><time>2026-04-11T09:30:00.999Z</time></trkpt><trkpt lat="43.243975087434514" lon="11.367824877459503"><ele>222.99999999999997</ele><time>2026-04-11T09:30:02.999Z</time></trkpt><trkpt lat="43.24390432329249" lon="11.367846801474164"><ele>223.0</ele><time>2026-04-11T09:30:04.999Z</time></trkpt><trkpt lat="43.24383490811032" lon="11.367870336227698"><ele>223.49999999999997</ele><time>2026-04-11T09:30:06.999Z</time></trkpt><trkpt lat="43.24376297731237" lon="11.367894279550885"><ele>224.0</ele><time>2026-04-11T09:30:08.999Z</time></trkpt><trkpt lat="43.24368422818849" lon="11.367921718669777"><ele>224.5</ele><time>2026-04-11T09:30:10.999Z</time></trkpt><trkpt lat="43.24358689623223" lon="11.367943963765741"><ele>225.0</ele><time>2026-04-11T09:30:12.999Z</time></trkpt><trkpt lat="43.24347429336718" lon="11.367964761362861"><ele>225.49999999999997</ele><time>2026-04-11T09:30:14.999Z</time></trkpt><trkpt lat="43.243411431325015" lon="11.367975769010517"><ele>226.0</ele><time>2026-04-11T09:30:15.999Z</time></trkpt><trkpt lat="43.24334675667548" lon="11.36798909370278"><ele>226.0</ele><time>2026-04-11T09:30:16.999Z</time></trkpt><trkpt lat="43.24328330925352" lon="11.368000136428773"><ele>226.0</ele><time>2026-04-11T09:30:17.999Z</time></trkpt><trkpt lat="43.24321468107224" lon="11.368012411629904"><ele>226.0</ele><time>2026-04-11T09:30:18.999Z</time></trkpt><trkpt lat="43.24314726665791" lon="11.368030816979786"><ele>226.0</ele><time>2026-04-11T09:30:19.999Z</time></trkpt><trkpt lat="43.24307812151562" lon="11.368052246234027"><ele>226.0</ele><time>2026-04-11T09:30:20.999Z</time></trkpt><trkpt lat="43.24300785113624" lon="11.36807179410813"><ele>226.0</ele><time>2026-04-11T09:30:21.999Z</time></trkpt><trkpt lat="43.24293985761808" lon="11.368098068631799"><ele>226.0</ele><time>2026-04-11T09:30:22.999Z</time></trkpt><trkpt lat="43.24287140734088" lon="11.368135464658533"><ele>225.33333333333331</ele><time>2026-04-11T09:30:23.999Z</time></trkpt><trkpt lat="43.24280379654006" lon="11.368178929907522"><ele>224.66666666666666</ele><time>2026-04-11T09:30:24.999Z</time></trkpt><trkpt lat="43.24273470001482" lon="11.368230432574713"><ele>224.0</ele><time>2026-04-11T09:30:25.999Z</time></trkpt><trkpt lat="43.2426678993831" lon="11.368280914048304"><ele>223.33333333333331</ele><time>2026-04-11T09:30:26.999Z</time></trkpt><trkpt lat="43.24259953227014" lon="11.368339357376193"><ele>222.66666666666666</ele><time>2026-04-11T09:30:27.999Z</time></trkpt><trkpt lat="43.24253209089593" lon="11.36840827181563"><ele>222.0</ele><time>2026-04-11T09:30:28.999Z</time></trkpt><trkpt lat="43.24246686611319" lon="11.368485920990695"><ele>222.0</ele><time>2026-04-11T09:30:29.999Z</time></trkpt><trkpt lat="43.24240192916085" lon="11.368570016961552"><ele>222.0</ele><time>2026-04-11T09:30:30.999Z</time></trkpt><trkpt lat="43.24233517843495" lon="11.368656120255022"><ele>222.0</ele><time>2026-04-11T09:30:31.999Z</time></trkpt><trkpt lat="43.24226926366137" lon="11.36874113244635"><ele>222.0</ele><time>2026-04-11T09:30:32.999Z</time></trkpt><trkpt lat="43.242204955626185" lon="11.368831474756135"><ele>222.0</ele><time>2026-04-11T09:30:33.999Z</time></trkpt><trkpt lat="43.242141221938425" lon="11.368915523723237"><ele>221.66666666666666</ele><time>2026-04-11T09:30:34.999Z</time></trkpt><trkpt lat="43.24208150301312" lon="11.368999050192338"><ele>221.33333333333331</ele><time>2026-04-11T09:30:35.999Z</time></trkpt><trkpt lat="43.24201206170608" lon="11.369062797633145"><ele>221.0</ele><time>2026-04-11T09:30:36.999Z</time></trkpt><trkpt lat="43.2419538631755" lon="11.369139574011479"><ele>220.66666666666666</ele><time>2026-04-11T09:30:37.999Z</time></trkpt><trkpt lat="43.241896852239016" lon="11.369214592019848"><ele>220.33333333333331</ele><time>2026-04-11T09:30:38.999Z</time></trkpt><trkpt lat="43.24184183118778" lon="11.369285778976527"><ele>220.0</ele><time>2026-04-11T09:30:39.999Z</time></trkpt><trkpt lat="43.241788227632775" lon="11.36935513194529"><ele>219.99999999999997</ele><time>2026-04-11T09:30:40.999Z</time></trkpt><trkpt lat="43.24173631641185" lon="11.369419887245591"><ele>220.0</ele><time>2026-04-11T09:30:41.999Z</time></trkpt><trkpt lat="43.24168479436484" lon="11.369482731560192"><ele>220.0</ele><time>2026-04-11T09:30:43Z</time></trkpt><trkpt lat="43.24163380753507" lon="11.369544923229734"><ele>220.0</ele><time>2026-04-11T09:30:44Z</time></trkpt><trkpt lat="43.24158252790946" lon="11.369604924892542"><ele>220.0</ele><time>2026-04-11T09:30:45Z</time></trkpt><trkpt lat="43.241528657296755" lon="11.369667710378865"><ele>219.99999999999997</ele><time>2026-04-11T09:30:46Z</time></trkpt><trkpt lat="43.24147362849526" lon="11.3697318457486"><ele>220.0</ele><time>2026-04-11T09:30:47Z</time></trkpt><trkpt lat="43.241416802878874" lon="11.369794195369051"><ele>219.28571428571428</ele><time>2026-04-11T09:30:48Z</time></trkpt><trkpt lat="43.24135819556167" lon="11.36985608652608"><ele>218.57142857142856</ele><time>2026-04-11T09:30:49Z</time></trkpt><trkpt lat="43.24130910323457" lon="11.369933559468278"><ele>217.85714285714283</ele><time>2026-04-11T09:30:50Z</time></trkpt><trkpt lat="43.24124768361462" lon="11.369990065333576"><ele>217.14285714285714</ele><time>2026-04-11T09:30:51Z</time></trkpt><trkpt lat="43.241190023446975" lon="11.370045943527776"><ele>216.42857142857144</ele><time>2026-04-11T09:30:52Z</time></trkpt><trkpt lat="43.24113156097346" lon="11.37010137800231"><ele>215.7142857142857</ele><time>2026-04-11T09:30:53Z</time></trkpt><trkpt lat="43.241071697099194" lon="11.370149626486882"><ele>215.0</ele><time>2026-04-11T09:30:54Z</time></trkpt><trkpt lat="43.24101163923633" lon="11.370196572526979"><ele>215.0</ele><time>2026-04-11T09:30:55Z</time></trkpt><trkpt lat="43.24095447166696" lon="11.370249795542044"><ele>215.0</ele><time>2026-04-11T09:30:56Z</time></trkpt><trkpt lat="43.240895478043186" lon="11.370302572264778"><ele>215.0</ele><time>2026-04-11T09:30:57Z</time></trkpt><trkpt lat="43.24083730550556" lon="11.370350145397085"><ele>215.0</ele><time>2026-04-11T09:30:58Z</time></trkpt><trkpt lat="43.240781209450404" lon="11.370399035752166"><ele>215.0</ele><time>2026-04-11T09:30:59Z</time></trkpt><trkpt lat="43.240728891255586" lon="11.370451845977646"><ele>215.0</ele><time>2026-04-11T09:31:00Z</time></trkpt><trkpt lat="43.24067587070951" lon="11.370506127391522"><ele>215.0</ele><time>2026-04-11T09:31:01Z</time></trkpt><trkpt lat="43.24062683214273" lon="11.370563650387234"><ele>215.33333333333334</ele><time>2026-04-11T09:31:02Z</time></trkpt><trkpt lat="43.24057855206705" lon="11.370619659206877"><ele>215.66666666666669</ele><time>2026-04-11T09:31:03Z</time></trkpt><trkpt lat="43.24048003361464" lon="11.370720818344568"><ele>216.0</ele><time>2026-04-11T09:31:05Z</time></trkpt><trkpt lat="43.240450584534514" lon="11.370803389194757"><ele>216.33333333333331</ele><time>2026-04-11T09:31:06Z</time></trkpt><trkpt lat="43.24036656404406" lon="11.370937669059135"><ele>216.66666666666666</ele><time>2026-04-11T09:31:08Z</time></trkpt><trkpt lat="43.240323143089896" lon="11.371007413414084"><ele>217.0</ele><time>2026-04-11T09:31:09Z</time></trkpt><trkpt lat="43.2402806578088" lon="11.371081273622307"><ele>216.99999999999997</ele><time>2026-04-11T09:31:10Z</time></trkpt><trkpt lat="43.24023721132737" lon="11.371158366026066"><ele>217.0</ele><time>2026-04-11T09:31:11Z</time></trkpt><trkpt lat="43.24017796014837" lon="11.371219261554964"><ele>217.0</ele><time>2026-04-11T09:31:12Z</time></trkpt><trkpt lat="43.240132003602056" lon="11.371300028223384"><ele>217.0</ele><time>2026-04-11T09:31:13Z</time></trkpt><trkpt lat="43.24008661417677" lon="11.371384117483629"><ele>216.99999999999997</ele><time>2026-04-11T09:31:14Z</time></trkpt><trkpt lat="43.24004223359689" lon="11.37147021536272"><ele>217.0</ele><time>2026-04-11T09:31:15Z</time></trkpt><trkpt lat="43.24001241231664" lon="11.371569457955783"><ele>216.49999999999997</ele><time>2026-04-11T09:31:16Z</time></trkpt><trkpt lat="43.239966485375" lon="11.371657179318046"><ele>216.0</ele><time>2026-04-11T09:31:17Z</time></trkpt><trkpt lat="43.239921999585064" lon="11.371744017717651"><ele>215.5</ele><time>2026-04-11T09:31:18Z</time></trkpt><trkpt lat="43.23988096812014" lon="11.371834169272319"><ele>215.0</ele><time>2026-04-11T09:31:19Z</time></trkpt><trkpt lat="43.23982620038401" lon="11.371910640815369"><ele>214.49999999999997</ele><time>2026-04-11T09:31:20Z</time></trkpt><trkpt lat="43.239783663377914" lon="11.371998699928373"><ele>214.0</ele><time>2026-04-11T09:31:21Z</time></trkpt><trkpt lat="43.23975528530973" lon="11.372097264385893"><ele>213.85714285714286</ele><time>2026-04-11T09:31:22Z</time></trkpt><trkpt lat="43.239712440225745" lon="11.37218213634546"><ele>213.71428571428572</ele><time>2026-04-11T09:31:23Z</time></trkpt><trkpt lat="43.23967651900677" lon="11.372264980176332"><ele>213.57142857142856</ele><time>2026-04-11T09:31:24Z</time></trkpt><trkpt lat="43.239640293673865" lon="11.372349410034614"><ele>213.42857142857144</ele><time>2026-04-11T09:31:25Z</time></trkpt><trkpt lat="43.23960210524335" lon="11.372430427570354"><ele>213.28571428571428</ele><time>2026-04-11T09:31:26Z</time></trkpt><trkpt lat="43.239562114653" lon="11.372506915673673"><ele>213.14285714285714</ele><time>2026-04-11T09:31:27Z</time></trkpt><trkpt lat="43.23951921076532" lon="11.37257926283651"><ele>213.0</ele><time>2026-04-11T09:31:28Z</time></trkpt><trkpt lat="43.23946664231909" lon="11.37264079746222"><ele>212.99999999999997</ele><time>2026-04-11T09:31:29Z</time></trkpt><trkpt lat="43.23938884566111" lon="11.372647578209111"><ele>213.0</ele><time>2026-04-11T09:31:30Z</time></trkpt><trkpt lat="43.23932260853142" lon="11.372671190729077"><ele>213.0</ele><time>2026-04-11T09:31:31Z</time></trkpt><trkpt lat="43.23925478833598" lon="11.372673582519816"><ele>213.0</ele><time>2026-04-11T09:31:32Z</time></trkpt><trkpt lat="43.239177881205684" lon="11.372679774770448"><ele>213.0</ele><time>2026-04-11T09:31:33Z</time></trkpt><trkpt lat="43.23910407226395" lon="11.372674321677852"><ele>212.99999999999997</ele><time>2026-04-11T09:31:33.999Z</time></trkpt><trkpt lat="43.23902809114085" lon="11.372670252351918"><ele>213.0</ele><time>2026-04-11T09:31:34.999Z</time></trkpt><trkpt lat="43.23894826587716" lon="11.372671485449674"><ele>213.0</ele><time>2026-04-11T09:31:35.999Z</time></trkpt><trkpt lat="43.238868428181334" lon="11.372675362335354"><ele>213.0</ele><time>2026-04-11T09:31:36.999Z</time></trkpt><trkpt lat="43.2387868103892" lon="11.372690966228236"><ele>213.0</ele><time>2026-04-11T09:31:37.999Z</time></trkpt><trkpt lat="43.238704587941285" lon="11.372720896676775"><ele>213.0</ele><time>2026-04-11T09:31:38.999Z</time></trkpt><trkpt lat="43.23862487381884" lon="11.372757197245413"><ele>213.0</ele><time>2026-04-11T09:31:39.999Z</time></trkpt><trkpt lat="43.23854600749473" lon="11.372803353123032"><ele>213.0</ele><time>2026-04-11T09:31:40.999Z</time></trkpt><trkpt lat="43.23847073351995" lon="11.372853020489258"><ele>213.0</ele><time>2026-04-11T09:31:41.999Z</time></trkpt><trkpt lat="43.23840527852848" lon="11.3729221044646"><ele>213.0</ele><time>2026-04-11T09:31:42.999Z</time></trkpt><trkpt lat="43.23833488409955" lon="11.372975937710521"><ele>213.0</ele><time>2026-04-11T09:31:43.999Z</time></trkpt><trkpt lat="43.23827603632672" lon="11.373049349906093"><ele>213.0</ele><time>2026-04-11T09:31:44.999Z</time></trkpt><trkpt lat="43.23821592649786" lon="11.373117965549515"><ele>213.0</ele><time>2026-04-11T09:31:45.999Z</time></trkpt><trkpt lat="43.2381983793463" lon="11.37323634448702"><ele>213.0</ele><time>2026-04-11T09:31:46.999Z</time></trkpt><trkpt lat="43.23821091612488" lon="11.373346226600514"><ele>211.85714285714283</ele><time>2026-04-11T09:31:47.999Z</time></trkpt><trkpt lat="43.238212625656985" lon="11.373446011513884"><ele>210.71428571428572</ele><time>2026-04-11T09:31:48.999Z</time></trkpt><trkpt lat="43.238217409661566" lon="11.37354079074861"><ele>209.57142857142856</ele><time>2026-04-11T09:31:49.999Z</time></trkpt><trkpt lat="43.23822658950663" lon="11.373635700416473"><ele>208.42857142857142</ele><time>2026-04-11T09:31:50.999Z</time></trkpt><trkpt lat="43.23821918410103" lon="11.373731123213458"><ele>207.28571428571428</ele><time>2026-04-11T09:31:51.999Z</time></trkpt><trkpt lat="43.23822706788295" lon="11.373825827540179"><ele>206.14285714285714</ele><time>2026-04-11T09:31:52.999Z</time></trkpt><trkpt lat="43.238235018431254" lon="11.373921333598474"><ele>205.0</ele><time>2026-04-11T09:31:53.999Z</time></trkpt><trkpt lat="43.23824340953607" lon="11.374022132048598"><ele>204.83333333333331</ele><time>2026-04-11T09:31:54.999Z</time></trkpt><trkpt lat="43.23826775384908" lon="11.374119713634656"><ele>204.66666666666666</ele><time>2026-04-11T09:31:55.999Z</time></trkpt><trkpt lat="43.238259125849744" lon="11.374224842559181"><ele>204.5</ele><time>2026-04-11T09:31:56.999Z</time></trkpt><trkpt lat="43.23826622252852" lon="11.374326971186967"><ele>204.33333333333331</ele><time>2026-04-11T09:31:57.999Z</time></trkpt><trkpt lat="43.238271333198746" lon="11.374429932400812"><ele>204.16666666666666</ele><time>2026-04-11T09:31:58.999Z</time></trkpt><trkpt lat="43.23827645335556" lon="11.374539200638488"><ele>204.0</ele><time>2026-04-11T09:31:59.999Z</time></trkpt><trkpt lat="43.23827857002744" lon="11.374647441127998"><ele>204.0</ele><time>2026-04-11T09:32:00.999Z</time></trkpt><trkpt lat="43.23827430239011" lon="11.374757723020268"><ele>204.0</ele><time>2026-04-11T09:32:01.999Z</time></trkpt><trkpt lat="43.238263973389465" lon="11.374862271535541"><ele>204.0</ele><time>2026-04-11T09:32:02.999Z</time></trkpt><trkpt lat="43.23824207546271" lon="11.374959094562431"><ele>204.0</ele><time>2026-04-11T09:32:03.999Z</time></trkpt><trkpt lat="43.23820670655126" lon="11.375037341129255"><ele>204.0</ele><time>2026-04-11T09:32:04.999Z</time></trkpt><trkpt lat="43.23816290325365" lon="11.375105954754936"><ele>204.0</ele><time>2026-04-11T09:32:05.999Z</time></trkpt><trkpt lat="43.238105079388525" lon="11.375145588135563"><ele>204.0</ele><time>2026-04-11T09:32:06.999Z</time></trkpt><trkpt lat="43.23804334133621" lon="11.375201777688572"><ele>204.0</ele><time>2026-04-11T09:32:07.999Z</time></trkpt><trkpt lat="43.237978498837826" lon="11.375259218736156"><ele>204.0</ele><time>2026-04-11T09:32:08.999Z</time></trkpt><trkpt lat="43.23791218254774" lon="11.375317965271579"><ele>204.0</ele><time>2026-04-11T09:32:09.999Z</time></trkpt><trkpt lat="43.237845222910444" lon="11.37537728165729"><ele>204.0</ele><time>2026-04-11T09:32:10.999Z</time></trkpt><trkpt lat="43.237775793331586" lon="11.375440692175827"><ele>204.0</ele><time>2026-04-11T09:32:11.999Z</time></trkpt><trkpt lat="43.23770883278601" lon="11.375505796731296"><ele>204.0</ele><time>2026-04-11T09:32:12.999Z</time></trkpt><trkpt lat="43.23764033078843" lon="11.375577788952624"><ele>203.16666666666666</ele><time>2026-04-11T09:32:13.999Z</time></trkpt><trkpt lat="43.23757476359534" lon="11.37564713402522"><ele>202.33333333333331</ele><time>2026-04-11T09:32:14.999Z</time></trkpt><trkpt lat="43.23750838404457" lon="11.375720801789697"><ele>201.5</ele><time>2026-04-11T09:32:15.999Z</time></trkpt><trkpt lat="43.237444123661824" lon="11.375792310516966"><ele>200.66666666666666</ele><time>2026-04-11T09:32:16.999Z</time></trkpt><trkpt lat="43.23737988838931" lon="11.375863791357522"><ele>199.83333333333331</ele><time>2026-04-11T09:32:17.999Z</time></trkpt><trkpt lat="43.23731595313099" lon="11.375934938373097"><ele>199.0</ele><time>2026-04-11T09:32:18.999Z</time></trkpt><trkpt lat="43.23725061138332" lon="11.376007650603295"><ele>198.49999999999997</ele><time>2026-04-11T09:32:19.999Z</time></trkpt><trkpt lat="43.237185216424756" lon="11.376080422204558"><ele>198.0</ele><time>2026-04-11T09:32:20.999Z</time></trkpt><trkpt lat="43.23711970599175" lon="11.376153183625723"><ele>197.5</ele><time>2026-04-11T09:32:21.999Z</time></trkpt><trkpt lat="43.23705489194876" lon="11.376222351247293"><ele>197.0</ele><time>2026-04-11T09:32:22.999Z</time></trkpt><trkpt lat="43.23698750744718" lon="11.376286090655585"><ele>196.49999999999997</ele><time>2026-04-11T09:32:23.999Z</time></trkpt><trkpt lat="43.23691676353865" lon="11.376334066160197"><ele>196.0</ele><time>2026-04-11T09:32:24.999Z</time></trkpt><trkpt lat="43.236841835858776" lon="11.37635975045387"><ele>195.99999999999997</ele><time>2026-04-11T09:32:25.999Z</time></trkpt><trkpt lat="43.23675791528383" lon="11.376367245530371"><ele>196.0</ele><time>2026-04-11T09:32:26.999Z</time></trkpt><trkpt lat="43.23667015649794" lon="11.376362343840592"><ele>196.0</ele><time>2026-04-11T09:32:27.999Z</time></trkpt><trkpt lat="43.23658473605668" lon="11.376347317711454"><ele>196.0</ele><time>2026-04-11T09:32:28.999Z</time></trkpt><trkpt lat="43.236491456370906" lon="11.376322863350046"><ele>195.99999999999997</ele><time>2026-04-11T09:32:29.999Z</time></trkpt><trkpt lat="43.23641763908448" lon="11.376279788550798"><ele>196.0</ele><time>2026-04-11T09:32:30.999Z</time></trkpt><trkpt lat="43.236354014105615" lon="11.376194111266345"><ele>194.0</ele><time>2026-04-11T09:32:31.999Z</time></trkpt><trkpt lat="43.2362996532747" lon="11.37609557606578"><ele>192.0</ele><time>2026-04-11T09:32:32.999Z</time></trkpt><trkpt lat="43.23625289998397" lon="11.375987963143727"><ele>190.0</ele><time>2026-04-11T09:32:33.999Z</time></trkpt><trkpt lat="43.23622671675073" lon="11.375865775805202"><ele>188.0</ele><time>2026-04-11T09:32:34.999Z</time></trkpt><trkpt lat="43.236205751504436" lon="11.375734629209356"><ele>186.0</ele><time>2026-04-11T09:32:35.999Z</time></trkpt><trkpt lat="43.23618639294679" lon="11.375602157850933"><ele>185.20000000000002</ele><time>2026-04-11T09:32:36.999Z</time></trkpt><trkpt lat="43.236188247489125" lon="11.37546587660401"><ele>184.4</ele><time>2026-04-11T09:32:37.999Z</time></trkpt><trkpt lat="43.23620337428763" lon="11.375336928377834"><ele>183.6</ele><time>2026-04-11T09:32:38.999Z</time></trkpt><trkpt lat="43.236238767553836" lon="11.375212933109186"><ele>182.8</ele><time>2026-04-11T09:32:39.999Z</time></trkpt><trkpt lat="43.23629056618374" lon="11.37509684406224"><ele>182.0</ele><time>2026-04-11T09:32:40.999Z</time></trkpt><trkpt lat="43.236350087642705" lon="11.37498852579806"><ele>182.0</ele><time>2026-04-11T09:32:41.999Z</time></trkpt><trkpt lat="43.23640691101108" lon="11.37487630739796"><ele>182.0</ele><time>2026-04-11T09:32:42.999Z</time></trkpt><trkpt lat="43.23645643438544" lon="11.374755260564358"><ele>182.0</ele><time>2026-04-11T09:32:43.999Z</time></trkpt><trkpt lat="43.23649193466341" lon="11.374622125248715"><ele>182.0</ele><time>2026-04-11T09:32:44.999Z</time></trkpt><trkpt lat="43.23651897011304" lon="11.374482140063833"><ele>182.0</ele><time>2026-04-11T09:32:45.999Z</time></trkpt><trkpt lat="43.23654112780627" lon="11.374341889489779"><ele>183.0</ele><time>2026-04-11T09:32:46.999Z</time></trkpt><trkpt lat="43.2365626493296" lon="11.3742072221791"><ele>184.0</ele><time>2026-04-11T09:32:47.999Z</time></trkpt><trkpt lat="43.23657870957628" lon="11.37407453942676"><ele>185.0</ele><time>2026-04-11T09:32:49Z</time></trkpt><trkpt lat="43.236574609811534" lon="11.3739363940349"><ele>186.0</ele><time>2026-04-11T09:32:50Z</time></trkpt><trkpt lat="43.23657339184142" lon="11.373796035503588"><ele>187.0</ele><time>2026-04-11T09:32:51Z</time></trkpt><trkpt lat="43.23653482011593" lon="11.373661853507185"><ele>187.0</ele><time>2026-04-11T09:32:52Z</time></trkpt><trkpt lat="43.2364703189333" lon="11.373538976913839"><ele>187.0</ele><time>2026-04-11T09:32:53Z</time></trkpt><trkpt lat="43.236380456132906" lon="11.37344838779693"><ele>187.0</ele><time>2026-04-11T09:32:54Z</time></trkpt><trkpt lat="43.23627668882893" lon="11.373391701117022"><ele>187.0</ele><time>2026-04-11T09:32:55Z</time></trkpt><trkpt lat="43.23616680978195" lon="11.373397558350641"><ele>187.0</ele><time>2026-04-11T09:32:56Z</time></trkpt><trkpt lat="43.23606167434133" lon="11.373375919445767"><ele>186.0</ele><time>2026-04-11T09:32:57Z</time></trkpt><trkpt lat="43.23595679552538" lon="11.37338285139819"><ele>185.0</ele><time>2026-04-11T09:32:58Z</time></trkpt><trkpt lat="43.235852309632996" lon="11.373394179492145"><ele>184.0</ele><time>2026-04-11T09:32:59Z</time></trkpt><trkpt lat="43.23574793404664" lon="11.373406191377224"><ele>183.0</ele><time>2026-04-11T09:33:00Z</time></trkpt><trkpt lat="43.23564243155476" lon="11.373419295810335"><ele>182.0</ele><time>2026-04-11T09:33:01Z</time></trkpt><trkpt lat="43.23553777215528" lon="11.373433344631712"><ele>181.0</ele><time>2026-04-11T09:33:02Z</time></trkpt><trkpt lat="43.235433407087484" lon="11.373444615614817"><ele>180.0</ele><time>2026-04-11T09:33:03Z</time></trkpt><trkpt lat="43.2353287889167" lon="11.373454421935774"><ele>179.0</ele><time>2026-04-11T09:33:04Z</time></trkpt><trkpt lat="43.2352240003664" lon="11.373464246021356"><ele>178.0</ele><time>2026-04-11T09:33:05Z</time></trkpt><trkpt lat="43.2351210984372" lon="11.373473891462108"><ele>177.0</ele><time>2026-04-11T09:33:06Z</time></trkpt><trkpt lat="43.23502011870641" lon="11.373503372941485"><ele>177.0</ele><time>2026-04-11T09:33:07Z</time></trkpt><trkpt lat="43.234921496322706" lon="11.373512122217692"><ele>177.0</ele><time>2026-04-11T09:33:08Z</time></trkpt><trkpt lat="43.23481956738126" lon="11.373502155298162"><ele>177.0</ele><time>2026-04-11T09:33:09Z</time></trkpt><trkpt lat="43.23471909061771" lon="11.373511573422281"><ele>177.0</ele><time>2026-04-11T09:33:10Z</time></trkpt><trkpt lat="43.23462068922845" lon="11.373519559824581"><ele>177.0</ele><time>2026-04-11T09:33:11Z</time></trkpt><trkpt lat="43.23452643531733" lon="11.373526820915396"><ele>177.16666666666666</ele><time>2026-04-11T09:33:12Z</time></trkpt><trkpt lat="43.23444739889767" lon="11.373553359803998"><ele>177.33333333333334</ele><time>2026-04-11T09:33:13Z</time></trkpt><trkpt lat="43.23435185863666" lon="11.37353980423778"><ele>177.5</ele><time>2026-04-11T09:33:14Z</time></trkpt><trkpt lat="43.234262673823096" lon="11.373546713737936"><ele>177.66666666666669</ele><time>2026-04-11T09:33:15Z</time></trkpt><trkpt lat="43.2341782318835" lon="11.373553978075632"><ele>177.83333333333334</ele><time>2026-04-11T09:33:16Z</time></trkpt><trkpt lat="43.23409743643172" lon="11.373561514330593"><ele>178.0</ele><time>2026-04-11T09:33:17Z</time></trkpt><trkpt lat="43.23401911501487" lon="11.37358575429804"><ele>178.16666666666669</ele><time>2026-04-11T09:33:18Z</time></trkpt><trkpt lat="43.23393743292962" lon="11.373586685930022"><ele>178.33333333333334</ele><time>2026-04-11T09:33:19Z</time></trkpt><trkpt lat="43.23385913941541" lon="11.373594246276092"><ele>178.5</ele><time>2026-04-11T09:33:20Z</time></trkpt><trkpt lat="43.23378224365533" lon="11.373615880505781"><ele>178.66666666666666</ele><time>2026-04-11T09:33:21Z</time></trkpt><trkpt lat="43.233708661209945" lon="11.37364668659614"><ele>178.83333333333331</ele><time>2026-04-11T09:33:22Z</time></trkpt><trkpt lat="43.233637908354396" lon="11.373680067483237"><ele>179.0</ele><time>2026-04-11T09:33:23Z</time></trkpt><trkpt lat="43.23356878150697" lon="11.37372304771472"><ele>179.00000000000003</ele><time>2026-04-11T09:33:24Z</time></trkpt><trkpt lat="43.2335026948099" lon="11.37376516813943"><ele>179.0</ele><time>2026-04-11T09:33:25Z</time></trkpt><trkpt lat="43.23344039816746" lon="11.373805411557647"><ele>179.0</ele><time>2026-04-11T09:33:26Z</time></trkpt><trkpt lat="43.23337681442193" lon="11.373850602814473"><ele>179.0</ele><time>2026-04-11T09:33:27Z</time></trkpt><trkpt lat="43.2333139310351" lon="11.373895615519102"><ele>179.0</ele><time>2026-04-11T09:33:28Z</time></trkpt><trkpt lat="43.23325111484964" lon="11.37394092457421"><ele>179.00000000000003</ele><time>2026-04-11T09:33:29Z</time></trkpt><trkpt lat="43.2331892054649" lon="11.373985640551252"><ele>179.0</ele><time>2026-04-11T09:33:30Z</time></trkpt><trkpt lat="43.23312776209093" lon="11.374029692114267"><ele>179.00000000000003</ele><time>2026-04-11T09:33:31Z</time></trkpt><trkpt lat="43.233067213966414" lon="11.374073918702406"><ele>179.0</ele><time>2026-04-11T09:33:32Z</time></trkpt><trkpt lat="43.23300650842163" lon="11.374116822323435"><ele>179.0</ele><time>2026-04-11T09:33:33Z</time></trkpt><trkpt lat="43.23294545793137" lon="11.374155123823206"><ele>179.0</ele><time>2026-04-11T09:33:34Z</time></trkpt><trkpt lat="43.232882730702066" lon="11.374195232882299"><ele>179.0</ele><time>2026-04-11T09:33:35Z</time></trkpt><trkpt lat="43.232826513392304" lon="11.374241832937841"><ele>179.00000000000003</ele><time>2026-04-11T09:33:35.999Z</time></trkpt><trkpt lat="43.23276698774747" lon="11.374283845700498"><ele>179.0</ele><time>2026-04-11T09:33:36.999Z</time></trkpt><trkpt lat="43.23269918116178" lon="11.3743058558928"><ele>179.00000000000003</ele><time>2026-04-11T09:33:37.999Z</time></trkpt><trkpt lat="43.232639291109656" lon="11.374346540433871"><ele>179.0</ele><time>2026-04-11T09:33:38.999Z</time></trkpt><trkpt lat="43.23257775069025" lon="11.374388346109477"><ele>179.0</ele><time>2026-04-11T09:33:39.999Z</time></trkpt><trkpt lat="43.23251840240698" lon="11.374428662562968"><ele>179.0</ele><time>2026-04-11T09:33:40.999Z</time></trkpt><trkpt lat="43.23245984668646" lon="11.374468440416358"><ele>179.0</ele><time>2026-04-11T09:33:41.999Z</time></trkpt><trkpt lat="43.232401749731245" lon="11.374510700067185"><ele>179.00000000000003</ele><time>2026-04-11T09:33:42.999Z</time></trkpt><trkpt lat="43.232349052991516" lon="11.374569640265246"><ele>179.0</ele><time>2026-04-11T09:33:43.999Z</time></trkpt><trkpt lat="43.23229098363328" lon="11.374606594696692"><ele>179.0</ele><time>2026-04-11T09:33:44.999Z</time></trkpt><trkpt lat="43.232234221989906" lon="11.37464551386669"><ele>179.0</ele><time>2026-04-11T09:33:45.999Z</time></trkpt><trkpt lat="43.2321240088924" lon="11.374724696385186"><ele>179.0</ele><time>2026-04-11T09:33:47.999Z</time></trkpt><trkpt lat="43.23206732417969" lon="11.374763740650856"><ele>179.0</ele><time>2026-04-11T09:33:48.999Z</time></trkpt><trkpt lat="43.23196200375414" lon="11.37484819249741"><ele>179.0</ele><time>2026-04-11T09:33:50.999Z</time></trkpt><trkpt lat="43.231855979174455" lon="11.374924422143435"><ele>179.0</ele><time>2026-04-11T09:33:52.999Z</time></trkpt><trkpt lat="43.231748938454864" lon="11.374996038314144"><ele>179.0</ele><time>2026-04-11T09:33:54.999Z</time></trkpt><trkpt lat="43.23164317119618" lon="11.375077649655038"><ele>179.0</ele><time>2026-04-11T09:33:56.999Z</time></trkpt><trkpt lat="43.23153451813869" lon="11.375156990443797"><ele>179.0</ele><time>2026-04-11T09:33:58.999Z</time></trkpt><trkpt lat="43.23142517486761" lon="11.375233084856653"><ele>179.0</ele><time>2026-04-11T09:34:00.999Z</time></trkpt><trkpt lat="43.231315077474584" lon="11.375306573078594"><ele>179.0</ele><time>2026-04-11T09:34:02.999Z</time></trkpt><trkpt lat="43.23120339897155" lon="11.375383160138938"><ele>179.0</ele><time>2026-04-11T09:34:04.999Z</time></trkpt><trkpt lat="43.231098559022605" lon="11.375457129121456"><ele>179.0</ele><time>2026-04-11T09:34:06.999Z</time></trkpt><trkpt lat="43.23099316914017" lon="11.37553325983799"><ele>179.0</ele><time>2026-04-11T09:34:08.999Z</time></trkpt><trkpt lat="43.23088755090933" lon="11.375607458673711"><ele>179.0</ele><time>2026-04-11T09:34:10.999Z</time></trkpt><trkpt lat="43.230778293187825" lon="11.37569011751451"><ele>179.0</ele><time>2026-04-11T09:34:12.999Z</time></trkpt><trkpt lat="43.230670141987794" lon="11.375768251447045"><ele>179.0</ele><time>2026-04-11T09:34:14.999Z</time></trkpt><trkpt lat="43.23056111714274" lon="11.375844345844186"><ele>180.0</ele><time>2026-04-11T09:34:16.999Z</time></trkpt><trkpt lat="43.23045342245452" lon="11.37591796169923"><ele>181.0</ele><time>2026-04-11T09:34:18.999Z</time></trkpt><trkpt lat="43.230347072798914" lon="11.37599680639541"><ele>182.0</ele><time>2026-04-11T09:34:20.999Z</time></trkpt><trkpt lat="43.23023783203479" lon="11.376071944507844"><ele>183.0</ele><time>2026-04-11T09:34:22.999Z</time></trkpt><trkpt lat="43.23018122352559" lon="11.3761124669956"><ele>184.0</ele><time>2026-04-11T09:34:23.999Z</time></trkpt><trkpt lat="43.23007728045304" lon="11.376190628456841"><ele>184.0</ele><time>2026-04-11T09:34:25.999Z</time></trkpt><trkpt lat="43.229973677414236" lon="11.376268623784272"><ele>184.0</ele><time>2026-04-11T09:34:27.999Z</time></trkpt><trkpt lat="43.22987214457156" lon="11.376350063394485"><ele>184.0</ele><time>2026-04-11T09:34:29.999Z</time></trkpt><trkpt lat="43.22977241006631" lon="11.37643287969202"><ele>184.0</ele><time>2026-04-11T09:34:31.999Z</time></trkpt><trkpt lat="43.22967307755532" lon="11.376511438046217"><ele>184.5</ele><time>2026-04-11T09:34:33.999Z</time></trkpt><trkpt lat="43.229573909418356" lon="11.376596112618678"><ele>185.0</ele><time>2026-04-11T09:34:35.999Z</time></trkpt><trkpt lat="43.2294569781959" lon="11.376679276525287"><ele>185.5</ele><time>2026-04-11T09:34:37.999Z</time></trkpt><trkpt lat="43.22936771714279" lon="11.376760233193897"><ele>186.0</ele><time>2026-04-11T09:34:39.999Z</time></trkpt><trkpt lat="43.22927040243444" lon="11.376843794566069"><ele>186.0</ele><time>2026-04-11T09:34:41.999Z</time></trkpt><trkpt lat="43.22916904919755" lon="11.376929756562664"><ele>186.0</ele><time>2026-04-11T09:34:43.999Z</time></trkpt><trkpt lat="43.2290613960227" lon="11.377006926560869"><ele>186.0</ele><time>2026-04-11T09:34:45.999Z</time></trkpt><trkpt lat="43.228952812149885" lon="11.37708095915704"><ele>186.0</ele><time>2026-04-11T09:34:47.999Z</time></trkpt><trkpt lat="43.22884025864016" lon="11.377137935275513"><ele>184.66666666666666</ele><time>2026-04-11T09:34:49.999Z</time></trkpt><trkpt lat="43.22872330753848" lon="11.377193132865589"><ele>183.33333333333334</ele><time>2026-04-11T09:34:51.999Z</time></trkpt><trkpt lat="43.228600997811796" lon="11.377229895890121"><ele>182.0</ele><time>2026-04-11T09:34:54Z</time></trkpt><trkpt lat="43.22853787740915" lon="11.377220991880485"><ele>180.66666666666669</ele><time>2026-04-11T09:34:55Z</time></trkpt><trkpt lat="43.22847322859621" lon="11.377231230709937"><ele>179.33333333333334</ele><time>2026-04-11T09:34:56Z</time></trkpt><trkpt lat="43.22841251219848" lon="11.377261503599636"><ele>178.0</ele><time>2026-04-11T09:34:57Z</time></trkpt><trkpt lat="43.228347566753165" lon="11.377266749297874"><ele>178.0</ele><time>2026-04-11T09:34:58Z</time></trkpt><trkpt lat="43.22822670610387" lon="11.37727562013719"><ele>178.0</ele><time>2026-04-11T09:35:00Z</time></trkpt><trkpt lat="43.2281130283024" lon="11.37728295661369"><ele>178.0</ele><time>2026-04-11T09:35:02Z</time></trkpt><trkpt lat="43.22800163107781" lon="11.37729248347716"><ele>178.0</ele><time>2026-04-11T09:35:04Z</time></trkpt><trkpt lat="43.227895999811636" lon="11.377305488179708"><ele>178.0</ele><time>2026-04-11T09:35:06Z</time></trkpt><trkpt lat="43.22778542695491" lon="11.377301149914476"><ele>178.0</ele><time>2026-04-11T09:35:08Z</time></trkpt><trkpt lat="43.22767738120148" lon="11.37730539013021"><ele>178.0</ele><time>2026-04-11T09:35:10Z</time></trkpt><trkpt lat="43.22756898802293" lon="11.377306169210172"><ele>178.0</ele><time>2026-04-11T09:35:12Z</time></trkpt><trkpt lat="43.22746227638927" lon="11.377311505909939"><ele>178.0</ele><time>2026-04-11T09:35:14Z</time></trkpt><trkpt lat="43.22735830752696" lon="11.377292527704922"><ele>177.75</ele><time>2026-04-11T09:35:16Z</time></trkpt><trkpt lat="43.22724631650205" lon="11.377256792064548"><ele>177.5</ele><time>2026-04-11T09:35:18Z</time></trkpt><trkpt lat="43.22713723027426" lon="11.377214014938835"><ele>177.25</ele><time>2026-04-11T09:35:20Z</time></trkpt><trkpt lat="43.22702432696951" lon="11.377152596980176"><ele>177.0</ele><time>2026-04-11T09:35:22Z</time></trkpt><trkpt lat="43.22691427373377" lon="11.377083812425541"><ele>178.0</ele><time>2026-04-11T09:35:24Z</time></trkpt><trkpt lat="43.226810082315104" lon="11.377010701818078"><ele>179.0</ele><time>2026-04-11T09:35:26Z</time></trkpt><trkpt lat="43.226710084714455" lon="11.376923239288425"><ele>180.0</ele><time>2026-04-11T09:35:28Z</time></trkpt><trkpt lat="43.22661086859843" lon="11.376836139107356"><ele>181.0</ele><time>2026-04-11T09:35:30Z</time></trkpt><trkpt lat="43.22651750678145" lon="11.376739107869257"><ele>180.5</ele><time>2026-04-11T09:35:32Z</time></trkpt><trkpt lat="43.22642991646449" lon="11.376633564767985"><ele>180.0</ele><time>2026-04-11T09:35:34Z</time></trkpt><trkpt lat="43.22635452718508" lon="11.37651793897939"><ele>179.5</ele><time>2026-04-11T09:35:36Z</time></trkpt><trkpt lat="43.22627892044615" lon="11.376397230741464"><ele>179.0</ele><time>2026-04-11T09:35:38Z</time></trkpt><trkpt lat="43.226212974904676" lon="11.37625718956069"><ele>179.0</ele><time>2026-04-11T09:35:40Z</time></trkpt><trkpt lat="43.2261565665009" lon="11.376106028517896"><ele>179.0</ele><time>2026-04-11T09:35:41.999Z</time></trkpt><trkpt lat="43.22610763105253" lon="11.375951453043891"><ele>179.0</ele><time>2026-04-11T09:35:43.999Z</time></trkpt><trkpt lat="43.22607272419069" lon="11.375793006917492"><ele>179.0</ele><time>2026-04-11T09:35:45.999Z</time></trkpt><trkpt lat="43.226038119087036" lon="11.375633375857518"><ele>178.79999999999998</ele><time>2026-04-11T09:35:47.999Z</time></trkpt><trkpt lat="43.226024742451116" lon="11.37547651754571"><ele>178.6</ele><time>2026-04-11T09:35:49.999Z</time></trkpt><trkpt lat="43.226024279430256" lon="11.375306585658619"><ele>178.4</ele><time>2026-04-11T09:35:51.999Z</time></trkpt><trkpt lat="43.22603465919955" lon="11.375156614437488"><ele>178.2</ele><time>2026-04-11T09:35:53.999Z</time></trkpt><trkpt lat="43.226047631437794" lon="11.37505317321699"><ele>178.0</ele><time>2026-04-11T09:35:54.999Z</time></trkpt><trkpt lat="43.22606256795153" lon="11.374887390692773"><ele>177.99999999999997</ele><time>2026-04-11T09:35:56.999Z</time></trkpt><trkpt lat="43.22608192197291" lon="11.374717204365004"><ele>178.0</ele><time>2026-04-11T09:35:58.999Z</time></trkpt><trkpt lat="43.226090736848384" lon="11.374630258648073"><ele>178.0</ele><time>2026-04-11T09:35:59.999Z</time></trkpt><trkpt lat="43.22610035358576" lon="11.374544105772006"><ele>178.0</ele><time>2026-04-11T09:36:00.999Z</time></trkpt><trkpt lat="43.22610936247569" lon="11.374457287014286"><ele>178.0</ele><time>2026-04-11T09:36:01.999Z</time></trkpt><trkpt lat="43.22611912466046" lon="11.374370336287708"><ele>177.99999999999997</ele><time>2026-04-11T09:36:02.999Z</time></trkpt><trkpt lat="43.22612555679453" lon="11.374283564700445"><ele>178.0</ele><time>2026-04-11T09:36:03.999Z</time></trkpt><trkpt lat="43.2261338458669" lon="11.374110989412888"><ele>178.0</ele><time>2026-04-11T09:36:05.999Z</time></trkpt><trkpt lat="43.22613897568118" lon="11.373938790748761"><ele>178.0</ele><time>2026-04-11T09:36:07.999Z</time></trkpt><trkpt lat="43.22613532578625" lon="11.37384760115964"><ele>178.0</ele><time>2026-04-11T09:36:08.999Z</time></trkpt><trkpt lat="43.22613121342296" lon="11.373757960370426"><ele>178.0</ele><time>2026-04-11T09:36:09.999Z</time></trkpt><trkpt lat="43.22612401394119" lon="11.373671174858153"><ele>178.0</ele><time>2026-04-11T09:36:10.999Z</time></trkpt><trkpt lat="43.226108863705385" lon="11.373585863830904"><ele>178.0</ele><time>2026-04-11T09:36:11.999Z</time></trkpt><trkpt lat="43.22607046482966" lon="11.373423225221401"><ele>178.0</ele><time>2026-04-11T09:36:13.999Z</time></trkpt><trkpt lat="43.226022373291244" lon="11.37326815413871"><ele>178.0</ele><time>2026-04-11T09:36:15.999Z</time></trkpt><trkpt lat="43.22597564358716" lon="11.373106569807916"><ele>178.0</ele><time>2026-04-11T09:36:17.999Z</time></trkpt><trkpt lat="43.22592293772916" lon="11.372949768712656"><ele>178.0</ele><time>2026-04-11T09:36:19.999Z</time></trkpt><trkpt lat="43.225897370851584" lon="11.372868377993996"><ele>178.0</ele><time>2026-04-11T09:36:20.999Z</time></trkpt><trkpt lat="43.22587359046999" lon="11.372787616838014"><ele>178.57142857142856</ele><time>2026-04-11T09:36:21.999Z</time></trkpt><trkpt lat="43.225852149712885" lon="11.37270217539435"><ele>179.14285714285714</ele><time>2026-04-11T09:36:22.999Z</time></trkpt><trkpt lat="43.22582741685876" lon="11.372614637006077"><ele>179.71428571428572</ele><time>2026-04-11T09:36:23.999Z</time></trkpt><trkpt lat="43.225798759757595" lon="11.372528180708814"><ele>180.28571428571428</ele><time>2026-04-11T09:36:24.999Z</time></trkpt><trkpt lat="43.225768909916056" lon="11.372438780109071"><ele>180.85714285714286</ele><time>2026-04-11T09:36:25.999Z</time></trkpt><trkpt lat="43.22573659623045" lon="11.372346148662372"><ele>181.42857142857142</ele><time>2026-04-11T09:36:26.999Z</time></trkpt><trkpt lat="43.225697389914735" lon="11.37226097239954"><ele>182.0</ele><time>2026-04-11T09:36:27.999Z</time></trkpt><trkpt lat="43.22564613647895" lon="11.372185800031046"><ele>181.83333333333331</ele><time>2026-04-11T09:36:28.999Z</time></trkpt><trkpt lat="43.225581679997276" lon="11.372134885483794"><ele>181.66666666666666</ele><time>2026-04-11T09:36:29.999Z</time></trkpt><trkpt lat="43.225503033717956" lon="11.37211993369926"><ele>181.5</ele><time>2026-04-11T09:36:30.999Z</time></trkpt><trkpt lat="43.225422164316214" lon="11.372149245702309"><ele>181.33333333333334</ele><time>2026-04-11T09:36:31.999Z</time></trkpt><trkpt lat="43.2253518181444" lon="11.372213297916302"><ele>181.16666666666669</ele><time>2026-04-11T09:36:32.999Z</time></trkpt><trkpt lat="43.22530099352863" lon="11.372303578561361"><ele>181.0</ele><time>2026-04-11T09:36:33.999Z</time></trkpt><trkpt lat="43.225268331585866" lon="11.372402296782708"><ele>180.85714285714286</ele><time>2026-04-11T09:36:34.999Z</time></trkpt><trkpt lat="43.22521589842458" lon="11.372490688868842"><ele>180.71428571428572</ele><time>2026-04-11T09:36:35.999Z</time></trkpt><trkpt lat="43.22518797075121" lon="11.372570715757826"><ele>180.57142857142856</ele><time>2026-04-11T09:36:36.999Z</time></trkpt><trkpt lat="43.225155775759674" lon="11.37266754394865"><ele>180.42857142857144</ele><time>2026-04-11T09:36:37.999Z</time></trkpt><trkpt lat="43.2251250528064" lon="11.372758753142675"><ele>180.2857142857143</ele><time>2026-04-11T09:36:38.999Z</time></trkpt><trkpt lat="43.22509552933835" lon="11.372840798991964"><ele>180.14285714285714</ele><time>2026-04-11T09:36:39.999Z</time></trkpt><trkpt lat="43.22506312238001" lon="11.372916376902753"><ele>180.0</ele><time>2026-04-11T09:36:40.999Z</time></trkpt><trkpt lat="43.225004639758836" lon="11.373044530019014"><ele>180.0</ele><time>2026-04-11T09:36:42.999Z</time></trkpt><trkpt lat="43.22495560225561" lon="11.373142104534754"><ele>180.0</ele><time>2026-04-11T09:36:44.999Z</time></trkpt><trkpt lat="43.22491022799199" lon="11.37321953909898"><ele>180.0</ele><time>2026-04-11T09:36:46.999Z</time></trkpt><trkpt lat="43.22484984107047" lon="11.37330312657176"><ele>180.0</ele><time>2026-04-11T09:36:49.999Z</time></trkpt><trkpt lat="43.224786224186396" lon="11.373365508726677"><ele>180.0</ele><time>2026-04-11T09:36:53.999Z</time></trkpt><trkpt lat="43.22472384067992" lon="11.373436106764931"><ele>180.0</ele><time>2026-04-11T09:36:57.999Z</time></trkpt><trkpt lat="43.22465815632295" lon="11.373479291516352"><ele>181.14285714285714</ele><time>2026-04-11T09:37:02Z</time></trkpt><trkpt lat="43.224592533109956" lon="11.373488575116447"><ele>182.2857142857143</ele><time>2026-04-11T09:37:05Z</time></trkpt><trkpt lat="43.22451904732962" lon="11.373517845932948"><ele>183.42857142857144</ele><time>2026-04-11T09:37:09Z</time></trkpt><trkpt lat="43.22444591928212" lon="11.373537960006294"><ele>184.57142857142856</ele><time>2026-04-11T09:37:13Z</time></trkpt><trkpt lat="43.22436961016821" lon="11.373537113615066"><ele>185.71428571428572</ele><time>2026-04-11T09:37:18Z</time></trkpt><trkpt lat="43.2242940749886" lon="11.373541847528529"><ele>186.85714285714286</ele><time>2026-04-11T09:37:22Z</time></trkpt><trkpt lat="43.22421866110852" lon="11.373526589413796"><ele>188.0</ele><time>2026-04-11T09:37:26Z</time></trkpt><trkpt lat="43.224152728794145" lon="11.373500448646526"><ele>188.0</ele><time>2026-04-11T09:37:30Z</time></trkpt><trkpt lat="43.22409084614301" lon="11.373454684762539"><ele>188.0</ele><time>2026-04-11T09:37:34Z</time></trkpt><trkpt lat="43.22403032823497" lon="11.373418979428395"><ele>188.0</ele><time>2026-04-11T09:37:38Z</time></trkpt><trkpt lat="43.22397196028602" lon="11.373381051297123"><ele>188.0</ele><time>2026-04-11T09:37:42Z</time></trkpt><trkpt lat="43.22392036337687" lon="11.373327865365518"><ele>188.0</ele><time>2026-04-11T09:37:45.999Z</time></trkpt><trkpt lat="43.22386093121071" lon="11.373284981091443"><ele>188.0</ele><time>2026-04-11T09:37:49.999Z</time></trkpt><trkpt lat="43.22381284309574" lon="11.373216620803186"><ele>188.0</ele><time>2026-04-11T09:37:53.999Z</time></trkpt><trkpt lat="43.223759043458415" lon="11.373149795291164"><ele>190.57142857142856</ele><time>2026-04-11T09:37:57.999Z</time></trkpt><trkpt lat="43.223717370182186" lon="11.373085004716014"><ele>193.14285714285714</ele><time>2026-04-11T09:38:01.999Z</time></trkpt><trkpt lat="43.22368586435774" lon="11.373006415672842"><ele>195.71428571428572</ele><time>2026-04-11T09:38:05.999Z</time></trkpt><trkpt lat="43.22365038773259" lon="11.372934880071677"><ele>198.28571428571428</ele><time>2026-04-11T09:38:09.999Z</time></trkpt><trkpt lat="43.22362849170504" lon="11.372843500410118"><ele>200.85714285714286</ele><time>2026-04-11T09:38:14.999Z</time></trkpt><trkpt lat="43.2235984110309" lon="11.372750532253672"><ele>203.42857142857142</ele><time>2026-04-11T09:38:19.999Z</time></trkpt><trkpt lat="43.22358981565256" lon="11.3726459232837"><ele>206.0</ele><time>2026-04-11T09:38:24.999Z</time></trkpt><trkpt lat="43.22358546275087" lon="11.372545076561783"><ele>205.99999999999997</ele><time>2026-04-11T09:38:29.999Z</time></trkpt><trkpt lat="43.22360310298909" lon="11.372458676398367"><ele>206.0</ele><time>2026-04-11T09:38:33.999Z</time></trkpt><trkpt lat="43.22361578849307" lon="11.372361773243705"><ele>206.0</ele><time>2026-04-11T09:38:37.999Z</time></trkpt><trkpt lat="43.22362678278082" lon="11.372276139424184"><ele>206.0</ele><time>2026-04-11T09:38:40.999Z</time></trkpt><trkpt lat="43.22363874773191" lon="11.372168349253636"><ele>206.0</ele><time>2026-04-11T09:38:44.999Z</time></trkpt><trkpt lat="43.22365183949468" lon="11.372082169049433"><ele>205.99999999999997</ele><time>2026-04-11T09:38:47.999Z</time></trkpt><trkpt lat="43.223656163893764" lon="11.37199263308511"><ele>206.0</ele><time>2026-04-11T09:38:50.999Z</time></trkpt><trkpt lat="43.22365393170865" lon="11.371888952493668"><ele>205.99999999999997</ele><time>2026-04-11T09:38:54.999Z</time></trkpt><trkpt lat="43.22365045922898" lon="11.37180043592653"><ele>206.0</ele><time>2026-04-11T09:38:57.999Z</time></trkpt><trkpt lat="43.22363069460959" lon="11.371715137898631"><ele>206.0</ele><time>2026-04-11T09:39:00.999Z</time></trkpt><trkpt lat="43.223599240825784" lon="11.371632030110524"><ele>206.0</ele><time>2026-04-11T09:39:03.999Z</time></trkpt><trkpt lat="43.223568353457686" lon="11.371556260956044"><ele>206.0</ele><time>2026-04-11T09:39:06Z</time></trkpt><trkpt lat="43.223530576389685" lon="11.371478041840163"><ele>205.99999999999997</ele><time>2026-04-11T09:39:09Z</time></trkpt><trkpt lat="43.22349000510883" lon="11.37140699776923"><ele>206.0</ele><time>2026-04-11T09:39:12Z</time></trkpt><trkpt lat="43.223425147116444" lon="11.371330938574358"><ele>205.42857142857142</ele><time>2026-04-11T09:39:16Z</time></trkpt><trkpt lat="43.2233759824035" lon="11.371276822209925"><ele>204.85714285714286</ele><time>2026-04-11T09:39:19Z</time></trkpt><trkpt lat="43.22330837046163" lon="11.37121633055632"><ele>204.28571428571428</ele><time>2026-04-11T09:39:23Z</time></trkpt><trkpt lat="43.22324603674151" lon="11.371189164221015"><ele>203.71428571428572</ele><time>2026-04-11T09:39:27Z</time></trkpt><trkpt lat="43.22316703143078" lon="11.371189232759724"><ele>203.14285714285714</ele><time>2026-04-11T09:39:31Z</time></trkpt><trkpt lat="43.22310267159822" lon="11.371191511480385"><ele>202.57142857142856</ele><time>2026-04-11T09:39:34Z</time></trkpt><trkpt lat="43.223029106568525" lon="11.371225504887358"><ele>202.0</ele><time>2026-04-11T09:39:38Z</time></trkpt><trkpt lat="43.222953019924866" lon="11.371274438169165"><ele>201.83333333333331</ele><time>2026-04-11T09:39:42Z</time></trkpt><trkpt lat="43.22288964269391" lon="11.371352314826945"><ele>201.66666666666666</ele><time>2026-04-11T09:39:46Z</time></trkpt><trkpt lat="43.222832517129824" lon="11.371440309814018"><ele>201.5</ele><time>2026-04-11T09:39:50Z</time></trkpt><trkpt lat="43.22278465287902" lon="11.371528487999129"><ele>201.33333333333331</ele><time>2026-04-11T09:39:53.999Z</time></trkpt><trkpt lat="43.22274133129651" lon="11.371617301195375"><ele>201.16666666666666</ele><time>2026-04-11T09:39:57.999Z</time></trkpt><trkpt lat="43.222686558356905" lon="11.371704897809078"><ele>201.0</ele><time>2026-04-11T09:40:01.999Z</time></trkpt><trkpt lat="43.222640597297136" lon="11.371794172068189"><ele>202.16666666666666</ele><time>2026-04-11T09:40:05.999Z</time></trkpt><trkpt lat="43.22258838630293" lon="11.371889400493693"><ele>203.33333333333331</ele><time>2026-04-11T09:40:09.999Z</time></trkpt><trkpt lat="43.222545152091094" lon="11.371964204159386"><ele>204.5</ele><time>2026-04-11T09:40:13.999Z</time></trkpt><trkpt lat="43.222477940103566" lon="11.372053663929997"><ele>205.66666666666666</ele><time>2026-04-11T09:40:17.999Z</time></trkpt><trkpt lat="43.22242908849776" lon="11.372126113631118"><ele>206.83333333333331</ele><time>2026-04-11T09:40:21.999Z</time></trkpt><trkpt lat="43.222378195797106" lon="11.37220107810757"><ele>208.0</ele><time>2026-04-11T09:40:25.999Z</time></trkpt><trkpt lat="43.22232546421763" lon="11.372266768958717"><ele>209.85714285714286</ele><time>2026-04-11T09:40:28.999Z</time></trkpt><trkpt lat="43.2222729579182" lon="11.37232465239074"><ele>211.71428571428572</ele><time>2026-04-11T09:40:32.999Z</time></trkpt><trkpt lat="43.22221143721575" lon="11.37238507495902"><ele>213.57142857142858</ele><time>2026-04-11T09:40:36.999Z</time></trkpt><trkpt lat="43.222141411795604" lon="11.372437358324426"><ele>215.42857142857144</ele><time>2026-04-11T09:40:40.999Z</time></trkpt><trkpt lat="43.22209162134318" lon="11.372494388189084"><ele>217.28571428571428</ele><time>2026-04-11T09:40:44.999Z</time></trkpt><trkpt lat="43.222025076599536" lon="11.372533644293068"><ele>219.14285714285717</ele><time>2026-04-11T09:40:48.999Z</time></trkpt><trkpt lat="43.22194799749761" lon="11.37257759956596"><ele>221.0</ele><time>2026-04-11T09:40:52.999Z</time></trkpt><trkpt lat="43.22187252598771" lon="11.372609798746673"><ele>221.00000000000003</ele><time>2026-04-11T09:40:57.999Z</time></trkpt><trkpt lat="43.22181178284379" lon="11.372634631386413"><ele>221.0</ele><time>2026-04-11T09:41:01.999Z</time></trkpt><trkpt lat="43.221748532636056" lon="11.372654125301452"><ele>221.0</ele><time>2026-04-11T09:41:05.999Z</time></trkpt><trkpt lat="43.221684344503444" lon="11.372673055004887"><ele>221.0</ele><time>2026-04-11T09:41:09.999Z</time></trkpt><trkpt lat="43.221614106862894" lon="11.372673622464905"><ele>221.0</ele><time>2026-04-11T09:41:14Z</time></trkpt><trkpt lat="43.221551192963084" lon="11.372690505162968"><ele>221.00000000000003</ele><time>2026-04-11T09:41:18Z</time></trkpt><trkpt lat="43.221484159400404" lon="11.372705146239761"><ele>221.0</ele><time>2026-04-11T09:41:22Z</time></trkpt><trkpt lat="43.22140653233414" lon="11.372723492466386"><ele>221.8571428571429</ele><time>2026-04-11T09:41:26Z</time></trkpt><trkpt lat="43.22134385296321" lon="11.372736199552826"><ele>222.71428571428572</ele><time>2026-04-11T09:41:29Z</time></trkpt><trkpt lat="43.221279061286964" lon="11.372751933734186"><ele>223.57142857142858</ele><time>2026-04-11T09:41:33Z</time></trkpt><trkpt lat="43.22119906918323" lon="11.372770140339515"><ele>224.42857142857144</ele><time>2026-04-11T09:41:37Z</time></trkpt><trkpt lat="43.22113144865439" lon="11.372789213092545"><ele>225.2857142857143</ele><time>2026-04-11T09:41:40Z</time></trkpt><trkpt lat="43.22103855181651" lon="11.372806965569445"><ele>226.14285714285717</ele><time>2026-04-11T09:41:44Z</time></trkpt><trkpt lat="43.22097636276448" lon="11.37282084137477"><ele>227.0</ele><time>2026-04-11T09:41:47Z</time></trkpt><trkpt lat="43.220903753469834" lon="11.372837728128331"><ele>227.00000000000003</ele><time>2026-04-11T09:41:50Z</time></trkpt><trkpt lat="43.2208220704283" lon="11.372858013685764"><ele>227.0</ele><time>2026-04-11T09:41:53Z</time></trkpt><trkpt lat="43.220742260977104" lon="11.372873493020387"><ele>227.0</ele><time>2026-04-11T09:41:56Z</time></trkpt><trkpt lat="43.2206669670157" lon="11.372886195695028"><ele>227.0</ele><time>2026-04-11T09:41:58.999Z</time></trkpt><trkpt lat="43.22059366411286" lon="11.37290665001123"><ele>227.00000000000003</ele><time>2026-04-11T09:42:01.999Z</time></trkpt><trkpt lat="43.22052253842077" lon="11.372923397821626"><ele>227.0</ele><time>2026-04-11T09:42:04.999Z</time></trkpt><trkpt lat="43.220455944217335" lon="11.372936038274332"><ele>227.57142857142858</ele><time>2026-04-11T09:42:07.999Z</time></trkpt><trkpt lat="43.220391635479565" lon="11.3729452955786"><ele>228.14285714285717</ele><time>2026-04-11T09:42:10.999Z</time></trkpt><trkpt lat="43.22032857372087" lon="11.372954839294703"><ele>228.71428571428572</ele><time>2026-04-11T09:42:13.999Z</time></trkpt><trkpt lat="43.22026477890251" lon="11.372976783278025"><ele>229.28571428571428</ele><time>2026-04-11T09:42:16.999Z</time></trkpt><trkpt lat="43.220182345857374" lon="11.372993435666537"><ele>229.85714285714286</ele><time>2026-04-11T09:42:20.999Z</time></trkpt><trkpt lat="43.220099121919056" lon="11.37300967988016"><ele>230.42857142857144</ele><time>2026-04-11T09:42:24.999Z</time></trkpt><trkpt lat="43.22001988937837" lon="11.373028415287418"><ele>231.0</ele><time>2026-04-11T09:42:28.999Z</time></trkpt><trkpt lat="43.21994699663827" lon="11.373040011751408"><ele>231.0</ele><time>2026-04-11T09:42:32.999Z</time></trkpt><trkpt lat="43.21987573665666" lon="11.373066810945145"><ele>231.0</ele><time>2026-04-11T09:42:36.999Z</time></trkpt><trkpt lat="43.21979841590118" lon="11.373077701006176"><ele>231.0</ele><time>2026-04-11T09:42:41.999Z</time></trkpt><trkpt lat="43.219731507607015" lon="11.37308439214472"><ele>231.0</ele><time>2026-04-11T09:42:46.999Z</time></trkpt><trkpt lat="43.21966722132802" lon="11.373091949331364"><ele>231.0</ele><time>2026-04-11T09:42:51.999Z</time></trkpt><trkpt lat="43.21959212925043" lon="11.373090245656945"><ele>231.0</ele><time>2026-04-11T09:42:56.999Z</time></trkpt><trkpt lat="43.219527284312356" lon="11.373093595395865"><ele>231.0</ele><time>2026-04-11T09:43:00.999Z</time></trkpt><trkpt lat="43.21945791766812" lon="11.373096467854992"><ele>232.85714285714286</ele><time>2026-04-11T09:43:05.999Z</time></trkpt><trkpt lat="43.2193866276356" lon="11.373087676866982"><ele>234.71428571428572</ele><time>2026-04-11T09:43:10.999Z</time></trkpt><trkpt lat="43.2193100177266" lon="11.373074592848766"><ele>236.57142857142856</ele><time>2026-04-11T09:43:15.999Z</time></trkpt><trkpt lat="43.219238737393916" lon="11.373066239834271"><ele>238.42857142857142</ele><time>2026-04-11T09:43:20Z</time></trkpt><trkpt lat="43.21916668402767" lon="11.373045739182626"><ele>240.28571428571428</ele><time>2026-04-11T09:43:24Z</time></trkpt><trkpt lat="43.21909802971775" lon="11.373029153957098"><ele>242.1428571428571</ele><time>2026-04-11T09:43:28Z</time></trkpt><trkpt lat="43.21902224316577" lon="11.373028351013922"><ele>243.99999999999997</ele><time>2026-04-11T09:43:31Z</time></trkpt><trkpt lat="43.21895603084499" lon="11.37300252706475"><ele>246.0</ele><time>2026-04-11T09:43:34Z</time></trkpt><trkpt lat="43.21888264123793" lon="11.372970216784754"><ele>248.0</ele><time>2026-04-11T09:43:36Z</time></trkpt><trkpt lat="43.21879712826512" lon="11.372934532832558"><ele>250.0</ele><time>2026-04-11T09:43:39Z</time></trkpt><trkpt lat="43.21871988068424" lon="11.372927820724332"><ele>252.0</ele><time>2026-04-11T09:43:42Z</time></trkpt><trkpt lat="43.21852157940821" lon="11.372794133592912"><ele>252.0</ele><time>2026-04-11T09:43:44Z</time></trkpt><trkpt lat="43.218439423638614" lon="11.372744740119634"><ele>252.0</ele><time>2026-04-11T09:43:46Z</time></trkpt><trkpt lat="43.21835645591628" lon="11.372700843083193"><ele>252.0</ele><time>2026-04-11T09:43:48Z</time></trkpt><trkpt lat="43.21827732901946" lon="11.372663944062586"><ele>252.0</ele><time>2026-04-11T09:43:50Z</time></trkpt><trkpt lat="43.218201251942254" lon="11.372618422331762"><ele>252.0</ele><time>2026-04-11T09:43:52Z</time></trkpt><trkpt lat="43.21812163841862" lon="11.372577605093621"><ele>252.0</ele><time>2026-04-11T09:43:54Z</time></trkpt><trkpt lat="43.21803212137475" lon="11.37254570352199"><ele>250.0</ele><time>2026-04-11T09:43:56Z</time></trkpt><trkpt lat="43.217947103500066" lon="11.372492507593265"><ele>248.0</ele><time>2026-04-11T09:43:58Z</time></trkpt><trkpt lat="43.21785570454536" lon="11.372457324885046"><ele>246.0</ele><time>2026-04-11T09:44:00Z</time></trkpt><trkpt lat="43.2177566830525" lon="11.372411985221829"><ele>244.0</ele><time>2026-04-11T09:44:01.999Z</time></trkpt><trkpt lat="43.217658880744835" lon="11.37237372519034"><ele>242.0</ele><time>2026-04-11T09:44:03.999Z</time></trkpt><trkpt lat="43.21757187073729" lon="11.372294861673266"><ele>242.00000000000003</ele><time>2026-04-11T09:44:05.999Z</time></trkpt><trkpt lat="43.217482004050005" lon="11.372269864895426"><ele>242.0</ele><time>2026-04-11T09:44:07.999Z</time></trkpt><trkpt lat="43.217419081837285" lon="11.37224171693077"><ele>242.0</ele><time>2026-04-11T09:44:09.999Z</time></trkpt><trkpt lat="43.21735963477443" lon="11.37220367681116"><ele>242.0</ele><time>2026-04-11T09:47:13.999Z</time></trkpt><trkpt lat="43.217290365651614" lon="11.372167031208582"><ele>242.00000000000003</ele><time>2026-04-11T09:47:17.999Z</time></trkpt><trkpt lat="43.217219489498255" lon="11.372115872317721"><ele>242.0</ele><time>2026-04-11T09:47:56Z</time></trkpt><trkpt lat="43.21712756219221" lon="11.372076803853997"><ele>241.2</ele><time>2026-04-11T09:47:59Z</time></trkpt><trkpt lat="43.21705035681389" lon="11.372030291222273"><ele>240.39999999999998</ele><time>2026-04-11T09:48:01Z</time></trkpt><trkpt lat="43.216942950562014" lon="11.371980067773501"><ele>239.60000000000002</ele><time>2026-04-11T09:48:03Z</time></trkpt><trkpt lat="43.216838465284184" lon="11.371931288053098"><ele>238.8</ele><time>2026-04-11T09:48:05Z</time></trkpt><trkpt lat="43.21672389292775" lon="11.371884401065254"><ele>238.0</ele><time>2026-04-11T09:48:07Z</time></trkpt><trkpt lat="43.216611442536184" lon="11.371815982902831"><ele>238.0</ele><time>2026-04-11T09:48:09Z</time></trkpt><trkpt lat="43.21649583564927" lon="11.371753804215794"><ele>238.0</ele><time>2026-04-11T09:48:11Z</time></trkpt><trkpt lat="43.21637678669421" lon="11.371704329278856"><ele>238.0</ele><time>2026-04-11T09:48:13Z</time></trkpt><trkpt lat="43.216266485825706" lon="11.371643551872959"><ele>238.0</ele><time>2026-04-11T09:48:14.999Z</time></trkpt><trkpt lat="43.21616186319167" lon="11.371596799891872"><ele>238.33333333333331</ele><time>2026-04-11T09:48:16.999Z</time></trkpt><trkpt lat="43.21607329132487" lon="11.37155659482763"><ele>238.66666666666666</ele><time>2026-04-11T09:48:18.999Z</time></trkpt><trkpt lat="43.21599582255452" lon="11.371517314868479"><ele>239.0</ele><time>2026-04-11T09:48:20.999Z</time></trkpt><trkpt lat="43.215933395681766" lon="11.371475094527328"><ele>239.33333333333331</ele><time>2026-04-11T09:48:22.999Z</time></trkpt><trkpt lat="43.21586030009043" lon="11.371412332519437"><ele>239.66666666666666</ele><time>2026-04-11T09:48:25.999Z</time></trkpt><trkpt lat="43.215795225121276" lon="11.371361067962022"><ele>240.0</ele><time>2026-04-11T09:48:28.999Z</time></trkpt><trkpt lat="43.21573427117242" lon="11.371257294289466"><ele>240.0</ele><time>2026-04-11T09:48:31.999Z</time></trkpt><trkpt lat="43.21567205553125" lon="11.37120041309565"><ele>240.0</ele><time>2026-04-11T09:48:33.999Z</time></trkpt><trkpt lat="43.215594175671306" lon="11.371112453420107"><ele>240.0</ele><time>2026-04-11T09:48:35.999Z</time></trkpt><trkpt lat="43.21549578982483" lon="11.371025551807362"><ele>240.0</ele><time>2026-04-11T09:48:37.999Z</time></trkpt><trkpt lat="43.21538783134727" lon="11.370924286673903"><ele>240.0</ele><time>2026-04-11T09:48:39.999Z</time></trkpt><trkpt lat="43.215327496766804" lon="11.370875204061907"><ele>240.0</ele><time>2026-04-11T09:48:40.999Z</time></trkpt><trkpt lat="43.21526148442135" lon="11.370822588460987"><ele>240.0</ele><time>2026-04-11T09:48:41.999Z</time></trkpt><trkpt lat="43.21518661542297" lon="11.370777652246028"><ele>240.0</ele><time>2026-04-11T09:48:42.999Z</time></trkpt><trkpt lat="43.215105382708245" lon="11.3707321392534"><ele>240.0</ele><time>2026-04-11T09:48:43.999Z</time></trkpt><trkpt lat="43.215015752407936" lon="11.370694428289458"><ele>240.0</ele><time>2026-04-11T09:48:44.999Z</time></trkpt><trkpt lat="43.21491610826539" lon="11.370663834978332"><ele>240.0</ele><time>2026-04-11T09:48:45.999Z</time></trkpt><trkpt lat="43.21481248163875" lon="11.37065993208134"><ele>237.0</ele><time>2026-04-11T09:48:46.999Z</time></trkpt><trkpt lat="43.21470474399283" lon="11.370685865523647"><ele>234.0</ele><time>2026-04-11T09:48:47.999Z</time></trkpt><trkpt lat="43.21459927640373" lon="11.370736970977148"><ele>231.0</ele><time>2026-04-11T09:48:48.999Z</time></trkpt><trkpt lat="43.2144918976332" lon="11.370805406438071"><ele>228.0</ele><time>2026-04-11T09:48:49.999Z</time></trkpt><trkpt lat="43.21438212472796" lon="11.370879966697045"><ele>228.0</ele><time>2026-04-11T09:48:50.999Z</time></trkpt><trkpt lat="43.214266667729746" lon="11.370950832298634"><ele>228.0</ele><time>2026-04-11T09:48:51.999Z</time></trkpt><trkpt lat="43.21414353827015" lon="11.371027550017967"><ele>228.0</ele><time>2026-04-11T09:48:52.999Z</time></trkpt><trkpt lat="43.21402440518448" lon="11.371104406441122"><ele>228.0</ele><time>2026-04-11T09:48:53.999Z</time></trkpt><trkpt lat="43.21390429607997" lon="11.371187615424676"><ele>226.5</ele><time>2026-04-11T09:48:54.999Z</time></trkpt><trkpt lat="43.213778737003395" lon="11.371268222470588"><ele>225.0</ele><time>2026-04-11T09:48:55.999Z</time></trkpt><trkpt lat="43.21364763412697" lon="11.371334978635133"><ele>223.5</ele><time>2026-04-11T09:48:56.999Z</time></trkpt><trkpt lat="43.21352175093257" lon="11.37137074864797"><ele>222.0</ele><time>2026-04-11T09:48:57.999Z</time></trkpt><trkpt lat="43.21341470121538" lon="11.371368189120018"><ele>222.0</ele><time>2026-04-11T09:48:58.999Z</time></trkpt><trkpt lat="43.21332051416515" lon="11.371315722332213"><ele>222.0</ele><time>2026-04-11T09:48:59.999Z</time></trkpt><trkpt lat="43.213244341755654" lon="11.371222873690343"><ele>222.0</ele><time>2026-04-11T09:49:00.999Z</time></trkpt><trkpt lat="43.21318512343138" lon="11.371127015755084"><ele>222.0</ele><time>2026-04-11T09:49:01.999Z</time></trkpt><trkpt lat="43.21313588163901" lon="11.37103453285479"><ele>222.0</ele><time>2026-04-11T09:49:02.999Z</time></trkpt><trkpt lat="43.21308965313455" lon="11.370944339753386"><ele>222.0</ele><time>2026-04-11T09:49:03.999Z</time></trkpt><trkpt lat="43.21304168833688" lon="11.370854531003301"><ele>222.0</ele><time>2026-04-11T09:49:04.999Z</time></trkpt><trkpt lat="43.212996484748004" lon="11.37076525981178"><ele>222.0</ele><time>2026-04-11T09:49:05.999Z</time></trkpt><trkpt lat="43.21295331459715" lon="11.370680524363843"><ele>222.0</ele><time>2026-04-11T09:49:06.999Z</time></trkpt><trkpt lat="43.21291736338244" lon="11.370596391516582"><ele>222.0</ele><time>2026-04-11T09:49:07.999Z</time></trkpt><trkpt lat="43.21288299663675" lon="11.37051910329234"><ele>222.0</ele><time>2026-04-11T09:49:08.999Z</time></trkpt><trkpt lat="43.21281858517275" lon="11.370391244181782"><ele>222.83333333333334</ele><time>2026-04-11T09:49:10.999Z</time></trkpt><trkpt lat="43.21276183211342" lon="11.37028034812251"><ele>223.66666666666669</ele><time>2026-04-11T09:49:12.999Z</time></trkpt><trkpt lat="43.21271378387222" lon="11.370184631225419"><ele>224.5</ele><time>2026-04-11T09:49:14.999Z</time></trkpt><trkpt lat="43.21266710239327" lon="11.370092431926965"><ele>225.33333333333334</ele><time>2026-04-11T09:49:16.999Z</time></trkpt><trkpt lat="43.21262254199103" lon="11.370006767026874"><ele>226.16666666666669</ele><time>2026-04-11T09:49:18.999Z</time></trkpt><trkpt lat="43.2125799548672" lon="11.369924324922366"><ele>227.0</ele><time>2026-04-11T09:49:20.999Z</time></trkpt><trkpt lat="43.2125381002947" lon="11.36985195774331"><ele>227.0</ele><time>2026-04-11T09:49:22.999Z</time></trkpt><trkpt lat="43.21249399927016" lon="11.369776588642875"><ele>227.00000000000003</ele><time>2026-04-11T09:49:24.999Z</time></trkpt><trkpt lat="43.21244850059284" lon="11.369709789954008"><ele>227.0</ele><time>2026-04-11T09:49:26.999Z</time></trkpt><trkpt lat="43.21240111066949" lon="11.369640318790225"><ele>227.0</ele><time>2026-04-11T09:49:28.999Z</time></trkpt><trkpt lat="43.212359411300504" lon="11.369571312487137"><ele>227.00000000000003</ele><time>2026-04-11T09:49:30.999Z</time></trkpt><trkpt lat="43.21231513297126" lon="11.36950587831184"><ele>227.0</ele><time>2026-04-11T09:49:32.999Z</time></trkpt><trkpt lat="43.212257265806855" lon="11.369406289615146"><ele>227.0</ele><time>2026-04-11T09:49:36Z</time></trkpt><trkpt lat="43.21219802903653" lon="11.369320473232424"><ele>228.16666666666669</ele><time>2026-04-11T09:49:39Z</time></trkpt><trkpt lat="43.212138843689694" lon="11.369241123318867"><ele>229.33333333333334</ele><time>2026-04-11T09:49:42Z</time></trkpt><trkpt lat="43.21207965354515" lon="11.369165713913507"><ele>230.5</ele><time>2026-04-11T09:49:45Z</time></trkpt><trkpt lat="43.212012970322704" lon="11.369102593720525"><ele>231.66666666666669</ele><time>2026-04-11T09:49:48Z</time></trkpt><trkpt lat="43.21193938546535" lon="11.36904829658981"><ele>232.83333333333334</ele><time>2026-04-11T09:49:51Z</time></trkpt><trkpt lat="43.211868221351224" lon="11.368990802586373"><ele>234.0</ele><time>2026-04-11T09:49:54Z</time></trkpt><trkpt lat="43.211788894142096" lon="11.368934014111435"><ele>234.0</ele><time>2026-04-11T09:49:57Z</time></trkpt><trkpt lat="43.21170637125784" lon="11.36888344142678"><ele>234.0</ele><time>2026-04-11T09:50:00Z</time></trkpt><trkpt lat="43.21164771384826" lon="11.368847945741328"><ele>234.0</ele><time>2026-04-11T09:50:02Z</time></trkpt><trkpt lat="43.21158652530489" lon="11.368813296070858"><ele>234.0</ele><time>2026-04-11T09:50:04Z</time></trkpt><trkpt lat="43.21152045055947" lon="11.368782792362966"><ele>234.0</ele><time>2026-04-11T09:50:06Z</time></trkpt><trkpt lat="43.211447469094765" lon="11.368752091474768"><ele>234.0</ele><time>2026-04-11T09:50:09Z</time></trkpt><trkpt lat="43.21136769134254" lon="11.368717618242918"><ele>233.79999999999998</ele><time>2026-04-11T09:50:11Z</time></trkpt><trkpt lat="43.21127409489658" lon="11.368677484326634"><ele>233.59999999999997</ele><time>2026-04-11T09:50:13Z</time></trkpt><trkpt lat="43.211188886668815" lon="11.368650895063197"><ele>233.4</ele><time>2026-04-11T09:50:15Z</time></trkpt><trkpt lat="43.21110553506302" lon="11.36861922379903"><ele>233.2</ele><time>2026-04-11T09:50:17Z</time></trkpt><trkpt lat="43.2110176141366" lon="11.368584568791157"><ele>233.0</ele><time>2026-04-11T09:50:18.999Z</time></trkpt><trkpt lat="43.21092917705167" lon="11.36855569634225"><ele>233.00000000000003</ele><time>2026-04-11T09:50:20.999Z</time></trkpt><trkpt lat="43.210847717549505" lon="11.36852544944016"><ele>233.0</ele><time>2026-04-11T09:50:22.999Z</time></trkpt><trkpt lat="43.210775040108864" lon="11.368504492888178"><ele>233.0</ele><time>2026-04-11T09:50:24.999Z</time></trkpt><trkpt lat="43.210697898079665" lon="11.368480095376666"><ele>233.0</ele><time>2026-04-11T09:50:26.999Z</time></trkpt><trkpt lat="43.21061703506715" lon="11.368455692140948"><ele>233.00000000000003</ele><time>2026-04-11T09:50:28.999Z</time></trkpt><trkpt lat="43.21053400731856" lon="11.368427504411176"><ele>233.0</ele><time>2026-04-11T09:50:30.999Z</time></trkpt><trkpt lat="43.210450277809485" lon="11.368398761676207"><ele>232.60000000000002</ele><time>2026-04-11T09:50:32.999Z</time></trkpt><trkpt lat="43.2103850258528" lon="11.368380202985096"><ele>232.20000000000002</ele><time>2026-04-11T09:50:34.999Z</time></trkpt><trkpt lat="43.210229517344246" lon="11.368322916924551"><ele>231.8</ele><time>2026-04-11T09:50:37.999Z</time></trkpt><trkpt lat="43.210144948640796" lon="11.368298103257247"><ele>231.4</ele><time>2026-04-11T09:50:39.999Z</time></trkpt><trkpt lat="43.21006034752972" lon="11.368270280907938"><ele>231.0</ele><time>2026-04-11T09:50:41.999Z</time></trkpt><trkpt lat="43.209978947115594" lon="11.368233394003896"><ele>231.0</ele><time>2026-04-11T09:50:43.999Z</time></trkpt><trkpt lat="43.20990303041612" lon="11.36820987094962"><ele>231.0</ele><time>2026-04-11T09:50:45.999Z</time></trkpt><trkpt lat="43.209823431188376" lon="11.368192284190162"><ele>231.0</ele><time>2026-04-11T09:50:47.999Z</time></trkpt><trkpt lat="43.20975595100731" lon="11.36819841550816"><ele>231.0</ele><time>2026-04-11T09:50:49.999Z</time></trkpt><trkpt lat="43.20968618942835" lon="11.36821974903408"><ele>231.0</ele><time>2026-04-11T09:50:51.999Z</time></trkpt><trkpt lat="43.20962313808719" lon="11.368270271817787"><ele>231.0</ele><time>2026-04-11T09:50:53.999Z</time></trkpt><trkpt lat="43.20956074525345" lon="11.368320742787338"><ele>231.0</ele><time>2026-04-11T09:50:55.999Z</time></trkpt><trkpt lat="43.20951286288705" lon="11.368407916603962"><ele>232.60000000000002</ele><time>2026-04-11T09:50:57.999Z</time></trkpt><trkpt lat="43.20946739674368" lon="11.368496743142174"><ele>234.20000000000002</ele><time>2026-04-11T09:50:59.999Z</time></trkpt><trkpt lat="43.209419966512264" lon="11.368561363560065"><ele>235.79999999999998</ele><time>2026-04-11T09:51:02.999Z</time></trkpt><trkpt lat="43.20930157359137" lon="11.368746196540718"><ele>237.39999999999998</ele><time>2026-04-11T09:51:05.999Z</time></trkpt><trkpt lat="43.20925320157015" lon="11.368826366704415"><ele>239.0</ele><time>2026-04-11T09:51:07.999Z</time></trkpt><trkpt lat="43.20920397753607" lon="11.368900548106554"><ele>239.00000000000003</ele><time>2026-04-11T09:51:09.999Z</time></trkpt><trkpt lat="43.2091611227686" lon="11.368979243000622"><ele>239.0</ele><time>2026-04-11T09:51:11.999Z</time></trkpt><trkpt lat="43.20910991151835" lon="11.369048666277658"><ele>239.0</ele><time>2026-04-11T09:51:13.999Z</time></trkpt><trkpt lat="43.20906416784227" lon="11.36911372791195"><ele>239.0</ele><time>2026-04-11T09:51:15.999Z</time></trkpt><trkpt lat="43.209018269322755" lon="11.369173120500765"><ele>239.00000000000003</ele><time>2026-04-11T09:51:17.999Z</time></trkpt><trkpt lat="43.20895210932738" lon="11.369260952808679"><ele>239.0</ele><time>2026-04-11T09:51:20.999Z</time></trkpt><trkpt lat="43.20889136612091" lon="11.369351559591498"><ele>241.33333333333334</ele><time>2026-04-11T09:51:23.999Z</time></trkpt><trkpt lat="43.208845267980784" lon="11.369428523605896"><ele>243.66666666666669</ele><time>2026-04-11T09:51:26.999Z</time></trkpt><trkpt lat="43.20878549069629" lon="11.369497869230955"><ele>246.0</ele><time>2026-04-11T09:51:29.999Z</time></trkpt><trkpt lat="43.208728397788924" lon="11.369577600775743"><ele>248.33333333333331</ele><time>2026-04-11T09:51:32.999Z</time></trkpt><trkpt lat="43.208671944685605" lon="11.369650930175949"><ele>250.66666666666666</ele><time>2026-04-11T09:51:35.999Z</time></trkpt><trkpt lat="43.20862933011453" lon="11.369729242773033"><ele>253.0</ele><time>2026-04-11T09:51:38.999Z</time></trkpt><trkpt lat="43.20857368457078" lon="11.369793393519503"><ele>252.99999999999997</ele><time>2026-04-11T09:51:42Z</time></trkpt><trkpt lat="43.20853775082361" lon="11.369874920079361"><ele>253.0</ele><time>2026-04-11T09:51:45Z</time></trkpt><trkpt lat="43.20849154028766" lon="11.369942729545409"><ele>253.0</ele><time>2026-04-11T09:51:48Z</time></trkpt><trkpt lat="43.208410682320775" lon="11.370043464688434"><ele>253.0</ele><time>2026-04-11T09:51:51Z</time></trkpt><trkpt lat="43.20836742625532" lon="11.370123135778133"><ele>252.99999999999997</ele><time>2026-04-11T09:51:55Z</time></trkpt><trkpt lat="43.208317480914225" lon="11.370192833138248"><ele>253.0</ele><time>2026-04-11T09:51:58Z</time></trkpt><trkpt lat="43.20827058763047" lon="11.370251655604374"><ele>253.00000000000003</ele><time>2026-04-11T09:52:01Z</time></trkpt><trkpt lat="43.20822560779541" lon="11.37031770112842"><ele>253.0</ele><time>2026-04-11T09:52:04Z</time></trkpt><trkpt lat="43.208177315537554" lon="11.370379006583686"><ele>253.00000000000003</ele><time>2026-04-11T09:52:07Z</time></trkpt><trkpt lat="43.208117851810336" lon="11.370446559232184"><ele>253.00000000000003</ele><time>2026-04-11T09:52:11Z</time></trkpt><trkpt lat="43.20806797168634" lon="11.370519584783391"><ele>253.0</ele><time>2026-04-11T09:52:15Z</time></trkpt><trkpt lat="43.20801498648615" lon="11.370599903741079"><ele>253.00000000000003</ele><time>2026-04-11T09:52:19Z</time></trkpt><trkpt lat="43.20795536525277" lon="11.370677698940343"><ele>253.00000000000003</ele><time>2026-04-11T09:52:23Z</time></trkpt><trkpt lat="43.20790215666876" lon="11.370760665097718"><ele>255.42857142857144</ele><time>2026-04-11T09:52:26.999Z</time></trkpt><trkpt lat="43.20785705074184" lon="11.370827372320104"><ele>257.8571428571429</ele><time>2026-04-11T09:52:30.999Z</time></trkpt><trkpt lat="43.20781554475436" lon="11.370894233493436"><ele>260.2857142857143</ele><time>2026-04-11T09:52:33.999Z</time></trkpt><trkpt lat="43.207751877427036" lon="11.370970576794427"><ele>262.7142857142857</ele><time>2026-04-11T09:52:37.999Z</time></trkpt><trkpt lat="43.207699031475435" lon="11.37103865244664"><ele>265.1428571428571</ele><time>2026-04-11T09:52:41.999Z</time></trkpt><trkpt lat="43.20765402993802" lon="11.37110678801804"><ele>267.57142857142856</ele><time>2026-04-11T09:52:45.999Z</time></trkpt><trkpt lat="43.20760346312556" lon="11.371180604928963"><ele>270.0</ele><time>2026-04-11T09:52:49.999Z</time></trkpt><trkpt lat="43.20754797649884" lon="11.371253265174717"><ele>270.0</ele><time>2026-04-11T09:52:54.999Z</time></trkpt><trkpt lat="43.207500983232634" lon="11.371316193102116"><ele>270.0</ele><time>2026-04-11T09:52:57.999Z</time></trkpt><trkpt lat="43.20744408057177" lon="11.371382204541064"><ele>270.0</ele><time>2026-04-11T09:53:02.999Z</time></trkpt><trkpt lat="43.20738235591014" lon="11.371438226698713"><ele>270.0</ele><time>2026-04-11T09:53:06.999Z</time></trkpt><trkpt lat="43.20734270374917" lon="11.371510599398514"><ele>270.0</ele><time>2026-04-11T09:53:10.999Z</time></trkpt><trkpt lat="43.207284174846045" lon="11.37158253176334"><ele>270.0</ele><time>2026-04-11T09:53:14.999Z</time></trkpt><trkpt lat="43.20723472820975" lon="11.37166266370526"><ele>270.0</ele><time>2026-04-11T09:53:17.999Z</time></trkpt><trkpt lat="43.20717871628549" lon="11.371749333703638"><ele>270.1428571428571</ele><time>2026-04-11T09:53:20.999Z</time></trkpt><trkpt lat="43.207134797923935" lon="11.371847441376344"><ele>270.2857142857143</ele><time>2026-04-11T09:53:23.999Z</time></trkpt><trkpt lat="43.207098289309236" lon="11.371923286179156"><ele>270.42857142857144</ele><time>2026-04-11T09:53:25.999Z</time></trkpt><trkpt lat="43.207061053412104" lon="11.37200156541192"><ele>270.57142857142856</ele><time>2026-04-11T09:53:28.999Z</time></trkpt><trkpt lat="43.2070183416054" lon="11.37210259104873"><ele>270.7142857142857</ele><time>2026-04-11T09:53:31.999Z</time></trkpt><trkpt lat="43.20698342034791" lon="11.372182276985233"><ele>270.85714285714283</ele><time>2026-04-11T09:53:32.999Z</time></trkpt><trkpt lat="43.20693937359358" lon="11.372263441862478"><ele>271.0</ele><time>2026-04-11T09:53:34.999Z</time></trkpt><trkpt lat="43.20689297032908" lon="11.372346513149859"><ele>271.0</ele><time>2026-04-11T09:53:36.999Z</time></trkpt><trkpt lat="43.20674233891435" lon="11.372526523471713"><ele>271.0</ele><time>2026-04-11T09:53:40.999Z</time></trkpt><trkpt lat="43.20667913618578" lon="11.372630045835075"><ele>271.0</ele><time>2026-04-11T09:53:42.999Z</time></trkpt><trkpt lat="43.206594461551134" lon="11.372737809781324"><ele>271.0</ele><time>2026-04-11T09:53:44.999Z</time></trkpt><trkpt lat="43.206503333868405" lon="11.37283569903741"><ele>270.42857142857144</ele><time>2026-04-11T09:53:47Z</time></trkpt><trkpt lat="43.20643977054121" lon="11.372847240172788"><ele>269.8571428571429</ele><time>2026-04-11T09:53:48Z</time></trkpt><trkpt lat="43.20633472690918" lon="11.372921022234886"><ele>269.28571428571433</ele><time>2026-04-11T09:53:50Z</time></trkpt><trkpt lat="43.206278478179044" lon="11.372961089969937"><ele>268.7142857142857</ele><time>2026-04-11T09:53:51Z</time></trkpt><trkpt lat="43.206222711056846" lon="11.373001734280518"><ele>268.14285714285717</ele><time>2026-04-11T09:53:52Z</time></trkpt><trkpt lat="43.20617347844502" lon="11.373056089369344"><ele>267.5714285714286</ele><time>2026-04-11T09:53:53Z</time></trkpt><trkpt lat="43.20611287699755" lon="11.373090149377497"><ele>267.0</ele><time>2026-04-11T09:53:54Z</time></trkpt><trkpt lat="43.206057066590645" lon="11.373134851584167"><ele>267.0</ele><time>2026-04-11T09:53:55Z</time></trkpt><trkpt lat="43.20594913049622" lon="11.37321414081455"><ele>267.0</ele><time>2026-04-11T09:53:57Z</time></trkpt><trkpt lat="43.20584198984576" lon="11.373284756390106"><ele>267.0</ele><time>2026-04-11T09:53:59Z</time></trkpt><trkpt lat="43.20574646646662" lon="11.373369563651964"><ele>267.0</ele><time>2026-04-11T09:54:01Z</time></trkpt><trkpt lat="43.20564388642837" lon="11.373470956605402"><ele>267.14285714285717</ele><time>2026-04-11T09:54:03Z</time></trkpt><trkpt lat="43.20558982101213" lon="11.3735210470021"><ele>267.2857142857143</ele><time>2026-04-11T09:54:04Z</time></trkpt><trkpt lat="43.205529256630214" lon="11.373579035732787"><ele>267.42857142857144</ele><time>2026-04-11T09:54:05Z</time></trkpt><trkpt lat="43.20547498165801" lon="11.373641751939315"><ele>267.57142857142856</ele><time>2026-04-11T09:54:06Z</time></trkpt><trkpt lat="43.20540457648761" lon="11.373672360374625"><ele>267.7142857142857</ele><time>2026-04-11T09:54:07Z</time></trkpt><trkpt lat="43.205330952807934" lon="11.373713901510708"><ele>267.8571428571429</ele><time>2026-04-11T09:54:08Z</time></trkpt><trkpt lat="43.205253812836794" lon="11.373730614181376"><ele>268.0</ele><time>2026-04-11T09:54:09Z</time></trkpt><trkpt lat="43.205166937154374" lon="11.373737352585268"><ele>268.0</ele><time>2026-04-11T09:54:10Z</time></trkpt><trkpt lat="43.20507434473643" lon="11.37373647433728"><ele>268.0</ele><time>2026-04-11T09:54:11Z</time></trkpt><trkpt lat="43.204984005007276" lon="11.37373764350113"><ele>268.0</ele><time>2026-04-11T09:54:12Z</time></trkpt><trkpt lat="43.20489657277912" lon="11.373762204494437"><ele>268.0</ele><time>2026-04-11T09:54:13Z</time></trkpt><trkpt lat="43.204808619067464" lon="11.373758865472283"><ele>268.0</ele><time>2026-04-11T09:54:14Z</time></trkpt><trkpt lat="43.20472072679862" lon="11.373762558268858"><ele>268.0</ele><time>2026-04-11T09:54:15Z</time></trkpt><trkpt lat="43.204633478619854" lon="11.373779284353196"><ele>267.8</ele><time>2026-04-11T09:54:16Z</time></trkpt><trkpt lat="43.20454747280528" lon="11.373802010864182"><ele>267.6</ele><time>2026-04-11T09:54:17Z</time></trkpt><trkpt lat="43.204461517903525" lon="11.373830811110698"><ele>267.4</ele><time>2026-04-11T09:54:18Z</time></trkpt><trkpt lat="43.20437032492072" lon="11.373857195331846"><ele>267.2</ele><time>2026-04-11T09:54:19Z</time></trkpt><trkpt lat="43.204278801839564" lon="11.373888532034435"><ele>267.0</ele><time>2026-04-11T09:54:20Z</time></trkpt><trkpt lat="43.204186720041115" lon="11.37392992566396"><ele>265.2</ele><time>2026-04-11T09:54:21Z</time></trkpt><trkpt lat="43.20408965941107" lon="11.37396793425472"><ele>263.4</ele><time>2026-04-11T09:54:22Z</time></trkpt><trkpt lat="43.20398388979905" lon="11.373980477798478"><ele>261.6</ele><time>2026-04-11T09:54:23Z</time></trkpt><trkpt lat="43.203889909402406" lon="11.374036532469674"><ele>259.8</ele><time>2026-04-11T09:54:23.999Z</time></trkpt><trkpt lat="43.203794656658204" lon="11.374072815789804"><ele>258.0</ele><time>2026-04-11T09:54:24.999Z</time></trkpt><trkpt lat="43.20371100747086" lon="11.374117729124348"><ele>258.0</ele><time>2026-04-11T09:54:25.999Z</time></trkpt><trkpt lat="43.203630700462625" lon="11.374174849616617"><ele>258.0</ele><time>2026-04-11T09:54:26.999Z</time></trkpt><trkpt lat="43.20355471356553" lon="11.374239744184502"><ele>258.0</ele><time>2026-04-11T09:54:27.999Z</time></trkpt><trkpt lat="43.203478690292734" lon="11.374298314964932"><ele>258.0</ele><time>2026-04-11T09:54:28.999Z</time></trkpt><trkpt lat="43.20341040001541" lon="11.374352842647264"><ele>258.0</ele><time>2026-04-11T09:54:29.999Z</time></trkpt><trkpt lat="43.20334013081253" lon="11.37440528397037"><ele>258.0</ele><time>2026-04-11T09:54:30.999Z</time></trkpt><trkpt lat="43.203266434427995" lon="11.3744553879039"><ele>258.0</ele><time>2026-04-11T09:54:31.999Z</time></trkpt><trkpt lat="43.20319703199392" lon="11.374489041654563"><ele>258.0</ele><time>2026-04-11T09:54:32.999Z</time></trkpt><trkpt lat="43.2031222838804" lon="11.374514977571788"><ele>258.0</ele><time>2026-04-11T09:54:33.999Z</time></trkpt><trkpt lat="43.20300850381933" lon="11.374544703627949"><ele>258.0</ele><time>2026-04-11T09:54:35.999Z</time></trkpt><trkpt lat="43.202892679776866" lon="11.374572224395642"><ele>258.0</ele><time>2026-04-11T09:54:37.999Z</time></trkpt><trkpt lat="43.202823407134765" lon="11.374588844149944"><ele>256.8</ele><time>2026-04-11T09:54:38.999Z</time></trkpt><trkpt lat="43.2027265837907" lon="11.374613805574365"><ele>255.60000000000002</ele><time>2026-04-11T09:54:40.999Z</time></trkpt><trkpt lat="43.20262509534483" lon="11.374639969687506"><ele>254.39999999999998</ele><time>2026-04-11T09:54:42.999Z</time></trkpt><trkpt lat="43.202537120798056" lon="11.374662649856985"><ele>253.2</ele><time>2026-04-11T09:54:44.999Z</time></trkpt><trkpt lat="43.2024599767429" lon="11.374726048773988"><ele>252.0</ele><time>2026-04-11T09:54:47.999Z</time></trkpt><trkpt lat="43.20238357546318" lon="11.37474917122843"><ele>254.33333333333334</ele><time>2026-04-11T09:54:49.999Z</time></trkpt><trkpt lat="43.20230760961201" lon="11.374775386389254"><ele>256.6666666666667</ele><time>2026-04-11T09:54:52.999Z</time></trkpt><trkpt lat="43.20222860360716" lon="11.374791399670418"><ele>259.0</ele><time>2026-04-11T09:54:56.999Z</time></trkpt><trkpt lat="43.20216139543602" lon="11.374803777816975"><ele>261.33333333333337</ele><time>2026-04-11T09:55:00.999Z</time></trkpt><trkpt lat="43.202086702340694" lon="11.374827309226497"><ele>263.6666666666667</ele><time>2026-04-11T09:55:05.999Z</time></trkpt><trkpt lat="43.20201700697404" lon="11.374846572937912"><ele>266.0</ele><time>2026-04-11T09:55:10.999Z</time></trkpt><trkpt lat="43.20193826597652" lon="11.374871204774468"><ele>266.0</ele><time>2026-04-11T09:55:15.999Z</time></trkpt><trkpt lat="43.20186455523028" lon="11.3749020090665"><ele>266.0</ele><time>2026-04-11T09:55:19.999Z</time></trkpt><trkpt lat="43.20179651026575" lon="11.374933805342852"><ele>266.0</ele><time>2026-04-11T09:55:23.999Z</time></trkpt><trkpt lat="43.2017299283267" lon="11.374976926237377"><ele>266.0</ele><time>2026-04-11T09:55:27.999Z</time></trkpt><trkpt lat="43.20166238628844" lon="11.375021932266199"><ele>266.0</ele><time>2026-04-11T09:55:31.999Z</time></trkpt><trkpt lat="43.20159727983965" lon="11.37506321229138"><ele>266.0</ele><time>2026-04-11T09:55:35.999Z</time></trkpt><trkpt lat="43.201535242380245" lon="11.375121154590257"><ele>266.0</ele><time>2026-04-11T09:55:39.999Z</time></trkpt><trkpt lat="43.20147635221756" lon="11.37517426362288"><ele>266.7142857142857</ele><time>2026-04-11T09:55:43.999Z</time></trkpt><trkpt lat="43.20141790835229" lon="11.375222384066602"><ele>267.42857142857144</ele><time>2026-04-11T09:55:47.999Z</time></trkpt><trkpt lat="43.201347586941914" lon="11.375254229959422"><ele>268.1428571428571</ele><time>2026-04-11T09:55:53Z</time></trkpt><trkpt lat="43.20128650767507" lon="11.37530370535216"><ele>268.8571428571429</ele><time>2026-04-11T09:55:58Z</time></trkpt><trkpt lat="43.201225672629874" lon="11.375360665750291"><ele>269.57142857142856</ele><time>2026-04-11T09:56:03Z</time></trkpt><trkpt lat="43.2011573231136" lon="11.375397411684341"><ele>270.2857142857143</ele><time>2026-04-11T09:56:08Z</time></trkpt><trkpt lat="43.20109271574011" lon="11.375435335822832"><ele>271.0</ele><time>2026-04-11T09:56:12Z</time></trkpt><trkpt lat="43.20102097826577" lon="11.375446450494367"><ele>271.0</ele><time>2026-04-11T09:56:16Z</time></trkpt><trkpt lat="43.200956702058626" lon="11.375424108338517"><ele>271.0</ele><time>2026-04-11T09:56:19Z</time></trkpt><trkpt lat="43.20088428446604" lon="11.37539126858609"><ele>271.0</ele><time>2026-04-11T09:56:21Z</time></trkpt><trkpt lat="43.20078300351927" lon="11.375343879607122"><ele>271.0</ele><time>2026-04-11T09:56:23Z</time></trkpt><trkpt lat="43.20072080845578" lon="11.375315815763654"><ele>271.0</ele><time>2026-04-11T09:56:24Z</time></trkpt><trkpt lat="43.2006610867504" lon="11.375284604823504"><ele>271.0</ele><time>2026-04-11T09:56:25Z</time></trkpt><trkpt lat="43.20061373107713" lon="11.375198951889136"><ele>268.85714285714283</ele><time>2026-04-11T09:56:26Z</time></trkpt><trkpt lat="43.20054748431052" lon="11.37515954338274"><ele>266.7142857142857</ele><time>2026-04-11T09:56:27Z</time></trkpt><trkpt lat="43.200480077905" lon="11.37511944503189"><ele>264.57142857142856</ele><time>2026-04-11T09:56:28Z</time></trkpt><trkpt lat="43.20041205468176" lon="11.37507897981943"><ele>262.42857142857144</ele><time>2026-04-11T09:56:29Z</time></trkpt><trkpt lat="43.200350111198425" lon="11.375042585337669"><ele>260.2857142857143</ele><time>2026-04-11T09:56:30Z</time></trkpt><trkpt lat="43.20028753048155" lon="11.375007868410755"><ele>258.1428571428571</ele><time>2026-04-11T09:56:31Z</time></trkpt><trkpt lat="43.20022254848675" lon="11.374979426166606"><ele>256.0</ele><time>2026-04-11T09:56:31.999Z</time></trkpt><trkpt lat="43.2001602449202" lon="11.374962294426751"><ele>255.99999999999997</ele><time>2026-04-11T09:56:32.999Z</time></trkpt><trkpt lat="43.20009443147038" lon="11.374963871677766"><ele>256.0</ele><time>2026-04-11T09:56:33.999Z</time></trkpt><trkpt lat="43.20002310983695" lon="11.37501693891956"><ele>256.0</ele><time>2026-04-11T09:56:34.999Z</time></trkpt><trkpt lat="43.19997789152161" lon="11.37512287328153"><ele>256.0</ele><time>2026-04-11T09:56:35.999Z</time></trkpt><trkpt lat="43.19993789985072" lon="11.37522850843364"><ele>255.99999999999997</ele><time>2026-04-11T09:56:36.999Z</time></trkpt><trkpt lat="43.19989391262658" lon="11.375337209929029"><ele>256.0</ele><time>2026-04-11T09:56:37.999Z</time></trkpt><trkpt lat="43.199828486378365" lon="11.375427412457046"><ele>253.60000000000002</ele><time>2026-04-11T09:56:38.999Z</time></trkpt><trkpt lat="43.19976849128008" lon="11.375516687192745"><ele>251.20000000000002</ele><time>2026-04-11T09:56:39.999Z</time></trkpt><trkpt lat="43.1997032639471" lon="11.375605568031892"><ele>248.79999999999998</ele><time>2026-04-11T09:56:40.999Z</time></trkpt><trkpt lat="43.19963296679137" lon="11.375695321799165"><ele>246.39999999999998</ele><time>2026-04-11T09:56:41.999Z</time></trkpt><trkpt lat="43.199558216534356" lon="11.375783144917648"><ele>244.0</ele><time>2026-04-11T09:56:42.999Z</time></trkpt><trkpt lat="43.199480185713746" lon="11.375871782640628"><ele>244.0</ele><time>2026-04-11T09:56:43.999Z</time></trkpt><trkpt lat="43.19939931294724" lon="11.37596368545432"><ele>243.99999999999997</ele><time>2026-04-11T09:56:44.999Z</time></trkpt><trkpt lat="43.19931626883291" lon="11.37605105568305"><ele>243.99999999999997</ele><time>2026-04-11T09:56:45.999Z</time></trkpt><trkpt lat="43.19922063546036" lon="11.376123323165892"><ele>244.0</ele><time>2026-04-11T09:56:46.999Z</time></trkpt><trkpt lat="43.199113261946174" lon="11.376169766319512"><ele>244.0</ele><time>2026-04-11T09:56:47.999Z</time></trkpt><trkpt lat="43.19899636724197" lon="11.376202527825592"><ele>242.0</ele><time>2026-04-11T09:56:48.999Z</time></trkpt><trkpt lat="43.19887610314722" lon="11.376225497219627"><ele>240.0</ele><time>2026-04-11T09:56:49.999Z</time></trkpt><trkpt lat="43.198755324396494" lon="11.376250823912358"><ele>238.0</ele><time>2026-04-11T09:56:50.999Z</time></trkpt><trkpt lat="43.198632241455535" lon="11.376278282377628"><ele>236.0</ele><time>2026-04-11T09:56:51.999Z</time></trkpt><trkpt lat="43.19850635230494" lon="11.37631868890187"><ele>236.0</ele><time>2026-04-11T09:56:52.999Z</time></trkpt><trkpt lat="43.198388809567945" lon="11.37637587262932"><ele>236.0</ele><time>2026-04-11T09:56:53.999Z</time></trkpt><trkpt lat="43.19829297820566" lon="11.376475196104776"><ele>236.0</ele><time>2026-04-11T09:56:54.999Z</time></trkpt><trkpt lat="43.19820291946749" lon="11.376559170512614"><ele>236.0</ele><time>2026-04-11T09:56:55.999Z</time></trkpt><trkpt lat="43.198123548857325" lon="11.376655807875396"><ele>236.0</ele><time>2026-04-11T09:56:56.999Z</time></trkpt><trkpt lat="43.198041344990955" lon="11.37673141805768"><ele>236.00000000000003</ele><time>2026-04-11T09:56:57.999Z</time></trkpt><trkpt lat="43.19796615867372" lon="11.37681291724796"><ele>236.00000000000003</ele><time>2026-04-11T09:56:58.999Z</time></trkpt><trkpt lat="43.19789236462117" lon="11.376891166211568"><ele>236.0</ele><time>2026-04-11T09:56:59.999Z</time></trkpt><trkpt lat="43.197816172342726" lon="11.376962183361249"><ele>236.0</ele><time>2026-04-11T09:57:00.999Z</time></trkpt><trkpt lat="43.197737351977395" lon="11.37702442136465"><ele>236.00000000000003</ele><time>2026-04-11T09:57:01.999Z</time></trkpt><trkpt lat="43.19766053961845" lon="11.377081843309195"><ele>236.0</ele><time>2026-04-11T09:57:02.999Z</time></trkpt><trkpt lat="43.197583126501776" lon="11.377136643441215"><ele>236.0</ele><time>2026-04-11T09:57:03.999Z</time></trkpt><trkpt lat="43.197506022608394" lon="11.37718954166592"><ele>236.0</ele><time>2026-04-11T09:57:04.999Z</time></trkpt><trkpt lat="43.19742971763113" lon="11.377241891773911"><ele>236.00000000000003</ele><time>2026-04-11T09:57:05.999Z</time></trkpt><trkpt lat="43.197351707005794" lon="11.377293468863536"><ele>236.0</ele><time>2026-04-11T09:57:06.999Z</time></trkpt><trkpt lat="43.19727313878096" lon="11.377344851277895"><ele>235.33333333333334</ele><time>2026-04-11T09:57:07.999Z</time></trkpt><trkpt lat="43.197196114114725" lon="11.377395224132115"><ele>234.66666666666669</ele><time>2026-04-11T09:57:08.999Z</time></trkpt><trkpt lat="43.19712488049065" lon="11.377468224985348"><ele>234.0</ele><time>2026-04-11T09:57:09.999Z</time></trkpt><trkpt lat="43.1970418294513" lon="11.377499869401259"><ele>233.33333333333331</ele><time>2026-04-11T09:57:10.999Z</time></trkpt><trkpt lat="43.19697314279198" lon="11.377572037594755"><ele>232.66666666666666</ele><time>2026-04-11T09:57:11.999Z</time></trkpt><trkpt lat="43.196899086682535" lon="11.377620732420192"><ele>232.0</ele><time>2026-04-11T09:57:12.999Z</time></trkpt><trkpt lat="43.19682156481256" lon="11.377676256302303"><ele>231.99999999999997</ele><time>2026-04-11T09:57:13.999Z</time></trkpt><trkpt lat="43.19673910059635" lon="11.37770744700561"><ele>232.0</ele><time>2026-04-11T09:57:14.999Z</time></trkpt><trkpt lat="43.19666242325077" lon="11.377760645736808"><ele>232.0</ele><time>2026-04-11T09:57:15.999Z</time></trkpt><trkpt lat="43.19658632592107" lon="11.377813623474736"><ele>232.0</ele><time>2026-04-11T09:57:16.999Z</time></trkpt><trkpt lat="43.19651268935413" lon="11.377864887975921"><ele>231.99999999999997</ele><time>2026-04-11T09:57:17.999Z</time></trkpt><trkpt lat="43.1964359385865" lon="11.37791832060822"><ele>232.0</ele><time>2026-04-11T09:57:18.999Z</time></trkpt><trkpt lat="43.19635751332199" lon="11.377973055631447"><ele>232.33333333333331</ele><time>2026-04-11T09:57:19.999Z</time></trkpt><trkpt lat="43.19627872563935" lon="11.378028200367773"><ele>232.66666666666666</ele><time>2026-04-11T09:57:20.999Z</time></trkpt><trkpt lat="43.19620003263447" lon="11.378083278841993"><ele>233.0</ele><time>2026-04-11T09:57:21.999Z</time></trkpt><trkpt lat="43.19612872020319" lon="11.37815513425339"><ele>233.33333333333331</ele><time>2026-04-11T09:57:22.999Z</time></trkpt><trkpt lat="43.19604784612244" lon="11.378206325973167"><ele>233.66666666666666</ele><time>2026-04-11T09:57:23.999Z</time></trkpt><trkpt lat="43.195966283810954" lon="11.378251716834345"><ele>234.0</ele><time>2026-04-11T09:57:24.999Z</time></trkpt><trkpt lat="43.195883192405944" lon="11.378295754939284"><ele>234.0</ele><time>2026-04-11T09:57:25.999Z</time></trkpt><trkpt lat="43.195800086844656" lon="11.378332580270657"><ele>234.0</ele><time>2026-04-11T09:57:26.999Z</time></trkpt><trkpt lat="43.195718939144164" lon="11.378369949018843"><ele>234.0</ele><time>2026-04-11T09:57:27.999Z</time></trkpt><trkpt lat="43.19564122726319" lon="11.378404759396657"><ele>234.0</ele><time>2026-04-11T09:57:28.999Z</time></trkpt><trkpt lat="43.19556917896655" lon="11.378436849103542"><ele>234.0</ele><time>2026-04-11T09:57:29.999Z</time></trkpt><trkpt lat="43.19550156757882" lon="11.378464485442828"><ele>234.0</ele><time>2026-04-11T09:57:30.999Z</time></trkpt><trkpt lat="43.19543714882145" lon="11.37848857016231"><ele>233.79999999999998</ele><time>2026-04-11T09:57:31.999Z</time></trkpt><trkpt lat="43.1953255619741" lon="11.378543562020772"><ele>233.59999999999997</ele><time>2026-04-11T09:57:33.999Z</time></trkpt><trkpt lat="43.19523573529544" lon="11.37862082176442"><ele>233.4</ele><time>2026-04-11T09:57:35.999Z</time></trkpt><trkpt lat="43.1951540446021" lon="11.378711872515419"><ele>233.2</ele><time>2026-04-11T09:57:37.999Z</time></trkpt><trkpt lat="43.19506298502002" lon="11.378798930727509"><ele>233.0</ele><time>2026-04-11T09:57:39.999Z</time></trkpt><trkpt lat="43.19499822382492" lon="11.378914735980837"><ele>233.0</ele><time>2026-04-11T09:57:41.999Z</time></trkpt><trkpt lat="43.194919651818594" lon="11.379027357248466"><ele>233.0</ele><time>2026-04-11T09:57:43.999Z</time></trkpt><trkpt lat="43.19484249346139" lon="11.379142787430483"><ele>233.0</ele><time>2026-04-11T09:57:45.999Z</time></trkpt><trkpt lat="43.194774085666715" lon="11.37926844827849"><ele>233.0</ele><time>2026-04-11T09:57:47.999Z</time></trkpt><trkpt lat="43.1947148562092" lon="11.379408669271495"><ele>231.8</ele><time>2026-04-11T09:57:49.999Z</time></trkpt><trkpt lat="43.19466159927362" lon="11.379568234725717"><ele>230.60000000000002</ele><time>2026-04-11T09:57:51.999Z</time></trkpt><trkpt lat="43.194615053043655" lon="11.379649561815954"><ele>229.39999999999998</ele><time>2026-04-11T09:57:52.999Z</time></trkpt><trkpt lat="43.19458288775418" lon="11.37975272411938"><ele>228.2</ele><time>2026-04-11T09:57:53.999Z</time></trkpt><trkpt lat="43.19455761785809" lon="11.379876134129699"><ele>227.0</ele><time>2026-04-11T09:57:54.999Z</time></trkpt><trkpt lat="43.194555821046514" lon="11.380005134998123"><ele>227.0</ele><time>2026-04-11T09:57:55.999Z</time></trkpt><trkpt lat="43.19453769456542" lon="11.380131242389808"><ele>227.0</ele><time>2026-04-11T09:57:56.999Z</time></trkpt><trkpt lat="43.19452689073304" lon="11.38025964391142"><ele>227.0</ele><time>2026-04-11T09:57:57.999Z</time></trkpt><trkpt lat="43.19451905461308" lon="11.380386113034607"><ele>227.0</ele><time>2026-04-11T09:57:59Z</time></trkpt><trkpt lat="43.194511161089736" lon="11.380506548570605"><ele>227.0</ele><time>2026-04-11T09:58:00Z</time></trkpt><trkpt lat="43.19450582814226" lon="11.380621243021224"><ele>227.14285714285717</ele><time>2026-04-11T09:58:01Z</time></trkpt><trkpt lat="43.19448076922411" lon="11.380728669224595"><ele>227.2857142857143</ele><time>2026-04-11T09:58:02Z</time></trkpt><trkpt lat="43.19448491392223" lon="11.380835822353886"><ele>227.42857142857144</ele><time>2026-04-11T09:58:03Z</time></trkpt><trkpt lat="43.19445077804367" lon="11.380925493269835"><ele>227.57142857142856</ele><time>2026-04-11T09:58:04Z</time></trkpt><trkpt lat="43.19442534163941" lon="11.381013761220569"><ele>227.7142857142857</ele><time>2026-04-11T09:58:05Z</time></trkpt><trkpt lat="43.194396768077844" lon="11.381102713411087"><ele>227.85714285714283</ele><time>2026-04-11T09:58:06Z</time></trkpt><trkpt lat="43.19436629224041" lon="11.381192121444196"><ele>228.0</ele><time>2026-04-11T09:58:07Z</time></trkpt><trkpt lat="43.19433622969625" lon="11.381280050434809"><ele>228.0</ele><time>2026-04-11T09:58:08Z</time></trkpt><trkpt lat="43.19430547438072" lon="11.381370006462776"><ele>227.99999999999997</ele><time>2026-04-11T09:58:09Z</time></trkpt><trkpt lat="43.19427527613717" lon="11.381457483637142"><ele>228.0</ele><time>2026-04-11T09:58:10Z</time></trkpt><trkpt lat="43.19424204503896" lon="11.381551852074749"><ele>228.0</ele><time>2026-04-11T09:58:11Z</time></trkpt><trkpt lat="43.19420934825638" lon="11.381644703414349"><ele>227.99999999999997</ele><time>2026-04-11T09:58:12Z</time></trkpt><trkpt lat="43.1941771417665" lon="11.381736162448648"><ele>228.0</ele><time>2026-04-11T09:58:13Z</time></trkpt><trkpt lat="43.19414405453854" lon="11.38183012247238"><ele>228.0</ele><time>2026-04-11T09:58:14Z</time></trkpt><trkpt lat="43.19411009502554" lon="11.381926554733463"><ele>228.0</ele><time>2026-04-11T09:58:15Z</time></trkpt><trkpt lat="43.19407497695644" lon="11.38202627686058"><ele>228.0</ele><time>2026-04-11T09:58:16Z</time></trkpt><trkpt lat="43.19403885989275" lon="11.382128835754306"><ele>228.0</ele><time>2026-04-11T09:58:17Z</time></trkpt><trkpt lat="43.19400182821054" lon="11.382233991822492"><ele>228.0</ele><time>2026-04-11T09:58:18Z</time></trkpt><trkpt lat="43.19398407777535" lon="11.382348645343471"><ele>228.0</ele><time>2026-04-11T09:58:19Z</time></trkpt><trkpt lat="43.193948877605365" lon="11.382452900682189"><ele>228.0</ele><time>2026-04-11T09:58:20Z</time></trkpt><trkpt lat="43.1939153598925" lon="11.382555343904727"><ele>227.7142857142857</ele><time>2026-04-11T09:58:21Z</time></trkpt><trkpt lat="43.193879721885274" lon="11.382648185147916"><ele>227.4285714285714</ele><time>2026-04-11T09:58:22Z</time></trkpt><trkpt lat="43.1938449219353" lon="11.382745669812635"><ele>227.14285714285714</ele><time>2026-04-11T09:58:23Z</time></trkpt><trkpt lat="43.1938119233885" lon="11.382837303405964"><ele>226.85714285714283</ele><time>2026-04-11T09:58:24Z</time></trkpt><trkpt lat="43.19378056773632" lon="11.382930441871226"><ele>226.57142857142856</ele><time>2026-04-11T09:58:25Z</time></trkpt><trkpt lat="43.19375105100215" lon="11.383016496674122"><ele>226.28571428571428</ele><time>2026-04-11T09:58:26Z</time></trkpt><trkpt lat="43.19371847567848" lon="11.383098598962258"><ele>226.0</ele><time>2026-04-11T09:58:27Z</time></trkpt><trkpt lat="43.19368695124219" lon="11.383180114989086"><ele>226.0</ele><time>2026-04-11T09:58:28Z</time></trkpt><trkpt lat="43.193606889815825" lon="11.38331054777747"><ele>226.00000000000003</ele><time>2026-04-11T09:58:30Z</time></trkpt><trkpt lat="43.19350879130267" lon="11.383410282661373"><ele>226.00000000000003</ele><time>2026-04-11T09:58:32Z</time></trkpt><trkpt lat="43.19340013688383" lon="11.383492610215061"><ele>226.0</ele><time>2026-04-11T09:58:34Z</time></trkpt><trkpt lat="43.19334007889597" lon="11.383528772479009"><ele>226.0</ele><time>2026-04-11T09:58:35Z</time></trkpt><trkpt lat="43.19327461822505" lon="11.383552407323064"><ele>225.99999999999997</ele><time>2026-04-11T09:58:36Z</time></trkpt><trkpt lat="43.193204343337754" lon="11.38357444760136"><ele>226.0</ele><time>2026-04-11T09:58:37Z</time></trkpt><trkpt lat="43.193133844705876" lon="11.383608708740715"><ele>226.0</ele><time>2026-04-11T09:58:38Z</time></trkpt><trkpt lat="43.19306053307623" lon="11.383645477457875"><ele>226.0</ele><time>2026-04-11T09:58:39Z</time></trkpt><trkpt lat="43.19298502118458" lon="11.383677660943668"><ele>225.99999999999997</ele><time>2026-04-11T09:58:40Z</time></trkpt><trkpt lat="43.192905303224315" lon="11.383714858755136"><ele>226.0</ele><time>2026-04-11T09:58:40.999Z</time></trkpt><trkpt lat="43.19282633706908" lon="11.383753536079876"><ele>225.83333333333331</ele><time>2026-04-11T09:58:41.999Z</time></trkpt><trkpt lat="43.19274744541294" lon="11.38379956602549"><ele>225.66666666666666</ele><time>2026-04-11T09:58:42.999Z</time></trkpt><trkpt lat="43.19266566630563" lon="11.383841917454252"><ele>225.5</ele><time>2026-04-11T09:58:43.999Z</time></trkpt><trkpt lat="43.19258074729556" lon="11.38387640561373"><ele>225.33333333333331</ele><time>2026-04-11T09:58:44.999Z</time></trkpt><trkpt lat="43.192494170415166" lon="11.383909936014097"><ele>225.16666666666666</ele><time>2026-04-11T09:58:45.999Z</time></trkpt><trkpt lat="43.192406067247674" lon="11.383938254213893"><ele>225.0</ele><time>2026-04-11T09:58:46.999Z</time></trkpt><trkpt lat="43.19231662531842" lon="11.383955337819899"><ele>225.0</ele><time>2026-04-11T09:58:47.999Z</time></trkpt><trkpt lat="43.19222503675157" lon="11.383961693100742"><ele>225.0</ele><time>2026-04-11T09:58:48.999Z</time></trkpt><trkpt lat="43.19213699929134" lon="11.383959895905315"><ele>225.0</ele><time>2026-04-11T09:58:49.999Z</time></trkpt><trkpt lat="43.1920504474032" lon="11.38395427699247"><ele>225.0</ele><time>2026-04-11T09:58:50.999Z</time></trkpt><trkpt lat="43.19196726562648" lon="11.383938692358132"><ele>225.0</ele><time>2026-04-11T09:58:51.999Z</time></trkpt><trkpt lat="43.191885596888575" lon="11.383943527315783"><ele>225.0</ele><time>2026-04-11T09:58:52.999Z</time></trkpt><trkpt lat="43.19180723183914" lon="11.383967243159747"><ele>225.0</ele><time>2026-04-11T09:58:53.999Z</time></trkpt><trkpt lat="43.191728354267156" lon="11.384012311494383"><ele>225.0</ele><time>2026-04-11T09:58:54.999Z</time></trkpt><trkpt lat="43.191659644621225" lon="11.38407916267282"><ele>225.0</ele><time>2026-04-11T09:58:55.999Z</time></trkpt><trkpt lat="43.191600196813695" lon="11.38414937653461"><ele>225.0</ele><time>2026-04-11T09:58:56.999Z</time></trkpt><trkpt lat="43.19154119948369" lon="11.384231479818505"><ele>225.0</ele><time>2026-04-11T09:58:57.999Z</time></trkpt><trkpt lat="43.19148713487744" lon="11.38430656841764"><ele>225.0</ele><time>2026-04-11T09:58:58.999Z</time></trkpt><trkpt lat="43.19143625963778" lon="11.384383040815948"><ele>225.5</ele><time>2026-04-11T09:58:59.999Z</time></trkpt><trkpt lat="43.191392473164846" lon="11.384454748588851"><ele>226.0</ele><time>2026-04-11T09:59:00.999Z</time></trkpt><trkpt lat="43.19134711989183" lon="11.384538560114215"><ele>226.5</ele><time>2026-04-11T09:59:01.999Z</time></trkpt><trkpt lat="43.19129527864927" lon="11.384623254447053"><ele>227.0</ele><time>2026-04-11T09:59:02.999Z</time></trkpt><trkpt lat="43.19124346039654" lon="11.384694740883557"><ele>227.5</ele><time>2026-04-11T09:59:03.999Z</time></trkpt><trkpt lat="43.19117013825045" lon="11.384745565587645"><ele>228.0</ele><time>2026-04-11T09:59:04.999Z</time></trkpt><trkpt lat="43.191112717761996" lon="11.384821130752002"><ele>228.0</ele><time>2026-04-11T09:59:05.999Z</time></trkpt><trkpt lat="43.19105719482968" lon="11.384887243779755"><ele>228.0</ele><time>2026-04-11T09:59:06.999Z</time></trkpt><trkpt lat="43.19099880017522" lon="11.38495194830903"><ele>228.0</ele><time>2026-04-11T09:59:07.999Z</time></trkpt><trkpt lat="43.19093476358076" lon="11.385018690192371"><ele>228.0</ele><time>2026-04-11T09:59:08.999Z</time></trkpt><trkpt lat="43.1908706182037" lon="11.385081338221148"><ele>228.0</ele><time>2026-04-11T09:59:09.999Z</time></trkpt><trkpt lat="43.19080602128207" lon="11.38514104214285"><ele>228.0</ele><time>2026-04-11T09:59:10.999Z</time></trkpt><trkpt lat="43.19074020738531" lon="11.385199811251493"><ele>228.66666666666666</ele><time>2026-04-11T09:59:11.999Z</time></trkpt><trkpt lat="43.19067279205614" lon="11.385255803178381"><ele>229.33333333333331</ele><time>2026-04-11T09:59:12.999Z</time></trkpt><trkpt lat="43.19060245064745" lon="11.385310145384647"><ele>230.0</ele><time>2026-04-11T09:59:13.999Z</time></trkpt><trkpt lat="43.190533804188654" lon="11.385356274771855"><ele>230.66666666666666</ele><time>2026-04-11T09:59:14.999Z</time></trkpt><trkpt lat="43.19045851842898" lon="11.385401734313087"><ele>231.33333333333331</ele><time>2026-04-11T09:59:15.999Z</time></trkpt><trkpt lat="43.19038612722365" lon="11.385440022303822"><ele>232.0</ele><time>2026-04-11T09:59:16.999Z</time></trkpt><trkpt lat="43.19030813655121" lon="11.38547777791993"><ele>231.99999999999997</ele><time>2026-04-11T09:59:17.999Z</time></trkpt><trkpt lat="43.19023259062655" lon="11.38551158164564"><ele>232.0</ele><time>2026-04-11T09:59:18.999Z</time></trkpt><trkpt lat="43.19015556101451" lon="11.385541969264473"><ele>232.0</ele><time>2026-04-11T09:59:19.999Z</time></trkpt><trkpt lat="43.190078972627965" lon="11.385569172145763"><ele>232.0</ele><time>2026-04-11T09:59:20.999Z</time></trkpt><trkpt lat="43.190003612886514" lon="11.385593226100514"><ele>231.99999999999997</ele><time>2026-04-11T09:59:21.999Z</time></trkpt><trkpt lat="43.189927782097186" lon="11.385614833476831"><ele>232.0</ele><time>2026-04-11T09:59:22.999Z</time></trkpt><trkpt lat="43.18985513864433" lon="11.38563339605439"><ele>229.83333333333331</ele><time>2026-04-11T09:59:23.999Z</time></trkpt><trkpt lat="43.1897800703714" lon="11.385651738600108"><ele>227.66666666666666</ele><time>2026-04-11T09:59:24.999Z</time></trkpt><trkpt lat="43.18971140770959" lon="11.38568871322874"><ele>225.5</ele><time>2026-04-11T09:59:25.999Z</time></trkpt><trkpt lat="43.18963089789618" lon="11.385707220516483"><ele>223.33333333333331</ele><time>2026-04-11T09:59:26.999Z</time></trkpt><trkpt lat="43.189556489039" lon="11.385725197783668"><ele>221.16666666666666</ele><time>2026-04-11T09:59:27.999Z</time></trkpt><trkpt lat="43.18948138455764" lon="11.385720523588667"><ele>219.0</ele><time>2026-04-11T09:59:28.999Z</time></trkpt><trkpt lat="43.189408960342476" lon="11.385738700653864"><ele>219.0</ele><time>2026-04-11T09:59:29.999Z</time></trkpt><trkpt lat="43.18933545860245" lon="11.385757148121296"><ele>219.0</ele><time>2026-04-11T09:59:30.999Z</time></trkpt><trkpt lat="43.18926132351859" lon="11.38577575459702"><ele>219.0</ele><time>2026-04-11T09:59:31.999Z</time></trkpt><trkpt lat="43.18918724070554" lon="11.385794347952336"><ele>219.0</ele><time>2026-04-11T09:59:32.999Z</time></trkpt><trkpt lat="43.18911450154768" lon="11.385816054850803"><ele>219.0</ele><time>2026-04-11T09:59:33.999Z</time></trkpt><trkpt lat="43.18904243292291" lon="11.38584040817202"><ele>219.0</ele><time>2026-04-11T09:59:34.999Z</time></trkpt><trkpt lat="43.188974972416574" lon="11.385863204317653"><ele>219.0</ele><time>2026-04-11T09:59:35.999Z</time></trkpt><trkpt lat="43.18890993574163" lon="11.385883936868264"><ele>220.16666666666666</ele><time>2026-04-11T09:59:36.999Z</time></trkpt><trkpt lat="43.18884580127714" lon="11.385902531787632"><ele>221.33333333333331</ele><time>2026-04-11T09:59:37.999Z</time></trkpt><trkpt lat="43.18873565600868" lon="11.385928578016841"><ele>222.5</ele><time>2026-04-11T09:59:39.999Z</time></trkpt><trkpt lat="43.18864158803673" lon="11.385939386046953"><ele>223.66666666666666</ele><time>2026-04-11T09:59:41.999Z</time></trkpt><trkpt lat="43.188577807554665" lon="11.38593006251072"><ele>224.83333333333331</ele><time>2026-04-11T09:59:45.999Z</time></trkpt><trkpt lat="43.188515990076226" lon="11.385905949668098"><ele>226.0</ele><time>2026-04-11T09:59:49.999Z</time></trkpt><trkpt lat="43.188453040831305" lon="11.385869473782448"><ele>226.0</ele><time>2026-04-11T09:59:54.999Z</time></trkpt><trkpt lat="43.188377344086256" lon="11.385856505883584"><ele>226.0</ele><time>2026-04-11T09:59:59.999Z</time></trkpt><trkpt lat="43.18832016163554" lon="11.385803940209742"><ele>226.0</ele><time>2026-04-11T10:00:05Z</time></trkpt><trkpt lat="43.1882691918743" lon="11.385751133173512"><ele>226.0</ele><time>2026-04-11T10:00:10Z</time></trkpt><trkpt lat="43.188214731582164" lon="11.38569350636052"><ele>226.0</ele><time>2026-04-11T10:00:16Z</time></trkpt><trkpt lat="43.188160378630116" lon="11.38564780092814"><ele>226.0</ele><time>2026-04-11T10:00:22Z</time></trkpt><trkpt lat="43.18810579398147" lon="11.38560185929276"><ele>226.0</ele><time>2026-04-11T10:00:28Z</time></trkpt><trkpt lat="43.188047498108716" lon="11.385557677614887"><ele>228.0</ele><time>2026-04-11T10:00:34Z</time></trkpt><trkpt lat="43.187989684295346" lon="11.385520626136993"><ele>230.0</ele><time>2026-04-11T10:00:40Z</time></trkpt><trkpt lat="43.187924140039144" lon="11.385488456224584"><ele>232.0</ele><time>2026-04-11T10:00:45.999Z</time></trkpt><trkpt lat="43.18786588610573" lon="11.38543484765934"><ele>234.0</ele><time>2026-04-11T10:00:51.999Z</time></trkpt><trkpt lat="43.187800699238885" lon="11.38541102474696"><ele>236.0</ele><time>2026-04-11T10:00:57.999Z</time></trkpt><trkpt lat="43.18773532815839" lon="11.385381607399829"><ele>238.0</ele><time>2026-04-11T10:01:03.999Z</time></trkpt><trkpt lat="43.18767139953389" lon="11.385360258357663"><ele>240.0</ele><time>2026-04-11T10:01:09.999Z</time></trkpt><trkpt lat="43.18761217213083" lon="11.38532665506274"><ele>240.0</ele><time>2026-04-11T10:01:15.999Z</time></trkpt><trkpt lat="43.18754779254321" lon="11.385314815117678"><ele>240.0</ele><time>2026-04-11T10:01:21.999Z</time></trkpt><trkpt lat="43.187483814947875" lon="11.385283523539458"><ele>240.0</ele><time>2026-04-11T10:01:27.999Z</time></trkpt><trkpt lat="43.187414589224446" lon="11.385268391380452"><ele>240.0</ele><time>2026-04-11T10:01:33.999Z</time></trkpt><trkpt lat="43.187347906252384" lon="11.385265685503247"><ele>240.0</ele><time>2026-04-11T10:01:38.999Z</time></trkpt><trkpt lat="43.18728078634415" lon="11.385256659990487"><ele>240.0</ele><time>2026-04-11T10:01:43.999Z</time></trkpt><trkpt lat="43.187213203244276" lon="11.385253935913694"><ele>240.0</ele><time>2026-04-11T10:01:47.999Z</time></trkpt><trkpt lat="43.18714796144597" lon="11.38526013199693"><ele>241.14285714285717</ele><time>2026-04-11T10:01:51.999Z</time></trkpt><trkpt lat="43.18708197713432" lon="11.385273526598738"><ele>242.28571428571428</ele><time>2026-04-11T10:01:55.999Z</time></trkpt><trkpt lat="43.18701438053516" lon="11.385287419648048"><ele>243.42857142857144</ele><time>2026-04-11T10:01:59.999Z</time></trkpt><trkpt lat="43.18694552789776" lon="11.385305397825919"><ele>244.57142857142858</ele><time>2026-04-11T10:02:03.999Z</time></trkpt><trkpt lat="43.186875196710645" lon="11.385350663969422"><ele>245.71428571428572</ele><time>2026-04-11T10:02:07.999Z</time></trkpt><trkpt lat="43.186802030360546" lon="11.385362543412912"><ele>246.85714285714286</ele><time>2026-04-11T10:02:12Z</time></trkpt><trkpt lat="43.18673828166646" lon="11.385378571421022"><ele>248.0</ele><time>2026-04-11T10:02:15Z</time></trkpt><trkpt lat="43.18667322407506" lon="11.385392797207773"><ele>248.00000000000003</ele><time>2026-04-11T10:02:18Z</time></trkpt><trkpt lat="43.18660357723937" lon="11.385401520593486"><ele>248.0</ele><time>2026-04-11T10:02:21Z</time></trkpt><trkpt lat="43.186530371258605" lon="11.385407311909571"><ele>248.0</ele><time>2026-04-11T10:02:24Z</time></trkpt><trkpt lat="43.18645869264764" lon="11.385427007123251"><ele>248.0</ele><time>2026-04-11T10:02:27Z</time></trkpt><trkpt lat="43.18637853938521" lon="11.385444330726386"><ele>248.00000000000003</ele><time>2026-04-11T10:02:30Z</time></trkpt><trkpt lat="43.18629594641529" lon="11.38544717952998"><ele>248.0</ele><time>2026-04-11T10:02:34Z</time></trkpt><trkpt lat="43.186226439359395" lon="11.38544907675178"><ele>249.33333333333334</ele><time>2026-04-11T10:02:38Z</time></trkpt><trkpt lat="43.18615351891217" lon="11.385451606221105"><ele>250.66666666666669</ele><time>2026-04-11T10:02:41Z</time></trkpt><trkpt lat="43.18607080720863" lon="11.385448431334144"><ele>252.0</ele><time>2026-04-11T10:02:45.999Z</time></trkpt><trkpt lat="43.18600391644346" lon="11.385456345846386"><ele>253.33333333333331</ele><time>2026-04-11T10:02:49.999Z</time></trkpt><trkpt lat="43.18591914207125" lon="11.385458210833713"><ele>254.66666666666666</ele><time>2026-04-11T10:02:54.999Z</time></trkpt><trkpt lat="43.18584310195628" lon="11.38546344600055"><ele>256.0</ele><time>2026-04-11T10:02:59.999Z</time></trkpt><trkpt lat="43.18577708742838" lon="11.385468101206923"><ele>256.0</ele><time>2026-04-11T10:03:03.999Z</time></trkpt><trkpt lat="43.18570378936686" lon="11.385472852462634"><ele>255.99999999999997</ele><time>2026-04-11T10:03:08.999Z</time></trkpt><trkpt lat="43.18563630771674" lon="11.385466386734821"><ele>256.0</ele><time>2026-04-11T10:03:13.999Z</time></trkpt><trkpt lat="43.18557230403726" lon="11.385459940423397"><ele>256.0</ele><time>2026-04-11T10:03:18.999Z</time></trkpt><trkpt lat="43.185506631853706" lon="11.385449903665691"><ele>255.99999999999997</ele><time>2026-04-11T10:03:23.999Z</time></trkpt><trkpt lat="43.18544598865037" lon="11.385412610172615"><ele>256.0</ele><time>2026-04-11T10:03:28.999Z</time></trkpt><trkpt lat="43.18538531190222" lon="11.385378999329976"><ele>256.0</ele><time>2026-04-11T10:03:33.999Z</time></trkpt><trkpt lat="43.1853261316199" lon="11.385316326761396"><ele>257.57142857142856</ele><time>2026-04-11T10:03:38.999Z</time></trkpt><trkpt lat="43.185266822987764" lon="11.385252086227984"><ele>259.1428571428571</ele><time>2026-04-11T10:03:43.999Z</time></trkpt><trkpt lat="43.18521464254869" lon="11.385183196748587"><ele>260.7142857142857</ele><time>2026-04-11T10:03:48.999Z</time></trkpt><trkpt lat="43.18517245000612" lon="11.385108739329855"><ele>262.2857142857143</ele><time>2026-04-11T10:03:53.999Z</time></trkpt><trkpt lat="43.18511419139304" lon="11.385047334860225"><ele>263.8571428571429</ele><time>2026-04-11T10:03:59.999Z</time></trkpt><trkpt lat="43.18506785070894" lon="11.384973249678898"><ele>265.42857142857144</ele><time>2026-04-11T10:04:05.999Z</time></trkpt><trkpt lat="43.18502808687795" lon="11.38489683915776"><ele>267.0</ele><time>2026-04-11T10:04:11.999Z</time></trkpt><trkpt lat="43.184982110589374" lon="11.384807895082965"><ele>267.00000000000006</ele><time>2026-04-11T10:04:18Z</time></trkpt><trkpt lat="43.18493656774704" lon="11.384744307882611"><ele>267.0</ele><time>2026-04-11T10:04:23Z</time></trkpt><trkpt lat="43.18488336668409" lon="11.384664777697816"><ele>267.0</ele><time>2026-04-11T10:04:28Z</time></trkpt><trkpt lat="43.18482801345" lon="11.38458668318345"><ele>267.0</ele><time>2026-04-11T10:04:33Z</time></trkpt><trkpt lat="43.18476769565347" lon="11.384524318068973"><ele>267.0</ele><time>2026-04-11T10:04:38Z</time></trkpt><trkpt lat="43.184719815054414" lon="11.384461332222916"><ele>267.00000000000006</ele><time>2026-04-11T10:04:42Z</time></trkpt><trkpt lat="43.1846632538282" lon="11.384398508772007"><ele>267.0</ele><time>2026-04-11T10:04:46Z</time></trkpt><trkpt lat="43.184599640985276" lon="11.38432961434611"><ele>268.14285714285717</ele><time>2026-04-11T10:04:50Z</time></trkpt><trkpt lat="43.18454519450573" lon="11.38427289618671"><ele>269.2857142857143</ele><time>2026-04-11T10:04:52.999Z</time></trkpt><trkpt lat="43.18449228619731" lon="11.38422040311535"><ele>270.42857142857144</ele><time>2026-04-11T10:04:55.999Z</time></trkpt><trkpt lat="43.184436933775046" lon="11.384164407235515"><ele>271.57142857142856</ele><time>2026-04-11T10:04:58.999Z</time></trkpt><trkpt lat="43.18438367663332" lon="11.384112241625838"><ele>272.7142857142857</ele><time>2026-04-11T10:05:01.999Z</time></trkpt><trkpt lat="43.184313421576924" lon="11.384055725263316"><ele>273.8571428571429</ele><time>2026-04-11T10:05:05.999Z</time></trkpt><trkpt lat="43.184241956966346" lon="11.384002898222242"><ele>275.0</ele><time>2026-04-11T10:05:09.999Z</time></trkpt><trkpt lat="43.184182140906124" lon="11.383967862600318"><ele>275.0</ele><time>2026-04-11T10:05:12.999Z</time></trkpt><trkpt lat="43.18410865063683" lon="11.383921789852275"><ele>275.0</ele><time>2026-04-11T10:05:16.999Z</time></trkpt><trkpt lat="43.18402948879196" lon="11.383882385858382"><ele>275.0</ele><time>2026-04-11T10:05:18.999Z</time></trkpt><trkpt lat="43.183939854105205" lon="11.383849821318812"><ele>275.0</ele><time>2026-04-11T10:05:21.999Z</time></trkpt><trkpt lat="43.18387193227669" lon="11.383824063722994"><ele>275.0</ele><time>2026-04-11T10:05:23.999Z</time></trkpt><trkpt lat="43.1837982003462" lon="11.383799797373596"><ele>275.0</ele><time>2026-04-11T10:05:25.999Z</time></trkpt><trkpt lat="43.18371877641523" lon="11.383769371304464"><ele>274.83333333333337</ele><time>2026-04-11T10:05:27.999Z</time></trkpt><trkpt lat="43.18364183137647" lon="11.383741827832925"><ele>274.6666666666667</ele><time>2026-04-11T10:05:29.999Z</time></trkpt><trkpt lat="43.18357366439088" lon="11.38372131463788"><ele>274.5</ele><time>2026-04-11T10:05:31.999Z</time></trkpt><trkpt lat="43.18348617268482" lon="11.383690176857828"><ele>274.3333333333333</ele><time>2026-04-11T10:05:34.999Z</time></trkpt><trkpt lat="43.18340157594207" lon="11.383659809737075"><ele>274.16666666666663</ele><time>2026-04-11T10:05:37.999Z</time></trkpt><trkpt lat="43.183332650579" lon="11.383632368328321"><ele>274.0</ele><time>2026-04-11T10:05:39.999Z</time></trkpt><trkpt lat="43.18324537946974" lon="11.383595396162917"><ele>273.5</ele><time>2026-04-11T10:05:41.999Z</time></trkpt><trkpt lat="43.18313622080203" lon="11.383543583571509"><ele>273.0</ele><time>2026-04-11T10:05:43.999Z</time></trkpt><trkpt lat="43.18306745390573" lon="11.38351825826861"><ele>272.5</ele><time>2026-04-11T10:05:44.999Z</time></trkpt><trkpt lat="43.18299536204321" lon="11.383490776141294"><ele>272.0</ele><time>2026-04-11T10:05:45.999Z</time></trkpt><trkpt lat="43.18292588598691" lon="11.383456075228755"><ele>271.5</ele><time>2026-04-11T10:05:46.999Z</time></trkpt><trkpt lat="43.182852201837804" lon="11.383418479586918"><ele>271.0</ele><time>2026-04-11T10:05:47.999Z</time></trkpt><trkpt lat="43.18278716701143" lon="11.383339768752856"><ele>271.0</ele><time>2026-04-11T10:05:48.999Z</time></trkpt><trkpt lat="43.18271258127195" lon="11.383309087972002"><ele>271.0</ele><time>2026-04-11T10:05:49.999Z</time></trkpt><trkpt lat="43.182639381469805" lon="11.38327977480079"><ele>271.0</ele><time>2026-04-11T10:05:50.999Z</time></trkpt><trkpt lat="43.18256446695011" lon="11.383249775025034"><ele>271.0</ele><time>2026-04-11T10:05:51.999Z</time></trkpt><trkpt lat="43.182489927775684" lon="11.383220566616874"><ele>271.0</ele><time>2026-04-11T10:05:52.999Z</time></trkpt><trkpt lat="43.182416825429634" lon="11.38319271450071"><ele>271.0</ele><time>2026-04-11T10:05:53.999Z</time></trkpt><trkpt lat="43.18234429773586" lon="11.38316508137226"><ele>270.66666666666663</ele><time>2026-04-11T10:05:54.999Z</time></trkpt><trkpt lat="43.182270798205714" lon="11.38313887920407"><ele>270.3333333333333</ele><time>2026-04-11T10:05:55.999Z</time></trkpt><trkpt lat="43.18219690401109" lon="11.38311424038384"><ele>270.0</ele><time>2026-04-11T10:05:56.999Z</time></trkpt><trkpt lat="43.18212788861879" lon="11.383093604396676"><ele>269.6666666666667</ele><time>2026-04-11T10:05:57.999Z</time></trkpt><trkpt lat="43.18206430497104" lon="11.3830761806339"><ele>269.33333333333337</ele><time>2026-04-11T10:05:58.999Z</time></trkpt><trkpt lat="43.18194683643771" lon="11.383046973901932"><ele>269.0</ele><time>2026-04-11T10:06:00.999Z</time></trkpt><trkpt lat="43.1818464004363" lon="11.383023931245571"><ele>268.4</ele><time>2026-04-11T10:06:02.999Z</time></trkpt><trkpt lat="43.181742651369184" lon="11.383000128416032"><ele>267.79999999999995</ele><time>2026-04-11T10:06:04.999Z</time></trkpt><trkpt lat="43.18164375627946" lon="11.382980419128554"><ele>267.20000000000005</ele><time>2026-04-11T10:06:06.999Z</time></trkpt><trkpt lat="43.18156186967607" lon="11.382964379919535"><ele>266.6</ele><time>2026-04-11T10:06:08.999Z</time></trkpt><trkpt lat="43.18148671552661" lon="11.382946251523517"><ele>266.0</ele><time>2026-04-11T10:06:10.999Z</time></trkpt><trkpt lat="43.18139349364466" lon="11.382965313453807"><ele>266.0</ele><time>2026-04-11T10:06:13.999Z</time></trkpt><trkpt lat="43.18131061492025" lon="11.382936102977697"><ele>266.0</ele><time>2026-04-11T10:06:16.999Z</time></trkpt><trkpt lat="43.181246221393465" lon="11.38291245514525"><ele>266.0</ele><time>2026-04-11T10:06:18.999Z</time></trkpt><trkpt lat="43.18117830194857" lon="11.38288990402286"><ele>266.0</ele><time>2026-04-11T10:06:20.999Z</time></trkpt><trkpt lat="43.18110309470696" lon="11.382846573490731"><ele>266.0</ele><time>2026-04-11T10:06:23Z</time></trkpt><trkpt lat="43.181014526020874" lon="11.382796510730763"><ele>266.0</ele><time>2026-04-11T10:06:25Z</time></trkpt><trkpt lat="43.180919430308144" lon="11.382739712470954"><ele>266.0</ele><time>2026-04-11T10:06:27Z</time></trkpt><trkpt lat="43.18082029691762" lon="11.382667278796994"><ele>266.0</ele><time>2026-04-11T10:06:29Z</time></trkpt><trkpt lat="43.18073220758358" lon="11.382734702186768"><ele>266.0</ele><time>2026-04-11T10:06:30Z</time></trkpt><trkpt lat="43.18064088081682" lon="11.382824955885617"><ele>266.0</ele><time>2026-04-11T10:06:32Z</time></trkpt><trkpt lat="43.180550928085864" lon="11.382913851682456"><ele>266.0</ele><time>2026-04-11T10:06:34Z</time></trkpt><trkpt lat="43.18045695314271" lon="11.383005697906874"><ele>266.0</ele><time>2026-04-11T10:06:36Z</time></trkpt><trkpt lat="43.180361210367145" lon="11.38309682596033"><ele>266.0</ele><time>2026-04-11T10:06:38Z</time></trkpt><trkpt lat="43.18026569622174" lon="11.383187716822105"><ele>266.0</ele><time>2026-04-11T10:06:40Z</time></trkpt><trkpt lat="43.18016846773983" lon="11.38327652296159"><ele>266.0</ele><time>2026-04-11T10:06:42Z</time></trkpt><trkpt lat="43.18007710088645" lon="11.38337116104892"><ele>266.0</ele><time>2026-04-11T10:06:44Z</time></trkpt><trkpt lat="43.179974601458696" lon="11.383440395413126"><ele>266.0</ele><time>2026-04-11T10:06:46Z</time></trkpt><trkpt lat="43.17987130130313" lon="11.383505585210537"><ele>266.0</ele><time>2026-04-11T10:06:48Z</time></trkpt><trkpt lat="43.17976214838186" lon="11.383557688824785"><ele>266.0</ele><time>2026-04-11T10:06:50Z</time></trkpt><trkpt lat="43.17965997772119" lon="11.38360972720316"><ele>265.25</ele><time>2026-04-11T10:06:52Z</time></trkpt><trkpt lat="43.179558964882396" lon="11.383660250767036"><ele>264.5</ele><time>2026-04-11T10:06:54Z</time></trkpt><trkpt lat="43.17946296687353" lon="11.383712682289131"><ele>263.75</ele><time>2026-04-11T10:06:56Z</time></trkpt><trkpt lat="43.17936893950582" lon="11.383767239544337"><ele>263.0</ele><time>2026-04-11T10:06:57.999Z</time></trkpt><trkpt lat="43.17923907172756" lon="11.383828761569792"><ele>264.2</ele><time>2026-04-11T10:07:00.999Z</time></trkpt><trkpt lat="43.179139459076005" lon="11.38387888591015"><ele>265.4</ele><time>2026-04-11T10:07:02.999Z</time></trkpt><trkpt lat="43.179041018823334" lon="11.383931820445838"><ele>266.59999999999997</ele><time>2026-04-11T10:07:04.999Z</time></trkpt><trkpt lat="43.178942125082564" lon="11.3839872937304"><ele>267.8</ele><time>2026-04-11T10:07:06.999Z</time></trkpt><trkpt lat="43.17884619001779" lon="11.384057347388712"><ele>269.0</ele><time>2026-04-11T10:07:08.999Z</time></trkpt><trkpt lat="43.178758950992595" lon="11.38413812490135"><ele>269.0</ele><time>2026-04-11T10:07:10.999Z</time></trkpt><trkpt lat="43.178679912879616" lon="11.384228838489921"><ele>269.0</ele><time>2026-04-11T10:07:12.999Z</time></trkpt><trkpt lat="43.17859013482212" lon="11.384306712371767"><ele>269.0</ele><time>2026-04-11T10:07:14.999Z</time></trkpt><trkpt lat="43.17850837470482" lon="11.384411032641543"><ele>269.0</ele><time>2026-04-11T10:07:16.999Z</time></trkpt><trkpt lat="43.17842837076779" lon="11.384515490549793"><ele>269.0</ele><time>2026-04-11T10:07:18.999Z</time></trkpt><trkpt lat="43.178337825572" lon="11.384631754117652"><ele>269.0</ele><time>2026-04-11T10:07:20.999Z</time></trkpt><trkpt lat="43.1782470900686" lon="11.384743251213115"><ele>269.0</ele><time>2026-04-11T10:07:22.999Z</time></trkpt><trkpt lat="43.17814693541187" lon="11.384843333705017"><ele>269.0</ele><time>2026-04-11T10:07:24.999Z</time></trkpt><trkpt lat="43.17804859297585" lon="11.384932966319878"><ele>269.0</ele><time>2026-04-11T10:07:26.999Z</time></trkpt><trkpt lat="43.17799948410885" lon="11.384995188116187"><ele>269.0</ele><time>2026-04-11T10:07:27.999Z</time></trkpt><trkpt lat="43.17789425055793" lon="11.38507451709688"><ele>269.0</ele><time>2026-04-11T10:07:29.999Z</time></trkpt><trkpt lat="43.177838518606976" lon="11.385118378185624"><ele>269.0</ele><time>2026-04-11T10:07:30.999Z</time></trkpt><trkpt lat="43.177780246809604" lon="11.385159754477236"><ele>269.0</ele><time>2026-04-11T10:07:31.999Z</time></trkpt><trkpt lat="43.17771791193987" lon="11.385200376278483"><ele>269.0</ele><time>2026-04-11T10:07:32.999Z</time></trkpt><trkpt lat="43.17766297485284" lon="11.385246265680435"><ele>269.0</ele><time>2026-04-11T10:07:33.999Z</time></trkpt><trkpt lat="43.17760829315129" lon="11.385295460284818"><ele>269.0</ele><time>2026-04-11T10:07:34.999Z</time></trkpt><trkpt lat="43.17755692161452" lon="11.385346484315042"><ele>269.0</ele><time>2026-04-11T10:07:35.999Z</time></trkpt><trkpt lat="43.177507728724045" lon="11.385405570551024"><ele>269.0</ele><time>2026-04-11T10:07:36.999Z</time></trkpt><trkpt lat="43.17746072716012" lon="11.38546435931161"><ele>269.0</ele><time>2026-04-11T10:07:37.999Z</time></trkpt><trkpt lat="43.17736373934137" lon="11.385581715540368"><ele>269.0</ele><time>2026-04-11T10:07:39.999Z</time></trkpt><trkpt lat="43.17732140461291" lon="11.385657654447295"><ele>269.0</ele><time>2026-04-11T10:07:40.999Z</time></trkpt><trkpt lat="43.17727717987531" lon="11.385727317679216"><ele>269.0</ele><time>2026-04-11T10:07:41.999Z</time></trkpt><trkpt lat="43.17723441257887" lon="11.385791891047573"><ele>269.0</ele><time>2026-04-11T10:07:42.999Z</time></trkpt><trkpt lat="43.17716677382504" lon="11.385942459084832"><ele>269.5</ele><time>2026-04-11T10:07:44.999Z</time></trkpt><trkpt lat="43.17713706960005" lon="11.3860280343027"><ele>270.0</ele><time>2026-04-11T10:07:45.999Z</time></trkpt><trkpt lat="43.17710857455828" lon="11.386105420415914"><ele>270.5</ele><time>2026-04-11T10:07:46.999Z</time></trkpt><trkpt lat="43.17703619027441" lon="11.386249526761928"><ele>271.0</ele><time>2026-04-11T10:07:48.999Z</time></trkpt><trkpt lat="43.176997498083416" lon="11.386327467810105"><ele>271.5</ele><time>2026-04-11T10:07:49.999Z</time></trkpt><trkpt lat="43.176968575522366" lon="11.386418989749668"><ele>272.0</ele><time>2026-04-11T10:07:50.999Z</time></trkpt><trkpt lat="43.17693457358224" lon="11.386500637168766"><ele>271.99999999999994</ele><time>2026-04-11T10:07:51.999Z</time></trkpt><trkpt lat="43.17689827197916" lon="11.386589465157815"><ele>272.0</ele><time>2026-04-11T10:07:52.999Z</time></trkpt><trkpt lat="43.17686549071334" lon="11.386677936371242"><ele>272.0</ele><time>2026-04-11T10:07:53.999Z</time></trkpt><trkpt lat="43.17683103825056" lon="11.386764717447585"><ele>272.0</ele><time>2026-04-11T10:07:54.999Z</time></trkpt><trkpt lat="43.17679459293926" lon="11.386843840577889"><ele>272.0</ele><time>2026-04-11T10:07:55.999Z</time></trkpt><trkpt lat="43.1767598189666" lon="11.38692526850122"><ele>271.99999999999994</ele><time>2026-04-11T10:07:56.999Z</time></trkpt><trkpt lat="43.17672730914879" lon="11.38700484844708"><ele>272.0</ele><time>2026-04-11T10:07:57.999Z</time></trkpt><trkpt lat="43.17669793313864" lon="11.387090126681878"><ele>272.0</ele><time>2026-04-11T10:07:58.999Z</time></trkpt><trkpt lat="43.17666440181374" lon="11.38716439519768"><ele>272.0</ele><time>2026-04-11T10:07:59.999Z</time></trkpt><trkpt lat="43.17659813999575" lon="11.387308576955892"><ele>272.0</ele><time>2026-04-11T10:08:01.999Z</time></trkpt><trkpt lat="43.176565750850216" lon="11.38738462089533"><ele>272.0</ele><time>2026-04-11T10:08:02.999Z</time></trkpt><trkpt lat="43.17650794121386" lon="11.387527098005926"><ele>272.0</ele><time>2026-04-11T10:08:04.999Z</time></trkpt><trkpt lat="43.17644861662799" lon="11.387656450846697"><ele>272.4</ele><time>2026-04-11T10:08:06.999Z</time></trkpt><trkpt lat="43.176379474239305" lon="11.387778114344309"><ele>272.79999999999995</ele><time>2026-04-11T10:08:08.999Z</time></trkpt><trkpt lat="43.176301669655075" lon="11.387886627666592"><ele>273.2</ele><time>2026-04-11T10:08:10.999Z</time></trkpt><trkpt lat="43.17622316297115" lon="11.387991753187466"><ele>273.59999999999997</ele><time>2026-04-11T10:08:12.999Z</time></trkpt><trkpt lat="43.17613772475316" lon="11.388084101119743"><ele>274.0</ele><time>2026-04-11T10:08:14.999Z</time></trkpt><trkpt lat="43.17605314364431" lon="11.388166650687182"><ele>274.0</ele><time>2026-04-11T10:08:16.999Z</time></trkpt><trkpt lat="43.17596593140363" lon="11.3882398494059"><ele>274.0</ele><time>2026-04-11T10:08:18.999Z</time></trkpt><trkpt lat="43.17589589663966" lon="11.388288447670327"><ele>274.0</ele><time>2026-04-11T10:08:20.999Z</time></trkpt><trkpt lat="43.17575509011529" lon="11.38837573013992"><ele>274.0</ele><time>2026-04-11T10:08:23.999Z</time></trkpt><trkpt lat="43.17565535437305" lon="11.388421700211575"><ele>274.0</ele><time>2026-04-11T10:08:25.999Z</time></trkpt><trkpt lat="43.175559582719316" lon="11.388461885532562"><ele>273.8333333333333</ele><time>2026-04-11T10:08:27.999Z</time></trkpt><trkpt lat="43.17546407360669" lon="11.3885013103672"><ele>273.66666666666663</ele><time>2026-04-11T10:08:30Z</time></trkpt><trkpt lat="43.17536900854854" lon="11.388540885949979"><ele>273.5</ele><time>2026-04-11T10:08:32Z</time></trkpt><trkpt lat="43.175289288730944" lon="11.388578168980539"><ele>273.3333333333333</ele><time>2026-04-11T10:08:34Z</time></trkpt><trkpt lat="43.17521605069741" lon="11.388612420583403"><ele>273.1666666666667</ele><time>2026-04-11T10:08:36Z</time></trkpt><trkpt lat="43.17514420771351" lon="11.388645747881254"><ele>273.0</ele><time>2026-04-11T10:08:38Z</time></trkpt><trkpt lat="43.17507551426383" lon="11.388676393218342"><ele>273.0</ele><time>2026-04-11T10:08:40Z</time></trkpt><trkpt lat="43.17500483277133" lon="11.388707925353348"><ele>273.0</ele><time>2026-04-11T10:08:42Z</time></trkpt><trkpt lat="43.174948973526476" lon="11.388749518891514"><ele>273.0</ele><time>2026-04-11T10:08:44Z</time></trkpt><trkpt lat="43.17485512804449" lon="11.388774959779019"><ele>273.0</ele><time>2026-04-11T10:08:47Z</time></trkpt><trkpt lat="43.17479130998689" lon="11.388814586813076"><ele>273.0</ele><time>2026-04-11T10:08:49Z</time></trkpt><trkpt lat="43.17472872142621" lon="11.388852285672082"><ele>273.0</ele><time>2026-04-11T10:08:51Z</time></trkpt><trkpt lat="43.174643525155794" lon="11.388888678492723"><ele>273.85714285714283</ele><time>2026-04-11T10:08:53Z</time></trkpt><trkpt lat="43.174576472751056" lon="11.388911112508495"><ele>274.7142857142857</ele><time>2026-04-11T10:08:55Z</time></trkpt><trkpt lat="43.174515280801934" lon="11.388940475615534"><ele>275.57142857142856</ele><time>2026-04-11T10:08:57Z</time></trkpt><trkpt lat="43.1744464600923" lon="11.38896831715382"><ele>276.42857142857144</ele><time>2026-04-11T10:08:58.999Z</time></trkpt><trkpt lat="43.17438217502042" lon="11.388998127741202"><ele>277.2857142857143</ele><time>2026-04-11T10:09:00.999Z</time></trkpt><trkpt lat="43.17431368439127" lon="11.389024663389213"><ele>278.1428571428571</ele><time>2026-04-11T10:09:02.999Z</time></trkpt><trkpt lat="43.17425108481275" lon="11.389052239354497"><ele>279.0</ele><time>2026-04-11T10:09:04.999Z</time></trkpt><trkpt lat="43.17417744160047" lon="11.38909285198139"><ele>279.0</ele><time>2026-04-11T10:09:07.999Z</time></trkpt><trkpt lat="43.174076422114844" lon="11.38915511635633"><ele>279.0</ele><time>2026-04-11T10:09:10.999Z</time></trkpt><trkpt lat="43.1740129114802" lon="11.389196353193718"><ele>279.0</ele><time>2026-04-11T10:09:12.999Z</time></trkpt><trkpt lat="43.1739494716321" lon="11.389250359870063"><ele>279.0</ele><time>2026-04-11T10:09:14.999Z</time></trkpt><trkpt lat="43.173890361149404" lon="11.3893248321472"><ele>279.0</ele><time>2026-04-11T10:09:17.999Z</time></trkpt><trkpt lat="43.17382732613939" lon="11.38940519764063"><ele>279.0</ele><time>2026-04-11T10:09:20.999Z</time></trkpt><trkpt lat="43.173763128932386" lon="11.38950420450934"><ele>280.1666666666667</ele><time>2026-04-11T10:09:21.999Z</time></trkpt><trkpt lat="43.173716371098244" lon="11.38958333357196"><ele>281.3333333333333</ele><time>2026-04-11T10:09:23.999Z</time></trkpt><trkpt lat="43.17367308063028" lon="11.389663138697731"><ele>282.5</ele><time>2026-04-11T10:09:25.999Z</time></trkpt><trkpt lat="43.17362958747508" lon="11.389746384084143"><ele>283.66666666666663</ele><time>2026-04-11T10:09:27.999Z</time></trkpt><trkpt lat="43.173589665450464" lon="11.389832587356034"><ele>284.8333333333333</ele><time>2026-04-11T10:09:29.999Z</time></trkpt><trkpt lat="43.173544267170904" lon="11.389925789437203"><ele>286.0</ele><time>2026-04-11T10:09:31.999Z</time></trkpt><trkpt lat="43.17349862175645" lon="11.390016456696452"><ele>285.99999999999994</ele><time>2026-04-11T10:09:33.999Z</time></trkpt><trkpt lat="43.17345729846711" lon="11.390097483481984"><ele>286.0</ele><time>2026-04-11T10:09:35.999Z</time></trkpt><trkpt lat="43.173421431508345" lon="11.390177874696999"><ele>286.0</ele><time>2026-04-11T10:09:37.999Z</time></trkpt><trkpt lat="43.173357753569675" lon="11.390255444032928"><ele>286.0</ele><time>2026-04-11T10:09:41.999Z</time></trkpt><trkpt lat="43.17330792920589" lon="11.390311837648909"><ele>286.0</ele><time>2026-04-11T10:09:44.999Z</time></trkpt><trkpt lat="43.17326105166623" lon="11.390394860765582"><ele>285.99999999999994</ele><time>2026-04-11T10:09:48.999Z</time></trkpt><trkpt lat="43.173215653203854" lon="11.390473376296928"><ele>286.0</ele><time>2026-04-11T10:09:52.999Z</time></trkpt><trkpt lat="43.17316203254401" lon="11.390545856271816"><ele>287.71428571428567</ele><time>2026-04-11T10:09:56.999Z</time></trkpt><trkpt lat="43.17310957193006" lon="11.39060956464332"><ele>289.42857142857144</ele><time>2026-04-11T10:10:00.999Z</time></trkpt><trkpt lat="43.17304387253491" lon="11.390664496881076"><ele>291.1428571428571</ele><time>2026-04-11T10:10:04.999Z</time></trkpt><trkpt lat="43.17298488426081" lon="11.390712319279046"><ele>292.85714285714283</ele><time>2026-04-11T10:10:08.999Z</time></trkpt><trkpt lat="43.17292717695355" lon="11.390750887312457"><ele>294.57142857142856</ele><time>2026-04-11T10:10:12.999Z</time></trkpt><trkpt lat="43.17285151815761" lon="11.390779566045053"><ele>296.2857142857143</ele><time>2026-04-11T10:10:17.999Z</time></trkpt><trkpt lat="43.17277588195034" lon="11.390810450847132"><ele>298.0</ele><time>2026-04-11T10:10:22.999Z</time></trkpt><trkpt lat="43.1727158477483" lon="11.390859655182332"><ele>298.0</ele><time>2026-04-11T10:10:27.999Z</time></trkpt><trkpt lat="43.172646971162926" lon="11.390881041646798"><ele>298.0</ele><time>2026-04-11T10:10:32.999Z</time></trkpt><trkpt lat="43.17258036506884" lon="11.390917530889906"><ele>298.0</ele><time>2026-04-11T10:10:38Z</time></trkpt><trkpt lat="43.17251050428701" lon="11.390947390210851"><ele>298.0</ele><time>2026-04-11T10:10:43Z</time></trkpt><trkpt lat="43.172438413593895" lon="11.390987043905037"><ele>298.0</ele><time>2026-04-11T10:10:48Z</time></trkpt><trkpt lat="43.17236546042828" lon="11.391029237779039"><ele>298.0</ele><time>2026-04-11T10:10:53Z</time></trkpt><trkpt lat="43.1722965989561" lon="11.391067707126195"><ele>298.0</ele><time>2026-04-11T10:10:58Z</time></trkpt><trkpt lat="43.172227269519674" lon="11.391091849849206"><ele>299.0</ele><time>2026-04-11T10:11:03Z</time></trkpt><trkpt lat="43.17216180880004" lon="11.391118997302753"><ele>300.0</ele><time>2026-04-11T10:11:07.999Z</time></trkpt><trkpt lat="43.17210066700428" lon="11.391156205071727"><ele>301.0</ele><time>2026-04-11T10:11:12.999Z</time></trkpt><trkpt lat="43.1720231583712" lon="11.39119192052944"><ele>302.0</ele><time>2026-04-11T10:11:16.999Z</time></trkpt><trkpt lat="43.17196028272042" lon="11.391229117435206"><ele>303.0</ele><time>2026-04-11T10:11:19.999Z</time></trkpt><trkpt lat="43.17187560277803" lon="11.391258293938556"><ele>304.0</ele><time>2026-04-11T10:11:23.999Z</time></trkpt><trkpt lat="43.17180153084651" lon="11.39128277577885"><ele>305.0</ele><time>2026-04-11T10:11:26.999Z</time></trkpt><trkpt lat="43.1717181166811" lon="11.391313227482177"><ele>304.4</ele><time>2026-04-11T10:11:30.999Z</time></trkpt><trkpt lat="43.17157379107016" lon="11.391343493652666"><ele>303.8</ele><time>2026-04-11T10:11:33.999Z</time></trkpt><trkpt lat="43.171487952086295" lon="11.39135098452367"><ele>303.2</ele><time>2026-04-11T10:11:35.999Z</time></trkpt><trkpt lat="43.17140604301923" lon="11.391353893541813"><ele>302.6</ele><time>2026-04-11T10:11:37.999Z</time></trkpt><trkpt lat="43.17134444949218" lon="11.391321520265329"><ele>302.0</ele><time>2026-04-11T10:11:39.999Z</time></trkpt><trkpt lat="43.17119070608522" lon="11.391353248647249"><ele>302.0</ele><time>2026-04-11T10:11:40.999Z</time></trkpt><trkpt lat="43.171087899190084" lon="11.391300037129357"><ele>302.0</ele><time>2026-04-11T10:11:42.999Z</time></trkpt><trkpt lat="43.17105390923348" lon="11.391220544192617"><ele>302.0</ele><time>2026-04-11T10:11:43.999Z</time></trkpt><trkpt lat="43.17096472198811" lon="11.391168940628127"><ele>302.0</ele><time>2026-04-11T10:11:45.999Z</time></trkpt><trkpt lat="43.1708763154197" lon="11.391119399267069"><ele>302.0</ele><time>2026-04-11T10:11:47.999Z</time></trkpt><trkpt lat="43.17078241421824" lon="11.391068121556666"><ele>302.0</ele><time>2026-04-11T10:11:49.999Z</time></trkpt><trkpt lat="43.170680820743804" lon="11.391011717292791"><ele>302.0</ele><time>2026-04-11T10:11:51.999Z</time></trkpt><trkpt lat="43.170577720947755" lon="11.390954289510145"><ele>302.0</ele><time>2026-04-11T10:11:53.999Z</time></trkpt><trkpt lat="43.17047528178621" lon="11.390893344523725"><ele>302.0</ele><time>2026-04-11T10:11:55.999Z</time></trkpt><trkpt lat="43.17036832417176" lon="11.390818455123629"><ele>302.00000000000006</ele><time>2026-04-11T10:11:57.999Z</time></trkpt><trkpt lat="43.17031157393951" lon="11.390774366662033"><ele>302.0</ele><time>2026-04-11T10:11:58.999Z</time></trkpt><trkpt lat="43.17025712363728" lon="11.390730237552019"><ele>302.0</ele><time>2026-04-11T10:11:59.999Z</time></trkpt><trkpt lat="43.17019688136416" lon="11.390681414244401"><ele>302.0</ele><time>2026-04-11T10:12:00.999Z</time></trkpt><trkpt lat="43.170131783644045" lon="11.390627208903195"><ele>302.0</ele><time>2026-04-11T10:12:01.999Z</time></trkpt><trkpt lat="43.17006847763527" lon="11.390574551300748"><ele>302.00000000000006</ele><time>2026-04-11T10:12:02.999Z</time></trkpt><trkpt lat="43.169998485766904" lon="11.390516331226056"><ele>302.0</ele><time>2026-04-11T10:12:03.999Z</time></trkpt><trkpt lat="43.16992697001972" lon="11.390454087414621"><ele>299.6</ele><time>2026-04-11T10:12:04.999Z</time></trkpt><trkpt lat="43.16985118135115" lon="11.390391178557806"><ele>297.2</ele><time>2026-04-11T10:12:05.999Z</time></trkpt><trkpt lat="43.16977165811057" lon="11.390327039471487"><ele>294.8</ele><time>2026-04-11T10:12:06.999Z</time></trkpt><trkpt lat="43.16968851529809" lon="11.390266209629461"><ele>292.4</ele><time>2026-04-11T10:12:07.999Z</time></trkpt><trkpt lat="43.169601172583164" lon="11.390207210287217"><ele>290.0</ele><time>2026-04-11T10:12:08.999Z</time></trkpt><trkpt lat="43.16949504961431" lon="11.390144111970097"><ele>290.0</ele><time>2026-04-11T10:12:09.999Z</time></trkpt><trkpt lat="43.1694026523916" lon="11.390099287127034"><ele>290.0</ele><time>2026-04-11T10:12:10.999Z</time></trkpt><trkpt lat="43.16929903645987" lon="11.390058162537313"><ele>290.0</ele><time>2026-04-11T10:12:11.999Z</time></trkpt><trkpt lat="43.16919043814013" lon="11.390025980296134"><ele>290.0</ele><time>2026-04-11T10:12:12.999Z</time></trkpt><trkpt lat="43.169102311138836" lon="11.390007826204819"><ele>290.0</ele><time>2026-04-11T10:12:13.999Z</time></trkpt><trkpt lat="43.16903519511704" lon="11.389995877498379"><ele>288.1666666666667</ele><time>2026-04-11T10:12:14.999Z</time></trkpt><trkpt lat="43.168958041490754" lon="11.389985534266529"><ele>286.33333333333337</ele><time>2026-04-11T10:12:15.999Z</time></trkpt><trkpt lat="43.168879667181805" lon="11.389975236649223"><ele>284.5</ele><time>2026-04-11T10:12:16.999Z</time></trkpt><trkpt lat="43.168805409881436" lon="11.389970870439535"><ele>282.6666666666667</ele><time>2026-04-11T10:12:17.999Z</time></trkpt><trkpt lat="43.168722499977505" lon="11.38996274003765"><ele>280.8333333333333</ele><time>2026-04-11T10:12:18.999Z</time></trkpt><trkpt lat="43.16863464438243" lon="11.389954183847374"><ele>279.0</ele><time>2026-04-11T10:12:19.999Z</time></trkpt><trkpt lat="43.16853938862613" lon="11.389944905023924"><ele>279.0</ele><time>2026-04-11T10:12:20.999Z</time></trkpt><trkpt lat="43.16844220726113" lon="11.389936940978336"><ele>279.0</ele><time>2026-04-11T10:12:21.999Z</time></trkpt><trkpt lat="43.1683403045989" lon="11.389928756892209"><ele>279.0</ele><time>2026-04-11T10:12:22.999Z</time></trkpt><trkpt lat="43.16823798022178" lon="11.389920538914204"><ele>279.0</ele><time>2026-04-11T10:12:23.999Z</time></trkpt><trkpt lat="43.16812831385448" lon="11.389911797324514"><ele>279.0</ele><time>2026-04-11T10:12:24.999Z</time></trkpt><trkpt lat="43.16801567285334" lon="11.389903160902124"><ele>277.5</ele><time>2026-04-11T10:12:25.999Z</time></trkpt><trkpt lat="43.167899768972006" lon="11.38989427431124"><ele>276.0</ele><time>2026-04-11T10:12:26.999Z</time></trkpt><trkpt lat="43.167783724746855" lon="11.38988537694987"><ele>274.5</ele><time>2026-04-11T10:12:27.999Z</time></trkpt><trkpt lat="43.167662938678234" lon="11.389875565168236"><ele>273.0</ele><time>2026-04-11T10:12:28.999Z</time></trkpt><trkpt lat="43.16754029955572" lon="11.389865578375732"><ele>273.0</ele><time>2026-04-11T10:12:29.999Z</time></trkpt><trkpt lat="43.16741783168972" lon="11.38985587414365"><ele>273.0</ele><time>2026-04-11T10:12:30.999Z</time></trkpt><trkpt lat="43.167295699629385" lon="11.389848199536397"><ele>273.0</ele><time>2026-04-11T10:12:31.999Z</time></trkpt><trkpt lat="43.16717691648573" lon="11.38984073536894"><ele>273.0</ele><time>2026-04-11T10:12:32.999Z</time></trkpt><trkpt lat="43.16705735101546" lon="11.389845272272579"><ele>273.25</ele><time>2026-04-11T10:12:33.999Z</time></trkpt><trkpt lat="43.16693855542516" lon="11.38986231839876"><ele>273.5</ele><time>2026-04-11T10:12:34.999Z</time></trkpt><trkpt lat="43.166825516713224" lon="11.389896796940576"><ele>273.75</ele><time>2026-04-11T10:12:35.999Z</time></trkpt><trkpt lat="43.166716662123356" lon="11.389953542785278"><ele>274.0</ele><time>2026-04-11T10:12:36.999Z</time></trkpt><trkpt lat="43.166615888966504" lon="11.390030844531132"><ele>274.59999999999997</ele><time>2026-04-11T10:12:37.999Z</time></trkpt><trkpt lat="43.16652389066509" lon="11.390122403438513"><ele>275.2</ele><time>2026-04-11T10:12:38.999Z</time></trkpt><trkpt lat="43.166441499151055" lon="11.390228636629086"><ele>275.79999999999995</ele><time>2026-04-11T10:12:39.999Z</time></trkpt><trkpt lat="43.1663695198287" lon="11.390344945900083"><ele>276.4</ele><time>2026-04-11T10:12:41Z</time></trkpt><trkpt lat="43.16630301260231" lon="11.390453806793394"><ele>277.0</ele><time>2026-04-11T10:12:42Z</time></trkpt><trkpt lat="43.1662379108443" lon="11.39054702301785"><ele>275.8</ele><time>2026-04-11T10:12:43Z</time></trkpt><trkpt lat="43.16617528000509" lon="11.3906444130274"><ele>274.6</ele><time>2026-04-11T10:12:44Z</time></trkpt><trkpt lat="43.166087488603495" lon="11.390700222785831"><ele>273.40000000000003</ele><time>2026-04-11T10:12:45Z</time></trkpt><trkpt lat="43.16600495842786" lon="11.39075479010411"><ele>272.2</ele><time>2026-04-11T10:12:46Z</time></trkpt><trkpt lat="43.16592289669142" lon="11.390803111465534"><ele>271.0</ele><time>2026-04-11T10:12:47Z</time></trkpt><trkpt lat="43.165831141531605" lon="11.390786620459025"><ele>271.0</ele><time>2026-04-11T10:12:48Z</time></trkpt><trkpt lat="43.16574855461906" lon="11.390816546463467"><ele>271.0</ele><time>2026-04-11T10:12:49Z</time></trkpt><trkpt lat="43.16566931648755" lon="11.390844616324001"><ele>271.0</ele><time>2026-04-11T10:12:50Z</time></trkpt><trkpt lat="43.165592518796856" lon="11.39086912873261"><ele>271.0</ele><time>2026-04-11T10:12:51Z</time></trkpt><trkpt lat="43.1655175934878" lon="11.390891151983785"><ele>271.0</ele><time>2026-04-11T10:12:52Z</time></trkpt><trkpt lat="43.16544262159525" lon="11.390910517291875"><ele>271.0</ele><time>2026-04-11T10:12:53Z</time></trkpt><trkpt lat="43.1653707110917" lon="11.390929091782416"><ele>271.5</ele><time>2026-04-11T10:12:54Z</time></trkpt><trkpt lat="43.1653008417352" lon="11.390947139629587"><ele>272.0</ele><time>2026-04-11T10:12:55Z</time></trkpt><trkpt lat="43.16523190655918" lon="11.390966692673542"><ele>272.5</ele><time>2026-04-11T10:12:56Z</time></trkpt><trkpt lat="43.1651642564499" lon="11.390985081623604"><ele>273.0</ele><time>2026-04-11T10:12:57Z</time></trkpt><trkpt lat="43.16509720318921" lon="11.391002983877312"><ele>273.5</ele><time>2026-04-11T10:12:58Z</time></trkpt><trkpt lat="43.16503555819643" lon="11.391041178295533"><ele>274.0</ele><time>2026-04-11T10:12:59Z</time></trkpt><trkpt lat="43.164914143061964" lon="11.39107189259616"><ele>274.2</ele><time>2026-04-11T10:13:01Z</time></trkpt><trkpt lat="43.16479889109945" lon="11.391093130363123"><ele>274.4</ele><time>2026-04-11T10:13:03Z</time></trkpt><trkpt lat="43.16469555414741" lon="11.391120274201985"><ele>274.6</ele><time>2026-04-11T10:13:05Z</time></trkpt><trkpt lat="43.16459774865915" lon="11.391149738663298"><ele>274.8</ele><time>2026-04-11T10:13:07Z</time></trkpt><trkpt lat="43.16450347990435" lon="11.391169942944487"><ele>275.0</ele><time>2026-04-11T10:13:09Z</time></trkpt><trkpt lat="43.16441366993951" lon="11.39119705588468"><ele>275.0</ele><time>2026-04-11T10:13:12Z</time></trkpt><trkpt lat="43.16428942048706" lon="11.391282569906606"><ele>275.0</ele><time>2026-04-11T10:13:13.999Z</time></trkpt><trkpt lat="43.16421006771118" lon="11.39129438581556"><ele>275.0</ele><time>2026-04-11T10:13:15.999Z</time></trkpt><trkpt lat="43.16413991866426" lon="11.391309827827067"><ele>275.0</ele><time>2026-04-11T10:13:17.999Z</time></trkpt><trkpt lat="43.16406679686679" lon="11.391323560734051"><ele>275.0</ele><time>2026-04-11T10:13:19.999Z</time></trkpt><trkpt lat="43.16399522632166" lon="11.391344209621458"><ele>275.0</ele><time>2026-04-11T10:13:21.999Z</time></trkpt><trkpt lat="43.16392396556052" lon="11.391353993688895"><ele>275.2857142857143</ele><time>2026-04-11T10:13:23.999Z</time></trkpt><trkpt lat="43.16385415843481" lon="11.39137262401605"><ele>275.57142857142856</ele><time>2026-04-11T10:13:25.999Z</time></trkpt><trkpt lat="43.16378788976007" lon="11.391393751903184"><ele>275.85714285714283</ele><time>2026-04-11T10:13:27.999Z</time></trkpt><trkpt lat="43.16372013224509" lon="11.391410043862923"><ele>276.1428571428571</ele><time>2026-04-11T10:13:29.999Z</time></trkpt><trkpt lat="43.16364983810065" lon="11.391423883065452"><ele>276.4285714285714</ele><time>2026-04-11T10:13:31.999Z</time></trkpt><trkpt lat="43.16358377723087" lon="11.391397982285646"><ele>276.7142857142857</ele><time>2026-04-11T10:13:33.999Z</time></trkpt><trkpt lat="43.163491138821044" lon="11.391422902647705"><ele>277.0</ele><time>2026-04-11T10:13:36.999Z</time></trkpt><trkpt lat="43.16342740695761" lon="11.39144191533319"><ele>277.0</ele><time>2026-04-11T10:13:38.999Z</time></trkpt><trkpt lat="43.163341542421364" lon="11.391460950923314"><ele>277.0</ele><time>2026-04-11T10:13:41.999Z</time></trkpt><trkpt lat="43.16325415438093" lon="11.391478142854902"><ele>277.0</ele><time>2026-04-11T10:13:44.999Z</time></trkpt><trkpt lat="43.163161934328656" lon="11.391502447457386"><ele>277.0</ele><time>2026-04-11T10:13:47.999Z</time></trkpt><trkpt lat="43.16307753630015" lon="11.39151973734531"><ele>277.0</ele><time>2026-04-11T10:13:50.999Z</time></trkpt><trkpt lat="43.16299522418197" lon="11.391533995719021"><ele>277.0</ele><time>2026-04-11T10:13:53.999Z</time></trkpt><trkpt lat="43.162912496675865" lon="11.391556377405083"><ele>277.8333333333333</ele><time>2026-04-11T10:13:56.999Z</time></trkpt><trkpt lat="43.162832157527475" lon="11.391574648238977"><ele>278.66666666666663</ele><time>2026-04-11T10:13:59.999Z</time></trkpt><trkpt lat="43.16276708070092" lon="11.391592257327222"><ele>279.5</ele><time>2026-04-11T10:14:02.999Z</time></trkpt><trkpt lat="43.16270068351368" lon="11.391598376646996"><ele>280.3333333333333</ele><time>2026-04-11T10:14:05.999Z</time></trkpt><trkpt lat="43.16262185794561" lon="11.391613122561077"><ele>281.1666666666667</ele><time>2026-04-11T10:14:08.999Z</time></trkpt><trkpt lat="43.162546523630205" lon="11.391618914728058"><ele>282.0</ele><time>2026-04-11T10:14:11.999Z</time></trkpt><trkpt lat="43.162448756256325" lon="11.391629079339634"><ele>282.6666666666667</ele><time>2026-04-11T10:14:14.999Z</time></trkpt><trkpt lat="43.162360314291284" lon="11.39163803275904"><ele>283.3333333333333</ele><time>2026-04-11T10:14:16.999Z</time></trkpt><trkpt lat="43.16229298473808" lon="11.391649878249513"><ele>284.0</ele><time>2026-04-11T10:14:18.999Z</time></trkpt><trkpt lat="43.16222493373587" lon="11.391656585332038"><ele>284.66666666666663</ele><time>2026-04-11T10:14:20.999Z</time></trkpt><trkpt lat="43.16215245938632" lon="11.391677970514243"><ele>285.3333333333333</ele><time>2026-04-11T10:14:22.999Z</time></trkpt><trkpt lat="43.16207648040339" lon="11.391701149993182"><ele>286.0</ele><time>2026-04-11T10:14:24.999Z</time></trkpt><trkpt lat="43.16199787746297" lon="11.391734951581501"><ele>286.0</ele><time>2026-04-11T10:14:26.999Z</time></trkpt><trkpt lat="43.161919722188514" lon="11.391789279482202"><ele>286.0</ele><time>2026-04-11T10:14:28.999Z</time></trkpt><trkpt lat="43.16184320759033" lon="11.391879176933227"><ele>286.0</ele><time>2026-04-11T10:14:30.999Z</time></trkpt><trkpt lat="43.16177714975156" lon="11.391995437722581"><ele>286.0</ele><time>2026-04-11T10:14:32.999Z</time></trkpt><trkpt lat="43.16172999805942" lon="11.392144978093212"><ele>286.0</ele><time>2026-04-11T10:14:34.999Z</time></trkpt><trkpt lat="43.161683619256316" lon="11.392302693388652"><ele>285.3333333333333</ele><time>2026-04-11T10:14:36.999Z</time></trkpt><trkpt lat="43.161658247498686" lon="11.392382740692751"><ele>284.66666666666663</ele><time>2026-04-11T10:14:37.999Z</time></trkpt><trkpt lat="43.16161088969651" lon="11.392544923279882"><ele>284.0</ele><time>2026-04-11T10:14:39.999Z</time></trkpt><trkpt lat="43.16158604075241" lon="11.392626439218779"><ele>283.3333333333333</ele><time>2026-04-11T10:14:40.999Z</time></trkpt><trkpt lat="43.16155368940485" lon="11.39270610850321"><ele>282.6666666666667</ele><time>2026-04-11T10:14:41.999Z</time></trkpt><trkpt lat="43.161517727154035" lon="11.392782586237622"><ele>282.0</ele><time>2026-04-11T10:14:42.999Z</time></trkpt><trkpt lat="43.16147142593719" lon="11.39285040877368"><ele>281.57142857142856</ele><time>2026-04-11T10:14:43.999Z</time></trkpt><trkpt lat="43.161417784350064" lon="11.392908209505997"><ele>281.1428571428571</ele><time>2026-04-11T10:14:44.999Z</time></trkpt><trkpt lat="43.16136314351088" lon="11.39296543909391"><ele>280.71428571428567</ele><time>2026-04-11T10:14:45.999Z</time></trkpt><trkpt lat="43.161306691167006" lon="11.39301915806483"><ele>280.2857142857143</ele><time>2026-04-11T10:14:47Z</time></trkpt><trkpt lat="43.161246432767264" lon="11.393064561660605"><ele>279.85714285714283</ele><time>2026-04-11T10:14:48Z</time></trkpt><trkpt lat="43.16118394242439" lon="11.393102944466065"><ele>279.4285714285714</ele><time>2026-04-11T10:14:49Z</time></trkpt><trkpt lat="43.16111609309546" lon="11.393130185544484"><ele>279.0</ele><time>2026-04-11T10:14:50Z</time></trkpt><trkpt lat="43.16104550352121" lon="11.39315754873419"><ele>279.0</ele><time>2026-04-11T10:14:51Z</time></trkpt><trkpt lat="43.16097506625011" lon="11.393185352644018"><ele>279.0</ele><time>2026-04-11T10:14:52Z</time></trkpt><trkpt lat="43.160899289765936" lon="11.393198618654472"><ele>279.0</ele><time>2026-04-11T10:14:53Z</time></trkpt><trkpt lat="43.16082440611669" lon="11.393231118208766"><ele>279.0</ele><time>2026-04-11T10:14:54Z</time></trkpt><trkpt lat="43.16074906983757" lon="11.393262651576093"><ele>279.0</ele><time>2026-04-11T10:14:55Z</time></trkpt><trkpt lat="43.160679129461506" lon="11.393313286066778"><ele>279.0</ele><time>2026-04-11T10:14:56Z</time></trkpt><trkpt lat="43.160603534900815" lon="11.393341981120923"><ele>278.6666666666667</ele><time>2026-04-11T10:14:57Z</time></trkpt><trkpt lat="43.160528734962114" lon="11.393371930863223"><ele>278.3333333333333</ele><time>2026-04-11T10:14:58Z</time></trkpt><trkpt lat="43.1604552403525" lon="11.393399866289538"><ele>278.0</ele><time>2026-04-11T10:14:59Z</time></trkpt><trkpt lat="43.160382927475204" lon="11.393429867922952"><ele>277.66666666666663</ele><time>2026-04-11T10:15:00Z</time></trkpt><trkpt lat="43.160310214145206" lon="11.393460999758512"><ele>277.3333333333333</ele><time>2026-04-11T10:15:01Z</time></trkpt><trkpt lat="43.160237058959716" lon="11.393493456167437"><ele>277.0</ele><time>2026-04-11T10:15:02Z</time></trkpt><trkpt lat="43.160165809807324" lon="11.393526216175363"><ele>277.0</ele><time>2026-04-11T10:15:03Z</time></trkpt><trkpt lat="43.16009357398179" lon="11.393558167819991"><ele>277.0</ele><time>2026-04-11T10:15:04Z</time></trkpt><trkpt lat="43.16002063455269" lon="11.393593327831828"><ele>277.0</ele><time>2026-04-11T10:15:05Z</time></trkpt><trkpt lat="43.15995022750592" lon="11.393627054922256"><ele>277.0</ele><time>2026-04-11T10:15:06Z</time></trkpt><trkpt lat="43.159881300507536" lon="11.3936660785299"><ele>277.0</ele><time>2026-04-11T10:15:07Z</time></trkpt><trkpt lat="43.15981407179946" lon="11.393709923554715"><ele>277.0</ele><time>2026-04-11T10:15:08Z</time></trkpt><trkpt lat="43.15974685680475" lon="11.393751604929356"><ele>276.85714285714283</ele><time>2026-04-11T10:15:09Z</time></trkpt><trkpt lat="43.1596816208959" lon="11.393795766456867"><ele>276.71428571428567</ele><time>2026-04-11T10:15:10Z</time></trkpt><trkpt lat="43.15961564518068" lon="11.393840413478054"><ele>276.57142857142856</ele><time>2026-04-11T10:15:11Z</time></trkpt><trkpt lat="43.159550540151706" lon="11.393887204146957"><ele>276.42857142857144</ele><time>2026-04-11T10:15:12Z</time></trkpt><trkpt lat="43.159487993730835" lon="11.393941259539398"><ele>276.28571428571433</ele><time>2026-04-11T10:15:13Z</time></trkpt><trkpt lat="43.1594274727551" lon="11.39400306630253"><ele>276.14285714285717</ele><time>2026-04-11T10:15:14Z</time></trkpt><trkpt lat="43.159368834408085" lon="11.394071131794188"><ele>276.0</ele><time>2026-04-11T10:15:14.999Z</time></trkpt><trkpt lat="43.15930782083056" lon="11.394138405779115"><ele>276.0</ele><time>2026-04-11T10:15:15.999Z</time></trkpt><trkpt lat="43.15924603381693" lon="11.394207489849355"><ele>276.0</ele><time>2026-04-11T10:15:16.999Z</time></trkpt><trkpt lat="43.159186705869836" lon="11.394285859705137"><ele>276.0</ele><time>2026-04-11T10:15:17.999Z</time></trkpt><trkpt lat="43.15912909544247" lon="11.394366676862658"><ele>276.0</ele><time>2026-04-11T10:15:18.999Z</time></trkpt><trkpt lat="43.159071991601905" lon="11.39444655213367"><ele>276.0</ele><time>2026-04-11T10:15:19.999Z</time></trkpt><trkpt lat="43.159018444355866" lon="11.3945402645156"><ele>276.0</ele><time>2026-04-11T10:15:20.999Z</time></trkpt><trkpt lat="43.15896256377493" lon="11.394633929489132"><ele>276.5</ele><time>2026-04-11T10:15:21.999Z</time></trkpt><trkpt lat="43.15890933823788" lon="11.394731334065032"><ele>277.0</ele><time>2026-04-11T10:15:22.999Z</time></trkpt><trkpt lat="43.15886085070016" lon="11.39483146036662"><ele>277.5</ele><time>2026-04-11T10:15:23.999Z</time></trkpt><trkpt lat="43.158818431846505" lon="11.394937565518068"><ele>278.0</ele><time>2026-04-11T10:15:24.999Z</time></trkpt><trkpt lat="43.1587844359356" lon="11.395047395087603"><ele>278.5</ele><time>2026-04-11T10:15:25.999Z</time></trkpt><trkpt lat="43.158761693330206" lon="11.395156604442997"><ele>279.0</ele><time>2026-04-11T10:15:26.999Z</time></trkpt><trkpt lat="43.158739053870505" lon="11.395266586482096"><ele>279.0</ele><time>2026-04-11T10:15:27.999Z</time></trkpt><trkpt lat="43.158720864583266" lon="11.39537638070963"><ele>279.0</ele><time>2026-04-11T10:15:28.999Z</time></trkpt><trkpt lat="43.158709357218996" lon="11.395486425668201"><ele>279.0</ele><time>2026-04-11T10:15:29.999Z</time></trkpt><trkpt lat="43.15867782928989" lon="11.395596760214366"><ele>279.0</ele><time>2026-04-11T10:15:30.999Z</time></trkpt><trkpt lat="43.15867441042505" lon="11.39570650029124"><ele>279.0</ele><time>2026-04-11T10:15:31.999Z</time></trkpt><trkpt lat="43.158701615081604" lon="11.395815235279892"><ele>279.0</ele><time>2026-04-11T10:15:32.999Z</time></trkpt><trkpt lat="43.15870335682809" lon="11.395920835388269"><ele>279.0</ele><time>2026-04-11T10:15:33.999Z</time></trkpt><trkpt lat="43.15870032539956" lon="11.39602655895943"><ele>279.0</ele><time>2026-04-11T10:15:34.999Z</time></trkpt><trkpt lat="43.15869645754886" lon="11.39613408166454"><ele>279.0</ele><time>2026-04-11T10:15:35.999Z</time></trkpt><trkpt lat="43.15869407565308" lon="11.396237354336197"><ele>279.0</ele><time>2026-04-11T10:15:36.999Z</time></trkpt><trkpt lat="43.15869260248218" lon="11.396342289503588"><ele>279.0</ele><time>2026-04-11T10:15:37.999Z</time></trkpt><trkpt lat="43.15866138054441" lon="11.396442890357115"><ele>279.0</ele><time>2026-04-11T10:15:38.999Z</time></trkpt><trkpt lat="43.15865988500435" lon="11.396545244012882"><ele>279.1666666666667</ele><time>2026-04-11T10:15:39.999Z</time></trkpt><trkpt lat="43.15868417539274" lon="11.3966474103013"><ele>279.3333333333333</ele><time>2026-04-11T10:15:40.999Z</time></trkpt><trkpt lat="43.158680722226585" lon="11.396751368400665"><ele>279.5</ele><time>2026-04-11T10:15:41.999Z</time></trkpt><trkpt lat="43.15868097364" lon="11.396855492290362"><ele>279.66666666666663</ele><time>2026-04-11T10:15:42.999Z</time></trkpt><trkpt lat="43.15868429056472" lon="11.396961331033252"><ele>279.8333333333333</ele><time>2026-04-11T10:15:43.999Z</time></trkpt><trkpt lat="43.158684147461855" lon="11.397064044202533"><ele>280.0</ele><time>2026-04-11T10:15:44.999Z</time></trkpt><trkpt lat="43.15868339489056" lon="11.397168325882776"><ele>280.0</ele><time>2026-04-11T10:15:45.999Z</time></trkpt><trkpt lat="43.158682020087994" lon="11.397274475580806"><ele>280.0</ele><time>2026-04-11T10:15:46.999Z</time></trkpt><trkpt lat="43.15867804437763" lon="11.397374718140313"><ele>280.0</ele><time>2026-04-11T10:15:47.999Z</time></trkpt><trkpt lat="43.15868094215093" lon="11.3974799359519"><ele>280.0</ele><time>2026-04-11T10:15:48.999Z</time></trkpt><trkpt lat="43.158683903417476" lon="11.39758141289082"><ele>280.0</ele><time>2026-04-11T10:15:49.999Z</time></trkpt><trkpt lat="43.15868971596829" lon="11.397683999197733"><ele>280.0</ele><time>2026-04-11T10:15:50.999Z</time></trkpt><trkpt lat="43.1586981946438" lon="11.397780658340952"><ele>280.0</ele><time>2026-04-11T10:15:51.999Z</time></trkpt><trkpt lat="43.15870924192514" lon="11.397876046436988"><ele>280.0</ele><time>2026-04-11T10:15:52.999Z</time></trkpt><trkpt lat="43.15871994620863" lon="11.397967982092563"><ele>280.0</ele><time>2026-04-11T10:15:53.999Z</time></trkpt><trkpt lat="43.15873529939741" lon="11.398055996978176"><ele>280.0</ele><time>2026-04-11T10:15:54.999Z</time></trkpt><trkpt lat="43.15876814988763" lon="11.398214105633427"><ele>280.0</ele><time>2026-04-11T10:15:56.999Z</time></trkpt><trkpt lat="43.15880128637475" lon="11.398367019556352"><ele>280.0</ele><time>2026-04-11T10:15:58.999Z</time></trkpt><trkpt lat="43.158836499541636" lon="11.398503650375494"><ele>280.3333333333333</ele><time>2026-04-11T10:16:00.999Z</time></trkpt><trkpt lat="43.15886781545594" lon="11.398634091849258"><ele>280.66666666666663</ele><time>2026-04-11T10:16:02.999Z</time></trkpt><trkpt lat="43.15889765814315" lon="11.398760398451458"><ele>281.0</ele><time>2026-04-11T10:16:04.999Z</time></trkpt><trkpt lat="43.15891582897234" lon="11.398881669852658"><ele>281.3333333333333</ele><time>2026-04-11T10:16:06.999Z</time></trkpt><trkpt lat="43.15893053979878" lon="11.398989726676387"><ele>281.6666666666667</ele><time>2026-04-11T10:16:08.999Z</time></trkpt><trkpt lat="43.15893454506244" lon="11.399092776572555"><ele>282.0</ele><time>2026-04-11T10:16:10.999Z</time></trkpt><trkpt lat="43.15893218612447" lon="11.399193972489181"><ele>282.2857142857143</ele><time>2026-04-11T10:16:12.999Z</time></trkpt><trkpt lat="43.15892386273394" lon="11.399293169965627"><ele>282.57142857142856</ele><time>2026-04-11T10:16:14.999Z</time></trkpt><trkpt lat="43.158902691613676" lon="11.39938493330267"><ele>282.85714285714283</ele><time>2026-04-11T10:16:16.999Z</time></trkpt><trkpt lat="43.1588743295195" lon="11.399462350856108"><ele>283.1428571428571</ele><time>2026-04-11T10:16:18.999Z</time></trkpt><trkpt lat="43.158830369832394" lon="11.399528690646118"><ele>283.4285714285714</ele><time>2026-04-11T10:16:20.999Z</time></trkpt><trkpt lat="43.15874487148631" lon="11.399588036790016"><ele>283.7142857142857</ele><time>2026-04-11T10:16:23.999Z</time></trkpt><trkpt lat="43.1586800824071" lon="11.399607034154878"><ele>284.0</ele><time>2026-04-11T10:16:25.999Z</time></trkpt><trkpt lat="43.15858637445249" lon="11.399626363952382"><ele>284.0</ele><time>2026-04-11T10:16:28.999Z</time></trkpt><trkpt lat="43.15849194729801" lon="11.399619719494995"><ele>284.0</ele><time>2026-04-11T10:16:31.999Z</time></trkpt><trkpt lat="43.15842493796289" lon="11.39960828196611"><ele>284.0</ele><time>2026-04-11T10:16:33.999Z</time></trkpt><trkpt lat="43.15835476939659" lon="11.399603921328264"><ele>284.0</ele><time>2026-04-11T10:16:35.999Z</time></trkpt><trkpt lat="43.15828895298585" lon="11.39961070697662"><ele>284.0</ele><time>2026-04-11T10:16:37.999Z</time></trkpt><trkpt lat="43.158220188387894" lon="11.399611955315741"><ele>284.0</ele><time>2026-04-11T10:16:39.999Z</time></trkpt><trkpt lat="43.1581544183928" lon="11.399617602332942"><ele>284.0</ele><time>2026-04-11T10:16:41.999Z</time></trkpt><trkpt lat="43.158074167908374" lon="11.399650435562585"><ele>284.85714285714283</ele><time>2026-04-11T10:16:44.999Z</time></trkpt><trkpt lat="43.15799244570248" lon="11.399696135968643"><ele>285.71428571428567</ele><time>2026-04-11T10:16:47.999Z</time></trkpt><trkpt lat="43.15793321159258" lon="11.399735520282137"><ele>286.57142857142856</ele><time>2026-04-11T10:16:49.999Z</time></trkpt><trkpt lat="43.15787774056364" lon="11.399779685615243"><ele>287.42857142857144</ele><time>2026-04-11T10:16:51.999Z</time></trkpt><trkpt lat="43.157824754338925" lon="11.399826676630228"><ele>288.28571428571433</ele><time>2026-04-11T10:16:54Z</time></trkpt><trkpt lat="43.157769744072674" lon="11.399873254318292"><ele>289.14285714285717</ele><time>2026-04-11T10:16:56Z</time></trkpt><trkpt lat="43.15769293475271" lon="11.399943741073203"><ele>290.0</ele><time>2026-04-11T10:16:59Z</time></trkpt><trkpt lat="43.15761266177519" lon="11.400012753152547"><ele>290.0</ele><time>2026-04-11T10:17:02Z</time></trkpt><trkpt lat="43.15755774502087" lon="11.400058506179375"><ele>290.0</ele><time>2026-04-11T10:17:04Z</time></trkpt><trkpt lat="43.157486292766855" lon="11.400113885134395"><ele>290.0</ele><time>2026-04-11T10:17:07Z</time></trkpt><trkpt lat="43.15740283353673" lon="11.400154735156958"><ele>290.0</ele><time>2026-04-11T10:17:10Z</time></trkpt><trkpt lat="43.15734099344087" lon="11.400171873787027"><ele>290.0</ele><time>2026-04-11T10:17:12Z</time></trkpt><trkpt lat="43.15724644317225" lon="11.40018314764317"><ele>290.0</ele><time>2026-04-11T10:17:15Z</time></trkpt><trkpt lat="43.15718062238297" lon="11.400177090767128"><ele>290.6666666666667</ele><time>2026-04-11T10:17:17Z</time></trkpt><trkpt lat="43.157113309890434" lon="11.40015960071897"><ele>291.33333333333337</ele><time>2026-04-11T10:17:19Z</time></trkpt><trkpt lat="43.157048835125096" lon="11.400208395581588"><ele>292.0</ele><time>2026-04-11T10:17:22.999Z</time></trkpt><trkpt lat="43.156955282897385" lon="11.400180161864258"><ele>292.6666666666667</ele><time>2026-04-11T10:17:25.999Z</time></trkpt><trkpt lat="43.15686508498374" lon="11.400156495751819"><ele>293.3333333333333</ele><time>2026-04-11T10:17:27.999Z</time></trkpt><trkpt lat="43.15675838708754" lon="11.400142886853937"><ele>294.0</ele><time>2026-04-11T10:17:29.999Z</time></trkpt><trkpt lat="43.15665765919903" lon="11.40010933403207"><ele>294.0</ele><time>2026-04-11T10:17:31.999Z</time></trkpt><trkpt lat="43.15655375399897" lon="11.40011036057309"><ele>294.0</ele><time>2026-04-11T10:17:34.999Z</time></trkpt><trkpt lat="43.15645842021076" lon="11.400163364544062"><ele>294.0</ele><time>2026-04-11T10:17:37.999Z</time></trkpt><trkpt lat="43.156401064741296" lon="11.400227038032595"><ele>294.0</ele><time>2026-04-11T10:17:39.999Z</time></trkpt><trkpt lat="43.156346294531595" lon="11.400320530672325"><ele>294.0</ele><time>2026-04-11T10:17:41.999Z</time></trkpt><trkpt lat="43.15633829490833" lon="11.400448063740948"><ele>296.8</ele><time>2026-04-11T10:17:43.999Z</time></trkpt><trkpt lat="43.15636515051237" lon="11.40059045394444"><ele>299.59999999999997</ele><time>2026-04-11T10:17:45.999Z</time></trkpt><trkpt lat="43.15643015097914" lon="11.400739810429931"><ele>302.4</ele><time>2026-04-11T10:17:47.999Z</time></trkpt><trkpt lat="43.1564388162786" lon="11.400839532063621"><ele>305.2</ele><time>2026-04-11T10:17:48.999Z</time></trkpt><trkpt lat="43.156477313179835" lon="11.40092424909501"><ele>308.0</ele><time>2026-04-11T10:17:49.999Z</time></trkpt><trkpt lat="43.15652899992195" lon="11.40099551595029"><ele>304.5</ele><time>2026-04-11T10:17:50.999Z</time></trkpt><trkpt lat="43.15656530173849" lon="11.401092264094558"><ele>301.0</ele><time>2026-04-11T10:17:51.999Z</time></trkpt><trkpt lat="43.15660372273935" lon="11.401190292395546"><ele>297.5</ele><time>2026-04-11T10:17:52.999Z</time></trkpt><trkpt lat="43.156643532437606" lon="11.401290963438584"><ele>294.0</ele><time>2026-04-11T10:17:53.999Z</time></trkpt><trkpt lat="43.15666643049966" lon="11.401398758039203"><ele>290.5</ele><time>2026-04-11T10:17:54.999Z</time></trkpt><trkpt lat="43.156691722468786" lon="11.401508276401026"><ele>287.0</ele><time>2026-04-11T10:17:55.999Z</time></trkpt><trkpt lat="43.15669915167083" lon="11.401620469129947"><ele>286.6</ele><time>2026-04-11T10:17:56.999Z</time></trkpt><trkpt lat="43.1566927345346" lon="11.401744888348976"><ele>286.2</ele><time>2026-04-11T10:17:57.999Z</time></trkpt><trkpt lat="43.15667641611421" lon="11.401871351406097"><ele>285.8</ele><time>2026-04-11T10:17:58.999Z</time></trkpt><trkpt lat="43.15665508763559" lon="11.402003222006844"><ele>285.4</ele><time>2026-04-11T10:17:59.999Z</time></trkpt><trkpt lat="43.15663280301142" lon="11.402132398191334"><ele>285.0</ele><time>2026-04-11T10:18:00.999Z</time></trkpt><trkpt lat="43.1566074080289" lon="11.402279265849845"><ele>284.6</ele><time>2026-04-11T10:18:01.999Z</time></trkpt><trkpt lat="43.15658535132209" lon="11.40240682710358"><ele>284.2</ele><time>2026-04-11T10:18:02.999Z</time></trkpt><trkpt lat="43.15656356212939" lon="11.402532841284987"><ele>283.8</ele><time>2026-04-11T10:18:03.999Z</time></trkpt><trkpt lat="43.156542072125966" lon="11.402657125119045"><ele>283.4</ele><time>2026-04-11T10:18:04.999Z</time></trkpt><trkpt lat="43.15652030795427" lon="11.402782994574968"><ele>283.0</ele><time>2026-04-11T10:18:05.999Z</time></trkpt><trkpt lat="43.15649911016284" lon="11.402911339201458"><ele>286.0</ele><time>2026-04-11T10:18:06.999Z</time></trkpt><trkpt lat="43.156480253216365" lon="11.403040413062628"><ele>289.0</ele><time>2026-04-11T10:18:07.999Z</time></trkpt><trkpt lat="43.15646431596451" lon="11.403172861768116"><ele>292.0</ele><time>2026-04-11T10:18:08.999Z</time></trkpt><trkpt lat="43.156449508778785" lon="11.403303459039801"><ele>295.0</ele><time>2026-04-11T10:18:09.999Z</time></trkpt><trkpt lat="43.15643651259021" lon="11.403435072355254"><ele>298.0</ele><time>2026-04-11T10:18:10.999Z</time></trkpt><trkpt lat="43.15647733041355" lon="11.403571383034846"><ele>298.0</ele><time>2026-04-11T10:18:11.999Z</time></trkpt><trkpt lat="43.15646685703552" lon="11.403698403251209"><ele>298.0</ele><time>2026-04-11T10:18:12.999Z</time></trkpt><trkpt lat="43.156458152313675" lon="11.403824273953987"><ele>298.0</ele><time>2026-04-11T10:18:13.999Z</time></trkpt><trkpt lat="43.15645062221832" lon="11.403951267751948"><ele>298.0</ele><time>2026-04-11T10:18:14.999Z</time></trkpt><trkpt lat="43.15643872263076" lon="11.40407233209675"><ele>298.0</ele><time>2026-04-11T10:18:15.999Z</time></trkpt><trkpt lat="43.156368234514616" lon="11.404175857473444"><ele>297.0</ele><time>2026-04-11T10:18:16.999Z</time></trkpt><trkpt lat="43.15633094713086" lon="11.404269721032167"><ele>296.0</ele><time>2026-04-11T10:18:17.999Z</time></trkpt><trkpt lat="43.15628541264918" lon="11.404359367431248"><ele>295.0</ele><time>2026-04-11T10:18:18.999Z</time></trkpt><trkpt lat="43.15623345744456" lon="11.40444685563982"><ele>294.0</ele><time>2026-04-11T10:18:19.999Z</time></trkpt><trkpt lat="43.1561761946372" lon="11.404519076720822"><ele>293.0</ele><time>2026-04-11T10:18:20.999Z</time></trkpt><trkpt lat="43.15611371983716" lon="11.404587808988897"><ele>292.0</ele><time>2026-04-11T10:18:21.999Z</time></trkpt><trkpt lat="43.156047290490925" lon="11.404650580901096"><ele>291.0</ele><time>2026-04-11T10:18:22.999Z</time></trkpt><trkpt lat="43.1559823072199" lon="11.404704007589492"><ele>290.0</ele><time>2026-04-11T10:18:23.999Z</time></trkpt><trkpt lat="43.15591866181504" lon="11.404750772492028"><ele>289.0</ele><time>2026-04-11T10:18:24.999Z</time></trkpt><trkpt lat="43.15585728512811" lon="11.404794580710892"><ele>288.0</ele><time>2026-04-11T10:18:25.999Z</time></trkpt><trkpt lat="43.155796417253214" lon="11.40483108249932"><ele>287.0</ele><time>2026-04-11T10:18:26.999Z</time></trkpt><trkpt lat="43.15572741486782" lon="11.404857124847503"><ele>286.0</ele><time>2026-04-11T10:18:27.999Z</time></trkpt><trkpt lat="43.15565648937851" lon="11.40489368098313"><ele>285.0</ele><time>2026-04-11T10:18:28.999Z</time></trkpt><trkpt lat="43.155594020011485" lon="11.40488022653939"><ele>285.0</ele><time>2026-04-11T10:18:29.999Z</time></trkpt><trkpt lat="43.15551017797357" lon="11.404906667388646"><ele>285.0</ele><time>2026-04-11T10:18:30.999Z</time></trkpt><trkpt lat="43.15544166616686" lon="11.404910066286407"><ele>285.0</ele><time>2026-04-11T10:18:31.999Z</time></trkpt><trkpt lat="43.15536675329993" lon="11.404914368700709"><ele>285.0</ele><time>2026-04-11T10:18:32.999Z</time></trkpt><trkpt lat="43.15529599989691" lon="11.404935573098395"><ele>285.0</ele><time>2026-04-11T10:18:33.999Z</time></trkpt><trkpt lat="43.15522764220268" lon="11.40495787432823"><ele>285.0</ele><time>2026-04-11T10:18:34.999Z</time></trkpt><trkpt lat="43.1551610832665" lon="11.404983890323145"><ele>285.0</ele><time>2026-04-11T10:18:35.999Z</time></trkpt><trkpt lat="43.15509727019153" lon="11.405008571872202"><ele>285.0</ele><time>2026-04-11T10:18:36.999Z</time></trkpt><trkpt lat="43.15497854233665" lon="11.405059806355514"><ele>285.0</ele><time>2026-04-11T10:18:38.999Z</time></trkpt><trkpt lat="43.15486884336845" lon="11.405111505971579"><ele>285.0</ele><time>2026-04-11T10:18:40.999Z</time></trkpt><trkpt lat="43.15475969244889" lon="11.405141090938951"><ele>285.0</ele><time>2026-04-11T10:18:42.999Z</time></trkpt><trkpt lat="43.15466376920195" lon="11.405207684397473"><ele>286.8</ele><time>2026-04-11T10:18:44.999Z</time></trkpt><trkpt lat="43.15456381904225" lon="11.405255613765503"><ele>288.6</ele><time>2026-04-11T10:18:46.999Z</time></trkpt><trkpt lat="43.15447105461496" lon="11.405305203783001"><ele>290.4</ele><time>2026-04-11T10:18:48.999Z</time></trkpt><trkpt lat="43.154384849240444" lon="11.405363315644026"><ele>292.2</ele><time>2026-04-11T10:18:50.999Z</time></trkpt><trkpt lat="43.15430476558773" lon="11.405431838310546"><ele>294.0</ele><time>2026-04-11T10:18:52.999Z</time></trkpt><trkpt lat="43.154241498337875" lon="11.405482087463174"><ele>292.6666666666667</ele><time>2026-04-11T10:18:54.999Z</time></trkpt><trkpt lat="43.154168596327565" lon="11.405537077896305"><ele>291.3333333333333</ele><time>2026-04-11T10:18:56.999Z</time></trkpt><trkpt lat="43.154086765275586" lon="11.405589125878198"><ele>290.0</ele><time>2026-04-11T10:18:59Z</time></trkpt><trkpt lat="43.153995443438106" lon="11.405627026932557"><ele>288.66666666666663</ele><time>2026-04-11T10:19:01Z</time></trkpt><trkpt lat="43.153903959649064" lon="11.405652180710414"><ele>287.3333333333333</ele><time>2026-04-11T10:19:03Z</time></trkpt><trkpt lat="43.15381723035447" lon="11.405657469150592"><ele>286.0</ele><time>2026-04-11T10:19:05Z</time></trkpt><trkpt lat="43.15373217965485" lon="11.405654402859966"><ele>286.0</ele><time>2026-04-11T10:19:07Z</time></trkpt><trkpt lat="43.153621544999886" lon="11.405665622875315"><ele>286.0</ele><time>2026-04-11T10:19:09Z</time></trkpt><trkpt lat="43.15352937594241" lon="11.405693119171195"><ele>286.0</ele><time>2026-04-11T10:19:11Z</time></trkpt><trkpt lat="43.153440351108536" lon="11.405708397265528"><ele>286.0</ele><time>2026-04-11T10:19:13Z</time></trkpt><trkpt lat="43.153360217342566" lon="11.405740263761002"><ele>286.0</ele><time>2026-04-11T10:19:15Z</time></trkpt><trkpt lat="43.15326984910877" lon="11.405799073509387"><ele>287.66666666666663</ele><time>2026-04-11T10:19:17Z</time></trkpt><trkpt lat="43.15319134783187" lon="11.40586663871503"><ele>289.3333333333333</ele><time>2026-04-11T10:19:19Z</time></trkpt><trkpt lat="43.15311244649127" lon="11.405934965599576"><ele>291.0</ele><time>2026-04-11T10:19:21Z</time></trkpt><trkpt lat="43.153044799402956" lon="11.40600837634284"><ele>292.6666666666667</ele><time>2026-04-11T10:19:23Z</time></trkpt><trkpt lat="43.1529756658408" lon="11.40608201662905"><ele>294.33333333333337</ele><time>2026-04-11T10:19:25Z</time></trkpt><trkpt lat="43.152903133710794" lon="11.406154076202773"><ele>296.0</ele><time>2026-04-11T10:19:26.999Z</time></trkpt><trkpt lat="43.15282783394716" lon="11.40622944508013"><ele>296.0</ele><time>2026-04-11T10:19:28.999Z</time></trkpt><trkpt lat="43.15274520587249" lon="11.406299766932129"><ele>296.0</ele><time>2026-04-11T10:19:30.999Z</time></trkpt><trkpt lat="43.152671913483104" lon="11.40635728893573"><ele>296.0</ele><time>2026-04-11T10:19:32.999Z</time></trkpt><trkpt lat="43.15257518312441" lon="11.406425013990777"><ele>296.0</ele><time>2026-04-11T10:19:34.999Z</time></trkpt><trkpt lat="43.152471373772286" lon="11.406480266422829"><ele>296.0</ele><time>2026-04-11T10:19:36.999Z</time></trkpt><trkpt lat="43.15236713205073" lon="11.406527042224107"><ele>292.75</ele><time>2026-04-11T10:19:38.999Z</time></trkpt><trkpt lat="43.15226065672713" lon="11.406563424600622"><ele>289.5</ele><time>2026-04-11T10:19:40.999Z</time></trkpt><trkpt lat="43.15215329565325" lon="11.40658975259348"><ele>286.25</ele><time>2026-04-11T10:19:42.999Z</time></trkpt><trkpt lat="43.15203918146447" lon="11.406603054797378"><ele>283.0</ele><time>2026-04-11T10:19:44.999Z</time></trkpt><trkpt lat="43.15191847811845" lon="11.406610768898645"><ele>283.0</ele><time>2026-04-11T10:19:46.999Z</time></trkpt><trkpt lat="43.151792382499146" lon="11.406617473329288"><ele>283.0</ele><time>2026-04-11T10:19:48.999Z</time></trkpt><trkpt lat="43.15172602632509" lon="11.406621962522046"><ele>283.0</ele><time>2026-04-11T10:19:49.999Z</time></trkpt><trkpt lat="43.15166144350308" lon="11.406627290335956"><ele>283.0</ele><time>2026-04-11T10:19:50.999Z</time></trkpt><trkpt lat="43.1515950888587" lon="11.406634171677101"><ele>283.0</ele><time>2026-04-11T10:19:51.999Z</time></trkpt><trkpt lat="43.15152886395375" lon="11.40664359460843"><ele>283.0</ele><time>2026-04-11T10:19:52.999Z</time></trkpt><trkpt lat="43.15146423404365" lon="11.406656256861952"><ele>283.42857142857144</ele><time>2026-04-11T10:19:53.999Z</time></trkpt><trkpt lat="43.151398156134775" lon="11.406674883202445"><ele>283.8571428571429</ele><time>2026-04-11T10:19:54.999Z</time></trkpt><trkpt lat="43.15133482337022" lon="11.406692698744273"><ele>284.2857142857143</ele><time>2026-04-11T10:19:55.999Z</time></trkpt><trkpt lat="43.1512724042215" lon="11.406713426327364"><ele>284.7142857142857</ele><time>2026-04-11T10:19:56.999Z</time></trkpt><trkpt lat="43.15120885026809" lon="11.406733414724167"><ele>285.1428571428571</ele><time>2026-04-11T10:19:57.999Z</time></trkpt><trkpt lat="43.15114220437379" lon="11.40675355855559"><ele>285.57142857142856</ele><time>2026-04-11T10:19:58.999Z</time></trkpt><trkpt lat="43.151078669192444" lon="11.406778368421737"><ele>286.0</ele><time>2026-04-11T10:19:59.999Z</time></trkpt><trkpt lat="43.15101315972912" lon="11.406797906739978"><ele>285.99999999999994</ele><time>2026-04-11T10:20:00.999Z</time></trkpt><trkpt lat="43.15094685246677" lon="11.406802521137896"><ele>286.0</ele><time>2026-04-11T10:20:01.999Z</time></trkpt><trkpt lat="43.15088161359494" lon="11.406805306077231"><ele>286.0</ele><time>2026-04-11T10:20:02.999Z</time></trkpt><trkpt lat="43.15081662816102" lon="11.406806750579468"><ele>286.0</ele><time>2026-04-11T10:20:03.999Z</time></trkpt><trkpt lat="43.150749402984374" lon="11.406804992237298"><ele>286.0</ele><time>2026-04-11T10:20:04.999Z</time></trkpt><trkpt lat="43.150679715866005" lon="11.406795443179172"><ele>285.99999999999994</ele><time>2026-04-11T10:20:05.999Z</time></trkpt><trkpt lat="43.15061332072224" lon="11.406782671149854"><ele>286.0</ele><time>2026-04-11T10:20:06.999Z</time></trkpt><trkpt lat="43.1505441931596" lon="11.406767679341858"><ele>285.2857142857143</ele><time>2026-04-11T10:20:07.999Z</time></trkpt><trkpt lat="43.1504753373961" lon="11.406754062831828"><ele>284.57142857142856</ele><time>2026-04-11T10:20:08.999Z</time></trkpt><trkpt lat="43.15040600417718" lon="11.406734884362566"><ele>283.8571428571429</ele><time>2026-04-11T10:20:09.999Z</time></trkpt><trkpt lat="43.150344164807905" lon="11.4067047469778"><ele>283.1428571428571</ele><time>2026-04-11T10:20:10.999Z</time></trkpt><trkpt lat="43.15027716562825" lon="11.40667621652164"><ele>282.42857142857144</ele><time>2026-04-11T10:20:11.999Z</time></trkpt><trkpt lat="43.150217901378035" lon="11.406635423209476"><ele>281.7142857142857</ele><time>2026-04-11T10:20:12.999Z</time></trkpt><trkpt lat="43.15016366706743" lon="11.406582462077177"><ele>281.0</ele><time>2026-04-11T10:20:13.999Z</time></trkpt><trkpt lat="43.15011554258136" lon="11.406524020861205"><ele>281.0</ele><time>2026-04-11T10:20:14.999Z</time></trkpt><trkpt lat="43.15006879491087" lon="11.406465386118983"><ele>281.0</ele><time>2026-04-11T10:20:15.999Z</time></trkpt><trkpt lat="43.14998260880785" lon="11.406345118204662"><ele>281.0</ele><time>2026-04-11T10:20:17.999Z</time></trkpt><trkpt lat="43.14989008932286" lon="11.406246547636796"><ele>281.0</ele><time>2026-04-11T10:20:19.999Z</time></trkpt><trkpt lat="43.14978522426537" lon="11.406202238937874"><ele>281.0</ele><time>2026-04-11T10:20:21.999Z</time></trkpt><trkpt lat="43.14967052479299" lon="11.406181394240521"><ele>281.8</ele><time>2026-04-11T10:20:23.999Z</time></trkpt><trkpt lat="43.14956227254735" lon="11.406226111622548"><ele>282.6</ele><time>2026-04-11T10:20:25.999Z</time></trkpt><trkpt lat="43.14946029324169" lon="11.406301751835048"><ele>283.4</ele><time>2026-04-11T10:20:27.999Z</time></trkpt><trkpt lat="43.14937275712534" lon="11.406387287628016"><ele>284.2</ele><time>2026-04-11T10:20:29.999Z</time></trkpt><trkpt lat="43.149305928373984" lon="11.406486893699283"><ele>285.0</ele><time>2026-04-11T10:20:31.999Z</time></trkpt><trkpt lat="43.149241662973914" lon="11.406577319351673"><ele>285.0</ele><time>2026-04-11T10:20:33.999Z</time></trkpt><trkpt lat="43.149163859071656" lon="11.406653730449877"><ele>285.0</ele><time>2026-04-11T10:20:35.999Z</time></trkpt><trkpt lat="43.14906680713603" lon="11.4067154788333"><ele>285.0</ele><time>2026-04-11T10:20:37.999Z</time></trkpt><trkpt lat="43.148947760469134" lon="11.4067469107892"><ele>285.0</ele><time>2026-04-11T10:20:39.999Z</time></trkpt><trkpt lat="43.148883751235964" lon="11.406752018893448"><ele>285.0</ele><time>2026-04-11T10:20:40.999Z</time></trkpt><trkpt lat="43.14881805487316" lon="11.406757623035574"><ele>285.57142857142856</ele><time>2026-04-11T10:20:41.999Z</time></trkpt><trkpt lat="43.148749719392164" lon="11.406770041676031"><ele>286.14285714285717</ele><time>2026-04-11T10:20:42.999Z</time></trkpt><trkpt lat="43.14868263216857" lon="11.406788273020258"><ele>286.7142857142857</ele><time>2026-04-11T10:20:43.999Z</time></trkpt><trkpt lat="43.14861573304532" lon="11.406822057320118"><ele>287.2857142857143</ele><time>2026-04-11T10:20:44.999Z</time></trkpt><trkpt lat="43.148553478752355" lon="11.406861536209412"><ele>287.85714285714283</ele><time>2026-04-11T10:20:45.999Z</time></trkpt><trkpt lat="43.14849541735246" lon="11.406911992571738"><ele>288.42857142857144</ele><time>2026-04-11T10:20:46.999Z</time></trkpt><trkpt lat="43.14844463669478" lon="11.406976119440024"><ele>289.0</ele><time>2026-04-11T10:20:47.999Z</time></trkpt><trkpt lat="43.148395420517936" lon="11.407043168946737"><ele>289.0</ele><time>2026-04-11T10:20:48.999Z</time></trkpt><trkpt lat="43.14835100857939" lon="11.407117060484028"><ele>289.0</ele><time>2026-04-11T10:20:49.999Z</time></trkpt><trkpt lat="43.148315728401" lon="11.407199540639388"><ele>289.0</ele><time>2026-04-11T10:20:50.999Z</time></trkpt><trkpt lat="43.148260299415995" lon="11.40726320003292"><ele>289.0</ele><time>2026-04-11T10:20:51.999Z</time></trkpt><trkpt lat="43.14822094480132" lon="11.407343745570735"><ele>289.0</ele><time>2026-04-11T10:20:52.999Z</time></trkpt><trkpt lat="43.14818186320908" lon="11.407426745540178"><ele>289.0</ele><time>2026-04-11T10:20:53.999Z</time></trkpt><trkpt lat="43.14814369163918" lon="11.407509422477604"><ele>289.0</ele><time>2026-04-11T10:20:54.999Z</time></trkpt><trkpt lat="43.14810575857946" lon="11.407595999947166"><ele>289.5</ele><time>2026-04-11T10:20:55.999Z</time></trkpt><trkpt lat="43.14806853934065" lon="11.407681501253283"><ele>290.0</ele><time>2026-04-11T10:20:56.999Z</time></trkpt><trkpt lat="43.14803226038745" lon="11.407764842548639"><ele>290.5</ele><time>2026-04-11T10:20:57.999Z</time></trkpt><trkpt lat="43.14799512028989" lon="11.407853354277266"><ele>291.0</ele><time>2026-04-11T10:20:58.999Z</time></trkpt><trkpt lat="43.14796037918911" lon="11.407943354411286"><ele>291.5</ele><time>2026-04-11T10:20:59.999Z</time></trkpt><trkpt lat="43.147931640618864" lon="11.408046470461988"><ele>292.0</ele><time>2026-04-11T10:21:00.999Z</time></trkpt><trkpt lat="43.14791202517835" lon="11.408153704956824"><ele>291.0</ele><time>2026-04-11T10:21:01.999Z</time></trkpt><trkpt lat="43.147895947875654" lon="11.408264595858444"><ele>290.0</ele><time>2026-04-11T10:21:02.999Z</time></trkpt><trkpt lat="43.14788327394423" lon="11.408378421470756"><ele>289.0</ele><time>2026-04-11T10:21:04Z</time></trkpt><trkpt lat="43.14787151531541" lon="11.408496122256956"><ele>288.0</ele><time>2026-04-11T10:21:05Z</time></trkpt><trkpt lat="43.14785985782835" lon="11.408614743155011"><ele>287.0</ele><time>2026-04-11T10:21:06Z</time></trkpt><trkpt lat="43.14784819072169" lon="11.408735829854692"><ele>286.0</ele><time>2026-04-11T10:21:07Z</time></trkpt><trkpt lat="43.14783555152735" lon="11.408860574513582"><ele>284.8</ele><time>2026-04-11T10:21:08Z</time></trkpt><trkpt lat="43.147820465120965" lon="11.40898757162837"><ele>283.6</ele><time>2026-04-11T10:21:09Z</time></trkpt><trkpt lat="43.14780340304987" lon="11.409121243420095"><ele>282.4</ele><time>2026-04-11T10:21:10Z</time></trkpt><trkpt lat="43.147783191389706" lon="11.409252744947135"><ele>281.2</ele><time>2026-04-11T10:21:11Z</time></trkpt><trkpt lat="43.14776119315727" lon="11.409391700259734"><ele>280.0</ele><time>2026-04-11T10:21:12Z</time></trkpt><trkpt lat="43.14773771051913" lon="11.409533732726672"><ele>278.6</ele><time>2026-04-11T10:21:13Z</time></trkpt><trkpt lat="43.14771319679498" lon="11.409678310000155"><ele>277.2</ele><time>2026-04-11T10:21:14Z</time></trkpt><trkpt lat="43.14768752781473" lon="11.409822944684384"><ele>275.8</ele><time>2026-04-11T10:21:15Z</time></trkpt><trkpt lat="43.147659413895845" lon="11.409967776314396"><ele>274.4</ele><time>2026-04-11T10:21:16Z</time></trkpt><trkpt lat="43.14762418951187" lon="11.410112689646178"><ele>273.0</ele><time>2026-04-11T10:21:17Z</time></trkpt><trkpt lat="43.14756730605272" lon="11.410243829848834"><ele>273.0</ele><time>2026-04-11T10:21:18Z</time></trkpt><trkpt lat="43.14749593296112" lon="11.410366038465565"><ele>273.0</ele><time>2026-04-11T10:21:19Z</time></trkpt><trkpt lat="43.14742217872787" lon="11.410491395800127"><ele>273.0</ele><time>2026-04-11T10:21:20Z</time></trkpt><trkpt lat="43.14731945555088" lon="11.41057550820079"><ele>273.0</ele><time>2026-04-11T10:21:21Z</time></trkpt><trkpt lat="43.14721397498654" lon="11.41064622342755"><ele>271.25</ele><time>2026-04-11T10:21:22Z</time></trkpt><trkpt lat="43.14710605656453" lon="11.4107066414799"><ele>269.5</ele><time>2026-04-11T10:21:23Z</time></trkpt><trkpt lat="43.147000133037324" lon="11.410774428345704"><ele>267.75</ele><time>2026-04-11T10:21:24Z</time></trkpt><trkpt lat="43.146894882510786" lon="11.41084422738849"><ele>266.0</ele><time>2026-04-11T10:21:25Z</time></trkpt><trkpt lat="43.14679654120602" lon="11.410931694101215"><ele>266.0</ele><time>2026-04-11T10:21:26Z</time></trkpt><trkpt lat="43.14670829216551" lon="11.411037561177467"><ele>266.0</ele><time>2026-04-11T10:21:27Z</time></trkpt><trkpt lat="43.14662530104856" lon="11.411151085340006"><ele>266.0</ele><time>2026-04-11T10:21:28Z</time></trkpt><trkpt lat="43.146553379450715" lon="11.411276839461502"><ele>266.0</ele><time>2026-04-11T10:21:29Z</time></trkpt><trkpt lat="43.14646926191456" lon="11.41139034450263"><ele>264.75</ele><time>2026-04-11T10:21:30Z</time></trkpt><trkpt lat="43.14640814800866" lon="11.411528690005241"><ele>263.5</ele><time>2026-04-11T10:21:31Z</time></trkpt><trkpt lat="43.14633070595057" lon="11.41165308822626"><ele>262.25</ele><time>2026-04-11T10:21:31.999Z</time></trkpt><trkpt lat="43.146255840070914" lon="11.411780911617626"><ele>261.0</ele><time>2026-04-11T10:21:32.999Z</time></trkpt><trkpt lat="43.14618070643968" lon="11.411910525130974"><ele>261.0</ele><time>2026-04-11T10:21:33.999Z</time></trkpt><trkpt lat="43.14610595611226" lon="11.41204491613847"><ele>261.0</ele><time>2026-04-11T10:21:34.999Z</time></trkpt><trkpt lat="43.14604348733261" lon="11.412192052054008"><ele>261.0</ele><time>2026-04-11T10:21:35.999Z</time></trkpt><trkpt lat="43.145972666618704" lon="11.412334516113114"><ele>261.0</ele><time>2026-04-11T10:21:36.999Z</time></trkpt><trkpt lat="43.14592705428504" lon="11.412493961400127"><ele>259.0</ele><time>2026-04-11T10:21:37.999Z</time></trkpt><trkpt lat="43.145891814234744" lon="11.412658650883337"><ele>257.0</ele><time>2026-04-11T10:21:38.999Z</time></trkpt><trkpt lat="43.145861646686924" lon="11.412816964918438"><ele>255.0</ele><time>2026-04-11T10:21:39.999Z</time></trkpt><trkpt lat="43.14582831700698" lon="11.412972705874639"><ele>253.0</ele><time>2026-04-11T10:21:40.999Z</time></trkpt><trkpt lat="43.14578859513479" lon="11.413130194902942"><ele>252.75</ele><time>2026-04-11T10:21:41.999Z</time></trkpt><trkpt lat="43.14573641797399" lon="11.413278191128907"><ele>252.5</ele><time>2026-04-11T10:21:42.999Z</time></trkpt><trkpt lat="43.14568520194509" lon="11.41342683024178"><ele>252.25</ele><time>2026-04-11T10:21:43.999Z</time></trkpt><trkpt lat="43.14559643326389" lon="11.413537149399916"><ele>252.0</ele><time>2026-04-11T10:21:44.999Z</time></trkpt><trkpt lat="43.14551331380374" lon="11.413651320087308"><ele>250.5</ele><time>2026-04-11T10:21:45.999Z</time></trkpt><trkpt lat="43.145429461135826" lon="11.41376664566038"><ele>249.0</ele><time>2026-04-11T10:21:46.999Z</time></trkpt><trkpt lat="43.14534826276602" lon="11.413883937273777"><ele>247.5</ele><time>2026-04-11T10:21:47.999Z</time></trkpt><trkpt lat="43.145276158883675" lon="11.414014581302993"><ele>246.0</ele><time>2026-04-11T10:21:48.999Z</time></trkpt><trkpt lat="43.14522709949116" lon="11.414168110448458"><ele>245.0</ele><time>2026-04-11T10:21:49.999Z</time></trkpt><trkpt lat="43.14519746971962" lon="11.41432950909039"><ele>244.0</ele><time>2026-04-11T10:21:50.999Z</time></trkpt><trkpt lat="43.14519799148383" lon="11.414499063748"><ele>243.0</ele><time>2026-04-11T10:21:51.999Z</time></trkpt><trkpt lat="43.14522595860383" lon="11.414666353460662"><ele>242.0</ele><time>2026-04-11T10:21:52.999Z</time></trkpt><trkpt lat="43.145313323736175" lon="11.414802333883742"><ele>240.5</ele><time>2026-04-11T10:21:53.999Z</time></trkpt><trkpt lat="43.14538071663021" lon="11.414942734810571"><ele>239.0</ele><time>2026-04-11T10:21:54.999Z</time></trkpt><trkpt lat="43.14546137530196" lon="11.415066319019378"><ele>237.5</ele><time>2026-04-11T10:21:55.999Z</time></trkpt><trkpt lat="43.14554284605855" lon="11.415186029668677"><ele>236.0</ele><time>2026-04-11T10:21:56.999Z</time></trkpt><trkpt lat="43.14561574702026" lon="11.415311282480268"><ele>236.0</ele><time>2026-04-11T10:21:57.999Z</time></trkpt><trkpt lat="43.14568067767475" lon="11.415446230012703"><ele>236.0</ele><time>2026-04-11T10:21:58.999Z</time></trkpt><trkpt lat="43.14572782907002" lon="11.415591982991657"><ele>236.0</ele><time>2026-04-11T10:21:59.999Z</time></trkpt><trkpt lat="43.14576317166504" lon="11.415746134517107"><ele>236.0</ele><time>2026-04-11T10:22:00.999Z</time></trkpt><trkpt lat="43.145773331844836" lon="11.41590129413867"><ele>236.0</ele><time>2026-04-11T10:22:01.999Z</time></trkpt><trkpt lat="43.14577005454893" lon="11.416058339117676"><ele>236.0</ele><time>2026-04-11T10:22:02.999Z</time></trkpt><trkpt lat="43.145758183931356" lon="11.416222116115982"><ele>236.0</ele><time>2026-04-11T10:22:03.999Z</time></trkpt><trkpt lat="43.14574373630894" lon="11.416386803232923"><ele>236.0</ele><time>2026-04-11T10:22:04.999Z</time></trkpt><trkpt lat="43.14572671930951" lon="11.416553191718677"><ele>232.5</ele><time>2026-04-11T10:22:05.999Z</time></trkpt><trkpt lat="43.1457072143857" lon="11.41672158890278"><ele>229.0</ele><time>2026-04-11T10:22:06.999Z</time></trkpt><trkpt lat="43.14568487505763" lon="11.416890878726294"><ele>225.5</ele><time>2026-04-11T10:22:07.999Z</time></trkpt><trkpt lat="43.14565993845221" lon="11.417061463293166"><ele>222.0</ele><time>2026-04-11T10:22:08.999Z</time></trkpt><trkpt lat="43.14562582177735" lon="11.417230889437713"><ele>220.75</ele><time>2026-04-11T10:22:09.999Z</time></trkpt><trkpt lat="43.1455811724177" lon="11.417392950099448"><ele>219.5</ele><time>2026-04-11T10:22:10.999Z</time></trkpt><trkpt lat="43.14553125091256" lon="11.417559247915882"><ele>218.25</ele><time>2026-04-11T10:22:11.999Z</time></trkpt><trkpt lat="43.145477451837465" lon="11.41772544735751"><ele>217.0</ele><time>2026-04-11T10:22:12.999Z</time></trkpt><trkpt lat="43.14544133481143" lon="11.417900757735268"><ele>216.25</ele><time>2026-04-11T10:22:13.999Z</time></trkpt><trkpt lat="43.145380512276624" lon="11.41806579813476"><ele>215.5</ele><time>2026-04-11T10:22:14.999Z</time></trkpt><trkpt lat="43.145351948969214" lon="11.418248367733913"><ele>214.75</ele><time>2026-04-11T10:22:15.999Z</time></trkpt><trkpt lat="43.145357196791686" lon="11.418434810712082"><ele>214.0</ele><time>2026-04-11T10:22:16.999Z</time></trkpt><trkpt lat="43.14533752021684" lon="11.418615244645935"><ele>214.0</ele><time>2026-04-11T10:22:17.999Z</time></trkpt><trkpt lat="43.145332213519104" lon="11.418796988761198"><ele>214.0</ele><time>2026-04-11T10:22:18.999Z</time></trkpt><trkpt lat="43.14532692974192" lon="11.418973822442013"><ele>214.0</ele><time>2026-04-11T10:22:19.999Z</time></trkpt><trkpt lat="43.14531612573753" lon="11.419150157915057"><ele>214.0</ele><time>2026-04-11T10:22:20.999Z</time></trkpt><trkpt lat="43.14529934660184" lon="11.419325323763475"><ele>213.75</ele><time>2026-04-11T10:22:21.999Z</time></trkpt><trkpt lat="43.145265156436025" lon="11.419491717407958"><ele>213.5</ele><time>2026-04-11T10:22:22.999Z</time></trkpt><trkpt lat="43.14522425597623" lon="11.419662028825385"><ele>213.25</ele><time>2026-04-11T10:22:23.999Z</time></trkpt><trkpt lat="43.14518400807725" lon="11.419829623030369"><ele>213.0</ele><time>2026-04-11T10:22:24.999Z</time></trkpt><trkpt lat="43.145152561974605" lon="11.419999085869085"><ele>212.25</ele><time>2026-04-11T10:22:25.999Z</time></trkpt><trkpt lat="43.14513507726802" lon="11.420167797501517"><ele>211.5</ele><time>2026-04-11T10:22:26.999Z</time></trkpt><trkpt lat="43.14513236672274" lon="11.420333242748512"><ele>210.75</ele><time>2026-04-11T10:22:27.999Z</time></trkpt><trkpt lat="43.145137903791685" lon="11.420492510132561"><ele>210.0</ele><time>2026-04-11T10:22:28.999Z</time></trkpt><trkpt lat="43.145141926682115" lon="11.420644802945441"><ele>209.4</ele><time>2026-04-11T10:22:29.999Z</time></trkpt><trkpt lat="43.14514480920926" lon="11.420781722478623"><ele>208.8</ele><time>2026-04-11T10:22:30.999Z</time></trkpt><trkpt lat="43.14514006315097" lon="11.420902376149947"><ele>208.2</ele><time>2026-04-11T10:22:31.999Z</time></trkpt><trkpt lat="43.14513416978105" lon="11.421011948656105"><ele>207.6</ele><time>2026-04-11T10:22:32.999Z</time></trkpt><trkpt lat="43.14512151957791" lon="11.421120934871164"><ele>207.0</ele><time>2026-04-11T10:22:33.999Z</time></trkpt><trkpt lat="43.14518293298025" lon="11.421290601219344"><ele>206.83333333333334</ele><time>2026-04-11T10:22:34.999Z</time></trkpt><trkpt lat="43.1452178715162" lon="11.42140071636024"><ele>206.66666666666669</ele><time>2026-04-11T10:22:35.999Z</time></trkpt><trkpt lat="43.145250662659635" lon="11.42151140192609"><ele>206.5</ele><time>2026-04-11T10:22:36.999Z</time></trkpt><trkpt lat="43.145280984357626" lon="11.42161375218027"><ele>206.33333333333334</ele><time>2026-04-11T10:22:37.999Z</time></trkpt><trkpt lat="43.14530763462347" lon="11.421701601780399"><ele>206.16666666666669</ele><time>2026-04-11T10:22:38.999Z</time></trkpt><trkpt lat="43.14535857950341" lon="11.421818091619906"><ele>206.0</ele><time>2026-04-11T10:22:40.999Z</time></trkpt><trkpt lat="43.145347527815126" lon="11.421905437878184"><ele>205.99999999999997</ele><time>2026-04-11T10:22:44.999Z</time></trkpt><trkpt lat="43.14525625375771" lon="11.421973351986766"><ele>206.0</ele><time>2026-04-11T10:22:47.999Z</time></trkpt><trkpt lat="43.14527621946311" lon="11.422062985862913"><ele>206.0</ele><time>2026-04-11T10:23:01.999Z</time></trkpt><trkpt lat="43.145254830665024" lon="11.422148472723203"><ele>206.0</ele><time>2026-04-11T10:32:10.999Z</time></trkpt><trkpt lat="43.145187595604845" lon="11.422145216804209"><ele>206.0</ele><time>2026-04-11T10:32:22.999Z</time></trkpt><trkpt lat="43.145260587751075" lon="11.422178934500785"><ele>205.99999999999997</ele><time>2026-04-11T10:38:39.999Z</time></trkpt><trkpt lat="43.14520339371748" lon="11.422136602969422"><ele>206.0</ele><time>2026-04-11T10:40:19.999Z</time></trkpt><trkpt lat="43.14521073504102" lon="11.422222457348818"><ele>206.00000000000003</ele><time>2026-04-11T10:41:21.999Z</time></trkpt><trkpt lat="43.1452327409483" lon="11.422141145367704"><ele>206.0</ele><time>2026-04-11T10:44:46.999Z</time></trkpt><trkpt lat="43.14520181535364" lon="11.421984606332696"><ele>206.0</ele><time>2026-04-11T10:46:16.998Z</time></trkpt><trkpt lat="43.14525023441557" lon="11.421889491409617"><ele>206.0</ele><time>2026-04-11T10:46:20.998Z</time></trkpt><trkpt lat="43.14533509507173" lon="11.421906868514322"><ele>206.00000000000003</ele><time>2026-04-11T10:46:22.998Z</time></trkpt><trkpt lat="43.145390467330444" lon="11.421964627682472"><ele>206.0</ele><time>2026-04-11T10:46:24.998Z</time></trkpt><trkpt lat="43.14541073390358" lon="11.422057480651683"><ele>205.99999999999997</ele><time>2026-04-11T10:46:26.998Z</time></trkpt><trkpt lat="43.145435662079" lon="11.422141757656005"><ele>206.0</ele><time>2026-04-11T10:46:28.998Z</time></trkpt><trkpt lat="43.145477347657994" lon="11.422224264477586"><ele>206.0</ele><time>2026-04-11T10:46:30.998Z</time></trkpt><trkpt lat="43.14550836509674" lon="11.422321689719913"><ele>206.0</ele><time>2026-04-11T10:46:32.998Z</time></trkpt><trkpt lat="43.145543904915826" lon="11.422415737251526"><ele>206.0</ele><time>2026-04-11T10:46:34.998Z</time></trkpt><trkpt lat="43.14557289127094" lon="11.4225097362319"><ele>205.99999999999997</ele><time>2026-04-11T10:46:36.998Z</time></trkpt><trkpt lat="43.14560242195977" lon="11.42260145460834"><ele>206.0</ele><time>2026-04-11T10:46:38.998Z</time></trkpt><trkpt lat="43.1456391406929" lon="11.422693353573834"><ele>206.16666666666669</ele><time>2026-04-11T10:46:40.998Z</time></trkpt><trkpt lat="43.14566986219149" lon="11.422794451863247"><ele>206.33333333333334</ele><time>2026-04-11T10:46:42.998Z</time></trkpt><trkpt lat="43.145708672304444" lon="11.422895971272707"><ele>206.5</ele><time>2026-04-11T10:46:44.998Z</time></trkpt><trkpt lat="43.1457433055193" lon="11.422998285431158"><ele>206.66666666666669</ele><time>2026-04-11T10:46:46.998Z</time></trkpt><trkpt lat="43.14578116342704" lon="11.4230984907462"><ele>206.83333333333334</ele><time>2026-04-11T10:46:48.998Z</time></trkpt><trkpt lat="43.145812084508314" lon="11.42320351568903"><ele>207.0</ele><time>2026-04-11T10:46:50.998Z</time></trkpt><trkpt lat="43.14584885325119" lon="11.423320160396996"><ele>207.0</ele><time>2026-04-11T10:46:52.998Z</time></trkpt><trkpt lat="43.14588782040701" lon="11.423436943967355"><ele>207.0</ele><time>2026-04-11T10:46:54.998Z</time></trkpt><trkpt lat="43.14591110586066" lon="11.423564684792334"><ele>207.0</ele><time>2026-04-11T10:46:56.998Z</time></trkpt><trkpt lat="43.1459334289572" lon="11.423689954935892"><ele>207.0</ele><time>2026-04-11T10:46:58.998Z</time></trkpt><trkpt lat="43.14594536026751" lon="11.42381920353541"><ele>207.0</ele><time>2026-04-11T10:47:00.998Z</time></trkpt><trkpt lat="43.14593356216087" lon="11.423956405338375"><ele>206.8</ele><time>2026-04-11T10:47:02.998Z</time></trkpt><trkpt lat="43.14591321315417" lon="11.42409571514949"><ele>206.6</ele><time>2026-04-11T10:47:04.998Z</time></trkpt><trkpt lat="43.1458770514155" lon="11.424225793752925"><ele>206.4</ele><time>2026-04-11T10:47:06.998Z</time></trkpt><trkpt lat="43.145823884069365" lon="11.424352109891233"><ele>206.20000000000002</ele><time>2026-04-11T10:47:08.998Z</time></trkpt><trkpt lat="43.145783989566404" lon="11.424445176276517"><ele>206.0</ele><time>2026-04-11T10:47:10.998Z</time></trkpt><trkpt lat="43.14572215337415" lon="11.424586063232365"><ele>208.8</ele><time>2026-04-11T10:47:12.998Z</time></trkpt><trkpt lat="43.14565392534012" lon="11.424693211218537"><ele>211.60000000000002</ele><time>2026-04-11T10:47:14.998Z</time></trkpt><trkpt lat="43.145593005497105" lon="11.424808798408828"><ele>214.4</ele><time>2026-04-11T10:47:16.998Z</time></trkpt><trkpt lat="43.14554479263663" lon="11.424929163289738"><ele>217.2</ele><time>2026-04-11T10:47:18.998Z</time></trkpt><trkpt lat="43.14553687376235" lon="11.425074603088293"><ele>220.0</ele><time>2026-04-11T10:47:20.998Z</time></trkpt><trkpt lat="43.14558999593862" lon="11.42521881335072"><ele>220.0</ele><time>2026-04-11T10:47:22.998Z</time></trkpt><trkpt lat="43.14568755971096" lon="11.425311974835095"><ele>220.0</ele><time>2026-04-11T10:47:24.998Z</time></trkpt><trkpt lat="43.14579675463309" lon="11.42537915791694"><ele>220.0</ele><time>2026-04-11T10:47:26.998Z</time></trkpt><trkpt lat="43.14590554269069" lon="11.425438996215142"><ele>220.0</ele><time>2026-04-11T10:47:28.998Z</time></trkpt><trkpt lat="43.146016907280945" lon="11.425504317027812"><ele>218.25</ele><time>2026-04-11T10:47:30.998Z</time></trkpt><trkpt lat="43.146103499543436" lon="11.425600336898265"><ele>216.5</ele><time>2026-04-11T10:47:32.998Z</time></trkpt><trkpt lat="43.146195765412514" lon="11.425708918134815"><ele>214.75</ele><time>2026-04-11T10:47:34.998Z</time></trkpt><trkpt lat="43.14627871363642" lon="11.425814133588757"><ele>213.0</ele><time>2026-04-11T10:47:36.998Z</time></trkpt><trkpt lat="43.14636805348844" lon="11.425918511455434"><ele>213.0</ele><time>2026-04-11T10:47:38.998Z</time></trkpt><trkpt lat="43.146448455883274" lon="11.426017848295274"><ele>213.0</ele><time>2026-04-11T10:47:40.998Z</time></trkpt><trkpt lat="43.14654576635301" lon="11.426100308698517"><ele>213.0</ele><time>2026-04-11T10:47:42.998Z</time></trkpt><trkpt lat="43.1466397633981" lon="11.426193359233345"><ele>213.0</ele><time>2026-04-11T10:47:44.998Z</time></trkpt><trkpt lat="43.14673312484872" lon="11.42627847898421"><ele>212.75</ele><time>2026-04-11T10:47:46.998Z</time></trkpt><trkpt lat="43.14683040746401" lon="11.426352541778778"><ele>212.5</ele><time>2026-04-11T10:47:48.998Z</time></trkpt><trkpt lat="43.1469283302798" lon="11.426416029631254"><ele>212.25</ele><time>2026-04-11T10:47:50.998Z</time></trkpt><trkpt lat="43.147029683084156" lon="11.42648838098373"><ele>212.0</ele><time>2026-04-11T10:47:52.998Z</time></trkpt><trkpt lat="43.147127092066675" lon="11.426578658939746"><ele>212.0</ele><time>2026-04-11T10:47:54.998Z</time></trkpt><trkpt lat="43.14721630671113" lon="11.426675865655591"><ele>212.0</ele><time>2026-04-11T10:47:56.998Z</time></trkpt><trkpt lat="43.14729942379268" lon="11.426782899436802"><ele>212.0</ele><time>2026-04-11T10:47:58.998Z</time></trkpt><trkpt lat="43.14737800350457" lon="11.42689387135953"><ele>212.0</ele><time>2026-04-11T10:48:00.998Z</time></trkpt><trkpt lat="43.14746884311443" lon="11.426996523296621"><ele>211.33333333333334</ele><time>2026-04-11T10:48:02.998Z</time></trkpt><trkpt lat="43.14756850950249" lon="11.427099845124793"><ele>210.66666666666669</ele><time>2026-04-11T10:48:04.998Z</time></trkpt><trkpt lat="43.147684888875496" lon="11.427165404682768"><ele>210.0</ele><time>2026-04-11T10:48:06.998Z</time></trkpt><trkpt lat="43.14774629311235" lon="11.42719204886758"><ele>209.33333333333331</ele><time>2026-04-11T10:48:07.998Z</time></trkpt><trkpt lat="43.14780843948664" lon="11.427214773334084"><ele>208.66666666666666</ele><time>2026-04-11T10:48:08.998Z</time></trkpt><trkpt lat="43.1478717826134" lon="11.427234647272138"><ele>208.0</ele><time>2026-04-11T10:48:09.998Z</time></trkpt><trkpt lat="43.147990612698024" lon="11.427264238033834"><ele>208.0</ele><time>2026-04-11T10:48:11.998Z</time></trkpt><trkpt lat="43.14810905869503" lon="11.427300537357713"><ele>208.0</ele><time>2026-04-11T10:48:13.998Z</time></trkpt><trkpt lat="43.14822495852174" lon="11.427353905459025"><ele>208.0</ele><time>2026-04-11T10:48:15.998Z</time></trkpt><trkpt lat="43.14834170974744" lon="11.427410586074012"><ele>208.0</ele><time>2026-04-11T10:48:17.998Z</time></trkpt><trkpt lat="43.14840026292102" lon="11.427444846791827"><ele>208.0</ele><time>2026-04-11T10:48:18.998Z</time></trkpt><trkpt lat="43.14846259808168" lon="11.42747817923165"><ele>207.57142857142856</ele><time>2026-04-11T10:48:19.998Z</time></trkpt><trkpt lat="43.14852589733541" lon="11.427508490157464"><ele>207.14285714285717</ele><time>2026-04-11T10:48:20.998Z</time></trkpt><trkpt lat="43.14859088088312" lon="11.427542939349522"><ele>206.71428571428572</ele><time>2026-04-11T10:48:21.998Z</time></trkpt><trkpt lat="43.148655235916806" lon="11.42757979350125"><ele>206.28571428571428</ele><time>2026-04-11T10:48:22.998Z</time></trkpt><trkpt lat="43.1487226619505" lon="11.427614262363052"><ele>205.85714285714283</ele><time>2026-04-11T10:48:23.998Z</time></trkpt><trkpt lat="43.14878958373017" lon="11.427648677195174"><ele>205.42857142857144</ele><time>2026-04-11T10:48:24.998Z</time></trkpt><trkpt lat="43.14885922642535" lon="11.427687328405154"><ele>205.0</ele><time>2026-04-11T10:48:25.998Z</time></trkpt><trkpt lat="43.14893084716269" lon="11.427724923130121"><ele>204.99999999999997</ele><time>2026-04-11T10:48:26.998Z</time></trkpt><trkpt lat="43.14900441706103" lon="11.427763463359842"><ele>205.0</ele><time>2026-04-11T10:48:27.998Z</time></trkpt><trkpt lat="43.14908005216754" lon="11.427802908740443"><ele>205.0</ele><time>2026-04-11T10:48:28.998Z</time></trkpt><trkpt lat="43.14915396951165" lon="11.427846848545423"><ele>205.0</ele><time>2026-04-11T10:48:29.998Z</time></trkpt><trkpt lat="43.149226429098306" lon="11.427902761660611"><ele>204.99999999999997</ele><time>2026-04-11T10:48:30.998Z</time></trkpt><trkpt lat="43.14929699430082" lon="11.427962765068532"><ele>205.0</ele><time>2026-04-11T10:48:31.998Z</time></trkpt><trkpt lat="43.14936566701567" lon="11.428028504840844"><ele>203.16666666666666</ele><time>2026-04-11T10:48:32.998Z</time></trkpt><trkpt lat="43.149432750525136" lon="11.428098524531432"><ele>201.33333333333331</ele><time>2026-04-11T10:48:33.998Z</time></trkpt><trkpt lat="43.149496357770516" lon="11.428171526043961"><ele>199.5</ele><time>2026-04-11T10:48:34.998Z</time></trkpt><trkpt lat="43.14955825705137" lon="11.428249456942806"><ele>197.66666666666669</ele><time>2026-04-11T10:48:35.998Z</time></trkpt><trkpt lat="43.149622855169554" lon="11.4283238753299"><ele>195.83333333333334</ele><time>2026-04-11T10:48:36.998Z</time></trkpt><trkpt lat="43.1496919719264" lon="11.428394531662859"><ele>194.0</ele><time>2026-04-11T10:48:37.998Z</time></trkpt><trkpt lat="43.14976239613112" lon="11.428460581049599"><ele>194.00000000000003</ele><time>2026-04-11T10:48:38.998Z</time></trkpt><trkpt lat="43.14983330695048" lon="11.428526429784254"><ele>194.0</ele><time>2026-04-11T10:48:39.998Z</time></trkpt><trkpt lat="43.149902959454856" lon="11.42859519340746"><ele>194.0</ele><time>2026-04-11T10:48:40.998Z</time></trkpt><trkpt lat="43.14996796364725" lon="11.428669957870351"><ele>194.0</ele><time>2026-04-11T10:48:41.998Z</time></trkpt><trkpt lat="43.15002717499296" lon="11.428753941453845"><ele>194.00000000000003</ele><time>2026-04-11T10:48:42.998Z</time></trkpt><trkpt lat="43.15008596897631" lon="11.428841899345098"><ele>194.0</ele><time>2026-04-11T10:48:43.998Z</time></trkpt><trkpt lat="43.150141053650685" lon="11.428935902416203"><ele>193.16666666666669</ele><time>2026-04-11T10:48:44.998Z</time></trkpt><trkpt lat="43.1501882102496" lon="11.429037623908338"><ele>192.33333333333334</ele><time>2026-04-11T10:48:45.998Z</time></trkpt><trkpt lat="43.15023689001505" lon="11.429140985046478"><ele>191.5</ele><time>2026-04-11T10:48:46.998Z</time></trkpt><trkpt lat="43.15028992859952" lon="11.429239638083388"><ele>190.66666666666669</ele><time>2026-04-11T10:48:47.999Z</time></trkpt><trkpt lat="43.15035363670684" lon="11.429328531184998"><ele>189.83333333333334</ele><time>2026-04-11T10:48:48.999Z</time></trkpt><trkpt lat="43.15041846764057" lon="11.42941698218702"><ele>189.0</ele><time>2026-04-11T10:48:49.999Z</time></trkpt><trkpt lat="43.15048329283842" lon="11.429507224236287"><ele>189.0</ele><time>2026-04-11T10:48:50.999Z</time></trkpt><trkpt lat="43.15054890702769" lon="11.429596070998633"><ele>189.0</ele><time>2026-04-11T10:48:51.999Z</time></trkpt><trkpt lat="43.150616242719934" lon="11.429678861682412"><ele>189.0</ele><time>2026-04-11T10:48:52.999Z</time></trkpt><trkpt lat="43.150684600950655" lon="11.429755055889537"><ele>189.0</ele><time>2026-04-11T10:48:53.999Z</time></trkpt><trkpt lat="43.150757540887824" lon="11.429827383631698"><ele>189.0</ele><time>2026-04-11T10:48:54.999Z</time></trkpt><trkpt lat="43.15083786698196" lon="11.429888827549307"><ele>189.2</ele><time>2026-04-11T10:48:55.999Z</time></trkpt><trkpt lat="43.1509175790746" lon="11.42995123485245"><ele>189.39999999999998</ele><time>2026-04-11T10:48:56.999Z</time></trkpt><trkpt lat="43.150989152286975" lon="11.430027917860437"><ele>189.6</ele><time>2026-04-11T10:48:57.999Z</time></trkpt><trkpt lat="43.151051526824745" lon="11.430124210826534"><ele>189.8</ele><time>2026-04-11T10:48:58.999Z</time></trkpt><trkpt lat="43.15109938504364" lon="11.430239341377465"><ele>190.0</ele><time>2026-04-11T10:48:59.999Z</time></trkpt><trkpt lat="43.1511332292873" lon="11.430360684102125"><ele>188.6</ele><time>2026-04-11T10:49:00.999Z</time></trkpt><trkpt lat="43.15114457370852" lon="11.430489950827575"><ele>187.2</ele><time>2026-04-11T10:49:01.999Z</time></trkpt><trkpt lat="43.15113513952813" lon="11.430622188209014"><ele>185.8</ele><time>2026-04-11T10:49:02.999Z</time></trkpt><trkpt lat="43.15112162524077" lon="11.430750433421851"><ele>184.4</ele><time>2026-04-11T10:49:03.999Z</time></trkpt><trkpt lat="43.15110628490082" lon="11.430881465967289"><ele>183.0</ele><time>2026-04-11T10:49:04.999Z</time></trkpt><trkpt lat="43.151092412059285" lon="11.43101260549205"><ele>183.0</ele><time>2026-04-11T10:49:05.999Z</time></trkpt><trkpt lat="43.151081915455904" lon="11.431147989444877"><ele>183.0</ele><time>2026-04-11T10:49:06.999Z</time></trkpt><trkpt lat="43.15107360428214" lon="11.431281662265812"><ele>183.0</ele><time>2026-04-11T10:49:07.999Z</time></trkpt><trkpt lat="43.151069963802826" lon="11.431415204038917"><ele>183.0</ele><time>2026-04-11T10:49:08.999Z</time></trkpt><trkpt lat="43.15107266307315" lon="11.43154749025205"><ele>183.0</ele><time>2026-04-11T10:49:09.999Z</time></trkpt><trkpt lat="43.151083183213025" lon="11.431680321295898"><ele>181.8</ele><time>2026-04-11T10:49:10.999Z</time></trkpt><trkpt lat="43.151102048141226" lon="11.431810506545673"><ele>180.60000000000002</ele><time>2026-04-11T10:49:11.999Z</time></trkpt><trkpt lat="43.15112006916402" lon="11.431939841985704"><ele>179.39999999999998</ele><time>2026-04-11T10:49:12.999Z</time></trkpt><trkpt lat="43.151130901299354" lon="11.432067170926548"><ele>178.2</ele><time>2026-04-11T10:49:13.999Z</time></trkpt><trkpt lat="43.1511265790177" lon="11.432196735821913"><ele>177.0</ele><time>2026-04-11T10:49:14.999Z</time></trkpt><trkpt lat="43.15111074918349" lon="11.43231644934793"><ele>176.5</ele><time>2026-04-11T10:49:15.999Z</time></trkpt><trkpt lat="43.151095356664484" lon="11.43243813063717"><ele>176.0</ele><time>2026-04-11T10:49:16.999Z</time></trkpt><trkpt lat="43.15109340444536" lon="11.432559366943789"><ele>175.5</ele><time>2026-04-11T10:49:17.999Z</time></trkpt><trkpt lat="43.15110635259697" lon="11.43267916238802"><ele>175.0</ele><time>2026-04-11T10:49:18.999Z</time></trkpt><trkpt lat="43.15113893518464" lon="11.432795917794618"><ele>174.5</ele><time>2026-04-11T10:49:19.999Z</time></trkpt><trkpt lat="43.151185583397464" lon="11.432898807819136"><ele>174.0</ele><time>2026-04-11T10:49:20.999Z</time></trkpt><trkpt lat="43.15124371431525" lon="11.432995759019052"><ele>173.2</ele><time>2026-04-11T10:49:21.999Z</time></trkpt><trkpt lat="43.15130812036377" lon="11.433085142865515"><ele>172.39999999999998</ele><time>2026-04-11T10:49:22.999Z</time></trkpt><trkpt lat="43.151374845448686" lon="11.433172181641062"><ele>171.6</ele><time>2026-04-11T10:49:23.999Z</time></trkpt><trkpt lat="43.151445480448125" lon="11.433251223273457"><ele>170.8</ele><time>2026-04-11T10:49:24.999Z</time></trkpt><trkpt lat="43.15152108603274" lon="11.433324712127574"><ele>170.0</ele><time>2026-04-11T10:49:25.999Z</time></trkpt><trkpt lat="43.151596961843836" lon="11.433393646786634"><ele>171.33333333333331</ele><time>2026-04-11T10:49:26.999Z</time></trkpt><trkpt lat="43.151672848349186" lon="11.433455619559597"><ele>172.66666666666666</ele><time>2026-04-11T10:49:27.999Z</time></trkpt><trkpt lat="43.15175304716069" lon="11.433506026368244"><ele>174.0</ele><time>2026-04-11T10:49:28.999Z</time></trkpt><trkpt lat="43.15183983863324" lon="11.433536038290205"><ele>175.33333333333334</ele><time>2026-04-11T10:49:29.999Z</time></trkpt><trkpt lat="43.1519300804236" lon="11.433540707104845"><ele>176.66666666666669</ele><time>2026-04-11T10:49:30.999Z</time></trkpt><trkpt lat="43.15201930139761" lon="11.433520171649507"><ele>178.0</ele><time>2026-04-11T10:49:31.999Z</time></trkpt><trkpt lat="43.15210445260007" lon="11.433474526928745"><ele>178.0</ele><time>2026-04-11T10:49:32.999Z</time></trkpt><trkpt lat="43.152179110308346" lon="11.433401943643203"><ele>178.0</ele><time>2026-04-11T10:49:33.999Z</time></trkpt><trkpt lat="43.152249995370646" lon="11.433320015110587"><ele>178.0</ele><time>2026-04-11T10:49:34.999Z</time></trkpt><trkpt lat="43.15231707644879" lon="11.433236309744201"><ele>178.0</ele><time>2026-04-11T10:49:35.999Z</time></trkpt><trkpt lat="43.15238590206601" lon="11.433151294430113"><ele>178.0</ele><time>2026-04-11T10:49:36.999Z</time></trkpt><trkpt lat="43.15245497109282" lon="11.433063397923418"><ele>178.33333333333334</ele><time>2026-04-11T10:49:37.999Z</time></trkpt><trkpt lat="43.15252256120601" lon="11.432986943353809"><ele>178.66666666666669</ele><time>2026-04-11T10:49:38.999Z</time></trkpt><trkpt lat="43.152592569507185" lon="11.432947427543873"><ele>179.0</ele><time>2026-04-11T10:49:39.999Z</time></trkpt><trkpt lat="43.15267363199305" lon="11.432978443705911"><ele>179.33333333333334</ele><time>2026-04-11T10:49:40.999Z</time></trkpt><trkpt lat="43.152736914320485" lon="11.433031339407908"><ele>179.66666666666666</ele><time>2026-04-11T10:49:41.999Z</time></trkpt><trkpt lat="43.152773829550895" lon="11.433112894275713"><ele>180.0</ele><time>2026-04-11T10:49:42.999Z</time></trkpt><trkpt lat="43.15278119223501" lon="11.43320469617025"><ele>178.5</ele><time>2026-04-11T10:49:43.999Z</time></trkpt><trkpt lat="43.15275382732341" lon="11.433293787099656"><ele>177.0</ele><time>2026-04-11T10:49:44.999Z</time></trkpt><trkpt lat="43.152706128194005" lon="11.433370624764763"><ele>175.5</ele><time>2026-04-11T10:49:45.999Z</time></trkpt><trkpt lat="43.15266121094393" lon="11.433455455136441"><ele>174.0</ele><time>2026-04-11T10:49:46.999Z</time></trkpt><trkpt lat="43.1525961537518" lon="11.433526111763204"><ele>172.5</ele><time>2026-04-11T10:49:47.999Z</time></trkpt><trkpt lat="43.15253009162776" lon="11.433590951599621"><ele>171.0</ele><time>2026-04-11T10:49:48.999Z</time></trkpt><trkpt lat="43.15246358619004" lon="11.433662594495381"><ele>171.0</ele><time>2026-04-11T10:49:49.999Z</time></trkpt><trkpt lat="43.152399429935535" lon="11.433738877835086"><ele>171.0</ele><time>2026-04-11T10:49:50.999Z</time></trkpt><trkpt lat="43.152335762443535" lon="11.433818248028546"><ele>171.0</ele><time>2026-04-11T10:49:51.999Z</time></trkpt><trkpt lat="43.15227112937989" lon="11.433899252247132"><ele>171.0</ele><time>2026-04-11T10:49:52.999Z</time></trkpt><trkpt lat="43.15220557354523" lon="11.433981145407568"><ele>171.0</ele><time>2026-04-11T10:49:53.999Z</time></trkpt><trkpt lat="43.15214004453805" lon="11.43406216926968"><ele>171.0</ele><time>2026-04-11T10:49:54.999Z</time></trkpt><trkpt lat="43.152069256024134" lon="11.434141498740804"><ele>170.4</ele><time>2026-04-11T10:49:55.999Z</time></trkpt><trkpt lat="43.151999195828196" lon="11.434224367653878"><ele>169.8</ele><time>2026-04-11T10:49:56.999Z</time></trkpt><trkpt lat="43.151928829644994" lon="11.43430993738372"><ele>169.20000000000002</ele><time>2026-04-11T10:49:57.999Z</time></trkpt><trkpt lat="43.15185576820593" lon="11.43439666144383"><ele>168.60000000000002</ele><time>2026-04-11T10:49:58.999Z</time></trkpt><trkpt lat="43.151785686540904" lon="11.434483828620026"><ele>168.0</ele><time>2026-04-11T10:49:59.999Z</time></trkpt><trkpt lat="43.151711921260755" lon="11.434572795633686"><ele>166.4</ele><time>2026-04-11T10:50:00.999Z</time></trkpt><trkpt lat="43.151642511401825" lon="11.434669330936833"><ele>164.8</ele><time>2026-04-11T10:50:01.999Z</time></trkpt><trkpt lat="43.151582935817025" lon="11.434778371112813"><ele>163.2</ele><time>2026-04-11T10:50:02.999Z</time></trkpt><trkpt lat="43.151553235925334" lon="11.434915023714591"><ele>161.6</ele><time>2026-04-11T10:50:03.999Z</time></trkpt><trkpt lat="43.15153800929572" lon="11.435056228336999"><ele>160.0</ele><time>2026-04-11T10:50:04.999Z</time></trkpt><trkpt lat="43.15153648047476" lon="11.435194629493076"><ele>159.8</ele><time>2026-04-11T10:50:05.999Z</time></trkpt><trkpt lat="43.15155371068393" lon="11.435334241944954"><ele>159.6</ele><time>2026-04-11T10:50:06.999Z</time></trkpt><trkpt lat="43.15157622990662" lon="11.43546851825072"><ele>159.4</ele><time>2026-04-11T10:50:07.999Z</time></trkpt><trkpt lat="43.15159539229242" lon="11.435601010127593"><ele>159.2</ele><time>2026-04-11T10:50:08.999Z</time></trkpt><trkpt lat="43.15161505129975" lon="11.435727676537773"><ele>159.0</ele><time>2026-04-11T10:50:09.999Z</time></trkpt><trkpt lat="43.151634577864954" lon="11.435851755892736"><ele>158.66666666666666</ele><time>2026-04-11T10:50:10.999Z</time></trkpt><trkpt lat="43.151656065393105" lon="11.435973960277735"><ele>158.33333333333334</ele><time>2026-04-11T10:50:11.999Z</time></trkpt><trkpt lat="43.15167650998489" lon="11.436093611764846"><ele>158.0</ele><time>2026-04-11T10:50:12.999Z</time></trkpt><trkpt lat="43.15169215670859" lon="11.43621399675802"><ele>157.66666666666669</ele><time>2026-04-11T10:50:13.999Z</time></trkpt><trkpt lat="43.151707791033544" lon="11.436334633411349"><ele>157.33333333333334</ele><time>2026-04-11T10:50:14.999Z</time></trkpt><trkpt lat="43.15172635383527" lon="11.436450297580004"><ele>157.0</ele><time>2026-04-11T10:50:15.999Z</time></trkpt><trkpt lat="43.151744656359234" lon="11.436563483291502"><ele>156.83333333333334</ele><time>2026-04-11T10:50:16.999Z</time></trkpt><trkpt lat="43.1517596299805" lon="11.436676167618387"><ele>156.66666666666669</ele><time>2026-04-11T10:50:17.999Z</time></trkpt><trkpt lat="43.151776738508126" lon="11.436789580359138"><ele>156.5</ele><time>2026-04-11T10:50:18.999Z</time></trkpt><trkpt lat="43.151792624364795" lon="11.436900569792192"><ele>156.33333333333334</ele><time>2026-04-11T10:50:19.999Z</time></trkpt><trkpt lat="43.15180954000654" lon="11.437008037342572"><ele>156.16666666666666</ele><time>2026-04-11T10:50:20.999Z</time></trkpt><trkpt lat="43.15182471963761" lon="11.437114533797663"><ele>156.0</ele><time>2026-04-11T10:50:21.999Z</time></trkpt><trkpt lat="43.15184122484724" lon="11.437218437006313"><ele>156.0</ele><time>2026-04-11T10:50:22.999Z</time></trkpt><trkpt lat="43.15185591794845" lon="11.437322308664413"><ele>156.0</ele><time>2026-04-11T10:50:23.999Z</time></trkpt><trkpt lat="43.15187208640223" lon="11.437423089680859"><ele>156.0</ele><time>2026-04-11T10:50:24.999Z</time></trkpt><trkpt lat="43.151887427437885" lon="11.437522906596003"><ele>156.0</ele><time>2026-04-11T10:50:25.998Z</time></trkpt><trkpt lat="43.151904672072234" lon="11.437617879783586"><ele>156.0</ele><time>2026-04-11T10:50:26.998Z</time></trkpt><trkpt lat="43.15191815807037" lon="11.437713198462788"><ele>156.0</ele><time>2026-04-11T10:50:27.998Z</time></trkpt><trkpt lat="43.151933476436085" lon="11.437806067762226"><ele>156.0</ele><time>2026-04-11T10:50:28.998Z</time></trkpt><trkpt lat="43.15195068119762" lon="11.437896192683361"><ele>156.71428571428572</ele><time>2026-04-11T10:50:29.998Z</time></trkpt><trkpt lat="43.15196513484427" lon="11.437986121696177"><ele>157.42857142857142</ele><time>2026-04-11T10:50:30.998Z</time></trkpt><trkpt lat="43.151978148701154" lon="11.43807412435283"><ele>158.14285714285714</ele><time>2026-04-11T10:50:31.998Z</time></trkpt><trkpt lat="43.151990362046924" lon="11.438164048250226"><ele>158.85714285714286</ele><time>2026-04-11T10:50:32.998Z</time></trkpt><trkpt lat="43.15199552037627" lon="11.438253905822483"><ele>159.57142857142856</ele><time>2026-04-11T10:50:33.998Z</time></trkpt><trkpt lat="43.15199849320781" lon="11.438342665761411"><ele>160.28571428571428</ele><time>2026-04-11T10:50:34.998Z</time></trkpt><trkpt lat="43.15199320382012" lon="11.43842948647122"><ele>161.0</ele><time>2026-04-11T10:50:35.998Z</time></trkpt><trkpt lat="43.15196524912731" lon="11.438593096651001"><ele>161.0</ele><time>2026-04-11T10:50:37.999Z</time></trkpt><trkpt lat="43.15191390042842" lon="11.438737564181922"><ele>161.0</ele><time>2026-04-11T10:50:39.999Z</time></trkpt><trkpt lat="43.151844064763495" lon="11.43884229466205"><ele>161.0</ele><time>2026-04-11T10:50:41.999Z</time></trkpt><trkpt lat="43.15178452138058" lon="11.438947856709609"><ele>161.0</ele><time>2026-04-11T10:50:43.999Z</time></trkpt><trkpt lat="43.1517240159987" lon="11.439043818383983"><ele>161.0</ele><time>2026-04-11T10:50:45.999Z</time></trkpt><trkpt lat="43.15165849246213" lon="11.43913366453924"><ele>161.20000000000002</ele><time>2026-04-11T10:50:47.999Z</time></trkpt><trkpt lat="43.15160323739612" lon="11.439230885957272"><ele>161.4</ele><time>2026-04-11T10:50:49.999Z</time></trkpt><trkpt lat="43.15151205781793" lon="11.439368236292225"><ele>161.6</ele><time>2026-04-11T10:50:52.999Z</time></trkpt><trkpt lat="43.15146135608735" lon="11.43944369047945"><ele>161.8</ele><time>2026-04-11T10:50:55.999Z</time></trkpt><trkpt lat="43.151394181703466" lon="11.439593381779341"><ele>162.0</ele><time>2026-04-11T10:50:57.999Z</time></trkpt><trkpt lat="43.15134310560874" lon="11.439692705363813"><ele>162.0</ele><time>2026-04-11T10:50:59.999Z</time></trkpt><trkpt lat="43.15128909104959" lon="11.439789462767498"><ele>162.0</ele><time>2026-04-11T10:51:01.999Z</time></trkpt><trkpt lat="43.15123864813135" lon="11.439894840650679"><ele>162.0</ele><time>2026-04-11T10:51:03.999Z</time></trkpt><trkpt lat="43.15118531027054" lon="11.439997056720571"><ele>162.0</ele><time>2026-04-11T10:51:05.999Z</time></trkpt><trkpt lat="43.15114272015643" lon="11.440111657498717"><ele>162.0</ele><time>2026-04-11T10:51:07.999Z</time></trkpt><trkpt lat="43.15109820121063" lon="11.440225104846606"><ele>162.0</ele><time>2026-04-11T10:51:09.999Z</time></trkpt><trkpt lat="43.151059772460556" lon="11.440338378905464"><ele>162.0</ele><time>2026-04-11T10:51:11.999Z</time></trkpt><trkpt lat="43.151013981236055" lon="11.440436315065021"><ele>162.0</ele><time>2026-04-11T10:51:13.999Z</time></trkpt><trkpt lat="43.15097509588747" lon="11.440558954848793"><ele>162.0</ele><time>2026-04-11T10:51:15.999Z</time></trkpt><trkpt lat="43.15091958034545" lon="11.44065874179389"><ele>162.0</ele><time>2026-04-11T10:51:17.999Z</time></trkpt><trkpt lat="43.15083802298576" lon="11.440766019928613"><ele>162.2</ele><time>2026-04-11T10:51:19.999Z</time></trkpt><trkpt lat="43.15075258963424" lon="11.440846096019687"><ele>162.39999999999998</ele><time>2026-04-11T10:51:21.999Z</time></trkpt><trkpt lat="43.150656525269035" lon="11.440896244480431"><ele>162.60000000000002</ele><time>2026-04-11T10:51:23.999Z</time></trkpt><trkpt lat="43.150571071900785" lon="11.440960242515988"><ele>162.8</ele><time>2026-04-11T10:51:25.999Z</time></trkpt><trkpt lat="43.15048656132989" lon="11.441026533421786"><ele>163.0</ele><time>2026-04-11T10:51:27.999Z</time></trkpt><trkpt lat="43.15040746138543" lon="11.441116539445598"><ele>163.0</ele><time>2026-04-11T10:51:29.999Z</time></trkpt><trkpt lat="43.150322123037256" lon="11.441182222988699"><ele>163.0</ele><time>2026-04-11T10:51:31.999Z</time></trkpt><trkpt lat="43.15023543937976" lon="11.441243349025665"><ele>163.0</ele><time>2026-04-11T10:51:33.999Z</time></trkpt><trkpt lat="43.15015675667134" lon="11.441309418414525"><ele>163.0</ele><time>2026-04-11T10:51:35.999Z</time></trkpt><trkpt lat="43.15006656062011" lon="11.441380104405045"><ele>163.0</ele><time>2026-04-11T10:51:37.999Z</time></trkpt><trkpt lat="43.14998114491247" lon="11.441442181082381"><ele>163.0</ele><time>2026-04-11T10:51:39.999Z</time></trkpt><trkpt lat="43.14989456035197" lon="11.441512114579947"><ele>163.0</ele><time>2026-04-11T10:51:41.999Z</time></trkpt><trkpt lat="43.149807471875846" lon="11.441585962413468"><ele>163.0</ele><time>2026-04-11T10:51:43.999Z</time></trkpt><trkpt lat="43.14971773580074" lon="11.441664054946184"><ele>163.0</ele><time>2026-04-11T10:51:45.999Z</time></trkpt><trkpt lat="43.149622525334614" lon="11.441730786861738"><ele>163.0</ele><time>2026-04-11T10:51:47.999Z</time></trkpt><trkpt lat="43.149528543227824" lon="11.441800874610488"><ele>163.0</ele><time>2026-04-11T10:51:49.999Z</time></trkpt><trkpt lat="43.14943572572717" lon="11.441878043544126"><ele>163.0</ele><time>2026-04-11T10:51:51.999Z</time></trkpt><trkpt lat="43.14934407769717" lon="11.441956142587077"><ele>163.0</ele><time>2026-04-11T10:51:53.999Z</time></trkpt><trkpt lat="43.14925248222946" lon="11.442030622543061"><ele>163.0</ele><time>2026-04-11T10:51:55.999Z</time></trkpt><trkpt lat="43.14915796411713" lon="11.44210417771508"><ele>163.0</ele><time>2026-04-11T10:51:57.999Z</time></trkpt><trkpt lat="43.14906566626889" lon="11.44218088526288"><ele>163.2</ele><time>2026-04-11T10:51:59.999Z</time></trkpt><trkpt lat="43.148969836842824" lon="11.442260332596582"><ele>163.4</ele><time>2026-04-11T10:52:01.999Z</time></trkpt><trkpt lat="43.148876727316456" lon="11.442338828148152"><ele>163.6</ele><time>2026-04-11T10:52:03.999Z</time></trkpt><trkpt lat="43.1487870320745" lon="11.44242338483979"><ele>163.79999999999998</ele><time>2026-04-11T10:52:05.999Z</time></trkpt><trkpt lat="43.14870641618096" lon="11.442520680410881"><ele>164.0</ele><time>2026-04-11T10:52:07.999Z</time></trkpt><trkpt lat="43.148627071837964" lon="11.442621001322033"><ele>164.0</ele><time>2026-04-11T10:52:09.999Z</time></trkpt><trkpt lat="43.148558083697694" lon="11.442733819183664"><ele>164.0</ele><time>2026-04-11T10:52:11.999Z</time></trkpt><trkpt lat="43.148493211893566" lon="11.44283259202993"><ele>164.0</ele><time>2026-04-11T10:52:13.999Z</time></trkpt><trkpt lat="43.14841647539039" lon="11.442950546847984"><ele>164.0</ele><time>2026-04-11T10:52:15.999Z</time></trkpt><trkpt lat="43.148345745326715" lon="11.44305952844611"><ele>164.0</ele><time>2026-04-11T10:52:17.999Z</time></trkpt><trkpt lat="43.14827169678671" lon="11.443168421098695"><ele>163.75</ele><time>2026-04-11T10:52:19.999Z</time></trkpt><trkpt lat="43.148195442031394" lon="11.443282898619602"><ele>163.5</ele><time>2026-04-11T10:52:21.999Z</time></trkpt><trkpt lat="43.14811569006505" lon="11.44340317195832"><ele>163.25</ele><time>2026-04-11T10:52:23.999Z</time></trkpt><trkpt lat="43.1480519001984" lon="11.443533539893423"><ele>163.0</ele><time>2026-04-11T10:52:25.999Z</time></trkpt><trkpt lat="43.14801776653935" lon="11.44368436919504"><ele>163.25</ele><time>2026-04-11T10:52:27.999Z</time></trkpt><trkpt lat="43.1480191400658" lon="11.443841566314973"><ele>163.5</ele><time>2026-04-11T10:52:29.999Z</time></trkpt><trkpt lat="43.148059116359654" lon="11.443991588123673"><ele>163.75</ele><time>2026-04-11T10:52:31.999Z</time></trkpt><trkpt lat="43.14811821427533" lon="11.444133123308841"><ele>164.0</ele><time>2026-04-11T10:52:33.999Z</time></trkpt><trkpt lat="43.1481732558052" lon="11.44427609737293"><ele>164.0</ele><time>2026-04-11T10:52:35.999Z</time></trkpt><trkpt lat="43.1481922097036" lon="11.44435895621012"><ele>164.0</ele><time>2026-04-11T10:52:36.999Z</time></trkpt><trkpt lat="43.14820506945804" lon="11.444526820596659"><ele>164.0</ele><time>2026-04-11T10:52:38.999Z</time></trkpt><trkpt lat="43.14816539555935" lon="11.444680097581703"><ele>164.0</ele><time>2026-04-11T10:52:40.999Z</time></trkpt><trkpt lat="43.14811575464177" lon="11.444743054778879"><ele>164.0</ele><time>2026-04-11T10:52:41.999Z</time></trkpt><trkpt lat="43.14800705251761" lon="11.444818756355852"><ele>165.75</ele><time>2026-04-11T10:52:43.999Z</time></trkpt><trkpt lat="43.14788918298399" lon="11.444788637723345"><ele>167.5</ele><time>2026-04-11T10:52:45.999Z</time></trkpt><trkpt lat="43.14778346970866" lon="11.444748307588542"><ele>169.25</ele><time>2026-04-11T10:52:47.999Z</time></trkpt><trkpt lat="43.14767767838987" lon="11.444693262831931"><ele>171.0</ele><time>2026-04-11T10:52:49.999Z</time></trkpt><trkpt lat="43.14756584043314" lon="11.44463996001458"><ele>169.25</ele><time>2026-04-11T10:52:51.999Z</time></trkpt><trkpt lat="43.14745335148955" lon="11.444598319708435"><ele>167.5</ele><time>2026-04-11T10:52:53.999Z</time></trkpt><trkpt lat="43.1473382685328" lon="11.444579893483844"><ele>165.75</ele><time>2026-04-11T10:52:55.999Z</time></trkpt><trkpt lat="43.14723111904101" lon="11.444532336770727"><ele>164.0</ele><time>2026-04-11T10:52:57.999Z</time></trkpt><trkpt lat="43.14712009562695" lon="11.444513017761118"><ele>163.5</ele><time>2026-04-11T10:52:59.999Z</time></trkpt><trkpt lat="43.147005988255664" lon="11.444518226676115"><ele>163.0</ele><time>2026-04-11T10:53:01.999Z</time></trkpt><trkpt lat="43.14689277195146" lon="11.444517038122852"><ele>162.5</ele><time>2026-04-11T10:53:03.999Z</time></trkpt><trkpt lat="43.14677549054089" lon="11.444519588379"><ele>162.0</ele><time>2026-04-11T10:53:05.999Z</time></trkpt><trkpt lat="43.146659790408684" lon="11.444527287947516"><ele>162.0</ele><time>2026-04-11T10:53:07.999Z</time></trkpt><trkpt lat="43.14654597012337" lon="11.444551794231623"><ele>162.0</ele><time>2026-04-11T10:53:09.999Z</time></trkpt><trkpt lat="43.14643170260799" lon="11.44458468918449"><ele>162.0</ele><time>2026-04-11T10:53:11.999Z</time></trkpt><trkpt lat="43.146324761718795" lon="11.444649835932264"><ele>162.0</ele><time>2026-04-11T10:53:13.999Z</time></trkpt><trkpt lat="43.14623202836449" lon="11.444735991247052"><ele>162.0</ele><time>2026-04-11T10:53:15.999Z</time></trkpt><trkpt lat="43.146167079717635" lon="11.44486636243139"><ele>162.0</ele><time>2026-04-11T10:53:17.999Z</time></trkpt><trkpt lat="43.14611918545973" lon="11.445011506728084"><ele>162.0</ele><time>2026-04-11T10:53:19.999Z</time></trkpt><trkpt lat="43.14608486900575" lon="11.445167214925375"><ele>162.0</ele><time>2026-04-11T10:53:21.999Z</time></trkpt><trkpt lat="43.14608368192904" lon="11.445326396096476"><ele>162.0</ele><time>2026-04-11T10:53:23.999Z</time></trkpt><trkpt lat="43.14610364545279" lon="11.445419337557798"><ele>162.0</ele><time>2026-04-11T10:53:24.999Z</time></trkpt><trkpt lat="43.146125306071724" lon="11.445504744652816"><ele>162.0</ele><time>2026-04-11T10:53:25.999Z</time></trkpt><trkpt lat="43.14615251325691" lon="11.44564328713147"><ele>162.0</ele><time>2026-04-11T10:53:27.999Z</time></trkpt><trkpt lat="43.14618885422356" lon="11.445790396984325"><ele>162.0</ele><time>2026-04-11T10:53:29.999Z</time></trkpt><trkpt lat="43.14622186702535" lon="11.445943473269605"><ele>161.75</ele><time>2026-04-11T10:53:31.999Z</time></trkpt><trkpt lat="43.14625845997079" lon="11.446094164250182"><ele>161.5</ele><time>2026-04-11T10:53:33.999Z</time></trkpt><trkpt lat="43.14629758353006" lon="11.446240641847483"><ele>161.25</ele><time>2026-04-11T10:53:35.999Z</time></trkpt><trkpt lat="43.14633881791066" lon="11.446391979152612"><ele>161.0</ele><time>2026-04-11T10:53:37.999Z</time></trkpt><trkpt lat="43.14638054923186" lon="11.446540754411124"><ele>162.25</ele><time>2026-04-11T10:53:39.999Z</time></trkpt><trkpt lat="43.14640307689247" lon="11.446699343143399"><ele>163.5</ele><time>2026-04-11T10:53:41.999Z</time></trkpt><trkpt lat="43.146370216890695" lon="11.446857528406001"><ele>164.75</ele><time>2026-04-11T10:53:43.999Z</time></trkpt><trkpt lat="43.146267704579095" lon="11.446940007072943"><ele>166.0</ele><time>2026-04-11T10:53:45.999Z</time></trkpt><trkpt lat="43.1461560075135" lon="11.446923166163646"><ele>166.0</ele><time>2026-04-11T10:53:47.999Z</time></trkpt><trkpt lat="43.14604662083264" lon="11.44688114980033"><ele>166.0</ele><time>2026-04-11T10:53:49.999Z</time></trkpt><trkpt lat="43.14593305926679" lon="11.446852997819311"><ele>166.0</ele><time>2026-04-11T10:53:51.999Z</time></trkpt><trkpt lat="43.1458171592864" lon="11.446844089242312"><ele>166.0</ele><time>2026-04-11T10:53:53.999Z</time></trkpt><trkpt lat="43.14569909158226" lon="11.446843366898973"><ele>165.0</ele><time>2026-04-11T10:53:55.999Z</time></trkpt><trkpt lat="43.145578454233565" lon="11.446870067386632"><ele>164.0</ele><time>2026-04-11T10:53:57.999Z</time></trkpt><trkpt lat="43.145460799638194" lon="11.446918690197554"><ele>163.0</ele><time>2026-04-11T10:53:59.999Z</time></trkpt><trkpt lat="43.14535209446353" lon="11.446988144944422"><ele>162.0</ele><time>2026-04-11T10:54:01.999Z</time></trkpt><trkpt lat="43.14525387259593" lon="11.447085997260602"><ele>163.5</ele><time>2026-04-11T10:54:03.999Z</time></trkpt><trkpt lat="43.145166567226816" lon="11.447200687713487"><ele>165.0</ele><time>2026-04-11T10:54:05.999Z</time></trkpt><trkpt lat="43.14508034752677" lon="11.447298657350386"><ele>166.5</ele><time>2026-04-11T10:54:07.999Z</time></trkpt><trkpt lat="43.14498677740768" lon="11.447406669686846"><ele>168.0</ele><time>2026-04-11T10:54:09.999Z</time></trkpt><trkpt lat="43.144903744053316" lon="11.447524429021927"><ele>167.75</ele><time>2026-04-11T10:54:11.999Z</time></trkpt><trkpt lat="43.1448738933008" lon="11.447679408012506"><ele>167.5</ele><time>2026-04-11T10:54:13.999Z</time></trkpt><trkpt lat="43.144875348617404" lon="11.447835946199222"><ele>167.25</ele><time>2026-04-11T10:54:15.999Z</time></trkpt><trkpt lat="43.14487404480336" lon="11.447992569871946"><ele>167.0</ele><time>2026-04-11T10:54:17.999Z</time></trkpt><trkpt lat="43.14486884941634" lon="11.44815893909499"><ele>167.0</ele><time>2026-04-11T10:54:20Z</time></trkpt><trkpt lat="43.14485794377975" lon="11.44832675345741"><ele>167.0</ele><time>2026-04-11T10:54:22Z</time></trkpt><trkpt lat="43.1447871758599" lon="11.44846759312514"><ele>167.0</ele><time>2026-04-11T10:54:24Z</time></trkpt><trkpt lat="43.14473782828692" lon="11.44852219055542"><ele>167.0</ele><time>2026-04-11T10:54:25Z</time></trkpt><trkpt lat="43.14467338875538" lon="11.448537200744713"><ele>167.0</ele><time>2026-04-11T10:54:26Z</time></trkpt><trkpt lat="43.14456474821928" lon="11.448559997499487"><ele>167.0</ele><time>2026-04-11T10:54:28Z</time></trkpt><trkpt lat="43.14445808648935" lon="11.44855580433165"><ele>167.0</ele><time>2026-04-11T10:54:30Z</time></trkpt><trkpt lat="43.14435218421622" lon="11.44854034575422"><ele>167.0</ele><time>2026-04-11T10:54:32Z</time></trkpt><trkpt lat="43.144247323127644" lon="11.448517619646422"><ele>167.0</ele><time>2026-04-11T10:54:34Z</time></trkpt><trkpt lat="43.14414505848747" lon="11.448482115341282"><ele>167.0</ele><time>2026-04-11T10:54:36Z</time></trkpt><trkpt lat="43.144044729740365" lon="11.448435035967703"><ele>168.0</ele><time>2026-04-11T10:54:37.999Z</time></trkpt><trkpt lat="43.14394811318896" lon="11.448384425369408"><ele>169.0</ele><time>2026-04-11T10:54:39.999Z</time></trkpt><trkpt lat="43.14385197483742" lon="11.44832852879488"><ele>170.0</ele><time>2026-04-11T10:54:41.999Z</time></trkpt><trkpt lat="43.143756679487986" lon="11.448271173664471"><ele>171.0</ele><time>2026-04-11T10:54:43.999Z</time></trkpt><trkpt lat="43.14365722483826" lon="11.44820925262983"><ele>172.0</ele><time>2026-04-11T10:54:45.999Z</time></trkpt><trkpt lat="43.14354944640034" lon="11.44816428390768"><ele>172.0</ele><time>2026-04-11T10:54:47.999Z</time></trkpt><trkpt lat="43.14344564954656" lon="11.448086456417109"><ele>172.0</ele><time>2026-04-11T10:54:49.999Z</time></trkpt><trkpt lat="43.143350951991685" lon="11.447989531772034"><ele>172.0</ele><time>2026-04-11T10:54:51.999Z</time></trkpt><trkpt lat="43.14323907753014" lon="11.44792921257939"><ele>172.0</ele><time>2026-04-11T10:54:53.999Z</time></trkpt><trkpt lat="43.14313561801982" lon="11.447850330943696"><ele>169.75</ele><time>2026-04-11T10:54:55.999Z</time></trkpt><trkpt lat="43.14303133572612" lon="11.447784257600572"><ele>167.5</ele><time>2026-04-11T10:54:57.999Z</time></trkpt><trkpt lat="43.14292625330066" lon="11.447731990981783"><ele>165.25</ele><time>2026-04-11T10:54:59.999Z</time></trkpt><trkpt lat="43.142813184372024" lon="11.447695084586385"><ele>163.0</ele><time>2026-04-11T10:55:01.999Z</time></trkpt><trkpt lat="43.14269864569346" lon="11.447683275891375"><ele>163.0</ele><time>2026-04-11T10:55:03.999Z</time></trkpt><trkpt lat="43.142582020004866" lon="11.447680137580843"><ele>163.0</ele><time>2026-04-11T10:55:05.999Z</time></trkpt><trkpt lat="43.1424659125032" lon="11.447696508351324"><ele>163.0</ele><time>2026-04-11T10:55:07.999Z</time></trkpt><trkpt lat="43.1423547058554" lon="11.447735070454256"><ele>163.0</ele><time>2026-04-11T10:55:09.999Z</time></trkpt><trkpt lat="43.142241300798034" lon="11.447765017080274"><ele>162.75</ele><time>2026-04-11T10:55:11.999Z</time></trkpt><trkpt lat="43.142129851859636" lon="11.447798255080132"><ele>162.5</ele><time>2026-04-11T10:55:13.999Z</time></trkpt><trkpt lat="43.142017597570174" lon="11.447835136948687"><ele>162.25</ele><time>2026-04-11T10:55:15.999Z</time></trkpt><trkpt lat="43.14190548654545" lon="11.447878432202602"><ele>162.0</ele><time>2026-04-11T10:55:17.999Z</time></trkpt><trkpt lat="43.14179543125366" lon="11.44792078196165"><ele>164.25</ele><time>2026-04-11T10:55:19.999Z</time></trkpt><trkpt lat="43.141683105019936" lon="11.447963908978547"><ele>166.5</ele><time>2026-04-11T10:55:21.999Z</time></trkpt><trkpt lat="43.141565394590785" lon="11.44799959317248"><ele>168.75</ele><time>2026-04-11T10:55:23.999Z</time></trkpt><trkpt lat="43.141449326148916" lon="11.44803540730689"><ele>171.0</ele><time>2026-04-11T10:55:25.999Z</time></trkpt><trkpt lat="43.14133475125129" lon="11.44806229178639"><ele>171.0</ele><time>2026-04-11T10:55:27.999Z</time></trkpt><trkpt lat="43.1412217785714" lon="11.448083653643016"><ele>171.0</ele><time>2026-04-11T10:55:29.999Z</time></trkpt><trkpt lat="43.141109567098496" lon="11.44810386342706"><ele>171.0</ele><time>2026-04-11T10:55:31.999Z</time></trkpt><trkpt lat="43.141001708093114" lon="11.448116647565369"><ele>171.0</ele><time>2026-04-11T10:55:33.999Z</time></trkpt><trkpt lat="43.140901470849535" lon="11.448133850511502"><ele>171.0</ele><time>2026-04-11T10:55:35.999Z</time></trkpt><trkpt lat="43.14080448621414" lon="11.448152239336515"><ele>170.4</ele><time>2026-04-11T10:55:37.999Z</time></trkpt><trkpt lat="43.14071111163214" lon="11.448167455701032"><ele>169.8</ele><time>2026-04-11T10:55:39.999Z</time></trkpt><trkpt lat="43.1406203901865" lon="11.448179153399595"><ele>169.20000000000002</ele><time>2026-04-11T10:55:41.999Z</time></trkpt><trkpt lat="43.14052038378945" lon="11.448182166393101"><ele>168.60000000000002</ele><time>2026-04-11T10:55:43.999Z</time></trkpt><trkpt lat="43.14041011713286" lon="11.448156248532777"><ele>168.0</ele><time>2026-04-11T10:55:45.999Z</time></trkpt><trkpt lat="43.140293082618776" lon="11.448116163280586"><ele>168.0</ele><time>2026-04-11T10:55:47.999Z</time></trkpt><trkpt lat="43.14023949632461" lon="11.448068994025459"><ele>168.0</ele><time>2026-04-11T10:55:48.999Z</time></trkpt><trkpt lat="43.14012216557564" lon="11.44801315815525"><ele>168.0</ele><time>2026-04-11T10:55:50.999Z</time></trkpt><trkpt lat="43.14000326079011" lon="11.447947626028816"><ele>168.0</ele><time>2026-04-11T10:55:52.999Z</time></trkpt><trkpt lat="43.13992855260324" lon="11.447924676514102"><ele>168.0</ele><time>2026-04-11T10:55:53.999Z</time></trkpt><trkpt lat="43.13988102215541" lon="11.447865715331933"><ele>166.57142857142858</ele><time>2026-04-11T10:55:54.999Z</time></trkpt><trkpt lat="43.139812547843306" lon="11.447844551197095"><ele>165.14285714285714</ele><time>2026-04-11T10:55:55.999Z</time></trkpt><trkpt lat="43.13975209183381" lon="11.447807121358219"><ele>163.71428571428572</ele><time>2026-04-11T10:55:56.999Z</time></trkpt><trkpt lat="43.13968737314657" lon="11.447781877404482"><ele>162.28571428571428</ele><time>2026-04-11T10:55:57.999Z</time></trkpt><trkpt lat="43.13961666826858" lon="11.44778417495588"><ele>160.85714285714286</ele><time>2026-04-11T10:55:58.999Z</time></trkpt><trkpt lat="43.13954568257538" lon="11.447802240884522"><ele>159.42857142857144</ele><time>2026-04-11T10:55:59.999Z</time></trkpt><trkpt lat="43.1394767231858" lon="11.44784288266361"><ele>158.0</ele><time>2026-04-11T10:56:00.999Z</time></trkpt><trkpt lat="43.13941511956703" lon="11.447908081340392"><ele>158.4</ele><time>2026-04-11T10:56:01.999Z</time></trkpt><trkpt lat="43.13933174172456" lon="11.448083576436122"><ele>158.8</ele><time>2026-04-11T10:56:03.999Z</time></trkpt><trkpt lat="43.13930668944074" lon="11.448186788202777"><ele>159.2</ele><time>2026-04-11T10:56:04.999Z</time></trkpt><trkpt lat="43.1392917407425" lon="11.448291985657827"><ele>159.6</ele><time>2026-04-11T10:56:05.999Z</time></trkpt><trkpt lat="43.13928271544875" lon="11.448397123951267"><ele>160.0</ele><time>2026-04-11T10:56:06.999Z</time></trkpt><trkpt lat="43.13927388778621" lon="11.448498846192873"><ele>160.0</ele><time>2026-04-11T10:56:07.999Z</time></trkpt><trkpt lat="43.139265147872926" lon="11.448601185153132"><ele>160.0</ele><time>2026-04-11T10:56:08.999Z</time></trkpt><trkpt lat="43.13925716663569" lon="11.448704368869096"><ele>160.0</ele><time>2026-04-11T10:56:10Z</time></trkpt><trkpt lat="43.13925291836173" lon="11.448811134692027"><ele>160.0</ele><time>2026-04-11T10:56:11Z</time></trkpt><trkpt lat="43.139250261106724" lon="11.448917715167974"><ele>160.0</ele><time>2026-04-11T10:56:12Z</time></trkpt><trkpt lat="43.13924923429765" lon="11.449025741544117"><ele>160.0</ele><time>2026-04-11T10:56:13Z</time></trkpt><trkpt lat="43.13924561007282" lon="11.4491323405813"><ele>160.0</ele><time>2026-04-11T10:56:14Z</time></trkpt><trkpt lat="43.139243506122966" lon="11.449239503757761"><ele>160.0</ele><time>2026-04-11T10:56:15Z</time></trkpt><trkpt lat="43.139241087972984" lon="11.449347952884768"><ele>160.0</ele><time>2026-04-11T10:56:16Z</time></trkpt><trkpt lat="43.13923744041294" lon="11.449455985918306"><ele>160.0</ele><time>2026-04-11T10:56:17Z</time></trkpt><trkpt lat="43.13923535625568" lon="11.449563484137514"><ele>160.0</ele><time>2026-04-11T10:56:18Z</time></trkpt><trkpt lat="43.13923451430374" lon="11.449668772817018"><ele>160.0</ele><time>2026-04-11T10:56:19Z</time></trkpt><trkpt lat="43.139234286036185" lon="11.44977238362741"><ele>160.0</ele><time>2026-04-11T10:56:20Z</time></trkpt><trkpt lat="43.139235867096794" lon="11.449876069364468"><ele>160.0</ele><time>2026-04-11T10:56:21Z</time></trkpt><trkpt lat="43.13923679178501" lon="11.449982719877049"><ele>160.0</ele><time>2026-04-11T10:56:22Z</time></trkpt><trkpt lat="43.139242416736785" lon="11.450088557473725"><ele>160.0</ele><time>2026-04-11T10:56:23Z</time></trkpt><trkpt lat="43.13924959042481" lon="11.450195676829841"><ele>160.0</ele><time>2026-04-11T10:56:24Z</time></trkpt><trkpt lat="43.13925817947342" lon="11.450302615161169"><ele>160.0</ele><time>2026-04-11T10:56:25Z</time></trkpt><trkpt lat="43.13926510287639" lon="11.45040911527373"><ele>160.33333333333334</ele><time>2026-04-11T10:56:26Z</time></trkpt><trkpt lat="43.13926560820064" lon="11.450515316099159"><ele>160.66666666666669</ele><time>2026-04-11T10:56:27Z</time></trkpt><trkpt lat="43.139262596768575" lon="11.450623442813418"><ele>161.0</ele><time>2026-04-11T10:56:28Z</time></trkpt><trkpt lat="43.13925347554261" lon="11.450730049499962"><ele>161.33333333333334</ele><time>2026-04-11T10:56:29Z</time></trkpt><trkpt lat="43.13923379452905" lon="11.450834555150777"><ele>161.66666666666666</ele><time>2026-04-11T10:56:30Z</time></trkpt><trkpt lat="43.13920101768835" lon="11.450928530512689"><ele>162.0</ele><time>2026-04-11T10:56:31Z</time></trkpt><trkpt lat="43.13916221089557" lon="11.45101525757991"><ele>162.0</ele><time>2026-04-11T10:56:32Z</time></trkpt><trkpt lat="43.13912207008949" lon="11.451096291575938"><ele>162.0</ele><time>2026-04-11T10:56:33Z</time></trkpt><trkpt lat="43.139081391319166" lon="11.45117371585373"><ele>162.0</ele><time>2026-04-11T10:56:34Z</time></trkpt><trkpt lat="43.13904040088302" lon="11.451250476293062"><ele>162.0</ele><time>2026-04-11T10:56:35Z</time></trkpt><trkpt lat="43.13899990343779" lon="11.451329571852364"><ele>162.0</ele><time>2026-04-11T10:56:36Z</time></trkpt><trkpt lat="43.13895865875235" lon="11.451408895425773"><ele>162.0</ele><time>2026-04-11T10:56:37Z</time></trkpt><trkpt lat="43.138918371018356" lon="11.451489014333424"><ele>162.0</ele><time>2026-04-11T10:56:38Z</time></trkpt><trkpt lat="43.1388791469583" lon="11.451570663118105"><ele>161.0</ele><time>2026-04-11T10:56:39Z</time></trkpt><trkpt lat="43.13884014126891" lon="11.451652155764622"><ele>160.0</ele><time>2026-04-11T10:56:40Z</time></trkpt><trkpt lat="43.13880039128196" lon="11.451730425653757"><ele>159.0</ele><time>2026-04-11T10:56:41Z</time></trkpt><trkpt lat="43.13875810917476" lon="11.4518065444812"><ele>158.0</ele><time>2026-04-11T10:56:42Z</time></trkpt><trkpt lat="43.13871476387587" lon="11.451881725322597"><ele>157.0</ele><time>2026-04-11T10:56:43Z</time></trkpt><trkpt lat="43.13867219418516" lon="11.451956112171723"><ele>156.0</ele><time>2026-04-11T10:56:43.999Z</time></trkpt><trkpt lat="43.138629437938924" lon="11.452027668110377"><ele>155.0</ele><time>2026-04-11T10:56:44.999Z</time></trkpt><trkpt lat="43.13858224975967" lon="11.452095661729098"><ele>155.66666666666666</ele><time>2026-04-11T10:56:45.999Z</time></trkpt><trkpt lat="43.13853991929198" lon="11.452165806782283"><ele>156.33333333333331</ele><time>2026-04-11T10:56:46.999Z</time></trkpt><trkpt lat="43.138494977608865" lon="11.452234089732519"><ele>157.0</ele><time>2026-04-11T10:56:47.999Z</time></trkpt><trkpt lat="43.13844040442294" lon="11.452317219743497"><ele>157.66666666666666</ele><time>2026-04-11T10:56:48.999Z</time></trkpt><trkpt lat="43.13834565507485" lon="11.452427823780212"><ele>158.33333333333334</ele><time>2026-04-11T10:56:50.999Z</time></trkpt><trkpt lat="43.138293557638185" lon="11.452486633000554"><ele>159.0</ele><time>2026-04-11T10:56:51.999Z</time></trkpt><trkpt lat="43.13823849614391" lon="11.452543777393922"><ele>158.14285714285714</ele><time>2026-04-11T10:56:52.999Z</time></trkpt><trkpt lat="43.13818058684331" lon="11.452593057723064"><ele>157.2857142857143</ele><time>2026-04-11T10:56:53.999Z</time></trkpt><trkpt lat="43.13812273263725" lon="11.452637169771622"><ele>156.42857142857144</ele><time>2026-04-11T10:56:54.999Z</time></trkpt><trkpt lat="43.138060606510955" lon="11.452684076742889"><ele>155.57142857142856</ele><time>2026-04-11T10:56:55.999Z</time></trkpt><trkpt lat="43.13799761357437" lon="11.452729026722698"><ele>154.71428571428572</ele><time>2026-04-11T10:56:56.999Z</time></trkpt><trkpt lat="43.13793644397448" lon="11.452770340272028"><ele>153.85714285714286</ele><time>2026-04-11T10:56:57.999Z</time></trkpt><trkpt lat="43.13787347311126" lon="11.452810105283728"><ele>153.0</ele><time>2026-04-11T10:56:58.999Z</time></trkpt><trkpt lat="43.13781071778021" lon="11.452851234007923"><ele>153.0</ele><time>2026-04-11T10:56:59.999Z</time></trkpt><trkpt lat="43.13774712543347" lon="11.45289150232002"><ele>153.0</ele><time>2026-04-11T10:57:00.999Z</time></trkpt><trkpt lat="43.137683287224085" lon="11.45292977644302"><ele>153.0</ele><time>2026-04-11T10:57:01.999Z</time></trkpt><trkpt lat="43.137618823172836" lon="11.452968486253441"><ele>153.0</ele><time>2026-04-11T10:57:02.999Z</time></trkpt><trkpt lat="43.13755371827355" lon="11.453006394753215"><ele>153.0</ele><time>2026-04-11T10:57:03.999Z</time></trkpt><trkpt lat="43.13748784217661" lon="11.453046460442035"><ele>153.0</ele><time>2026-04-11T10:57:04.999Z</time></trkpt><trkpt lat="43.13742298848902" lon="11.453082381662444"><ele>153.0</ele><time>2026-04-11T10:57:05.999Z</time></trkpt><trkpt lat="43.137360961605395" lon="11.453125110820832"><ele>153.0</ele><time>2026-04-11T10:57:06.999Z</time></trkpt><trkpt lat="43.13730145512121" lon="11.453171510997272"><ele>153.0</ele><time>2026-04-11T10:57:07.999Z</time></trkpt><trkpt lat="43.13724208441768" lon="11.453223835832027"><ele>153.0</ele><time>2026-04-11T10:57:08.999Z</time></trkpt><trkpt lat="43.1371838869724" lon="11.453279571220229"><ele>153.0</ele><time>2026-04-11T10:57:09.999Z</time></trkpt><trkpt lat="43.13712702715792" lon="11.453338665800013"><ele>153.0</ele><time>2026-04-11T10:57:10.999Z</time></trkpt><trkpt lat="43.137069836844326" lon="11.453398333206652"><ele>153.0</ele><time>2026-04-11T10:57:11.999Z</time></trkpt><trkpt lat="43.137009855683665" lon="11.453457882746717"><ele>153.0</ele><time>2026-04-11T10:57:12.999Z</time></trkpt><trkpt lat="43.13695248802212" lon="11.453522163067321"><ele>153.0</ele><time>2026-04-11T10:57:13.999Z</time></trkpt><trkpt lat="43.13689428530694" lon="11.453580419928654"><ele>153.0</ele><time>2026-04-11T10:57:14.999Z</time></trkpt><trkpt lat="43.136840452380945" lon="11.453639973646489"><ele>153.0</ele><time>2026-04-11T10:57:15.999Z</time></trkpt><trkpt lat="43.13678396888618" lon="11.453690537888482"><ele>153.0</ele><time>2026-04-11T10:57:16.999Z</time></trkpt><trkpt lat="43.13672517729109" lon="11.45375169585265"><ele>153.0</ele><time>2026-04-11T10:57:17.999Z</time></trkpt><trkpt lat="43.13667201494051" lon="11.453814475783775"><ele>153.0</ele><time>2026-04-11T10:57:18.999Z</time></trkpt><trkpt lat="43.13661899827192" lon="11.45387857788025"><ele>153.0</ele><time>2026-04-11T10:57:19.999Z</time></trkpt><trkpt lat="43.1365653624887" lon="11.453946715493297"><ele>152.71428571428572</ele><time>2026-04-11T10:57:20.999Z</time></trkpt><trkpt lat="43.13651428774271" lon="11.454016998844065"><ele>152.42857142857144</ele><time>2026-04-11T10:57:21.999Z</time></trkpt><trkpt lat="43.13646400139594" lon="11.454085931887809"><ele>152.14285714285717</ele><time>2026-04-11T10:57:22.999Z</time></trkpt><trkpt lat="43.13641311605937" lon="11.454158531102111"><ele>151.85714285714286</ele><time>2026-04-11T10:57:23.999Z</time></trkpt><trkpt lat="43.13636753671448" lon="11.454233739671878"><ele>151.57142857142858</ele><time>2026-04-11T10:57:24.999Z</time></trkpt><trkpt lat="43.136323112310514" lon="11.454309480536164"><ele>151.2857142857143</ele><time>2026-04-11T10:57:25.999Z</time></trkpt><trkpt lat="43.13627946265282" lon="11.454382116680204"><ele>151.0</ele><time>2026-04-11T10:57:26.999Z</time></trkpt><trkpt lat="43.13623720572458" lon="11.454458216084547"><ele>151.00000000000003</ele><time>2026-04-11T10:57:27.999Z</time></trkpt><trkpt lat="43.136197609301256" lon="11.45453869966551"><ele>151.0</ele><time>2026-04-11T10:57:28.999Z</time></trkpt><trkpt lat="43.13615777272961" lon="11.45461682471349"><ele>151.0</ele><time>2026-04-11T10:57:29.999Z</time></trkpt><trkpt lat="43.13612195302936" lon="11.454700349777037"><ele>151.0</ele><time>2026-04-11T10:57:30.999Z</time></trkpt><trkpt lat="43.13608447532672" lon="11.45478671330684"><ele>151.0</ele><time>2026-04-11T10:57:31.999Z</time></trkpt><trkpt lat="43.13604549000953" lon="11.454868902984451"><ele>151.00000000000003</ele><time>2026-04-11T10:57:32.999Z</time></trkpt><trkpt lat="43.13600811925538" lon="11.454953645720972"><ele>151.0</ele><time>2026-04-11T10:57:33.999Z</time></trkpt><trkpt lat="43.13597401066794" lon="11.455043030379864"><ele>151.14285714285717</ele><time>2026-04-11T10:57:34.999Z</time></trkpt><trkpt lat="43.13593966137891" lon="11.455125586739644"><ele>151.28571428571428</ele><time>2026-04-11T10:57:35.999Z</time></trkpt><trkpt lat="43.13590029745495" lon="11.455208074973653"><ele>151.42857142857144</ele><time>2026-04-11T10:57:36.999Z</time></trkpt><trkpt lat="43.135860907260344" lon="11.455288618583896"><ele>151.57142857142858</ele><time>2026-04-11T10:57:37.999Z</time></trkpt><trkpt lat="43.13582115443291" lon="11.455369296600157"><ele>151.71428571428572</ele><time>2026-04-11T10:57:38.999Z</time></trkpt><trkpt lat="43.135779048011614" lon="11.455448299179585"><ele>151.85714285714286</ele><time>2026-04-11T10:57:39.999Z</time></trkpt><trkpt lat="43.135731860336435" lon="11.455519950506341"><ele>152.0</ele><time>2026-04-11T10:57:40.999Z</time></trkpt><trkpt lat="43.13568091467763" lon="11.455587064420767"><ele>152.0</ele><time>2026-04-11T10:57:41.999Z</time></trkpt><trkpt lat="43.135627329721956" lon="11.455650049690705"><ele>152.0</ele><time>2026-04-11T10:57:42.999Z</time></trkpt><trkpt lat="43.13557240732742" lon="11.455706561194347"><ele>152.0</ele><time>2026-04-11T10:57:43.999Z</time></trkpt><trkpt lat="43.13551800733403" lon="11.455764687746523"><ele>152.0</ele><time>2026-04-11T10:57:44.999Z</time></trkpt><trkpt lat="43.13546168134641" lon="11.455821564322532"><ele>152.0</ele><time>2026-04-11T10:57:45.999Z</time></trkpt><trkpt lat="43.13540250422802" lon="11.455878618277023"><ele>152.0</ele><time>2026-04-11T10:57:46.999Z</time></trkpt><trkpt lat="43.13534342032905" lon="11.455937440940543"><ele>152.0</ele><time>2026-04-11T10:57:47.999Z</time></trkpt><trkpt lat="43.1352836549027" lon="11.455997210857397"><ele>152.0</ele><time>2026-04-11T10:57:48.999Z</time></trkpt><trkpt lat="43.13522351590812" lon="11.45605809389977"><ele>152.0</ele><time>2026-04-11T10:57:49.999Z</time></trkpt><trkpt lat="43.13516399164668" lon="11.456119440582778"><ele>152.0</ele><time>2026-04-11T10:57:50.999Z</time></trkpt><trkpt lat="43.1351055835887" lon="11.456180256144961"><ele>152.0</ele><time>2026-04-11T10:57:51.999Z</time></trkpt><trkpt lat="43.13504694422917" lon="11.456241927941518"><ele>152.0</ele><time>2026-04-11T10:57:52.999Z</time></trkpt><trkpt lat="43.13498633827322" lon="11.45630159081872"><ele>152.0</ele><time>2026-04-11T10:57:53.999Z</time></trkpt><trkpt lat="43.13492809442604" lon="11.456363884041851"><ele>152.0</ele><time>2026-04-11T10:57:55Z</time></trkpt><trkpt lat="43.13487105452205" lon="11.456427187546764"><ele>152.0</ele><time>2026-04-11T10:57:56Z</time></trkpt><trkpt lat="43.13481400110011" lon="11.456488952750924"><ele>152.0</ele><time>2026-04-11T10:57:57Z</time></trkpt><trkpt lat="43.134756364109634" lon="11.456551215783643"><ele>152.0</ele><time>2026-04-11T10:57:58Z</time></trkpt><trkpt lat="43.13469647321931" lon="11.456613322450815"><ele>152.0</ele><time>2026-04-11T10:57:59Z</time></trkpt><trkpt lat="43.13463719335035" lon="11.45667845885977"><ele>152.0</ele><time>2026-04-11T10:58:00Z</time></trkpt><trkpt lat="43.13457684575365" lon="11.456741939426603"><ele>152.0</ele><time>2026-04-11T10:58:01Z</time></trkpt><trkpt lat="43.1345160587703" lon="11.456801781186163"><ele>152.0</ele><time>2026-04-11T10:58:02Z</time></trkpt><trkpt lat="43.13445560044152" lon="11.456861624095303"><ele>152.0</ele><time>2026-04-11T10:58:03Z</time></trkpt><trkpt lat="43.13439223417819" lon="11.456923424190531"><ele>152.0</ele><time>2026-04-11T10:58:04Z</time></trkpt><trkpt lat="43.1343321981893" lon="11.456986900024495"><ele>152.0</ele><time>2026-04-11T10:58:05Z</time></trkpt><trkpt lat="43.13427040544559" lon="11.457050008783668"><ele>152.0</ele><time>2026-04-11T10:58:06Z</time></trkpt><trkpt lat="43.13420794284246" lon="11.457111518482685"><ele>152.0</ele><time>2026-04-11T10:58:07Z</time></trkpt><trkpt lat="43.134147348003765" lon="11.457173623105836"><ele>152.0</ele><time>2026-04-11T10:58:08Z</time></trkpt><trkpt lat="43.13408545159265" lon="11.457237297996146"><ele>151.66666666666666</ele><time>2026-04-11T10:58:09Z</time></trkpt><trkpt lat="43.134023510021294" lon="11.45729969467008"><ele>151.33333333333331</ele><time>2026-04-11T10:58:10Z</time></trkpt><trkpt lat="43.13395990492365" lon="11.457359258533883"><ele>151.0</ele><time>2026-04-11T10:58:11Z</time></trkpt><trkpt lat="43.133896257752816" lon="11.45741884909259"><ele>150.66666666666666</ele><time>2026-04-11T10:58:12Z</time></trkpt><trkpt lat="43.13382886239227" lon="11.457467291389447"><ele>150.33333333333334</ele><time>2026-04-11T10:58:13Z</time></trkpt><trkpt lat="43.13376996587554" lon="11.457542438789218"><ele>150.0</ele><time>2026-04-11T10:58:14Z</time></trkpt><trkpt lat="43.13370678523508" lon="11.45760552242338"><ele>149.99999999999997</ele><time>2026-04-11T10:58:15Z</time></trkpt><trkpt lat="43.133643871014996" lon="11.45766652015148"><ele>150.0</ele><time>2026-04-11T10:58:16Z</time></trkpt><trkpt lat="43.13358017868384" lon="11.457721953497051"><ele>150.0</ele><time>2026-04-11T10:58:17Z</time></trkpt><trkpt lat="43.133516221528865" lon="11.457774971681381"><ele>150.0</ele><time>2026-04-11T10:58:18Z</time></trkpt><trkpt lat="43.13345436391632" lon="11.457826820429492"><ele>150.0</ele><time>2026-04-11T10:58:19Z</time></trkpt><trkpt lat="43.133395792183336" lon="11.457879843010812"><ele>149.99999999999997</ele><time>2026-04-11T10:58:20Z</time></trkpt><trkpt lat="43.13333483168648" lon="11.457931342681045"><ele>150.0</ele><time>2026-04-11T10:58:21Z</time></trkpt><trkpt lat="43.13327330963767" lon="11.457985995497582"><ele>149.57142857142856</ele><time>2026-04-11T10:58:22Z</time></trkpt><trkpt lat="43.133213733116555" lon="11.458044837561227"><ele>149.14285714285714</ele><time>2026-04-11T10:58:23Z</time></trkpt><trkpt lat="43.13315641556472" lon="11.458107018181204"><ele>148.71428571428572</ele><time>2026-04-11T10:58:24Z</time></trkpt><trkpt lat="43.13309992003458" lon="11.45817054751382"><ele>148.28571428571428</ele><time>2026-04-11T10:58:25Z</time></trkpt><trkpt lat="43.133045871618215" lon="11.458240411021857"><ele>147.85714285714286</ele><time>2026-04-11T10:58:26Z</time></trkpt><trkpt lat="43.13299045330677" lon="11.458311241160747"><ele>147.42857142857142</ele><time>2026-04-11T10:58:27Z</time></trkpt><trkpt lat="43.1329339990429" lon="11.458379023048781"><ele>147.0</ele><time>2026-04-11T10:58:28Z</time></trkpt><trkpt lat="43.13287557049208" lon="11.458447603900064"><ele>147.0</ele><time>2026-04-11T10:58:29Z</time></trkpt><trkpt lat="43.132815923932036" lon="11.458517024903337"><ele>147.0</ele><time>2026-04-11T10:58:30Z</time></trkpt><trkpt lat="43.13275969750659" lon="11.4585884163907"><ele>147.0</ele><time>2026-04-11T10:58:31Z</time></trkpt><trkpt lat="43.132701735474086" lon="11.458665074501505"><ele>147.0</ele><time>2026-04-11T10:58:32Z</time></trkpt><trkpt lat="43.13265112685827" lon="11.458742876502642"><ele>147.0</ele><time>2026-04-11T10:58:33Z</time></trkpt><trkpt lat="43.1326047317992" lon="11.458828614243393"><ele>147.0</ele><time>2026-04-11T10:58:34Z</time></trkpt><trkpt lat="43.13255991182249" lon="11.458920975838062"><ele>146.71428571428572</ele><time>2026-04-11T10:58:35Z</time></trkpt><trkpt lat="43.132527377253616" lon="11.459016802268577"><ele>146.42857142857144</ele><time>2026-04-11T10:58:36Z</time></trkpt><trkpt lat="43.13249980053009" lon="11.459115465010893"><ele>146.14285714285714</ele><time>2026-04-11T10:58:37Z</time></trkpt><trkpt lat="43.13247322241402" lon="11.45921199597774"><ele>145.85714285714286</ele><time>2026-04-11T10:58:38Z</time></trkpt><trkpt lat="43.13244575401415" lon="11.459306123124467"><ele>145.57142857142858</ele><time>2026-04-11T10:58:39Z</time></trkpt><trkpt lat="43.13242275623592" lon="11.45940267307641"><ele>145.28571428571428</ele><time>2026-04-11T10:58:40Z</time></trkpt><trkpt lat="43.13239830085492" lon="11.459491487283895"><ele>145.0</ele><time>2026-04-11T10:58:41Z</time></trkpt><trkpt lat="43.13237197506682" lon="11.459582317855336"><ele>145.0</ele><time>2026-04-11T10:58:42Z</time></trkpt><trkpt lat="43.132349783026086" lon="11.459673121182346"><ele>145.0</ele><time>2026-04-11T10:58:43Z</time></trkpt><trkpt lat="43.13232950965293" lon="11.45976591825824"><ele>145.0</ele><time>2026-04-11T10:58:44Z</time></trkpt><trkpt lat="43.13231121978995" lon="11.459863184361346"><ele>145.0</ele><time>2026-04-11T10:58:45Z</time></trkpt><trkpt lat="43.13228925355925" lon="11.459958186800604"><ele>145.0</ele><time>2026-04-11T10:58:46Z</time></trkpt><trkpt lat="43.132264999129845" lon="11.460051285227983"><ele>145.0</ele><time>2026-04-11T10:58:47Z</time></trkpt><trkpt lat="43.13224061952103" lon="11.46014312910938"><ele>145.0</ele><time>2026-04-11T10:58:48Z</time></trkpt><trkpt lat="43.13222059064839" lon="11.460235821134386"><ele>145.0</ele><time>2026-04-11T10:58:49Z</time></trkpt><trkpt lat="43.132198901357114" lon="11.460321499275612"><ele>145.0</ele><time>2026-04-11T10:58:49.999Z</time></trkpt><trkpt lat="43.13217755987654" lon="11.460403967774552"><ele>145.0</ele><time>2026-04-11T10:58:50.999Z</time></trkpt><trkpt lat="43.132141935311026" lon="11.460562714414161"><ele>145.0</ele><time>2026-04-11T10:58:52.999Z</time></trkpt><trkpt lat="43.132101921603955" lon="11.460724115510743"><ele>145.0</ele><time>2026-04-11T10:58:54.999Z</time></trkpt><trkpt lat="43.13208715515588" lon="11.460808920318614"><ele>145.0</ele><time>2026-04-11T10:58:55.999Z</time></trkpt><trkpt lat="43.132078776506994" lon="11.460901946196152"><ele>145.14285714285714</ele><time>2026-04-11T10:58:56.999Z</time></trkpt><trkpt lat="43.132078194522904" lon="11.460998617924634"><ele>145.2857142857143</ele><time>2026-04-11T10:58:57.999Z</time></trkpt><trkpt lat="43.132083177653854" lon="11.46109726907625"><ele>145.42857142857144</ele><time>2026-04-11T10:58:58.999Z</time></trkpt><trkpt lat="43.13209410969862" lon="11.46120168521827"><ele>145.57142857142858</ele><time>2026-04-11T10:58:59.999Z</time></trkpt><trkpt lat="43.13210483169462" lon="11.461306319291625"><ele>145.71428571428572</ele><time>2026-04-11T10:59:00.999Z</time></trkpt><trkpt lat="43.13211467165359" lon="11.461405667919772"><ele>145.85714285714286</ele><time>2026-04-11T10:59:01.999Z</time></trkpt><trkpt lat="43.1321281890585" lon="11.461508470144263"><ele>146.0</ele><time>2026-04-11T10:59:02.999Z</time></trkpt><trkpt lat="43.13214170488461" lon="11.461601972107132"><ele>146.0</ele><time>2026-04-11T10:59:03.999Z</time></trkpt><trkpt lat="43.132153733887314" lon="11.46174679813147"><ele>146.0</ele><time>2026-04-11T10:59:05.999Z</time></trkpt><trkpt lat="43.13213441331458" lon="11.46185971765082"><ele>146.0</ele><time>2026-04-11T10:59:07.999Z</time></trkpt><trkpt lat="43.13204124130599" lon="11.461829970103583"><ele>146.0</ele><time>2026-04-11T10:59:12.999Z</time></trkpt><trkpt lat="43.13198841920344" lon="11.46173610054971"><ele>146.0</ele><time>2026-04-11T10:59:14.999Z</time></trkpt><trkpt lat="43.13192675044893" lon="11.461626509689747"><ele>146.0</ele><time>2026-04-11T10:59:17Z</time></trkpt><trkpt lat="43.13186713285356" lon="11.46152056392806"><ele>146.0</ele><time>2026-04-11T10:59:19Z</time></trkpt><trkpt lat="43.131806080167564" lon="11.461450771792713"><ele>146.0</ele><time>2026-04-11T10:59:21Z</time></trkpt><trkpt lat="43.13153973441955" lon="11.461557737073619"><ele>145.5</ele><time>2026-04-11T10:59:23Z</time></trkpt><trkpt lat="43.13146299645397" lon="11.461538460771493"><ele>145.0</ele><time>2026-04-11T10:59:24Z</time></trkpt><trkpt lat="43.13138504508995" lon="11.461502167623445"><ele>144.5</ele><time>2026-04-11T10:59:25Z</time></trkpt><trkpt lat="43.13131178874331" lon="11.46143653805593"><ele>144.0</ele><time>2026-04-11T10:59:26Z</time></trkpt><trkpt lat="43.13124589992579" lon="11.461354462238535"><ele>143.5</ele><time>2026-04-11T10:59:27Z</time></trkpt><trkpt lat="43.131196915347864" lon="11.461255172175528"><ele>143.0</ele><time>2026-04-11T10:59:28Z</time></trkpt><trkpt lat="43.13115178350428" lon="11.461159118420538"><ele>143.0</ele><time>2026-04-11T10:59:29Z</time></trkpt><trkpt lat="43.13111111268845" lon="11.461066188554335"><ele>143.0</ele><time>2026-04-11T10:59:30Z</time></trkpt><trkpt lat="43.13106504583874" lon="11.460976618164286"><ele>143.0</ele><time>2026-04-11T10:59:31Z</time></trkpt><trkpt lat="43.13101524098442" lon="11.46090059416544"><ele>143.0</ele><time>2026-04-11T10:59:32Z</time></trkpt><trkpt lat="43.13095156505519" lon="11.460842873750172"><ele>143.0</ele><time>2026-04-11T10:59:33Z</time></trkpt><trkpt lat="43.130879134851604" lon="11.460816423830806"><ele>143.0</ele><time>2026-04-11T10:59:34Z</time></trkpt><trkpt lat="43.13080581953638" lon="11.460807181333443"><ele>143.0</ele><time>2026-04-11T10:59:35Z</time></trkpt><trkpt lat="43.13073232168914" lon="11.46080262104589"><ele>143.0</ele><time>2026-04-11T10:59:36Z</time></trkpt><trkpt lat="43.130658955129896" lon="11.460791425810875"><ele>143.0</ele><time>2026-04-11T10:59:37Z</time></trkpt><trkpt lat="43.13058958297324" lon="11.460762396164109"><ele>143.0</ele><time>2026-04-11T10:59:38Z</time></trkpt><trkpt lat="43.13053317077763" lon="11.46072222003837"><ele>143.0</ele><time>2026-04-11T10:59:39Z</time></trkpt><trkpt lat="43.13044733560581" lon="11.46060027732074"><ele>143.0</ele><time>2026-04-11T10:59:41Z</time></trkpt><trkpt lat="43.13041131780911" lon="11.460442047815357"><ele>143.20000000000002</ele><time>2026-04-11T10:59:43Z</time></trkpt><trkpt lat="43.130381667144725" lon="11.460281093488978"><ele>143.4</ele><time>2026-04-11T10:59:45Z</time></trkpt><trkpt lat="43.13034431503405" lon="11.460125807898887"><ele>143.60000000000002</ele><time>2026-04-11T10:59:47Z</time></trkpt><trkpt lat="43.13032998415947" lon="11.460040397922972"><ele>143.8</ele><time>2026-04-11T10:59:48Z</time></trkpt><trkpt lat="43.13029418772978" lon="11.459886850281423"><ele>144.0</ele><time>2026-04-11T10:59:50Z</time></trkpt><trkpt lat="43.130265420005" lon="11.459724725295812"><ele>144.2</ele><time>2026-04-11T10:59:52Z</time></trkpt><trkpt lat="43.13023487501945" lon="11.459572283899092"><ele>144.4</ele><time>2026-04-11T10:59:54Z</time></trkpt><trkpt lat="43.1302006685441" lon="11.459421985814688"><ele>144.6</ele><time>2026-04-11T10:59:56Z</time></trkpt><trkpt lat="43.13017258606191" lon="11.459280631134103"><ele>144.8</ele><time>2026-04-11T10:59:58Z</time></trkpt><trkpt lat="43.130143872359774" lon="11.459153927334492"><ele>145.0</ele><time>2026-04-11T11:00:00Z</time></trkpt><trkpt lat="43.13012217335541" lon="11.459039477958735"><ele>145.0</ele><time>2026-04-11T11:00:02Z</time></trkpt><trkpt lat="43.130097996422855" lon="11.45883098689723"><ele>145.0</ele><time>2026-04-11T11:00:06Z</time></trkpt><trkpt lat="43.130075003773705" lon="11.458735664044495"><ele>145.0</ele><time>2026-04-11T11:00:08Z</time></trkpt><trkpt lat="43.13004317918883" lon="11.458623642956514"><ele>145.0</ele><time>2026-04-11T11:00:11Z</time></trkpt><trkpt lat="43.13001498553694" lon="11.458515061101686"><ele>145.0</ele><time>2026-04-11T11:00:14Z</time></trkpt><trkpt lat="43.130004465041026" lon="11.45840742624157"><ele>146.0</ele><time>2026-04-11T11:00:18Z</time></trkpt><trkpt lat="43.13002717884138" lon="11.45830259987937"><ele>147.0</ele><time>2026-04-11T11:00:22Z</time></trkpt><trkpt lat="43.13000142840751" lon="11.458210715239911"><ele>148.0</ele><time>2026-04-11T11:00:25Z</time></trkpt><trkpt lat="43.12994482418264" lon="11.45813162586942"><ele>149.0</ele><time>2026-04-11T11:00:29Z</time></trkpt><trkpt lat="43.12989286142225" lon="11.458048986646924"><ele>150.0</ele><time>2026-04-11T11:00:33Z</time></trkpt><trkpt lat="43.12984842139095" lon="11.457955625766468"><ele>151.0</ele><time>2026-04-11T11:00:37Z</time></trkpt><trkpt lat="43.12980014474977" lon="11.457870057881177"><ele>152.42857142857144</ele><time>2026-04-11T11:00:41Z</time></trkpt><trkpt lat="43.12975800198503" lon="11.45779510273881"><ele>153.85714285714286</ele><time>2026-04-11T11:00:45Z</time></trkpt><trkpt lat="43.12971195443579" lon="11.457724382623987"><ele>155.28571428571428</ele><time>2026-04-11T11:00:49Z</time></trkpt><trkpt lat="43.12967301693839" lon="11.457652352062846"><ele>156.71428571428572</ele><time>2026-04-11T11:00:53Z</time></trkpt><trkpt lat="43.12962648917786" lon="11.457577940084063"><ele>158.14285714285714</ele><time>2026-04-11T11:00:57Z</time></trkpt><trkpt lat="43.12958415441197" lon="11.457499275265931"><ele>159.57142857142858</ele><time>2026-04-11T11:01:01Z</time></trkpt><trkpt lat="43.12954212176737" lon="11.457418435558907"><ele>161.0</ele><time>2026-04-11T11:01:05Z</time></trkpt><trkpt lat="43.12949530711401" lon="11.457338631486659"><ele>161.0</ele><time>2026-04-11T11:01:09Z</time></trkpt><trkpt lat="43.12944866977865" lon="11.457262596830507"><ele>161.0</ele><time>2026-04-11T11:01:13Z</time></trkpt><trkpt lat="43.129402670039134" lon="11.457192237247645"><ele>161.0</ele><time>2026-04-11T11:01:17Z</time></trkpt><trkpt lat="43.1293633961377" lon="11.457108852543437"><ele>161.0</ele><time>2026-04-11T11:01:21Z</time></trkpt><trkpt lat="43.12932023059466" lon="11.457031307393645"><ele>161.0</ele><time>2026-04-11T11:01:25Z</time></trkpt><trkpt lat="43.12927985574697" lon="11.456946838089134"><ele>161.0</ele><time>2026-04-11T11:01:29Z</time></trkpt><trkpt lat="43.12922922550426" lon="11.456870310393734"><ele>161.0</ele><time>2026-04-11T11:01:33Z</time></trkpt><trkpt lat="43.12918657214482" lon="11.45679128750068"><ele>161.28571428571428</ele><time>2026-04-11T11:01:37Z</time></trkpt><trkpt lat="43.12914247761507" lon="11.456708709021383"><ele>161.57142857142856</ele><time>2026-04-11T11:01:41Z</time></trkpt><trkpt lat="43.12909493060202" lon="11.456637681839208"><ele>161.85714285714286</ele><time>2026-04-11T11:01:45Z</time></trkpt><trkpt lat="43.12905353293797" lon="11.456559433918855"><ele>162.14285714285714</ele><time>2026-04-11T11:01:49Z</time></trkpt><trkpt lat="43.12901271518532" lon="11.456474867010636"><ele>162.42857142857142</ele><time>2026-04-11T11:01:53Z</time></trkpt><trkpt lat="43.12896288906348" lon="11.456402446133016"><ele>162.71428571428572</ele><time>2026-04-11T11:01:57Z</time></trkpt><trkpt lat="43.12892542263379" lon="11.456321792085324"><ele>163.0</ele><time>2026-04-11T11:02:01Z</time></trkpt><trkpt lat="43.12887530526758" lon="11.456257566498737"><ele>164.71428571428572</ele><time>2026-04-11T11:02:05Z</time></trkpt><trkpt lat="43.12883624036747" lon="11.456183856525222"><ele>166.42857142857142</ele><time>2026-04-11T11:02:09Z</time></trkpt><trkpt lat="43.128793741909526" lon="11.4560962601405"><ele>168.14285714285714</ele><time>2026-04-11T11:02:14Z</time></trkpt><trkpt lat="43.128748783494565" lon="11.456012885076536"><ele>169.85714285714286</ele><time>2026-04-11T11:02:19Z</time></trkpt><trkpt lat="43.1287024108094" lon="11.455935709119995"><ele>171.57142857142856</ele><time>2026-04-11T11:02:24Z</time></trkpt><trkpt lat="43.1286596882144" lon="11.455856650834999"><ele>173.28571428571428</ele><time>2026-04-11T11:02:29Z</time></trkpt><trkpt lat="43.128616999915934" lon="11.45578095465237"><ele>175.0</ele><time>2026-04-11T11:02:34Z</time></trkpt><trkpt lat="43.12856833890824" lon="11.455714183753937"><ele>175.0</ele><time>2026-04-11T11:02:39Z</time></trkpt><trkpt lat="43.12852865720981" lon="11.45564459742586"><ele>175.0</ele><time>2026-04-11T11:02:44Z</time></trkpt><trkpt lat="43.12847917291532" lon="11.455586601079023"><ele>175.0</ele><time>2026-04-11T11:02:49Z</time></trkpt><trkpt lat="43.12842368088177" lon="11.455522993279393"><ele>175.0</ele><time>2026-04-11T11:02:55Z</time></trkpt><trkpt lat="43.12836499145455" lon="11.455471206617196"><ele>175.0</ele><time>2026-04-11T11:03:00Z</time></trkpt><trkpt lat="43.128307440510476" lon="11.45543007147033"><ele>175.0</ele><time>2026-04-11T11:03:05Z</time></trkpt><trkpt lat="43.12823843781178" lon="11.455392301994527"><ele>175.0</ele><time>2026-04-11T11:03:10Z</time></trkpt><trkpt lat="43.12816497811171" lon="11.455363491479217"><ele>177.57142857142858</ele><time>2026-04-11T11:03:15Z</time></trkpt><trkpt lat="43.12810072879723" lon="11.455343904437465"><ele>180.14285714285714</ele><time>2026-04-11T11:03:20Z</time></trkpt><trkpt lat="43.12803149894487" lon="11.455299131980302"><ele>182.71428571428572</ele><time>2026-04-11T11:03:25Z</time></trkpt><trkpt lat="43.127961577246715" lon="11.455314517359692"><ele>185.28571428571428</ele><time>2026-04-11T11:03:30Z</time></trkpt><trkpt lat="43.12791067626967" lon="11.455249959106327"><ele>187.85714285714286</ele><time>2026-04-11T11:03:34Z</time></trkpt><trkpt lat="43.127835113883975" lon="11.455253390444215"><ele>190.42857142857144</ele><time>2026-04-11T11:03:39Z</time></trkpt><trkpt lat="43.127789704745254" lon="11.455189265553201"><ele>193.0</ele><time>2026-04-11T11:03:43Z</time></trkpt><trkpt lat="43.12771980069341" lon="11.455198914744821"><ele>193.00000000000003</ele><time>2026-04-11T11:03:48Z</time></trkpt><trkpt lat="43.127672431230906" lon="11.455123152399315"><ele>193.0</ele><time>2026-04-11T11:03:53Z</time></trkpt><trkpt lat="43.12760791528116" lon="11.455103898154169"><ele>193.0</ele><time>2026-04-11T11:03:58Z</time></trkpt><trkpt lat="43.12753964627645" lon="11.45509952744752"><ele>193.0</ele><time>2026-04-11T11:04:04Z</time></trkpt><trkpt lat="43.12747418329477" lon="11.455087662934048"><ele>193.0</ele><time>2026-04-11T11:04:10Z</time></trkpt><trkpt lat="43.127428810321106" lon="11.45502206672523"><ele>193.00000000000003</ele><time>2026-04-11T11:04:15Z</time></trkpt><trkpt lat="43.127365992215786" lon="11.454994118023484"><ele>193.0</ele><time>2026-04-11T11:04:21Z</time></trkpt><trkpt lat="43.127297818847836" lon="11.454983163682245"><ele>194.57142857142858</ele><time>2026-04-11T11:04:27Z</time></trkpt><trkpt lat="43.12723907434409" lon="11.454934535096653"><ele>196.14285714285714</ele><time>2026-04-11T11:04:33Z</time></trkpt><trkpt lat="43.12718995079157" lon="11.454868780850708"><ele>197.71428571428572</ele><time>2026-04-11T11:04:39Z</time></trkpt><trkpt lat="43.12712917256763" lon="11.45480033166139"><ele>199.28571428571428</ele><time>2026-04-11T11:04:46Z</time></trkpt><trkpt lat="43.12706747333917" lon="11.454776093957001"><ele>200.85714285714286</ele><time>2026-04-11T11:04:52Z</time></trkpt><trkpt lat="43.12705047799772" lon="11.454684278252865"><ele>202.42857142857144</ele><time>2026-04-11T11:04:57Z</time></trkpt><trkpt lat="43.12700702054893" lon="11.454616489065184"><ele>204.0</ele><time>2026-04-11T11:05:02Z</time></trkpt><trkpt lat="43.12696926994399" lon="11.454541209437886"><ele>205.28571428571428</ele><time>2026-04-11T11:05:08Z</time></trkpt><trkpt lat="43.12692993419537" lon="11.454467883831398"><ele>206.57142857142858</ele><time>2026-04-11T11:05:14Z</time></trkpt><trkpt lat="43.12689631920157" lon="11.454382590143164"><ele>207.85714285714283</ele><time>2026-04-11T11:05:20Z</time></trkpt><trkpt lat="43.12686256577871" lon="11.454301375658908"><ele>209.14285714285714</ele><time>2026-04-11T11:05:26Z</time></trkpt><trkpt lat="43.12683090343776" lon="11.454217584144994"><ele>210.42857142857142</ele><time>2026-04-11T11:05:32Z</time></trkpt><trkpt lat="43.12681774175009" lon="11.454123141779519"><ele>211.7142857142857</ele><time>2026-04-11T11:05:38Z</time></trkpt><trkpt lat="43.12679830861964" lon="11.454028600071908"><ele>213.0</ele><time>2026-04-11T11:05:44Z</time></trkpt><trkpt lat="43.1267932443883" lon="11.453940823684036"><ele>212.99999999999997</ele><time>2026-04-11T11:05:50Z</time></trkpt><trkpt lat="43.12679100201508" lon="11.453851489369296"><ele>213.0</ele><time>2026-04-11T11:05:56Z</time></trkpt><trkpt lat="43.12678839099948" lon="11.453748831794346"><ele>213.0</ele><time>2026-04-11T11:06:03Z</time></trkpt><trkpt lat="43.126782868383124" lon="11.453660287880128"><ele>213.0</ele><time>2026-04-11T11:06:09Z</time></trkpt><trkpt lat="43.12677625960449" lon="11.453570453302943"><ele>213.0</ele><time>2026-04-11T11:06:15Z</time></trkpt><trkpt lat="43.12677425048835" lon="11.453474697740022"><ele>212.99999999999997</ele><time>2026-04-11T11:06:21Z</time></trkpt><trkpt lat="43.1267741433419" lon="11.453380878929394"><ele>213.0</ele><time>2026-04-11T11:06:27Z</time></trkpt><trkpt lat="43.1267656919652" lon="11.453286187708505"><ele>213.85714285714283</ele><time>2026-04-11T11:06:33Z</time></trkpt><trkpt lat="43.126760611454884" lon="11.453183734439648"><ele>214.71428571428572</ele><time>2026-04-11T11:06:39Z</time></trkpt><trkpt lat="43.12676280080875" lon="11.453086593855375"><ele>215.57142857142856</ele><time>2026-04-11T11:06:44Z</time></trkpt><trkpt lat="43.12676133194366" lon="11.452990372402793"><ele>216.42857142857142</ele><time>2026-04-11T11:06:48Z</time></trkpt><trkpt lat="43.12676478459996" lon="11.4528954824022"><ele>217.28571428571428</ele><time>2026-04-11T11:06:52Z</time></trkpt><trkpt lat="43.12676174552394" lon="11.452798720035025"><ele>218.14285714285714</ele><time>2026-04-11T11:06:56Z</time></trkpt><trkpt lat="43.12676687192382" lon="11.452694781208795"><ele>219.0</ele><time>2026-04-11T11:07:00Z</time></trkpt><trkpt lat="43.12677297827864" lon="11.45258323042975"><ele>219.42857142857144</ele><time>2026-04-11T11:07:04Z</time></trkpt><trkpt lat="43.12677552040852" lon="11.452490790361507"><ele>219.85714285714283</ele><time>2026-04-11T11:07:07Z</time></trkpt><trkpt lat="43.12677496740724" lon="11.452394409085171"><ele>220.28571428571428</ele><time>2026-04-11T11:07:10Z</time></trkpt><trkpt lat="43.12676865403699" lon="11.452291210039666"><ele>220.71428571428572</ele><time>2026-04-11T11:07:13Z</time></trkpt><trkpt lat="43.1267633390648" lon="11.452189959221348"><ele>221.14285714285717</ele><time>2026-04-11T11:07:16Z</time></trkpt><trkpt lat="43.12675043776389" lon="11.452093657469046"><ele>221.57142857142856</ele><time>2026-04-11T11:07:19Z</time></trkpt><trkpt lat="43.1267402920678" lon="11.45197990185072"><ele>222.0</ele><time>2026-04-11T11:07:22Z</time></trkpt><trkpt lat="43.126729700580015" lon="11.451870041215042"><ele>222.5</ele><time>2026-04-11T11:07:25Z</time></trkpt><trkpt lat="43.12672101126204" lon="11.451765581935156"><ele>223.0</ele><time>2026-04-11T11:07:28Z</time></trkpt><trkpt lat="43.126712640000406" lon="11.451662059254053"><ele>223.5</ele><time>2026-04-11T11:07:31Z</time></trkpt><trkpt lat="43.12670116564879" lon="11.45154727095654"><ele>224.0</ele><time>2026-04-11T11:07:35Z</time></trkpt><trkpt lat="43.126688895132844" lon="11.45145211346193"><ele>224.5</ele><time>2026-04-11T11:07:38Z</time></trkpt><trkpt lat="43.12667051487512" lon="11.451337311260342"><ele>225.0</ele><time>2026-04-11T11:07:41Z</time></trkpt><trkpt lat="43.12665203653625" lon="11.451252001732101"><ele>225.00000000000003</ele><time>2026-04-11T11:07:44Z</time></trkpt><trkpt lat="43.126624106778" lon="11.451165273752636"><ele>225.0</ele><time>2026-04-11T11:07:47Z</time></trkpt><trkpt lat="43.12659980161738" lon="11.451084197971381"><ele>225.00000000000003</ele><time>2026-04-11T11:07:50Z</time></trkpt><trkpt lat="43.12656943124992" lon="11.450989494102934"><ele>225.00000000000003</ele><time>2026-04-11T11:07:54Z</time></trkpt><trkpt lat="43.12654061501289" lon="11.450894295231388"><ele>225.0</ele><time>2026-04-11T11:07:58Z</time></trkpt><trkpt lat="43.12651828450568" lon="11.45080103925177"><ele>225.00000000000003</ele><time>2026-04-11T11:08:02Z</time></trkpt><trkpt lat="43.12648873611604" lon="11.450710637575266"><ele>225.00000000000003</ele><time>2026-04-11T11:08:06Z</time></trkpt><trkpt lat="43.12645412101827" lon="11.450625027511741"><ele>225.00000000000003</ele><time>2026-04-11T11:08:10Z</time></trkpt><trkpt lat="43.12642676062664" lon="11.450519019589802"><ele>225.0</ele><time>2026-04-11T11:08:14Z</time></trkpt><trkpt lat="43.12639726176766" lon="11.450435751065303"><ele>225.00000000000003</ele><time>2026-04-11T11:08:18Z</time></trkpt><trkpt lat="43.12637167025169" lon="11.450349430962023"><ele>225.00000000000003</ele><time>2026-04-11T11:08:22Z</time></trkpt><trkpt lat="43.12634641195942" lon="11.450261778884238"><ele>225.0</ele><time>2026-04-11T11:08:26Z</time></trkpt><trkpt lat="43.12631804849303" lon="11.450176787435483"><ele>225.00000000000003</ele><time>2026-04-11T11:08:30Z</time></trkpt><trkpt lat="43.12629422511092" lon="11.450092511433446"><ele>225.00000000000003</ele><time>2026-04-11T11:08:34Z</time></trkpt><trkpt lat="43.126270796754966" lon="11.450000452726528"><ele>225.8571428571429</ele><time>2026-04-11T11:08:38Z</time></trkpt><trkpt lat="43.126240571194614" lon="11.449905116202753"><ele>226.71428571428572</ele><time>2026-04-11T11:08:42Z</time></trkpt><trkpt lat="43.12621674414551" lon="11.449822593425791"><ele>227.57142857142858</ele><time>2026-04-11T11:08:45Z</time></trkpt><trkpt lat="43.126189151951635" lon="11.449741920745986"><ele>228.42857142857144</ele><time>2026-04-11T11:08:48Z</time></trkpt><trkpt lat="43.12615673488577" lon="11.449653746036146"><ele>229.28571428571428</ele><time>2026-04-11T11:08:51Z</time></trkpt><trkpt lat="43.12612329719398" lon="11.449570873812263"><ele>230.14285714285714</ele><time>2026-04-11T11:08:55Z</time></trkpt><trkpt lat="43.12608343593514" lon="11.449478214608538"><ele>231.0</ele><time>2026-04-11T11:08:59Z</time></trkpt><trkpt lat="43.12604052016681" lon="11.449407726795792"><ele>232.33333333333334</ele><time>2026-04-11T11:09:03Z</time></trkpt><trkpt lat="43.125980229966075" lon="11.4493409117996"><ele>233.66666666666669</ele><time>2026-04-11T11:09:07Z</time></trkpt><trkpt lat="43.1259147480182" lon="11.44927078183079"><ele>235.0</ele><time>2026-04-11T11:09:11Z</time></trkpt><trkpt lat="43.1258550071718" lon="11.44922782090593"><ele>236.33333333333334</ele><time>2026-04-11T11:09:14Z</time></trkpt><trkpt lat="43.12578520599514" lon="11.44918434933999"><ele>237.66666666666669</ele><time>2026-04-11T11:09:16.999Z</time></trkpt><trkpt lat="43.12571110643111" lon="11.449145821142912"><ele>239.0</ele><time>2026-04-11T11:09:19.999Z</time></trkpt><trkpt lat="43.125651099768774" lon="11.449109958024112"><ele>239.0</ele><time>2026-04-11T11:09:21.999Z</time></trkpt><trkpt lat="43.12555756311666" lon="11.449068741681884"><ele>238.99999999999997</ele><time>2026-04-11T11:09:23.999Z</time></trkpt><trkpt lat="43.12546496923218" lon="11.449037372130704"><ele>238.99999999999997</ele><time>2026-04-11T11:09:25.999Z</time></trkpt><trkpt lat="43.12537379473331" lon="11.449009006871053"><ele>239.0</ele><time>2026-04-11T11:09:27.999Z</time></trkpt><trkpt lat="43.125285472608155" lon="11.448976570343865"><ele>239.0</ele><time>2026-04-11T11:09:29.999Z</time></trkpt><trkpt lat="43.12520879264553" lon="11.448952369414952"><ele>239.00000000000003</ele><time>2026-04-11T11:09:31.999Z</time></trkpt><trkpt lat="43.12512519766083" lon="11.448919912833324"><ele>239.0</ele><time>2026-04-11T11:09:33.999Z</time></trkpt><trkpt lat="43.12503878788686" lon="11.44888452910833"><ele>239.0</ele><time>2026-04-11T11:09:35.999Z</time></trkpt><trkpt lat="43.124960661973695" lon="11.448840205150054"><ele>239.0</ele><time>2026-04-11T11:09:37.999Z</time></trkpt><trkpt lat="43.12488376891525" lon="11.448781285149135"><ele>239.00000000000003</ele><time>2026-04-11T11:09:39.999Z</time></trkpt><trkpt lat="43.124801867681" lon="11.448743110725022"><ele>239.0</ele><time>2026-04-11T11:09:41.999Z</time></trkpt><trkpt lat="43.12471086680099" lon="11.448734885367006"><ele>239.2</ele><time>2026-04-11T11:09:43.999Z</time></trkpt><trkpt lat="43.124623659669304" lon="11.448772076993157"><ele>239.39999999999998</ele><time>2026-04-11T11:09:45.999Z</time></trkpt><trkpt lat="43.124540127741234" lon="11.448869261308836"><ele>239.6</ele><time>2026-04-11T11:09:47.999Z</time></trkpt><trkpt lat="43.124425926577935" lon="11.448976614223113"><ele>239.8</ele><time>2026-04-11T11:09:50Z</time></trkpt><trkpt lat="43.1243833136542" lon="11.449045186817864"><ele>240.0</ele><time>2026-04-11T11:09:51Z</time></trkpt><trkpt lat="43.12434112659728" lon="11.449115235876896"><ele>239.4</ele><time>2026-04-11T11:09:52Z</time></trkpt><trkpt lat="43.12428717607202" lon="11.449185266403036"><ele>238.8</ele><time>2026-04-11T11:09:53Z</time></trkpt><trkpt lat="43.12423047457495" lon="11.449232557313525"><ele>238.2</ele><time>2026-04-11T11:09:54Z</time></trkpt><trkpt lat="43.12410661525065" lon="11.449249151570784"><ele>237.6</ele><time>2026-04-11T11:09:56Z</time></trkpt><trkpt lat="43.123982560923054" lon="11.449230755634137"><ele>237.0</ele><time>2026-04-11T11:09:58Z</time></trkpt><trkpt lat="43.12386019714395" lon="11.449186592664294"><ele>236.57142857142856</ele><time>2026-04-11T11:10:00Z</time></trkpt><trkpt lat="43.123793092848594" lon="11.449164202293915"><ele>236.14285714285714</ele><time>2026-04-11T11:10:01Z</time></trkpt><trkpt lat="43.12372445956747" lon="11.449158532720494"><ele>235.71428571428572</ele><time>2026-04-11T11:10:02Z</time></trkpt><trkpt lat="43.12366070349915" lon="11.449136189368867"><ele>235.28571428571428</ele><time>2026-04-11T11:10:03Z</time></trkpt><trkpt lat="43.123595764161166" lon="11.449119333872348"><ele>234.8571428571429</ele><time>2026-04-11T11:10:04Z</time></trkpt><trkpt lat="43.12353153952421" lon="11.449093563934603"><ele>234.42857142857144</ele><time>2026-04-11T11:10:05Z</time></trkpt><trkpt lat="43.123466920276925" lon="11.449063872322617"><ele>234.0</ele><time>2026-04-11T11:10:06Z</time></trkpt><trkpt lat="43.12340325735997" lon="11.449040220797364"><ele>234.0</ele><time>2026-04-11T11:10:07Z</time></trkpt><trkpt lat="43.123335442284876" lon="11.449014560999892"><ele>234.00000000000003</ele><time>2026-04-11T11:10:08Z</time></trkpt><trkpt lat="43.12326525056341" lon="11.448989991575086"><ele>234.0</ele><time>2026-04-11T11:10:09Z</time></trkpt><trkpt lat="43.123193674586794" lon="11.448970635237156"><ele>234.0</ele><time>2026-04-11T11:10:10Z</time></trkpt><trkpt lat="43.1231252874045" lon="11.44894955734295"><ele>234.00000000000003</ele><time>2026-04-11T11:10:11Z</time></trkpt><trkpt lat="43.12305366966747" lon="11.448928780641046"><ele>234.0</ele><time>2026-04-11T11:10:12Z</time></trkpt><trkpt lat="43.1229850469066" lon="11.448900336955822"><ele>234.0</ele><time>2026-04-11T11:10:13Z</time></trkpt><trkpt lat="43.12291658986675" lon="11.448878130295565"><ele>233.57142857142858</ele><time>2026-04-11T11:10:14Z</time></trkpt><trkpt lat="43.122849204199774" lon="11.4488581517565"><ele>233.14285714285717</ele><time>2026-04-11T11:10:15Z</time></trkpt><trkpt lat="43.12277825014137" lon="11.448837243602295"><ele>232.71428571428572</ele><time>2026-04-11T11:10:16Z</time></trkpt><trkpt lat="43.12270851517425" lon="11.448814837579453"><ele>232.28571428571428</ele><time>2026-04-11T11:10:17Z</time></trkpt><trkpt lat="43.12263742344578" lon="11.448790078832742"><ele>231.85714285714286</ele><time>2026-04-11T11:10:18Z</time></trkpt><trkpt lat="43.1225652740638" lon="11.448760875022185"><ele>231.42857142857144</ele><time>2026-04-11T11:10:19Z</time></trkpt><trkpt lat="43.12249239825103" lon="11.448735554320324"><ele>231.0</ele><time>2026-04-11T11:10:20Z</time></trkpt><trkpt lat="43.122417761858884" lon="11.448707832101741"><ele>229.83333333333334</ele><time>2026-04-11T11:10:21Z</time></trkpt><trkpt lat="43.12233993716423" lon="11.448675912649195"><ele>228.66666666666669</ele><time>2026-04-11T11:10:22Z</time></trkpt><trkpt lat="43.12225641236029" lon="11.44863741171538"><ele>227.5</ele><time>2026-04-11T11:10:23Z</time></trkpt><trkpt lat="43.1221701826573" lon="11.448617089067442"><ele>226.33333333333334</ele><time>2026-04-11T11:10:24Z</time></trkpt><trkpt lat="43.12208304530076" lon="11.448587305379663"><ele>225.16666666666669</ele><time>2026-04-11T11:10:25Z</time></trkpt><trkpt lat="43.121991533719466" lon="11.448551107871985"><ele>224.0</ele><time>2026-04-11T11:10:26Z</time></trkpt><trkpt lat="43.12189947626661" lon="11.448519196884718"><ele>224.0</ele><time>2026-04-11T11:10:27Z</time></trkpt><trkpt lat="43.121802905249275" lon="11.448485066396781"><ele>223.99999999999997</ele><time>2026-04-11T11:10:28Z</time></trkpt><trkpt lat="43.12170718156316" lon="11.448453649342555"><ele>223.99999999999997</ele><time>2026-04-11T11:10:29Z</time></trkpt><trkpt lat="43.121608295171114" lon="11.448413732397382"><ele>224.0</ele><time>2026-04-11T11:10:30Z</time></trkpt><trkpt lat="43.12151388861948" lon="11.448361705358622"><ele>224.0</ele><time>2026-04-11T11:10:31Z</time></trkpt><trkpt lat="43.121439001244156" lon="11.448250813400437"><ele>222.6</ele><time>2026-04-11T11:10:32Z</time></trkpt><trkpt lat="43.121370024991755" lon="11.448145307003315"><ele>221.2</ele><time>2026-04-11T11:10:33Z</time></trkpt><trkpt lat="43.1213176126015" lon="11.448023084798525"><ele>219.79999999999998</ele><time>2026-04-11T11:10:34Z</time></trkpt><trkpt lat="43.12126681129169" lon="11.447894742280111"><ele>218.39999999999998</ele><time>2026-04-11T11:10:35Z</time></trkpt><trkpt lat="43.12122250861026" lon="11.447764113561277"><ele>217.0</ele><time>2026-04-11T11:10:36Z</time></trkpt><trkpt lat="43.12117765253867" lon="11.447628363889612"><ele>217.0</ele><time>2026-04-11T11:10:37Z</time></trkpt><trkpt lat="43.1211333231533" lon="11.447493625440881"><ele>217.0</ele><time>2026-04-11T11:10:38Z</time></trkpt><trkpt lat="43.12108881768526" lon="11.447357851758708"><ele>217.0</ele><time>2026-04-11T11:10:39Z</time></trkpt><trkpt lat="43.12104434712696" lon="11.447220585222649"><ele>217.0</ele><time>2026-04-11T11:10:40Z</time></trkpt><trkpt lat="43.120999423766676" lon="11.447081443388885"><ele>217.0</ele><time>2026-04-11T11:10:41Z</time></trkpt><trkpt lat="43.12095472739741" lon="11.446936734298305"><ele>216.0</ele><time>2026-04-11T11:10:42Z</time></trkpt><trkpt lat="43.12091005372315" lon="11.446792099151915"><ele>215.0</ele><time>2026-04-11T11:10:43Z</time></trkpt><trkpt lat="43.120864902990036" lon="11.446648402802797"><ele>214.0</ele><time>2026-04-11T11:10:44Z</time></trkpt><trkpt lat="43.12081925191863" lon="11.446504047519971"><ele>213.0</ele><time>2026-04-11T11:10:45Z</time></trkpt><trkpt lat="43.120776139033616" lon="11.446367718477006"><ele>212.5</ele><time>2026-04-11T11:10:46Z</time></trkpt><trkpt lat="43.12070808360854" lon="11.446114738183596"><ele>212.0</ele><time>2026-04-11T11:10:48Z</time></trkpt><trkpt lat="43.12069138166015" lon="11.445983421352626"><ele>211.5</ele><time>2026-04-11T11:10:49Z</time></trkpt><trkpt lat="43.12067085149752" lon="11.44584466740994"><ele>211.0</ele><time>2026-04-11T11:10:50Z</time></trkpt><trkpt lat="43.12073564278887" lon="11.445706739762796"><ele>211.0</ele><time>2026-04-11T11:10:51Z</time></trkpt><trkpt lat="43.1207832505627" lon="11.445557426303617"><ele>211.0</ele><time>2026-04-11T11:10:52Z</time></trkpt><trkpt lat="43.12083032702049" lon="11.445403457927634"><ele>211.0</ele><time>2026-04-11T11:10:53Z</time></trkpt><trkpt lat="43.12086277585506" lon="11.445243746701397"><ele>211.0</ele><time>2026-04-11T11:10:54Z</time></trkpt><trkpt lat="43.12089724470362" lon="11.44508419055347"><ele>211.0</ele><time>2026-04-11T11:10:55Z</time></trkpt><trkpt lat="43.12092057766565" lon="11.444924210500952"><ele>211.0</ele><time>2026-04-11T11:10:56Z</time></trkpt><trkpt lat="43.12084725590539" lon="11.444754055872938"><ele>211.0</ele><time>2026-04-11T11:10:57Z</time></trkpt><trkpt lat="43.12076745919477" lon="11.444619651855291"><ele>211.0</ele><time>2026-04-11T11:10:58Z</time></trkpt><trkpt lat="43.12066421158307" lon="11.444516205618191"><ele>209.25</ele><time>2026-04-11T11:10:59Z</time></trkpt><trkpt lat="43.120554711084544" lon="11.444437344391442"><ele>207.5</ele><time>2026-04-11T11:11:00Z</time></trkpt><trkpt lat="43.120443142346275" lon="11.444360072922988"><ele>205.75</ele><time>2026-04-11T11:11:01Z</time></trkpt><trkpt lat="43.12032787861755" lon="11.44428841752742"><ele>204.0</ele><time>2026-04-11T11:11:02Z</time></trkpt><trkpt lat="43.12020841696087" lon="11.444215111109646"><ele>204.0</ele><time>2026-04-11T11:11:03Z</time></trkpt><trkpt lat="43.12009003843678" lon="11.444137849087769"><ele>204.0</ele><time>2026-04-11T11:11:04Z</time></trkpt><trkpt lat="43.119969705542616" lon="11.444055041912133"><ele>204.0</ele><time>2026-04-11T11:11:05Z</time></trkpt><trkpt lat="43.11984965203127" lon="11.44397144966494"><ele>204.0</ele><time>2026-04-11T11:11:06Z</time></trkpt><trkpt lat="43.11972649656288" lon="11.443892291517132"><ele>202.0</ele><time>2026-04-11T11:11:07Z</time></trkpt><trkpt lat="43.11960284295726" lon="11.443806120142105"><ele>200.0</ele><time>2026-04-11T11:11:08Z</time></trkpt><trkpt lat="43.11948204485331" lon="11.44373051286672"><ele>198.0</ele><time>2026-04-11T11:11:09Z</time></trkpt><trkpt lat="43.1193571653581" lon="11.443638241941057"><ele>196.0</ele><time>2026-04-11T11:11:10Z</time></trkpt><trkpt lat="43.119238449673716" lon="11.443549619915139"><ele>194.75</ele><time>2026-04-11T11:11:11Z</time></trkpt><trkpt lat="43.119125353509816" lon="11.443455384831292"><ele>193.5</ele><time>2026-04-11T11:11:12Z</time></trkpt><trkpt lat="43.11901356415177" lon="11.443361102646838"><ele>192.25</ele><time>2026-04-11T11:11:13Z</time></trkpt><trkpt lat="43.11891743891356" lon="11.44322995067724"><ele>191.0</ele><time>2026-04-11T11:11:14Z</time></trkpt><trkpt lat="43.11882691109415" lon="11.443110111642945"><ele>190.20000000000002</ele><time>2026-04-11T11:11:15Z</time></trkpt><trkpt lat="43.11873490992258" lon="11.44300636350107"><ele>189.4</ele><time>2026-04-11T11:11:16Z</time></trkpt><trkpt lat="43.118661145487046" lon="11.442907391111879"><ele>188.6</ele><time>2026-04-11T11:11:17Z</time></trkpt><trkpt lat="43.118590790975475" lon="11.442826394738733"><ele>187.8</ele><time>2026-04-11T11:11:18Z</time></trkpt><trkpt lat="43.11852011286909" lon="11.442743152935545"><ele>187.0</ele><time>2026-04-11T11:11:19Z</time></trkpt><trkpt lat="43.118441859840736" lon="11.442661980457531"><ele>184.8</ele><time>2026-04-11T11:11:20Z</time></trkpt><trkpt lat="43.118355707508634" lon="11.442586808104032"><ele>182.6</ele><time>2026-04-11T11:11:21Z</time></trkpt><trkpt lat="43.11826131764577" lon="11.442522511146626"><ele>180.4</ele><time>2026-04-11T11:11:22Z</time></trkpt><trkpt lat="43.118175602811945" lon="11.442423751634529"><ele>178.20000000000002</ele><time>2026-04-11T11:11:22.999Z</time></trkpt><trkpt lat="43.118078454695215" lon="11.442341053481716"><ele>176.0</ele><time>2026-04-11T11:11:23.999Z</time></trkpt><trkpt lat="43.11797613256775" lon="11.442256697019008"><ele>176.0</ele><time>2026-04-11T11:11:24.999Z</time></trkpt><trkpt lat="43.11787921476815" lon="11.44217679588259"><ele>176.0</ele><time>2026-04-11T11:11:25.999Z</time></trkpt><trkpt lat="43.11778355585998" lon="11.44209989853442"><ele>176.0</ele><time>2026-04-11T11:11:26.999Z</time></trkpt><trkpt lat="43.11768461276974" lon="11.44202645654061"><ele>176.0</ele><time>2026-04-11T11:11:27.999Z</time></trkpt><trkpt lat="43.1175872922876" lon="11.441965649302055"><ele>176.0</ele><time>2026-04-11T11:11:28.999Z</time></trkpt><trkpt lat="43.117492228465814" lon="11.441931557395442"><ele>174.4</ele><time>2026-04-11T11:11:29.999Z</time></trkpt><trkpt lat="43.11739295417147" lon="11.441951321527844"><ele>172.8</ele><time>2026-04-11T11:11:30.999Z</time></trkpt><trkpt lat="43.11729116166154" lon="11.44196767929084"><ele>171.20000000000002</ele><time>2026-04-11T11:11:31.999Z</time></trkpt><trkpt lat="43.1171868173355" lon="11.442013409047089"><ele>169.60000000000002</ele><time>2026-04-11T11:11:32.999Z</time></trkpt><trkpt lat="43.11708886171185" lon="11.442085758368876"><ele>168.0</ele><time>2026-04-11T11:11:33.999Z</time></trkpt><trkpt lat="43.116994011526835" lon="11.4421575339148"><ele>168.0</ele><time>2026-04-11T11:11:34.999Z</time></trkpt><trkpt lat="43.11689405251223" lon="11.442216365232262"><ele>168.0</ele><time>2026-04-11T11:11:35.999Z</time></trkpt><trkpt lat="43.11679625984148" lon="11.442263838753991"><ele>168.0</ele><time>2026-04-11T11:11:36.999Z</time></trkpt><trkpt lat="43.11669871857883" lon="11.442261571629489"><ele>168.0</ele><time>2026-04-11T11:11:37.999Z</time></trkpt><trkpt lat="43.11661036077722" lon="11.442247250030125"><ele>168.0</ele><time>2026-04-11T11:11:38.999Z</time></trkpt><trkpt lat="43.11653325553764" lon="11.442216269489496"><ele>168.0</ele><time>2026-04-11T11:11:39.999Z</time></trkpt><trkpt lat="43.116464746451314" lon="11.44215272998504"><ele>168.0</ele><time>2026-04-11T11:11:40.999Z</time></trkpt><trkpt lat="43.11640482547816" lon="11.442064287574746"><ele>168.0</ele><time>2026-04-11T11:11:41.999Z</time></trkpt><trkpt lat="43.11633459750105" lon="11.441971331739474"><ele>168.0</ele><time>2026-04-11T11:11:42.999Z</time></trkpt><trkpt lat="43.11625512126959" lon="11.441884422304584"><ele>168.0</ele><time>2026-04-11T11:11:43.999Z</time></trkpt><trkpt lat="43.11618173688112" lon="11.441783787008369"><ele>165.75</ele><time>2026-04-11T11:11:44.999Z</time></trkpt><trkpt lat="43.116094487036264" lon="11.441689294733598"><ele>163.5</ele><time>2026-04-11T11:11:45.999Z</time></trkpt><trkpt lat="43.116013037321544" lon="11.44158348411798"><ele>161.25</ele><time>2026-04-11T11:11:46.999Z</time></trkpt><trkpt lat="43.1159266587314" lon="11.44147457190504"><ele>159.0</ele><time>2026-04-11T11:11:47.999Z</time></trkpt><trkpt lat="43.115829359788385" lon="11.441373808309118"><ele>156.6</ele><time>2026-04-11T11:11:48.999Z</time></trkpt><trkpt lat="43.115735021135535" lon="11.44129009327582"><ele>154.2</ele><time>2026-04-11T11:11:49.999Z</time></trkpt><trkpt lat="43.11564166796446" lon="11.441236415228438"><ele>151.79999999999998</ele><time>2026-04-11T11:11:50.999Z</time></trkpt><trkpt lat="43.11554153631835" lon="11.441201568292026"><ele>149.4</ele><time>2026-04-11T11:11:51.999Z</time></trkpt><trkpt lat="43.11543233259521" lon="11.441204728783667"><ele>147.0</ele><time>2026-04-11T11:11:52.999Z</time></trkpt><trkpt lat="43.11532604703133" lon="11.441229456376155"><ele>147.0</ele><time>2026-04-11T11:11:53.999Z</time></trkpt><trkpt lat="43.11522156186938" lon="11.441261618461755"><ele>147.0</ele><time>2026-04-11T11:11:54.999Z</time></trkpt><trkpt lat="43.115120955901226" lon="11.441283932684613"><ele>147.0</ele><time>2026-04-11T11:11:55.999Z</time></trkpt><trkpt lat="43.1150181940992" lon="11.441303360140314"><ele>147.0</ele><time>2026-04-11T11:11:56.999Z</time></trkpt><trkpt lat="43.11491852935176" lon="11.441316902499441"><ele>147.0</ele><time>2026-04-11T11:11:57.999Z</time></trkpt><trkpt lat="43.11481875300704" lon="11.441328305302001"><ele>145.79999999999998</ele><time>2026-04-11T11:11:58.999Z</time></trkpt><trkpt lat="43.114720500306404" lon="11.441334255558301"><ele>144.6</ele><time>2026-04-11T11:11:59.999Z</time></trkpt><trkpt lat="43.114621761406696" lon="11.44133837716127"><ele>143.39999999999998</ele><time>2026-04-11T11:12:00.999Z</time></trkpt><trkpt lat="43.11452588635046" lon="11.441343121462578"><ele>142.2</ele><time>2026-04-11T11:12:01.999Z</time></trkpt><trkpt lat="43.1144309055898" lon="11.441350240488996"><ele>141.0</ele><time>2026-04-11T11:12:03Z</time></trkpt><trkpt lat="43.11433879579248" lon="11.441361728393364"><ele>141.0</ele><time>2026-04-11T11:12:04Z</time></trkpt><trkpt lat="43.114247458010404" lon="11.44137273472781"><ele>141.0</ele><time>2026-04-11T11:12:05Z</time></trkpt><trkpt lat="43.11415767970049" lon="11.441380953301781"><ele>141.0</ele><time>2026-04-11T11:12:06Z</time></trkpt><trkpt lat="43.11406623662201" lon="11.44138604494807"><ele>141.0</ele><time>2026-04-11T11:12:07Z</time></trkpt><trkpt lat="43.113977186149036" lon="11.441388957744657"><ele>141.0</ele><time>2026-04-11T11:12:08Z</time></trkpt><trkpt lat="43.113883164411746" lon="11.441392732865385"><ele>140.5</ele><time>2026-04-11T11:12:09Z</time></trkpt><trkpt lat="43.11379511013832" lon="11.441397767826036"><ele>140.0</ele><time>2026-04-11T11:12:10Z</time></trkpt><trkpt lat="43.11370406649861" lon="11.441404935049583"><ele>139.5</ele><time>2026-04-11T11:12:11Z</time></trkpt><trkpt lat="43.11361677024778" lon="11.441418307147822"><ele>139.0</ele><time>2026-04-11T11:12:12Z</time></trkpt><trkpt lat="43.113527734264885" lon="11.441431679988424"><ele>138.5</ele><time>2026-04-11T11:12:13Z</time></trkpt><trkpt lat="43.1134400111697" lon="11.441439414896962"><ele>138.0</ele><time>2026-04-11T11:12:14Z</time></trkpt><trkpt lat="43.11335082662574" lon="11.441447440861449"><ele>138.0</ele><time>2026-04-11T11:12:15Z</time></trkpt><trkpt lat="43.113257322995494" lon="11.44143928806999"><ele>138.0</ele><time>2026-04-11T11:12:16Z</time></trkpt><trkpt lat="43.11317476283278" lon="11.441463092830016"><ele>138.0</ele><time>2026-04-11T11:12:17Z</time></trkpt><trkpt lat="43.113087185216244" lon="11.441472881590112"><ele>138.0</ele><time>2026-04-11T11:12:18Z</time></trkpt><trkpt lat="43.112999595791486" lon="11.441481388371805"><ele>138.0</ele><time>2026-04-11T11:12:19Z</time></trkpt><trkpt lat="43.11291662807102" lon="11.441494414122454"><ele>138.0</ele><time>2026-04-11T11:12:20Z</time></trkpt><trkpt lat="43.112827561804366" lon="11.44150222243783"><ele>137.83333333333334</ele><time>2026-04-11T11:12:21Z</time></trkpt><trkpt lat="43.11274128181155" lon="11.441507815431144"><ele>137.66666666666666</ele><time>2026-04-11T11:12:22Z</time></trkpt><trkpt lat="43.11265674858508" lon="11.441512326834031"><ele>137.5</ele><time>2026-04-11T11:12:23Z</time></trkpt><trkpt lat="43.11256954796441" lon="11.441518139271274"><ele>137.33333333333331</ele><time>2026-04-11T11:12:24Z</time></trkpt><trkpt lat="43.11248480812094" lon="11.441528189863298"><ele>137.16666666666666</ele><time>2026-04-11T11:12:25Z</time></trkpt><trkpt lat="43.11239904200388" lon="11.441535528513192"><ele>137.0</ele><time>2026-04-11T11:12:26Z</time></trkpt><trkpt lat="43.112316194144235" lon="11.441540763287325"><ele>136.83333333333331</ele><time>2026-04-11T11:12:27Z</time></trkpt><trkpt lat="43.11223174315998" lon="11.441549225394995"><ele>136.66666666666666</ele><time>2026-04-11T11:12:28Z</time></trkpt><trkpt lat="43.1121490997743" lon="11.441557724797015"><ele>136.5</ele><time>2026-04-11T11:12:29Z</time></trkpt><trkpt lat="43.11206359353413" lon="11.441566110427152"><ele>136.33333333333334</ele><time>2026-04-11T11:12:30Z</time></trkpt><trkpt lat="43.111979994238496" lon="11.441576131795141"><ele>136.16666666666669</ele><time>2026-04-11T11:12:31Z</time></trkpt><trkpt lat="43.11189730053329" lon="11.441585309733293"><ele>136.0</ele><time>2026-04-11T11:12:32Z</time></trkpt><trkpt lat="43.11181485837794" lon="11.441592272003543"><ele>136.0</ele><time>2026-04-11T11:12:33Z</time></trkpt><trkpt lat="43.111731834724814" lon="11.441599482107549"><ele>136.0</ele><time>2026-04-11T11:12:34Z</time></trkpt><trkpt lat="43.111652006463125" lon="11.44160533967295"><ele>136.0</ele><time>2026-04-11T11:12:35Z</time></trkpt><trkpt lat="43.11157524898244" lon="11.441614878939808"><ele>136.0</ele><time>2026-04-11T11:12:36Z</time></trkpt><trkpt lat="43.111498426752824" lon="11.441625674810457"><ele>136.0</ele><time>2026-04-11T11:12:37Z</time></trkpt><trkpt lat="43.1114253146226" lon="11.441635339279868"><ele>136.0</ele><time>2026-04-11T11:12:38Z</time></trkpt><trkpt lat="43.11135196470662" lon="11.441641990312567"><ele>135.83333333333334</ele><time>2026-04-11T11:12:39Z</time></trkpt><trkpt lat="43.11128155184913" lon="11.44165730970834"><ele>135.66666666666669</ele><time>2026-04-11T11:12:40Z</time></trkpt><trkpt lat="43.11120822716129" lon="11.441679541644698"><ele>135.5</ele><time>2026-04-11T11:12:41Z</time></trkpt><trkpt lat="43.111129381941986" lon="11.44167127461046"><ele>135.33333333333334</ele><time>2026-04-11T11:12:42Z</time></trkpt><trkpt lat="43.11105328860278" lon="11.44170631298211"><ele>135.16666666666666</ele><time>2026-04-11T11:12:43Z</time></trkpt><trkpt lat="43.11098043032941" lon="11.441715352709519"><ele>135.0</ele><time>2026-04-11T11:12:44Z</time></trkpt><trkpt lat="43.11090065527056" lon="11.441721242838993"><ele>135.0</ele><time>2026-04-11T11:12:45Z</time></trkpt><trkpt lat="43.11082177832111" lon="11.441727480713652"><ele>135.0</ele><time>2026-04-11T11:12:46Z</time></trkpt><trkpt lat="43.1107430710194" lon="11.441731297579933"><ele>135.0</ele><time>2026-04-11T11:12:47Z</time></trkpt><trkpt lat="43.11066407124164" lon="11.441735638284646"><ele>135.0</ele><time>2026-04-11T11:12:48Z</time></trkpt><trkpt lat="43.11058598649709" lon="11.441715365111754"><ele>135.0</ele><time>2026-04-11T11:12:49Z</time></trkpt><trkpt lat="43.11050885322384" lon="11.441716278241277"><ele>135.0</ele><time>2026-04-11T11:12:50Z</time></trkpt><trkpt lat="43.110432952980446" lon="11.441737653320164"><ele>134.71428571428572</ele><time>2026-04-11T11:12:51Z</time></trkpt><trkpt lat="43.110356015114995" lon="11.441738467154998"><ele>134.42857142857142</ele><time>2026-04-11T11:12:52Z</time></trkpt><trkpt lat="43.11027904199795" lon="11.44174450095255"><ele>134.14285714285714</ele><time>2026-04-11T11:12:53Z</time></trkpt><trkpt lat="43.110204932722624" lon="11.441754416389145"><ele>133.85714285714286</ele><time>2026-04-11T11:12:54Z</time></trkpt><trkpt lat="43.11012884830884" lon="11.441767391752549"><ele>133.57142857142856</ele><time>2026-04-11T11:12:55Z</time></trkpt><trkpt lat="43.11005770789597" lon="11.44178499735528"><ele>133.28571428571428</ele><time>2026-04-11T11:12:56Z</time></trkpt><trkpt lat="43.10998792674943" lon="11.441807070972077"><ele>133.0</ele><time>2026-04-11T11:12:57Z</time></trkpt><trkpt lat="43.109920963403674" lon="11.441830738955158"><ele>133.0</ele><time>2026-04-11T11:12:58Z</time></trkpt><trkpt lat="43.10985778507999" lon="11.441854139040974"><ele>133.0</ele><time>2026-04-11T11:12:59Z</time></trkpt><trkpt lat="43.10979453367544" lon="11.441883510014955"><ele>133.0</ele><time>2026-04-11T11:13:00Z</time></trkpt><trkpt lat="43.10973208484249" lon="11.44191063356391"><ele>133.0</ele><time>2026-04-11T11:13:01Z</time></trkpt><trkpt lat="43.10966737229008" lon="11.441937665527433"><ele>133.0</ele><time>2026-04-11T11:13:02Z</time></trkpt><trkpt lat="43.109605010008835" lon="11.441971238724845"><ele>133.0</ele><time>2026-04-11T11:13:03Z</time></trkpt><trkpt lat="43.109542825077796" lon="11.442004881919605"><ele>133.0</ele><time>2026-04-11T11:13:04Z</time></trkpt><trkpt lat="43.10947968743265" lon="11.4420339769997"><ele>133.0</ele><time>2026-04-11T11:13:05Z</time></trkpt><trkpt lat="43.10941467586341" lon="11.442058257911723"><ele>133.0</ele><time>2026-04-11T11:13:06Z</time></trkpt><trkpt lat="43.109348036995364" lon="11.442081312425998"><ele>133.0</ele><time>2026-04-11T11:13:07Z</time></trkpt><trkpt lat="43.10928312197153" lon="11.44210468645037"><ele>133.0</ele><time>2026-04-11T11:13:08Z</time></trkpt><trkpt lat="43.109216839492234" lon="11.44212991921491"><ele>133.0</ele><time>2026-04-11T11:13:09Z</time></trkpt><trkpt lat="43.10915072084279" lon="11.442149515510865"><ele>133.0</ele><time>2026-04-11T11:13:10Z</time></trkpt><trkpt lat="43.109080885752896" lon="11.442165603270524"><ele>133.0</ele><time>2026-04-11T11:13:11Z</time></trkpt><trkpt lat="43.10901378072272" lon="11.44218137952537"><ele>133.0</ele><time>2026-04-11T11:13:12Z</time></trkpt><trkpt lat="43.10894741814184" lon="11.442200735326676"><ele>133.0</ele><time>2026-04-11T11:13:13Z</time></trkpt><trkpt lat="43.10888164303325" lon="11.442217449657125"><ele>133.0</ele><time>2026-04-11T11:13:14Z</time></trkpt><trkpt lat="43.10881528607001" lon="11.442228550248336"><ele>133.0</ele><time>2026-04-11T11:13:15Z</time></trkpt><trkpt lat="43.10874911523333" lon="11.44224135520751"><ele>133.0</ele><time>2026-04-11T11:13:16Z</time></trkpt><trkpt lat="43.10868647053625" lon="11.442257288295206"><ele>133.0</ele><time>2026-04-11T11:13:17Z</time></trkpt><trkpt lat="43.108620440249794" lon="11.44227530899851"><ele>133.0</ele><time>2026-04-11T11:13:18Z</time></trkpt><trkpt lat="43.108555241731786" lon="11.442289287646235"><ele>133.0</ele><time>2026-04-11T11:13:19Z</time></trkpt><trkpt lat="43.10849148689847" lon="11.442300963850032"><ele>133.0</ele><time>2026-04-11T11:13:20Z</time></trkpt><trkpt lat="43.10842646316397" lon="11.442313780854825"><ele>133.0</ele><time>2026-04-11T11:13:21Z</time></trkpt><trkpt lat="43.108362476462744" lon="11.442327334308246"><ele>133.0</ele><time>2026-04-11T11:13:22Z</time></trkpt><trkpt lat="43.10829899159353" lon="11.442344234338613"><ele>133.0</ele><time>2026-04-11T11:13:23Z</time></trkpt><trkpt lat="43.108233345743706" lon="11.442357481886818"><ele>133.0</ele><time>2026-04-11T11:13:24Z</time></trkpt><trkpt lat="43.10816697305686" lon="11.44236659978372"><ele>133.0</ele><time>2026-04-11T11:13:25Z</time></trkpt><trkpt lat="43.1081032490517" lon="11.442374801790262"><ele>133.16666666666669</ele><time>2026-04-11T11:13:26Z</time></trkpt><trkpt lat="43.10803719885773" lon="11.442383984507439"><ele>133.33333333333334</ele><time>2026-04-11T11:13:27Z</time></trkpt><trkpt lat="43.10797308515324" lon="11.442395805095346"><ele>133.5</ele><time>2026-04-11T11:13:28Z</time></trkpt><trkpt lat="43.10791016926934" lon="11.442409618966385"><ele>133.66666666666666</ele><time>2026-04-11T11:13:29Z</time></trkpt><trkpt lat="43.10779094292962" lon="11.44244922041955"><ele>133.83333333333331</ele><time>2026-04-11T11:13:31Z</time></trkpt><trkpt lat="43.107667187815345" lon="11.442462761836357"><ele>134.0</ele><time>2026-04-11T11:13:33Z</time></trkpt><trkpt lat="43.10760300148501" lon="11.442462933278598"><ele>134.0</ele><time>2026-04-11T11:13:34Z</time></trkpt><trkpt lat="43.107538009238795" lon="11.442456584323782"><ele>134.0</ele><time>2026-04-11T11:13:35Z</time></trkpt><trkpt lat="43.107478660504356" lon="11.442406480688382"><ele>134.0</ele><time>2026-04-11T11:13:36Z</time></trkpt><trkpt lat="43.1074183901713" lon="11.442365573016561"><ele>134.0</ele><time>2026-04-11T11:13:37Z</time></trkpt><trkpt lat="43.1073636051671" lon="11.442309348027607"><ele>134.0</ele><time>2026-04-11T11:13:38Z</time></trkpt><trkpt lat="43.10731964137795" lon="11.44224070400607"><ele>134.0</ele><time>2026-04-11T11:13:39Z</time></trkpt><trkpt lat="43.10726932349695" lon="11.442168339557973"><ele>134.0</ele><time>2026-04-11T11:13:40Z</time></trkpt><trkpt lat="43.10722129056681" lon="11.44209739717964"><ele>133.57142857142858</ele><time>2026-04-11T11:13:41Z</time></trkpt><trkpt lat="43.107171750769076" lon="11.442024142800209"><ele>133.14285714285714</ele><time>2026-04-11T11:13:42Z</time></trkpt><trkpt lat="43.10712209709633" lon="11.44195072007117"><ele>132.71428571428572</ele><time>2026-04-11T11:13:43Z</time></trkpt><trkpt lat="43.10707177920489" lon="11.441877227135484"><ele>132.28571428571428</ele><time>2026-04-11T11:13:44Z</time></trkpt><trkpt lat="43.107020528149675" lon="11.441803265247179"><ele>131.85714285714286</ele><time>2026-04-11T11:13:45Z</time></trkpt><trkpt lat="43.10696932571406" lon="11.441732864221901"><ele>131.42857142857144</ele><time>2026-04-11T11:13:46Z</time></trkpt><trkpt lat="43.10691816470334" lon="11.44166252022344"><ele>131.0</ele><time>2026-04-11T11:13:47Z</time></trkpt><trkpt lat="43.10686806841976" lon="11.441593640160644"><ele>131.0</ele><time>2026-04-11T11:13:48Z</time></trkpt><trkpt lat="43.106820853192104" lon="11.44152872144386"><ele>131.0</ele><time>2026-04-11T11:13:49Z</time></trkpt><trkpt lat="43.10677310354806" lon="11.441463067898962"><ele>131.0</ele><time>2026-04-11T11:13:50Z</time></trkpt><trkpt lat="43.10672698018275" lon="11.441397291204138"><ele>131.0</ele><time>2026-04-11T11:13:51Z</time></trkpt><trkpt lat="43.106679956137555" lon="11.441329156808141"><ele>131.0</ele><time>2026-04-11T11:13:52Z</time></trkpt><trkpt lat="43.10663313042722" lon="11.441261309678278"><ele>131.0</ele><time>2026-04-11T11:13:53Z</time></trkpt><trkpt lat="43.10658893705896" lon="11.441197276668209"><ele>131.0</ele><time>2026-04-11T11:13:54Z</time></trkpt><trkpt lat="43.10654386896517" lon="11.44113197624293"><ele>131.0</ele><time>2026-04-11T11:13:55Z</time></trkpt><trkpt lat="43.106498967399986" lon="11.441067769234342"><ele>131.0</ele><time>2026-04-11T11:13:56Z</time></trkpt><trkpt lat="43.10645275733465" lon="11.441002597816892"><ele>131.0</ele><time>2026-04-11T11:13:57Z</time></trkpt><trkpt lat="43.10640564248069" lon="11.440936150294991"><ele>131.0</ele><time>2026-04-11T11:13:58Z</time></trkpt><trkpt lat="43.106359349293285" lon="11.440870861676558"><ele>131.0</ele><time>2026-04-11T11:13:59Z</time></trkpt><trkpt lat="43.10631505816119" lon="11.440808396590329"><ele>131.0</ele><time>2026-04-11T11:14:00Z</time></trkpt><trkpt lat="43.10626918507632" lon="11.440743700394592"><ele>131.0</ele><time>2026-04-11T11:14:01Z</time></trkpt><trkpt lat="43.10622490176832" lon="11.440681246314837"><ele>131.0</ele><time>2026-04-11T11:14:02Z</time></trkpt><trkpt lat="43.10617710582025" lon="11.440613838378589"><ele>131.0</ele><time>2026-04-11T11:14:03Z</time></trkpt><trkpt lat="43.10608977111434" lon="11.440490667410119"><ele>131.0</ele><time>2026-04-11T11:14:05Z</time></trkpt><trkpt lat="43.10600129503728" lon="11.440365887117435"><ele>131.0</ele><time>2026-04-11T11:14:07Z</time></trkpt><trkpt lat="43.105956670689274" lon="11.440302952009933"><ele>131.0</ele><time>2026-04-11T11:14:08Z</time></trkpt><trkpt lat="43.105870454901556" lon="11.440184303031113"><ele>131.0</ele><time>2026-04-11T11:14:10Z</time></trkpt><trkpt lat="43.10578276802812" lon="11.44006761267766"><ele>131.0</ele><time>2026-04-11T11:14:12Z</time></trkpt><trkpt lat="43.10569056263181" lon="11.43995283235402"><ele>131.0</ele><time>2026-04-11T11:14:14Z</time></trkpt><trkpt lat="43.105598214782965" lon="11.439840355629396"><ele>131.0</ele><time>2026-04-11T11:14:16Z</time></trkpt><trkpt lat="43.10550778812868" lon="11.439729111519929"><ele>130.6</ele><time>2026-04-11T11:14:18Z</time></trkpt><trkpt lat="43.10542051840355" lon="11.439615338267133"><ele>130.2</ele><time>2026-04-11T11:14:20Z</time></trkpt><trkpt lat="43.105373452365676" lon="11.439552819173644"><ele>129.8</ele><time>2026-04-11T11:14:21Z</time></trkpt><trkpt lat="43.10529638981416" lon="11.43943922681197"><ele>129.4</ele><time>2026-04-11T11:14:23Z</time></trkpt><trkpt lat="43.10521794603569" lon="11.43931529280776"><ele>129.0</ele><time>2026-04-11T11:14:25Z</time></trkpt><trkpt lat="43.105150444500225" lon="11.4391876228896"><ele>129.0</ele><time>2026-04-11T11:14:27Z</time></trkpt><trkpt lat="43.10507946092227" lon="11.439060956503297"><ele>129.0</ele><time>2026-04-11T11:14:29Z</time></trkpt><trkpt lat="43.10500250265363" lon="11.438937812726662"><ele>129.0</ele><time>2026-04-11T11:14:31Z</time></trkpt><trkpt lat="43.10496088984062" lon="11.438873104623712"><ele>129.0</ele><time>2026-04-11T11:14:32Z</time></trkpt><trkpt lat="43.10487539797177" lon="11.438741298320343"><ele>129.0</ele><time>2026-04-11T11:14:34Z</time></trkpt><trkpt lat="43.10483320321416" lon="11.43867726711792"><ele>129.4</ele><time>2026-04-11T11:14:35Z</time></trkpt><trkpt lat="43.10474518326281" lon="11.438550466439695"><ele>129.8</ele><time>2026-04-11T11:14:37Z</time></trkpt><trkpt lat="43.10466153221752" lon="11.43843383995226"><ele>130.2</ele><time>2026-04-11T11:14:39Z</time></trkpt><trkpt lat="43.104616784581076" lon="11.438372422668529"><ele>130.6</ele><time>2026-04-11T11:14:40Z</time></trkpt><trkpt lat="43.10453043650172" lon="11.43825390761175"><ele>131.0</ele><time>2026-04-11T11:14:42Z</time></trkpt><trkpt lat="43.10444374924459" lon="11.438134927115394"><ele>131.0</ele><time>2026-04-11T11:14:44Z</time></trkpt><trkpt lat="43.10435548350876" lon="11.438013779978458"><ele>131.0</ele><time>2026-04-11T11:14:46Z</time></trkpt><trkpt lat="43.104268744020416" lon="11.437894727662169"><ele>131.0</ele><time>2026-04-11T11:14:48Z</time></trkpt><trkpt lat="43.1041821940353" lon="11.437775318670349"><ele>131.0</ele><time>2026-04-11T11:14:50Z</time></trkpt><trkpt lat="43.104104681783966" lon="11.437668225402206"><ele>131.2</ele><time>2026-04-11T11:14:52Z</time></trkpt><trkpt lat="43.10402260606648" lon="11.437554638857613"><ele>131.39999999999998</ele><time>2026-04-11T11:14:54Z</time></trkpt><trkpt lat="43.10394769790347" lon="11.437446688497957"><ele>131.6</ele><time>2026-04-11T11:14:56Z</time></trkpt><trkpt lat="43.10387263823028" lon="11.437338519746127"><ele>131.79999999999998</ele><time>2026-04-11T11:14:58Z</time></trkpt><trkpt lat="43.10379965665748" lon="11.43723334588492"><ele>132.0</ele><time>2026-04-11T11:15:00Z</time></trkpt><trkpt lat="43.10373033190967" lon="11.437133442872618"><ele>132.4</ele><time>2026-04-11T11:15:02Z</time></trkpt><trkpt lat="43.10365854195037" lon="11.437031321166039"><ele>132.79999999999998</ele><time>2026-04-11T11:15:04Z</time></trkpt><trkpt lat="43.1035900678668" lon="11.436934543732539"><ele>133.2</ele><time>2026-04-11T11:15:06Z</time></trkpt><trkpt lat="43.103532561453115" lon="11.43685326738378"><ele>133.6</ele><time>2026-04-11T11:15:09Z</time></trkpt><trkpt lat="43.103449005251356" lon="11.43675962690247"><ele>134.0</ele><time>2026-04-11T11:15:10Z</time></trkpt><trkpt lat="43.10338461494267" lon="11.436664509171344"><ele>134.0</ele><time>2026-04-11T11:15:12Z</time></trkpt><trkpt lat="43.103320352456024" lon="11.436580953644038"><ele>134.0</ele><time>2026-04-11T11:15:14Z</time></trkpt><trkpt lat="43.10326567682035" lon="11.436501247741944"><ele>134.0</ele><time>2026-04-11T11:15:16Z</time></trkpt><trkpt lat="43.10320934525093" lon="11.436410972264675"><ele>134.0</ele><time>2026-04-11T11:15:18Z</time></trkpt><trkpt lat="43.103153958817785" lon="11.436318569177852"><ele>134.0</ele><time>2026-04-11T11:15:20Z</time></trkpt><trkpt lat="43.10309203785104" lon="11.43623740039287"><ele>134.0</ele><time>2026-04-11T11:15:22Z</time></trkpt><trkpt lat="43.10303145228384" lon="11.436157982115153"><ele>134.33333333333331</ele><time>2026-04-11T11:15:24Z</time></trkpt><trkpt lat="43.102968166058076" lon="11.436094392142714"><ele>134.66666666666666</ele><time>2026-04-11T11:15:26Z</time></trkpt><trkpt lat="43.102912125075925" lon="11.436014279608234"><ele>135.0</ele><time>2026-04-11T11:15:28Z</time></trkpt><trkpt lat="43.10285966057688" lon="11.435924013088364"><ele>135.33333333333334</ele><time>2026-04-11T11:15:30Z</time></trkpt><trkpt lat="43.10280593884434" lon="11.43584860007363"><ele>135.66666666666669</ele><time>2026-04-11T11:15:32Z</time></trkpt><trkpt lat="43.10273898621636" lon="11.43579875806336"><ele>136.0</ele><time>2026-04-11T11:15:34Z</time></trkpt><trkpt lat="43.102683932543535" lon="11.43572968959737"><ele>135.99999999999997</ele><time>2026-04-11T11:15:36Z</time></trkpt><trkpt lat="43.10262992077033" lon="11.43566497055582"><ele>136.0</ele><time>2026-04-11T11:15:38Z</time></trkpt><trkpt lat="43.10258688356557" lon="11.435594913390831"><ele>136.0</ele><time>2026-04-11T11:15:40Z</time></trkpt><trkpt lat="43.102539774771095" lon="11.435525138894144"><ele>136.0</ele><time>2026-04-11T11:15:42Z</time></trkpt><trkpt lat="43.10248951658964" lon="11.43545312199866"><ele>136.0</ele><time>2026-04-11T11:15:44Z</time></trkpt><trkpt lat="43.10243641110187" lon="11.435381782003244"><ele>135.99999999999997</ele><time>2026-04-11T11:15:46Z</time></trkpt><trkpt lat="43.10238606084907" lon="11.435303644420783"><ele>136.0</ele><time>2026-04-11T11:15:48Z</time></trkpt><trkpt lat="43.10233838266558" lon="11.435223198818724"><ele>136.42857142857142</ele><time>2026-04-11T11:15:50Z</time></trkpt><trkpt lat="43.10229298111825" lon="11.435146107651024"><ele>136.85714285714286</ele><time>2026-04-11T11:15:52Z</time></trkpt><trkpt lat="43.10225122869477" lon="11.435068043155661"><ele>137.28571428571428</ele><time>2026-04-11T11:15:54Z</time></trkpt><trkpt lat="43.10221663436525" lon="11.43499031769063"><ele>137.71428571428572</ele><time>2026-04-11T11:15:56Z</time></trkpt><trkpt lat="43.10218665035062" lon="11.434908185842113"><ele>138.14285714285714</ele><time>2026-04-11T11:15:59Z</time></trkpt><trkpt lat="43.10216522492364" lon="11.434812135711214"><ele>138.57142857142856</ele><time>2026-04-11T11:16:01Z</time></trkpt><trkpt lat="43.10215617244784" lon="11.434709516204572"><ele>139.0</ele><time>2026-04-11T11:16:04Z</time></trkpt><trkpt lat="43.10216680449379" lon="11.434606567811588"><ele>140.0</ele><time>2026-04-11T11:16:07Z</time></trkpt><trkpt lat="43.102181819605086" lon="11.434502823352071"><ele>141.0</ele><time>2026-04-11T11:16:10Z</time></trkpt><trkpt lat="43.10221002414307" lon="11.434396781382217"><ele>142.0</ele><time>2026-04-11T11:16:13Z</time></trkpt><trkpt lat="43.102228329047506" lon="11.434290075970122"><ele>143.0</ele><time>2026-04-11T11:16:16Z</time></trkpt><trkpt lat="43.1022505284793" lon="11.434188241694173"><ele>144.0</ele><time>2026-04-11T11:16:19Z</time></trkpt><trkpt lat="43.10227135995523" lon="11.434074642969142"><ele>145.0</ele><time>2026-04-11T11:16:22Z</time></trkpt><trkpt lat="43.10228219892897" lon="11.433985780115373"><ele>145.0</ele><time>2026-04-11T11:16:25Z</time></trkpt><trkpt lat="43.10229760076062" lon="11.433885472257517"><ele>145.0</ele><time>2026-04-11T11:16:28Z</time></trkpt><trkpt lat="43.10231262396308" lon="11.433781778453254"><ele>145.0</ele><time>2026-04-11T11:16:31Z</time></trkpt><trkpt lat="43.102326981002435" lon="11.43366793198729"><ele>145.0</ele><time>2026-04-11T11:16:33Z</time></trkpt><trkpt lat="43.10232989412749" lon="11.433561804590889"><ele>145.0</ele><time>2026-04-11T11:16:36Z</time></trkpt><trkpt lat="43.10232595196352" lon="11.433447508366577"><ele>145.0</ele><time>2026-04-11T11:16:39Z</time></trkpt><trkpt lat="43.10231920600073" lon="11.43334010609443"><ele>145.16666666666669</ele><time>2026-04-11T11:16:42Z</time></trkpt><trkpt lat="43.102304653660134" lon="11.43322164141346"><ele>145.33333333333334</ele><time>2026-04-11T11:16:46Z</time></trkpt><trkpt lat="43.102286630029674" lon="11.43311320042698"><ele>145.5</ele><time>2026-04-11T11:16:48Z</time></trkpt><trkpt lat="43.10226320982872" lon="11.43300856332975"><ele>145.66666666666666</ele><time>2026-04-11T11:16:51Z</time></trkpt><trkpt lat="43.1022249042524" lon="11.432908475897387"><ele>145.83333333333331</ele><time>2026-04-11T11:16:54Z</time></trkpt><trkpt lat="43.10219350291913" lon="11.432814401927446"><ele>146.0</ele><time>2026-04-11T11:16:57Z</time></trkpt><trkpt lat="43.10214434009822" lon="11.432725389787358"><ele>146.0</ele><time>2026-04-11T11:17:01Z</time></trkpt><trkpt lat="43.10209531320178" lon="11.432659669318566"><ele>146.0</ele><time>2026-04-11T11:17:04Z</time></trkpt><trkpt lat="43.10204061428226" lon="11.432600249346388"><ele>146.0</ele><time>2026-04-11T11:17:07Z</time></trkpt><trkpt lat="43.10196620169538" lon="11.432563803424861"><ele>146.0</ele><time>2026-04-11T11:17:11Z</time></trkpt><trkpt lat="43.10190028747125" lon="11.432511531883708"><ele>146.0</ele><time>2026-04-11T11:17:15Z</time></trkpt><trkpt lat="43.101825753565706" lon="11.432480158246014"><ele>146.0</ele><time>2026-04-11T11:17:19Z</time></trkpt><trkpt lat="43.10175333059246" lon="11.43248285590131"><ele>146.0</ele><time>2026-04-11T11:17:23Z</time></trkpt><trkpt lat="43.10167877246466" lon="11.432470188613655"><ele>146.0</ele><time>2026-04-11T11:17:27Z</time></trkpt><trkpt lat="43.10160490517303" lon="11.432446873214866"><ele>146.0</ele><time>2026-04-11T11:17:31Z</time></trkpt><trkpt lat="43.10152913640925" lon="11.432444145806503"><ele>146.0</ele><time>2026-04-11T11:17:34Z</time></trkpt><trkpt lat="43.101454561240075" lon="11.43243778684498"><ele>146.0</ele><time>2026-04-11T11:17:38Z</time></trkpt><trkpt lat="43.1013856976801" lon="11.432434251464247"><ele>146.0</ele><time>2026-04-11T11:17:41Z</time></trkpt><trkpt lat="43.10131482448392" lon="11.432421011472318"><ele>146.0</ele><time>2026-04-11T11:17:45Z</time></trkpt><trkpt lat="43.101238877932666" lon="11.432411755682711"><ele>146.0</ele><time>2026-04-11T11:17:48Z</time></trkpt><trkpt lat="43.10115423856724" lon="11.432405769519812"><ele>147.0</ele><time>2026-04-11T11:17:52Z</time></trkpt><trkpt lat="43.101078232529694" lon="11.432386197695017"><ele>148.0</ele><time>2026-04-11T11:17:56Z</time></trkpt><trkpt lat="43.10099556577232" lon="11.432383795578039"><ele>149.0</ele><time>2026-04-11T11:18:00Z</time></trkpt><trkpt lat="43.100910036236705" lon="11.432382255961013"><ele>150.0</ele><time>2026-04-11T11:18:04Z</time></trkpt><trkpt lat="43.100833130797604" lon="11.432372580437585"><ele>151.0</ele><time>2026-04-11T11:18:07Z</time></trkpt><trkpt lat="43.10075446561037" lon="11.43236450076902"><ele>152.0</ele><time>2026-04-11T11:18:10Z</time></trkpt><trkpt lat="43.10068653345494" lon="11.432365719589283"><ele>152.85714285714286</ele><time>2026-04-11T11:18:13Z</time></trkpt><trkpt lat="43.100613717375694" lon="11.432361851507535"><ele>153.71428571428572</ele><time>2026-04-11T11:18:16Z</time></trkpt><trkpt lat="43.100540036762766" lon="11.432349621153628"><ele>154.57142857142858</ele><time>2026-04-11T11:18:19Z</time></trkpt><trkpt lat="43.10046889919384" lon="11.432347830692667"><ele>155.42857142857144</ele><time>2026-04-11T11:18:22Z</time></trkpt><trkpt lat="43.1003969732586" lon="11.432340732103263"><ele>156.28571428571428</ele><time>2026-04-11T11:18:25Z</time></trkpt><trkpt lat="43.10032685693353" lon="11.432332707446287"><ele>157.14285714285717</ele><time>2026-04-11T11:18:28Z</time></trkpt><trkpt lat="43.10025964305022" lon="11.432330193375526"><ele>158.0</ele><time>2026-04-11T11:18:31Z</time></trkpt><trkpt lat="43.10018884381804" lon="11.432321449028363"><ele>158.00000000000003</ele><time>2026-04-11T11:18:34Z</time></trkpt><trkpt lat="43.10012161271402" lon="11.432312200777975"><ele>158.0</ele><time>2026-04-11T11:18:37Z</time></trkpt><trkpt lat="43.10005594251359" lon="11.43231583190409"><ele>158.0</ele><time>2026-04-11T11:18:40Z</time></trkpt><trkpt lat="43.09999178150353" lon="11.432307767531311"><ele>158.0</ele><time>2026-04-11T11:18:43Z</time></trkpt><trkpt lat="43.09992748515769" lon="11.432303964931993"><ele>158.0</ele><time>2026-04-11T11:18:46Z</time></trkpt><trkpt lat="43.09984667971131" lon="11.432294482396257"><ele>158.00000000000003</ele><time>2026-04-11T11:18:50Z</time></trkpt><trkpt lat="43.09976327163796" lon="11.432282112650098"><ele>158.0</ele><time>2026-04-11T11:18:54Z</time></trkpt><trkpt lat="43.0996824656778" lon="11.432277467617642"><ele>158.5</ele><time>2026-04-11T11:18:58Z</time></trkpt><trkpt lat="43.099610619240636" lon="11.432258562168458"><ele>159.0</ele><time>2026-04-11T11:19:02Z</time></trkpt><trkpt lat="43.0995331656332" lon="11.432283707702398"><ele>159.5</ele><time>2026-04-11T11:19:06Z</time></trkpt><trkpt lat="43.099458658343295" lon="11.43225922867637"><ele>160.0</ele><time>2026-04-11T11:19:10Z</time></trkpt><trkpt lat="43.099379171597356" lon="11.432243050455272"><ele>160.5</ele><time>2026-04-11T11:19:14Z</time></trkpt><trkpt lat="43.099316235481204" lon="11.432246584059438"><ele>161.0</ele><time>2026-04-11T11:19:17Z</time></trkpt><trkpt lat="43.099236543468415" lon="11.432237321143864"><ele>161.0</ele><time>2026-04-11T11:19:21Z</time></trkpt><trkpt lat="43.09916722317864" lon="11.432228556951017"><ele>161.0</ele><time>2026-04-11T11:19:24Z</time></trkpt><trkpt lat="43.09910162781461" lon="11.432229532272911"><ele>161.0</ele><time>2026-04-11T11:19:27Z</time></trkpt><trkpt lat="43.09903077048163" lon="11.43222559138906"><ele>161.0</ele><time>2026-04-11T11:19:30Z</time></trkpt><trkpt lat="43.098965761276915" lon="11.4322086999761"><ele>161.0</ele><time>2026-04-11T11:19:33Z</time></trkpt><trkpt lat="43.09889742255451" lon="11.432200445234301"><ele>161.0</ele><time>2026-04-11T11:19:36Z</time></trkpt><trkpt lat="43.098829428489324" lon="11.432189616757384"><ele>161.0</ele><time>2026-04-11T11:19:39Z</time></trkpt><trkpt lat="43.09876020697255" lon="11.432174455111847"><ele>160.33333333333331</ele><time>2026-04-11T11:19:42Z</time></trkpt><trkpt lat="43.09869103098494" lon="11.432150564457631"><ele>159.66666666666666</ele><time>2026-04-11T11:19:45Z</time></trkpt><trkpt lat="43.09861881084677" lon="11.432117434050687"><ele>159.0</ele><time>2026-04-11T11:19:47.999Z</time></trkpt><trkpt lat="43.098544363803136" lon="11.432076712820127"><ele>158.33333333333334</ele><time>2026-04-11T11:19:50.999Z</time></trkpt><trkpt lat="43.09846786663707" lon="11.432031852217598"><ele>157.66666666666669</ele><time>2026-04-11T11:19:53.999Z</time></trkpt><trkpt lat="43.09839594809987" lon="11.431973996481812"><ele>157.0</ele><time>2026-04-11T11:19:56.999Z</time></trkpt><trkpt lat="43.09832080351645" lon="11.431916048720073"><ele>158.0</ele><time>2026-04-11T11:19:59.999Z</time></trkpt><trkpt lat="43.0982487738364" lon="11.43185979411952"><ele>159.0</ele><time>2026-04-11T11:20:03Z</time></trkpt><trkpt lat="43.098179819003924" lon="11.431799133955586"><ele>160.0</ele><time>2026-04-11T11:20:06Z</time></trkpt><trkpt lat="43.09811147325614" lon="11.431741754213615"><ele>161.0</ele><time>2026-04-11T11:20:08Z</time></trkpt><trkpt lat="43.09803583760626" lon="11.431674950034632"><ele>162.0</ele><time>2026-04-11T11:20:11Z</time></trkpt><trkpt lat="43.09795680710336" lon="11.431613427417926"><ele>163.0</ele><time>2026-04-11T11:20:14Z</time></trkpt><trkpt lat="43.09787569898712" lon="11.431551227847576"><ele>163.0</ele><time>2026-04-11T11:20:17Z</time></trkpt><trkpt lat="43.09779097274944" lon="11.431476866850135"><ele>163.0</ele><time>2026-04-11T11:20:20Z</time></trkpt><trkpt lat="43.09773178436276" lon="11.43142031947908"><ele>163.0</ele><time>2026-04-11T11:20:22Z</time></trkpt><trkpt lat="43.09767541862748" lon="11.431365439732422"><ele>163.0</ele><time>2026-04-11T11:20:24Z</time></trkpt><trkpt lat="43.09761216571112" lon="11.431312817306994"><ele>163.0</ele><time>2026-04-11T11:20:27Z</time></trkpt><trkpt lat="43.0975304478423" lon="11.43126788065935"><ele>163.0</ele><time>2026-04-11T11:20:30Z</time></trkpt><trkpt lat="43.09745459662399" lon="11.4312026018154"><ele>163.66666666666669</ele><time>2026-04-11T11:20:33Z</time></trkpt><trkpt lat="43.097404315158805" lon="11.431148191594861"><ele>164.33333333333334</ele><time>2026-04-11T11:20:35Z</time></trkpt><trkpt lat="43.09732444921355" lon="11.431082697576704"><ele>165.0</ele><time>2026-04-11T11:20:38Z</time></trkpt><trkpt lat="43.097245317485125" lon="11.431005263309864"><ele>165.66666666666666</ele><time>2026-04-11T11:20:41Z</time></trkpt><trkpt lat="43.09718939399336" lon="11.430963062873227"><ele>166.33333333333331</ele><time>2026-04-11T11:20:43Z</time></trkpt><trkpt lat="43.097112448707826" lon="11.430893217106638"><ele>167.0</ele><time>2026-04-11T11:20:46Z</time></trkpt><trkpt lat="43.09703629673693" lon="11.430833525578253"><ele>167.0</ele><time>2026-04-11T11:20:49Z</time></trkpt><trkpt lat="43.09695883168726" lon="11.430775462863322"><ele>167.0</ele><time>2026-04-11T11:20:52Z</time></trkpt><trkpt lat="43.096881768930785" lon="11.43072541490835"><ele>167.0</ele><time>2026-04-11T11:20:55Z</time></trkpt><trkpt lat="43.09681206762198" lon="11.430656950106075"><ele>167.0</ele><time>2026-04-11T11:20:58Z</time></trkpt><trkpt lat="43.09675002571589" lon="11.43057456139562"><ele>167.0</ele><time>2026-04-11T11:21:01Z</time></trkpt><trkpt lat="43.09666697449785" lon="11.43047337979178"><ele>167.57142857142856</ele><time>2026-04-11T11:21:04Z</time></trkpt><trkpt lat="43.096615509909185" lon="11.430418764091934"><ele>168.14285714285714</ele><time>2026-04-11T11:21:06Z</time></trkpt><trkpt lat="43.096561821858174" lon="11.430354660556294"><ele>168.71428571428572</ele><time>2026-04-11T11:21:09Z</time></trkpt><trkpt lat="43.0965048514677" lon="11.430282192411005"><ele>169.28571428571428</ele><time>2026-04-11T11:21:12Z</time></trkpt><trkpt lat="43.09645370194339" lon="11.430212152283454"><ele>169.85714285714286</ele><time>2026-04-11T11:21:14Z</time></trkpt><trkpt lat="43.09639123458021" lon="11.430148308970837"><ele>170.42857142857142</ele><time>2026-04-11T11:21:16Z</time></trkpt><trkpt lat="43.09633942964678" lon="11.430073429350042"><ele>171.0</ele><time>2026-04-11T11:21:19Z</time></trkpt><trkpt lat="43.09628245150162" lon="11.430004929519134"><ele>171.0</ele><time>2026-04-11T11:21:22Z</time></trkpt><trkpt lat="43.0962189365882" lon="11.429921912440362"><ele>171.0</ele><time>2026-04-11T11:21:25Z</time></trkpt><trkpt lat="43.09614756580968" lon="11.429851309019798"><ele>171.0</ele><time>2026-04-11T11:21:28Z</time></trkpt><trkpt lat="43.09608171820865" lon="11.429770015490396"><ele>171.0</ele><time>2026-04-11T11:21:31Z</time></trkpt><trkpt lat="43.09600833660448" lon="11.429690728898953"><ele>171.0</ele><time>2026-04-11T11:21:33Z</time></trkpt><trkpt lat="43.09593575553691" lon="11.429629287805161"><ele>171.0</ele><time>2026-04-11T11:21:36Z</time></trkpt><trkpt lat="43.095856747310165" lon="11.429561789415175"><ele>171.66666666666666</ele><time>2026-04-11T11:21:39Z</time></trkpt><trkpt lat="43.09580057238152" lon="11.429515490989267"><ele>172.33333333333334</ele><time>2026-04-11T11:21:42Z</time></trkpt><trkpt lat="43.09572572453047" lon="11.429471973630223"><ele>173.0</ele><time>2026-04-11T11:21:45Z</time></trkpt><trkpt lat="43.09565088369791" lon="11.429409140725559"><ele>173.66666666666669</ele><time>2026-04-11T11:21:48Z</time></trkpt><trkpt lat="43.09556924857177" lon="11.429350684518578"><ele>174.33333333333334</ele><time>2026-04-11T11:21:51Z</time></trkpt><trkpt lat="43.09549237891085" lon="11.429289270253518"><ele>175.0</ele><time>2026-04-11T11:21:54Z</time></trkpt><trkpt lat="43.09541821600744" lon="11.429236546208992"><ele>175.66666666666669</ele><time>2026-04-11T11:21:57Z</time></trkpt><trkpt lat="43.09534878662943" lon="11.429191328063922"><ele>176.33333333333334</ele><time>2026-04-11T11:22:00Z</time></trkpt><trkpt lat="43.095279152071804" lon="11.429134137483263"><ele>177.0</ele><time>2026-04-11T11:22:03Z</time></trkpt><trkpt lat="43.095210710951235" lon="11.429081191452887"><ele>177.66666666666666</ele><time>2026-04-11T11:22:06Z</time></trkpt><trkpt lat="43.09513676077728" lon="11.429034184889986"><ele>178.33333333333331</ele><time>2026-04-11T11:22:09Z</time></trkpt><trkpt lat="43.095068225823454" lon="11.428981596145537"><ele>179.0</ele><time>2026-04-11T11:22:12Z</time></trkpt><trkpt lat="43.09500190285469" lon="11.428932912398034"><ele>179.00000000000003</ele><time>2026-04-11T11:22:15Z</time></trkpt><trkpt lat="43.09493945036274" lon="11.428885860707194"><ele>179.0</ele><time>2026-04-11T11:22:18Z</time></trkpt><trkpt lat="43.094878850739086" lon="11.42883873023257"><ele>179.0</ele><time>2026-04-11T11:22:21Z</time></trkpt><trkpt lat="43.09481269377474" lon="11.428802206952618"><ele>179.0</ele><time>2026-04-11T11:22:24Z</time></trkpt><trkpt lat="43.09474890261023" lon="11.428758339037856"><ele>179.0</ele><time>2026-04-11T11:22:27Z</time></trkpt><trkpt lat="43.0946746346074" lon="11.428694969477407"><ele>179.00000000000003</ele><time>2026-04-11T11:22:30Z</time></trkpt><trkpt lat="43.09460974565338" lon="11.428650455120424"><ele>179.0</ele><time>2026-04-11T11:22:33Z</time></trkpt><trkpt lat="43.09454584515589" lon="11.42860235792926"><ele>180.00000000000003</ele><time>2026-04-11T11:22:36Z</time></trkpt><trkpt lat="43.09448439386443" lon="11.428556501356308"><ele>181.0</ele><time>2026-04-11T11:22:39Z</time></trkpt><trkpt lat="43.09442361186957" lon="11.428507451641053"><ele>182.0</ele><time>2026-04-11T11:22:42Z</time></trkpt><trkpt lat="43.09436144502901" lon="11.428457290309744"><ele>183.0</ele><time>2026-04-11T11:22:45Z</time></trkpt><trkpt lat="43.09429995956941" lon="11.428417129743899"><ele>184.0</ele><time>2026-04-11T11:22:48Z</time></trkpt><trkpt lat="43.09423783564941" lon="11.428374420710831"><ele>185.00000000000003</ele><time>2026-04-11T11:22:51Z</time></trkpt><trkpt lat="43.09418293250645" lon="11.428329653049786"><ele>186.0</ele><time>2026-04-11T11:22:54Z</time></trkpt><trkpt lat="43.09411044963541" lon="11.42828023267743"><ele>186.2857142857143</ele><time>2026-04-11T11:22:58Z</time></trkpt><trkpt lat="43.09405251936916" lon="11.428241786877823"><ele>186.57142857142858</ele><time>2026-04-11T11:23:01Z</time></trkpt><trkpt lat="43.09399744325791" lon="11.428199231638246"><ele>186.85714285714286</ele><time>2026-04-11T11:23:04Z</time></trkpt><trkpt lat="43.09394092164248" lon="11.42815969831358"><ele>187.14285714285717</ele><time>2026-04-11T11:23:07Z</time></trkpt><trkpt lat="43.09388415177892" lon="11.428113927756993"><ele>187.42857142857142</ele><time>2026-04-11T11:23:10Z</time></trkpt><trkpt lat="43.09380604551954" lon="11.428061678638402"><ele>187.71428571428572</ele><time>2026-04-11T11:23:13Z</time></trkpt><trkpt lat="43.09375001269696" lon="11.428021613641192"><ele>188.0</ele><time>2026-04-11T11:23:16Z</time></trkpt><trkpt lat="43.09369278917588" lon="11.427976341853682"><ele>188.42857142857142</ele><time>2026-04-11T11:23:19Z</time></trkpt><trkpt lat="43.093630373918536" lon="11.427942296516525"><ele>188.85714285714283</ele><time>2026-04-11T11:23:22Z</time></trkpt><trkpt lat="43.09356174909139" lon="11.427892484574073"><ele>189.28571428571428</ele><time>2026-04-11T11:23:26Z</time></trkpt><trkpt lat="43.093487103741765" lon="11.427831921208087"><ele>189.71428571428572</ele><time>2026-04-11T11:23:30Z</time></trkpt><trkpt lat="43.093421480045755" lon="11.427790568664848"><ele>190.14285714285714</ele><time>2026-04-11T11:23:33Z</time></trkpt><trkpt lat="43.09336576386807" lon="11.427746649516193"><ele>190.57142857142858</ele><time>2026-04-11T11:23:36Z</time></trkpt><trkpt lat="43.09330172039587" lon="11.427702490947405"><ele>191.0</ele><time>2026-04-11T11:23:39Z</time></trkpt><trkpt lat="43.093238857097845" lon="11.427657686100368"><ele>191.42857142857144</ele><time>2026-04-11T11:23:42Z</time></trkpt><trkpt lat="43.09317729266529" lon="11.42761129899239"><ele>191.85714285714283</ele><time>2026-04-11T11:23:45Z</time></trkpt><trkpt lat="43.09311738107029" lon="11.427566843573729"><ele>192.28571428571428</ele><time>2026-04-11T11:23:48Z</time></trkpt><trkpt lat="43.09305004786222" lon="11.42752110608627"><ele>192.71428571428572</ele><time>2026-04-11T11:23:52Z</time></trkpt><trkpt lat="43.09298138595511" lon="11.427478272916417"><ele>193.14285714285717</ele><time>2026-04-11T11:23:55Z</time></trkpt><trkpt lat="43.09291918460745" lon="11.427435273203203"><ele>193.57142857142856</ele><time>2026-04-11T11:23:58Z</time></trkpt><trkpt lat="43.09286570545052" lon="11.427380597086517"><ele>194.0</ele><time>2026-04-11T11:24:01Z</time></trkpt><trkpt lat="43.092803905060585" lon="11.427340179706016"><ele>194.0</ele><time>2026-04-11T11:24:04Z</time></trkpt><trkpt lat="43.0927374873569" lon="11.427292005363872"><ele>194.0</ele><time>2026-04-11T11:24:08Z</time></trkpt><trkpt lat="43.092683055324216" lon="11.427247787370648"><ele>194.0</ele><time>2026-04-11T11:24:11Z</time></trkpt><trkpt lat="43.092624332356806" lon="11.427203704445391"><ele>194.0</ele><time>2026-04-11T11:24:14Z</time></trkpt><trkpt lat="43.092546255915835" lon="11.427150803388017"><ele>194.0</ele><time>2026-04-11T11:24:17Z</time></trkpt><trkpt lat="43.09248927382925" lon="11.427107285812484"><ele>194.0</ele><time>2026-04-11T11:24:20Z</time></trkpt><trkpt lat="43.09242193394652" lon="11.427052897291741"><ele>194.0</ele><time>2026-04-11T11:24:24Z</time></trkpt><trkpt lat="43.09236452768657" lon="11.42700536133052"><ele>194.85714285714286</ele><time>2026-04-11T11:24:27Z</time></trkpt><trkpt lat="43.09230566519896" lon="11.426963979690706"><ele>195.71428571428572</ele><time>2026-04-11T11:24:30Z</time></trkpt><trkpt lat="43.092245814174916" lon="11.426919744691874"><ele>196.57142857142858</ele><time>2026-04-11T11:24:33Z</time></trkpt><trkpt lat="43.09218691337155" lon="11.426877490966401"><ele>197.42857142857144</ele><time>2026-04-11T11:24:36Z</time></trkpt><trkpt lat="43.09212629837257" lon="11.426843305717647"><ele>198.28571428571428</ele><time>2026-04-11T11:24:39Z</time></trkpt><trkpt lat="43.0920657860862" lon="11.426796686883039"><ele>199.14285714285717</ele><time>2026-04-11T11:24:42Z</time></trkpt><trkpt lat="43.09200846323478" lon="11.426747950019267"><ele>200.0</ele><time>2026-04-11T11:24:45Z</time></trkpt><trkpt lat="43.091948397389565" lon="11.426709283748375"><ele>200.00000000000003</ele><time>2026-04-11T11:24:48Z</time></trkpt><trkpt lat="43.091891128064866" lon="11.426670511797505"><ele>200.0</ele><time>2026-04-11T11:24:51Z</time></trkpt><trkpt lat="43.09183368602817" lon="11.42663277321235"><ele>200.0</ele><time>2026-04-11T11:24:54Z</time></trkpt><trkpt lat="43.091761479217936" lon="11.426588687152554"><ele>200.0</ele><time>2026-04-11T11:24:58Z</time></trkpt><trkpt lat="43.09170812294182" lon="11.42654190821512"><ele>200.0</ele><time>2026-04-11T11:25:01Z</time></trkpt><trkpt lat="43.091651292019435" lon="11.426499044060085"><ele>200.00000000000003</ele><time>2026-04-11T11:25:04Z</time></trkpt><trkpt lat="43.09159708757522" lon="11.42645149619279"><ele>200.0</ele><time>2026-04-11T11:25:07Z</time></trkpt><trkpt lat="43.091526157978066" lon="11.426400919497047"><ele>199.85714285714286</ele><time>2026-04-11T11:25:11Z</time></trkpt><trkpt lat="43.09146655254048" lon="11.426364754282037"><ele>199.71428571428572</ele><time>2026-04-11T11:25:14Z</time></trkpt><trkpt lat="43.09140837457614" lon="11.4263237158716"><ele>199.57142857142856</ele><time>2026-04-11T11:25:17Z</time></trkpt><trkpt lat="43.09133417774734" lon="11.42627533310837"><ele>199.42857142857144</ele><time>2026-04-11T11:25:21Z</time></trkpt><trkpt lat="43.09128112150755" lon="11.426221145424647"><ele>199.28571428571428</ele><time>2026-04-11T11:25:24Z</time></trkpt><trkpt lat="43.09122203291069" lon="11.426184753680639"><ele>199.14285714285714</ele><time>2026-04-11T11:25:27Z</time></trkpt><trkpt lat="43.09116707689249" lon="11.426134963948362"><ele>199.0</ele><time>2026-04-11T11:25:30Z</time></trkpt><trkpt lat="43.09110948592224" lon="11.42609287345524"><ele>199.57142857142856</ele><time>2026-04-11T11:25:33Z</time></trkpt><trkpt lat="43.09104657347839" lon="11.426053295852341"><ele>200.14285714285714</ele><time>2026-04-11T11:25:36Z</time></trkpt><trkpt lat="43.09098782978875" lon="11.426018360956638"><ele>200.71428571428572</ele><time>2026-04-11T11:25:39Z</time></trkpt><trkpt lat="43.090924253774126" lon="11.425988436832442"><ele>201.28571428571428</ele><time>2026-04-11T11:25:42Z</time></trkpt><trkpt lat="43.09085785946651" lon="11.425966359922535"><ele>201.85714285714286</ele><time>2026-04-11T11:25:45Z</time></trkpt><trkpt lat="43.090789174088236" lon="11.42595372950124"><ele>202.42857142857142</ele><time>2026-04-11T11:25:48Z</time></trkpt><trkpt lat="43.09072249536486" lon="11.425935477488288"><ele>203.0</ele><time>2026-04-11T11:25:51Z</time></trkpt><trkpt lat="43.09065605990042" lon="11.425916197926043"><ele>203.85714285714286</ele><time>2026-04-11T11:25:54Z</time></trkpt><trkpt lat="43.09058898355703" lon="11.42589911311595"><ele>204.71428571428572</ele><time>2026-04-11T11:25:57Z</time></trkpt><trkpt lat="43.09052264894525" lon="11.425880390812178"><ele>205.57142857142856</ele><time>2026-04-11T11:26:00Z</time></trkpt><trkpt lat="43.09045491550047" lon="11.425858349308283"><ele>206.42857142857144</ele><time>2026-04-11T11:26:03Z</time></trkpt><trkpt lat="43.09038704642099" lon="11.425832262572651"><ele>207.28571428571428</ele><time>2026-04-11T11:26:06Z</time></trkpt><trkpt lat="43.09032073332929" lon="11.425822064590797"><ele>208.14285714285714</ele><time>2026-04-11T11:26:09Z</time></trkpt><trkpt lat="43.09025676035608" lon="11.425799968023291"><ele>209.0</ele><time>2026-04-11T11:26:12Z</time></trkpt><trkpt lat="43.0901901453341" lon="11.425784661524643"><ele>209.0</ele><time>2026-04-11T11:26:15Z</time></trkpt><trkpt lat="43.09012489161978" lon="11.425764291329388"><ele>209.0</ele><time>2026-04-11T11:26:18Z</time></trkpt><trkpt lat="43.090058263792834" lon="11.425752217445309"><ele>209.0</ele><time>2026-04-11T11:26:21Z</time></trkpt><trkpt lat="43.08999329371951" lon="11.425736017411563"><ele>209.0</ele><time>2026-04-11T11:26:24Z</time></trkpt><trkpt lat="43.0899287542971" lon="11.42571937348806"><ele>209.0</ele><time>2026-04-11T11:26:27Z</time></trkpt><trkpt lat="43.08986466507017" lon="11.425699335842923"><ele>209.0</ele><time>2026-04-11T11:26:30Z</time></trkpt><trkpt lat="43.08980249673769" lon="11.425678725933695"><ele>209.0</ele><time>2026-04-11T11:26:33Z</time></trkpt><trkpt lat="43.08972123216264" lon="11.425653469901832"><ele>209.71428571428572</ele><time>2026-04-11T11:26:37Z</time></trkpt><trkpt lat="43.089643998490274" lon="11.425632338193445"><ele>210.42857142857142</ele><time>2026-04-11T11:26:41Z</time></trkpt><trkpt lat="43.089573524965274" lon="11.425614526567657"><ele>211.14285714285717</ele><time>2026-04-11T11:26:45Z</time></trkpt><trkpt lat="43.08950604696928" lon="11.42560374223234"><ele>211.85714285714286</ele><time>2026-04-11T11:26:49Z</time></trkpt><trkpt lat="43.08943079380896" lon="11.4255789848715"><ele>212.57142857142858</ele><time>2026-04-11T11:26:54Z</time></trkpt><trkpt lat="43.0893579437119" lon="11.42554411385058"><ele>213.2857142857143</ele><time>2026-04-11T11:26:59Z</time></trkpt><trkpt lat="43.089289204726576" lon="11.425534589499565"><ele>214.0</ele><time>2026-04-11T11:27:04Z</time></trkpt><trkpt lat="43.089217083612844" lon="11.425503159467626"><ele>215.2857142857143</ele><time>2026-04-11T11:27:09Z</time></trkpt><trkpt lat="43.089147786650265" lon="11.42547848008788"><ele>216.57142857142858</ele><time>2026-04-11T11:27:14Z</time></trkpt><trkpt lat="43.08908309229699" lon="11.425453051285587"><ele>217.85714285714286</ele><time>2026-04-11T11:27:19Z</time></trkpt><trkpt lat="43.089023187183734" lon="11.425415625259516"><ele>219.14285714285717</ele><time>2026-04-11T11:27:24Z</time></trkpt><trkpt lat="43.08896558903217" lon="11.425351039018706"><ele>220.42857142857142</ele><time>2026-04-11T11:27:29Z</time></trkpt><trkpt lat="43.088934392655275" lon="11.425265076554759"><ele>221.71428571428572</ele><time>2026-04-11T11:27:34Z</time></trkpt><trkpt lat="43.088926015721405" lon="11.4251602832461"><ele>223.0</ele><time>2026-04-11T11:27:40Z</time></trkpt><trkpt lat="43.08892416781504" lon="11.425058338858175"><ele>225.42857142857142</ele><time>2026-04-11T11:27:46Z</time></trkpt><trkpt lat="43.08892971918086" lon="11.424966869826163"><ele>227.85714285714283</ele><time>2026-04-11T11:27:51Z</time></trkpt><trkpt lat="43.08894428532763" lon="11.424869566811788"><ele>230.28571428571428</ele><time>2026-04-11T11:27:56Z</time></trkpt><trkpt lat="43.08895212186621" lon="11.424767275133856"><ele>232.71428571428572</ele><time>2026-04-11T11:28:01Z</time></trkpt><trkpt lat="43.08896877965691" lon="11.424665227137792"><ele>235.14285714285714</ele><time>2026-04-11T11:28:06Z</time></trkpt><trkpt lat="43.08899147292466" lon="11.42456654196183"><ele>237.57142857142858</ele><time>2026-04-11T11:28:11Z</time></trkpt><trkpt lat="43.08901273482142" lon="11.42446844426059"><ele>240.0</ele><time>2026-04-11T11:28:16Z</time></trkpt><trkpt lat="43.08902813171506" lon="11.42437990372516"><ele>239.71428571428572</ele><time>2026-04-11T11:28:20Z</time></trkpt><trkpt lat="43.089040603994874" lon="11.424286675433468"><ele>239.42857142857142</ele><time>2026-04-11T11:28:24Z</time></trkpt><trkpt lat="43.089056594804326" lon="11.424187146673832"><ele>239.14285714285714</ele><time>2026-04-11T11:28:29Z</time></trkpt><trkpt lat="43.08906938009491" lon="11.424083660797557"><ele>238.85714285714286</ele><time>2026-04-11T11:28:34Z</time></trkpt><trkpt lat="43.08908139228394" lon="11.423981811696887"><ele>238.57142857142856</ele><time>2026-04-11T11:28:39Z</time></trkpt><trkpt lat="43.089103184498136" lon="11.423886707581959"><ele>238.28571428571428</ele><time>2026-04-11T11:28:44Z</time></trkpt><trkpt lat="43.089115853644586" lon="11.423784594624536"><ele>238.0</ele><time>2026-04-11T11:28:49Z</time></trkpt><trkpt lat="43.089133670278144" lon="11.423700471672127"><ele>238.0</ele><time>2026-04-11T11:28:53Z</time></trkpt><trkpt lat="43.089143781615235" lon="11.423601717431527"><ele>238.0</ele><time>2026-04-11T11:28:58Z</time></trkpt><trkpt lat="43.08915492187207" lon="11.423505274730669"><ele>238.0</ele><time>2026-04-11T11:29:03Z</time></trkpt><trkpt lat="43.08915346682188" lon="11.423414700368463"><ele>238.0</ele><time>2026-04-11T11:29:08Z</time></trkpt><trkpt lat="43.089143946900236" lon="11.423320746482025"><ele>238.0</ele><time>2026-04-11T11:29:14Z</time></trkpt><trkpt lat="43.08913636613448" lon="11.423232559978537"><ele>238.0</ele><time>2026-04-11T11:29:19Z</time></trkpt><trkpt lat="43.08909489845734" lon="11.423148171300236"><ele>238.0</ele><time>2026-04-11T11:29:25Z</time></trkpt><trkpt lat="43.08908408581172" lon="11.423059240089533"><ele>241.57142857142856</ele><time>2026-04-11T11:29:30Z</time></trkpt><trkpt lat="43.089046363624945" lon="11.42297181146448"><ele>245.14285714285714</ele><time>2026-04-11T11:29:36Z</time></trkpt><trkpt lat="43.089004472055926" lon="11.422889968855257"><ele>248.71428571428572</ele><time>2026-04-11T11:29:42Z</time></trkpt><trkpt lat="43.08896792602252" lon="11.422809267934008"><ele>252.28571428571428</ele><time>2026-04-11T11:29:48Z</time></trkpt><trkpt lat="43.08894535925713" lon="11.422715777320233"><ele>255.85714285714283</ele><time>2026-04-11T11:29:54Z</time></trkpt><trkpt lat="43.08890212389538" lon="11.422651843303383"><ele>259.42857142857144</ele><time>2026-04-11T11:29:59Z</time></trkpt><trkpt lat="43.08888521518547" lon="11.422565031835127"><ele>263.0</ele><time>2026-04-11T11:30:05Z</time></trkpt><trkpt lat="43.08884077517267" lon="11.422485270563582"><ele>263.0</ele><time>2026-04-11T11:30:11Z</time></trkpt><trkpt lat="43.08880917062818" lon="11.422398894045488"><ele>263.0</ele><time>2026-04-11T11:30:16.999Z</time></trkpt><trkpt lat="43.088784732821615" lon="11.422306081295314"><ele>263.0</ele><time>2026-04-11T11:30:22.999Z</time></trkpt><trkpt lat="43.08875282486856" lon="11.422218123055751"><ele>263.0</ele><time>2026-04-11T11:30:28.999Z</time></trkpt><trkpt lat="43.08871916218141" lon="11.422137901916717"><ele>263.0</ele><time>2026-04-11T11:30:34.999Z</time></trkpt><trkpt lat="43.088688186381745" lon="11.422045608657308"><ele>263.0</ele><time>2026-04-11T11:30:41Z</time></trkpt><trkpt lat="43.088656648941665" lon="11.421946927254366"><ele>263.0</ele><time>2026-04-11T11:30:47Z</time></trkpt><trkpt lat="43.088622671397836" lon="11.421861659459529"><ele>262.1428571428571</ele><time>2026-04-11T11:30:55Z</time></trkpt><trkpt lat="43.08856746454246" lon="11.421789791846773"><ele>261.2857142857143</ele><time>2026-04-11T11:31:01Z</time></trkpt><trkpt lat="43.088511947417004" lon="11.421748943844118"><ele>260.42857142857144</ele><time>2026-04-11T11:31:06Z</time></trkpt><trkpt lat="43.08844604342207" lon="11.421713193578276"><ele>259.57142857142856</ele><time>2026-04-11T11:31:12Z</time></trkpt><trkpt lat="43.088380691867044" lon="11.421697510645494"><ele>258.7142857142857</ele><time>2026-04-11T11:31:18Z</time></trkpt><trkpt lat="43.08830751383502" lon="11.421697409528477"><ele>257.85714285714283</ele><time>2026-04-11T11:31:25Z</time></trkpt><trkpt lat="43.08824228433596" lon="11.421713489933442"><ele>257.0</ele><time>2026-04-11T11:31:33Z</time></trkpt><trkpt lat="43.088190064675025" lon="11.42176988694349"><ele>260.1428571428571</ele><time>2026-04-11T11:31:39Z</time></trkpt><trkpt lat="43.08814694743327" lon="11.421841855391888"><ele>263.2857142857143</ele><time>2026-04-11T11:31:47Z</time></trkpt><trkpt lat="43.088113905405315" lon="11.421927522960404"><ele>266.42857142857144</ele><time>2026-04-11T11:31:53Z</time></trkpt><trkpt lat="43.08809399802825" lon="11.422017552031978"><ele>269.57142857142856</ele><time>2026-04-11T11:31:59Z</time></trkpt><trkpt lat="43.088078881572535" lon="11.422109346435656"><ele>272.7142857142857</ele><time>2026-04-11T11:32:05Z</time></trkpt><trkpt lat="43.08806553346963" lon="11.422193737331826"><ele>275.85714285714283</ele><time>2026-04-11T11:32:11Z</time></trkpt><trkpt lat="43.08804433988892" lon="11.42228278362072"><ele>279.0</ele><time>2026-04-11T11:32:17Z</time></trkpt><trkpt lat="43.08802283572924" lon="11.422383340980367"><ele>279.4285714285714</ele><time>2026-04-11T11:32:23.999Z</time></trkpt><trkpt lat="43.08800494924535" lon="11.422469543183816"><ele>279.85714285714283</ele><time>2026-04-11T11:32:29.999Z</time></trkpt><trkpt lat="43.08798108934733" lon="11.42256696695024"><ele>280.2857142857143</ele><time>2026-04-11T11:32:37.999Z</time></trkpt><trkpt lat="43.08795805360701" lon="11.422647990358016"><ele>280.71428571428567</ele><time>2026-04-11T11:32:42.999Z</time></trkpt><trkpt lat="43.08793717886678" lon="11.422729877650395"><ele>281.1428571428571</ele><time>2026-04-11T11:32:48.999Z</time></trkpt><trkpt lat="43.08790668200872" lon="11.422816539964654"><ele>281.57142857142856</ele><time>2026-04-11T11:32:54.999Z</time></trkpt><trkpt lat="43.087890972790895" lon="11.422901724952565"><ele>282.0</ele><time>2026-04-11T11:33:00.999Z</time></trkpt><trkpt lat="43.087864028454085" lon="11.422987712677015"><ele>282.14285714285717</ele><time>2026-04-11T11:33:08Z</time></trkpt><trkpt lat="43.087840904591495" lon="11.423075386077512"><ele>282.2857142857143</ele><time>2026-04-11T11:33:15Z</time></trkpt><trkpt lat="43.087808418279025" lon="11.423153114828905"><ele>282.42857142857144</ele><time>2026-04-11T11:33:22Z</time></trkpt><trkpt lat="43.08777681982561" lon="11.423240518225366"><ele>282.57142857142856</ele><time>2026-04-11T11:33:30Z</time></trkpt><trkpt lat="43.08773489023448" lon="11.423314601367075"><ele>282.7142857142857</ele><time>2026-04-11T11:33:39Z</time></trkpt><trkpt lat="43.08769984831876" lon="11.423391127888795"><ele>282.8571428571429</ele><time>2026-04-11T11:33:46Z</time></trkpt><trkpt lat="43.08765482936495" lon="11.423465119400365"><ele>283.0</ele><time>2026-04-11T11:33:54Z</time></trkpt><trkpt lat="43.08759622536398" lon="11.423514528920954"><ele>283.0</ele><time>2026-04-11T11:34:03Z</time></trkpt><trkpt lat="43.08752751658925" lon="11.423513605564498"><ele>283.0</ele><time>2026-04-11T11:34:12Z</time></trkpt><trkpt lat="43.08747463642688" lon="11.423460407441043"><ele>283.0</ele><time>2026-04-11T11:34:21Z</time></trkpt><trkpt lat="43.08743049589399" lon="11.423389827316907"><ele>283.0</ele><time>2026-04-11T11:34:31.999Z</time></trkpt><trkpt lat="43.087417741750414" lon="11.423291177725492"><ele>283.0</ele><time>2026-04-11T11:34:41.999Z</time></trkpt><trkpt lat="43.087429283037075" lon="11.42318822497748"><ele>283.0</ele><time>2026-04-11T11:34:48.999Z</time></trkpt><trkpt lat="43.08741807613945" lon="11.423098672383535"><ele>283.0</ele><time>2026-04-11T11:34:54.999Z</time></trkpt><trkpt lat="43.08740197475417" lon="11.423012044296094"><ele>286.8571428571429</ele><time>2026-04-11T11:35:00.999Z</time></trkpt><trkpt lat="43.08737346592062" lon="11.422922435939222"><ele>290.7142857142857</ele><time>2026-04-11T11:35:06.999Z</time></trkpt><trkpt lat="43.0873590328823" lon="11.422838077270384"><ele>294.57142857142856</ele><time>2026-04-11T11:35:12.999Z</time></trkpt><trkpt lat="43.08733998441362" lon="11.422748926969959"><ele>298.42857142857144</ele><time>2026-04-11T11:35:19.999Z</time></trkpt><trkpt lat="43.0872999503352" lon="11.42266281749127"><ele>302.2857142857143</ele><time>2026-04-11T11:35:29Z</time></trkpt><trkpt lat="43.08724535989965" lon="11.422617678514682"><ele>306.14285714285717</ele><time>2026-04-11T11:35:36Z</time></trkpt><trkpt lat="43.08718116291031" lon="11.422624456376145"><ele>310.0</ele><time>2026-04-11T11:35:43Z</time></trkpt><trkpt lat="43.08712510286326" lon="11.422683691568356"><ele>310.0</ele><time>2026-04-11T11:35:50Z</time></trkpt><trkpt lat="43.08711749079866" lon="11.422773394858185"><ele>310.0</ele><time>2026-04-11T11:35:57Z</time></trkpt><trkpt lat="43.08711145521546" lon="11.42286120854144"><ele>310.0</ele><time>2026-04-11T11:36:03Z</time></trkpt><trkpt lat="43.087105924209375" lon="11.422956835898368"><ele>310.0</ele><time>2026-04-11T11:36:11Z</time></trkpt><trkpt lat="43.08708122025648" lon="11.423048073110978"><ele>310.0</ele><time>2026-04-11T11:36:18Z</time></trkpt><trkpt lat="43.08706478672938" lon="11.42313198744466"><ele>310.0</ele><time>2026-04-11T11:36:25Z</time></trkpt><trkpt lat="43.08704519562057" lon="11.423223000584589"><ele>310.0</ele><time>2026-04-11T11:36:32Z</time></trkpt><trkpt lat="43.0870408051994" lon="11.423315420368548"><ele>310.0</ele><time>2026-04-11T11:36:40Z</time></trkpt><trkpt lat="43.08702248090723" lon="11.423406134097336"><ele>310.0</ele><time>2026-04-11T11:36:47Z</time></trkpt><trkpt lat="43.08699938556242" lon="11.423507595269218"><ele>310.0</ele><time>2026-04-11T11:36:54Z</time></trkpt><trkpt lat="43.08697611504371" lon="11.423595494928017"><ele>310.0</ele><time>2026-04-11T11:37:01Z</time></trkpt><trkpt lat="43.08694230623422" lon="11.423678638881649"><ele>310.0</ele><time>2026-04-11T11:37:08Z</time></trkpt><trkpt lat="43.08689810354337" lon="11.423768529182519"><ele>310.0</ele><time>2026-04-11T11:37:15Z</time></trkpt><trkpt lat="43.08684540495905" lon="11.423829658971188"><ele>310.0</ele><time>2026-04-11T11:37:23Z</time></trkpt><trkpt lat="43.08678300212416" lon="11.423871615861476"><ele>311.14285714285717</ele><time>2026-04-11T11:37:30Z</time></trkpt><trkpt lat="43.086716993123176" lon="11.423886910576504"><ele>312.2857142857143</ele><time>2026-04-11T11:37:37Z</time></trkpt><trkpt lat="43.08665253722659" lon="11.423864255738069"><ele>313.42857142857144</ele><time>2026-04-11T11:37:44Z</time></trkpt><trkpt lat="43.08658486210205" lon="11.42384110835387"><ele>314.57142857142856</ele><time>2026-04-11T11:37:52Z</time></trkpt><trkpt lat="43.08651685766967" lon="11.42381840940272"><ele>315.7142857142857</ele><time>2026-04-11T11:38:00Z</time></trkpt><trkpt lat="43.086458067604575" lon="11.423761421170871"><ele>316.85714285714283</ele><time>2026-04-11T11:38:08Z</time></trkpt><trkpt lat="43.08640641023626" lon="11.423698969134183"><ele>318.0</ele><time>2026-04-11T11:38:16Z</time></trkpt><trkpt lat="43.08636836087927" lon="11.423623806714305"><ele>319.57142857142856</ele><time>2026-04-11T11:38:25Z</time></trkpt><trkpt lat="43.086373212432385" lon="11.42352770586177"><ele>321.14285714285717</ele><time>2026-04-11T11:38:33Z</time></trkpt><trkpt lat="43.08639752463222" lon="11.42343041502371"><ele>322.7142857142857</ele><time>2026-04-11T11:38:42Z</time></trkpt><trkpt lat="43.08642653004909" lon="11.423349062150445"><ele>324.2857142857143</ele><time>2026-04-11T11:38:49Z</time></trkpt><trkpt lat="43.08645872101616" lon="11.423270966916588"><ele>325.8571428571429</ele><time>2026-04-11T11:38:55Z</time></trkpt><trkpt lat="43.08648320197801" lon="11.423186430637399"><ele>327.42857142857144</ele><time>2026-04-11T11:39:03Z</time></trkpt><trkpt lat="43.08651689057895" lon="11.423105262267345"><ele>329.0</ele><time>2026-04-11T11:39:09Z</time></trkpt><trkpt lat="43.086525734002485" lon="11.423015397252916"><ele>328.85714285714283</ele><time>2026-04-11T11:39:15Z</time></trkpt><trkpt lat="43.08651062749162" lon="11.422926338952378"><ele>328.7142857142857</ele><time>2026-04-11T11:39:22Z</time></trkpt><trkpt lat="43.08650308063883" lon="11.422834154589655"><ele>328.57142857142856</ele><time>2026-04-11T11:39:29Z</time></trkpt><trkpt lat="43.08648269432229" lon="11.422752370707949"><ele>328.42857142857144</ele><time>2026-04-11T11:39:36Z</time></trkpt><trkpt lat="43.08644703853643" lon="11.422674892915566"><ele>328.2857142857143</ele><time>2026-04-11T11:39:44Z</time></trkpt><trkpt lat="43.08638720811427" lon="11.422633002523126"><ele>328.1428571428571</ele><time>2026-04-11T11:39:51Z</time></trkpt><trkpt lat="43.08632196970856" lon="11.422616473785661"><ele>328.0</ele><time>2026-04-11T11:39:58Z</time></trkpt><trkpt lat="43.08625849436401" lon="11.422630683135404"><ele>327.99999999999994</ele><time>2026-04-11T11:40:05Z</time></trkpt><trkpt lat="43.08619855165069" lon="11.42267320569387"><ele>328.0</ele><time>2026-04-11T11:40:12Z</time></trkpt><trkpt lat="43.08614895473425" lon="11.42273218362175"><ele>328.0</ele><time>2026-04-11T11:40:19Z</time></trkpt><trkpt lat="43.0861019082076" lon="11.42279456266867"><ele>328.0</ele><time>2026-04-11T11:40:26Z</time></trkpt><trkpt lat="43.08607582642581" lon="11.422886658479003"><ele>328.0</ele><time>2026-04-11T11:40:33Z</time></trkpt><trkpt lat="43.086042186684566" lon="11.422966775593132"><ele>327.99999999999994</ele><time>2026-04-11T11:40:41Z</time></trkpt><trkpt lat="43.086020247925205" lon="11.423058953502315"><ele>328.0</ele><time>2026-04-11T11:40:48Z</time></trkpt><trkpt lat="43.08598335244407" lon="11.423142743879044"><ele>328.1428571428571</ele><time>2026-04-11T11:41:07Z</time></trkpt><trkpt lat="43.08591576472169" lon="11.423183704991395"><ele>328.2857142857143</ele><time>2026-04-11T11:41:12Z</time></trkpt><trkpt lat="43.085860889501824" lon="11.423244013400444"><ele>328.42857142857144</ele><time>2026-04-11T11:41:17Z</time></trkpt><trkpt lat="43.085796959650075" lon="11.423277166938687"><ele>328.57142857142856</ele><time>2026-04-11T11:41:22Z</time></trkpt><trkpt lat="43.08572637968165" lon="11.423278425887586"><ele>328.7142857142857</ele><time>2026-04-11T11:41:28Z</time></trkpt><trkpt lat="43.08566148631713" lon="11.423242305983079"><ele>328.85714285714283</ele><time>2026-04-11T11:41:35Z</time></trkpt><trkpt lat="43.08562092409243" lon="11.42317224393154"><ele>329.0</ele><time>2026-04-11T11:41:41Z</time></trkpt><trkpt lat="43.0855753267613" lon="11.42309927761782"><ele>331.2857142857143</ele><time>2026-04-11T11:41:47Z</time></trkpt><trkpt lat="43.08555032797575" lon="11.423007666844203"><ele>333.57142857142856</ele><time>2026-04-11T11:41:53Z</time></trkpt><trkpt lat="43.08551851946751" lon="11.422929946235751"><ele>335.8571428571429</ele><time>2026-04-11T11:41:58Z</time></trkpt><trkpt lat="43.085496129918646" lon="11.422837773715303"><ele>338.1428571428571</ele><time>2026-04-11T11:42:03Z</time></trkpt><trkpt lat="43.085480198463536" lon="11.422753690487133"><ele>340.42857142857144</ele><time>2026-04-11T11:42:07Z</time></trkpt><trkpt lat="43.08545276421408" lon="11.422660833303308"><ele>342.7142857142857</ele><time>2026-04-11T11:42:11Z</time></trkpt><trkpt lat="43.08543369741738" lon="11.422563986700277"><ele>345.0</ele><time>2026-04-11T11:42:15Z</time></trkpt><trkpt lat="43.085413484383366" lon="11.422480904124058"><ele>345.57142857142856</ele><time>2026-04-11T11:42:19Z</time></trkpt><trkpt lat="43.08538910283686" lon="11.422383829923431"><ele>346.1428571428571</ele><time>2026-04-11T11:42:23Z</time></trkpt><trkpt lat="43.08535952719761" lon="11.42228224750821"><ele>346.71428571428567</ele><time>2026-04-11T11:42:27Z</time></trkpt><trkpt lat="43.085333829373894" lon="11.422202545602929"><ele>347.2857142857143</ele><time>2026-04-11T11:42:31Z</time></trkpt><trkpt lat="43.08529873415176" lon="11.422114972828107"><ele>347.85714285714283</ele><time>2026-04-11T11:42:34Z</time></trkpt><trkpt lat="43.085258258736246" lon="11.422033846726096"><ele>348.4285714285714</ele><time>2026-04-11T11:42:38Z</time></trkpt><trkpt lat="43.08520828844919" lon="11.421948805745364"><ele>349.0</ele><time>2026-04-11T11:42:42Z</time></trkpt><trkpt lat="43.0851526334093" lon="11.421880671022208"><ele>348.3333333333333</ele><time>2026-04-11T11:42:44Z</time></trkpt><trkpt lat="43.085092974706825" lon="11.42181844982249"><ele>347.66666666666663</ele><time>2026-04-11T11:42:47Z</time></trkpt><trkpt lat="43.08501595679142" lon="11.421762575346024"><ele>347.0</ele><time>2026-04-11T11:42:51Z</time></trkpt><trkpt lat="43.08494446066649" lon="11.421722651918108"><ele>346.3333333333333</ele><time>2026-04-11T11:42:54.001Z</time></trkpt><trkpt lat="43.08487129549504" lon="11.421692419706329"><ele>345.6666666666667</ele><time>2026-04-11T11:42:57.001Z</time></trkpt><trkpt lat="43.08479289170403" lon="11.421664204261411"><ele>345.0</ele><time>2026-04-11T11:43:00.001Z</time></trkpt><trkpt lat="43.08470370437025" lon="11.421633675976011"><ele>345.0</ele><time>2026-04-11T11:43:03Z</time></trkpt><trkpt lat="43.084610660734796" lon="11.421604253541728"><ele>345.0</ele><time>2026-04-11T11:43:06Z</time></trkpt><trkpt lat="43.084546789286385" lon="11.421578780987614"><ele>345.0</ele><time>2026-04-11T11:43:07Z</time></trkpt><trkpt lat="43.08448461660249" lon="11.421549796030984"><ele>345.0</ele><time>2026-04-11T11:43:09Z</time></trkpt><trkpt lat="43.084417175222875" lon="11.421512401760749"><ele>345.0</ele><time>2026-04-11T11:43:11Z</time></trkpt><trkpt lat="43.08434660569403" lon="11.42146892550521"><ele>345.0</ele><time>2026-04-11T11:43:13Z</time></trkpt><trkpt lat="43.084278763573124" lon="11.421419972490565"><ele>345.0</ele><time>2026-04-11T11:43:15Z</time></trkpt><trkpt lat="43.084214168842394" lon="11.421369993148117"><ele>345.0</ele><time>2026-04-11T11:43:17Z</time></trkpt><trkpt lat="43.08415435514609" lon="11.421324396572683"><ele>345.0</ele><time>2026-04-11T11:43:19Z</time></trkpt><trkpt lat="43.08408320913736" lon="11.421276017420215"><ele>345.0</ele><time>2026-04-11T11:43:22Z</time></trkpt><trkpt lat="43.08402515240554" lon="11.421224096074523"><ele>345.0</ele><time>2026-04-11T11:43:25Z</time></trkpt><trkpt lat="43.08396531295884" lon="11.421171785284304"><ele>345.0</ele><time>2026-04-11T11:43:29Z</time></trkpt><trkpt lat="43.08389655970719" lon="11.421118429970349"><ele>345.0</ele><time>2026-04-11T11:43:33Z</time></trkpt><trkpt lat="43.08383657760754" lon="11.421072504922924"><ele>345.2857142857143</ele><time>2026-04-11T11:43:37Z</time></trkpt><trkpt lat="43.08377702262961" lon="11.4210304290074"><ele>345.57142857142856</ele><time>2026-04-11T11:43:41Z</time></trkpt><trkpt lat="43.08370897985763" lon="11.420994251016685"><ele>345.8571428571429</ele><time>2026-04-11T11:43:46Z</time></trkpt><trkpt lat="43.0836368169177" lon="11.42096509373572"><ele>346.1428571428571</ele><time>2026-04-11T11:43:51Z</time></trkpt><trkpt lat="43.0835684951077" lon="11.42094304665614"><ele>346.4285714285714</ele><time>2026-04-11T11:43:56Z</time></trkpt><trkpt lat="43.083501479227" lon="11.420924514983408"><ele>346.7142857142857</ele><time>2026-04-11T11:44:01Z</time></trkpt><trkpt lat="43.08343094665302" lon="11.42090104275254"><ele>347.0</ele><time>2026-04-11T11:44:06Z</time></trkpt><trkpt lat="43.083358241712666" lon="11.420872658404454"><ele>347.0</ele><time>2026-04-11T11:44:12Z</time></trkpt><trkpt lat="43.08329182340482" lon="11.420863441953326"><ele>347.0</ele><time>2026-04-11T11:44:17Z</time></trkpt><trkpt lat="43.08322719999165" lon="11.420825234110586"><ele>347.0</ele><time>2026-04-11T11:44:22Z</time></trkpt><trkpt lat="43.08315545361442" lon="11.420805033612822"><ele>347.0</ele><time>2026-04-11T11:44:27Z</time></trkpt><trkpt lat="43.08308430176097" lon="11.420780590511727"><ele>347.0</ele><time>2026-04-11T11:44:33Z</time></trkpt><trkpt lat="43.083025020998825" lon="11.420751123140985"><ele>347.0</ele><time>2026-04-11T11:44:37Z</time></trkpt><trkpt lat="43.08295114396819" lon="11.420723785574827"><ele>347.0</ele><time>2026-04-11T11:44:42Z</time></trkpt><trkpt lat="43.08288271799788" lon="11.420707688421839"><ele>348.0</ele><time>2026-04-11T11:44:47Z</time></trkpt><trkpt lat="43.08281330305969" lon="11.420676122252482"><ele>349.0</ele><time>2026-04-11T11:44:53Z</time></trkpt><trkpt lat="43.082742761871245" lon="11.420661588260462"><ele>350.0</ele><time>2026-04-11T11:44:59Z</time></trkpt><trkpt lat="43.0826741025645" lon="11.420623577073254"><ele>351.0</ele><time>2026-04-11T11:45:05Z</time></trkpt><trkpt lat="43.08260535018786" lon="11.420607570374958"><ele>352.0</ele><time>2026-04-11T11:45:11Z</time></trkpt><trkpt lat="43.082541442433445" lon="11.420604758420314"><ele>353.0</ele><time>2026-04-11T11:45:16Z</time></trkpt><trkpt lat="43.08247342328517" lon="11.420591228253251"><ele>354.0</ele><time>2026-04-11T11:45:21Z</time></trkpt><trkpt lat="43.08239412195198" lon="11.420577485381843"><ele>354.0</ele><time>2026-04-11T11:45:26Z</time></trkpt><trkpt lat="43.08232662378775" lon="11.420569627787467"><ele>354.0</ele><time>2026-04-11T11:45:30Z</time></trkpt><trkpt lat="43.08225608557305" lon="11.420553880151157"><ele>354.0</ele><time>2026-04-11T11:45:34Z</time></trkpt><trkpt lat="43.082187656314076" lon="11.420548764908709"><ele>354.0</ele><time>2026-04-11T11:45:38Z</time></trkpt><trkpt lat="43.08211843242017" lon="11.420537432686771"><ele>354.0</ele><time>2026-04-11T11:45:42Z</time></trkpt><trkpt lat="43.08204129647687" lon="11.42054547695225"><ele>354.0</ele><time>2026-04-11T11:45:47Z</time></trkpt><trkpt lat="43.081960940417105" lon="11.420549383004698"><ele>354.0</ele><time>2026-04-11T11:45:52Z</time></trkpt><trkpt lat="43.08189535946721" lon="11.420552935329264"><ele>354.0</ele><time>2026-04-11T11:45:56Z</time></trkpt><trkpt lat="43.081820395051544" lon="11.420533514098667"><ele>354.0</ele><time>2026-04-11T11:46:00Z</time></trkpt><trkpt lat="43.08175320384631" lon="11.420503534383059"><ele>354.0</ele><time>2026-04-11T11:46:04Z</time></trkpt><trkpt lat="43.081699350500365" lon="11.420454689180351"><ele>354.0</ele><time>2026-04-11T11:46:08Z</time></trkpt><trkpt lat="43.08164411691985" lon="11.420403719145103"><ele>354.0</ele><time>2026-04-11T11:46:12Z</time></trkpt><trkpt lat="43.08159005898979" lon="11.420355503270587"><ele>354.0</ele><time>2026-04-11T11:46:16Z</time></trkpt><trkpt lat="43.081539416787066" lon="11.420302635308824"><ele>354.0</ele><time>2026-04-11T11:46:20Z</time></trkpt><trkpt lat="43.081486227806934" lon="11.420227611812999"><ele>356.2857142857143</ele><time>2026-04-11T11:46:25Z</time></trkpt><trkpt lat="43.08143438717635" lon="11.420153733925838"><ele>358.57142857142856</ele><time>2026-04-11T11:46:30Z</time></trkpt><trkpt lat="43.08139189909109" lon="11.420079150146956"><ele>360.85714285714283</ele><time>2026-04-11T11:46:35Z</time></trkpt><trkpt lat="43.081339191424455" lon="11.42001866923746"><ele>363.1428571428571</ele><time>2026-04-11T11:46:40Z</time></trkpt><trkpt lat="43.08130204639006" lon="11.419939308190992"><ele>365.42857142857144</ele><time>2026-04-11T11:46:45Z</time></trkpt><trkpt lat="43.081242263237776" lon="11.419885040079539"><ele>367.71428571428567</ele><time>2026-04-11T11:46:51Z</time></trkpt><trkpt lat="43.08121761081652" lon="11.419791247142559"><ele>370.0</ele><time>2026-04-11T11:46:57Z</time></trkpt><trkpt lat="43.081178802779604" lon="11.41971184449215"><ele>369.4285714285714</ele><time>2026-04-11T11:47:02Z</time></trkpt><trkpt lat="43.081123159031414" lon="11.419642277834367"><ele>368.85714285714283</ele><time>2026-04-11T11:47:07Z</time></trkpt><trkpt lat="43.08106090785756" lon="11.419583709265225"><ele>368.2857142857143</ele><time>2026-04-11T11:47:12Z</time></trkpt><trkpt lat="43.080998450011805" lon="11.419539279522443"><ele>367.71428571428567</ele><time>2026-04-11T11:47:17Z</time></trkpt><trkpt lat="43.08093493465589" lon="11.41949525746356"><ele>367.14285714285717</ele><time>2026-04-11T11:47:22Z</time></trkpt><trkpt lat="43.080872812650775" lon="11.419455438151713"><ele>366.57142857142856</ele><time>2026-04-11T11:47:27Z</time></trkpt><trkpt lat="43.080810076005484" lon="11.419437406210516"><ele>366.0</ele><time>2026-04-11T11:47:32Z</time></trkpt><trkpt lat="43.08073317312017" lon="11.419416580942649"><ele>368.7142857142857</ele><time>2026-04-11T11:47:38Z</time></trkpt><trkpt lat="43.080665244164514" lon="11.419399288379912"><ele>371.42857142857144</ele><time>2026-04-11T11:47:43Z</time></trkpt><trkpt lat="43.08060268491731" lon="11.419389065957828"><ele>374.1428571428571</ele><time>2026-04-11T11:47:48Z</time></trkpt><trkpt lat="43.08052940027595" lon="11.41936732136607"><ele>376.8571428571429</ele><time>2026-04-11T11:47:54Z</time></trkpt><trkpt lat="43.08046068143218" lon="11.419363017118677"><ele>379.57142857142856</ele><time>2026-04-11T11:48:00Z</time></trkpt><trkpt lat="43.080394840273904" lon="11.419357031062045"><ele>382.2857142857143</ele><time>2026-04-11T11:48:06Z</time></trkpt><trkpt lat="43.08032729643233" lon="11.419334627324817"><ele>385.0</ele><time>2026-04-11T11:48:12Z</time></trkpt><trkpt lat="43.08027113808841" lon="11.419291329344716"><ele>385.0</ele><time>2026-04-11T11:48:18Z</time></trkpt><trkpt lat="43.080223885633266" lon="11.419228511901412"><ele>385.0</ele><time>2026-04-11T11:48:24Z</time></trkpt><trkpt lat="43.08019126706035" lon="11.419145956133336"><ele>385.0</ele><time>2026-04-11T11:48:30Z</time></trkpt><trkpt lat="43.080167370131235" lon="11.419060242358473"><ele>385.0</ele><time>2026-04-11T11:48:36Z</time></trkpt><trkpt lat="43.08013439593146" lon="11.418980384461511"><ele>385.0</ele><time>2026-04-11T11:48:43Z</time></trkpt><trkpt lat="43.08009531840513" lon="11.418894725900198"><ele>385.0</ele><time>2026-04-11T11:48:52Z</time></trkpt><trkpt lat="43.08004296628726" lon="11.418827056786418"><ele>385.0</ele><time>2026-04-11T11:48:58Z</time></trkpt><trkpt lat="43.07998778527074" lon="11.418751982185627"><ele>386.7142857142857</ele><time>2026-04-11T11:49:04Z</time></trkpt><trkpt lat="43.07992324245798" lon="11.418702284224155"><ele>388.42857142857144</ele><time>2026-04-11T11:49:10Z</time></trkpt><trkpt lat="43.079866471134466" lon="11.418651916075005"><ele>390.1428571428571</ele><time>2026-04-11T11:49:16Z</time></trkpt><trkpt lat="43.079802590990724" lon="11.418621309253094"><ele>391.8571428571429</ele><time>2026-04-11T11:49:22Z</time></trkpt><trkpt lat="43.07973172781049" lon="11.41860175818065"><ele>393.57142857142856</ele><time>2026-04-11T11:49:28Z</time></trkpt><trkpt lat="43.079671117509896" lon="11.418569346122922"><ele>395.2857142857143</ele><time>2026-04-11T11:49:33Z</time></trkpt><trkpt lat="43.07960610275724" lon="11.418538050170127"><ele>397.0</ele><time>2026-04-11T11:49:38Z</time></trkpt><trkpt lat="43.07953450757686" lon="11.418515007091864"><ele>397.0</ele><time>2026-04-11T11:49:43Z</time></trkpt><trkpt lat="43.079465789357414" lon="11.418481045004475"><ele>397.0</ele><time>2026-04-11T11:49:47Z</time></trkpt><trkpt lat="43.07939746605412" lon="11.418448289149488"><ele>397.0</ele><time>2026-04-11T11:49:51Z</time></trkpt><trkpt lat="43.079334858546225" lon="11.418415173792054"><ele>397.0</ele><time>2026-04-11T11:49:55Z</time></trkpt><trkpt lat="43.07927238589542" lon="11.418381616313706"><ele>397.0</ele><time>2026-04-11T11:49:59Z</time></trkpt><trkpt lat="43.079212947486454" lon="11.418346955154588"><ele>397.0</ele><time>2026-04-11T11:50:03Z</time></trkpt><trkpt lat="43.07916093826044" lon="11.418293221936828"><ele>397.0</ele><time>2026-04-11T11:50:07Z</time></trkpt><trkpt lat="43.07910125985624" lon="11.418227526575937"><ele>396.7142857142857</ele><time>2026-04-11T11:50:12Z</time></trkpt><trkpt lat="43.079047462253726" lon="11.41815125377281"><ele>396.42857142857144</ele><time>2026-04-11T11:50:17Z</time></trkpt><trkpt lat="43.07899431358619" lon="11.41810460696491"><ele>396.1428571428571</ele><time>2026-04-11T11:50:21Z</time></trkpt><trkpt lat="43.07893529907582" lon="11.418065058060673"><ele>395.8571428571429</ele><time>2026-04-11T11:50:25Z</time></trkpt><trkpt lat="43.07887558692135" lon="11.418034677637621"><ele>395.5714285714286</ele><time>2026-04-11T11:50:29Z</time></trkpt><trkpt lat="43.078803590308794" lon="11.41800703320415"><ele>395.2857142857143</ele><time>2026-04-11T11:50:34Z</time></trkpt><trkpt lat="43.078733974265695" lon="11.417999307444648"><ele>395.0</ele><time>2026-04-11T11:50:39Z</time></trkpt><trkpt lat="43.078665308245796" lon="11.417982345894341"><ele>395.0</ele><time>2026-04-11T11:50:44Z</time></trkpt><trkpt lat="43.07860084988769" lon="11.417973756853224"><ele>395.0</ele><time>2026-04-11T11:50:49Z</time></trkpt><trkpt lat="43.07852978782483" lon="11.417980726936662"><ele>395.0</ele><time>2026-04-11T11:50:55Z</time></trkpt><trkpt lat="43.07845619624779" lon="11.417981561480078"><ele>395.0</ele><time>2026-04-11T11:51:01Z</time></trkpt><trkpt lat="43.0783838184242" lon="11.417981866346462"><ele>395.0</ele><time>2026-04-11T11:51:07Z</time></trkpt><trkpt lat="43.07831513263594" lon="11.41797284286633"><ele>395.0</ele><time>2026-04-11T11:51:13Z</time></trkpt><trkpt lat="43.078242810403694" lon="11.417954664969647"><ele>395.0</ele><time>2026-04-11T11:51:19Z</time></trkpt><trkpt lat="43.07816981309271" lon="11.417941090479394"><ele>397.0</ele><time>2026-04-11T11:51:25Z</time></trkpt><trkpt lat="43.078099142097656" lon="11.417933645475072"><ele>399.0</ele><time>2026-04-11T11:51:31Z</time></trkpt><trkpt lat="43.07803006789261" lon="11.417931210305861"><ele>401.0</ele><time>2026-04-11T11:51:37Z</time></trkpt><trkpt lat="43.077964383520715" lon="11.417923856623144"><ele>403.0</ele><time>2026-04-11T11:51:42Z</time></trkpt><trkpt lat="43.07789265930312" lon="11.417931003531518"><ele>405.0</ele><time>2026-04-11T11:51:48Z</time></trkpt><trkpt lat="43.077818435207064" lon="11.417929462481899"><ele>407.0</ele><time>2026-04-11T11:51:54Z</time></trkpt><trkpt lat="43.07775383934389" lon="11.417947282207168"><ele>409.0</ele><time>2026-04-11T11:51:59Z</time></trkpt><trkpt lat="43.07767953594819" lon="11.417940738110243"><ele>409.0</ele><time>2026-04-11T11:52:03Z</time></trkpt><trkpt lat="43.07761312483679" lon="11.417944174889042"><ele>409.0</ele><time>2026-04-11T11:52:07Z</time></trkpt><trkpt lat="43.0775339888593" lon="11.417935185013624"><ele>409.0</ele><time>2026-04-11T11:52:11Z</time></trkpt><trkpt lat="43.07746534247637" lon="11.417919570984587"><ele>409.0</ele><time>2026-04-11T11:52:14Z</time></trkpt><trkpt lat="43.07740457196828" lon="11.417895673671122"><ele>409.0</ele><time>2026-04-11T11:52:17Z</time></trkpt><trkpt lat="43.07733754092668" lon="11.417849503449832"><ele>409.0</ele><time>2026-04-11T11:52:21Z</time></trkpt><trkpt lat="43.077268882311195" lon="11.41779908745643"><ele>409.0</ele><time>2026-04-11T11:52:25Z</time></trkpt><trkpt lat="43.07719386055131" lon="11.417744951334425"><ele>411.57142857142856</ele><time>2026-04-11T11:52:29Z</time></trkpt><trkpt lat="43.07713839516722" lon="11.417694386716962"><ele>414.14285714285717</ele><time>2026-04-11T11:52:32Z</time></trkpt><trkpt lat="43.077066821214466" lon="11.417637715800828"><ele>416.7142857142857</ele><time>2026-04-11T11:52:36Z</time></trkpt><trkpt lat="43.07701350610105" lon="11.417590546759177"><ele>419.2857142857143</ele><time>2026-04-11T11:52:39Z</time></trkpt><trkpt lat="43.076945291405536" lon="11.41752847704552"><ele>421.8571428571429</ele><time>2026-04-11T11:52:43Z</time></trkpt><trkpt lat="43.07689701380622" lon="11.417448782601133"><ele>424.42857142857144</ele><time>2026-04-11T11:52:47Z</time></trkpt><trkpt lat="43.07686152454012" lon="11.417351944355946"><ele>427.0</ele><time>2026-04-11T11:52:51Z</time></trkpt><trkpt lat="43.07682575264822" lon="11.417272701967391"><ele>427.0</ele><time>2026-04-11T11:52:55Z</time></trkpt><trkpt lat="43.0768154046761" lon="11.417184481928894"><ele>427.0</ele><time>2026-04-11T11:52:59Z</time></trkpt><trkpt lat="43.07679337296374" lon="11.417101816179978"><ele>427.0</ele><time>2026-04-11T11:53:03Z</time></trkpt><trkpt lat="43.07675148214682" lon="11.417013936240153"><ele>427.0</ele><time>2026-04-11T11:53:08Z</time></trkpt><trkpt lat="43.07669397502993" lon="11.416951566386034"><ele>427.0</ele><time>2026-04-11T11:53:13Z</time></trkpt><trkpt lat="43.076626904882545" lon="11.416905979101427"><ele>427.0</ele><time>2026-04-11T11:53:19Z</time></trkpt><trkpt lat="43.076553728715965" lon="11.416888395518027"><ele>427.0</ele><time>2026-04-11T11:53:25Z</time></trkpt><trkpt lat="43.07648567737502" lon="11.416849064633743"><ele>427.42857142857144</ele><time>2026-04-11T11:53:31Z</time></trkpt><trkpt lat="43.076421860777664" lon="11.416834196939908"><ele>427.8571428571429</ele><time>2026-04-11T11:53:36Z</time></trkpt><trkpt lat="43.07635636836408" lon="11.41681290040087"><ele>428.2857142857143</ele><time>2026-04-11T11:53:41Z</time></trkpt><trkpt lat="43.07628711461341" lon="11.41680018466093"><ele>428.7142857142857</ele><time>2026-04-11T11:53:46Z</time></trkpt><trkpt lat="43.07622215642416" lon="11.41678240710806"><ele>429.14285714285717</ele><time>2026-04-11T11:53:50Z</time></trkpt><trkpt lat="43.07614488398455" lon="11.41676169366451"><ele>429.57142857142856</ele><time>2026-04-11T11:53:55Z</time></trkpt><trkpt lat="43.0760827448102" lon="11.416745425630815"><ele>430.0</ele><time>2026-04-11T11:53:59Z</time></trkpt><trkpt lat="43.076018635220095" lon="11.416719590105103"><ele>430.0</ele><time>2026-04-11T11:54:03Z</time></trkpt><trkpt lat="43.07594884503106" lon="11.41668641476439"><ele>430.0</ele><time>2026-04-11T11:54:08Z</time></trkpt><trkpt lat="43.07589148333453" lon="11.416646774776842"><ele>430.0</ele><time>2026-04-11T11:54:12Z</time></trkpt><trkpt lat="43.07583428892452" lon="11.416574576283892"><ele>430.0</ele><time>2026-04-11T11:54:17Z</time></trkpt><trkpt lat="43.07577608994396" lon="11.416526650206672"><ele>430.0</ele><time>2026-04-11T11:54:21Z</time></trkpt><trkpt lat="43.075713573913475" lon="11.416482595229258"><ele>430.0</ele><time>2026-04-11T11:54:25Z</time></trkpt><trkpt lat="43.07565133563948" lon="11.416430298161389"><ele>430.0</ele><time>2026-04-11T11:54:29Z</time></trkpt><trkpt lat="43.07559719601801" lon="11.416383301693767"><ele>430.57142857142856</ele><time>2026-04-11T11:54:33Z</time></trkpt><trkpt lat="43.07553988962428" lon="11.416337276150207"><ele>431.14285714285717</ele><time>2026-04-11T11:54:37Z</time></trkpt><trkpt lat="43.07547610747895" lon="11.416292164229965"><ele>431.7142857142857</ele><time>2026-04-11T11:54:41Z</time></trkpt><trkpt lat="43.075419094576006" lon="11.416243067453193"><ele>432.2857142857143</ele><time>2026-04-11T11:54:45Z</time></trkpt><trkpt lat="43.07535223776568" lon="11.416196923310487"><ele>432.8571428571429</ele><time>2026-04-11T11:54:50Z</time></trkpt><trkpt lat="43.07528988076704" lon="11.416160595835809"><ele>433.42857142857144</ele><time>2026-04-11T11:54:55Z</time></trkpt><trkpt lat="43.07523711309913" lon="11.416108025096001"><ele>434.0</ele><time>2026-04-11T11:55:00Z</time></trkpt><trkpt lat="43.07517624968202" lon="11.416053395856949"><ele>434.14285714285717</ele><time>2026-04-11T11:55:06Z</time></trkpt><trkpt lat="43.07511513322368" lon="11.416022880870893"><ele>434.2857142857143</ele><time>2026-04-11T11:55:12Z</time></trkpt><trkpt lat="43.0750531583368" lon="11.415977355764001"><ele>434.42857142857144</ele><time>2026-04-11T11:55:17.999Z</time></trkpt><trkpt lat="43.074981255666295" lon="11.415939727828054"><ele>434.57142857142856</ele><time>2026-04-11T11:55:23.999Z</time></trkpt><trkpt lat="43.074907793448006" lon="11.415900694875294"><ele>434.7142857142857</ele><time>2026-04-11T11:55:30Z</time></trkpt><trkpt lat="43.07484835133469" lon="11.415871826231736"><ele>434.8571428571429</ele><time>2026-04-11T11:55:35Z</time></trkpt><trkpt lat="43.074786693607194" lon="11.41585258852651"><ele>435.0</ele><time>2026-04-11T11:55:40Z</time></trkpt><trkpt lat="43.07472562402891" lon="11.415812207068898"><ele>435.7142857142857</ele><time>2026-04-11T11:55:45Z</time></trkpt><trkpt lat="43.07465170224884" lon="11.415808686781464"><ele>436.42857142857144</ele><time>2026-04-11T11:55:51Z</time></trkpt><trkpt lat="43.07458743800111" lon="11.415825556652775"><ele>437.1428571428571</ele><time>2026-04-11T11:56:04Z</time></trkpt><trkpt lat="43.07453231223971" lon="11.415777404130042"><ele>437.8571428571429</ele><time>2026-04-11T11:56:09Z</time></trkpt><trkpt lat="43.07447084475277" lon="11.415753526644348"><ele>438.57142857142856</ele><time>2026-04-11T11:56:16Z</time></trkpt><trkpt lat="43.074410712555306" lon="11.415713318420428"><ele>439.2857142857143</ele><time>2026-04-11T11:56:23Z</time></trkpt><trkpt lat="43.07436309608191" lon="11.415645442691094"><ele>440.0</ele><time>2026-04-11T11:56:31Z</time></trkpt><trkpt lat="43.074339871294924" lon="11.415547611394496"><ele>441.4285714285714</ele><time>2026-04-11T11:56:38Z</time></trkpt><trkpt lat="43.074341116939834" lon="11.415448666266835"><ele>442.8571428571429</ele><time>2026-04-11T11:56:47Z</time></trkpt><trkpt lat="43.07434312680537" lon="11.415354173307655"><ele>444.28571428571433</ele><time>2026-04-11T11:56:53.999Z</time></trkpt><trkpt lat="43.0743402203112" lon="11.415263857798365"><ele>445.7142857142857</ele><time>2026-04-11T11:56:59.999Z</time></trkpt><trkpt lat="43.074339256605874" lon="11.415167078015315"><ele>447.14285714285717</ele><time>2026-04-11T11:57:06.999Z</time></trkpt><trkpt lat="43.07434229217065" lon="11.415072882926722"><ele>448.5714285714286</ele><time>2026-04-11T11:57:12.999Z</time></trkpt><trkpt lat="43.07431884225908" lon="11.414987459667692"><ele>450.00000000000006</ele><time>2026-04-11T11:57:19.999Z</time></trkpt><trkpt lat="43.07429822109769" lon="11.4149020496259"><ele>450.00000000000006</ele><time>2026-04-11T11:57:25.999Z</time></trkpt><trkpt lat="43.07427666682234" lon="11.41482017431168"><ele>450.0</ele><time>2026-04-11T11:57:31.999Z</time></trkpt><trkpt lat="43.07425155229638" lon="11.414726304447921"><ele>450.00000000000006</ele><time>2026-04-11T11:57:39Z</time></trkpt><trkpt lat="43.07422218596592" lon="11.414636951534312"><ele>450.00000000000006</ele><time>2026-04-11T11:57:47Z</time></trkpt><trkpt lat="43.07418813733767" lon="11.41456002158753"><ele>450.0</ele><time>2026-04-11T11:57:53Z</time></trkpt><trkpt lat="43.07414996920168" lon="11.414488552575616"><ele>450.00000000000006</ele><time>2026-04-11T11:58:00Z</time></trkpt><trkpt lat="43.07408676296503" lon="11.414487887607448"><ele>450.00000000000006</ele><time>2026-04-11T11:58:14Z</time></trkpt><trkpt lat="43.074018570884384" lon="11.41445555904741"><ele>452.57142857142867</ele><time>2026-04-11T11:58:20Z</time></trkpt><trkpt lat="43.073956765362816" lon="11.414401991044931"><ele>455.14285714285717</ele><time>2026-04-11T11:58:26Z</time></trkpt><trkpt lat="43.07389206144279" lon="11.41439787503825"><ele>457.7142857142858</ele><time>2026-04-11T11:58:32Z</time></trkpt><trkpt lat="43.073827004446244" lon="11.414408091652094"><ele>460.28571428571433</ele><time>2026-04-11T11:58:38.999Z</time></trkpt><trkpt lat="43.073758112792675" lon="11.414401749855612"><ele>462.8571428571429</ele><time>2026-04-11T11:58:44.999Z</time></trkpt><trkpt lat="43.073690647799744" lon="11.4143959935188"><ele>465.42857142857144</ele><time>2026-04-11T11:58:50.999Z</time></trkpt><trkpt lat="43.07361498388735" lon="11.414375560630988"><ele>468.0</ele><time>2026-04-11T11:58:56.999Z</time></trkpt><trkpt lat="43.07354801075341" lon="11.414366378488246"><ele>468.0</ele><time>2026-04-11T11:59:02.999Z</time></trkpt><trkpt lat="43.07347329811029" lon="11.41434238094678"><ele>468.00000000000006</ele><time>2026-04-11T11:59:08.999Z</time></trkpt><trkpt lat="43.07340660738185" lon="11.414315322563096"><ele>468.0</ele><time>2026-04-11T11:59:13.999Z</time></trkpt><trkpt lat="43.07333189720034" lon="11.414282613857601"><ele>468.0</ele><time>2026-04-11T11:59:18.999Z</time></trkpt><trkpt lat="43.07325748721237" lon="11.414262267537165"><ele>468.00000000000006</ele><time>2026-04-11T11:59:23.999Z</time></trkpt><trkpt lat="43.07319354020265" lon="11.41425437446546"><ele>468.0</ele><time>2026-04-11T11:59:27.999Z</time></trkpt><trkpt lat="43.07312796942298" lon="11.41425291424717"><ele>468.0</ele><time>2026-04-11T11:59:31.999Z</time></trkpt><trkpt lat="43.073059727926" lon="11.414254991162794"><ele>469.28571428571433</ele><time>2026-04-11T11:59:35.999Z</time></trkpt><trkpt lat="43.07299202571816" lon="11.41426642457558"><ele>470.5714285714286</ele><time>2026-04-11T11:59:41Z</time></trkpt><trkpt lat="43.07292717903288" lon="11.414288696471399"><ele>471.8571428571429</ele><time>2026-04-11T11:59:47Z</time></trkpt><trkpt lat="43.072858200820775" lon="11.41430557498606"><ele>473.1428571428571</ele><time>2026-04-11T11:59:55Z</time></trkpt><trkpt lat="43.07279218486865" lon="11.414302069628144"><ele>474.4285714285714</ele><time>2026-04-11T12:00:01Z</time></trkpt><trkpt lat="43.0727242811341" lon="11.414305967160018"><ele>475.71428571428567</ele><time>2026-04-11T12:00:07Z</time></trkpt><trkpt lat="43.072662639106994" lon="11.414286232340078"><ele>477.0</ele><time>2026-04-11T12:00:12Z</time></trkpt><trkpt lat="43.07259791926158" lon="11.414294139902024"><ele>477.0</ele><time>2026-04-11T12:00:18Z</time></trkpt><trkpt lat="43.07254304726426" lon="11.414246629219704"><ele>476.99999999999994</ele><time>2026-04-11T12:00:24Z</time></trkpt><trkpt lat="43.07247634012981" lon="11.414222221974683"><ele>477.0</ele><time>2026-04-11T12:00:30.999Z</time></trkpt><trkpt lat="43.07240770897702" lon="11.414208618617081"><ele>477.0</ele><time>2026-04-11T12:00:37.999Z</time></trkpt><trkpt lat="43.07234659144093" lon="11.41417815595094"><ele>476.99999999999994</ele><time>2026-04-11T12:00:44.999Z</time></trkpt><trkpt lat="43.0722858406068" lon="11.41412779294767"><ele>477.0</ele><time>2026-04-11T12:00:50.999Z</time></trkpt><trkpt lat="43.072234822741926" lon="11.41407157915939"><ele>477.0</ele><time>2026-04-11T12:00:55.999Z</time></trkpt><trkpt lat="43.0721478460553" lon="11.414005535302419"><ele>476.6</ele><time>2026-04-11T12:00:59.999Z</time></trkpt><trkpt lat="43.072055881283795" lon="11.413940428092001"><ele>476.20000000000005</ele><time>2026-04-11T12:01:02.999Z</time></trkpt><trkpt lat="43.0719674796701" lon="11.413908556165948"><ele>475.8</ele><time>2026-04-11T12:01:05.999Z</time></trkpt><trkpt lat="43.07187014262893" lon="11.413877573778382"><ele>475.4</ele><time>2026-04-11T12:01:08.999Z</time></trkpt><trkpt lat="43.071783826065584" lon="11.413839267840657"><ele>475.0</ele><time>2026-04-11T12:01:10.999Z</time></trkpt><trkpt lat="43.0716917848077" lon="11.413776956182236"><ele>476.83333333333337</ele><time>2026-04-11T12:01:12.999Z</time></trkpt><trkpt lat="43.07159557839033" lon="11.413701453711784"><ele>478.6666666666667</ele><time>2026-04-11T12:01:14.999Z</time></trkpt><trkpt lat="43.07149333549118" lon="11.413617810025835"><ele>480.5</ele><time>2026-04-11T12:01:16.999Z</time></trkpt><trkpt lat="43.07146141891067" lon="11.413530003387605"><ele>482.33333333333337</ele><time>2026-04-11T12:01:17.999Z</time></trkpt><trkpt lat="43.07140058617768" lon="11.413503255882862"><ele>484.1666666666667</ele><time>2026-04-11T12:01:18.999Z</time></trkpt><trkpt lat="43.07133073215582" lon="11.413504759918123"><ele>486.0</ele><time>2026-04-11T12:01:19.999Z</time></trkpt><trkpt lat="43.071228107209855" lon="11.413547249755336"><ele>486.0</ele><time>2026-04-11T12:01:21.999Z</time></trkpt><trkpt lat="43.07116117880846" lon="11.413580417695256"><ele>486.0</ele><time>2026-04-11T12:01:23.999Z</time></trkpt><trkpt lat="43.07108406927086" lon="11.413592032670447"><ele>486.0</ele><time>2026-04-11T12:01:26.999Z</time></trkpt><trkpt lat="43.07100681086587" lon="11.413579726244189"><ele>486.0</ele><time>2026-04-11T12:01:30.999Z</time></trkpt><trkpt lat="43.0709372751802" lon="11.413547846499764"><ele>486.0</ele><time>2026-04-11T12:01:35.999Z</time></trkpt><trkpt lat="43.070879849040054" lon="11.413483597753219"><ele>486.0</ele><time>2026-04-11T12:01:40.999Z</time></trkpt><trkpt lat="43.070796926939295" lon="11.413463674878619"><ele>487.2857142857143</ele><time>2026-04-11T12:01:44.999Z</time></trkpt><trkpt lat="43.07075358585998" lon="11.413393420749507"><ele>488.57142857142856</ele><time>2026-04-11T12:01:49Z</time></trkpt><trkpt lat="43.070698853609905" lon="11.413323852417085"><ele>489.85714285714283</ele><time>2026-04-11T12:01:53Z</time></trkpt><trkpt lat="43.0706489747937" lon="11.413267864915285"><ele>491.1428571428571</ele><time>2026-04-11T12:01:57Z</time></trkpt><trkpt lat="43.0705952313021" lon="11.413200558965203"><ele>492.42857142857144</ele><time>2026-04-11T12:02:01Z</time></trkpt><trkpt lat="43.0705468419461" lon="11.41312621642002"><ele>493.71428571428567</ele><time>2026-04-11T12:02:05Z</time></trkpt><trkpt lat="43.070497510587785" lon="11.413069691364381"><ele>494.99999999999994</ele><time>2026-04-11T12:02:09Z</time></trkpt><trkpt lat="43.07043744814082" lon="11.413013800046304"><ele>494.99999999999994</ele><time>2026-04-11T12:02:13Z</time></trkpt><trkpt lat="43.07038100313782" lon="11.4129589483675"><ele>495.0</ele><time>2026-04-11T12:02:17Z</time></trkpt><trkpt lat="43.07031560983994" lon="11.412933210964521"><ele>494.99999999999994</ele><time>2026-04-11T12:02:21Z</time></trkpt><trkpt lat="43.07025191176267" lon="11.412926393503886"><ele>494.99999999999994</ele><time>2026-04-11T12:02:24.999Z</time></trkpt><trkpt lat="43.07019115440297" lon="11.41294899175018"><ele>495.0</ele><time>2026-04-11T12:02:28.999Z</time></trkpt><trkpt lat="43.07014012760859" lon="11.41303238042491"><ele>494.99999999999994</ele><time>2026-04-11T12:02:32.999Z</time></trkpt><trkpt lat="43.07009736977696" lon="11.413112296806455"><ele>494.99999999999994</ele><time>2026-04-11T12:02:36.999Z</time></trkpt><trkpt lat="43.07006942062636" lon="11.413196916300517"><ele>494.99999999999994</ele><time>2026-04-11T12:02:40.999Z</time></trkpt><trkpt lat="43.07003994655357" lon="11.413299632027773"><ele>495.0</ele><time>2026-04-11T12:02:45.999Z</time></trkpt><trkpt lat="43.070021903651714" lon="11.413383739698533"><ele>494.99999999999994</ele><time>2026-04-11T12:02:49.999Z</time></trkpt><trkpt lat="43.07000148407987" lon="11.413467520397377"><ele>494.99999999999994</ele><time>2026-04-11T12:02:53.999Z</time></trkpt><trkpt lat="43.06998001181996" lon="11.413569978028905"><ele>495.0</ele><time>2026-04-11T12:02:57.999Z</time></trkpt><trkpt lat="43.06996705333921" lon="11.413665555512452"><ele>494.99999999999994</ele><time>2026-04-11T12:03:01.999Z</time></trkpt><trkpt lat="43.069974301834876" lon="11.413766478043017"><ele>494.99999999999994</ele><time>2026-04-11T12:03:05.999Z</time></trkpt><trkpt lat="43.06998848010221" lon="11.413866024302667"><ele>494.8571428571428</ele><time>2026-04-11T12:03:09.999Z</time></trkpt><trkpt lat="43.069994135849434" lon="11.413954787666299"><ele>494.71428571428567</ele><time>2026-04-11T12:03:13.999Z</time></trkpt><trkpt lat="43.06999728791517" lon="11.414050365717905"><ele>494.57142857142856</ele><time>2026-04-11T12:03:17.999Z</time></trkpt><trkpt lat="43.07000325349492" lon="11.414141882542067"><ele>494.4285714285714</ele><time>2026-04-11T12:03:20.999Z</time></trkpt><trkpt lat="43.07001021665497" lon="11.414248159179385"><ele>494.2857142857142</ele><time>2026-04-11T12:03:24.999Z</time></trkpt><trkpt lat="43.07001182434707" lon="11.41434818335187"><ele>494.14285714285717</ele><time>2026-04-11T12:03:28.999Z</time></trkpt><trkpt lat="43.06999160465337" lon="11.414453677812993"><ele>494.0</ele><time>2026-04-11T12:03:32.999Z</time></trkpt><trkpt lat="43.06997876033895" lon="11.414552541513443"><ele>494.0</ele><time>2026-04-11T12:03:36.999Z</time></trkpt><trkpt lat="43.06995003645787" lon="11.414645403238874"><ele>494.0</ele><time>2026-04-11T12:03:40.999Z</time></trkpt><trkpt lat="43.06991703040385" lon="11.414724503298173"><ele>494.0</ele><time>2026-04-11T12:03:44.999Z</time></trkpt><trkpt lat="43.06987991822494" lon="11.414802806010169"><ele>494.0</ele><time>2026-04-11T12:03:48.999Z</time></trkpt><trkpt lat="43.06984004014341" lon="11.414883202245994"><ele>494.0</ele><time>2026-04-11T12:03:53Z</time></trkpt><trkpt lat="43.06978517769086" lon="11.41496171206776"><ele>494.0</ele><time>2026-04-11T12:03:56Z</time></trkpt><trkpt lat="43.06971953080459" lon="11.415021739405592"><ele>494.0</ele><time>2026-04-11T12:04:00Z</time></trkpt><trkpt lat="43.069639372874974" lon="11.415078567084862"><ele>494.7142857142857</ele><time>2026-04-11T12:04:03Z</time></trkpt><trkpt lat="43.069579692228714" lon="11.415108183051549"><ele>495.42857142857144</ele><time>2026-04-11T12:04:05Z</time></trkpt><trkpt lat="43.06951768695582" lon="11.41514937771818"><ele>496.14285714285717</ele><time>2026-04-11T12:04:07Z</time></trkpt><trkpt lat="43.069453291941166" lon="11.41519488393486"><ele>496.8571428571429</ele><time>2026-04-11T12:04:09Z</time></trkpt><trkpt lat="43.06939106726139" lon="11.415248050978722"><ele>497.57142857142856</ele><time>2026-04-11T12:04:11Z</time></trkpt><trkpt lat="43.06931860683591" lon="11.415322729602876"><ele>498.28571428571433</ele><time>2026-04-11T12:04:14Z</time></trkpt><trkpt lat="43.06926534534286" lon="11.415380284170867"><ele>499.00000000000006</ele><time>2026-04-11T12:04:16Z</time></trkpt><trkpt lat="43.06920466269075" lon="11.415436289930835"><ele>499.0</ele><time>2026-04-11T12:04:18Z</time></trkpt><trkpt lat="43.06913855318911" lon="11.415484355439823"><ele>499.0</ele><time>2026-04-11T12:04:19.999Z</time></trkpt><trkpt lat="43.069017974035035" lon="11.415530933589796"><ele>499.0</ele><time>2026-04-11T12:04:21.999Z</time></trkpt><trkpt lat="43.06892741395486" lon="11.415549502701788"><ele>499.0</ele><time>2026-04-11T12:04:23.999Z</time></trkpt><trkpt lat="43.06882959309064" lon="11.415564661007801"><ele>499.0</ele><time>2026-04-11T12:04:25.999Z</time></trkpt><trkpt lat="43.06871873238809" lon="11.415597375789645"><ele>497.1666666666667</ele><time>2026-04-11T12:04:27.999Z</time></trkpt><trkpt lat="43.068606669586636" lon="11.415675274128853"><ele>495.33333333333337</ele><time>2026-04-11T12:04:29.999Z</time></trkpt><trkpt lat="43.06854824916983" lon="11.41572343495189"><ele>493.5</ele><time>2026-04-11T12:04:30.999Z</time></trkpt><trkpt lat="43.06849391054301" lon="11.41578249719494"><ele>491.66666666666663</ele><time>2026-04-11T12:04:31.999Z</time></trkpt><trkpt lat="43.06843184556277" lon="11.415818950578007"><ele>489.8333333333333</ele><time>2026-04-11T12:04:32.999Z</time></trkpt><trkpt lat="43.068381707753915" lon="11.415884021054108"><ele>488.0</ele><time>2026-04-11T12:04:33.999Z</time></trkpt><trkpt lat="43.068344707978625" lon="11.415955998702476"><ele>487.8333333333333</ele><time>2026-04-11T12:04:34.999Z</time></trkpt><trkpt lat="43.068245316183464" lon="11.416062491799902"><ele>487.66666666666663</ele><time>2026-04-11T12:04:36.999Z</time></trkpt><trkpt lat="43.06819626820818" lon="11.41612469283974"><ele>487.5</ele><time>2026-04-11T12:04:37.999Z</time></trkpt><trkpt lat="43.06813693063132" lon="11.416161501041742"><ele>487.33333333333337</ele><time>2026-04-11T12:04:38.999Z</time></trkpt><trkpt lat="43.06808267332883" lon="11.416207462755168"><ele>487.1666666666667</ele><time>2026-04-11T12:04:39.999Z</time></trkpt><trkpt lat="43.06800648292407" lon="11.416264672135219"><ele>487.0</ele><time>2026-04-11T12:04:40.999Z</time></trkpt><trkpt lat="43.06790340001308" lon="11.416329207813096"><ele>489.0</ele><time>2026-04-11T12:04:42.999Z</time></trkpt><trkpt lat="43.06780970217589" lon="11.416409491578284"><ele>491.00000000000006</ele><time>2026-04-11T12:04:44.999Z</time></trkpt><trkpt lat="43.06775424487324" lon="11.416536749817721"><ele>493.00000000000006</ele><time>2026-04-11T12:04:46.999Z</time></trkpt><trkpt lat="43.06771006227392" lon="11.416633376437472"><ele>495.0</ele><time>2026-04-11T12:04:48.999Z</time></trkpt><trkpt lat="43.0676897070975" lon="11.416718006135202"><ele>497.0</ele><time>2026-04-11T12:04:50.999Z</time></trkpt><trkpt lat="43.06766436975775" lon="11.416827869332302"><ele>497.0</ele><time>2026-04-11T12:04:53.999Z</time></trkpt><trkpt lat="43.067624822398344" lon="11.416929731990042"><ele>497.0</ele><time>2026-04-11T12:04:56.999Z</time></trkpt><trkpt lat="43.067607385378786" lon="11.417015733759401"><ele>497.0</ele><time>2026-04-11T12:04:58.999Z</time></trkpt><trkpt lat="43.067572902475725" lon="11.417092900229775"><ele>497.0</ele><time>2026-04-11T12:05:00.999Z</time></trkpt><trkpt lat="43.06753029315767" lon="11.417171325695994"><ele>497.0</ele><time>2026-04-11T12:05:02.999Z</time></trkpt><trkpt lat="43.0674781384294" lon="11.417244756693112"><ele>497.0</ele><time>2026-04-11T12:05:04.999Z</time></trkpt><trkpt lat="43.06743282265028" lon="11.417333180515907"><ele>497.0</ele><time>2026-04-11T12:05:06.999Z</time></trkpt><trkpt lat="43.067379811124" lon="11.417404315534977"><ele>498.16666666666663</ele><time>2026-04-11T12:05:08.999Z</time></trkpt><trkpt lat="43.06733125448151" lon="11.41747058045918"><ele>499.3333333333333</ele><time>2026-04-11T12:05:10.999Z</time></trkpt><trkpt lat="43.06727249586923" lon="11.417529269265238"><ele>500.5</ele><time>2026-04-11T12:05:13.999Z</time></trkpt><trkpt lat="43.067190905857295" lon="11.417589490001857"><ele>501.66666666666663</ele><time>2026-04-11T12:05:16.999Z</time></trkpt><trkpt lat="43.06711660087544" lon="11.41762898992227"><ele>502.8333333333333</ele><time>2026-04-11T12:05:19.999Z</time></trkpt><trkpt lat="43.06702807938361" lon="11.417656555883624"><ele>504.0</ele><time>2026-04-11T12:05:22.999Z</time></trkpt><trkpt lat="43.066956795230915" lon="11.417680787992564"><ele>504.0</ele><time>2026-04-11T12:05:24.999Z</time></trkpt><trkpt lat="43.06688453507346" lon="11.417706469521566"><ele>504.0</ele><time>2026-04-11T12:05:26.999Z</time></trkpt><trkpt lat="43.066825175353756" lon="11.417753293115922"><ele>504.0</ele><time>2026-04-11T12:05:28.999Z</time></trkpt><trkpt lat="43.06677243838928" lon="11.417825085143402"><ele>504.0</ele><time>2026-04-11T12:05:31.999Z</time></trkpt><trkpt lat="43.06672967151764" lon="11.417905370312987"><ele>504.0</ele><time>2026-04-11T12:05:34.999Z</time></trkpt><trkpt lat="43.066693576708474" lon="11.417985814517086"><ele>504.0</ele><time>2026-04-11T12:05:36.999Z</time></trkpt><trkpt lat="43.06666083587777" lon="11.418063399476544"><ele>504.0</ele><time>2026-04-11T12:05:37.999Z</time></trkpt><trkpt lat="43.06663379387704" lon="11.41816274612508"><ele>500.79999999999995</ele><time>2026-04-11T12:05:39.999Z</time></trkpt><trkpt lat="43.06661103251299" lon="11.418252292380277"><ele>497.59999999999997</ele><time>2026-04-11T12:05:41.999Z</time></trkpt><trkpt lat="43.06656719856196" lon="11.418456043416963"><ele>494.4</ele><time>2026-04-11T12:05:44.999Z</time></trkpt><trkpt lat="43.066550622393386" lon="11.418587183304084"><ele>491.2</ele><time>2026-04-11T12:05:46.999Z</time></trkpt><trkpt lat="43.06654159155635" lon="11.418721719217972"><ele>488.0</ele><time>2026-04-11T12:05:48.999Z</time></trkpt><trkpt lat="43.06653817365758" lon="11.418846068711483"><ele>486.8333333333333</ele><time>2026-04-11T12:05:50.999Z</time></trkpt><trkpt lat="43.066531429537974" lon="11.418944763061422"><ele>485.66666666666663</ele><time>2026-04-11T12:05:52.999Z</time></trkpt><trkpt lat="43.06653286640061" lon="11.419039418402546"><ele>484.5</ele><time>2026-04-11T12:05:54.999Z</time></trkpt><trkpt lat="43.0665415328388" lon="11.419160381243222"><ele>483.33333333333337</ele><time>2026-04-11T12:05:58Z</time></trkpt><trkpt lat="43.06654246747464" lon="11.419274280626123"><ele>482.1666666666667</ele><time>2026-04-11T12:06:01Z</time></trkpt><trkpt lat="43.066553363844505" lon="11.419422909926503"><ele>481.0</ele><time>2026-04-11T12:06:04Z</time></trkpt><trkpt lat="43.0665442618658" lon="11.419527711994007"><ele>481.8</ele><time>2026-04-11T12:06:06Z</time></trkpt><trkpt lat="43.066560743422926" lon="11.41966862527422"><ele>482.6</ele><time>2026-04-11T12:06:08Z</time></trkpt><trkpt lat="43.06655954758564" lon="11.419814164551687"><ele>483.4</ele><time>2026-04-11T12:06:10Z</time></trkpt><trkpt lat="43.06654098798359" lon="11.419921041315233"><ele>484.2</ele><time>2026-04-11T12:06:12Z</time></trkpt><trkpt lat="43.066486867906455" lon="11.42004759707536"><ele>485.0</ele><time>2026-04-11T12:06:14Z</time></trkpt><trkpt lat="43.06639114512318" lon="11.420220251083032"><ele>485.0</ele><time>2026-04-11T12:06:16.999Z</time></trkpt><trkpt lat="43.06633333057831" lon="11.420328318351922"><ele>485.0</ele><time>2026-04-11T12:06:18.999Z</time></trkpt><trkpt lat="43.06629170521969" lon="11.420468795790628"><ele>485.0</ele><time>2026-04-11T12:06:20.999Z</time></trkpt><trkpt lat="43.066222654581686" lon="11.42059076299507"><ele>485.0</ele><time>2026-04-11T12:06:22.999Z</time></trkpt><trkpt lat="43.06616102418558" lon="11.420720184760052"><ele>485.0</ele><time>2026-04-11T12:06:24.999Z</time></trkpt><trkpt lat="43.066091067681974" lon="11.420849300343448"><ele>486.75</ele><time>2026-04-11T12:06:26.999Z</time></trkpt><trkpt lat="43.066020617012114" lon="11.420973398305504"><ele>488.5</ele><time>2026-04-11T12:06:28.999Z</time></trkpt><trkpt lat="43.06594843790995" lon="11.42109557104588"><ele>490.25</ele><time>2026-04-11T12:06:30.999Z</time></trkpt><trkpt lat="43.06587549926917" lon="11.421222296078872"><ele>492.0</ele><time>2026-04-11T12:06:32.999Z</time></trkpt><trkpt lat="43.0658069188849" lon="11.421361783456536"><ele>491.0</ele><time>2026-04-11T12:06:34.999Z</time></trkpt><trkpt lat="43.06576209252692" lon="11.421458659244207"><ele>490.0</ele><time>2026-04-11T12:06:35.999Z</time></trkpt><trkpt lat="43.06572750550851" lon="11.421533406361862"><ele>489.0</ele><time>2026-04-11T12:06:36.999Z</time></trkpt><trkpt lat="43.06568985368104" lon="11.421609391989232"><ele>488.0</ele><time>2026-04-11T12:06:37.999Z</time></trkpt><trkpt lat="43.065651752094155" lon="11.42167876873641"><ele>487.0</ele><time>2026-04-11T12:06:38.999Z</time></trkpt><trkpt lat="43.065609683249434" lon="11.421745917639626"><ele>486.0</ele><time>2026-04-11T12:06:39.999Z</time></trkpt><trkpt lat="43.06551687831636" lon="11.421851557398362"><ele>486.0</ele><time>2026-04-11T12:06:41.999Z</time></trkpt><trkpt lat="43.065415600234736" lon="11.42193340513583"><ele>486.0</ele><time>2026-04-11T12:06:43.999Z</time></trkpt><trkpt lat="43.06535855106633" lon="11.421988796263037"><ele>486.0</ele><time>2026-04-11T12:06:44.999Z</time></trkpt><trkpt lat="43.06529913236658" lon="11.422050614413843"><ele>486.0</ele><time>2026-04-11T12:06:45.999Z</time></trkpt><trkpt lat="43.06523613926084" lon="11.422105193556021"><ele>486.0</ele><time>2026-04-11T12:06:46.999Z</time></trkpt><trkpt lat="43.06514238121742" lon="11.422162764487929"><ele>486.0</ele><time>2026-04-11T12:06:47.999Z</time></trkpt><trkpt lat="43.06504105324384" lon="11.422203643239415"><ele>486.0</ele><time>2026-04-11T12:06:48.999Z</time></trkpt><trkpt lat="43.06497136614656" lon="11.422204427462356"><ele>486.0</ele><time>2026-04-11T12:06:50.999Z</time></trkpt><trkpt lat="43.064903372918515" lon="11.422203225494199"><ele>486.0</ele><time>2026-04-11T12:06:51.999Z</time></trkpt><trkpt lat="43.064828457959806" lon="11.422203745219601"><ele>486.0</ele><time>2026-04-11T12:06:52.999Z</time></trkpt><trkpt lat="43.06474947193074" lon="11.422204293183773"><ele>486.0</ele><time>2026-04-11T12:06:53.999Z</time></trkpt><trkpt lat="43.06467785249954" lon="11.422198999123852"><ele>486.0</ele><time>2026-04-11T12:06:54.999Z</time></trkpt><trkpt lat="43.06460619506066" lon="11.422189229833757"><ele>486.0</ele><time>2026-04-11T12:06:55.999Z</time></trkpt><trkpt lat="43.0645372289249" lon="11.422171874907267"><ele>484.8333333333333</ele><time>2026-04-11T12:06:56.999Z</time></trkpt><trkpt lat="43.06446158301661" lon="11.422147171153032"><ele>483.66666666666663</ele><time>2026-04-11T12:06:57.999Z</time></trkpt><trkpt lat="43.06438729346681" lon="11.422118039424664"><ele>482.5</ele><time>2026-04-11T12:06:58.999Z</time></trkpt><trkpt lat="43.0643151364451" lon="11.422086813332891"><ele>481.3333333333333</ele><time>2026-04-11T12:06:59.999Z</time></trkpt><trkpt lat="43.06424148261465" lon="11.42205170779506"><ele>480.16666666666663</ele><time>2026-04-11T12:07:00.999Z</time></trkpt><trkpt lat="43.06417359844175" lon="11.422018708548629"><ele>479.0</ele><time>2026-04-11T12:07:01.999Z</time></trkpt><trkpt lat="43.06410873906819" lon="11.421985850663614"><ele>477.8333333333333</ele><time>2026-04-11T12:07:02.999Z</time></trkpt><trkpt lat="43.06403848671916" lon="11.421947409078987"><ele>476.66666666666663</ele><time>2026-04-11T12:07:03.999Z</time></trkpt><trkpt lat="43.063958380074254" lon="11.421918333680305"><ele>475.5</ele><time>2026-04-11T12:07:04.999Z</time></trkpt><trkpt lat="43.06386537513115" lon="11.421929309870947"><ele>474.33333333333337</ele><time>2026-04-11T12:07:05.999Z</time></trkpt><trkpt lat="43.06378101337554" lon="11.421956113368703"><ele>473.1666666666667</ele><time>2026-04-11T12:07:06.999Z</time></trkpt><trkpt lat="43.063703621827365" lon="11.421966545014666"><ele>472.0</ele><time>2026-04-11T12:07:07.999Z</time></trkpt><trkpt lat="43.06363398578065" lon="11.421980613511655"><ele>472.00000000000006</ele><time>2026-04-11T12:07:08.999Z</time></trkpt><trkpt lat="43.06356624574694" lon="11.422004177184746"><ele>472.0</ele><time>2026-04-11T12:07:09.999Z</time></trkpt><trkpt lat="43.06351365433905" lon="11.422066432505266"><ele>472.0</ele><time>2026-04-11T12:07:10.999Z</time></trkpt><trkpt lat="43.06346208626527" lon="11.422124244517006"><ele>472.0</ele><time>2026-04-11T12:07:11.999Z</time></trkpt><trkpt lat="43.06343835394996" lon="11.422237900578637"><ele>472.00000000000006</ele><time>2026-04-11T12:07:12.999Z</time></trkpt><trkpt lat="43.06345476304094" lon="11.42236041886374"><ele>472.0</ele><time>2026-04-11T12:07:13.999Z</time></trkpt><trkpt lat="43.06347648170668" lon="11.42247048953876"><ele>472.00000000000006</ele><time>2026-04-11T12:07:14.999Z</time></trkpt><trkpt lat="43.063509499887694" lon="11.422575359607503"><ele>472.0</ele><time>2026-04-11T12:07:15.999Z</time></trkpt><trkpt lat="43.06353497270389" lon="11.422685879295022"><ele>472.0</ele><time>2026-04-11T12:07:16.999Z</time></trkpt><trkpt lat="43.06353698882222" lon="11.422809306261316"><ele>472.0</ele><time>2026-04-11T12:07:17.999Z</time></trkpt><trkpt lat="43.06351606313883" lon="11.42293696902389"><ele>472.00000000000006</ele><time>2026-04-11T12:07:18.999Z</time></trkpt><trkpt lat="43.063458137095935" lon="11.4230396730944"><ele>472.0</ele><time>2026-04-11T12:07:19.999Z</time></trkpt><trkpt lat="43.063406366477544" lon="11.423145066169992"><ele>471.50000000000006</ele><time>2026-04-11T12:07:20.999Z</time></trkpt><trkpt lat="43.06337406426257" lon="11.423258123767102"><ele>471.0</ele><time>2026-04-11T12:07:21.999Z</time></trkpt><trkpt lat="43.06334027645717" lon="11.423369288735552"><ele>470.5</ele><time>2026-04-11T12:07:22.999Z</time></trkpt><trkpt lat="43.0633165675881" lon="11.423476215541465"><ele>470.0</ele><time>2026-04-11T12:07:23.999Z</time></trkpt><trkpt lat="43.06330793343336" lon="11.423577163698042"><ele>469.50000000000006</ele><time>2026-04-11T12:07:24.999Z</time></trkpt><trkpt lat="43.063315710133196" lon="11.423675104704559"><ele>469.0</ele><time>2026-04-11T12:07:25.999Z</time></trkpt><trkpt lat="43.06333702388818" lon="11.423769626507807"><ele>468.33333333333337</ele><time>2026-04-11T12:07:26.999Z</time></trkpt><trkpt lat="43.06336324168453" lon="11.423861100942577"><ele>467.6666666666667</ele><time>2026-04-11T12:07:27.999Z</time></trkpt><trkpt lat="43.06338282286827" lon="11.423949877265944"><ele>467.0</ele><time>2026-04-11T12:07:28.999Z</time></trkpt><trkpt lat="43.06339211007097" lon="11.424046153647359"><ele>466.33333333333337</ele><time>2026-04-11T12:07:29.999Z</time></trkpt><trkpt lat="43.06338440897101" lon="11.424159103785879"><ele>465.6666666666667</ele><time>2026-04-11T12:07:30.999Z</time></trkpt><trkpt lat="43.06333368897119" lon="11.424268989094012"><ele>465.0</ele><time>2026-04-11T12:07:31.999Z</time></trkpt><trkpt lat="43.063284816061255" lon="11.4243915861441"><ele>464.4</ele><time>2026-04-11T12:07:32.999Z</time></trkpt><trkpt lat="43.06326773190761" lon="11.424537801769786"><ele>463.8</ele><time>2026-04-11T12:07:33.999Z</time></trkpt><trkpt lat="43.06324483461807" lon="11.424668931165023"><ele>463.20000000000005</ele><time>2026-04-11T12:07:34.999Z</time></trkpt><trkpt lat="43.06322988929519" lon="11.424808727923908"><ele>462.6</ele><time>2026-04-11T12:07:35.999Z</time></trkpt><trkpt lat="43.063211083266296" lon="11.42494402402981"><ele>462.0</ele><time>2026-04-11T12:07:36.999Z</time></trkpt><trkpt lat="43.063179389013754" lon="11.425076583664229"><ele>462.0</ele><time>2026-04-11T12:07:37.999Z</time></trkpt><trkpt lat="43.06311168632739" lon="11.425184562313987"><ele>462.00000000000006</ele><time>2026-04-11T12:07:38.999Z</time></trkpt><trkpt lat="43.063047883502946" lon="11.425292384443704"><ele>462.00000000000006</ele><time>2026-04-11T12:07:39.999Z</time></trkpt><trkpt lat="43.062982787921804" lon="11.425389674984597"><ele>462.0</ele><time>2026-04-11T12:07:40.999Z</time></trkpt><trkpt lat="43.062919513038814" lon="11.425493128052947"><ele>462.0</ele><time>2026-04-11T12:07:41.999Z</time></trkpt><trkpt lat="43.06287256770396" lon="11.425600580612395"><ele>462.6666666666667</ele><time>2026-04-11T12:07:42.999Z</time></trkpt><trkpt lat="43.06283824898644" lon="11.425708784693375"><ele>463.33333333333337</ele><time>2026-04-11T12:07:43.999Z</time></trkpt><trkpt lat="43.062827367664234" lon="11.425818291039036"><ele>464.0</ele><time>2026-04-11T12:07:44.999Z</time></trkpt><trkpt lat="43.06281739371129" lon="11.425911050453763"><ele>464.6666666666667</ele><time>2026-04-11T12:07:45.999Z</time></trkpt><trkpt lat="43.062811619051125" lon="11.42605822396449"><ele>465.33333333333337</ele><time>2026-04-11T12:07:47.999Z</time></trkpt><trkpt lat="43.06281177976632" lon="11.426167397764829"><ele>466.0</ele><time>2026-04-11T12:07:49.999Z</time></trkpt><trkpt lat="43.062815631566224" lon="11.426263407283482"><ele>466.8</ele><time>2026-04-11T12:07:51.999Z</time></trkpt><trkpt lat="43.06282827848595" lon="11.426378499488958"><ele>467.6</ele><time>2026-04-11T12:07:53.999Z</time></trkpt><trkpt lat="43.062840991830555" lon="11.42650122313797"><ele>468.4</ele><time>2026-04-11T12:07:55.999Z</time></trkpt><trkpt lat="43.0628528053803" lon="11.426635791009618"><ele>469.2</ele><time>2026-04-11T12:07:57.999Z</time></trkpt><trkpt lat="43.0628752885214" lon="11.426763172592903"><ele>470.0</ele><time>2026-04-11T12:07:59.999Z</time></trkpt><trkpt lat="43.06289585210947" lon="11.426883330464511"><ele>469.99999999999994</ele><time>2026-04-11T12:08:01.999Z</time></trkpt><trkpt lat="43.06290380878046" lon="11.426997468053369"><ele>470.0</ele><time>2026-04-11T12:08:04Z</time></trkpt><trkpt lat="43.06289303027532" lon="11.427100412644121"><ele>470.0</ele><time>2026-04-11T12:08:06Z</time></trkpt><trkpt lat="43.06284597226969" lon="11.42716950346627"><ele>470.0</ele><time>2026-04-11T12:08:08Z</time></trkpt><trkpt lat="43.06280119824968" lon="11.427234550074322"><ele>469.99999999999994</ele><time>2026-04-11T12:08:11Z</time></trkpt><trkpt lat="43.06272971633164" lon="11.427318814262575"><ele>470.0</ele><time>2026-04-11T12:08:14Z</time></trkpt><trkpt lat="43.06265960238745" lon="11.427369391439713"><ele>469.99999999999994</ele><time>2026-04-11T12:08:17Z</time></trkpt><trkpt lat="43.062599488415806" lon="11.427403323426907"><ele>470.0</ele><time>2026-04-11T12:08:20Z</time></trkpt><trkpt lat="43.06254815360668" lon="11.427473414558397"><ele>470.0</ele><time>2026-04-11T12:08:22.999Z</time></trkpt><trkpt lat="43.062477926370946" lon="11.427505830857198"><ele>470.0</ele><time>2026-04-11T12:08:25.999Z</time></trkpt><trkpt lat="43.06240887808345" lon="11.427538673980393"><ele>469.99999999999994</ele><time>2026-04-11T12:08:28.999Z</time></trkpt><trkpt lat="43.06229235228935" lon="11.427589557937363"><ele>470.0</ele><time>2026-04-11T12:08:31.999Z</time></trkpt><trkpt lat="43.062214751031846" lon="11.427622856951567"><ele>469.99999999999994</ele><time>2026-04-11T12:08:33.999Z</time></trkpt><trkpt lat="43.0621497281719" lon="11.427642838838876"><ele>470.0</ele><time>2026-04-11T12:08:34.999Z</time></trkpt><trkpt lat="43.06205018822086" lon="11.427600598002599"><ele>470.0</ele><time>2026-04-11T12:08:36.999Z</time></trkpt><trkpt lat="43.061965798476095" lon="11.427598418346765"><ele>470.0</ele><time>2026-04-11T12:08:38.999Z</time></trkpt><trkpt lat="43.061899316557266" lon="11.427593811670805"><ele>469.99999999999994</ele><time>2026-04-11T12:08:40.999Z</time></trkpt><trkpt lat="43.0618132242556" lon="11.427565505136412"><ele>470.0</ele><time>2026-04-11T12:08:42.999Z</time></trkpt><trkpt lat="43.06173941350984" lon="11.427520268972433"><ele>470.0</ele><time>2026-04-11T12:08:44.999Z</time></trkpt><trkpt lat="43.0616606503397" lon="11.427454700856856"><ele>470.0</ele><time>2026-04-11T12:08:46.999Z</time></trkpt><trkpt lat="43.06156768607593" lon="11.427388114455738"><ele>470.0</ele><time>2026-04-11T12:08:48.999Z</time></trkpt><trkpt lat="43.061507219177074" lon="11.427362825978712"><ele>470.0</ele><time>2026-04-11T12:08:49.999Z</time></trkpt><trkpt lat="43.06139582517689" lon="11.42735022220834"><ele>470.0</ele><time>2026-04-11T12:08:51.999Z</time></trkpt><trkpt lat="43.06129491543088" lon="11.427358662902678"><ele>470.16666666666663</ele><time>2026-04-11T12:08:53.999Z</time></trkpt><trkpt lat="43.06120180604814" lon="11.42738219340305"><ele>470.3333333333333</ele><time>2026-04-11T12:08:55.999Z</time></trkpt><trkpt lat="43.061112055710375" lon="11.42741079029501"><ele>470.5</ele><time>2026-04-11T12:08:57.999Z</time></trkpt><trkpt lat="43.061030813468136" lon="11.42744390834502"><ele>470.66666666666663</ele><time>2026-04-11T12:08:59.999Z</time></trkpt><trkpt lat="43.060966125030795" lon="11.427467975279415"><ele>470.8333333333333</ele><time>2026-04-11T12:09:01.999Z</time></trkpt><trkpt lat="43.06088674956427" lon="11.427481760040576"><ele>471.0</ele><time>2026-04-11T12:09:04.999Z</time></trkpt><trkpt lat="43.06080913068301" lon="11.427523829843006"><ele>472.3333333333333</ele><time>2026-04-11T12:09:07.999Z</time></trkpt><trkpt lat="43.06073081458704" lon="11.427477251908623"><ele>473.66666666666663</ele><time>2026-04-11T12:09:10.999Z</time></trkpt><trkpt lat="43.06066841735003" lon="11.427409651358861"><ele>475.0</ele><time>2026-04-11T12:09:13.999Z</time></trkpt><trkpt lat="43.06060774032341" lon="11.427349209875135"><ele>476.3333333333333</ele><time>2026-04-11T12:09:16.999Z</time></trkpt><trkpt lat="43.060538913235014" lon="11.427302924875312"><ele>477.66666666666663</ele><time>2026-04-11T12:09:19.999Z</time></trkpt><trkpt lat="43.06046802907742" lon="11.427266943207265"><ele>479.0</ele><time>2026-04-11T12:09:22.999Z</time></trkpt><trkpt lat="43.06039795709285" lon="11.427267319762379"><ele>478.99999999999994</ele><time>2026-04-11T12:09:25.999Z</time></trkpt><trkpt lat="43.06033426423786" lon="11.427307881734983"><ele>479.0</ele><time>2026-04-11T12:09:28.999Z</time></trkpt><trkpt lat="43.060294318200434" lon="11.427391970652389"><ele>479.0</ele><time>2026-04-11T12:09:31.999Z</time></trkpt><trkpt lat="43.06028584140873" lon="11.427497048236946"><ele>479.0</ele><time>2026-04-11T12:09:34.999Z</time></trkpt><trkpt lat="43.060269493976705" lon="11.427599253332799"><ele>478.99999999999994</ele><time>2026-04-11T12:09:37.999Z</time></trkpt><trkpt lat="43.06024392411816" lon="11.427704555928699"><ele>479.0</ele><time>2026-04-11T12:09:40.999Z</time></trkpt><trkpt lat="43.060194493581356" lon="11.427780214429148"><ele>479.0</ele><time>2026-04-11T12:09:43.999Z</time></trkpt><trkpt lat="43.060132728139614" lon="11.427817186266246"><ele>479.0</ele><time>2026-04-11T12:09:46.999Z</time></trkpt><trkpt lat="43.06006724697606" lon="11.427843740329923"><ele>479.0</ele><time>2026-04-11T12:09:49.999Z</time></trkpt><trkpt lat="43.06000274238997" lon="11.427883960785504"><ele>479.0</ele><time>2026-04-11T12:09:52.999Z</time></trkpt><trkpt lat="43.05993628076191" lon="11.427925126475856"><ele>479.0</ele><time>2026-04-11T12:09:55.999Z</time></trkpt><trkpt lat="43.05986156426656" lon="11.42794366978988"><ele>479.0</ele><time>2026-04-11T12:09:58.999Z</time></trkpt><trkpt lat="43.059787510119016" lon="11.427923315786089"><ele>479.0</ele><time>2026-04-11T12:10:01.999Z</time></trkpt><trkpt lat="43.05972768929318" lon="11.42787195266387"><ele>479.71428571428567</ele><time>2026-04-11T12:10:04.999Z</time></trkpt><trkpt lat="43.05967705059677" lon="11.427803563069693"><ele>480.42857142857144</ele><time>2026-04-11T12:10:07.999Z</time></trkpt><trkpt lat="43.05963932365434" lon="11.427734288759558"><ele>481.1428571428571</ele><time>2026-04-11T12:10:10.999Z</time></trkpt><trkpt lat="43.0595963596629" lon="11.427665852955021"><ele>481.85714285714283</ele><time>2026-04-11T12:10:13.999Z</time></trkpt><trkpt lat="43.05953861247495" lon="11.42758759560863"><ele>482.57142857142856</ele><time>2026-04-11T12:10:17.999Z</time></trkpt><trkpt lat="43.05949974729482" lon="11.427518841327707"><ele>483.2857142857143</ele><time>2026-04-11T12:10:20.999Z</time></trkpt><trkpt lat="43.05944476527417" lon="11.427445134856864"><ele>484.0</ele><time>2026-04-11T12:10:24.999Z</time></trkpt><trkpt lat="43.05939986200178" lon="11.427380461380316"><ele>484.0</ele><time>2026-04-11T12:10:27.999Z</time></trkpt><trkpt lat="43.059342816004694" lon="11.42732381226974"><ele>483.99999999999994</ele><time>2026-04-11T12:10:30.999Z</time></trkpt><trkpt lat="43.05928182314433" lon="11.427283876537672"><ele>484.0</ele><time>2026-04-11T12:10:33.999Z</time></trkpt><trkpt lat="43.05921541907413" lon="11.427269159886901"><ele>484.0</ele><time>2026-04-11T12:10:36.999Z</time></trkpt><trkpt lat="43.059141696286765" lon="11.427299959757947"><ele>483.99999999999994</ele><time>2026-04-11T12:10:39.999Z</time></trkpt><trkpt lat="43.0590838579356" lon="11.427340985800791"><ele>484.0</ele><time>2026-04-11T12:10:41.999Z</time></trkpt><trkpt lat="43.05904262929138" lon="11.427460491181149"><ele>484.0</ele><time>2026-04-11T12:10:44.999Z</time></trkpt><trkpt lat="43.059023499932344" lon="11.427551955254394"><ele>484.00000000000006</ele><time>2026-04-11T12:10:45.999Z</time></trkpt><trkpt lat="43.05904258454991" lon="11.427655889947697"><ele>484.0</ele><time>2026-04-11T12:10:47.999Z</time></trkpt><trkpt lat="43.05907678514966" lon="11.42777355360273"><ele>484.0</ele><time>2026-04-11T12:10:49.999Z</time></trkpt><trkpt lat="43.059111502602356" lon="11.427871209511657"><ele>484.0</ele><time>2026-04-11T12:10:51.999Z</time></trkpt><trkpt lat="43.0591326007814" lon="11.427973236826631"><ele>484.00000000000006</ele><time>2026-04-11T12:10:54.999Z</time></trkpt><trkpt lat="43.059161860695134" lon="11.428105221164135"><ele>484.0</ele><time>2026-04-11T12:10:57.999Z</time></trkpt><trkpt lat="43.05917114093454" lon="11.428193790369466"><ele>483.1666666666667</ele><time>2026-04-11T12:10:58.999Z</time></trkpt><trkpt lat="43.05914701719093" lon="11.428343378256116"><ele>482.33333333333337</ele><time>2026-04-11T12:11:00.999Z</time></trkpt><trkpt lat="43.05908234136794" lon="11.428434977462352"><ele>481.5</ele><time>2026-04-11T12:11:02.999Z</time></trkpt><trkpt lat="43.059004726415004" lon="11.428480771939304"><ele>480.66666666666663</ele><time>2026-04-11T12:11:04.999Z</time></trkpt><trkpt lat="43.05893814071005" lon="11.42847131002748"><ele>479.8333333333333</ele><time>2026-04-11T12:11:07.999Z</time></trkpt><trkpt lat="43.05885995652559" lon="11.428520482119081"><ele>479.0</ele><time>2026-04-11T12:11:10.999Z</time></trkpt><trkpt lat="43.058797765239866" lon="11.428563787850592"><ele>480.16666666666663</ele><time>2026-04-11T12:11:13.999Z</time></trkpt><trkpt lat="43.05874720496653" lon="11.428627829716913"><ele>481.3333333333333</ele><time>2026-04-11T12:11:16.999Z</time></trkpt><trkpt lat="43.05869116542645" lon="11.42872509967091"><ele>482.5</ele><time>2026-04-11T12:11:19.999Z</time></trkpt><trkpt lat="43.05864380344589" lon="11.428806048447171"><ele>483.66666666666663</ele><time>2026-04-11T12:11:22.999Z</time></trkpt><trkpt lat="43.058605141403916" lon="11.428895684071296"><ele>484.8333333333333</ele><time>2026-04-11T12:11:25.999Z</time></trkpt><trkpt lat="43.05856928821146" lon="11.428979353703209"><ele>486.0</ele><time>2026-04-11T12:11:28.999Z</time></trkpt><trkpt lat="43.058538686482734" lon="11.42906510998429"><ele>486.0</ele><time>2026-04-11T12:11:31.999Z</time></trkpt><trkpt lat="43.058503076950664" lon="11.429157840200347"><ele>486.0</ele><time>2026-04-11T12:11:34.999Z</time></trkpt><trkpt lat="43.0584709646786" lon="11.429247564672067"><ele>486.0</ele><time>2026-04-11T12:11:37.999Z</time></trkpt><trkpt lat="43.058444201975604" lon="11.429340372810824"><ele>486.0</ele><time>2026-04-11T12:11:40.999Z</time></trkpt><trkpt lat="43.05841263900759" lon="11.429439327343056"><ele>486.0</ele><time>2026-04-11T12:11:43.999Z</time></trkpt><trkpt lat="43.05838425258103" lon="11.429538118521062"><ele>486.0</ele><time>2026-04-11T12:11:46.999Z</time></trkpt><trkpt lat="43.05836178657919" lon="11.429641441888373"><ele>486.0</ele><time>2026-04-11T12:11:49.999Z</time></trkpt><trkpt lat="43.05834355217946" lon="11.429745205315504"><ele>486.0</ele><time>2026-04-11T12:11:52.999Z</time></trkpt><trkpt lat="43.05832443285124" lon="11.429846667920264"><ele>486.0</ele><time>2026-04-11T12:11:55.999Z</time></trkpt><trkpt lat="43.05830353906843" lon="11.429948054478869"><ele>486.0</ele><time>2026-04-11T12:11:58.999Z</time></trkpt><trkpt lat="43.058286841289366" lon="11.430057173751793"><ele>486.0</ele><time>2026-04-11T12:12:01.999Z</time></trkpt><trkpt lat="43.05827654184013" lon="11.430169510594169"><ele>486.0</ele><time>2026-04-11T12:12:04.999Z</time></trkpt><trkpt lat="43.05827543531693" lon="11.430297225053529"><ele>485.8</ele><time>2026-04-11T12:12:07.999Z</time></trkpt><trkpt lat="43.0582777931285" lon="11.430387206638297"><ele>485.6</ele><time>2026-04-11T12:12:09.999Z</time></trkpt><trkpt lat="43.058293354469356" lon="11.43056914861085"><ele>485.4</ele><time>2026-04-11T12:12:11.999Z</time></trkpt><trkpt lat="43.05829763489826" lon="11.430696654697153"><ele>485.2</ele><time>2026-04-11T12:12:13.999Z</time></trkpt><trkpt lat="43.05827130494192" lon="11.430831410098477"><ele>485.0</ele><time>2026-04-11T12:12:15.999Z</time></trkpt><trkpt lat="43.05820105082023" lon="11.430957332636781"><ele>484.0</ele><time>2026-04-11T12:12:17.999Z</time></trkpt><trkpt lat="43.058122849091305" lon="11.431047412426931"><ele>483.0</ele><time>2026-04-11T12:12:19.999Z</time></trkpt><trkpt lat="43.05803548944758" lon="11.4311118957326"><ele>482.0</ele><time>2026-04-11T12:12:21.999Z</time></trkpt><trkpt lat="43.0579487223595" lon="11.43115814107143"><ele>481.0</ele><time>2026-04-11T12:12:23.999Z</time></trkpt><trkpt lat="43.05785414356509" lon="11.43121530225171"><ele>480.0</ele><time>2026-04-11T12:12:25.999Z</time></trkpt><trkpt lat="43.05775962729844" lon="11.431281773828767"><ele>481.3333333333333</ele><time>2026-04-11T12:12:27.999Z</time></trkpt><trkpt lat="43.05766492187138" lon="11.431334766199486"><ele>482.66666666666663</ele><time>2026-04-11T12:12:29.999Z</time></trkpt><trkpt lat="43.05758414701816" lon="11.431317519276998"><ele>484.0</ele><time>2026-04-11T12:12:30.999Z</time></trkpt><trkpt lat="43.05751111627822" lon="11.43139947867986"><ele>485.3333333333333</ele><time>2026-04-11T12:12:32.999Z</time></trkpt><trkpt lat="43.05745487013051" lon="11.431479041268073"><ele>486.66666666666663</ele><time>2026-04-11T12:12:35.999Z</time></trkpt><trkpt lat="43.05740154054565" lon="11.431546922690453"><ele>488.0</ele><time>2026-04-11T12:12:38.999Z</time></trkpt><trkpt lat="43.057350663650254" lon="11.431605846619549"><ele>488.1428571428571</ele><time>2026-04-11T12:12:41.999Z</time></trkpt><trkpt lat="43.057301191063395" lon="11.431666246437699"><ele>488.2857142857143</ele><time>2026-04-11T12:12:44.999Z</time></trkpt><trkpt lat="43.05728245096871" lon="11.43175195474688"><ele>488.42857142857144</ele><time>2026-04-11T12:12:47.999Z</time></trkpt><trkpt lat="43.05722334025687" lon="11.431826056152214"><ele>488.57142857142856</ele><time>2026-04-11T12:12:51.999Z</time></trkpt><trkpt lat="43.057177264754344" lon="11.431895343342813"><ele>488.7142857142858</ele><time>2026-04-11T12:12:54.999Z</time></trkpt><trkpt lat="43.0571310769683" lon="11.431986323426576"><ele>488.8571428571429</ele><time>2026-04-11T12:12:58.999Z</time></trkpt><trkpt lat="43.05708266276077" lon="11.432070243836597"><ele>489.0</ele><time>2026-04-11T12:13:01.999Z</time></trkpt><trkpt lat="43.057037486751874" lon="11.432153918138283"><ele>489.2</ele><time>2026-04-11T12:13:03.999Z</time></trkpt><trkpt lat="43.05697022506604" lon="11.432235044107749"><ele>489.4</ele><time>2026-04-11T12:13:06.999Z</time></trkpt><trkpt lat="43.056901614370204" lon="11.43227863087157"><ele>489.6</ele><time>2026-04-11T12:13:08.999Z</time></trkpt><trkpt lat="43.05680220631005" lon="11.432323845905609"><ele>489.8</ele><time>2026-04-11T12:13:10.999Z</time></trkpt><trkpt lat="43.056707835961625" lon="11.432313296457822"><ele>490.0</ele><time>2026-04-11T12:13:12.999Z</time></trkpt><trkpt lat="43.05660572114281" lon="11.432240779023143"><ele>488.83333333333337</ele><time>2026-04-11T12:13:14.999Z</time></trkpt><trkpt lat="43.05657512806562" lon="11.432131243428339"><ele>487.6666666666667</ele><time>2026-04-11T12:13:15.999Z</time></trkpt><trkpt lat="43.05651761398605" lon="11.432094463157865"><ele>486.5</ele><time>2026-04-11T12:13:16.999Z</time></trkpt><trkpt lat="43.05645971022571" lon="11.432057433799153"><ele>485.33333333333337</ele><time>2026-04-11T12:13:17.999Z</time></trkpt><trkpt lat="43.056343765017374" lon="11.431993299246399"><ele>484.1666666666667</ele><time>2026-04-11T12:13:19.999Z</time></trkpt><trkpt lat="43.05627659179293" lon="11.431957098120877"><ele>483.0</ele><time>2026-04-11T12:13:20.999Z</time></trkpt><trkpt lat="43.05620839973074" lon="11.431922836461927"><ele>483.0</ele><time>2026-04-11T12:13:21.999Z</time></trkpt><trkpt lat="43.05613641809768" lon="11.431887809785799"><ele>483.0</ele><time>2026-04-11T12:13:22.999Z</time></trkpt><trkpt lat="43.056066710984126" lon="11.43185648532756"><ele>483.0</ele><time>2026-04-11T12:13:23.999Z</time></trkpt><trkpt lat="43.05598957984416" lon="11.431825684002579"><ele>483.0</ele><time>2026-04-11T12:13:24.999Z</time></trkpt><trkpt lat="43.055909367788665" lon="11.431800796277555"><ele>483.0</ele><time>2026-04-11T12:13:25.999Z</time></trkpt><trkpt lat="43.05582555523922" lon="11.431785607618865"><ele>483.0</ele><time>2026-04-11T12:13:26.999Z</time></trkpt><trkpt lat="43.05574677892754" lon="11.431792580261105"><ele>482.2857142857143</ele><time>2026-04-11T12:13:27.999Z</time></trkpt><trkpt lat="43.05566907216715" lon="11.431779895901524"><ele>481.57142857142856</ele><time>2026-04-11T12:13:28.999Z</time></trkpt><trkpt lat="43.05558718398959" lon="11.43177091929966"><ele>480.8571428571429</ele><time>2026-04-11T12:13:29.999Z</time></trkpt><trkpt lat="43.055508344046395" lon="11.431727043725514"><ele>480.14285714285717</ele><time>2026-04-11T12:13:30.999Z</time></trkpt><trkpt lat="43.055443501236425" lon="11.431688244456508"><ele>479.42857142857144</ele><time>2026-04-11T12:13:31.999Z</time></trkpt><trkpt lat="43.055390395925166" lon="11.431640134354609"><ele>478.7142857142858</ele><time>2026-04-11T12:13:32.999Z</time></trkpt><trkpt lat="43.05534042855962" lon="11.431583765632922"><ele>478.00000000000006</ele><time>2026-04-11T12:13:33.999Z</time></trkpt><trkpt lat="43.05524205185972" lon="11.43147731527735"><ele>478.00000000000006</ele><time>2026-04-11T12:13:35.999Z</time></trkpt><trkpt lat="43.055191634806725" lon="11.431421163779543"><ele>478.0</ele><time>2026-04-11T12:13:36.999Z</time></trkpt><trkpt lat="43.05515276426471" lon="11.431346881042497"><ele>478.00000000000006</ele><time>2026-04-11T12:13:37.999Z</time></trkpt><trkpt lat="43.05509894287418" lon="11.431284789151709"><ele>478.00000000000006</ele><time>2026-04-11T12:13:38.999Z</time></trkpt><trkpt lat="43.0550446291212" lon="11.431222129254541"><ele>478.0</ele><time>2026-04-11T12:13:39.999Z</time></trkpt><trkpt lat="43.05499043916482" lon="11.431154450979149"><ele>478.00000000000006</ele><time>2026-04-11T12:13:40.999Z</time></trkpt><trkpt lat="43.05492482934391" lon="11.431101707593069"><ele>478.00000000000006</ele><time>2026-04-11T12:13:41.999Z</time></trkpt><trkpt lat="43.054879994871165" lon="11.431021734548224"><ele>476.28571428571433</ele><time>2026-04-11T12:13:42.999Z</time></trkpt><trkpt lat="43.05482517751248" lon="11.430964033520501"><ele>474.57142857142856</ele><time>2026-04-11T12:13:43.999Z</time></trkpt><trkpt lat="43.05476415641943" lon="11.430914302951484"><ele>472.8571428571429</ele><time>2026-04-11T12:13:44.999Z</time></trkpt><trkpt lat="43.05468932326001" lon="11.430879018103628"><ele>471.14285714285717</ele><time>2026-04-11T12:13:45.999Z</time></trkpt><trkpt lat="43.05460767857812" lon="11.430866475450783"><ele>469.42857142857144</ele><time>2026-04-11T12:13:46.999Z</time></trkpt><trkpt lat="43.05453467235771" lon="11.43085728183136"><ele>467.7142857142857</ele><time>2026-04-11T12:13:47.999Z</time></trkpt><trkpt lat="43.05446257034725" lon="11.430844603071028"><ele>466.0</ele><time>2026-04-11T12:13:48.999Z</time></trkpt><trkpt lat="43.054385816020556" lon="11.430831383791686"><ele>466.00000000000006</ele><time>2026-04-11T12:13:49.999Z</time></trkpt><trkpt lat="43.054303465878505" lon="11.430819351278926"><ele>466.0</ele><time>2026-04-11T12:13:50.999Z</time></trkpt><trkpt lat="43.054217146581756" lon="11.430829314047026"><ele>466.0</ele><time>2026-04-11T12:13:51.999Z</time></trkpt><trkpt lat="43.054136284312456" lon="11.430811586425348"><ele>466.0</ele><time>2026-04-11T12:13:52.999Z</time></trkpt><trkpt lat="43.05405523406257" lon="11.430797632555597"><ele>466.00000000000006</ele><time>2026-04-11T12:13:53.999Z</time></trkpt><trkpt lat="43.05397528381768" lon="11.430793799975973"><ele>466.0</ele><time>2026-04-11T12:13:54.999Z</time></trkpt><trkpt lat="43.0538995849281" lon="11.430791860652512"><ele>464.8571428571429</ele><time>2026-04-11T12:13:55.999Z</time></trkpt><trkpt lat="43.053826374128974" lon="11.430789522426466"><ele>463.71428571428567</ele><time>2026-04-11T12:13:56.999Z</time></trkpt><trkpt lat="43.05375603494432" lon="11.430786476582126"><ele>462.57142857142856</ele><time>2026-04-11T12:13:57.999Z</time></trkpt><trkpt lat="43.05368571130896" lon="11.430786084439552"><ele>461.42857142857144</ele><time>2026-04-11T12:13:58.999Z</time></trkpt><trkpt lat="43.05361609422137" lon="11.430754201764172"><ele>460.28571428571433</ele><time>2026-04-11T12:13:59.999Z</time></trkpt><trkpt lat="43.05354347735046" lon="11.430733809399372"><ele>459.1428571428571</ele><time>2026-04-11T12:14:00.999Z</time></trkpt><trkpt lat="43.05347412358867" lon="11.430705742188442"><ele>458.0</ele><time>2026-04-11T12:14:01.999Z</time></trkpt><trkpt lat="43.05339838335428" lon="11.43068682832832"><ele>458.0</ele><time>2026-04-11T12:14:02.999Z</time></trkpt><trkpt lat="43.05333028037628" lon="11.43064960004036"><ele>458.0</ele><time>2026-04-11T12:14:03.999Z</time></trkpt><trkpt lat="43.05326710966307" lon="11.430610712358936"><ele>458.0</ele><time>2026-04-11T12:14:04.999Z</time></trkpt><trkpt lat="43.05320362804417" lon="11.4305821473851"><ele>458.0</ele><time>2026-04-11T12:14:05.999Z</time></trkpt><trkpt lat="43.05314096136805" lon="11.430553579920725"><ele>458.0</ele><time>2026-04-11T12:14:06.999Z</time></trkpt><trkpt lat="43.053084845704994" lon="11.430495342596254"><ele>458.0</ele><time>2026-04-11T12:14:07.999Z</time></trkpt><trkpt lat="43.053020585552055" lon="11.430456561702014"><ele>458.0</ele><time>2026-04-11T12:14:08.999Z</time></trkpt><trkpt lat="43.05295228553248" lon="11.430411984832942"><ele>455.59999999999997</ele><time>2026-04-11T12:14:09.999Z</time></trkpt><trkpt lat="43.05287962866416" lon="11.430353043900675"><ele>453.19999999999993</ele><time>2026-04-11T12:14:10.999Z</time></trkpt><trkpt lat="43.052789374808135" lon="11.430287559266688"><ele>450.8</ele><time>2026-04-11T12:14:11.999Z</time></trkpt><trkpt lat="43.052689990151826" lon="11.430228683452357"><ele>448.4</ele><time>2026-04-11T12:14:12.999Z</time></trkpt><trkpt lat="43.0525798978111" lon="11.43018820040346"><ele>446.0</ele><time>2026-04-11T12:14:13.999Z</time></trkpt><trkpt lat="43.05247118823345" lon="11.430125182281543"><ele>442.5</ele><time>2026-04-11T12:14:14.999Z</time></trkpt><trkpt lat="43.05235846991959" lon="11.430062376142716"><ele>439.0</ele><time>2026-04-11T12:14:15.999Z</time></trkpt><trkpt lat="43.052243729648886" lon="11.429997658654752"><ele>435.5</ele><time>2026-04-11T12:14:16.999Z</time></trkpt><trkpt lat="43.05212833876132" lon="11.429937788054657"><ele>432.0</ele><time>2026-04-11T12:14:17.999Z</time></trkpt><trkpt lat="43.05201371705743" lon="11.429888027775863"><ele>432.0</ele><time>2026-04-11T12:14:18.999Z</time></trkpt><trkpt lat="43.05190176726959" lon="11.42985206756755"><ele>432.00000000000006</ele><time>2026-04-11T12:14:19.999Z</time></trkpt><trkpt lat="43.051799142579924" lon="11.429793978032668"><ele>432.00000000000006</ele><time>2026-04-11T12:14:20.999Z</time></trkpt><trkpt lat="43.05169958426793" lon="11.429750037743267"><ele>432.0</ele><time>2026-04-11T12:14:22Z</time></trkpt><trkpt lat="43.05159846543681" lon="11.429705408641697"><ele>432.0</ele><time>2026-04-11T12:14:23Z</time></trkpt><trkpt lat="43.05149774728038" lon="11.429659320350424"><ele>432.8</ele><time>2026-04-11T12:14:24Z</time></trkpt><trkpt lat="43.05140561804551" lon="11.42960207329519"><ele>433.6</ele><time>2026-04-11T12:14:25Z</time></trkpt><trkpt lat="43.05131901669024" lon="11.429535199500625"><ele>434.40000000000003</ele><time>2026-04-11T12:14:26Z</time></trkpt><trkpt lat="43.05124552741821" lon="11.429459086290963"><ele>435.20000000000005</ele><time>2026-04-11T12:14:27Z</time></trkpt><trkpt lat="43.051172810072394" lon="11.429384990418086"><ele>436.0</ele><time>2026-04-11T12:14:28Z</time></trkpt><trkpt lat="43.051104110012844" lon="11.429314631745097"><ele>436.00000000000006</ele><time>2026-04-11T12:14:29Z</time></trkpt><trkpt lat="43.0510373020259" lon="11.429249236540787"><ele>436.0</ele><time>2026-04-11T12:14:30Z</time></trkpt><trkpt lat="43.050972131920894" lon="11.429192669643271"><ele>436.0</ele><time>2026-04-11T12:14:31Z</time></trkpt><trkpt lat="43.05090043823227" lon="11.429165889292115"><ele>436.0</ele><time>2026-04-11T12:14:32Z</time></trkpt><trkpt lat="43.050843361425684" lon="11.429015650624303"><ele>436.00000000000006</ele><time>2026-04-11T12:14:34Z</time></trkpt><trkpt lat="43.050781859916384" lon="11.428948132926369"><ele>436.0</ele><time>2026-04-11T12:14:35.999Z</time></trkpt><trkpt lat="43.050708183324495" lon="11.42888398050832"><ele>436.1666666666667</ele><time>2026-04-11T12:14:38.999Z</time></trkpt><trkpt lat="43.0506394972755" lon="11.428817629618413"><ele>436.33333333333337</ele><time>2026-04-11T12:14:41.999Z</time></trkpt><trkpt lat="43.0505822937506" lon="11.428761493186068"><ele>436.5</ele><time>2026-04-11T12:14:43.999Z</time></trkpt><trkpt lat="43.05049190246783" lon="11.428741787235861"><ele>436.66666666666663</ele><time>2026-04-11T12:14:45.999Z</time></trkpt><trkpt lat="43.050419358771244" lon="11.428659569218873"><ele>436.8333333333333</ele><time>2026-04-11T12:14:47.999Z</time></trkpt><trkpt lat="43.05033013235256" lon="11.428592856056607"><ele>437.0</ele><time>2026-04-11T12:14:49.999Z</time></trkpt><trkpt lat="43.05024341002158" lon="11.428508453559855"><ele>436.99999999999994</ele><time>2026-04-11T12:14:51.999Z</time></trkpt><trkpt lat="43.050176930671014" lon="11.42837822976641"><ele>437.0</ele><time>2026-04-11T12:14:53.999Z</time></trkpt><trkpt lat="43.050066722098464" lon="11.428310675285859"><ele>437.0</ele><time>2026-04-11T12:14:55.999Z</time></trkpt><trkpt lat="43.05000509201033" lon="11.428292276928094"><ele>437.0</ele><time>2026-04-11T12:14:56.999Z</time></trkpt><trkpt lat="43.04994120671281" lon="11.42827574948959"><ele>436.99999999999994</ele><time>2026-04-11T12:14:57.999Z</time></trkpt><trkpt lat="43.04987389395078" lon="11.428265540311651"><ele>437.0</ele><time>2026-04-11T12:14:58.999Z</time></trkpt><trkpt lat="43.04980095843942" lon="11.428249893669456"><ele>437.8333333333333</ele><time>2026-04-11T12:14:59.999Z</time></trkpt><trkpt lat="43.04972630681451" lon="11.428216929150947"><ele>438.66666666666663</ele><time>2026-04-11T12:15:00.999Z</time></trkpt><trkpt lat="43.04965665781747" lon="11.428152027682776"><ele>439.5</ele><time>2026-04-11T12:15:01.999Z</time></trkpt><trkpt lat="43.04960636765896" lon="11.428070789656529"><ele>440.33333333333337</ele><time>2026-04-11T12:15:02.999Z</time></trkpt><trkpt lat="43.04956290772224" lon="11.427973607607044"><ele>441.1666666666667</ele><time>2026-04-11T12:15:03.999Z</time></trkpt><trkpt lat="43.04950535041015" lon="11.427895076598126"><ele>442.0</ele><time>2026-04-11T12:15:04.999Z</time></trkpt><trkpt lat="43.04943427347308" lon="11.427824719400025"><ele>439.20000000000005</ele><time>2026-04-11T12:15:05.999Z</time></trkpt><trkpt lat="43.049364915005754" lon="11.427763658929893"><ele>436.40000000000003</ele><time>2026-04-11T12:15:06.999Z</time></trkpt><trkpt lat="43.049291643084686" lon="11.427704345397364"><ele>433.59999999999997</ele><time>2026-04-11T12:15:07.999Z</time></trkpt><trkpt lat="43.049215408837235" lon="11.427645262710223"><ele>430.79999999999995</ele><time>2026-04-11T12:15:08.999Z</time></trkpt><trkpt lat="43.04913038345593" lon="11.4275792709467"><ele>428.0</ele><time>2026-04-11T12:15:09.999Z</time></trkpt><trkpt lat="43.04904170188594" lon="11.427516355236884"><ele>427.79999999999995</ele><time>2026-04-11T12:15:10.999Z</time></trkpt><trkpt lat="43.04895667606114" lon="11.427459507145437"><ele>427.59999999999997</ele><time>2026-04-11T12:15:11.999Z</time></trkpt><trkpt lat="43.048873089085774" lon="11.427396114173547"><ele>427.40000000000003</ele><time>2026-04-11T12:15:12.999Z</time></trkpt><trkpt lat="43.04878322191639" lon="11.427330544958584"><ele>427.20000000000005</ele><time>2026-04-11T12:15:13.999Z</time></trkpt><trkpt lat="43.04874830256957" lon="11.427205388821905"><ele>427.0</ele><time>2026-04-11T12:15:14.999Z</time></trkpt><trkpt lat="43.04870824988811" lon="11.427087151638183"><ele>425.20000000000005</ele><time>2026-04-11T12:15:15.999Z</time></trkpt><trkpt lat="43.04865068753042" lon="11.426968686482153"><ele>423.40000000000003</ele><time>2026-04-11T12:15:16.999Z</time></trkpt><trkpt lat="43.048566685600804" lon="11.426862223969781"><ele>421.6</ele><time>2026-04-11T12:15:17.999Z</time></trkpt><trkpt lat="43.04848492600379" lon="11.426779799451225"><ele>419.79999999999995</ele><time>2026-04-11T12:15:18.999Z</time></trkpt><trkpt lat="43.04839625735054" lon="11.426694776936964"><ele>418.0</ele><time>2026-04-11T12:15:19.999Z</time></trkpt><trkpt lat="43.04834269521928" lon="11.42656769698403"><ele>418.0</ele><time>2026-04-11T12:15:20.999Z</time></trkpt><trkpt lat="43.04829371147349" lon="11.426449238605084"><ele>418.0</ele><time>2026-04-11T12:15:21.999Z</time></trkpt><trkpt lat="43.04824816878839" lon="11.426328050599137"><ele>418.0</ele><time>2026-04-11T12:15:22.999Z</time></trkpt><trkpt lat="43.04820601860712" lon="11.426212729894397"><ele>418.0</ele><time>2026-04-11T12:15:23.999Z</time></trkpt><trkpt lat="43.04816710681474" lon="11.426112329112165"><ele>418.0</ele><time>2026-04-11T12:15:24.999Z</time></trkpt><trkpt lat="43.048126026995256" lon="11.426019627837334"><ele>416.1666666666667</ele><time>2026-04-11T12:15:25.999Z</time></trkpt><trkpt lat="43.04808115907102" lon="11.425920932414714"><ele>414.33333333333337</ele><time>2026-04-11T12:15:26.999Z</time></trkpt><trkpt lat="43.04803753070422" lon="11.425830271305431"><ele>412.5</ele><time>2026-04-11T12:15:27.999Z</time></trkpt><trkpt lat="43.04799079746255" lon="11.425732862781283"><ele>410.66666666666663</ele><time>2026-04-11T12:15:28.999Z</time></trkpt><trkpt lat="43.04792764414038" lon="11.425657068024893"><ele>408.8333333333333</ele><time>2026-04-11T12:15:29.999Z</time></trkpt><trkpt lat="43.04788949777562" lon="11.425555480212976"><ele>407.0</ele><time>2026-04-11T12:15:30.999Z</time></trkpt><trkpt lat="43.047838955418435" lon="11.425468426397249"><ele>405.3333333333333</ele><time>2026-04-11T12:15:31.999Z</time></trkpt><trkpt lat="43.04778422587099" lon="11.425377377979064"><ele>403.66666666666663</ele><time>2026-04-11T12:15:32.999Z</time></trkpt><trkpt lat="43.047726360935464" lon="11.425283194086427"><ele>402.0</ele><time>2026-04-11T12:15:33.999Z</time></trkpt><trkpt lat="43.04766576417982" lon="11.42518797058591"><ele>400.33333333333337</ele><time>2026-04-11T12:15:34.999Z</time></trkpt><trkpt lat="43.04760514675699" lon="11.425093205839373"><ele>398.6666666666667</ele><time>2026-04-11T12:15:35.999Z</time></trkpt><trkpt lat="43.047546702345485" lon="11.425003910059852"><ele>397.0</ele><time>2026-04-11T12:15:36.999Z</time></trkpt><trkpt lat="43.047487495355284" lon="11.424916606296325"><ele>396.50000000000006</ele><time>2026-04-11T12:15:37.999Z</time></trkpt><trkpt lat="43.04743184251912" lon="11.424835533433855"><ele>396.0</ele><time>2026-04-11T12:15:38.999Z</time></trkpt><trkpt lat="43.04736403151812" lon="11.424776558470905"><ele>395.5</ele><time>2026-04-11T12:15:39.999Z</time></trkpt><trkpt lat="43.04731030678123" lon="11.424699237478587"><ele>395.0</ele><time>2026-04-11T12:15:40.999Z</time></trkpt><trkpt lat="43.04723238574345" lon="11.424645717534064"><ele>394.50000000000006</ele><time>2026-04-11T12:15:41.999Z</time></trkpt><trkpt lat="43.047152819612286" lon="11.424594067968659"><ele>394.0</ele><time>2026-04-11T12:15:42.999Z</time></trkpt><trkpt lat="43.047071783055564" lon="11.424530009669233"><ele>393.0</ele><time>2026-04-11T12:15:43.999Z</time></trkpt><trkpt lat="43.04699690468243" lon="11.42444371831566"><ele>392.0</ele><time>2026-04-11T12:15:44.999Z</time></trkpt><trkpt lat="43.046937285439476" lon="11.424326334487702"><ele>391.0</ele><time>2026-04-11T12:15:45.999Z</time></trkpt><trkpt lat="43.046895888023435" lon="11.424189157076624"><ele>390.0</ele><time>2026-04-11T12:15:46.999Z</time></trkpt><trkpt lat="43.046849805086325" lon="11.424051220854585"><ele>389.0</ele><time>2026-04-11T12:15:47.999Z</time></trkpt><trkpt lat="43.04680428254208" lon="11.423917830790105"><ele>388.79999999999995</ele><time>2026-04-11T12:15:48.999Z</time></trkpt><trkpt lat="43.04675990910907" lon="11.42378870736978"><ele>388.59999999999997</ele><time>2026-04-11T12:15:49.999Z</time></trkpt><trkpt lat="43.04671690952784" lon="11.423663581775381"><ele>388.4</ele><time>2026-04-11T12:15:50.999Z</time></trkpt><trkpt lat="43.046672947454454" lon="11.423544397947385"><ele>388.2</ele><time>2026-04-11T12:15:51.999Z</time></trkpt><trkpt lat="43.0466319811254" lon="11.42343505250574"><ele>388.0</ele><time>2026-04-11T12:15:52.999Z</time></trkpt><trkpt lat="43.046594862933745" lon="11.423340700635299"><ele>387.83333333333337</ele><time>2026-04-11T12:15:53.999Z</time></trkpt><trkpt lat="43.046562121644214" lon="11.423257885928122"><ele>387.6666666666667</ele><time>2026-04-11T12:15:54.999Z</time></trkpt><trkpt lat="43.04651409098974" lon="11.42313639880261"><ele>387.5</ele><time>2026-04-11T12:15:56.999Z</time></trkpt><trkpt lat="43.046464665493936" lon="11.423049009242117"><ele>387.33333333333337</ele><time>2026-04-11T12:15:59.999Z</time></trkpt><trkpt lat="43.0464424061535" lon="11.42295174937053"><ele>387.1666666666667</ele><time>2026-04-11T12:16:03.999Z</time></trkpt><trkpt lat="43.04640976719766" lon="11.422867278333658"><ele>387.0</ele><time>2026-04-11T12:16:08.999Z</time></trkpt><trkpt lat="43.04637905692821" lon="11.422787798792639"><ele>389.1666666666667</ele><time>2026-04-11T12:16:13.999Z</time></trkpt><trkpt lat="43.046345359373156" lon="11.422700588033232"><ele>391.33333333333337</ele><time>2026-04-11T12:16:19.999Z</time></trkpt><trkpt lat="43.04622822105406" lon="11.42269814414261"><ele>393.5</ele><time>2026-04-11T12:16:23.999Z</time></trkpt><trkpt lat="43.0461506033162" lon="11.422727185430572"><ele>395.6666666666667</ele><time>2026-04-11T12:16:28Z</time></trkpt><trkpt lat="43.04606740951955" lon="11.422730684208583"><ele>397.83333333333337</ele><time>2026-04-11T12:16:32Z</time></trkpt><trkpt lat="43.04600373399426" lon="11.422723618228172"><ele>400.0</ele><time>2026-04-11T12:16:35Z</time></trkpt><trkpt lat="43.04592454904972" lon="11.422690434508201"><ele>400.00000000000006</ele><time>2026-04-11T12:16:39Z</time></trkpt><trkpt lat="43.04584811651723" lon="11.42267722668391"><ele>400.0</ele><time>2026-04-11T12:16:43Z</time></trkpt><trkpt lat="43.045767601561444" lon="11.422650698830383"><ele>400.0</ele><time>2026-04-11T12:16:47Z</time></trkpt><trkpt lat="43.04570270872325" lon="11.422628604918946"><ele>400.0</ele><time>2026-04-11T12:16:49Z</time></trkpt><trkpt lat="43.0456407681857" lon="11.422594532302904"><ele>400.00000000000006</ele><time>2026-04-11T12:16:52Z</time></trkpt><trkpt lat="43.04556830549331" lon="11.422545939094412"><ele>400.0</ele><time>2026-04-11T12:16:55Z</time></trkpt><trkpt lat="43.04549465848179" lon="11.422464899516747"><ele>398.2</ele><time>2026-04-11T12:16:58Z</time></trkpt><trkpt lat="43.04543431850404" lon="11.422390615966123"><ele>396.4</ele><time>2026-04-11T12:17:00.999Z</time></trkpt><trkpt lat="43.0453717501095" lon="11.422296460932076"><ele>394.6</ele><time>2026-04-11T12:17:02.999Z</time></trkpt><trkpt lat="43.04533443361601" lon="11.422226068231408"><ele>392.8</ele><time>2026-04-11T12:17:04.999Z</time></trkpt><trkpt lat="43.04528546991505" lon="11.422040224701465"><ele>391.0</ele><time>2026-04-11T12:17:06.999Z</time></trkpt><trkpt lat="43.04523934191038" lon="11.421907266912074"><ele>391.0</ele><time>2026-04-11T12:17:08.999Z</time></trkpt><trkpt lat="43.04519526166652" lon="11.421759788308522"><ele>391.0</ele><time>2026-04-11T12:17:10.999Z</time></trkpt><trkpt lat="43.04515141933847" lon="11.421603758927656"><ele>391.0</ele><time>2026-04-11T12:17:12.999Z</time></trkpt><trkpt lat="43.04510298996538" lon="11.421444546966857"><ele>391.0</ele><time>2026-04-11T12:17:14.999Z</time></trkpt><trkpt lat="43.04507572953152" lon="11.421365674384784"><ele>391.0</ele><time>2026-04-11T12:17:15.999Z</time></trkpt><trkpt lat="43.04501987919335" lon="11.4212108728016"><ele>391.00000000000006</ele><time>2026-04-11T12:17:17.999Z</time></trkpt><trkpt lat="43.04499388023756" lon="11.421132212270049"><ele>391.0</ele><time>2026-04-11T12:17:18.999Z</time></trkpt><trkpt lat="43.0449703345789" lon="11.421051887400976"><ele>391.0</ele><time>2026-04-11T12:17:19.999Z</time></trkpt><trkpt lat="43.04495123755592" lon="11.420968970755206"><ele>391.0</ele><time>2026-04-11T12:17:20.999Z</time></trkpt><trkpt lat="43.04493461422063" lon="11.420829559469535"><ele>391.00000000000006</ele><time>2026-04-11T12:17:22.999Z</time></trkpt><trkpt lat="43.0449569044946" lon="11.42071638873207"><ele>391.0</ele><time>2026-04-11T12:17:24.999Z</time></trkpt><trkpt lat="43.045045861133616" lon="11.420682843769603"><ele>391.00000000000006</ele><time>2026-04-11T12:17:26.999Z</time></trkpt><trkpt lat="43.0451248039514" lon="11.420641675958699"><ele>391.0</ele><time>2026-04-11T12:17:28.999Z</time></trkpt><trkpt lat="43.04519670457721" lon="11.420574521190655"><ele>391.0</ele><time>2026-04-11T12:17:30.999Z</time></trkpt><trkpt lat="43.045211302536565" lon="11.420428588390383"><ele>391.0</ele><time>2026-04-11T12:17:32.999Z</time></trkpt><trkpt lat="43.04518450928753" lon="11.420338991388864"><ele>391.00000000000006</ele><time>2026-04-11T12:17:33.999Z</time></trkpt><trkpt lat="43.04513964719374" lon="11.420236095120222"><ele>391.0</ele><time>2026-04-11T12:17:34.999Z</time></trkpt><trkpt lat="43.045088353765756" lon="11.420126373627053"><ele>390.20000000000005</ele><time>2026-04-11T12:17:35.999Z</time></trkpt><trkpt lat="43.04503611714225" lon="11.420005571828707"><ele>389.40000000000003</ele><time>2026-04-11T12:17:36.999Z</time></trkpt><trkpt lat="43.044979921424435" lon="11.419869862925282"><ele>388.6</ele><time>2026-04-11T12:17:37.999Z</time></trkpt><trkpt lat="43.04491969776101" lon="11.419734289828567"><ele>387.8</ele><time>2026-04-11T12:17:38.999Z</time></trkpt><trkpt lat="43.04486106995011" lon="11.419596492528221"><ele>387.0</ele><time>2026-04-11T12:17:39.999Z</time></trkpt><trkpt lat="43.044795861541076" lon="11.419450123831513"><ele>383.0</ele><time>2026-04-11T12:17:40.999Z</time></trkpt><trkpt lat="43.04474630868802" lon="11.419289930351043"><ele>379.0</ele><time>2026-04-11T12:17:41.999Z</time></trkpt><trkpt lat="43.0446824737326" lon="11.419134742125003"><ele>375.0</ele><time>2026-04-11T12:17:42.999Z</time></trkpt><trkpt lat="43.04461795795908" lon="11.418979346284766"><ele>371.0</ele><time>2026-04-11T12:17:43.999Z</time></trkpt><trkpt lat="43.04455508726662" lon="11.41882949281155"><ele>371.5</ele><time>2026-04-11T12:17:44.999Z</time></trkpt><trkpt lat="43.044489942634" lon="11.418677169361581"><ele>372.0</ele><time>2026-04-11T12:17:45.999Z</time></trkpt><trkpt lat="43.044430586355475" lon="11.41853838038021"><ele>372.5</ele><time>2026-04-11T12:17:46.999Z</time></trkpt><trkpt lat="43.04437374819837" lon="11.418405479377695"><ele>373.0</ele><time>2026-04-11T12:17:47.999Z</time></trkpt><trkpt lat="43.04432164125572" lon="11.418283641097918"><ele>373.0</ele><time>2026-04-11T12:17:48.999Z</time></trkpt><trkpt lat="43.0442729621853" lon="11.418169817957702"><ele>373.0</ele><time>2026-04-11T12:17:49.999Z</time></trkpt><trkpt lat="43.044226239331735" lon="11.418060658528892"><ele>373.0</ele><time>2026-04-11T12:17:50.999Z</time></trkpt><trkpt lat="43.04418118504534" lon="11.417956221983117"><ele>373.0</ele><time>2026-04-11T12:17:51.999Z</time></trkpt><trkpt lat="43.04413889696276" lon="11.417858197648183"><ele>373.0</ele><time>2026-04-11T12:17:52.999Z</time></trkpt><trkpt lat="43.044098575267476" lon="11.417762787121202"><ele>373.0</ele><time>2026-04-11T12:17:53.999Z</time></trkpt><trkpt lat="43.044059330416644" lon="11.417668548186812"><ele>371.8333333333333</ele><time>2026-04-11T12:17:54.999Z</time></trkpt><trkpt lat="43.044018587202146" lon="11.417577780097492"><ele>370.66666666666663</ele><time>2026-04-11T12:17:55.999Z</time></trkpt><trkpt lat="43.04396957397422" lon="11.417488548165357"><ele>369.5</ele><time>2026-04-11T12:17:56.999Z</time></trkpt><trkpt lat="43.043914418527486" lon="11.417406285843303"><ele>368.3333333333333</ele><time>2026-04-11T12:17:57.999Z</time></trkpt><trkpt lat="43.04385885345863" lon="11.417329572117957"><ele>367.1666666666667</ele><time>2026-04-11T12:17:58.999Z</time></trkpt><trkpt lat="43.04379503166612" lon="11.41726457383054"><ele>366.0</ele><time>2026-04-11T12:17:59.999Z</time></trkpt><trkpt lat="43.0437443887058" lon="11.41718378607087"><ele>366.3333333333333</ele><time>2026-04-11T12:18:00.999Z</time></trkpt><trkpt lat="43.043692435777416" lon="11.417103960892588"><ele>366.6666666666667</ele><time>2026-04-11T12:18:01.999Z</time></trkpt><trkpt lat="43.04364119870216" lon="11.417021998608302"><ele>367.0</ele><time>2026-04-11T12:18:02.999Z</time></trkpt><trkpt lat="43.04360433239606" lon="11.416926523268097"><ele>367.33333333333337</ele><time>2026-04-11T12:18:03.999Z</time></trkpt><trkpt lat="43.043555888090296" lon="11.41684408904657"><ele>367.6666666666667</ele><time>2026-04-11T12:18:04.999Z</time></trkpt><trkpt lat="43.04350815285285" lon="11.416762861297652"><ele>368.0</ele><time>2026-04-11T12:18:05.999Z</time></trkpt><trkpt lat="43.04345961861178" lon="11.41668270915957"><ele>368.0</ele><time>2026-04-11T12:18:06.999Z</time></trkpt><trkpt lat="43.0434117510836" lon="11.416605084134591"><ele>368.0</ele><time>2026-04-11T12:18:07.999Z</time></trkpt><trkpt lat="43.043363736405844" lon="11.416527220482847"><ele>368.0</ele><time>2026-04-11T12:18:08.999Z</time></trkpt><trkpt lat="43.04331937741425" lon="11.41644593132976"><ele>368.0</ele><time>2026-04-11T12:18:09.999Z</time></trkpt><trkpt lat="43.04328256417702" lon="11.41635516210199"><ele>368.0</ele><time>2026-04-11T12:18:10.999Z</time></trkpt><trkpt lat="43.04327256466638" lon="11.416254422625222"><ele>368.0</ele><time>2026-04-11T12:18:11.999Z</time></trkpt><trkpt lat="43.04328408624092" lon="11.416165153297738"><ele>368.0</ele><time>2026-04-11T12:18:12.999Z</time></trkpt><trkpt lat="43.04320524220308" lon="11.41602629781948"><ele>366.83333333333337</ele><time>2026-04-11T12:18:13.999Z</time></trkpt><trkpt lat="43.04315345173255" lon="11.41594088366714"><ele>365.6666666666667</ele><time>2026-04-11T12:18:14.999Z</time></trkpt><trkpt lat="43.04310359406831" lon="11.415850253915167"><ele>364.5</ele><time>2026-04-11T12:18:15.999Z</time></trkpt><trkpt lat="43.04305594435636" lon="11.415759676356787"><ele>363.3333333333333</ele><time>2026-04-11T12:18:16.999Z</time></trkpt><trkpt lat="43.04300967420202" lon="11.415664713180547"><ele>362.16666666666663</ele><time>2026-04-11T12:18:17.999Z</time></trkpt><trkpt lat="43.04296361814392" lon="11.415565873143711"><ele>361.0</ele><time>2026-04-11T12:18:18.999Z</time></trkpt><trkpt lat="43.04291829054189" lon="11.415467249914382"><ele>360.8</ele><time>2026-04-11T12:18:19.999Z</time></trkpt><trkpt lat="43.04287449344678" lon="11.415359236355776"><ele>360.6</ele><time>2026-04-11T12:18:20.999Z</time></trkpt><trkpt lat="43.04282934157196" lon="11.415246099104854"><ele>360.4</ele><time>2026-04-11T12:18:21.999Z</time></trkpt><trkpt lat="43.04277718306762" lon="11.41513856688219"><ele>360.2</ele><time>2026-04-11T12:18:22.999Z</time></trkpt><trkpt lat="43.04271472184199" lon="11.415039999269716"><ele>360.0</ele><time>2026-04-11T12:18:23.999Z</time></trkpt><trkpt lat="43.04264980786628" lon="11.414954903095182"><ele>360.0</ele><time>2026-04-11T12:18:24.999Z</time></trkpt><trkpt lat="43.04258261501453" lon="11.414868063439211"><ele>360.0</ele><time>2026-04-11T12:18:25.999Z</time></trkpt><trkpt lat="43.04251947764814" lon="11.41478646504822"><ele>360.0</ele><time>2026-04-11T12:18:26.999Z</time></trkpt><trkpt lat="43.042457033757145" lon="11.414707340758731"><ele>360.0</ele><time>2026-04-11T12:18:27.999Z</time></trkpt><trkpt lat="43.04239490364823" lon="11.414628789856112"><ele>360.0</ele><time>2026-04-11T12:18:28.999Z</time></trkpt><trkpt lat="43.04233455444358" lon="11.414552490552525"><ele>360.0</ele><time>2026-04-11T12:18:29.999Z</time></trkpt><trkpt lat="43.04227752238708" lon="11.414482864780021"><ele>358.5</ele><time>2026-04-11T12:18:30.999Z</time></trkpt><trkpt lat="43.04221983320197" lon="11.414419277098078"><ele>357.0</ele><time>2026-04-11T12:18:31.999Z</time></trkpt><trkpt lat="43.04216407143463" lon="11.414354434253598"><ele>355.5</ele><time>2026-04-11T12:18:32.999Z</time></trkpt><trkpt lat="43.04211378196073" lon="11.414280841862384"><ele>354.0</ele><time>2026-04-11T12:18:34Z</time></trkpt><trkpt lat="43.042074465590645" lon="11.414198661418343"><ele>352.5</ele><time>2026-04-11T12:18:35Z</time></trkpt><trkpt lat="43.04203828644157" lon="11.414102916948966"><ele>351.0</ele><time>2026-04-11T12:18:36Z</time></trkpt><trkpt lat="43.042004210070985" lon="11.413998728316416"><ele>351.0</ele><time>2026-04-11T12:18:37Z</time></trkpt><trkpt lat="43.041970013953254" lon="11.413896065104767"><ele>351.0</ele><time>2026-04-11T12:18:38Z</time></trkpt><trkpt lat="43.04193552852259" lon="11.413789089948677"><ele>351.0</ele><time>2026-04-11T12:18:39Z</time></trkpt><trkpt lat="43.04190263224673" lon="11.413687044275804"><ele>351.0</ele><time>2026-04-11T12:18:40Z</time></trkpt><trkpt lat="43.04186908946499" lon="11.41358353000701"><ele>351.0</ele><time>2026-04-11T12:18:41Z</time></trkpt><trkpt lat="43.041834146199676" lon="11.413478304017774"><ele>351.0</ele><time>2026-04-11T12:18:42Z</time></trkpt><trkpt lat="43.041797528508205" lon="11.41337162166641"><ele>350.0</ele><time>2026-04-11T12:18:43Z</time></trkpt><trkpt lat="43.04176201960373" lon="11.413268516897444"><ele>349.0</ele><time>2026-04-11T12:18:44Z</time></trkpt><trkpt lat="43.041726530095865" lon="11.413162389439874"><ele>348.0</ele><time>2026-04-11T12:18:45Z</time></trkpt><trkpt lat="43.04169347629798" lon="11.413057999056198"><ele>347.0</ele><time>2026-04-11T12:18:46Z</time></trkpt><trkpt lat="43.04166061321034" lon="11.412950678697095"><ele>346.0</ele><time>2026-04-11T12:18:47Z</time></trkpt><trkpt lat="43.04162828644549" lon="11.412843229936371"><ele>345.0</ele><time>2026-04-11T12:18:48Z</time></trkpt><trkpt lat="43.04159883376983" lon="11.412732953647078"><ele>342.2</ele><time>2026-04-11T12:18:49Z</time></trkpt><trkpt lat="43.041574657157355" lon="11.412622341896531"><ele>339.4</ele><time>2026-04-11T12:18:50Z</time></trkpt><trkpt lat="43.04155549430525" lon="11.412500238550074"><ele>336.6</ele><time>2026-04-11T12:18:51Z</time></trkpt><trkpt lat="43.04154386803712" lon="11.41236911481349"><ele>333.8</ele><time>2026-04-11T12:18:52Z</time></trkpt><trkpt lat="43.04153665445246" lon="11.412230102804795"><ele>331.0</ele><time>2026-04-11T12:18:53Z</time></trkpt><trkpt lat="43.04153324975186" lon="11.412088121045745"><ele>329.6</ele><time>2026-04-11T12:18:54Z</time></trkpt><trkpt lat="43.04153264272815" lon="11.411944013369938"><ele>328.20000000000005</ele><time>2026-04-11T12:18:55Z</time></trkpt><trkpt lat="43.04153366136128" lon="11.411804723545291"><ele>326.79999999999995</ele><time>2026-04-11T12:18:56Z</time></trkpt><trkpt lat="43.04153630156369" lon="11.411662465893674"><ele>325.4</ele><time>2026-04-11T12:18:57Z</time></trkpt><trkpt lat="43.04153923007967" lon="11.411525152580209"><ele>324.0</ele><time>2026-04-11T12:18:58Z</time></trkpt><trkpt lat="43.04154322666773" lon="11.41139273627859"><ele>323.6666666666667</ele><time>2026-04-11T12:18:59Z</time></trkpt><trkpt lat="43.04153237436852" lon="11.411267639806367"><ele>323.3333333333333</ele><time>2026-04-11T12:19:00Z</time></trkpt><trkpt lat="43.0415554163119" lon="11.4111507779218"><ele>323.0</ele><time>2026-04-11T12:19:01Z</time></trkpt><trkpt lat="43.04156626034371" lon="11.411034688494519"><ele>322.66666666666663</ele><time>2026-04-11T12:19:02Z</time></trkpt><trkpt lat="43.04157872980745" lon="11.410923671037628"><ele>322.3333333333333</ele><time>2026-04-11T12:19:03Z</time></trkpt><trkpt lat="43.04159412514176" lon="11.41080891607945"><ele>322.0</ele><time>2026-04-11T12:19:04Z</time></trkpt><trkpt lat="43.04160937121103" lon="11.410695273614369"><ele>322.0</ele><time>2026-04-11T12:19:05Z</time></trkpt><trkpt lat="43.0416234695677" lon="11.41058517565265"><ele>322.0</ele><time>2026-04-11T12:19:06Z</time></trkpt><trkpt lat="43.041636473969334" lon="11.410480167380914"><ele>322.0</ele><time>2026-04-11T12:19:06.999Z</time></trkpt><trkpt lat="43.04164984149884" lon="11.410370280373785"><ele>322.0</ele><time>2026-04-11T12:19:07.999Z</time></trkpt><trkpt lat="43.04166268277252" lon="11.410261601788111"><ele>322.0</ele><time>2026-04-11T12:19:08.999Z</time></trkpt><trkpt lat="43.041675201490314" lon="11.410155653074854"><ele>322.0</ele><time>2026-04-11T12:19:09.999Z</time></trkpt><trkpt lat="43.04168760790989" lon="11.410050654765532"><ele>321.85714285714283</ele><time>2026-04-11T12:19:10.999Z</time></trkpt><trkpt lat="43.04170001869616" lon="11.409945619468745"><ele>321.7142857142857</ele><time>2026-04-11T12:19:11.999Z</time></trkpt><trkpt lat="43.04171213345004" lon="11.409843089635805"><ele>321.57142857142856</ele><time>2026-04-11T12:19:12.999Z</time></trkpt><trkpt lat="43.04172404151324" lon="11.409740379220315"><ele>321.42857142857144</ele><time>2026-04-11T12:19:13.999Z</time></trkpt><trkpt lat="43.04173403365106" lon="11.409644313110636"><ele>321.2857142857143</ele><time>2026-04-11T12:19:14.999Z</time></trkpt><trkpt lat="43.04174021002482" lon="11.409543573368047"><ele>321.1428571428571</ele><time>2026-04-11T12:19:15.999Z</time></trkpt><trkpt lat="43.041744246945534" lon="11.409443062535068"><ele>321.0</ele><time>2026-04-11T12:19:16.999Z</time></trkpt><trkpt lat="43.04174453573685" lon="11.40933054238808"><ele>319.85714285714283</ele><time>2026-04-11T12:19:17.999Z</time></trkpt><trkpt lat="43.04174499845247" lon="11.409218843503016"><ele>318.7142857142857</ele><time>2026-04-11T12:19:18.999Z</time></trkpt><trkpt lat="43.04174829597046" lon="11.409109191655704"><ele>317.57142857142856</ele><time>2026-04-11T12:19:19.999Z</time></trkpt><trkpt lat="43.04175248197539" lon="11.409003146253836"><ele>316.42857142857144</ele><time>2026-04-11T12:19:20.999Z</time></trkpt><trkpt lat="43.04175614091878" lon="11.408910453054615"><ele>315.2857142857143</ele><time>2026-04-11T12:19:21.999Z</time></trkpt><trkpt lat="43.041759603452945" lon="11.408823653473775"><ele>314.1428571428571</ele><time>2026-04-11T12:19:22.999Z</time></trkpt><trkpt lat="43.04176348223943" lon="11.408729451776528"><ele>313.0</ele><time>2026-04-11T12:19:23.999Z</time></trkpt><trkpt lat="43.041767611325334" lon="11.408629171228656"><ele>311.85714285714283</ele><time>2026-04-11T12:19:24.999Z</time></trkpt><trkpt lat="43.04177185329461" lon="11.408526149116403"><ele>310.7142857142857</ele><time>2026-04-11T12:19:25.999Z</time></trkpt><trkpt lat="43.04177620386185" lon="11.408420489544897"><ele>309.57142857142856</ele><time>2026-04-11T12:19:26.999Z</time></trkpt><trkpt lat="43.04178017547767" lon="11.408315353741363"><ele>308.42857142857144</ele><time>2026-04-11T12:19:27.999Z</time></trkpt><trkpt lat="43.041783075329256" lon="11.408215035832201"><ele>307.2857142857143</ele><time>2026-04-11T12:19:28.999Z</time></trkpt><trkpt lat="43.041770250991455" lon="11.408121136209811"><ele>306.14285714285717</ele><time>2026-04-11T12:19:29.999Z</time></trkpt><trkpt lat="43.04177489569416" lon="11.408030640211841"><ele>305.0</ele><time>2026-04-11T12:19:30.999Z</time></trkpt><trkpt lat="43.04176886073169" lon="11.407943012958567"><ele>303.5</ele><time>2026-04-11T12:19:31.999Z</time></trkpt><trkpt lat="43.04176665144355" lon="11.407845309387648"><ele>302.0</ele><time>2026-04-11T12:19:32.999Z</time></trkpt><trkpt lat="43.04172403950105" lon="11.407755098690192"><ele>300.5</ele><time>2026-04-11T12:19:33.999Z</time></trkpt><trkpt lat="43.041660577776184" lon="11.407684420528346"><ele>299.0</ele><time>2026-04-11T12:19:34.999Z</time></trkpt><trkpt lat="43.04160805086572" lon="11.407615415106012"><ele>297.5</ele><time>2026-04-11T12:19:35.999Z</time></trkpt><trkpt lat="43.04148163240091" lon="11.407669452976739"><ele>296.0</ele><time>2026-04-11T12:19:36.999Z</time></trkpt><trkpt lat="43.04140041131341" lon="11.407667767413214"><ele>296.0</ele><time>2026-04-11T12:19:37.999Z</time></trkpt><trkpt lat="43.041321060000094" lon="11.407672316828007"><ele>296.0</ele><time>2026-04-11T12:19:38.999Z</time></trkpt><trkpt lat="43.04124426571096" lon="11.407638417027604"><ele>296.0</ele><time>2026-04-11T12:19:39.999Z</time></trkpt><trkpt lat="43.04115806441269" lon="11.407614395693914"><ele>296.0</ele><time>2026-04-11T12:19:40.999Z</time></trkpt><trkpt lat="43.04106755443723" lon="11.407590287894784"><ele>296.0</ele><time>2026-04-11T12:19:41.999Z</time></trkpt><trkpt lat="43.04095983774746" lon="11.407576836200775"><ele>296.0</ele><time>2026-04-11T12:19:42.999Z</time></trkpt><trkpt lat="43.04087022054571" lon="11.407539114914318"><ele>295.0</ele><time>2026-04-11T12:19:43.999Z</time></trkpt><trkpt lat="43.04077186249244" lon="11.407522356040278"><ele>294.0</ele><time>2026-04-11T12:19:44.999Z</time></trkpt><trkpt lat="43.04068296417288" lon="11.407516314246855"><ele>293.0</ele><time>2026-04-11T12:19:45.999Z</time></trkpt><trkpt lat="43.04059252469435" lon="11.407522126044201"><ele>292.0</ele><time>2026-04-11T12:19:46.999Z</time></trkpt><trkpt lat="43.040503643156406" lon="11.407540610729088"><ele>291.0</ele><time>2026-04-11T12:19:47.999Z</time></trkpt><trkpt lat="43.040414617127276" lon="11.407575473314894"><ele>291.0</ele><time>2026-04-11T12:19:48.999Z</time></trkpt><trkpt lat="43.040331611202085" lon="11.407623150918393"><ele>291.0</ele><time>2026-04-11T12:19:49.999Z</time></trkpt><trkpt lat="43.040261017073455" lon="11.407707265747707"><ele>291.0</ele><time>2026-04-11T12:19:50.999Z</time></trkpt><trkpt lat="43.040188206432006" lon="11.407768098023396"><ele>291.0</ele><time>2026-04-11T12:19:51.999Z</time></trkpt><trkpt lat="43.04011379131958" lon="11.407818673964988"><ele>291.0</ele><time>2026-04-11T12:19:52.999Z</time></trkpt><trkpt lat="43.0400386632502" lon="11.407864430273339"><ele>291.0</ele><time>2026-04-11T12:19:53.999Z</time></trkpt><trkpt lat="43.039961833706904" lon="11.407907198004056"><ele>290.6666666666667</ele><time>2026-04-11T12:19:54.999Z</time></trkpt><trkpt lat="43.03988582193741" lon="11.40794642985064"><ele>290.3333333333333</ele><time>2026-04-11T12:19:55.999Z</time></trkpt><trkpt lat="43.03981727634754" lon="11.407975673806293"><ele>290.0</ele><time>2026-04-11T12:19:56.999Z</time></trkpt><trkpt lat="43.039751020399585" lon="11.407998113094807"><ele>289.66666666666663</ele><time>2026-04-11T12:19:57.999Z</time></trkpt><trkpt lat="43.03968103800096" lon="11.40801877065699"><ele>289.3333333333333</ele><time>2026-04-11T12:19:58.999Z</time></trkpt><trkpt lat="43.03959826961177" lon="11.408039563268094"><ele>289.0</ele><time>2026-04-11T12:19:59.999Z</time></trkpt><trkpt lat="43.03950891625703" lon="11.408063593005181"><ele>289.0</ele><time>2026-04-11T12:20:00.999Z</time></trkpt><trkpt lat="43.03941884038753" lon="11.408088692063677"><ele>289.0</ele><time>2026-04-11T12:20:01.999Z</time></trkpt><trkpt lat="43.03932793822197" lon="11.40811402136061"><ele>289.0</ele><time>2026-04-11T12:20:02.999Z</time></trkpt><trkpt lat="43.03923593811358" lon="11.408139656631649"><ele>289.0</ele><time>2026-04-11T12:20:03.999Z</time></trkpt><trkpt lat="43.03914409098417" lon="11.40816841901415"><ele>289.0</ele><time>2026-04-11T12:20:04.999Z</time></trkpt><trkpt lat="43.039060845148484" lon="11.40819629727556"><ele>287.4</ele><time>2026-04-11T12:20:05.999Z</time></trkpt><trkpt lat="43.03896859214732" lon="11.408233723391229"><ele>285.79999999999995</ele><time>2026-04-11T12:20:06.999Z</time></trkpt><trkpt lat="43.03887781721079" lon="11.408273179162448"><ele>284.20000000000005</ele><time>2026-04-11T12:20:07.999Z</time></trkpt><trkpt lat="43.03878658604629" lon="11.408315150638959"><ele>282.6</ele><time>2026-04-11T12:20:08.999Z</time></trkpt><trkpt lat="43.0386943191931" lon="11.408360421015075"><ele>281.0</ele><time>2026-04-11T12:20:09.999Z</time></trkpt><trkpt lat="43.03860577252232" lon="11.408407917823649"><ele>281.0</ele><time>2026-04-11T12:20:10.999Z</time></trkpt><trkpt lat="43.03852150947869" lon="11.408482049335962"><ele>281.0</ele><time>2026-04-11T12:20:11.999Z</time></trkpt><trkpt lat="43.03843068324286" lon="11.408534177507613"><ele>281.0</ele><time>2026-04-11T12:20:12.999Z</time></trkpt><trkpt lat="43.038328703569206" lon="11.40856455187975"><ele>281.0</ele><time>2026-04-11T12:20:13.999Z</time></trkpt><trkpt lat="43.038237405798306" lon="11.408643831849668"><ele>281.0</ele><time>2026-04-11T12:20:14.999Z</time></trkpt><trkpt lat="43.03815836535713" lon="11.408747208851445"><ele>280.2</ele><time>2026-04-11T12:20:15.999Z</time></trkpt><trkpt lat="43.03808614175115" lon="11.408845114966585"><ele>279.40000000000003</ele><time>2026-04-11T12:20:16.999Z</time></trkpt><trkpt lat="43.03801986245846" lon="11.408939477538222"><ele>278.6</ele><time>2026-04-11T12:20:17.999Z</time></trkpt><trkpt lat="43.037956102655556" lon="11.409032053761972"><ele>277.8</ele><time>2026-04-11T12:20:19Z</time></trkpt><trkpt lat="43.03789513963236" lon="11.4091209473208"><ele>277.0</ele><time>2026-04-11T12:20:20Z</time></trkpt><trkpt lat="43.03783509136213" lon="11.409207171795963"><ele>277.0</ele><time>2026-04-11T12:20:21Z</time></trkpt><trkpt lat="43.03777684843696" lon="11.40929122218047"><ele>277.0</ele><time>2026-04-11T12:20:22Z</time></trkpt><trkpt lat="43.03772211094457" lon="11.409372929665501"><ele>277.0</ele><time>2026-04-11T12:20:23Z</time></trkpt><trkpt lat="43.03767125580871" lon="11.409440544001239"><ele>277.0</ele><time>2026-04-11T12:20:24Z</time></trkpt><trkpt lat="43.03755640182314" lon="11.409514735443937"><ele>277.0</ele><time>2026-04-11T12:20:26Z</time></trkpt><trkpt lat="43.03749610896054" lon="11.409464801854947"><ele>277.0</ele><time>2026-04-11T12:20:27Z</time></trkpt><trkpt lat="43.037441516415036" lon="11.409412414637991"><ele>276.66666666666663</ele><time>2026-04-11T12:20:28Z</time></trkpt><trkpt lat="43.03740034624102" lon="11.409336462954306"><ele>276.3333333333333</ele><time>2026-04-11T12:20:29Z</time></trkpt><trkpt lat="43.03734918955174" lon="11.409250477510204"><ele>276.0</ele><time>2026-04-11T12:20:30Z</time></trkpt><trkpt lat="43.037295082311445" lon="11.409164767409981"><ele>275.6666666666667</ele><time>2026-04-11T12:20:31Z</time></trkpt><trkpt lat="43.03723938083484" lon="11.409075806481379"><ele>275.33333333333337</ele><time>2026-04-11T12:20:32Z</time></trkpt><trkpt lat="43.03718326649821" lon="11.408985880439387"><ele>275.0</ele><time>2026-04-11T12:20:33Z</time></trkpt><trkpt lat="43.03712688526064" lon="11.408895526637126"><ele>274.0</ele><time>2026-04-11T12:20:34Z</time></trkpt><trkpt lat="43.03706945809941" lon="11.408803496783971"><ele>273.0</ele><time>2026-04-11T12:20:35Z</time></trkpt><trkpt lat="43.0370105301165" lon="11.408709061722313"><ele>272.0</ele><time>2026-04-11T12:20:36Z</time></trkpt><trkpt lat="43.036950922191565" lon="11.408614724394587"><ele>271.0</ele><time>2026-04-11T12:20:37Z</time></trkpt><trkpt lat="43.03689101414811" lon="11.40852005525088"><ele>270.0</ele><time>2026-04-11T12:20:38Z</time></trkpt><trkpt lat="43.03682989501664" lon="11.408423472282278"><ele>270.0</ele><time>2026-04-11T12:20:39Z</time></trkpt><trkpt lat="43.0367703959616" lon="11.408327898896188"><ele>270.0</ele><time>2026-04-11T12:20:40.001Z</time></trkpt><trkpt lat="43.03672259405178" lon="11.408252900256644"><ele>270.0</ele><time>2026-04-11T12:20:41.001Z</time></trkpt><trkpt lat="43.036605508614365" lon="11.408184852534497"><ele>270.0</ele><time>2026-04-11T12:20:43.001Z</time></trkpt><trkpt lat="43.036485812110534" lon="11.408295990620827"><ele>270.0</ele><time>2026-04-11T12:20:45.001Z</time></trkpt><trkpt lat="43.03640382185092" lon="11.408396779987228"><ele>270.4</ele><time>2026-04-11T12:20:47.001Z</time></trkpt><trkpt lat="43.03631759258579" lon="11.408483494735822"><ele>270.8</ele><time>2026-04-11T12:20:49.001Z</time></trkpt><trkpt lat="43.0362459871686" lon="11.40858267887523"><ele>271.2</ele><time>2026-04-11T12:20:51.001Z</time></trkpt><trkpt lat="43.036177381037746" lon="11.408684354849242"><ele>271.6</ele><time>2026-04-11T12:20:53.001Z</time></trkpt><trkpt lat="43.036110578985486" lon="11.40878394861867"><ele>272.0</ele><time>2026-04-11T12:20:55.001Z</time></trkpt><trkpt lat="43.03604202850272" lon="11.40888614902904"><ele>272.0</ele><time>2026-04-11T12:20:57.001Z</time></trkpt><trkpt lat="43.03597384446242" lon="11.408987803135298"><ele>272.0</ele><time>2026-04-11T12:20:59.001Z</time></trkpt><trkpt lat="43.03590607436304" lon="11.409087586211305"><ele>272.0</ele><time>2026-04-11T12:21:01.001Z</time></trkpt><trkpt lat="43.03583825349454" lon="11.409184224120319"><ele>272.0</ele><time>2026-04-11T12:21:03.001Z</time></trkpt><trkpt lat="43.03579316594124" lon="11.409247180470894"><ele>272.0</ele><time>2026-04-11T12:21:06.001Z</time></trkpt><trkpt lat="43.035738655612434" lon="11.409319831466565"><ele>272.0</ele><time>2026-04-11T12:21:07.001Z</time></trkpt><trkpt lat="43.035684242850664" lon="11.409388721947805"><ele>271.6666666666667</ele><time>2026-04-11T12:21:09.001Z</time></trkpt><trkpt lat="43.03562529993242" lon="11.40944781181147"><ele>271.33333333333337</ele><time>2026-04-11T12:21:11.001Z</time></trkpt><trkpt lat="43.035563461292384" lon="11.40952087430981"><ele>271.0</ele><time>2026-04-11T12:21:14.001Z</time></trkpt><trkpt lat="43.03550436606884" lon="11.409579250886136"><ele>270.6666666666667</ele><time>2026-04-11T12:21:17.001Z</time></trkpt><trkpt lat="43.03544750844304" lon="11.409641937324412"><ele>270.3333333333333</ele><time>2026-04-11T12:21:20Z</time></trkpt><trkpt lat="43.03538942940455" lon="11.409690897385126"><ele>270.0</ele><time>2026-04-11T12:21:23Z</time></trkpt><trkpt lat="43.035334309181195" lon="11.409791931280864"><ele>270.6666666666667</ele><time>2026-04-11T12:21:26Z</time></trkpt><trkpt lat="43.03527144703433" lon="11.40984862841737"><ele>271.3333333333333</ele><time>2026-04-11T12:21:29Z</time></trkpt><trkpt lat="43.03519649052539" lon="11.409906601298873"><ele>272.0</ele><time>2026-04-11T12:21:33Z</time></trkpt><trkpt lat="43.03513396668068" lon="11.409946872797208"><ele>272.66666666666663</ele><time>2026-04-11T12:21:36Z</time></trkpt><trkpt lat="43.035072171874965" lon="11.409997889131306"><ele>273.3333333333333</ele><time>2026-04-11T12:21:39Z</time></trkpt><trkpt lat="43.03500794928422" lon="11.410044050903005"><ele>274.0</ele><time>2026-04-11T12:21:42Z</time></trkpt><trkpt lat="43.03494055172009" lon="11.410091601577577"><ele>274.0</ele><time>2026-04-11T12:21:45Z</time></trkpt><trkpt lat="43.03485845813592" lon="11.410147764535422"><ele>274.0</ele><time>2026-04-11T12:21:48Z</time></trkpt><trkpt lat="43.034793841228534" lon="11.41020562257229"><ele>274.0</ele><time>2026-04-11T12:21:51Z</time></trkpt><trkpt lat="43.034720471742695" lon="11.410255731708109"><ele>274.0</ele><time>2026-04-11T12:21:54Z</time></trkpt><trkpt lat="43.03463520747101" lon="11.410306477444806"><ele>274.0</ele><time>2026-04-11T12:21:57Z</time></trkpt><trkpt lat="43.034566918987466" lon="11.410340204739107"><ele>274.0</ele><time>2026-04-11T12:21:59Z</time></trkpt><trkpt lat="43.034497669162285" lon="11.41037864516595"><ele>274.0</ele><time>2026-04-11T12:22:01Z</time></trkpt><trkpt lat="43.03441536701004" lon="11.410408624756853"><ele>274.0</ele><time>2026-04-11T12:22:03Z</time></trkpt><trkpt lat="43.034315204458345" lon="11.41044040720001"><ele>274.0</ele><time>2026-04-11T12:22:05Z</time></trkpt><trkpt lat="43.03420605602333" lon="11.41047254931694"><ele>274.0</ele><time>2026-04-11T12:22:07Z</time></trkpt><trkpt lat="43.03414071669189" lon="11.410419305045375"><ele>274.0</ele><time>2026-04-11T12:22:08Z</time></trkpt><trkpt lat="43.03402282623981" lon="11.410439442151622"><ele>273.8571428571429</ele><time>2026-04-11T12:22:10Z</time></trkpt><trkpt lat="43.03395869443136" lon="11.410449126311875"><ele>273.7142857142857</ele><time>2026-04-11T12:22:11Z</time></trkpt><trkpt lat="43.03388833227817" lon="11.410458069844845"><ele>273.57142857142856</ele><time>2026-04-11T12:22:12Z</time></trkpt><trkpt lat="43.03381306997579" lon="11.410464237808002"><ele>273.42857142857144</ele><time>2026-04-11T12:22:13Z</time></trkpt><trkpt lat="43.033735747681405" lon="11.410470574591232"><ele>273.2857142857143</ele><time>2026-04-11T12:22:14Z</time></trkpt><trkpt lat="43.033657826643086" lon="11.410477614496461"><ele>273.14285714285717</ele><time>2026-04-11T12:22:15Z</time></trkpt><trkpt lat="43.03357790156655" lon="11.410487258123231"><ele>273.0</ele><time>2026-04-11T12:22:16Z</time></trkpt><trkpt lat="43.03349533170748" lon="11.410499543697748"><ele>273.0</ele><time>2026-04-11T12:22:17Z</time></trkpt><trkpt lat="43.03341559019502" lon="11.410512503066329"><ele>273.0</ele><time>2026-04-11T12:22:18Z</time></trkpt><trkpt lat="43.03333761519956" lon="11.410525175351118"><ele>273.0</ele><time>2026-04-11T12:22:19Z</time></trkpt><trkpt lat="43.033257978418426" lon="11.410538117700622"><ele>273.0</ele><time>2026-04-11T12:22:20Z</time></trkpt><trkpt lat="43.03317347849255" lon="11.410553062508718"><ele>273.0</ele><time>2026-04-11T12:22:21Z</time></trkpt><trkpt lat="43.03308853851212" lon="11.410568578963767"><ele>273.0</ele><time>2026-04-11T12:22:22Z</time></trkpt><trkpt lat="43.032998838209586" lon="11.410584966786265"><ele>271.0</ele><time>2026-04-11T12:22:23Z</time></trkpt><trkpt lat="43.03290560150986" lon="11.410603537576414"><ele>269.0</ele><time>2026-04-11T12:22:24Z</time></trkpt><trkpt lat="43.032812008992224" lon="11.410624116095706"><ele>267.0</ele><time>2026-04-11T12:22:25Z</time></trkpt><trkpt lat="43.032715780702326" lon="11.410646581476932"><ele>265.0</ele><time>2026-04-11T12:22:26Z</time></trkpt><trkpt lat="43.03261947000006" lon="11.410670785590776"><ele>263.0</ele><time>2026-04-11T12:22:27Z</time></trkpt><trkpt lat="43.03251805825537" lon="11.410698915368027"><ele>260.8</ele><time>2026-04-11T12:22:28Z</time></trkpt><trkpt lat="43.03241612762046" lon="11.410729824540041"><ele>258.6</ele><time>2026-04-11T12:22:29Z</time></trkpt><trkpt lat="43.032317408414734" lon="11.410763076567347"><ele>256.4</ele><time>2026-04-11T12:22:30Z</time></trkpt><trkpt lat="43.03221952987092" lon="11.410798930059869"><ele>254.2</ele><time>2026-04-11T12:22:31Z</time></trkpt><trkpt lat="43.03211975389648" lon="11.410835478767313"><ele>252.0</ele><time>2026-04-11T12:22:32Z</time></trkpt><trkpt lat="43.03201846077312" lon="11.410877323147979"><ele>252.0</ele><time>2026-04-11T12:22:33Z</time></trkpt><trkpt lat="43.03192090241136" lon="11.410919653906385"><ele>252.0</ele><time>2026-04-11T12:22:34Z</time></trkpt><trkpt lat="43.03182550315507" lon="11.410961489972225"><ele>252.0</ele><time>2026-04-11T12:22:35Z</time></trkpt><trkpt lat="43.031733164162624" lon="11.411001984383743"><ele>252.0</ele><time>2026-04-11T12:22:36Z</time></trkpt><trkpt lat="43.03164440533541" lon="11.411044075693676"><ele>252.0</ele><time>2026-04-11T12:22:37Z</time></trkpt><trkpt lat="43.031555438817676" lon="11.411084890504556"><ele>250.5</ele><time>2026-04-11T12:22:38Z</time></trkpt><trkpt lat="43.031469377399766" lon="11.411124309225"><ele>249.0</ele><time>2026-04-11T12:22:39Z</time></trkpt><trkpt lat="43.03138391908883" lon="11.411162222741206"><ele>247.5</ele><time>2026-04-11T12:22:40Z</time></trkpt><trkpt lat="43.03129813223821" lon="11.411198201198918"><ele>246.0</ele><time>2026-04-11T12:22:41Z</time></trkpt><trkpt lat="43.03121379833504" lon="11.411229179228338"><ele>244.5</ele><time>2026-04-11T12:22:42Z</time></trkpt><trkpt lat="43.03112631068885" lon="11.411259547349182"><ele>243.0</ele><time>2026-04-11T12:22:43Z</time></trkpt><trkpt lat="43.03103582638501" lon="11.411288991722717"><ele>243.0</ele><time>2026-04-11T12:22:44Z</time></trkpt><trkpt lat="43.03094581122393" lon="11.4113188156112"><ele>243.0</ele><time>2026-04-11T12:22:45Z</time></trkpt><trkpt lat="43.03086102072034" lon="11.411350614315266"><ele>243.0</ele><time>2026-04-11T12:22:46.001Z</time></trkpt><trkpt lat="43.0307799666914" lon="11.411388757337036"><ele>243.0</ele><time>2026-04-11T12:22:47.001Z</time></trkpt><trkpt lat="43.030702347858266" lon="11.411431911198637"><ele>243.0</ele><time>2026-04-11T12:22:48.001Z</time></trkpt><trkpt lat="43.03063374578684" lon="11.411511328905139"><ele>243.0</ele><time>2026-04-11T12:22:49.001Z</time></trkpt><trkpt lat="43.030549313049676" lon="11.411561551157419"><ele>242.2</ele><time>2026-04-11T12:22:50.001Z</time></trkpt><trkpt lat="43.03047320079165" lon="11.411641092393294"><ele>241.4</ele><time>2026-04-11T12:22:51.001Z</time></trkpt><trkpt lat="43.03039844109492" lon="11.41172459426884"><ele>240.59999999999997</ele><time>2026-04-11T12:22:52.001Z</time></trkpt><trkpt lat="43.030323049347395" lon="11.411809917020342"><ele>239.79999999999998</ele><time>2026-04-11T12:22:53.001Z</time></trkpt><trkpt lat="43.0302494564724" lon="11.411897786975587"><ele>239.0</ele><time>2026-04-11T12:22:54.001Z</time></trkpt><trkpt lat="43.03017452265517" lon="11.411992502536721"><ele>239.0</ele><time>2026-04-11T12:22:55.001Z</time></trkpt><trkpt lat="43.03009850949716" lon="11.412096590976248"><ele>239.0</ele><time>2026-04-11T12:22:56.001Z</time></trkpt><trkpt lat="43.030018637608805" lon="11.412216521283721"><ele>239.0</ele><time>2026-04-11T12:22:57.001Z</time></trkpt><trkpt lat="43.029941648525835" lon="11.412352542332568"><ele>239.0</ele><time>2026-04-11T12:22:58.001Z</time></trkpt><trkpt lat="43.02987426588423" lon="11.412497093731304"><ele>239.2</ele><time>2026-04-11T12:22:59.001Z</time></trkpt><trkpt lat="43.02981249239999" lon="11.412636831225699"><ele>239.39999999999998</ele><time>2026-04-11T12:23:00.001Z</time></trkpt><trkpt lat="43.029758264621556" lon="11.412755293885644"><ele>239.6</ele><time>2026-04-11T12:23:01.001Z</time></trkpt><trkpt lat="43.02970359706652" lon="11.412857754293594"><ele>239.8</ele><time>2026-04-11T12:23:02.001Z</time></trkpt><trkpt lat="43.02966427677134" lon="11.41296011797499"><ele>240.0</ele><time>2026-04-11T12:23:03.001Z</time></trkpt><trkpt lat="43.02962223106693" lon="11.413039121620626"><ele>240.0</ele><time>2026-04-11T12:23:04.001Z</time></trkpt><trkpt lat="43.02954921611111" lon="11.413163277028406"><ele>240.0</ele><time>2026-04-11T12:23:06.001Z</time></trkpt><trkpt lat="43.02948407850914" lon="11.41324291680136"><ele>240.0</ele><time>2026-04-11T12:23:08.001Z</time></trkpt><trkpt lat="43.029440114874156" lon="11.413317001490627"><ele>240.0</ele><time>2026-04-11T12:23:10.001Z</time></trkpt><trkpt lat="43.029414801104764" lon="11.413404531013015"><ele>240.0</ele><time>2026-04-11T12:23:12.001Z</time></trkpt><trkpt lat="43.02936891650887" lon="11.413488619552338"><ele>240.0</ele><time>2026-04-11T12:23:15.001Z</time></trkpt><trkpt lat="43.02932553857837" lon="11.413568374448515"><ele>240.0</ele><time>2026-04-11T12:23:18.001Z</time></trkpt><trkpt lat="43.02927912717278" lon="11.41363555894727"><ele>240.0</ele><time>2026-04-11T12:23:21.001Z</time></trkpt><trkpt lat="43.029225743343595" lon="11.413717866947716"><ele>240.0</ele><time>2026-04-11T12:23:24Z</time></trkpt><trkpt lat="43.02919398850262" lon="11.413792990643262"><ele>240.0</ele><time>2026-04-11T12:23:27Z</time></trkpt><trkpt lat="43.02914204453171" lon="11.413872870180807"><ele>240.0</ele><time>2026-04-11T12:23:30Z</time></trkpt><trkpt lat="43.02910197593035" lon="11.41395083386115"><ele>240.0</ele><time>2026-04-11T12:23:33Z</time></trkpt><trkpt lat="43.02905356265082" lon="11.414025426803624"><ele>240.0</ele><time>2026-04-11T12:23:36Z</time></trkpt><trkpt lat="43.029006085319075" lon="11.414096403366981"><ele>239.5</ele><time>2026-04-11T12:23:39Z</time></trkpt><trkpt lat="43.02896459800559" lon="11.414164646437268"><ele>239.0</ele><time>2026-04-11T12:23:41Z</time></trkpt><trkpt lat="43.028920908531354" lon="11.414227329507021"><ele>238.5</ele><time>2026-04-11T12:23:43Z</time></trkpt><trkpt lat="43.028862109296966" lon="11.41429168322857"><ele>238.0</ele><time>2026-04-11T12:23:46Z</time></trkpt><trkpt lat="43.028816525713054" lon="11.414376998619746"><ele>237.5</ele><time>2026-04-11T12:23:48Z</time></trkpt><trkpt lat="43.028762640441045" lon="11.414465628405233"><ele>237.0</ele><time>2026-04-11T12:23:50Z</time></trkpt><trkpt lat="43.02870271815306" lon="11.414565346259085"><ele>238.16666666666666</ele><time>2026-04-11T12:23:52Z</time></trkpt><trkpt lat="43.02864291326949" lon="11.414658442271604"><ele>239.33333333333331</ele><time>2026-04-11T12:23:54Z</time></trkpt><trkpt lat="43.02858920905945" lon="11.41475861637643"><ele>240.5</ele><time>2026-04-11T12:23:56Z</time></trkpt><trkpt lat="43.028530402826945" lon="11.414839943939258"><ele>241.66666666666666</ele><time>2026-04-11T12:23:58Z</time></trkpt><trkpt lat="43.028478847895116" lon="11.414918295871884"><ele>242.83333333333331</ele><time>2026-04-11T12:24:00Z</time></trkpt><trkpt lat="43.0284203672422" lon="11.415011983460467"><ele>244.0</ele><time>2026-04-11T12:24:03Z</time></trkpt><trkpt lat="43.028367696086995" lon="11.415097487322395"><ele>243.99999999999997</ele><time>2026-04-11T12:24:06Z</time></trkpt><trkpt lat="43.02831505588889" lon="11.41517911431212"><ele>244.0</ele><time>2026-04-11T12:24:10Z</time></trkpt><trkpt lat="43.0282781718727" lon="11.41525789939055"><ele>243.99999999999997</ele><time>2026-04-11T12:24:14Z</time></trkpt><trkpt lat="43.028233581218416" lon="11.41532440162266"><ele>243.99999999999997</ele><time>2026-04-11T12:24:18Z</time></trkpt><trkpt lat="43.02818756059002" lon="11.415414395262225"><ele>244.0</ele><time>2026-04-11T12:24:22Z</time></trkpt><trkpt lat="43.02813220408687" lon="11.415496323648407"><ele>243.99999999999997</ele><time>2026-04-11T12:24:26Z</time></trkpt><trkpt lat="43.028084698307524" lon="11.415554941558295"><ele>243.99999999999997</ele><time>2026-04-11T12:24:30Z</time></trkpt><trkpt lat="43.02804469392718" lon="11.41562782935996"><ele>244.1428571428571</ele><time>2026-04-11T12:24:34Z</time></trkpt><trkpt lat="43.0279937667116" lon="11.415709152324796"><ele>244.28571428571428</ele><time>2026-04-11T12:24:38Z</time></trkpt><trkpt lat="43.02795343458975" lon="11.415789016994278"><ele>244.42857142857142</ele><time>2026-04-11T12:24:41Z</time></trkpt><trkpt lat="43.02791504575866" lon="11.415867250126588"><ele>244.57142857142856</ele><time>2026-04-11T12:24:44Z</time></trkpt><trkpt lat="43.027868138064676" lon="11.415944005140716"><ele>244.71428571428572</ele><time>2026-04-11T12:24:47Z</time></trkpt><trkpt lat="43.02782241170619" lon="11.416009488904074"><ele>244.85714285714286</ele><time>2026-04-11T12:24:50Z</time></trkpt><trkpt lat="43.02777109041683" lon="11.416096942297637"><ele>245.0</ele><time>2026-04-11T12:24:53.001Z</time></trkpt><trkpt lat="43.02771253613565" lon="11.416199492893087"><ele>245.00000000000003</ele><time>2026-04-11T12:24:56.001Z</time></trkpt><trkpt lat="43.02766809052215" lon="11.416288296968416"><ele>245.0</ele><time>2026-04-11T12:24:58.001Z</time></trkpt><trkpt lat="43.027617063637116" lon="11.416366459188263"><ele>245.0</ele><time>2026-04-11T12:25:00.001Z</time></trkpt><trkpt lat="43.02756810198257" lon="11.416460506227276"><ele>245.0</ele><time>2026-04-11T12:25:02.001Z</time></trkpt><trkpt lat="43.02751310411815" lon="11.416557766146509"><ele>245.00000000000003</ele><time>2026-04-11T12:25:04.001Z</time></trkpt><trkpt lat="43.0274532462645" lon="11.416661557059747"><ele>245.0</ele><time>2026-04-11T12:25:06.001Z</time></trkpt><trkpt lat="43.02739350819304" lon="11.416768521625455"><ele>245.00000000000003</ele><time>2026-04-11T12:25:08.001Z</time></trkpt><trkpt lat="43.027334480551026" lon="11.416871571169109"><ele>245.0</ele><time>2026-04-11T12:25:10.001Z</time></trkpt><trkpt lat="43.02728121112055" lon="11.416975583605254"><ele>245.0</ele><time>2026-04-11T12:25:12.001Z</time></trkpt><trkpt lat="43.027230292907205" lon="11.41706713879094"><ele>245.0</ele><time>2026-04-11T12:25:14Z</time></trkpt><trkpt lat="43.02717602266852" lon="11.417149618992616"><ele>245.00000000000003</ele><time>2026-04-11T12:25:16Z</time></trkpt><trkpt lat="43.02712478474219" lon="11.41723393070443"><ele>245.0</ele><time>2026-04-11T12:25:18Z</time></trkpt><trkpt lat="43.0270702797059" lon="11.417323403773704"><ele>245.0</ele><time>2026-04-11T12:25:20Z</time></trkpt><trkpt lat="43.02700991330136" lon="11.417412256163933"><ele>245.0</ele><time>2026-04-11T12:25:22Z</time></trkpt><trkpt lat="43.026950951669896" lon="11.417507316960986"><ele>245.0</ele><time>2026-04-11T12:25:24Z</time></trkpt><trkpt lat="43.026890907878034" lon="11.417603755813527"><ele>245.0</ele><time>2026-04-11T12:25:26Z</time></trkpt><trkpt lat="43.02682179995384" lon="11.417692267363867"><ele>245.0</ele><time>2026-04-11T12:25:28Z</time></trkpt><trkpt lat="43.02676132752885" lon="11.417780939225185"><ele>245.0</ele><time>2026-04-11T12:25:30Z</time></trkpt><trkpt lat="43.02670202845576" lon="11.417865252811323"><ele>245.0</ele><time>2026-04-11T12:25:32Z</time></trkpt><trkpt lat="43.02663545281307" lon="11.41795446005096"><ele>245.0</ele><time>2026-04-11T12:25:34Z</time></trkpt><trkpt lat="43.02656641449298" lon="11.418050332694106"><ele>245.0</ele><time>2026-04-11T12:25:36Z</time></trkpt><trkpt lat="43.02649612966511" lon="11.418141639127786"><ele>245.0</ele><time>2026-04-11T12:25:38Z</time></trkpt><trkpt lat="43.02643523571614" lon="11.418224270534912"><ele>245.14285714285714</ele><time>2026-04-11T12:25:40Z</time></trkpt><trkpt lat="43.026386141099074" lon="11.418286772149385"><ele>245.28571428571428</ele><time>2026-04-11T12:25:42Z</time></trkpt><trkpt lat="43.02632971895529" lon="11.418354756283609"><ele>245.42857142857144</ele><time>2026-04-11T12:25:45Z</time></trkpt><trkpt lat="43.026271416444" lon="11.418416177472766"><ele>245.57142857142858</ele><time>2026-04-11T12:25:49Z</time></trkpt><trkpt lat="43.02621362277301" lon="11.418466871874793"><ele>245.71428571428572</ele><time>2026-04-11T12:28:58Z</time></trkpt><trkpt lat="43.02615113537838" lon="11.418533173249301"><ele>245.8571428571429</ele><time>2026-04-11T12:29:01Z</time></trkpt><trkpt lat="43.02610129203743" lon="11.418591027516301"><ele>246.00000000000003</ele><time>2026-04-11T12:29:03.001Z</time></trkpt><trkpt lat="43.0260437382403" lon="11.418669509757532"><ele>246.0</ele><time>2026-04-11T12:29:05.001Z</time></trkpt><trkpt lat="43.02597342306956" lon="11.418763018529363"><ele>246.0</ele><time>2026-04-11T12:29:07.001Z</time></trkpt><trkpt lat="43.02589182215789" lon="11.418875507094478"><ele>246.0</ele><time>2026-04-11T12:29:09.001Z</time></trkpt><trkpt lat="43.02584152568806" lon="11.418935417149186"><ele>246.0</ele><time>2026-04-11T12:29:10.001Z</time></trkpt><trkpt lat="43.02577429849707" lon="11.418980673277089"><ele>246.0</ele><time>2026-04-11T12:29:11.001Z</time></trkpt><trkpt lat="43.02571987387518" lon="11.419051603814944"><ele>246.0</ele><time>2026-04-11T12:29:12.001Z</time></trkpt><trkpt lat="43.025662255384574" lon="11.419124630854434"><ele>244.0</ele><time>2026-04-11T12:29:13.001Z</time></trkpt><trkpt lat="43.02560057743804" lon="11.419201370574186"><ele>242.0</ele><time>2026-04-11T12:29:14.001Z</time></trkpt><trkpt lat="43.02553856499789" lon="11.41927783667468"><ele>240.0</ele><time>2026-04-11T12:29:15.001Z</time></trkpt><trkpt lat="43.02547328638692" lon="11.419357528000267"><ele>238.0</ele><time>2026-04-11T12:29:16.001Z</time></trkpt><trkpt lat="43.02540711946473" lon="11.419438220748692"><ele>236.0</ele><time>2026-04-11T12:29:17.001Z</time></trkpt><trkpt lat="43.02533964042451" lon="11.419519679464111"><ele>234.0</ele><time>2026-04-11T12:29:18.001Z</time></trkpt><trkpt lat="43.02527405070164" lon="11.419598327798806"><ele>233.5</ele><time>2026-04-11T12:29:19.001Z</time></trkpt><trkpt lat="43.02520873076564" lon="11.41967467440233"><ele>233.0</ele><time>2026-04-11T12:29:20.001Z</time></trkpt><trkpt lat="43.02514191828371" lon="11.419752765698398"><ele>232.5</ele><time>2026-04-11T12:29:21.001Z</time></trkpt><trkpt lat="43.02507545051883" lon="11.419829200357496"><ele>232.0</ele><time>2026-04-11T12:29:22.001Z</time></trkpt><trkpt lat="43.02500375730117" lon="11.419901715102197"><ele>231.5</ele><time>2026-04-11T12:29:23.001Z</time></trkpt><trkpt lat="43.02492759224738" lon="11.41995791039637"><ele>231.0</ele><time>2026-04-11T12:29:24.001Z</time></trkpt><trkpt lat="43.02484582277852" lon="11.420000774864183"><ele>231.0</ele><time>2026-04-11T12:29:25.001Z</time></trkpt><trkpt lat="43.02475517413937" lon="11.420036055424104"><ele>231.00000000000003</ele><time>2026-04-11T12:29:26.001Z</time></trkpt><trkpt lat="43.02466889745319" lon="11.4200503062409"><ele>231.00000000000003</ele><time>2026-04-11T12:29:27.001Z</time></trkpt><trkpt lat="43.02457344505519" lon="11.420056487861187"><ele>231.0</ele><time>2026-04-11T12:29:28.001Z</time></trkpt><trkpt lat="43.0244762143559" lon="11.420061851530965"><ele>231.0</ele><time>2026-04-11T12:29:29Z</time></trkpt><trkpt lat="43.024376389571664" lon="11.420066969300455"><ele>231.0</ele><time>2026-04-11T12:29:30Z</time></trkpt><trkpt lat="43.02427649594774" lon="11.420071249091729"><ele>231.00000000000003</ele><time>2026-04-11T12:29:31Z</time></trkpt><trkpt lat="43.02417414318984" lon="11.42007553121039"><ele>231.00000000000003</ele><time>2026-04-11T12:29:32Z</time></trkpt><trkpt lat="43.02407175457404" lon="11.42007981483847"><ele>231.0</ele><time>2026-04-11T12:29:33Z</time></trkpt><trkpt lat="43.02396873865104" lon="11.420084124714354"><ele>231.0</ele><time>2026-04-11T12:29:34Z</time></trkpt><trkpt lat="43.023864285474325" lon="11.420088494709843"><ele>230.0</ele><time>2026-04-11T12:29:35Z</time></trkpt><trkpt lat="43.02375619457255" lon="11.420089002637658"><ele>229.00000000000003</ele><time>2026-04-11T12:29:36Z</time></trkpt><trkpt lat="43.02365044130778" lon="11.420080132147914"><ele>228.00000000000003</ele><time>2026-04-11T12:29:37Z</time></trkpt><trkpt lat="43.023540470130165" lon="11.42006640526037"><ele>227.0</ele><time>2026-04-11T12:29:38Z</time></trkpt><trkpt lat="43.0234362951641" lon="11.420032676282503"><ele>226.0</ele><time>2026-04-11T12:29:39Z</time></trkpt><trkpt lat="43.02333660670303" lon="11.419979216848754"><ele>226.20000000000002</ele><time>2026-04-11T12:29:40Z</time></trkpt><trkpt lat="43.023233556263484" lon="11.419920195784991"><ele>226.40000000000003</ele><time>2026-04-11T12:29:41Z</time></trkpt><trkpt lat="43.02313344104179" lon="11.419857944137146"><ele>226.6</ele><time>2026-04-11T12:29:42Z</time></trkpt><trkpt lat="43.023036065564554" lon="11.419785209819246"><ele>226.8</ele><time>2026-04-11T12:29:43Z</time></trkpt><trkpt lat="43.02294215150736" lon="11.41970901262442"><ele>227.0</ele><time>2026-04-11T12:29:44Z</time></trkpt><trkpt lat="43.022846630082874" lon="11.419630726019147"><ele>226.39999999999998</ele><time>2026-04-11T12:29:45Z</time></trkpt><trkpt lat="43.02275405760416" lon="11.419555301285577"><ele>225.79999999999998</ele><time>2026-04-11T12:29:46Z</time></trkpt><trkpt lat="43.02266384614475" lon="11.419482838986193"><ele>225.2</ele><time>2026-04-11T12:29:47Z</time></trkpt><trkpt lat="43.02257421424276" lon="11.419410842266288"><ele>224.6</ele><time>2026-04-11T12:29:48Z</time></trkpt><trkpt lat="43.02248637230138" lon="11.419340283316163"><ele>224.0</ele><time>2026-04-11T12:29:49Z</time></trkpt><trkpt lat="43.02240137831838" lon="11.419272976693138"><ele>224.00000000000003</ele><time>2026-04-11T12:29:50Z</time></trkpt><trkpt lat="43.02231797747174" lon="11.419207682622297"><ele>224.0</ele><time>2026-04-11T12:29:51Z</time></trkpt><trkpt lat="43.02223825917709" lon="11.419145271582426"><ele>224.0</ele><time>2026-04-11T12:29:52Z</time></trkpt><trkpt lat="43.022158999690014" lon="11.419084951788104"><ele>224.0</ele><time>2026-04-11T12:29:53Z</time></trkpt><trkpt lat="43.02208405947571" lon="11.41902908224198"><ele>224.00000000000003</ele><time>2026-04-11T12:29:54Z</time></trkpt><trkpt lat="43.02201467845046" lon="11.418977357211185"><ele>224.0</ele><time>2026-04-11T12:29:55Z</time></trkpt><trkpt lat="43.02194801535239" lon="11.418928825847258"><ele>224.0</ele><time>2026-04-11T12:29:56Z</time></trkpt><trkpt lat="43.021882151931905" lon="11.418884795541782"><ele>224.0</ele><time>2026-04-11T12:29:57Z</time></trkpt><trkpt lat="43.021818174958" lon="11.418846229238685"><ele>224.0</ele><time>2026-04-11T12:29:58Z</time></trkpt><trkpt lat="43.02175571349042" lon="11.418812327669482"><ele>224.0</ele><time>2026-04-11T12:29:59Z</time></trkpt><trkpt lat="43.02169253500303" lon="11.418781243802087"><ele>224.0</ele><time>2026-04-11T12:30:00Z</time></trkpt><trkpt lat="43.02162784128634" lon="11.418753708578388"><ele>224.0</ele><time>2026-04-11T12:30:01Z</time></trkpt><trkpt lat="43.02156583857192" lon="11.418732515025722"><ele>224.0</ele><time>2026-04-11T12:30:02Z</time></trkpt><trkpt lat="43.02144867042376" lon="11.418692795279066"><ele>224.6</ele><time>2026-04-11T12:30:04Z</time></trkpt><trkpt lat="43.021340321739295" lon="11.41865821502403"><ele>225.2</ele><time>2026-04-11T12:30:06Z</time></trkpt><trkpt lat="43.02124174160364" lon="11.418632504419884"><ele>225.79999999999998</ele><time>2026-04-11T12:30:08Z</time></trkpt><trkpt lat="43.02116580342596" lon="11.418624123437139"><ele>226.39999999999998</ele><time>2026-04-11T12:30:10Z</time></trkpt><trkpt lat="43.021087312668016" lon="11.418633682184389"><ele>227.0</ele><time>2026-04-11T12:30:12Z</time></trkpt><trkpt lat="43.021127464605165" lon="11.418822377988375"><ele>227.0</ele><time>2026-04-11T12:30:15Z</time></trkpt><trkpt lat="43.02115199561719" lon="11.418907597325507"><ele>227.00000000000003</ele><time>2026-04-11T12:30:19Z</time></trkpt><trkpt lat="43.021204117463995" lon="11.418975973804471"><ele>227.0</ele><time>2026-04-11T12:30:23Z</time></trkpt><trkpt lat="43.02124130885614" lon="11.41905596609162"><ele>227.0</ele><time>2026-04-11T12:30:27Z</time></trkpt><trkpt lat="43.02130396711255" lon="11.419119172225914"><ele>227.00000000000003</ele><time>2026-04-11T12:30:32Z</time></trkpt><trkpt lat="43.02133949374867" lon="11.419222432906865"><ele>227.0</ele><time>2026-04-11T12:30:36Z</time></trkpt><trkpt lat="43.021390702685736" lon="11.419289302927446"><ele>227.0</ele><time>2026-04-11T12:30:40Z</time></trkpt><trkpt lat="43.02142381856365" lon="11.419364445018388"><ele>227.0</ele><time>2026-04-11T12:30:43Z</time></trkpt><trkpt lat="43.02146579767524" lon="11.419455721853732"><ele>227.00000000000003</ele><time>2026-04-11T12:30:46Z</time></trkpt><trkpt lat="43.02151587993136" lon="11.419513888656297"><ele>227.0</ele><time>2026-04-11T12:30:49Z</time></trkpt><trkpt lat="43.02154882687929" lon="11.419596601774279"><ele>227.0</ele><time>2026-04-11T12:30:52Z</time></trkpt><trkpt lat="43.02158905722305" lon="11.41967272980787"><ele>227.00000000000003</ele><time>2026-04-11T12:30:55Z</time></trkpt><trkpt lat="43.02162951560174" lon="11.419742710466497"><ele>227.0</ele><time>2026-04-11T12:30:58Z</time></trkpt><trkpt lat="43.0216726505377" lon="11.419812386589655"><ele>227.0</ele><time>2026-04-11T12:31:01Z</time></trkpt><trkpt lat="43.02171561577664" lon="11.419887270657695"><ele>227.83333333333334</ele><time>2026-04-11T12:31:04Z</time></trkpt><trkpt lat="43.02175937384739" lon="11.419966160072295"><ele>228.66666666666669</ele><time>2026-04-11T12:31:07Z</time></trkpt><trkpt lat="43.0218086563615" lon="11.420050267900308"><ele>229.5</ele><time>2026-04-11T12:31:10.001Z</time></trkpt><trkpt lat="43.021862718633514" lon="11.42014911854354"><ele>230.33333333333331</ele><time>2026-04-11T12:31:13.001Z</time></trkpt><trkpt lat="43.02190499672327" lon="11.420222683627856"><ele>231.16666666666666</ele><time>2026-04-11T12:31:15.001Z</time></trkpt><trkpt lat="43.02195303062158" lon="11.420298995833711"><ele>232.0</ele><time>2026-04-11T12:31:17.001Z</time></trkpt><trkpt lat="43.02201101862913" lon="11.420404331939569"><ele>232.0</ele><time>2026-04-11T12:31:19.001Z</time></trkpt><trkpt lat="43.02207245653863" lon="11.420509088340175"><ele>232.0</ele><time>2026-04-11T12:31:21.001Z</time></trkpt><trkpt lat="43.02214293488078" lon="11.420629502406156"><ele>232.0</ele><time>2026-04-11T12:31:23.001Z</time></trkpt><trkpt lat="43.0222208214732" lon="11.420769290616493"><ele>232.0</ele><time>2026-04-11T12:31:25.001Z</time></trkpt><trkpt lat="43.02226097350877" lon="11.42085286304448"><ele>232.0</ele><time>2026-04-11T12:31:26.001Z</time></trkpt><trkpt lat="43.022295382854765" lon="11.420946286248872"><ele>231.99999999999997</ele><time>2026-04-11T12:31:27.001Z</time></trkpt><trkpt lat="43.02231940019366" lon="11.421053650366519"><ele>232.0</ele><time>2026-04-11T12:31:28.001Z</time></trkpt><trkpt lat="43.022311937276385" lon="11.421171880659605"><ele>232.0</ele><time>2026-04-11T12:31:29.001Z</time></trkpt><trkpt lat="43.02229994209944" lon="11.421291630831625"><ele>232.0</ele><time>2026-04-11T12:31:30Z</time></trkpt><trkpt lat="43.02227787930742" lon="11.42141565675299"><ele>231.99999999999997</ele><time>2026-04-11T12:31:31Z</time></trkpt><trkpt lat="43.022235925645546" lon="11.421531313320731"><ele>232.0</ele><time>2026-04-11T12:31:32Z</time></trkpt><trkpt lat="43.022184032779194" lon="11.421655678477226"><ele>229.5</ele><time>2026-04-11T12:31:33Z</time></trkpt><trkpt lat="43.02212672921361" lon="11.42178522030366"><ele>227.0</ele><time>2026-04-11T12:31:34Z</time></trkpt><trkpt lat="43.022066892728866" lon="11.421920487989992"><ele>224.5</ele><time>2026-04-11T12:31:35Z</time></trkpt><trkpt lat="43.02200261084826" lon="11.422060753726177"><ele>222.0</ele><time>2026-04-11T12:31:36Z</time></trkpt><trkpt lat="43.021937751804735" lon="11.422208267986015"><ele>220.5</ele><time>2026-04-11T12:31:37Z</time></trkpt><trkpt lat="43.02187429999244" lon="11.422359197582045"><ele>219.0</ele><time>2026-04-11T12:31:38Z</time></trkpt><trkpt lat="43.021810672061314" lon="11.422510546155229"><ele>217.5</ele><time>2026-04-11T12:31:39Z</time></trkpt><trkpt lat="43.02174627325696" lon="11.422663728311049"><ele>216.0</ele><time>2026-04-11T12:31:40Z</time></trkpt><trkpt lat="43.02168415575241" lon="11.422815155953153"><ele>215.25</ele><time>2026-04-11T12:31:41Z</time></trkpt><trkpt lat="43.02162242586048" lon="11.422964172129754"><ele>214.5</ele><time>2026-04-11T12:31:42Z</time></trkpt><trkpt lat="43.02156539121695" lon="11.423101854089289"><ele>213.75</ele><time>2026-04-11T12:31:43Z</time></trkpt><trkpt lat="43.021509172529775" lon="11.423235404875074"><ele>213.0</ele><time>2026-04-11T12:31:44Z</time></trkpt><trkpt lat="43.021452760430584" lon="11.423365941019187"><ele>213.0</ele><time>2026-04-11T12:31:45Z</time></trkpt><trkpt lat="43.02139573414937" lon="11.423484394400216"><ele>213.0</ele><time>2026-04-11T12:31:46Z</time></trkpt><trkpt lat="43.021336740598294" lon="11.423596468756704"><ele>213.0</ele><time>2026-04-11T12:31:47Z</time></trkpt><trkpt lat="43.021275318176485" lon="11.423701838221305"><ele>213.0</ele><time>2026-04-11T12:31:48Z</time></trkpt><trkpt lat="43.02121327432798" lon="11.423797838383352"><ele>213.0</ele><time>2026-04-11T12:31:49Z</time></trkpt><trkpt lat="43.02114897150282" lon="11.423885395870524"><ele>213.83333333333334</ele><time>2026-04-11T12:31:50Z</time></trkpt><trkpt lat="43.021086110978686" lon="11.423965593012808"><ele>214.66666666666669</ele><time>2026-04-11T12:31:51Z</time></trkpt><trkpt lat="43.021027088209856" lon="11.424035244256489"><ele>215.5</ele><time>2026-04-11T12:31:52Z</time></trkpt><trkpt lat="43.02096830405458" lon="11.424100175795306"><ele>216.33333333333334</ele><time>2026-04-11T12:31:53Z</time></trkpt><trkpt lat="43.02091587800497" lon="11.424158084300991"><ele>217.16666666666669</ele><time>2026-04-11T12:31:54Z</time></trkpt><trkpt lat="43.0208278880076" lon="11.424255275962318"><ele>218.0</ele><time>2026-04-11T12:31:56Z</time></trkpt><trkpt lat="43.02075563167562" lon="11.424335088443927"><ele>218.16666666666669</ele><time>2026-04-11T12:31:58Z</time></trkpt><trkpt lat="43.02069812447433" lon="11.42439844366763"><ele>218.33333333333334</ele><time>2026-04-11T12:32:00Z</time></trkpt><trkpt lat="43.02063051819041" lon="11.424475818179445"><ele>218.5</ele><time>2026-04-11T12:32:03Z</time></trkpt><trkpt lat="43.020570398247024" lon="11.424545802542506"><ele>218.66666666666669</ele><time>2026-04-11T12:32:06Z</time></trkpt><trkpt lat="43.020516458237125" lon="11.424610172203199"><ele>218.83333333333334</ele><time>2026-04-11T12:32:09Z</time></trkpt><trkpt lat="43.02046600418893" lon="11.424675144585398"><ele>219.0</ele><time>2026-04-11T12:32:12Z</time></trkpt><trkpt lat="43.02042863856311" lon="11.42475582904488"><ele>220.14285714285717</ele><time>2026-04-11T12:32:15Z</time></trkpt><trkpt lat="43.0203684373515" lon="11.424803531781743"><ele>221.28571428571428</ele><time>2026-04-11T12:32:18Z</time></trkpt><trkpt lat="43.02031347486714" lon="11.424882510369558"><ele>222.42857142857144</ele><time>2026-04-11T12:32:22Z</time></trkpt><trkpt lat="43.020270012452244" lon="11.424951412455652"><ele>223.57142857142858</ele><time>2026-04-11T12:32:25Z</time></trkpt><trkpt lat="43.02023091382698" lon="11.42502035718949"><ele>224.71428571428572</ele><time>2026-04-11T12:32:28Z</time></trkpt><trkpt lat="43.020183488420486" lon="11.42511194588958"><ele>225.85714285714286</ele><time>2026-04-11T12:32:32Z</time></trkpt><trkpt lat="43.020145522988564" lon="11.425185520748794"><ele>227.0</ele><time>2026-04-11T12:32:36Z</time></trkpt><trkpt lat="43.020138233929295" lon="11.425282847676618"><ele>227.00000000000003</ele><time>2026-04-11T12:32:39Z</time></trkpt><trkpt lat="43.02009210177084" lon="11.425366091240198"><ele>227.0</ele><time>2026-04-11T12:32:43Z</time></trkpt><trkpt lat="43.02004673356925" lon="11.425447920195488"><ele>227.0</ele><time>2026-04-11T12:32:47Z</time></trkpt><trkpt lat="43.020005800114774" lon="11.42553391160047"><ele>227.0</ele><time>2026-04-11T12:32:51Z</time></trkpt><trkpt lat="43.01997540091568" lon="11.425622246201307"><ele>227.00000000000003</ele><time>2026-04-11T12:32:55Z</time></trkpt><trkpt lat="43.01992979875491" lon="11.425705408226293"><ele>227.0</ele><time>2026-04-11T12:32:59Z</time></trkpt><trkpt lat="43.019888699630286" lon="11.425795729209996"><ele>228.85714285714286</ele><time>2026-04-11T12:33:03Z</time></trkpt><trkpt lat="43.01984786589206" lon="11.425885655385267"><ele>230.71428571428572</ele><time>2026-04-11T12:33:07Z</time></trkpt><trkpt lat="43.019812020992234" lon="11.425967747497921"><ele>232.57142857142858</ele><time>2026-04-11T12:33:11Z</time></trkpt><trkpt lat="43.019771814298345" lon="11.426047622533407"><ele>234.42857142857144</ele><time>2026-04-11T12:33:15Z</time></trkpt><trkpt lat="43.01973556409909" lon="11.42612962267088"><ele>236.28571428571428</ele><time>2026-04-11T12:33:19Z</time></trkpt><trkpt lat="43.01969941061591" lon="11.42621213727981"><ele>238.14285714285717</ele><time>2026-04-11T12:33:23Z</time></trkpt><trkpt lat="43.01965583617857" lon="11.42629604100993"><ele>240.0</ele><time>2026-04-11T12:33:27.001Z</time></trkpt><trkpt lat="43.01961599199354" lon="11.426381557303248"><ele>240.57142857142858</ele><time>2026-04-11T12:33:31Z</time></trkpt><trkpt lat="43.01958149466585" lon="11.426456121438887"><ele>241.1428571428571</ele><time>2026-04-11T12:33:35Z</time></trkpt><trkpt lat="43.019553913395185" lon="11.426540565133266"><ele>241.7142857142857</ele><time>2026-04-11T12:33:39Z</time></trkpt><trkpt lat="43.019513173531166" lon="11.426614238793517"><ele>242.28571428571428</ele><time>2026-04-11T12:33:43Z</time></trkpt><trkpt lat="43.01948301127749" lon="11.426698700881794"><ele>242.85714285714283</ele><time>2026-04-11T12:33:47Z</time></trkpt><trkpt lat="43.01943951985777" lon="11.426772616863541"><ele>243.4285714285714</ele><time>2026-04-11T12:33:51Z</time></trkpt><trkpt lat="43.019408215080176" lon="11.426858047156424"><ele>243.99999999999997</ele><time>2026-04-11T12:33:55Z</time></trkpt><trkpt lat="43.0193719571418" lon="11.426938542076902"><ele>243.99999999999997</ele><time>2026-04-11T12:33:59Z</time></trkpt><trkpt lat="43.019339620792415" lon="11.427019480645747"><ele>244.0</ele><time>2026-04-11T12:34:03Z</time></trkpt><trkpt lat="43.019311087689964" lon="11.427096668242877"><ele>243.99999999999997</ele><time>2026-04-11T12:34:07Z</time></trkpt><trkpt lat="43.01927875956948" lon="11.427173073139947"><ele>243.99999999999997</ele><time>2026-04-11T12:34:11Z</time></trkpt><trkpt lat="43.01923546925176" lon="11.427261475236188"><ele>244.0</ele><time>2026-04-11T12:34:16Z</time></trkpt><trkpt lat="43.01919661420982" lon="11.427351630665866"><ele>243.99999999999997</ele><time>2026-04-11T12:34:21Z</time></trkpt><trkpt lat="43.01915397779012" lon="11.42743620625306"><ele>243.99999999999997</ele><time>2026-04-11T12:34:26Z</time></trkpt><trkpt lat="43.01911781489889" lon="11.427527020306332"><ele>245.33333333333331</ele><time>2026-04-11T12:34:31Z</time></trkpt><trkpt lat="43.01908145454235" lon="11.427619285262265"><ele>246.66666666666666</ele><time>2026-04-11T12:34:36Z</time></trkpt><trkpt lat="43.019047759688" lon="11.427697936948146"><ele>248.0</ele><time>2026-04-11T12:34:40Z</time></trkpt><trkpt lat="43.019012920799476" lon="11.427795308585022"><ele>249.33333333333331</ele><time>2026-04-11T12:34:45Z</time></trkpt><trkpt lat="43.018976738295265" lon="11.427891203802004"><ele>250.66666666666666</ele><time>2026-04-11T12:34:50Z</time></trkpt><trkpt lat="43.018945760391155" lon="11.427992629822738"><ele>252.0</ele><time>2026-04-11T12:34:55Z</time></trkpt><trkpt lat="43.01891197007052" lon="11.42808588665428"><ele>252.0</ele><time>2026-04-11T12:35:00Z</time></trkpt><trkpt lat="43.018881945018066" lon="11.428166876411028"><ele>252.0</ele><time>2026-04-11T12:35:04Z</time></trkpt><trkpt lat="43.0188574906544" lon="11.428249726556674"><ele>252.0</ele><time>2026-04-11T12:35:08Z</time></trkpt><trkpt lat="43.018829157144985" lon="11.428348768202202"><ele>252.0</ele><time>2026-04-11T12:35:12Z</time></trkpt><trkpt lat="43.01879576442721" lon="11.428448123430654"><ele>252.0</ele><time>2026-04-11T12:35:16Z</time></trkpt><trkpt lat="43.018767647224884" lon="11.428534307423936"><ele>252.0</ele><time>2026-04-11T12:35:19Z</time></trkpt><trkpt lat="43.01874141667433" lon="11.428628330749694"><ele>252.0</ele><time>2026-04-11T12:35:22Z</time></trkpt><trkpt lat="43.018721036531154" lon="11.428732455027273"><ele>251.6</ele><time>2026-04-11T12:35:25Z</time></trkpt><trkpt lat="43.01867347867787" lon="11.428857260249783"><ele>251.2</ele><time>2026-04-11T12:35:28Z</time></trkpt><trkpt lat="43.018634903571694" lon="11.428968549079073"><ele>250.8</ele><time>2026-04-11T12:35:30Z</time></trkpt><trkpt lat="43.01859784710962" lon="11.429077942880983"><ele>250.4</ele><time>2026-04-11T12:35:32Z</time></trkpt><trkpt lat="43.01857619540615" lon="11.429178960923585"><ele>250.0</ele><time>2026-04-11T12:35:33Z</time></trkpt><trkpt lat="43.01854246424386" lon="11.429306329674235"><ele>250.0</ele><time>2026-04-11T12:35:35Z</time></trkpt><trkpt lat="43.018498774198996" lon="11.429444713153222"><ele>250.0</ele><time>2026-04-11T12:35:37Z</time></trkpt><trkpt lat="43.01844821887596" lon="11.42959009986442"><ele>250.0</ele><time>2026-04-11T12:35:39Z</time></trkpt><trkpt lat="43.01841944804577" lon="11.429684587871076"><ele>250.0</ele><time>2026-04-11T12:35:40Z</time></trkpt><trkpt lat="43.018394585363644" lon="11.429764987105687"><ele>250.0</ele><time>2026-04-11T12:35:41Z</time></trkpt><trkpt lat="43.018348839980824" lon="11.429927688338887"><ele>249.71428571428572</ele><time>2026-04-11T12:35:43Z</time></trkpt><trkpt lat="43.01832609003987" lon="11.430021135238889"><ele>249.42857142857144</ele><time>2026-04-11T12:35:44Z</time></trkpt><trkpt lat="43.01830381044988" lon="11.430110686596938"><ele>249.14285714285717</ele><time>2026-04-11T12:35:45Z</time></trkpt><trkpt lat="43.01826303716171" lon="11.430190795172098"><ele>248.85714285714286</ele><time>2026-04-11T12:35:46Z</time></trkpt><trkpt lat="43.01824421404171" lon="11.430288896880107"><ele>248.5714285714286</ele><time>2026-04-11T12:35:47Z</time></trkpt><trkpt lat="43.01821326300586" lon="11.430381402891518"><ele>248.2857142857143</ele><time>2026-04-11T12:35:48Z</time></trkpt><trkpt lat="43.01818337592897" lon="11.430480481929019"><ele>248.0</ele><time>2026-04-11T12:35:49Z</time></trkpt><trkpt lat="43.018154049687126" lon="11.430579893631297"><ele>247.00000000000003</ele><time>2026-04-11T12:35:50Z</time></trkpt><trkpt lat="43.018123447003795" lon="11.430684534219404"><ele>246.0</ele><time>2026-04-11T12:35:51Z</time></trkpt><trkpt lat="43.01809565254831" lon="11.43079012778058"><ele>245.0</ele><time>2026-04-11T12:35:52Z</time></trkpt><trkpt lat="43.01806205844746" lon="11.43087371340856"><ele>244.0</ele><time>2026-04-11T12:35:53Z</time></trkpt><trkpt lat="43.01803151368662" lon="11.43097750348487"><ele>243.00000000000003</ele><time>2026-04-11T12:35:54Z</time></trkpt><trkpt lat="43.01800110519561" lon="11.431080830310034"><ele>242.0</ele><time>2026-04-11T12:35:55Z</time></trkpt><trkpt lat="43.01796917693992" lon="11.431189321434955"><ele>242.00000000000003</ele><time>2026-04-11T12:35:56Z</time></trkpt><trkpt lat="43.01793848308778" lon="11.431293617956271"><ele>242.0</ele><time>2026-04-11T12:35:57Z</time></trkpt><trkpt lat="43.01790598106119" lon="11.431404059118737"><ele>242.0</ele><time>2026-04-11T12:35:58Z</time></trkpt><trkpt lat="43.0178735576699" lon="11.431514232574095"><ele>242.0</ele><time>2026-04-11T12:35:59Z</time></trkpt><trkpt lat="43.01784110256847" lon="11.431624513844367"><ele>242.00000000000003</ele><time>2026-04-11T12:36:00Z</time></trkpt><trkpt lat="43.01780881645013" lon="11.431734220902966"><ele>242.0</ele><time>2026-04-11T12:36:01Z</time></trkpt><trkpt lat="43.017776760583146" lon="11.431843145829403"><ele>241.50000000000003</ele><time>2026-04-11T12:36:02Z</time></trkpt><trkpt lat="43.0177454281895" lon="11.431949612113192"><ele>241.0</ele><time>2026-04-11T12:36:03Z</time></trkpt><trkpt lat="43.01771403449718" lon="11.4320562867023"><ele>240.5</ele><time>2026-04-11T12:36:04Z</time></trkpt><trkpt lat="43.01768398410955" lon="11.432158396878325"><ele>240.0</ele><time>2026-04-11T12:36:05Z</time></trkpt><trkpt lat="43.017654033264705" lon="11.432259989810872"><ele>239.50000000000003</ele><time>2026-04-11T12:36:06Z</time></trkpt><trkpt lat="43.017625109557365" lon="11.432358022948602"><ele>239.0</ele><time>2026-04-11T12:36:07Z</time></trkpt><trkpt lat="43.0175967727944" lon="11.4324540668703"><ele>239.00000000000003</ele><time>2026-04-11T12:36:08Z</time></trkpt><trkpt lat="43.01756959029357" lon="11.432546169076808"><ele>239.0</ele><time>2026-04-11T12:36:09Z</time></trkpt><trkpt lat="43.0175430295739" lon="11.432636133495464"><ele>239.0</ele><time>2026-04-11T12:36:10Z</time></trkpt><trkpt lat="43.01751697242818" lon="11.432724392337489"><ele>239.0</ele><time>2026-04-11T12:36:11Z</time></trkpt><trkpt lat="43.01749205078746" lon="11.432808805037906"><ele>239.00000000000003</ele><time>2026-04-11T12:36:12Z</time></trkpt><trkpt lat="43.017468001094095" lon="11.432890264288753"><ele>239.0</ele><time>2026-04-11T12:36:13Z</time></trkpt><trkpt lat="43.017421793360754" lon="11.433046934548996"><ele>239.79999999999998</ele><time>2026-04-11T12:36:15Z</time></trkpt><trkpt lat="43.017379863108125" lon="11.433189119086016"><ele>240.59999999999997</ele><time>2026-04-11T12:36:17Z</time></trkpt><trkpt lat="43.017341641539204" lon="11.433318727636872"><ele>241.4</ele><time>2026-04-11T12:36:19Z</time></trkpt><trkpt lat="43.01730858509178" lon="11.433430821196058"><ele>242.2</ele><time>2026-04-11T12:36:21Z</time></trkpt><trkpt lat="43.017280340138996" lon="11.433526599280613"><ele>243.0</ele><time>2026-04-11T12:36:23Z</time></trkpt><trkpt lat="43.01725298624065" lon="11.433619355738276"><ele>243.0</ele><time>2026-04-11T12:36:25Z</time></trkpt><trkpt lat="43.01722653245223" lon="11.433708790285952"><ele>243.0</ele><time>2026-04-11T12:36:27Z</time></trkpt><trkpt lat="43.01720259970143" lon="11.433789673668437"><ele>243.0</ele><time>2026-04-11T12:36:29Z</time></trkpt><trkpt lat="43.01720702728132" lon="11.43387618153275"><ele>243.0</ele><time>2026-04-11T12:36:31Z</time></trkpt><trkpt lat="43.01717857477514" lon="11.43397626555919"><ele>243.0</ele><time>2026-04-11T12:36:34Z</time></trkpt><trkpt lat="43.01715081830896" lon="11.434064821415326"><ele>243.0</ele><time>2026-04-11T12:36:37Z</time></trkpt><trkpt lat="43.01712872267467" lon="11.434149539141163"><ele>243.0</ele><time>2026-04-11T12:36:40Z</time></trkpt><trkpt lat="43.01710174504088" lon="11.434230224843748"><ele>243.85714285714283</ele><time>2026-04-11T12:36:43Z</time></trkpt><trkpt lat="43.01706567570882" lon="11.434323099470328"><ele>244.71428571428572</ele><time>2026-04-11T12:36:47Z</time></trkpt><trkpt lat="43.01702983953624" lon="11.43441419897012"><ele>245.57142857142856</ele><time>2026-04-11T12:36:51Z</time></trkpt><trkpt lat="43.01700664767265" lon="11.4345064612916"><ele>246.42857142857142</ele><time>2026-04-11T12:36:55Z</time></trkpt><trkpt lat="43.01698285459004" lon="11.434593095822576"><ele>247.28571428571428</ele><time>2026-04-11T12:36:59Z</time></trkpt><trkpt lat="43.016946559188085" lon="11.43467244484107"><ele>248.14285714285714</ele><time>2026-04-11T12:37:03Z</time></trkpt><trkpt lat="43.0169226954818" lon="11.434766222487449"><ele>249.0</ele><time>2026-04-11T12:37:07Z</time></trkpt><trkpt lat="43.016888989728486" lon="11.434844329758064"><ele>249.28571428571428</ele><time>2026-04-11T12:37:11Z</time></trkpt><trkpt lat="43.01686018602151" lon="11.43492624794892"><ele>249.57142857142856</ele><time>2026-04-11T12:37:15Z</time></trkpt><trkpt lat="43.01683584419596" lon="11.435009775582161"><ele>249.85714285714283</ele><time>2026-04-11T12:37:19Z</time></trkpt><trkpt lat="43.01681205882784" lon="11.435097794624827"><ele>250.1428571428571</ele><time>2026-04-11T12:37:23Z</time></trkpt><trkpt lat="43.01677839134537" lon="11.435179767791833"><ele>250.42857142857142</ele><time>2026-04-11T12:37:27Z</time></trkpt><trkpt lat="43.016755794551784" lon="11.43528678399161"><ele>250.71428571428567</ele><time>2026-04-11T12:37:31Z</time></trkpt><trkpt lat="43.01673174081892" lon="11.435376031190613"><ele>250.99999999999997</ele><time>2026-04-11T12:37:35Z</time></trkpt><trkpt lat="43.01670340888845" lon="11.435467268326036"><ele>251.4285714285714</ele><time>2026-04-11T12:37:39Z</time></trkpt><trkpt lat="43.016673738170475" lon="11.435548170503855"><ele>251.85714285714283</ele><time>2026-04-11T12:37:43Z</time></trkpt><trkpt lat="43.01664918184556" lon="11.435635016395969"><ele>252.28571428571428</ele><time>2026-04-11T12:37:47Z</time></trkpt><trkpt lat="43.01661180650034" lon="11.435730971464265"><ele>252.7142857142857</ele><time>2026-04-11T12:37:52Z</time></trkpt><trkpt lat="43.016594106699024" lon="11.435823716843242"><ele>253.1428571428571</ele><time>2026-04-11T12:37:56Z</time></trkpt><trkpt lat="43.016566844336026" lon="11.435903822108173"><ele>253.57142857142858</ele><time>2026-04-11T12:38:00Z</time></trkpt><trkpt lat="43.01653712181457" lon="11.435990568481152"><ele>254.0</ele><time>2026-04-11T12:38:04Z</time></trkpt><trkpt lat="43.01651046144722" lon="11.436075742995191"><ele>254.28571428571428</ele><time>2026-04-11T12:38:08Z</time></trkpt><trkpt lat="43.01648932231207" lon="11.436163373091881"><ele>254.57142857142856</ele><time>2026-04-11T12:38:12Z</time></trkpt><trkpt lat="43.01646641862952" lon="11.436266088999975"><ele>254.85714285714283</ele><time>2026-04-11T12:38:17Z</time></trkpt><trkpt lat="43.01643743239009" lon="11.436348521109284"><ele>255.14285714285714</ele><time>2026-04-11T12:38:21Z</time></trkpt><trkpt lat="43.01641230449305" lon="11.436437704426003"><ele>255.4285714285714</ele><time>2026-04-11T12:38:25Z</time></trkpt><trkpt lat="43.016388807983304" lon="11.436517981781225"><ele>255.7142857142857</ele><time>2026-04-11T12:38:29Z</time></trkpt><trkpt lat="43.01636780040141" lon="11.436605454941656"><ele>256.0</ele><time>2026-04-11T12:38:33Z</time></trkpt><trkpt lat="43.01634650642176" lon="11.436704886461488"><ele>256.42857142857144</ele><time>2026-04-11T12:38:38Z</time></trkpt><trkpt lat="43.0163165010903" lon="11.436800879112191"><ele>256.85714285714283</ele><time>2026-04-11T12:38:43Z</time></trkpt><trkpt lat="43.016282752144356" lon="11.436892056585448"><ele>257.2857142857143</ele><time>2026-04-11T12:38:48Z</time></trkpt><trkpt lat="43.01625222709357" lon="11.436989898413756"><ele>257.7142857142857</ele><time>2026-04-11T12:38:53Z</time></trkpt><trkpt lat="43.0162303528198" lon="11.437089069114242"><ele>258.1428571428571</ele><time>2026-04-11T12:38:58Z</time></trkpt><trkpt lat="43.01620133936092" lon="11.437182881026173"><ele>258.57142857142856</ele><time>2026-04-11T12:39:03Z</time></trkpt><trkpt lat="43.01617249564458" lon="11.43725995268687"><ele>259.0</ele><time>2026-04-11T12:39:07Z</time></trkpt><trkpt lat="43.01614474921168" lon="11.437355771290425"><ele>259.85714285714283</ele><time>2026-04-11T12:39:12Z</time></trkpt><trkpt lat="43.01611517463215" lon="11.43745406321528"><ele>260.7142857142857</ele><time>2026-04-11T12:39:17Z</time></trkpt><trkpt lat="43.016090790736385" lon="11.437551732897093"><ele>261.57142857142856</ele><time>2026-04-11T12:39:22Z</time></trkpt><trkpt lat="43.016069235846544" lon="11.437635298932154"><ele>262.42857142857144</ele><time>2026-04-11T12:39:26Z</time></trkpt><trkpt lat="43.016046778361925" lon="11.437733626874738"><ele>263.2857142857143</ele><time>2026-04-11T12:39:31Z</time></trkpt><trkpt lat="43.01602365089891" lon="11.43782500314189"><ele>264.1428571428571</ele><time>2026-04-11T12:39:36Z</time></trkpt><trkpt lat="43.01598951297095" lon="11.437908704539245"><ele>265.0</ele><time>2026-04-11T12:39:41Z</time></trkpt><trkpt lat="43.01596725751264" lon="11.43802093213316"><ele>265.71428571428567</ele><time>2026-04-11T12:39:46Z</time></trkpt><trkpt lat="43.01593148531097" lon="11.438108747048544"><ele>266.42857142857144</ele><time>2026-04-11T12:39:51Z</time></trkpt><trkpt lat="43.01590798493427" lon="11.43818877551317"><ele>267.1428571428571</ele><time>2026-04-11T12:39:55Z</time></trkpt><trkpt lat="43.015890577405" lon="11.438272582431043"><ele>267.85714285714283</ele><time>2026-04-11T12:39:59Z</time></trkpt><trkpt lat="43.0158651141007" lon="11.43836171227632"><ele>268.57142857142856</ele><time>2026-04-11T12:40:04Z</time></trkpt><trkpt lat="43.01582742427068" lon="11.438446810541647"><ele>269.2857142857143</ele><time>2026-04-11T12:40:09Z</time></trkpt><trkpt lat="43.015796534485254" lon="11.43854248493131"><ele>270.0</ele><time>2026-04-11T12:40:14Z</time></trkpt><trkpt lat="43.01576200699722" lon="11.438635567797762"><ele>270.57142857142856</ele><time>2026-04-11T12:40:19Z</time></trkpt><trkpt lat="43.01572178691645" lon="11.438727154482262"><ele>271.1428571428571</ele><time>2026-04-11T12:40:24Z</time></trkpt><trkpt lat="43.01568025624844" lon="11.438813049465539"><ele>271.7142857142857</ele><time>2026-04-11T12:40:29Z</time></trkpt><trkpt lat="43.01561555912939" lon="11.438843122962702"><ele>272.2857142857143</ele><time>2026-04-11T12:46:25Z</time></trkpt><trkpt lat="43.01560224387572" lon="11.43892972611082"><ele>272.8571428571429</ele><time>2026-04-11T12:46:31Z</time></trkpt><trkpt lat="43.01562549729231" lon="11.439032015480105"><ele>273.42857142857144</ele><time>2026-04-11T12:46:36Z</time></trkpt><trkpt lat="43.01565569005094" lon="11.439133399511551"><ele>274.0</ele><time>2026-04-11T12:46:40Z</time></trkpt><trkpt lat="43.01567764046985" lon="11.439218939747997"><ele>274.5714285714286</ele><time>2026-04-11T12:46:43Z</time></trkpt><trkpt lat="43.01569445018545" lon="11.439303500769329"><ele>275.14285714285717</ele><time>2026-04-11T12:46:46Z</time></trkpt><trkpt lat="43.01571707630061" lon="11.439399136838592"><ele>275.7142857142857</ele><time>2026-04-11T12:46:50Z</time></trkpt><trkpt lat="43.01573658161135" lon="11.439489682538023"><ele>276.28571428571433</ele><time>2026-04-11T12:46:54Z</time></trkpt><trkpt lat="43.01575433982473" lon="11.439573219698538"><ele>276.8571428571429</ele><time>2026-04-11T12:46:58Z</time></trkpt><trkpt lat="43.01578305998377" lon="11.439652196317793"><ele>277.42857142857144</ele><time>2026-04-11T12:47:01Z</time></trkpt><trkpt lat="43.01580254695084" lon="11.439755911806111"><ele>278.0</ele><time>2026-04-11T12:47:06Z</time></trkpt><trkpt lat="43.01582547675027" lon="11.439847588422719"><ele>278.7142857142857</ele><time>2026-04-11T12:47:11Z</time></trkpt><trkpt lat="43.01585300706137" lon="11.43994620932684"><ele>279.42857142857144</ele><time>2026-04-11T12:47:16Z</time></trkpt><trkpt lat="43.015877749531334" lon="11.440027197997184"><ele>280.14285714285717</ele><time>2026-04-11T12:47:21Z</time></trkpt><trkpt lat="43.01591128034511" lon="11.440116373122175"><ele>280.8571428571429</ele><time>2026-04-11T12:47:27Z</time></trkpt><trkpt lat="43.01593239394555" lon="11.440199197685768"><ele>281.5714285714286</ele><time>2026-04-11T12:47:33Z</time></trkpt><trkpt lat="43.01596358218369" lon="11.440274731429318"><ele>282.2857142857143</ele><time>2026-04-11T12:47:39Z</time></trkpt><trkpt lat="43.015989354312055" lon="11.440357270085766"><ele>283.0</ele><time>2026-04-11T12:47:45Z</time></trkpt><trkpt lat="43.016022490381054" lon="11.44043471144387"><ele>284.0</ele><time>2026-04-11T12:47:52Z</time></trkpt><trkpt lat="43.01606032553668" lon="11.440519897267583"><ele>285.0</ele><time>2026-04-11T12:47:59Z</time></trkpt><trkpt lat="43.01608618290441" lon="11.44060721919682"><ele>286.0</ele><time>2026-04-11T12:48:05Z</time></trkpt><trkpt lat="43.01611941755015" lon="11.440691361666365"><ele>287.0</ele><time>2026-04-11T12:48:11Z</time></trkpt><trkpt lat="43.016154516082366" lon="11.440766760128026"><ele>288.0</ele><time>2026-04-11T12:48:16Z</time></trkpt><trkpt lat="43.01619215961963" lon="11.440840393917428"><ele>289.0</ele><time>2026-04-11T12:48:21Z</time></trkpt><trkpt lat="43.016225757285184" lon="11.440913269393036"><ele>290.0</ele><time>2026-04-11T12:48:25Z</time></trkpt><trkpt lat="43.016262170885106" lon="11.440988189257947"><ele>290.0</ele><time>2026-04-11T12:48:29Z</time></trkpt><trkpt lat="43.016312021954136" lon="11.441065829926151"><ele>290.0</ele><time>2026-04-11T12:48:33Z</time></trkpt><trkpt lat="43.016368739948014" lon="11.441147077176407"><ele>290.0</ele><time>2026-04-11T12:48:38Z</time></trkpt><trkpt lat="43.01643411801681" lon="11.441216683358563"><ele>290.0</ele><time>2026-04-11T12:48:42Z</time></trkpt><trkpt lat="43.0164916532627" lon="11.441262931010627"><ele>290.0</ele><time>2026-04-11T12:48:45Z</time></trkpt><trkpt lat="43.01655392886902" lon="11.441308259002513"><ele>290.0</ele><time>2026-04-11T12:48:48Z</time></trkpt><trkpt lat="43.01661681634191" lon="11.44134998928048"><ele>290.0</ele><time>2026-04-11T12:48:51Z</time></trkpt><trkpt lat="43.01667413349274" lon="11.44138831187336"><ele>290.7142857142857</ele><time>2026-04-11T12:48:54Z</time></trkpt><trkpt lat="43.01674254971467" lon="11.44143283107027"><ele>291.42857142857144</ele><time>2026-04-11T12:48:57Z</time></trkpt><trkpt lat="43.01681091571896" lon="11.441478632804754"><ele>292.14285714285717</ele><time>2026-04-11T12:49:01Z</time></trkpt><trkpt lat="43.01686973267" lon="11.441516395323173"><ele>292.8571428571429</ele><time>2026-04-11T12:49:04Z</time></trkpt><trkpt lat="43.01693465146888" lon="11.441557422274622"><ele>293.57142857142856</ele><time>2026-04-11T12:49:08Z</time></trkpt><trkpt lat="43.01700291262359" lon="11.44159973160203"><ele>294.28571428571433</ele><time>2026-04-11T12:49:11Z</time></trkpt><trkpt lat="43.017072017327635" lon="11.441654882212601"><ele>295.0</ele><time>2026-04-11T12:49:15Z</time></trkpt><trkpt lat="43.01713137641814" lon="11.441689969427392"><ele>295.00000000000006</ele><time>2026-04-11T12:49:18Z</time></trkpt><trkpt lat="43.01719009209265" lon="11.441726264754937"><ele>295.0</ele><time>2026-04-11T12:49:21Z</time></trkpt><trkpt lat="43.017242490256535" lon="11.441775043509422"><ele>295.0</ele><time>2026-04-11T12:49:24Z</time></trkpt><trkpt lat="43.017297730972366" lon="11.4418178734055"><ele>295.0</ele><time>2026-04-11T12:49:27Z</time></trkpt><trkpt lat="43.01736812569542" lon="11.441876274012719"><ele>295.0</ele><time>2026-04-11T12:49:31Z</time></trkpt><trkpt lat="43.01742623535185" lon="11.441917579907425"><ele>295.00000000000006</ele><time>2026-04-11T12:49:34Z</time></trkpt><trkpt lat="43.017482634241055" lon="11.44196521058434"><ele>295.0</ele><time>2026-04-11T12:49:37Z</time></trkpt><trkpt lat="43.017542442236646" lon="11.442011378685454"><ele>295.28571428571433</ele><time>2026-04-11T12:49:40Z</time></trkpt><trkpt lat="43.017602983545714" lon="11.442057036052969"><ele>295.57142857142856</ele><time>2026-04-11T12:49:43Z</time></trkpt><trkpt lat="43.01765777754985" lon="11.44211446902592"><ele>295.8571428571429</ele><time>2026-04-11T12:49:46Z</time></trkpt><trkpt lat="43.01773278503795" lon="11.442183689138433"><ele>296.14285714285717</ele><time>2026-04-11T12:49:50Z</time></trkpt><trkpt lat="43.017792344412634" lon="11.442239609731912"><ele>296.42857142857144</ele><time>2026-04-11T12:49:53Z</time></trkpt><trkpt lat="43.01784452099111" lon="11.44229567034684"><ele>296.7142857142857</ele><time>2026-04-11T12:49:56Z</time></trkpt><trkpt lat="43.01790013217486" lon="11.442348042486609"><ele>297.0</ele><time>2026-04-11T12:49:59Z</time></trkpt><trkpt lat="43.01795103070095" lon="11.442402556839754"><ele>297.42857142857144</ele><time>2026-04-11T12:50:02.001Z</time></trkpt><trkpt lat="43.01799972971736" lon="11.442461751203542"><ele>297.8571428571429</ele><time>2026-04-11T12:50:05.001Z</time></trkpt><trkpt lat="43.01804998592918" lon="11.442518622286086"><ele>298.2857142857143</ele><time>2026-04-11T12:50:08.001Z</time></trkpt><trkpt lat="43.01811396179663" lon="11.442589960221301"><ele>298.7142857142857</ele><time>2026-04-11T12:50:12.001Z</time></trkpt><trkpt lat="43.01816439200207" lon="11.442648578189091"><ele>299.1428571428571</ele><time>2026-04-11T12:50:15.001Z</time></trkpt><trkpt lat="43.0182205427091" lon="11.442716678011173"><ele>299.57142857142856</ele><time>2026-04-11T12:50:19.001Z</time></trkpt><trkpt lat="43.01827910028155" lon="11.442789572107849"><ele>300.0</ele><time>2026-04-11T12:50:23.001Z</time></trkpt><trkpt lat="43.018329936820955" lon="11.44284372192054"><ele>300.0</ele><time>2026-04-11T12:50:26Z</time></trkpt><trkpt lat="43.0183936087488" lon="11.442916696183534"><ele>300.0</ele><time>2026-04-11T12:50:30Z</time></trkpt><trkpt lat="43.018440954800916" lon="11.44298075972205"><ele>300.0</ele><time>2026-04-11T12:50:32Z</time></trkpt><trkpt lat="43.01848900341587" lon="11.443042064110443"><ele>300.0</ele><time>2026-04-11T12:50:35Z</time></trkpt><trkpt lat="43.01854264115263" lon="11.443116494448622"><ele>300.0</ele><time>2026-04-11T12:50:39Z</time></trkpt><trkpt lat="43.01860114388499" lon="11.443203016456222"><ele>300.0</ele><time>2026-04-11T12:50:43Z</time></trkpt><trkpt lat="43.01865790097535" lon="11.443296672557786"><ele>300.1666666666667</ele><time>2026-04-11T12:50:47Z</time></trkpt><trkpt lat="43.01870290027971" lon="11.44339477094662"><ele>300.3333333333333</ele><time>2026-04-11T12:50:50Z</time></trkpt><trkpt lat="43.01874980119788" lon="11.44350534531055"><ele>300.5</ele><time>2026-04-11T12:50:53Z</time></trkpt><trkpt lat="43.01878610556711" lon="11.443583575057607"><ele>300.66666666666663</ele><time>2026-04-11T12:50:55Z</time></trkpt><trkpt lat="43.01882590303243" lon="11.4436664086289"><ele>300.8333333333333</ele><time>2026-04-11T12:50:57Z</time></trkpt><trkpt lat="43.018858500963354" lon="11.443754570176086"><ele>301.0</ele><time>2026-04-11T12:50:59Z</time></trkpt><trkpt lat="43.01889763764557" lon="11.44384833266144"><ele>300.16666666666663</ele><time>2026-04-11T12:51:01Z</time></trkpt><trkpt lat="43.01893928705913" lon="11.443944846652215"><ele>299.3333333333333</ele><time>2026-04-11T12:51:03Z</time></trkpt><trkpt lat="43.018979794875" lon="11.444038927150347"><ele>298.5</ele><time>2026-04-11T12:51:05Z</time></trkpt><trkpt lat="43.01901658298378" lon="11.444134946610163"><ele>297.6666666666667</ele><time>2026-04-11T12:51:07Z</time></trkpt><trkpt lat="43.01905587529077" lon="11.444222184477194"><ele>296.83333333333337</ele><time>2026-04-11T12:51:09Z</time></trkpt><trkpt lat="43.01909005290838" lon="11.444312400498111"><ele>296.0</ele><time>2026-04-11T12:51:11Z</time></trkpt><trkpt lat="43.01913862359935" lon="11.444435757518795"><ele>297.0</ele><time>2026-04-11T12:51:13Z</time></trkpt><trkpt lat="43.01917198455415" lon="11.444535802527678"><ele>298.0</ele><time>2026-04-11T12:51:15Z</time></trkpt><trkpt lat="43.01920579888331" lon="11.444640121443319"><ele>299.0</ele><time>2026-04-11T12:51:17Z</time></trkpt><trkpt lat="43.01923883808208" lon="11.44474721548063"><ele>300.0</ele><time>2026-04-11T12:51:19Z</time></trkpt><trkpt lat="43.01927876373459" lon="11.444857037731495"><ele>301.0</ele><time>2026-04-11T12:51:21Z</time></trkpt><trkpt lat="43.01930735209657" lon="11.444969448328868"><ele>302.0</ele><time>2026-04-11T12:51:23Z</time></trkpt><trkpt lat="43.01932513351822" lon="11.445094351063357"><ele>302.0</ele><time>2026-04-11T12:51:25Z</time></trkpt><trkpt lat="43.01934410299924" lon="11.445209662907827"><ele>302.0</ele><time>2026-04-11T12:51:27Z</time></trkpt><trkpt lat="43.019353122121714" lon="11.445330452851971"><ele>302.0</ele><time>2026-04-11T12:51:29Z</time></trkpt><trkpt lat="43.01934994325382" lon="11.445463416005754"><ele>302.0</ele><time>2026-04-11T12:51:31Z</time></trkpt><trkpt lat="43.01935585106322" lon="11.445606610509012"><ele>302.0</ele><time>2026-04-11T12:51:33Z</time></trkpt><trkpt lat="43.01935359526248" lon="11.445744280614546"><ele>301.5</ele><time>2026-04-11T12:51:35Z</time></trkpt><trkpt lat="43.01935411619039" lon="11.445860623444167"><ele>301.0</ele><time>2026-04-11T12:51:37Z</time></trkpt><trkpt lat="43.019355244345206" lon="11.445959150387951"><ele>300.5</ele><time>2026-04-11T12:51:39Z</time></trkpt><trkpt lat="43.01936144185114" lon="11.446065270200762"><ele>300.0</ele><time>2026-04-11T12:51:42Z</time></trkpt><trkpt lat="43.01936842416285" lon="11.446166766191162"><ele>299.5</ele><time>2026-04-11T12:51:46Z</time></trkpt><trkpt lat="43.01937693759521" lon="11.446260874366333"><ele>299.0</ele><time>2026-04-11T12:51:50Z</time></trkpt><trkpt lat="43.019382883287136" lon="11.446367079063679"><ele>300.2857142857143</ele><time>2026-04-11T12:51:55Z</time></trkpt><trkpt lat="43.01939518712772" lon="11.446463950340155"><ele>301.57142857142856</ele><time>2026-04-11T12:52:00Z</time></trkpt><trkpt lat="43.01940921683057" lon="11.446556314616634"><ele>302.8571428571429</ele><time>2026-04-11T12:52:05Z</time></trkpt><trkpt lat="43.01941851574653" lon="11.446642271749246"><ele>304.1428571428571</ele><time>2026-04-11T12:52:10.001Z</time></trkpt><trkpt lat="43.01942951554128" lon="11.446727563505538"><ele>305.42857142857144</ele><time>2026-04-11T12:52:15.001Z</time></trkpt><trkpt lat="43.0194461536967" lon="11.446826926669631"><ele>306.7142857142857</ele><time>2026-04-11T12:52:21.001Z</time></trkpt><trkpt lat="43.01945483578213" lon="11.446914178452708"><ele>308.0</ele><time>2026-04-11T12:52:26Z</time></trkpt><trkpt lat="43.019469992063016" lon="11.446998883722161"><ele>308.0</ele><time>2026-04-11T12:52:31Z</time></trkpt><trkpt lat="43.019481228991445" lon="11.447085757324286"><ele>308.0</ele><time>2026-04-11T12:52:36Z</time></trkpt><trkpt lat="43.019497870337204" lon="11.447177938412635"><ele>308.0</ele><time>2026-04-11T12:52:42Z</time></trkpt><trkpt lat="43.01951251720777" lon="11.44726684180047"><ele>308.0</ele><time>2026-04-11T12:52:47Z</time></trkpt><trkpt lat="43.0195264266422" lon="11.447365693057215"><ele>308.0</ele><time>2026-04-11T12:52:53Z</time></trkpt><trkpt lat="43.019541038585295" lon="11.447453471261184"><ele>308.0</ele><time>2026-04-11T12:52:59Z</time></trkpt><trkpt lat="43.01954475520755" lon="11.447544439423734"><ele>308.0</ele><time>2026-04-11T12:53:05Z</time></trkpt><trkpt lat="43.01956743611585" lon="11.447635694304584"><ele>309.57142857142856</ele><time>2026-04-11T12:53:11Z</time></trkpt><trkpt lat="43.019583771862195" lon="11.447732279359562"><ele>311.1428571428571</ele><time>2026-04-11T12:53:18Z</time></trkpt><trkpt lat="43.01960453767078" lon="11.447823575386051"><ele>312.7142857142857</ele><time>2026-04-11T12:53:25Z</time></trkpt><trkpt lat="43.01961636978452" lon="11.447910290321305"><ele>314.2857142857143</ele><time>2026-04-11T12:53:31Z</time></trkpt><trkpt lat="43.01964306732932" lon="11.448002671440035"><ele>315.85714285714283</ele><time>2026-04-11T12:53:38Z</time></trkpt><trkpt lat="43.01966096003923" lon="11.44809804302492"><ele>317.42857142857144</ele><time>2026-04-11T12:53:45Z</time></trkpt><trkpt lat="43.01968745171375" lon="11.448192745441734"><ele>319.0</ele><time>2026-04-11T12:53:51Z</time></trkpt><trkpt lat="43.019710129622" lon="11.448274678487001"><ele>319.7142857142857</ele><time>2026-04-11T12:53:56Z</time></trkpt><trkpt lat="43.01973386409142" lon="11.448373019132802"><ele>320.4285714285714</ele><time>2026-04-11T12:54:02Z</time></trkpt><trkpt lat="43.01976315136795" lon="11.448455818370313"><ele>321.1428571428571</ele><time>2026-04-11T12:54:08Z</time></trkpt><trkpt lat="43.019792819559896" lon="11.448540445808959"><ele>321.8571428571429</ele><time>2026-04-11T12:54:14.001Z</time></trkpt><trkpt lat="43.019821036579245" lon="11.4486328405999"><ele>322.57142857142856</ele><time>2026-04-11T12:54:20.001Z</time></trkpt><trkpt lat="43.019857810641355" lon="11.44871638295665"><ele>323.2857142857143</ele><time>2026-04-11T12:54:27Z</time></trkpt><trkpt lat="43.01988994473499" lon="11.448802059910214"><ele>324.0</ele><time>2026-04-11T12:54:34Z</time></trkpt><trkpt lat="43.019920441755914" lon="11.44887958655447"><ele>324.57142857142856</ele><time>2026-04-11T12:54:41Z</time></trkpt><trkpt lat="43.01995718577961" lon="11.44896662873752"><ele>325.1428571428571</ele><time>2026-04-11T12:54:48Z</time></trkpt><trkpt lat="43.02000093717148" lon="11.4490440990846"><ele>325.71428571428567</ele><time>2026-04-11T12:54:55Z</time></trkpt><trkpt lat="43.020031735265746" lon="11.44913324406746"><ele>326.2857142857143</ele><time>2026-04-11T12:55:01Z</time></trkpt><trkpt lat="43.02006860692498" lon="11.44921434657541"><ele>326.85714285714283</ele><time>2026-04-11T12:55:07Z</time></trkpt><trkpt lat="43.02010135140504" lon="11.449303284593602"><ele>327.4285714285714</ele><time>2026-04-11T12:55:13Z</time></trkpt><trkpt lat="43.02013986317377" lon="11.449376559709563"><ele>328.0</ele><time>2026-04-11T12:55:19Z</time></trkpt><trkpt lat="43.020181283722984" lon="11.449450251182974"><ele>328.4285714285714</ele><time>2026-04-11T12:55:25Z</time></trkpt><trkpt lat="43.020214603330956" lon="11.449532933189603"><ele>328.85714285714283</ele><time>2026-04-11T12:55:31Z</time></trkpt><trkpt lat="43.020247009581" lon="11.449624901090608"><ele>329.2857142857143</ele><time>2026-04-11T12:55:37Z</time></trkpt><trkpt lat="43.02028814469206" lon="11.449714766130281"><ele>329.71428571428567</ele><time>2026-04-11T12:55:43Z</time></trkpt><trkpt lat="43.020325497294785" lon="11.449795985873582"><ele>330.1428571428571</ele><time>2026-04-11T12:55:48Z</time></trkpt><trkpt lat="43.020363449419754" lon="11.449880045068124"><ele>330.57142857142856</ele><time>2026-04-11T12:55:53Z</time></trkpt><trkpt lat="43.020399499784915" lon="11.44996901099304"><ele>331.0</ele><time>2026-04-11T12:55:58Z</time></trkpt><trkpt lat="43.02043193719002" lon="11.450045897379763"><ele>331.42857142857144</ele><time>2026-04-11T12:56:03Z</time></trkpt><trkpt lat="43.02046822440786" lon="11.450130325925205"><ele>331.85714285714283</ele><time>2026-04-11T12:56:08Z</time></trkpt><trkpt lat="43.02050444383554" lon="11.450223059324419"><ele>332.2857142857143</ele><time>2026-04-11T12:56:14Z</time></trkpt><trkpt lat="43.020535412916246" lon="11.4503097046741"><ele>332.7142857142857</ele><time>2026-04-11T12:56:19Z</time></trkpt><trkpt lat="43.02056826560759" lon="11.45039623042289"><ele>333.14285714285717</ele><time>2026-04-11T12:56:25Z</time></trkpt><trkpt lat="43.02060346132769" lon="11.45047118569644"><ele>333.57142857142856</ele><time>2026-04-11T12:56:31Z</time></trkpt><trkpt lat="43.02063191997478" lon="11.450551614457694"><ele>334.0</ele><time>2026-04-11T12:56:36Z</time></trkpt><trkpt lat="43.02065699937588" lon="11.450634368124843"><ele>334.57142857142856</ele><time>2026-04-11T12:56:41Z</time></trkpt><trkpt lat="43.020680575697185" lon="11.450714462684399"><ele>335.14285714285717</ele><time>2026-04-11T12:56:46Z</time></trkpt><trkpt lat="43.02070700656119" lon="11.450792722626742"><ele>335.7142857142857</ele><time>2026-04-11T12:56:51Z</time></trkpt><trkpt lat="43.02073701965684" lon="11.450881059228092"><ele>336.2857142857143</ele><time>2026-04-11T12:56:57Z</time></trkpt><trkpt lat="43.020772170002495" lon="11.45096888914903"><ele>336.85714285714283</ele><time>2026-04-11T12:57:03Z</time></trkpt><trkpt lat="43.02079996219198" lon="11.451049641311835"><ele>337.42857142857144</ele><time>2026-04-11T12:57:08Z</time></trkpt><trkpt lat="43.02082464936196" lon="11.451145609374537"><ele>338.0</ele><time>2026-04-11T12:57:14Z</time></trkpt><trkpt lat="43.02084899906008" lon="11.451225328358088"><ele>339.42857142857144</ele><time>2026-04-11T12:58:04Z</time></trkpt><trkpt lat="43.020878330946985" lon="11.45131088967709"><ele>340.85714285714283</ele><time>2026-04-11T12:58:12Z</time></trkpt><trkpt lat="43.02090379950152" lon="11.451399808693752"><ele>342.2857142857143</ele><time>2026-04-11T12:58:20Z</time></trkpt><trkpt lat="43.02093163477888" lon="11.451491777614274"><ele>343.7142857142857</ele><time>2026-04-11T12:58:28Z</time></trkpt><trkpt lat="43.020957433163765" lon="11.451582483722403"><ele>345.14285714285717</ele><time>2026-04-11T12:58:35Z</time></trkpt><trkpt lat="43.02098711451158" lon="11.451664685970417"><ele>346.57142857142856</ele><time>2026-04-11T12:58:42Z</time></trkpt><trkpt lat="43.02101171431152" lon="11.451751586900512"><ele>348.0</ele><time>2026-04-11T12:58:49Z</time></trkpt><trkpt lat="43.02104024504721" lon="11.451839781714781"><ele>348.0</ele><time>2026-04-11T12:58:56Z</time></trkpt><trkpt lat="43.02107038847233" lon="11.451928286981428"><ele>348.0</ele><time>2026-04-11T12:59:03Z</time></trkpt><trkpt lat="43.02109366605952" lon="11.452020418346786"><ele>348.0</ele><time>2026-04-11T12:59:10Z</time></trkpt><trkpt lat="43.021121823522655" lon="11.452107611531007"><ele>348.0</ele><time>2026-04-11T12:59:17Z</time></trkpt><trkpt lat="43.02114662587835" lon="11.452192942844425"><ele>348.0</ele><time>2026-04-11T12:59:24Z</time></trkpt><trkpt lat="43.02117389551129" lon="11.452280147005483"><ele>348.0</ele><time>2026-04-11T12:59:32Z</time></trkpt><trkpt lat="43.0211987275599" lon="11.452370196822832"><ele>348.0</ele><time>2026-04-11T12:59:40Z</time></trkpt><trkpt lat="43.021224833109336" lon="11.452458787449789"><ele>349.2857142857143</ele><time>2026-04-11T12:59:48Z</time></trkpt><trkpt lat="43.02125316318502" lon="11.452541731844924"><ele>350.57142857142856</ele><time>2026-04-11T12:59:56Z</time></trkpt><trkpt lat="43.02128245050671" lon="11.45262562053952"><ele>351.8571428571429</ele><time>2026-04-11T13:00:04Z</time></trkpt><trkpt lat="43.021308506112476" lon="11.452704130489424"><ele>353.1428571428571</ele><time>2026-04-11T13:00:10Z</time></trkpt><trkpt lat="43.02133979683921" lon="11.452790035819694"><ele>354.42857142857144</ele><time>2026-04-11T13:00:18Z</time></trkpt><trkpt lat="43.02136936471942" lon="11.452871812151724"><ele>355.7142857142857</ele><time>2026-04-11T13:00:26Z</time></trkpt><trkpt lat="43.021401151472794" lon="11.452952821494247"><ele>357.0</ele><time>2026-04-11T13:00:33Z</time></trkpt><trkpt lat="43.021440654529854" lon="11.453028790671818"><ele>358.14285714285717</ele><time>2026-04-11T13:00:41Z</time></trkpt><trkpt lat="43.021479559614875" lon="11.453100590215564"><ele>359.2857142857143</ele><time>2026-04-11T13:00:48Z</time></trkpt><trkpt lat="43.021521103149794" lon="11.453165308235356"><ele>360.42857142857144</ele><time>2026-04-11T13:00:55Z</time></trkpt><trkpt lat="43.02157169657792" lon="11.453230801980729"><ele>361.57142857142856</ele><time>2026-04-11T13:01:03Z</time></trkpt><trkpt lat="43.02162450512069" lon="11.45328754305935"><ele>362.7142857142857</ele><time>2026-04-11T13:01:11Z</time></trkpt><trkpt lat="43.02167685208073" lon="11.453339453973205"><ele>363.8571428571429</ele><time>2026-04-11T13:01:18Z</time></trkpt><trkpt lat="43.021733639813036" lon="11.453388942272257"><ele>365.0</ele><time>2026-04-11T13:01:25Z</time></trkpt><trkpt lat="43.02178741322716" lon="11.453434928278426"><ele>366.00000000000006</ele><time>2026-04-11T13:01:32Z</time></trkpt><trkpt lat="43.02184944306564" lon="11.453479995003367"><ele>367.0</ele><time>2026-04-11T13:01:40Z</time></trkpt><trkpt lat="43.02190670662911" lon="11.453524057317447"><ele>368.0</ele><time>2026-04-11T13:01:48Z</time></trkpt><trkpt lat="43.02196545294106" lon="11.453569337785682"><ele>369.0</ele><time>2026-04-11T13:01:56Z</time></trkpt><trkpt lat="43.02202658728278" lon="11.45360797527409"><ele>370.0</ele><time>2026-04-11T13:02:03Z</time></trkpt><trkpt lat="43.02208318264472" lon="11.453646244360923"><ele>371.00000000000006</ele><time>2026-04-11T13:02:10Z</time></trkpt><trkpt lat="43.022141076219974" lon="11.453687000636465"><ele>372.0</ele><time>2026-04-11T13:02:17Z</time></trkpt><trkpt lat="43.022197745642266" lon="11.453728983731331"><ele>372.00000000000006</ele><time>2026-04-11T13:02:24Z</time></trkpt><trkpt lat="43.022257594592666" lon="11.453775641006665"><ele>372.0</ele><time>2026-04-11T13:02:32Z</time></trkpt><trkpt lat="43.02231757854643" lon="11.453823405410581"><ele>372.0</ele><time>2026-04-11T13:02:40Z</time></trkpt><trkpt lat="43.02236852241665" lon="11.453874167299851"><ele>372.0</ele><time>2026-04-11T13:02:47Z</time></trkpt><trkpt lat="43.0224213794313" lon="11.453922118495433"><ele>372.0</ele><time>2026-04-11T13:02:54Z</time></trkpt><trkpt lat="43.022474118603306" lon="11.453971886705315"><ele>372.00000000000006</ele><time>2026-04-11T13:03:01Z</time></trkpt><trkpt lat="43.0225244120973" lon="11.454033389539376"><ele>372.0</ele><time>2026-04-11T13:03:08Z</time></trkpt><trkpt lat="43.02257750391291" lon="11.454092882791542"><ele>373.7142857142857</ele><time>2026-04-11T13:03:15Z</time></trkpt><trkpt lat="43.0226293827724" lon="11.454160605928646"><ele>375.42857142857144</ele><time>2026-04-11T13:03:27Z</time></trkpt><trkpt lat="43.022678923952085" lon="11.454225751754443"><ele>377.1428571428571</ele><time>2026-04-11T13:03:35Z</time></trkpt><trkpt lat="43.022723410961035" lon="11.454290771246427"><ele>378.8571428571429</ele><time>2026-04-11T13:03:42Z</time></trkpt><trkpt lat="43.022772367892806" lon="11.454357954468893"><ele>380.57142857142856</ele><time>2026-04-11T13:03:49Z</time></trkpt><trkpt lat="43.0228218206734" lon="11.454426327339842"><ele>382.2857142857143</ele><time>2026-04-11T13:03:57Z</time></trkpt><trkpt lat="43.02286499890058" lon="11.454495955870078"><ele>384.0</ele><time>2026-04-11T13:04:04Z</time></trkpt><trkpt lat="43.022916861179134" lon="11.454563612866933"><ele>385.57142857142856</ele><time>2026-04-11T13:04:12Z</time></trkpt><trkpt lat="43.02295867674622" lon="11.4546364656272"><ele>387.1428571428571</ele><time>2026-04-11T13:04:20Z</time></trkpt><trkpt lat="43.0230058994173" lon="11.454705673365426"><ele>388.71428571428567</ele><time>2026-04-11T13:04:28Z</time></trkpt><trkpt lat="43.023051543546124" lon="11.454770613306337"><ele>390.2857142857143</ele><time>2026-04-11T13:04:35Z</time></trkpt><trkpt lat="43.02309335069686" lon="11.454835789749742"><ele>391.8571428571429</ele><time>2026-04-11T13:04:42Z</time></trkpt><trkpt lat="43.02313898395529" lon="11.454908395765726"><ele>393.4285714285714</ele><time>2026-04-11T13:04:50Z</time></trkpt><trkpt lat="43.02318052295951" lon="11.454974510309944"><ele>395.0</ele><time>2026-04-11T13:04:57Z</time></trkpt><trkpt lat="43.023227087921036" lon="11.455048293665731"><ele>395.0</ele><time>2026-04-11T13:05:05Z</time></trkpt><trkpt lat="43.023275236697685" lon="11.455115660219647"><ele>395.0</ele><time>2026-04-11T13:05:13Z</time></trkpt><trkpt lat="43.02331539159312" lon="11.455186731872141"><ele>395.0</ele><time>2026-04-11T13:05:20Z</time></trkpt><trkpt lat="43.02335705129151" lon="11.45525167527766"><ele>395.0</ele><time>2026-04-11T13:05:27Z</time></trkpt><trkpt lat="43.02339433331925" lon="11.455322669934993"><ele>395.0</ele><time>2026-04-11T13:05:35Z</time></trkpt><trkpt lat="43.0234353865398" lon="11.455390894315618"><ele>395.0</ele><time>2026-04-11T13:05:42Z</time></trkpt><trkpt lat="43.02347419510039" lon="11.455469424981155"><ele>395.0</ele><time>2026-04-11T13:05:50Z</time></trkpt><trkpt lat="43.02350638333782" lon="11.455547283317753"><ele>395.85714285714283</ele><time>2026-04-11T13:05:57Z</time></trkpt><trkpt lat="43.02353578804765" lon="11.455625936277022"><ele>396.7142857142857</ele><time>2026-04-11T13:06:05Z</time></trkpt><trkpt lat="43.02356379714574" lon="11.45570370149884"><ele>397.57142857142856</ele><time>2026-04-11T13:06:12Z</time></trkpt><trkpt lat="43.02359465163902" lon="11.455786305231042"><ele>398.42857142857144</ele><time>2026-04-11T13:06:20Z</time></trkpt><trkpt lat="43.02362670916654" lon="11.455870859538303"><ele>399.28571428571433</ele><time>2026-04-11T13:06:28Z</time></trkpt><trkpt lat="43.023652279771504" lon="11.455955847677654"><ele>400.14285714285717</ele><time>2026-04-11T13:06:36Z</time></trkpt><trkpt lat="43.02368379990375" lon="11.456041771891188"><ele>401.0</ele><time>2026-04-11T13:07:43Z</time></trkpt><trkpt lat="43.02370655008141" lon="11.456133092855632"><ele>401.0</ele><time>2026-04-11T13:07:50Z</time></trkpt><trkpt lat="43.02373340937391" lon="11.456220032365458"><ele>401.0</ele><time>2026-04-11T13:07:55Z</time></trkpt><trkpt lat="43.0237680408282" lon="11.456299998827673"><ele>401.0</ele><time>2026-04-11T13:08:01Z</time></trkpt><trkpt lat="43.023798736479435" lon="11.456375199524198"><ele>401.0</ele><time>2026-04-11T13:08:07Z</time></trkpt><trkpt lat="43.023822170520376" lon="11.456455335296187"><ele>401.0</ele><time>2026-04-11T13:08:12Z</time></trkpt><trkpt lat="43.02386193674241" lon="11.456526136894123"><ele>401.0</ele><time>2026-04-11T13:08:18Z</time></trkpt><trkpt lat="43.023903143976696" lon="11.456598243624388"><ele>401.0</ele><time>2026-04-11T13:08:24Z</time></trkpt><trkpt lat="43.023951975649666" lon="11.456673775821972"><ele>400.7142857142857</ele><time>2026-04-11T13:08:31Z</time></trkpt><trkpt lat="43.02399246087912" lon="11.45674887109907"><ele>400.42857142857144</ele><time>2026-04-11T13:08:37Z</time></trkpt><trkpt lat="43.02403248510063" lon="11.456821258005442"><ele>400.1428571428571</ele><time>2026-04-11T13:08:43Z</time></trkpt><trkpt lat="43.024072754063035" lon="11.456891572652822"><ele>399.8571428571429</ele><time>2026-04-11T13:08:49Z</time></trkpt><trkpt lat="43.02411425031544" lon="11.456976105949995"><ele>399.57142857142856</ele><time>2026-04-11T13:08:56Z</time></trkpt><trkpt lat="43.02415611324706" lon="11.457051579354067"><ele>399.2857142857143</ele><time>2026-04-11T13:09:03Z</time></trkpt><trkpt lat="43.02417823360799" lon="11.457143390544697"><ele>399.0</ele><time>2026-04-11T13:09:09Z</time></trkpt><trkpt lat="43.024197976656346" lon="11.457229948905594"><ele>400.42857142857144</ele><time>2026-04-11T13:09:15Z</time></trkpt><trkpt lat="43.02422476044628" lon="11.457310392650836"><ele>401.8571428571429</ele><time>2026-04-11T13:09:21Z</time></trkpt><trkpt lat="43.0242366043888" lon="11.457401674321211"><ele>403.2857142857143</ele><time>2026-04-11T13:09:27Z</time></trkpt><trkpt lat="43.02425383335898" lon="11.457490793645189"><ele>404.7142857142857</ele><time>2026-04-11T13:09:35Z</time></trkpt><trkpt lat="43.02426279665792" lon="11.457589430764717"><ele>406.14285714285717</ele><time>2026-04-11T13:09:42Z</time></trkpt><trkpt lat="43.024275491620315" lon="11.457674678284777"><ele>407.57142857142856</ele><time>2026-04-11T13:09:48Z</time></trkpt><trkpt lat="43.024288026279585" lon="11.457767527386777"><ele>409.0</ele><time>2026-04-11T13:09:55Z</time></trkpt><trkpt lat="43.024301486734274" lon="11.457854193558981"><ele>409.0</ele><time>2026-04-11T13:10:02Z</time></trkpt><trkpt lat="43.024327336623486" lon="11.457940298582532"><ele>409.0</ele><time>2026-04-11T13:10:09Z</time></trkpt><trkpt lat="43.02433719064958" lon="11.458031734168204"><ele>409.0</ele><time>2026-04-11T13:10:16Z</time></trkpt><trkpt lat="43.0243543012108" lon="11.458126698615924"><ele>409.0</ele><time>2026-04-11T13:10:23Z</time></trkpt><trkpt lat="43.024391085614866" lon="11.458203886022341"><ele>409.0</ele><time>2026-04-11T13:10:30Z</time></trkpt><trkpt lat="43.02442017652469" lon="11.458287364518855"><ele>409.0</ele><time>2026-04-11T13:10:37Z</time></trkpt><trkpt lat="43.02445323787279" lon="11.458372864535574"><ele>409.0</ele><time>2026-04-11T13:10:45Z</time></trkpt><trkpt lat="43.02449146877405" lon="11.45844272905491"><ele>409.1428571428571</ele><time>2026-04-11T13:10:52Z</time></trkpt><trkpt lat="43.02452838499005" lon="11.458530189954645"><ele>409.28571428571433</ele><time>2026-04-11T13:10:59Z</time></trkpt><trkpt lat="43.02457094810822" lon="11.458595600525125"><ele>409.42857142857144</ele><time>2026-04-11T13:11:05Z</time></trkpt><trkpt lat="43.02460612927112" lon="11.458669619142944"><ele>409.57142857142856</ele><time>2026-04-11T13:11:11Z</time></trkpt><trkpt lat="43.02465144273845" lon="11.458739482069339"><ele>409.71428571428567</ele><time>2026-04-11T13:11:17Z</time></trkpt><trkpt lat="43.024701052049586" lon="11.458804774089218"><ele>409.8571428571429</ele><time>2026-04-11T13:11:23Z</time></trkpt><trkpt lat="43.02475233303136" lon="11.458874715826889"><ele>410.0</ele><time>2026-04-11T13:11:30Z</time></trkpt><trkpt lat="43.02480489280775" lon="11.458938537115504"><ele>409.7142857142857</ele><time>2026-04-11T13:11:37Z</time></trkpt><trkpt lat="43.0248536558639" lon="11.459010816808984"><ele>409.4285714285714</ele><time>2026-04-11T13:11:44Z</time></trkpt><trkpt lat="43.024907544101445" lon="11.459064508778868"><ele>409.1428571428571</ele><time>2026-04-11T13:11:51Z</time></trkpt><trkpt lat="43.02495731287953" lon="11.459126131293571"><ele>408.8571428571429</ele><time>2026-04-11T13:11:59Z</time></trkpt><trkpt lat="43.02500995807925" lon="11.459179419551253"><ele>408.57142857142856</ele><time>2026-04-11T13:12:07Z</time></trkpt><trkpt lat="43.02506416021037" lon="11.459227738504119"><ele>408.2857142857143</ele><time>2026-04-11T13:12:14Z</time></trkpt><trkpt lat="43.025126104068306" lon="11.459274455660928"><ele>408.0</ele><time>2026-04-11T13:12:22Z</time></trkpt><trkpt lat="43.025175287212654" lon="11.459340843444009"><ele>409.42857142857144</ele><time>2026-04-11T13:12:28Z</time></trkpt><trkpt lat="43.025231251832494" lon="11.459394704152507"><ele>410.8571428571429</ele><time>2026-04-11T13:12:34Z</time></trkpt><trkpt lat="43.0252904881258" lon="11.45944834500624"><ele>412.2857142857143</ele><time>2026-04-11T13:12:41Z</time></trkpt><trkpt lat="43.0253443901371" lon="11.459499427684515"><ele>413.7142857142857</ele><time>2026-04-11T13:12:48Z</time></trkpt><trkpt lat="43.02539406091941" lon="11.459556889485471"><ele>415.1428571428571</ele><time>2026-04-11T13:12:54Z</time></trkpt><trkpt lat="43.0254451404072" lon="11.45960848459187"><ele>416.57142857142856</ele><time>2026-04-11T13:13:00Z</time></trkpt><trkpt lat="43.025499220586816" lon="11.459656405602198"><ele>418.0</ele><time>2026-04-11T13:13:07.001Z</time></trkpt><trkpt lat="43.02555866666202" lon="11.459707905732428"><ele>418.0</ele><time>2026-04-11T13:13:14.001Z</time></trkpt><trkpt lat="43.02561254848083" lon="11.459766514632717"><ele>418.0</ele><time>2026-04-11T13:13:21.001Z</time></trkpt><trkpt lat="43.025678666765565" lon="11.4598039397566"><ele>418.0</ele><time>2026-04-11T13:13:28.001Z</time></trkpt><trkpt lat="43.02572180595903" lon="11.459869326082305"><ele>418.0</ele><time>2026-04-11T13:13:34Z</time></trkpt><trkpt lat="43.025774504860266" lon="11.459922694561783"><ele>418.0</ele><time>2026-04-11T13:13:40Z</time></trkpt><trkpt lat="43.025826040081796" lon="11.4599751949909"><ele>418.0</ele><time>2026-04-11T13:13:49Z</time></trkpt><trkpt lat="43.02587648334694" lon="11.460027019346505"><ele>418.0</ele><time>2026-04-11T13:13:57Z</time></trkpt><trkpt lat="43.0259334768865" lon="11.460090402223532"><ele>421.2857142857143</ele><time>2026-04-11T13:14:07Z</time></trkpt><trkpt lat="43.02598858401772" lon="11.460139507371954"><ele>424.57142857142856</ele><time>2026-04-11T13:14:18Z</time></trkpt><trkpt lat="43.02604339011214" lon="11.460191916989844"><ele>427.8571428571429</ele><time>2026-04-11T13:14:27Z</time></trkpt><trkpt lat="43.026094108969886" lon="11.46024489423296"><ele>431.1428571428571</ele><time>2026-04-11T13:14:35Z</time></trkpt><trkpt lat="43.02614327502577" lon="11.46029991085354"><ele>434.42857142857144</ele><time>2026-04-11T13:14:43Z</time></trkpt><trkpt lat="43.02619287630243" lon="11.4603553324362"><ele>437.7142857142857</ele><time>2026-04-11T13:14:51Z</time></trkpt><trkpt lat="43.02625143018893" lon="11.460413140347132"><ele>441.0</ele><time>2026-04-11T13:14:59Z</time></trkpt><trkpt lat="43.026307885381655" lon="11.460471902123025"><ele>441.14285714285717</ele><time>2026-04-11T13:15:07Z</time></trkpt><trkpt lat="43.02636450498316" lon="11.460528665754481"><ele>441.2857142857143</ele><time>2026-04-11T13:15:16.001Z</time></trkpt><trkpt lat="43.02642006678837" lon="11.460587848932006"><ele>441.42857142857144</ele><time>2026-04-11T13:15:24.001Z</time></trkpt><trkpt lat="43.02647528516874" lon="11.460646891148684"><ele>441.57142857142856</ele><time>2026-04-11T13:15:33.001Z</time></trkpt><trkpt lat="43.02652387624106" lon="11.46070410795379"><ele>441.7142857142857</ele><time>2026-04-11T13:15:42Z</time></trkpt><trkpt lat="43.02657593935173" lon="11.460762400776694"><ele>441.8571428571429</ele><time>2026-04-11T13:15:50Z</time></trkpt><trkpt lat="43.02662541910833" lon="11.460816622914868"><ele>442.0</ele><time>2026-04-11T13:15:58Z</time></trkpt><trkpt lat="43.02667306570615" lon="11.460875381973475"><ele>444.28571428571433</ele><time>2026-04-11T13:16:07Z</time></trkpt><trkpt lat="43.0267287764248" lon="11.46093068294764"><ele>446.57142857142856</ele><time>2026-04-11T13:16:16Z</time></trkpt><trkpt lat="43.02677911471971" lon="11.460989336572077"><ele>448.8571428571429</ele><time>2026-04-11T13:16:25Z</time></trkpt><trkpt lat="43.0268292571634" lon="11.461045662998272"><ele>451.14285714285717</ele><time>2026-04-11T13:16:33Z</time></trkpt><trkpt lat="43.02687765003752" lon="11.46110076363465"><ele>453.42857142857144</ele><time>2026-04-11T13:16:41Z</time></trkpt><trkpt lat="43.02692720355891" lon="11.461156223983048"><ele>455.7142857142857</ele><time>2026-04-11T13:16:49Z</time></trkpt><trkpt lat="43.02698203661236" lon="11.461217783038652"><ele>458.0</ele><time>2026-04-11T13:16:57Z</time></trkpt><trkpt lat="43.02703290939646" lon="11.461276882868082"><ele>458.1428571428571</ele><time>2026-04-11T13:17:06Z</time></trkpt><trkpt lat="43.02708086879912" lon="11.461333280750624"><ele>458.28571428571433</ele><time>2026-04-11T13:17:14Z</time></trkpt><trkpt lat="43.02713639467147" lon="11.461387970432343"><ele>458.42857142857144</ele><time>2026-04-11T13:17:22.001Z</time></trkpt><trkpt lat="43.02718922689433" lon="11.461449450221965"><ele>458.57142857142856</ele><time>2026-04-11T13:17:30.001Z</time></trkpt><trkpt lat="43.02724092606144" lon="11.461501608345774"><ele>458.71428571428567</ele><time>2026-04-11T13:17:38.001Z</time></trkpt><trkpt lat="43.02728983318374" lon="11.461555990143825"><ele>458.8571428571429</ele><time>2026-04-11T13:17:45.001Z</time></trkpt><trkpt lat="43.02734598582392" lon="11.461611943258536"><ele>459.0</ele><time>2026-04-11T13:17:53.001Z</time></trkpt><trkpt lat="43.02739784615323" lon="11.46166675778995"><ele>459.0</ele><time>2026-04-11T13:18:01.001Z</time></trkpt><trkpt lat="43.027447385531346" lon="11.461734156217661"><ele>459.0</ele><time>2026-04-11T13:18:09Z</time></trkpt><trkpt lat="43.02749835633882" lon="11.461785696649201"><ele>459.0</ele><time>2026-04-11T13:18:16Z</time></trkpt><trkpt lat="43.02754379448503" lon="11.461845375490038"><ele>459.0</ele><time>2026-04-11T13:18:23Z</time></trkpt><trkpt lat="43.027594800389735" lon="11.461906342372178"><ele>459.0</ele><time>2026-04-11T13:18:31Z</time></trkpt><trkpt lat="43.02763731947626" lon="11.461973874963395"><ele>459.0</ele><time>2026-04-11T13:18:38Z</time></trkpt><trkpt lat="43.02768411232131" lon="11.462035640675094"><ele>459.0</ele><time>2026-04-11T13:18:45Z</time></trkpt><trkpt lat="43.027727808458444" lon="11.462105668392965"><ele>461.14285714285717</ele><time>2026-04-11T13:18:52Z</time></trkpt><trkpt lat="43.02777064439453" lon="11.462178956836645"><ele>463.2857142857142</ele><time>2026-04-11T13:18:59Z</time></trkpt><trkpt lat="43.02781586169971" lon="11.462254397524765"><ele>465.4285714285714</ele><time>2026-04-11T13:19:06Z</time></trkpt><trkpt lat="43.02785517483798" lon="11.462325949676657"><ele>467.57142857142856</ele><time>2026-04-11T13:19:13Z</time></trkpt><trkpt lat="43.027887062741485" lon="11.462400390452453"><ele>469.71428571428567</ele><time>2026-04-11T13:19:20Z</time></trkpt><trkpt lat="43.02791373027714" lon="11.462478621798581"><ele>471.8571428571428</ele><time>2026-04-11T13:19:27.001Z</time></trkpt><trkpt lat="43.02795242517169" lon="11.462556421049076"><ele>473.99999999999994</ele><time>2026-04-11T13:21:37Z</time></trkpt><trkpt lat="43.02799452890958" lon="11.462630220531748"><ele>473.99999999999994</ele><time>2026-04-11T13:21:42Z</time></trkpt><trkpt lat="43.02802412529619" lon="11.462725507986725"><ele>474.0</ele><time>2026-04-11T13:21:46Z</time></trkpt><trkpt lat="43.02806512194318" lon="11.462796684504353"><ele>473.99999999999994</ele><time>2026-04-11T13:21:50Z</time></trkpt><trkpt lat="43.02809447283258" lon="11.462882751750838"><ele>473.99999999999994</ele><time>2026-04-11T13:21:54Z</time></trkpt><trkpt lat="43.02813104875094" lon="11.462966669354897"><ele>474.0</ele><time>2026-04-11T13:21:58Z</time></trkpt><trkpt lat="43.02816836378085" lon="11.463044320924325"><ele>473.99999999999994</ele><time>2026-04-11T13:22:02Z</time></trkpt><trkpt lat="43.028199921809666" lon="11.46312121000389"><ele>473.99999999999994</ele><time>2026-04-11T13:22:06Z</time></trkpt><trkpt lat="43.02824330767453" lon="11.463198360243162"><ele>474.1428571428571</ele><time>2026-04-11T13:22:10Z</time></trkpt><trkpt lat="43.02828901402264" lon="11.463282529739296"><ele>474.2857142857143</ele><time>2026-04-11T13:22:14Z</time></trkpt><trkpt lat="43.02833586783926" lon="11.463359788206224"><ele>474.42857142857144</ele><time>2026-04-11T13:22:18Z</time></trkpt><trkpt lat="43.02839360354773" lon="11.46343069136137"><ele>474.57142857142856</ele><time>2026-04-11T13:22:22Z</time></trkpt><trkpt lat="43.02844548003323" lon="11.463514215001794"><ele>474.7142857142858</ele><time>2026-04-11T13:22:26Z</time></trkpt><trkpt lat="43.028492581125434" lon="11.463576925789075"><ele>474.8571428571429</ele><time>2026-04-11T13:22:29Z</time></trkpt><trkpt lat="43.0285473932006" lon="11.463639554295977"><ele>475.0</ele><time>2026-04-11T13:22:32Z</time></trkpt><trkpt lat="43.02860450584482" lon="11.46370490012287"><ele>475.0</ele><time>2026-04-11T13:22:35Z</time></trkpt><trkpt lat="43.02866491836582" lon="11.46377882130743"><ele>475.00000000000006</ele><time>2026-04-11T13:22:39Z</time></trkpt><trkpt lat="43.02871283477041" lon="11.463841409562944"><ele>475.0</ele><time>2026-04-11T13:22:42Z</time></trkpt><trkpt lat="43.028762632052754" lon="11.463896691218276"><ele>475.0</ele><time>2026-04-11T13:22:45Z</time></trkpt><trkpt lat="43.02881724956296" lon="11.46394246841692"><ele>475.00000000000006</ele><time>2026-04-11T13:22:48Z</time></trkpt><trkpt lat="43.028866931361456" lon="11.46399689157766"><ele>475.0</ele><time>2026-04-11T13:22:51Z</time></trkpt><trkpt lat="43.02892587250526" lon="11.464066243532987"><ele>475.0</ele><time>2026-04-11T13:22:55Z</time></trkpt><trkpt lat="43.02898778082426" lon="11.464127407416113"><ele>475.6666666666667</ele><time>2026-04-11T13:22:58Z</time></trkpt><trkpt lat="43.02904775515078" lon="11.464198220190031"><ele>476.33333333333337</ele><time>2026-04-11T13:23:02Z</time></trkpt><trkpt lat="43.02910663684221" lon="11.464263825767306"><ele>477.0</ele><time>2026-04-11T13:23:06Z</time></trkpt><trkpt lat="43.0291685963474" lon="11.464324673952204"><ele>477.66666666666663</ele><time>2026-04-11T13:23:10Z</time></trkpt><trkpt lat="43.029220037226445" lon="11.464375819612837"><ele>478.3333333333333</ele><time>2026-04-11T13:23:13Z</time></trkpt><trkpt lat="43.02927468707614" lon="11.464455038995792"><ele>479.0</ele><time>2026-04-11T13:23:17Z</time></trkpt><trkpt lat="43.02933686364422" lon="11.464519099567118"><ele>479.0</ele><time>2026-04-11T13:23:21Z</time></trkpt><trkpt lat="43.029398117324966" lon="11.464583285379032"><ele>479.0</ele><time>2026-04-11T13:23:25Z</time></trkpt><trkpt lat="43.02946065071831" lon="11.464651225977713"><ele>479.0</ele><time>2026-04-11T13:23:29Z</time></trkpt><trkpt lat="43.029508866675144" lon="11.46470676676063"><ele>479.0</ele><time>2026-04-11T13:23:32Z</time></trkpt><trkpt lat="43.02956922401809" lon="11.464781049556997"><ele>479.0</ele><time>2026-04-11T13:23:36.001Z</time></trkpt><trkpt lat="43.029619523689355" lon="11.464836217569793"><ele>479.0</ele><time>2026-04-11T13:23:39.001Z</time></trkpt><trkpt lat="43.029686557298476" lon="11.464903301783178"><ele>479.0</ele><time>2026-04-11T13:23:43.001Z</time></trkpt><trkpt lat="43.02973727555887" lon="11.464959565783735"><ele>478.2857142857143</ele><time>2026-04-11T13:23:46.001Z</time></trkpt><trkpt lat="43.0297985699768" lon="11.465028058670189"><ele>477.57142857142856</ele><time>2026-04-11T13:23:50.001Z</time></trkpt><trkpt lat="43.02984346840275" lon="11.465090583539656"><ele>476.85714285714283</ele><time>2026-04-11T13:23:53.001Z</time></trkpt><trkpt lat="43.029906412932256" lon="11.465152639498022"><ele>476.1428571428571</ele><time>2026-04-11T13:23:57.001Z</time></trkpt><trkpt lat="43.02997166555451" lon="11.465213749123857"><ele>475.42857142857144</ele><time>2026-04-11T13:24:01.001Z</time></trkpt><trkpt lat="43.03002155895648" lon="11.46527144524289"><ele>474.71428571428567</ele><time>2026-04-11T13:24:05.001Z</time></trkpt><trkpt lat="43.030082233930315" lon="11.465337142491551"><ele>473.99999999999994</ele><time>2026-04-11T13:24:09.001Z</time></trkpt><trkpt lat="43.03014272777378" lon="11.465393885768469"><ele>476.0</ele><time>2026-04-11T13:24:12.001Z</time></trkpt><trkpt lat="43.030205885992444" lon="11.465467257410088"><ele>478.0</ele><time>2026-04-11T13:24:16Z</time></trkpt><trkpt lat="43.03027177376537" lon="11.465534025006406"><ele>480.0</ele><time>2026-04-11T13:24:20Z</time></trkpt><trkpt lat="43.03033781314782" lon="11.465599233747167"><ele>482.0</ele><time>2026-04-11T13:24:24Z</time></trkpt><trkpt lat="43.03040027495034" lon="11.46566135419741"><ele>484.0</ele><time>2026-04-11T13:24:28Z</time></trkpt><trkpt lat="43.0304626632074" lon="11.465719183933825"><ele>486.0</ele><time>2026-04-11T13:24:32Z</time></trkpt><trkpt lat="43.03052139011829" lon="11.465781970846125"><ele>486.0</ele><time>2026-04-11T13:24:36Z</time></trkpt><trkpt lat="43.030590298980066" lon="11.465845663646267"><ele>486.0</ele><time>2026-04-11T13:24:40Z</time></trkpt><trkpt lat="43.030651141192585" lon="11.465890606640945"><ele>486.0</ele><time>2026-04-11T13:24:43Z</time></trkpt><trkpt lat="43.03071760154158" lon="11.465941688984413"><ele>486.0</ele><time>2026-04-11T13:24:46Z</time></trkpt><trkpt lat="43.03078829306664" lon="11.465990309825221"><ele>486.0</ele><time>2026-04-11T13:24:50Z</time></trkpt><trkpt lat="43.030861645377584" lon="11.466047291460844"><ele>486.0</ele><time>2026-04-11T13:24:53Z</time></trkpt><trkpt lat="43.03093990532542" lon="11.466101003610419"><ele>486.85714285714283</ele><time>2026-04-11T13:24:56Z</time></trkpt><trkpt lat="43.030998110375656" lon="11.466134799991933"><ele>487.7142857142858</ele><time>2026-04-11T13:24:58Z</time></trkpt><trkpt lat="43.03105956766035" lon="11.466175979186705"><ele>488.5714285714286</ele><time>2026-04-11T13:25:00Z</time></trkpt><trkpt lat="43.03112270241818" lon="11.466220078569576"><ele>489.42857142857144</ele><time>2026-04-11T13:25:03Z</time></trkpt><trkpt lat="43.0312029008616" lon="11.466272473247688"><ele>490.28571428571433</ele><time>2026-04-11T13:25:06Z</time></trkpt><trkpt lat="43.03125888037523" lon="11.466317043381908"><ele>491.1428571428572</ele><time>2026-04-11T13:25:08Z</time></trkpt><trkpt lat="43.03134023888766" lon="11.466376025349382"><ele>492.00000000000006</ele><time>2026-04-11T13:25:10Z</time></trkpt><trkpt lat="43.03140546041727" lon="11.46642041284598"><ele>493.3333333333333</ele><time>2026-04-11T13:25:12Z</time></trkpt><trkpt lat="43.031487201159194" lon="11.46646828191466"><ele>494.66666666666663</ele><time>2026-04-11T13:25:14Z</time></trkpt><trkpt lat="43.03155870322224" lon="11.46650791490514"><ele>496.0</ele><time>2026-04-11T13:25:16Z</time></trkpt><trkpt lat="43.03162988998697" lon="11.466546890532989"><ele>497.3333333333333</ele><time>2026-04-11T13:25:18Z</time></trkpt><trkpt lat="43.031699773048096" lon="11.466590790065275"><ele>498.66666666666663</ele><time>2026-04-11T13:25:20Z</time></trkpt><trkpt lat="43.03177021233947" lon="11.466631431476598"><ele>500.0</ele><time>2026-04-11T13:25:22Z</time></trkpt><trkpt lat="43.03183905953118" lon="11.466676762592341"><ele>500.0</ele><time>2026-04-11T13:25:24Z</time></trkpt><trkpt lat="43.0319080922914" lon="11.466733831492515"><ele>500.0</ele><time>2026-04-11T13:25:26Z</time></trkpt><trkpt lat="43.03197024459413" lon="11.466773703141738"><ele>500.0</ele><time>2026-04-11T13:25:28Z</time></trkpt><trkpt lat="43.03203626408771" lon="11.466811363065203"><ele>500.0</ele><time>2026-04-11T13:25:30Z</time></trkpt><trkpt lat="43.03210980797028" lon="11.46684477456393"><ele>500.0</ele><time>2026-04-11T13:25:32Z</time></trkpt><trkpt lat="43.03217461593311" lon="11.466882018930132"><ele>500.0</ele><time>2026-04-11T13:25:34Z</time></trkpt><trkpt lat="43.03224182402707" lon="11.466913324312213"><ele>500.0</ele><time>2026-04-11T13:25:36Z</time></trkpt><trkpt lat="43.03232242327239" lon="11.466945588225338"><ele>499.99999999999994</ele><time>2026-04-11T13:25:38Z</time></trkpt><trkpt lat="43.032401239434066" lon="11.466956937944897"><ele>500.0</ele><time>2026-04-11T13:25:40Z</time></trkpt><trkpt lat="43.0324813011297" lon="11.466984150588601"><ele>500.0</ele><time>2026-04-11T13:25:42.001Z</time></trkpt><trkpt lat="43.032555926906745" lon="11.466996100880339"><ele>500.0</ele><time>2026-04-11T13:25:44.001Z</time></trkpt><trkpt lat="43.03263000022449" lon="11.46699361970192"><ele>499.99999999999994</ele><time>2026-04-11T13:25:46.001Z</time></trkpt><trkpt lat="43.03270587263526" lon="11.46698608000655"><ele>500.0</ele><time>2026-04-11T13:25:48.001Z</time></trkpt><trkpt lat="43.03278531220502" lon="11.466992488068737"><ele>497.99999999999994</ele><time>2026-04-11T13:25:50.001Z</time></trkpt><trkpt lat="43.0328549843739" lon="11.467003530205686"><ele>496.0</ele><time>2026-04-11T13:25:52.001Z</time></trkpt><trkpt lat="43.032941911712356" lon="11.466998700605997"><ele>494.0</ele><time>2026-04-11T13:25:55.001Z</time></trkpt><trkpt lat="43.033013473136506" lon="11.466993442957222"><ele>492.0</ele><time>2026-04-11T13:25:58.001Z</time></trkpt><trkpt lat="43.03309995320876" lon="11.466994599263478"><ele>489.99999999999994</ele><time>2026-04-11T13:26:01.001Z</time></trkpt><trkpt lat="43.033182221299334" lon="11.466973054628737"><ele>488.0</ele><time>2026-04-11T13:26:05.001Z</time></trkpt><trkpt lat="43.03325617010149" lon="11.46697737096839"><ele>488.3333333333333</ele><time>2026-04-11T13:26:08.001Z</time></trkpt><trkpt lat="43.03334001754263" lon="11.466950833555533"><ele>488.66666666666663</ele><time>2026-04-11T13:26:12.001Z</time></trkpt><trkpt lat="43.03340624849979" lon="11.466948637008457"><ele>489.0</ele><time>2026-04-11T13:26:15.001Z</time></trkpt><trkpt lat="43.03349203714425" lon="11.46694872007484"><ele>489.33333333333337</ele><time>2026-04-11T13:26:19.001Z</time></trkpt><trkpt lat="43.03356543937465" lon="11.466932382874907"><ele>489.6666666666667</ele><time>2026-04-11T13:26:23.001Z</time></trkpt><trkpt lat="43.03363909305464" lon="11.46693056350938"><ele>490.0</ele><time>2026-04-11T13:26:27Z</time></trkpt><trkpt lat="43.03371693322519" lon="11.466903938483462"><ele>490.0</ele><time>2026-04-11T13:26:31Z</time></trkpt><trkpt lat="43.03379676189585" lon="11.466904580386707"><ele>490.0</ele><time>2026-04-11T13:26:36Z</time></trkpt><trkpt lat="43.03387173684391" lon="11.466897105662163"><ele>490.0</ele><time>2026-04-11T13:26:40Z</time></trkpt><trkpt lat="43.033938654468166" lon="11.466892701029295"><ele>490.0</ele><time>2026-04-11T13:26:44Z</time></trkpt><trkpt lat="43.03400450004701" lon="11.466889076458097"><ele>490.0</ele><time>2026-04-11T13:26:48Z</time></trkpt><trkpt lat="43.03407575740201" lon="11.466902220153118"><ele>490.0</ele><time>2026-04-11T13:26:52Z</time></trkpt><trkpt lat="43.03414159975547" lon="11.46691326524283"><ele>490.0</ele><time>2026-04-11T13:26:56Z</time></trkpt><trkpt lat="43.03420350057158" lon="11.466948701560392"><ele>490.8571428571429</ele><time>2026-04-11T13:27:00Z</time></trkpt><trkpt lat="43.03426931810914" lon="11.466985886327473"><ele>491.7142857142857</ele><time>2026-04-11T13:27:04Z</time></trkpt><trkpt lat="43.034336827391066" lon="11.467031457826176"><ele>492.57142857142856</ele><time>2026-04-11T13:27:08Z</time></trkpt><trkpt lat="43.034399706081054" lon="11.467089674399212"><ele>493.42857142857144</ele><time>2026-04-11T13:27:13Z</time></trkpt><trkpt lat="43.034461354467346" lon="11.467151798228661"><ele>494.28571428571433</ele><time>2026-04-11T13:27:18Z</time></trkpt><trkpt lat="43.034512102549094" lon="11.467206379731987"><ele>495.14285714285717</ele><time>2026-04-11T13:27:22Z</time></trkpt><trkpt lat="43.03456015220389" lon="11.467278240982893"><ele>496.0</ele><time>2026-04-11T13:27:26Z</time></trkpt><trkpt lat="43.03459639843716" lon="11.467353855894444"><ele>498.14285714285717</ele><time>2026-04-11T13:27:30Z</time></trkpt><trkpt lat="43.03462952355249" lon="11.467429525434675"><ele>500.28571428571433</ele><time>2026-04-11T13:27:34Z</time></trkpt><trkpt lat="43.034662023188524" lon="11.46751120916139"><ele>502.42857142857144</ele><time>2026-04-11T13:27:38Z</time></trkpt><trkpt lat="43.03469256770486" lon="11.467590448943508"><ele>504.57142857142856</ele><time>2026-04-11T13:27:42Z</time></trkpt><trkpt lat="43.034726649099234" lon="11.467674696136598"><ele>506.7142857142857</ele><time>2026-04-11T13:27:46Z</time></trkpt><trkpt lat="43.03475823727568" lon="11.467753630627309"><ele>508.8571428571429</ele><time>2026-04-11T13:27:50.001Z</time></trkpt><trkpt lat="43.03479263656937" lon="11.467838243759886"><ele>511.0</ele><time>2026-04-11T13:27:54.001Z</time></trkpt><trkpt lat="43.03482250390574" lon="11.467920333341105"><ele>511.00000000000006</ele><time>2026-04-11T13:27:58.001Z</time></trkpt><trkpt lat="43.03485823981878" lon="11.468009436071203"><ele>511.0</ele><time>2026-04-11T13:28:02.001Z</time></trkpt><trkpt lat="43.034904743360045" lon="11.468096609744325"><ele>511.0</ele><time>2026-04-11T13:28:06.001Z</time></trkpt><trkpt lat="43.03495609261602" lon="11.4681788829497"><ele>511.0</ele><time>2026-04-11T13:28:10.001Z</time></trkpt><trkpt lat="43.03501375292044" lon="11.468260845668487"><ele>511.00000000000006</ele><time>2026-04-11T13:28:14.001Z</time></trkpt><trkpt lat="43.03508043975392" lon="11.46833009733627"><ele>511.0</ele><time>2026-04-11T13:28:18.001Z</time></trkpt><trkpt lat="43.03515481846531" lon="11.468399283631824"><ele>511.00000000000006</ele><time>2026-04-11T13:28:21.001Z</time></trkpt><trkpt lat="43.035217766286294" lon="11.468444643373374"><ele>511.0</ele><time>2026-04-11T13:28:23Z</time></trkpt><trkpt lat="43.03528628811546" lon="11.468493488624702"><ele>511.0</ele><time>2026-04-11T13:28:25Z</time></trkpt><trkpt lat="43.03535912750346" lon="11.468528473037807"><ele>511.0</ele><time>2026-04-11T13:28:27Z</time></trkpt><trkpt lat="43.035435275181925" lon="11.468567344901075"><ele>511.00000000000006</ele><time>2026-04-11T13:28:29Z</time></trkpt><trkpt lat="43.035518368264064" lon="11.468607778275462"><ele>511.0</ele><time>2026-04-11T13:28:31Z</time></trkpt><trkpt lat="43.03560852912064" lon="11.468640961596197"><ele>511.0</ele><time>2026-04-11T13:28:33Z</time></trkpt><trkpt lat="43.035706472924325" lon="11.468669372889668"><ele>511.0</ele><time>2026-04-11T13:28:35Z</time></trkpt><trkpt lat="43.035805920989155" lon="11.46870613499128"><ele>511.0</ele><time>2026-04-11T13:28:37Z</time></trkpt><trkpt lat="43.03590913747546" lon="11.46871699439257"><ele>511.0</ele><time>2026-04-11T13:28:39Z</time></trkpt><trkpt lat="43.03601143104086" lon="11.468733603487514"><ele>511.0</ele><time>2026-04-11T13:28:41Z</time></trkpt><trkpt lat="43.03611513615383" lon="11.468749480263053"><ele>511.6</ele><time>2026-04-11T13:28:43Z</time></trkpt><trkpt lat="43.036218281970065" lon="11.468767256722115"><ele>512.2</ele><time>2026-04-11T13:28:45Z</time></trkpt><trkpt lat="43.03631734596041" lon="11.468789277466463"><ele>512.8</ele><time>2026-04-11T13:28:47Z</time></trkpt><trkpt lat="43.03640885635707" lon="11.468815621232773"><ele>513.4</ele><time>2026-04-11T13:28:49Z</time></trkpt><trkpt lat="43.036494491421855" lon="11.468832259422308"><ele>514.0</ele><time>2026-04-11T13:28:51Z</time></trkpt><trkpt lat="43.036572264807724" lon="11.468851892955282"><ele>513.1666666666667</ele><time>2026-04-11T13:28:53Z</time></trkpt><trkpt lat="43.03664597949153" lon="11.468872349984045"><ele>512.3333333333334</ele><time>2026-04-11T13:28:55Z</time></trkpt><trkpt lat="43.036716634012365" lon="11.46890048592979"><ele>511.5</ele><time>2026-04-11T13:28:57Z</time></trkpt><trkpt lat="43.036788626521954" lon="11.468933949110458"><ele>510.66666666666663</ele><time>2026-04-11T13:28:59Z</time></trkpt><trkpt lat="43.036868600948154" lon="11.468967804687615"><ele>509.8333333333333</ele><time>2026-04-11T13:29:01Z</time></trkpt><trkpt lat="43.03695033689618" lon="11.46900829412985"><ele>509.0</ele><time>2026-04-11T13:29:03Z</time></trkpt><trkpt lat="43.03702666313059" lon="11.469052360307398"><ele>508.99999999999994</ele><time>2026-04-11T13:29:05Z</time></trkpt><trkpt lat="43.03710945554832" lon="11.469108963491678"><ele>509.0</ele><time>2026-04-11T13:29:08Z</time></trkpt><trkpt lat="43.037165869193714" lon="11.46914885506214"><ele>509.0</ele><time>2026-04-11T13:29:10Z</time></trkpt><trkpt lat="43.03722824887438" lon="11.469196073814924"><ele>509.0</ele><time>2026-04-11T13:29:12Z</time></trkpt><trkpt lat="43.03730388238623" lon="11.46926722361625"><ele>508.99999999999994</ele><time>2026-04-11T13:29:14Z</time></trkpt><trkpt lat="43.037377761171875" lon="11.469347645416338"><ele>509.0</ele><time>2026-04-11T13:29:15Z</time></trkpt><trkpt lat="43.03744613860573" lon="11.46941068870572"><ele>509.16666666666663</ele><time>2026-04-11T13:29:17Z</time></trkpt><trkpt lat="43.03751312182311" lon="11.469473107761381"><ele>509.3333333333333</ele><time>2026-04-11T13:29:19Z</time></trkpt><trkpt lat="43.03757487571781" lon="11.469537789065605"><ele>509.5</ele><time>2026-04-11T13:29:21Z</time></trkpt><trkpt lat="43.03763417970875" lon="11.469614070426491"><ele>509.66666666666663</ele><time>2026-04-11T13:29:23Z</time></trkpt><trkpt lat="43.03769763955878" lon="11.469680087940251"><ele>509.8333333333333</ele><time>2026-04-11T13:29:25Z</time></trkpt><trkpt lat="43.03776350936767" lon="11.469745840788198"><ele>510.0</ele><time>2026-04-11T13:29:27Z</time></trkpt><trkpt lat="43.03782344227931" lon="11.469817419251966"><ele>511.1666666666667</ele><time>2026-04-11T13:29:29Z</time></trkpt><trkpt lat="43.037884575334374" lon="11.469882331836134"><ele>512.3333333333334</ele><time>2026-04-11T13:29:31Z</time></trkpt><trkpt lat="43.037947999619995" lon="11.469946936683913"><ele>513.5</ele><time>2026-04-11T13:29:33Z</time></trkpt><trkpt lat="43.038021172259675" lon="11.470009530460171"><ele>514.6666666666667</ele><time>2026-04-11T13:29:36Z</time></trkpt><trkpt lat="43.038075372660536" lon="11.470055476961912"><ele>515.8333333333334</ele><time>2026-04-11T13:29:38Z</time></trkpt><trkpt lat="43.03816449204933" lon="11.470109674906352"><ele>517.0</ele><time>2026-04-11T13:29:41Z</time></trkpt><trkpt lat="43.038233597185375" lon="11.470134347583754"><ele>516.1666666666667</ele><time>2026-04-11T13:29:43Z</time></trkpt><trkpt lat="43.03833087556401" lon="11.47016153268642"><ele>515.3333333333334</ele><time>2026-04-11T13:29:46Z</time></trkpt><trkpt lat="43.03842121020565" lon="11.470164914193177"><ele>514.5</ele><time>2026-04-11T13:29:49Z</time></trkpt><trkpt lat="43.03850295314967" lon="11.470146940455049"><ele>513.6666666666666</ele><time>2026-04-11T13:29:52Z</time></trkpt><trkpt lat="43.0385778309304" lon="11.47013127425082"><ele>512.8333333333333</ele><time>2026-04-11T13:29:55.001Z</time></trkpt><trkpt lat="43.0386593863891" lon="11.470100461362337"><ele>512.0</ele><time>2026-04-11T13:29:58.001Z</time></trkpt><trkpt lat="43.03873252927675" lon="11.4700597301401"><ele>511.99999999999994</ele><time>2026-04-11T13:30:01.001Z</time></trkpt><trkpt lat="43.03881281197492" lon="11.470026561366021"><ele>512.0</ele><time>2026-04-11T13:30:04.001Z</time></trkpt><trkpt lat="43.03889114477657" lon="11.469990605796207"><ele>512.0</ele><time>2026-04-11T13:30:07.001Z</time></trkpt><trkpt lat="43.038957876429535" lon="11.469946522720145"><ele>512.0</ele><time>2026-04-11T13:30:10Z</time></trkpt><trkpt lat="43.039019856816125" lon="11.469902953207487"><ele>511.99999999999994</ele><time>2026-04-11T13:30:14Z</time></trkpt><trkpt lat="43.03908075202096" lon="11.469863927271756"><ele>512.0</ele><time>2026-04-11T13:30:18Z</time></trkpt><trkpt lat="43.03915183609253" lon="11.469834597410742"><ele>513.2857142857142</ele><time>2026-04-11T13:30:23Z</time></trkpt><trkpt lat="43.039220049208154" lon="11.469814043514546"><ele>514.5714285714286</ele><time>2026-04-11T13:30:28Z</time></trkpt><trkpt lat="43.03929052799313" lon="11.46982796848403"><ele>515.8571428571429</ele><time>2026-04-11T13:30:33Z</time></trkpt><trkpt lat="43.0393531871084" lon="11.469863082393326"><ele>517.1428571428571</ele><time>2026-04-11T13:30:38Z</time></trkpt><trkpt lat="43.0394122177945" lon="11.469900094615646"><ele>518.4285714285714</ele><time>2026-04-11T13:30:43Z</time></trkpt><trkpt lat="43.03946882297686" lon="11.469954323877397"><ele>519.7142857142857</ele><time>2026-04-11T13:30:48Z</time></trkpt><trkpt lat="43.03951541848207" lon="11.47001650665778"><ele>521.0</ele><time>2026-04-11T13:30:53Z</time></trkpt><trkpt lat="43.03955633542314" lon="11.470082892792092"><ele>521.0</ele><time>2026-04-11T13:30:58Z</time></trkpt><trkpt lat="43.039596519129965" lon="11.470158346982462"><ele>521.0</ele><time>2026-04-11T13:31:04Z</time></trkpt><trkpt lat="43.03963960804451" lon="11.47023056639224"><ele>521.0</ele><time>2026-04-11T13:31:10Z</time></trkpt><trkpt lat="43.039678968208335" lon="11.47030431143263"><ele>521.0</ele><time>2026-04-11T13:31:15Z</time></trkpt><trkpt lat="43.039716007277704" lon="11.470377945295818"><ele>521.0</ele><time>2026-04-11T13:31:20Z</time></trkpt><trkpt lat="43.03975037948653" lon="11.470459940629262"><ele>521.0</ele><time>2026-04-11T13:31:26Z</time></trkpt><trkpt lat="43.03978746877519" lon="11.470536071712276"><ele>521.0</ele><time>2026-04-11T13:31:31Z</time></trkpt><trkpt lat="43.03981575927206" lon="11.470614522889264"><ele>522.5714285714286</ele><time>2026-04-11T13:31:36Z</time></trkpt><trkpt lat="43.03983942101068" lon="11.470698802082925"><ele>524.1428571428571</ele><time>2026-04-11T13:31:41Z</time></trkpt><trkpt lat="43.03985186311269" lon="11.470795067616828"><ele>525.7142857142858</ele><time>2026-04-11T13:31:47Z</time></trkpt><trkpt lat="43.039792011217585" lon="11.470843013997756"><ele>527.2857142857142</ele><time>2026-04-11T13:31:53Z</time></trkpt><trkpt lat="43.03973518922739" lon="11.470884959732192"><ele>528.8571428571429</ele><time>2026-04-11T13:31:58Z</time></trkpt><trkpt lat="43.03967208454103" lon="11.470914631295452"><ele>530.4285714285714</ele><time>2026-04-11T13:32:03.001Z</time></trkpt><trkpt lat="43.03960745449153" lon="11.47095393360447"><ele>532.0</ele><time>2026-04-11T13:32:09.001Z</time></trkpt><trkpt lat="43.039550731591035" lon="11.470994875746593"><ele>532.0</ele><time>2026-04-11T13:32:15.001Z</time></trkpt><trkpt lat="43.039484811213214" lon="11.471035651996687"><ele>532.0</ele><time>2026-04-11T13:32:21Z</time></trkpt><trkpt lat="43.0394234996843" lon="11.471071692164006"><ele>532.0</ele><time>2026-04-11T13:32:27Z</time></trkpt><trkpt lat="43.03935919506571" lon="11.471106116228533"><ele>532.0</ele><time>2026-04-11T13:32:34Z</time></trkpt><trkpt lat="43.03929861507261" lon="11.471139002833786"><ele>532.0</ele><time>2026-04-11T13:32:40Z</time></trkpt><trkpt lat="43.03923532205199" lon="11.471183011135556"><ele>532.0</ele><time>2026-04-11T13:32:46Z</time></trkpt><trkpt lat="43.03917478862153" lon="11.471223546548732"><ele>532.0</ele><time>2026-04-11T13:32:52Z</time></trkpt><trkpt lat="43.03911075148448" lon="11.471264799775552"><ele>532.1428571428571</ele><time>2026-04-11T13:33:13Z</time></trkpt><trkpt lat="43.03905794020571" lon="11.47132156783243"><ele>532.2857142857142</ele><time>2026-04-11T13:33:21Z</time></trkpt><trkpt lat="43.03900703185389" lon="11.47137389312043"><ele>532.4285714285714</ele><time>2026-04-11T13:33:28Z</time></trkpt><trkpt lat="43.03896417350159" lon="11.471443183340906"><ele>532.5714285714286</ele><time>2026-04-11T13:33:36Z</time></trkpt><trkpt lat="43.038912174264624" lon="11.471500451894803"><ele>532.7142857142857</ele><time>2026-04-11T13:33:44Z</time></trkpt><trkpt lat="43.038867840761064" lon="11.471571732046357"><ele>532.8571428571429</ele><time>2026-04-11T13:34:20Z</time></trkpt><trkpt lat="43.03882249713597" lon="11.471645202208357"><ele>533.0</ele><time>2026-04-11T13:34:28Z</time></trkpt><trkpt lat="43.03878132073" lon="11.471721817996496"><ele>533.0</ele><time>2026-04-11T13:34:36Z</time></trkpt><trkpt lat="43.03874866608897" lon="11.471804204461158"><ele>533.0</ele><time>2026-04-11T13:34:44Z</time></trkpt><trkpt lat="43.03871536268835" lon="11.471883967035788"><ele>533.0</ele><time>2026-04-11T13:34:52Z</time></trkpt><trkpt lat="43.03869486342884" lon="11.471972642437777"><ele>533.0</ele><time>2026-04-11T13:35:01Z</time></trkpt><trkpt lat="43.03867327735332" lon="11.472057347103338"><ele>533.0</ele><time>2026-04-11T13:35:09Z</time></trkpt><trkpt lat="43.0386618512085" lon="11.472144900880355"><ele>533.0</ele><time>2026-04-11T13:35:18Z</time></trkpt><trkpt lat="43.03864782521187" lon="11.472237338809231"><ele>533.0</ele><time>2026-04-11T13:35:26Z</time></trkpt><trkpt lat="43.03864342585047" lon="11.472331637694515"><ele>535.1428571428571</ele><time>2026-04-11T13:35:34Z</time></trkpt><trkpt lat="43.03864726911137" lon="11.472426676093619"><ele>537.2857142857142</ele><time>2026-04-11T13:35:42Z</time></trkpt><trkpt lat="43.038651009548595" lon="11.472523440097028"><ele>539.4285714285714</ele><time>2026-04-11T13:35:50Z</time></trkpt><trkpt lat="43.03866345939514" lon="11.472612944372292"><ele>541.5714285714286</ele><time>2026-04-11T13:35:57Z</time></trkpt><trkpt lat="43.03868080671223" lon="11.472711706372545"><ele>543.7142857142858</ele><time>2026-04-11T13:36:05Z</time></trkpt><trkpt lat="43.038690595812206" lon="11.472803396990217"><ele>545.8571428571429</ele><time>2026-04-11T13:36:13Z</time></trkpt><trkpt lat="43.03871340007353" lon="11.472892288422718"><ele>548.0</ele><time>2026-04-11T13:36:21Z</time></trkpt><trkpt lat="43.0387228341919" lon="11.472982974696919"><ele>549.7142857142858</ele><time>2026-04-11T13:36:29Z</time></trkpt><trkpt lat="43.03873413402267" lon="11.47307948663427"><ele>551.4285714285714</ele><time>2026-04-11T13:36:38Z</time></trkpt><trkpt lat="43.038734006176654" lon="11.473168083338937"><ele>553.1428571428571</ele><time>2026-04-11T13:36:46Z</time></trkpt><trkpt lat="43.038726409843065" lon="11.473256475149615"><ele>554.8571428571429</ele><time>2026-04-11T13:36:54Z</time></trkpt><trkpt lat="43.038724888081276" lon="11.473344148950225"><ele>556.5714285714286</ele><time>2026-04-11T13:37:02Z</time></trkpt><trkpt lat="43.03870709335538" lon="11.473426918280605"><ele>558.2857142857143</ele><time>2026-04-11T13:37:09Z</time></trkpt><trkpt lat="43.03868118016805" lon="11.473510764449951"><ele>560.0</ele><time>2026-04-11T13:37:16Z</time></trkpt><trkpt lat="43.038649502093406" lon="11.47359098460694"><ele>560.0</ele><time>2026-04-11T13:37:24Z</time></trkpt><trkpt lat="43.03860901886097" lon="11.473666868335973"><ele>560.0</ele><time>2026-04-11T13:37:32Z</time></trkpt><trkpt lat="43.03855861140022" lon="11.473732429135511"><ele>560.0</ele><time>2026-04-11T13:37:40Z</time></trkpt><trkpt lat="43.038496763792686" lon="11.47378282316044"><ele>560.0</ele><time>2026-04-11T13:37:49Z</time></trkpt><trkpt lat="43.038440065611" lon="11.473828597349055"><ele>560.0</ele><time>2026-04-11T13:37:58Z</time></trkpt><trkpt lat="43.03837595179856" lon="11.473866286870457"><ele>560.0</ele><time>2026-04-11T13:38:06Z</time></trkpt><trkpt lat="43.03830922853976" lon="11.47390641067064"><ele>560.0</ele><time>2026-04-11T13:38:14Z</time></trkpt><trkpt lat="43.03824295054378" lon="11.473933564003872"><ele>561.2857142857143</ele><time>2026-04-11T13:38:23Z</time></trkpt><trkpt lat="43.0381840746159" lon="11.473965840463535"><ele>562.5714285714286</ele><time>2026-04-11T13:38:31Z</time></trkpt><trkpt lat="43.038121233026914" lon="11.473997969008227"><ele>563.8571428571429</ele><time>2026-04-11T13:38:40Z</time></trkpt><trkpt lat="43.03806067250691" lon="11.474029657146344"><ele>565.1428571428571</ele><time>2026-04-11T13:38:48Z</time></trkpt><trkpt lat="43.037998207490915" lon="11.474063908258335"><ele>566.4285714285714</ele><time>2026-04-11T13:38:57Z</time></trkpt><trkpt lat="43.03793340901072" lon="11.47410002668098"><ele>567.7142857142858</ele><time>2026-04-11T13:39:06Z</time></trkpt><trkpt lat="43.037876358735936" lon="11.474142074212967"><ele>569.0</ele><time>2026-04-11T13:39:16Z</time></trkpt><trkpt lat="43.03781810463371" lon="11.474189193867177"><ele>569.0000000000001</ele><time>2026-04-11T13:39:25Z</time></trkpt><trkpt lat="43.03776991263095" lon="11.474250497231965"><ele>569.0</ele><time>2026-04-11T13:39:34Z</time></trkpt><trkpt lat="43.03772711275602" lon="11.474323057467497"><ele>569.0</ele><time>2026-04-11T13:39:42Z</time></trkpt><trkpt lat="43.03769447916062" lon="11.47440964558092"><ele>569.0</ele><time>2026-04-11T13:39:50Z</time></trkpt><trkpt lat="43.03767605924077" lon="11.474500868627098"><ele>569.0</ele><time>2026-04-11T13:39:58Z</time></trkpt><trkpt lat="43.0376705814578" lon="11.474591363963713"><ele>569.0000000000001</ele><time>2026-04-11T13:40:06Z</time></trkpt><trkpt lat="43.03767407288518" lon="11.474685633276941"><ele>569.0</ele><time>2026-04-11T13:40:14Z</time></trkpt><trkpt lat="43.03767644795709" lon="11.474780830973797"><ele>570.7142857142858</ele><time>2026-04-11T13:40:22Z</time></trkpt><trkpt lat="43.037678566667445" lon="11.474868470267165"><ele>572.4285714285714</ele><time>2026-04-11T13:40:30Z</time></trkpt><trkpt lat="43.03768066311672" lon="11.474961977397358"><ele>574.1428571428571</ele><time>2026-04-11T13:40:39Z</time></trkpt><trkpt lat="43.03768479690643" lon="11.475050271523887"><ele>575.8571428571429</ele><time>2026-04-11T13:40:48Z</time></trkpt><trkpt lat="43.037690971683205" lon="11.475137120743245"><ele>577.5714285714286</ele><time>2026-04-11T13:40:57Z</time></trkpt><trkpt lat="43.03769516208219" lon="11.475224578607916"><ele>579.2857142857143</ele><time>2026-04-11T13:41:05Z</time></trkpt><trkpt lat="43.03769644827535" lon="11.475319016572714"><ele>581.0</ele><time>2026-04-11T13:41:14Z</time></trkpt><trkpt lat="43.03769458170069" lon="11.475405789631877"><ele>582.1428571428571</ele><time>2026-04-11T13:41:22Z</time></trkpt><trkpt lat="43.03769986523196" lon="11.475493714987515"><ele>583.2857142857142</ele><time>2026-04-11T13:41:31Z</time></trkpt><trkpt lat="43.037703383838696" lon="11.47558244516385"><ele>584.4285714285714</ele><time>2026-04-11T13:41:39Z</time></trkpt><trkpt lat="43.03770807261707" lon="11.475671365081666"><ele>585.5714285714286</ele><time>2026-04-11T13:41:47Z</time></trkpt><trkpt lat="43.03771011666257" lon="11.47577002953426"><ele>586.7142857142857</ele><time>2026-04-11T13:41:55Z</time></trkpt><trkpt lat="43.03771446086031" lon="11.475858596320936"><ele>587.8571428571429</ele><time>2026-04-11T13:42:09Z</time></trkpt><trkpt lat="43.03772242953691" lon="11.475947214518255"><ele>589.0</ele><time>2026-04-11T13:42:15Z</time></trkpt><trkpt lat="43.03772505706885" lon="11.476039894412697"><ele>589.0</ele><time>2026-04-11T13:42:21Z</time></trkpt><trkpt lat="43.037723804024154" lon="11.476127593495862"><ele>589.0</ele><time>2026-04-11T13:42:26Z</time></trkpt><trkpt lat="43.03773300655197" lon="11.476223928233235"><ele>589.0</ele><time>2026-04-11T13:42:31Z</time></trkpt><trkpt lat="43.03772950136471" lon="11.476310010327936"><ele>589.0</ele><time>2026-04-11T13:42:35Z</time></trkpt><trkpt lat="43.037735238502215" lon="11.476409869213354"><ele>589.0</ele><time>2026-04-11T13:42:40Z</time></trkpt><trkpt lat="43.03774408244279" lon="11.476514860144572"><ele>589.0</ele><time>2026-04-11T13:42:45Z</time></trkpt><trkpt lat="43.03774658687889" lon="11.476620418846078"><ele>589.0</ele><time>2026-04-11T13:42:50Z</time></trkpt><trkpt lat="43.03774820290657" lon="11.476731867936213"><ele>589.4285714285714</ele><time>2026-04-11T13:42:55Z</time></trkpt><trkpt lat="43.03775386868449" lon="11.476823980886858"><ele>589.8571428571428</ele><time>2026-04-11T13:42:59Z</time></trkpt><trkpt lat="43.03775858620647" lon="11.476919729971907"><ele>590.2857142857142</ele><time>2026-04-11T13:43:03Z</time></trkpt><trkpt lat="43.03776645246281" lon="11.477010789345345"><ele>590.7142857142857</ele><time>2026-04-11T13:43:07Z</time></trkpt><trkpt lat="43.03776678331089" lon="11.477102723990926"><ele>591.1428571428571</ele><time>2026-04-11T13:43:11Z</time></trkpt><trkpt lat="43.03776503072818" lon="11.477192305554482"><ele>591.5714285714286</ele><time>2026-04-11T13:43:15Z</time></trkpt><trkpt lat="43.037762084871986" lon="11.477284831689076"><ele>592.0</ele><time>2026-04-11T13:43:19Z</time></trkpt><trkpt lat="43.0377593273176" lon="11.477394902564745"><ele>593.0</ele><time>2026-04-11T13:43:23Z</time></trkpt><trkpt lat="43.03774538849201" lon="11.477495711314294"><ele>594.0</ele><time>2026-04-11T13:43:27Z</time></trkpt><trkpt lat="43.03773380233154" lon="11.47760673282255"><ele>595.0</ele><time>2026-04-11T13:43:31Z</time></trkpt><trkpt lat="43.03772366882981" lon="11.477716084647929"><ele>596.0</ele><time>2026-04-11T13:43:34Z</time></trkpt><trkpt lat="43.03771003676673" lon="11.477812400711931"><ele>597.0</ele><time>2026-04-11T13:43:37Z</time></trkpt><trkpt lat="43.03769279712513" lon="11.477921570201284"><ele>598.0</ele><time>2026-04-11T13:43:40Z</time></trkpt><trkpt lat="43.037676830478055" lon="11.478026596340063"><ele>598.0</ele><time>2026-04-11T13:43:43Z</time></trkpt><trkpt lat="43.03765552710709" lon="11.478133587823994"><ele>598.0</ele><time>2026-04-11T13:43:46Z</time></trkpt><trkpt lat="43.03763867471243" lon="11.478241408813174"><ele>598.0</ele><time>2026-04-11T13:43:49Z</time></trkpt><trkpt lat="43.03760743046319" lon="11.478345051355182"><ele>598.0</ele><time>2026-04-11T13:43:52Z</time></trkpt><trkpt lat="43.03757773009892" lon="11.478448471859117"><ele>598.0</ele><time>2026-04-11T13:43:55Z</time></trkpt><trkpt lat="43.03753721156751" lon="11.478539267348909"><ele>598.0</ele><time>2026-04-11T13:43:58Z</time></trkpt><trkpt lat="43.037492743098355" lon="11.478628175555713"><ele>598.1428571428571</ele><time>2026-04-11T13:44:01Z</time></trkpt><trkpt lat="43.03744761601828" lon="11.478714005617624"><ele>598.2857142857143</ele><time>2026-04-11T13:44:04Z</time></trkpt><trkpt lat="43.03738989788299" lon="11.47878899116123"><ele>598.4285714285714</ele><time>2026-04-11T13:44:07Z</time></trkpt><trkpt lat="43.037340346042065" lon="11.47886827405566"><ele>598.5714285714286</ele><time>2026-04-11T13:44:10Z</time></trkpt><trkpt lat="43.03729316873715" lon="11.478944182623119"><ele>598.7142857142857</ele><time>2026-04-11T13:44:13Z</time></trkpt><trkpt lat="43.03724921379456" lon="11.479013949604273"><ele>598.8571428571429</ele><time>2026-04-11T13:44:16Z</time></trkpt><trkpt lat="43.03720712710707" lon="11.479086043258501"><ele>599.0</ele><time>2026-04-11T13:44:19Z</time></trkpt><trkpt lat="43.037163241924" lon="11.479156353333584"><ele>599.0</ele><time>2026-04-11T13:44:22Z</time></trkpt><trkpt lat="43.03711537426404" lon="11.479224623721315"><ele>599.0</ele><time>2026-04-11T13:44:25Z</time></trkpt><trkpt lat="43.03706512979556" lon="11.479311227189255"><ele>599.0</ele><time>2026-04-11T13:44:29Z</time></trkpt><trkpt lat="43.037001124626684" lon="11.479396857169021"><ele>599.0</ele><time>2026-04-11T13:44:33Z</time></trkpt><trkpt lat="43.03695186115403" lon="11.479474937008886"><ele>599.0</ele><time>2026-04-11T13:44:37.001Z</time></trkpt><trkpt lat="43.03690452613829" lon="11.479546801246487"><ele>599.0</ele><time>2026-04-11T13:44:42.001Z</time></trkpt><trkpt lat="43.03684753041051" lon="11.479616596293228"><ele>599.3333333333333</ele><time>2026-04-11T13:44:48.001Z</time></trkpt><trkpt lat="43.036838079330316" lon="11.47970437180161"><ele>599.6666666666666</ele><time>2026-04-11T13:44:53.001Z</time></trkpt><trkpt lat="43.036861023635765" lon="11.47978671254463"><ele>600.0</ele><time>2026-04-11T13:44:57Z</time></trkpt><trkpt lat="43.03691568676273" lon="11.479856686941261"><ele>600.3333333333334</ele><time>2026-04-11T13:44:59Z</time></trkpt><trkpt lat="43.036986481993914" lon="11.479912158666792"><ele>600.6666666666667</ele><time>2026-04-11T13:45:01Z</time></trkpt><trkpt lat="43.03707213779712" lon="11.479974807676767"><ele>601.0</ele><time>2026-04-11T13:45:03Z</time></trkpt><trkpt lat="43.037165870725495" lon="11.480058328785319"><ele>601.0</ele><time>2026-04-11T13:45:05Z</time></trkpt><trkpt lat="43.03726887132719" lon="11.48015363331359"><ele>601.0</ele><time>2026-04-11T13:45:07Z</time></trkpt><trkpt lat="43.0373271868409" lon="11.480201302929062"><ele>601.0</ele><time>2026-04-11T13:45:08Z</time></trkpt><trkpt lat="43.0373880677741" lon="11.48025117848121"><ele>601.0</ele><time>2026-04-11T13:45:09Z</time></trkpt><trkpt lat="43.03745100370915" lon="11.480305479360124"><ele>601.0</ele><time>2026-04-11T13:45:10Z</time></trkpt><trkpt lat="43.03751536949748" lon="11.4803602420708"><ele>601.0</ele><time>2026-04-11T13:45:11Z</time></trkpt><trkpt lat="43.03757855165924" lon="11.480418105813946"><ele>599.7142857142857</ele><time>2026-04-11T13:45:12Z</time></trkpt><trkpt lat="43.03764300363235" lon="11.480473957777749"><ele>598.4285714285714</ele><time>2026-04-11T13:45:13Z</time></trkpt><trkpt lat="43.037705062932325" lon="11.480530587783159"><ele>597.1428571428571</ele><time>2026-04-11T13:45:14Z</time></trkpt><trkpt lat="43.037765237231746" lon="11.4805857875704"><ele>595.8571428571429</ele><time>2026-04-11T13:45:15Z</time></trkpt><trkpt lat="43.037826261563225" lon="11.48063864820941"><ele>594.5714285714286</ele><time>2026-04-11T13:45:16Z</time></trkpt><trkpt lat="43.0378834478336" lon="11.48069266679568"><ele>593.2857142857143</ele><time>2026-04-11T13:45:17Z</time></trkpt><trkpt lat="43.03793984447507" lon="11.480742103149003"><ele>592.0</ele><time>2026-04-11T13:45:18Z</time></trkpt><trkpt lat="43.03799405416184" lon="11.480788926282706"><ele>592.0</ele><time>2026-04-11T13:45:19Z</time></trkpt><trkpt lat="43.03809474140478" lon="11.480875602903733"><ele>592.0</ele><time>2026-04-11T13:45:21Z</time></trkpt><trkpt lat="43.03818684319507" lon="11.480954687623122"><ele>592.0</ele><time>2026-04-11T13:45:23Z</time></trkpt><trkpt lat="43.03827126373574" lon="11.481035450692882"><ele>592.0</ele><time>2026-04-11T13:45:25Z</time></trkpt><trkpt lat="43.03836242987343" lon="11.48111315655212"><ele>592.0</ele><time>2026-04-11T13:45:27Z</time></trkpt><trkpt lat="43.03845447459714" lon="11.481184239205154"><ele>591.6</ele><time>2026-04-11T13:45:29Z</time></trkpt><trkpt lat="43.03854072777781" lon="11.481261066327395"><ele>591.2</ele><time>2026-04-11T13:45:31Z</time></trkpt><trkpt lat="43.03862673936483" lon="11.481342638842952"><ele>590.8</ele><time>2026-04-11T13:45:33Z</time></trkpt><trkpt lat="43.038715635224335" lon="11.48141941446522"><ele>590.4</ele><time>2026-04-11T13:45:35Z</time></trkpt><trkpt lat="43.03880518165172" lon="11.481501824056762"><ele>590.0</ele><time>2026-04-11T13:45:37Z</time></trkpt><trkpt lat="43.03892923850691" lon="11.481615580836577"><ele>589.8333333333333</ele><time>2026-04-11T13:45:40Z</time></trkpt><trkpt lat="43.0390063323415" lon="11.481681769117003"><ele>589.6666666666666</ele><time>2026-04-11T13:45:42Z</time></trkpt><trkpt lat="43.03907205550986" lon="11.481740242289804"><ele>589.5</ele><time>2026-04-11T13:45:44Z</time></trkpt><trkpt lat="43.03914537535306" lon="11.481812078169996"><ele>589.3333333333334</ele><time>2026-04-11T13:45:47Z</time></trkpt><trkpt lat="43.03920841363871" lon="11.481871792581737"><ele>589.1666666666667</ele><time>2026-04-11T13:45:50Z</time></trkpt><trkpt lat="43.03926595072885" lon="11.481906889322453"><ele>589.0</ele><time>2026-04-11T13:45:53Z</time></trkpt><trkpt lat="43.03932577827564" lon="11.481979001358903"><ele>590.0</ele><time>2026-04-11T13:45:57Z</time></trkpt><trkpt lat="43.03939348000335" lon="11.482038213449432"><ele>591.0</ele><time>2026-04-11T13:46:01Z</time></trkpt><trkpt lat="43.03946316780912" lon="11.48207247882748"><ele>592.0</ele><time>2026-04-11T13:46:05Z</time></trkpt><trkpt lat="43.039516182286114" lon="11.482121468518848"><ele>593.0</ele><time>2026-04-11T13:46:09Z</time></trkpt><trkpt lat="43.03957676853443" lon="11.482173358019214"><ele>594.0</ele><time>2026-04-11T13:46:13Z</time></trkpt><trkpt lat="43.03963418262242" lon="11.482223384987774"><ele>595.0</ele><time>2026-04-11T13:46:17Z</time></trkpt><trkpt lat="43.03968887000945" lon="11.48227541082061"><ele>596.0</ele><time>2026-04-11T13:46:21Z</time></trkpt><trkpt lat="43.03974505621679" lon="11.482332363677918"><ele>597.2857142857142</ele><time>2026-04-11T13:46:25Z</time></trkpt><trkpt lat="43.03979905545636" lon="11.482381342720977"><ele>598.5714285714286</ele><time>2026-04-11T13:46:29Z</time></trkpt><trkpt lat="43.03986066448562" lon="11.48242210503306"><ele>599.8571428571429</ele><time>2026-04-11T13:46:33Z</time></trkpt><trkpt lat="43.039911887210735" lon="11.482477343888576"><ele>601.1428571428571</ele><time>2026-04-11T13:46:37Z</time></trkpt><trkpt lat="43.039971316478635" lon="11.48252118773815"><ele>602.4285714285714</ele><time>2026-04-11T13:46:41.001Z</time></trkpt><trkpt lat="43.040030012554325" lon="11.48256179893356"><ele>603.7142857142857</ele><time>2026-04-11T13:46:45.001Z</time></trkpt><trkpt lat="43.040097558654296" lon="11.482612190841227"><ele>605.0</ele><time>2026-04-11T13:46:49.001Z</time></trkpt><trkpt lat="43.04016361069164" lon="11.482651857845907"><ele>605.8333333333333</ele><time>2026-04-11T13:46:53.001Z</time></trkpt><trkpt lat="43.04023064291336" lon="11.482697987661245"><ele>606.6666666666666</ele><time>2026-04-11T13:46:57.001Z</time></trkpt><trkpt lat="43.04030429300317" lon="11.482739990385904"><ele>607.5</ele><time>2026-04-11T13:47:01.001Z</time></trkpt><trkpt lat="43.04038112052724" lon="11.482771053789216"><ele>608.3333333333334</ele><time>2026-04-11T13:47:05Z</time></trkpt><trkpt lat="43.040444501026094" lon="11.482800434051518"><ele>609.1666666666667</ele><time>2026-04-11T13:47:08Z</time></trkpt><trkpt lat="43.04050370777131" lon="11.482830862189152"><ele>610.0</ele><time>2026-04-11T13:47:11Z</time></trkpt><trkpt lat="43.04058880738332" lon="11.482873235982357"><ele>610.0</ele><time>2026-04-11T13:47:14Z</time></trkpt><trkpt lat="43.04066322579577" lon="11.482890216866746"><ele>610.0</ele><time>2026-04-11T13:47:17Z</time></trkpt><trkpt lat="43.04072466217396" lon="11.482921606748475"><ele>610.0</ele><time>2026-04-11T13:47:20Z</time></trkpt><trkpt lat="43.04079789426552" lon="11.482943415533098"><ele>610.0</ele><time>2026-04-11T13:47:23Z</time></trkpt><trkpt lat="43.04087369899785" lon="11.482975210340008"><ele>610.0</ele><time>2026-04-11T13:47:25Z</time></trkpt><trkpt lat="43.04096582949125" lon="11.48300543493663"><ele>610.0</ele><time>2026-04-11T13:47:28Z</time></trkpt><trkpt lat="43.041037807528014" lon="11.483023250547598"><ele>611.6</ele><time>2026-04-11T13:47:31Z</time></trkpt><trkpt lat="43.041130585076175" lon="11.483044504997736"><ele>613.2</ele><time>2026-04-11T13:47:34Z</time></trkpt><trkpt lat="43.04123433236929" lon="11.483069840476201"><ele>614.8</ele><time>2026-04-11T13:47:36Z</time></trkpt><trkpt lat="43.041332963096686" lon="11.483114092930332"><ele>616.4</ele><time>2026-04-11T13:47:38Z</time></trkpt><trkpt lat="43.04141050922369" lon="11.48313842558957"><ele>618.0</ele><time>2026-04-11T13:47:40Z</time></trkpt><trkpt lat="43.04147825176898" lon="11.483163801581355"><ele>618.0</ele><time>2026-04-11T13:47:42Z</time></trkpt><trkpt lat="43.04154908267944" lon="11.483194351570143"><ele>618.0</ele><time>2026-04-11T13:47:44Z</time></trkpt><trkpt lat="43.04165803734507" lon="11.483201747574684"><ele>618.0</ele><time>2026-04-11T13:47:46Z</time></trkpt><trkpt lat="43.04175484533447" lon="11.48323582952259"><ele>618.0</ele><time>2026-04-11T13:47:48Z</time></trkpt><trkpt lat="43.04184823774586" lon="11.483261138083542"><ele>618.0</ele><time>2026-04-11T13:47:50Z</time></trkpt><trkpt lat="43.04193120392132" lon="11.483294058441837"><ele>617.0</ele><time>2026-04-11T13:47:52Z</time></trkpt><trkpt lat="43.042012493118676" lon="11.483322896687364"><ele>616.0</ele><time>2026-04-11T13:47:54Z</time></trkpt><trkpt lat="43.04209890785314" lon="11.483352081400321"><ele>615.0</ele><time>2026-04-11T13:47:56Z</time></trkpt><trkpt lat="43.042185920453235" lon="11.483375839547433"><ele>614.0</ele><time>2026-04-11T13:47:58Z</time></trkpt><trkpt lat="43.04227305027912" lon="11.48340307044477"><ele>613.0</ele><time>2026-04-11T13:48:00Z</time></trkpt><trkpt lat="43.04236134503465" lon="11.48343387643163"><ele>612.0</ele><time>2026-04-11T13:48:02Z</time></trkpt><trkpt lat="43.04244987770679" lon="11.48345901712832"><ele>612.2</ele><time>2026-04-11T13:48:04Z</time></trkpt><trkpt lat="43.04254056708546" lon="11.483482902918357"><ele>612.4000000000001</ele><time>2026-04-11T13:48:06Z</time></trkpt><trkpt lat="43.04263059974141" lon="11.483515373565883"><ele>612.5999999999999</ele><time>2026-04-11T13:48:08Z</time></trkpt><trkpt lat="43.04272520391344" lon="11.48354640645539"><ele>612.8</ele><time>2026-04-11T13:48:10Z</time></trkpt><trkpt lat="43.04282433205188" lon="11.48357044419169"><ele>613.0</ele><time>2026-04-11T13:48:12Z</time></trkpt><trkpt lat="43.042931628398954" lon="11.483588031783244"><ele>613.0</ele><time>2026-04-11T13:48:14Z</time></trkpt><trkpt lat="43.0430335337519" lon="11.483630809613254"><ele>613.0</ele><time>2026-04-11T13:48:16Z</time></trkpt><trkpt lat="43.04313815154415" lon="11.483665091290854"><ele>613.0</ele><time>2026-04-11T13:48:18Z</time></trkpt><trkpt lat="43.04325208563376" lon="11.483689595638884"><ele>613.0</ele><time>2026-04-11T13:48:20Z</time></trkpt><trkpt lat="43.04335907145773" lon="11.48371827410668"><ele>613.0</ele><time>2026-04-11T13:48:22Z</time></trkpt><trkpt lat="43.04342311406494" lon="11.483727965022972"><ele>612.5</ele><time>2026-04-11T13:48:23Z</time></trkpt><trkpt lat="43.04353442047111" lon="11.48376394351887"><ele>612.0</ele><time>2026-04-11T13:48:25Z</time></trkpt><trkpt lat="43.04364016916754" lon="11.48383245009842"><ele>611.5</ele><time>2026-04-11T13:48:27Z</time></trkpt><trkpt lat="43.04373854781423" lon="11.483907604325745"><ele>611.0</ele><time>2026-04-11T13:48:29Z</time></trkpt><trkpt lat="43.043831067806956" lon="11.483998655097436"><ele>611.0</ele><time>2026-04-11T13:48:31Z</time></trkpt><trkpt lat="43.04392929342691" lon="11.484094290166675"><ele>611.0</ele><time>2026-04-11T13:48:33Z</time></trkpt><trkpt lat="43.04401628756925" lon="11.484191773425088"><ele>611.0</ele><time>2026-04-11T13:48:35Z</time></trkpt><trkpt lat="43.044102075726265" lon="11.484275170037398"><ele>611.0</ele><time>2026-04-11T13:48:37Z</time></trkpt><trkpt lat="43.044190328264285" lon="11.484353759196575"><ele>611.0</ele><time>2026-04-11T13:48:39Z</time></trkpt><trkpt lat="43.044269723602085" lon="11.484432965447244"><ele>611.0</ele><time>2026-04-11T13:48:41Z</time></trkpt><trkpt lat="43.04433317700163" lon="11.484523825890415"><ele>611.0</ele><time>2026-04-11T13:48:43Z</time></trkpt><trkpt lat="43.04439877934633" lon="11.484608746895887"><ele>611.0</ele><time>2026-04-11T13:48:45Z</time></trkpt><trkpt lat="43.044452614791446" lon="11.484701515358099"><ele>611.0</ele><time>2026-04-11T13:48:47.001Z</time></trkpt><trkpt lat="43.04449665755372" lon="11.484797048980742"><ele>611.0</ele><time>2026-04-11T13:48:49.001Z</time></trkpt><trkpt lat="43.044530509645114" lon="11.484899538609442"><ele>611.0</ele><time>2026-04-11T13:48:51.001Z</time></trkpt><trkpt lat="43.04456255551584" lon="11.48500563550823"><ele>611.2</ele><time>2026-04-11T13:48:53.001Z</time></trkpt><trkpt lat="43.04459788887205" lon="11.48511232639762"><ele>611.4000000000001</ele><time>2026-04-11T13:48:55.001Z</time></trkpt><trkpt lat="43.04462590936492" lon="11.485209849307743"><ele>611.6</ele><time>2026-04-11T13:48:57.001Z</time></trkpt><trkpt lat="43.04465898933354" lon="11.485329633663264"><ele>611.8000000000001</ele><time>2026-04-11T13:48:59.001Z</time></trkpt><trkpt lat="43.044702836361154" lon="11.48545829102355"><ele>612.0</ele><time>2026-04-11T13:49:01.001Z</time></trkpt><trkpt lat="43.04474127848688" lon="11.485594059473394"><ele>612.4</ele><time>2026-04-11T13:49:03.001Z</time></trkpt><trkpt lat="43.044769178226865" lon="11.485688840926016"><ele>612.8000000000001</ele><time>2026-04-11T13:49:04.001Z</time></trkpt><trkpt lat="43.04481044036112" lon="11.485840630868156"><ele>613.2</ele><time>2026-04-11T13:49:06.001Z</time></trkpt><trkpt lat="43.04485372636468" lon="11.48598707164537"><ele>613.6</ele><time>2026-04-11T13:49:08Z</time></trkpt><trkpt lat="43.04488331781258" lon="11.486141822958583"><ele>614.0</ele><time>2026-04-11T13:49:10Z</time></trkpt><trkpt lat="43.044932337907774" lon="11.486284736646509"><ele>614.2</ele><time>2026-04-11T13:49:12Z</time></trkpt><trkpt lat="43.04497792232753" lon="11.48642495332117"><ele>614.4</ele><time>2026-04-11T13:49:14Z</time></trkpt><trkpt lat="43.045020366381934" lon="11.486558945126543"><ele>614.6</ele><time>2026-04-11T13:49:16Z</time></trkpt><trkpt lat="43.045054376496616" lon="11.486688545925102"><ele>614.8</ele><time>2026-04-11T13:49:18Z</time></trkpt><trkpt lat="43.04509903974503" lon="11.486808703302149"><ele>615.0</ele><time>2026-04-11T13:49:20Z</time></trkpt><trkpt lat="43.04516047061733" lon="11.486915989448589"><ele>615.0</ele><time>2026-04-11T13:49:22Z</time></trkpt><trkpt lat="43.045247615246346" lon="11.487003138201162"><ele>615.0</ele><time>2026-04-11T13:49:24Z</time></trkpt><trkpt lat="43.04535395637104" lon="11.487056142285416"><ele>615.0</ele><time>2026-04-11T13:49:26Z</time></trkpt><trkpt lat="43.045469688536095" lon="11.487080840044506"><ele>615.0</ele><time>2026-04-11T13:49:28Z</time></trkpt><trkpt lat="43.04558684671932" lon="11.48708209542267"><ele>614.6</ele><time>2026-04-11T13:49:30Z</time></trkpt><trkpt lat="43.0457005779845" lon="11.487104324165287"><ele>614.2</ele><time>2026-04-11T13:49:32Z</time></trkpt><trkpt lat="43.04581411778758" lon="11.487114001667921"><ele>613.8</ele><time>2026-04-11T13:49:34Z</time></trkpt><trkpt lat="43.04591133713386" lon="11.487191478222837"><ele>613.4</ele><time>2026-04-11T13:49:36Z</time></trkpt><trkpt lat="43.045993743568815" lon="11.487281341784739"><ele>613.0</ele><time>2026-04-11T13:49:38Z</time></trkpt><trkpt lat="43.04605750544589" lon="11.487382011892882"><ele>613.0</ele><time>2026-04-11T13:49:40Z</time></trkpt><trkpt lat="43.04611450736523" lon="11.48748572201733"><ele>613.0</ele><time>2026-04-11T13:49:42Z</time></trkpt><trkpt lat="43.046150357586896" lon="11.487604890503118"><ele>613.0</ele><time>2026-04-11T13:49:44Z</time></trkpt><trkpt lat="43.04618408836279" lon="11.48771754356849"><ele>613.0</ele><time>2026-04-11T13:49:46Z</time></trkpt><trkpt lat="43.04621501577822" lon="11.487831460800175"><ele>613.0</ele><time>2026-04-11T13:49:48Z</time></trkpt><trkpt lat="43.04624089468711" lon="11.487937997257069"><ele>613.0</ele><time>2026-04-11T13:49:50Z</time></trkpt><trkpt lat="43.046274076899465" lon="11.488034694942765"><ele>610.8</ele><time>2026-04-11T13:49:52Z</time></trkpt><trkpt lat="43.04629465426071" lon="11.488153567580799"><ele>608.5999999999999</ele><time>2026-04-11T13:49:54Z</time></trkpt><trkpt lat="43.046316848585775" lon="11.488288049562021"><ele>606.4000000000001</ele><time>2026-04-11T13:49:56Z</time></trkpt><trkpt lat="43.0463498817212" lon="11.488429661461183"><ele>604.2</ele><time>2026-04-11T13:49:58Z</time></trkpt><trkpt lat="43.04638190232179" lon="11.488585309083692"><ele>602.0</ele><time>2026-04-11T13:50:00Z</time></trkpt><trkpt lat="43.04639996604449" lon="11.488668316439787"><ele>602.0</ele><time>2026-04-11T13:50:01Z</time></trkpt><trkpt lat="43.04641637690909" lon="11.488756311344154"><ele>602.0</ele><time>2026-04-11T13:50:02Z</time></trkpt><trkpt lat="43.04643467551073" lon="11.488844093793436"><ele>602.0</ele><time>2026-04-11T13:50:03Z</time></trkpt><trkpt lat="43.04645627304124" lon="11.488932770075353"><ele>602.0</ele><time>2026-04-11T13:50:04Z</time></trkpt><trkpt lat="43.04648215655668" lon="11.489023125434127"><ele>602.0</ele><time>2026-04-11T13:50:05Z</time></trkpt><trkpt lat="43.046510616562145" lon="11.489108327468381"><ele>602.0</ele><time>2026-04-11T13:50:06Z</time></trkpt><trkpt lat="43.046547688026465" lon="11.489193537834753"><ele>602.0</ele><time>2026-04-11T13:50:07Z</time></trkpt><trkpt lat="43.046593425551734" lon="11.489274231030539"><ele>604.1666666666666</ele><time>2026-04-11T13:50:08Z</time></trkpt><trkpt lat="43.046648152806064" lon="11.489347498218725"><ele>606.3333333333333</ele><time>2026-04-11T13:50:09Z</time></trkpt><trkpt lat="43.04670924235602" lon="11.489413789018505"><ele>608.5</ele><time>2026-04-11T13:50:10Z</time></trkpt><trkpt lat="43.04677761068336" lon="11.489468223502904"><ele>610.6666666666666</ele><time>2026-04-11T13:50:11Z</time></trkpt><trkpt lat="43.04685303030802" lon="11.489515791807932"><ele>612.8333333333334</ele><time>2026-04-11T13:50:12Z</time></trkpt><trkpt lat="43.046933486280494" lon="11.489549339830623"><ele>615.0</ele><time>2026-04-11T13:50:13Z</time></trkpt><trkpt lat="43.04701987798425" lon="11.489560286744155"><ele>615.0</ele><time>2026-04-11T13:50:14Z</time></trkpt><trkpt lat="43.047109255815116" lon="11.489554853340122"><ele>615.0</ele><time>2026-04-11T13:50:15Z</time></trkpt><trkpt lat="43.04720022402723" lon="11.489550779272573"><ele>615.0</ele><time>2026-04-11T13:50:16Z</time></trkpt><trkpt lat="43.04729510505069" lon="11.489565559274894"><ele>615.0</ele><time>2026-04-11T13:50:17Z</time></trkpt><trkpt lat="43.047390835211004" lon="11.489602137526344"><ele>615.0</ele><time>2026-04-11T13:50:18Z</time></trkpt><trkpt lat="43.047470191268665" lon="11.48968565386383"><ele>612.6</ele><time>2026-04-11T13:50:19Z</time></trkpt><trkpt lat="43.04756261012322" lon="11.489743660033897"><ele>610.2</ele><time>2026-04-11T13:50:20Z</time></trkpt><trkpt lat="43.04762996339046" lon="11.489850789646884"><ele>607.8</ele><time>2026-04-11T13:50:21Z</time></trkpt><trkpt lat="43.047720295997614" lon="11.489927101739468"><ele>605.4</ele><time>2026-04-11T13:50:22Z</time></trkpt><trkpt lat="43.04780268879313" lon="11.490009407333797"><ele>603.0</ele><time>2026-04-11T13:50:23Z</time></trkpt><trkpt lat="43.04789786928653" lon="11.490073232828117"><ele>603.0</ele><time>2026-04-11T13:50:24Z</time></trkpt><trkpt lat="43.04800693757059" lon="11.490099104561647"><ele>603.0</ele><time>2026-04-11T13:50:25Z</time></trkpt><trkpt lat="43.04812143723892" lon="11.490092937633639"><ele>603.0</ele><time>2026-04-11T13:50:26Z</time></trkpt><trkpt lat="43.04823281462705" lon="11.490061091819038"><ele>603.0</ele><time>2026-04-11T13:50:27Z</time></trkpt><trkpt lat="43.048341246411454" lon="11.490019004175634"><ele>603.0</ele><time>2026-04-11T13:50:28Z</time></trkpt><trkpt lat="43.04844708823311" lon="11.48998017465281"><ele>603.0</ele><time>2026-04-11T13:50:29Z</time></trkpt><trkpt lat="43.048554486539345" lon="11.489947560813464"><ele>603.0</ele><time>2026-04-11T13:50:30Z</time></trkpt><trkpt lat="43.048661751641795" lon="11.489940674666489"><ele>603.0</ele><time>2026-04-11T13:50:31Z</time></trkpt><trkpt lat="43.04876722221911" lon="11.489986339964005"><ele>603.0</ele><time>2026-04-11T13:50:32Z</time></trkpt><trkpt lat="43.04885777091677" lon="11.4900889433686"><ele>603.0</ele><time>2026-04-11T13:50:33Z</time></trkpt><trkpt lat="43.048892552780025" lon="11.49024234595886"><ele>603.0</ele><time>2026-04-11T13:50:34Z</time></trkpt><trkpt lat="43.04893058894055" lon="11.49038399494907"><ele>603.0</ele><time>2026-04-11T13:50:35Z</time></trkpt><trkpt lat="43.04896858853588" lon="11.490522493217552"><ele>603.0</ele><time>2026-04-11T13:50:36Z</time></trkpt><trkpt lat="43.049019157843105" lon="11.490654728771847"><ele>603.0</ele><time>2026-04-11T13:50:37Z</time></trkpt><trkpt lat="43.04905253787967" lon="11.490794841008686"><ele>601.4</ele><time>2026-04-11T13:50:38Z</time></trkpt><trkpt lat="43.04909721579656" lon="11.490926626965376"><ele>599.8</ele><time>2026-04-11T13:50:39Z</time></trkpt><trkpt lat="43.049171058982374" lon="11.491030131526298"><ele>598.2</ele><time>2026-04-11T13:50:40Z</time></trkpt><trkpt lat="43.049279479589835" lon="11.491087625047738"><ele>596.6</ele><time>2026-04-11T13:50:41Z</time></trkpt><trkpt lat="43.04939812106155" lon="11.491091129054526"><ele>595.0</ele><time>2026-04-11T13:50:42Z</time></trkpt><trkpt lat="43.04951444889909" lon="11.491046283843154"><ele>595.0</ele><time>2026-04-11T13:50:43Z</time></trkpt><trkpt lat="43.04962529427649" lon="11.490998352218378"><ele>595.0</ele><time>2026-04-11T13:50:44Z</time></trkpt><trkpt lat="43.04973715481722" lon="11.490978235372207"><ele>595.0</ele><time>2026-04-11T13:50:45Z</time></trkpt><trkpt lat="43.049851977975955" lon="11.490992615878891"><ele>595.0</ele><time>2026-04-11T13:50:46Z</time></trkpt><trkpt lat="43.04996670956753" lon="11.491028235844427"><ele>595.5</ele><time>2026-04-11T13:50:47Z</time></trkpt><trkpt lat="43.050082266229914" lon="11.491036309270417"><ele>596.0</ele><time>2026-04-11T13:50:48Z</time></trkpt><trkpt lat="43.05019380125054" lon="11.49098961662443"><ele>596.5</ele><time>2026-04-11T13:50:49Z</time></trkpt><trkpt lat="43.05028951275155" lon="11.4908808466057"><ele>597.0</ele><time>2026-04-11T13:50:50Z</time></trkpt><trkpt lat="43.05035294641019" lon="11.490733900677725"><ele>597.0</ele><time>2026-04-11T13:50:51Z</time></trkpt><trkpt lat="43.05041588959258" lon="11.490589546278642"><ele>597.0</ele><time>2026-04-11T13:50:52.001Z</time></trkpt><trkpt lat="43.05047625013244" lon="11.490446071438226"><ele>597.0</ele><time>2026-04-11T13:50:53.001Z</time></trkpt><trkpt lat="43.05053689644388" lon="11.490304510268187"><ele>597.0</ele><time>2026-04-11T13:50:54.001Z</time></trkpt><trkpt lat="43.050600565794866" lon="11.490164973667387"><ele>595.0</ele><time>2026-04-11T13:50:55.001Z</time></trkpt><trkpt lat="43.05066468313852" lon="11.490026252363501"><ele>593.0</ele><time>2026-04-11T13:50:56.001Z</time></trkpt><trkpt lat="43.05072529339573" lon="11.489884689580043"><ele>591.0</ele><time>2026-04-11T13:50:57.001Z</time></trkpt><trkpt lat="43.05078522088021" lon="11.489749697064717"><ele>589.0</ele><time>2026-04-11T13:50:58.001Z</time></trkpt><trkpt lat="43.05085190131925" lon="11.489625496104683"><ele>589.0</ele><time>2026-04-11T13:50:59.001Z</time></trkpt><trkpt lat="43.050941716697174" lon="11.489527013810452"><ele>589.0</ele><time>2026-04-11T13:51:00.001Z</time></trkpt><trkpt lat="43.05105226596818" lon="11.48948251537663"><ele>589.0</ele><time>2026-04-11T13:51:01.001Z</time></trkpt><trkpt lat="43.05115975785154" lon="11.489544309230379"><ele>589.0</ele><time>2026-04-11T13:51:02.001Z</time></trkpt><trkpt lat="43.05125306036945" lon="11.489619039777795"><ele>589.0</ele><time>2026-04-11T13:51:03.001Z</time></trkpt><trkpt lat="43.05129877184395" lon="11.48974194384859"><ele>589.0</ele><time>2026-04-11T13:51:04.001Z</time></trkpt><trkpt lat="43.05135348690905" lon="11.48986301860072"><ele>589.0</ele><time>2026-04-11T13:51:05.001Z</time></trkpt><trkpt lat="43.05140697904589" lon="11.489988848969423"><ele>589.0</ele><time>2026-04-11T13:51:06.001Z</time></trkpt><trkpt lat="43.05146880110014" lon="11.490106068198108"><ele>589.0</ele><time>2026-04-11T13:51:07.001Z</time></trkpt><trkpt lat="43.05151995295293" lon="11.490232757508563"><ele>589.0</ele><time>2026-04-11T13:51:08.001Z</time></trkpt><trkpt lat="43.05157123756353" lon="11.490361295004991"><ele>589.0</ele><time>2026-04-11T13:51:09.001Z</time></trkpt><trkpt lat="43.05162525486139" lon="11.49048447226119"><ele>589.0</ele><time>2026-04-11T13:51:10.001Z</time></trkpt><trkpt lat="43.051693363090465" lon="11.490595297976782"><ele>589.0</ele><time>2026-04-11T13:51:11.001Z</time></trkpt><trkpt lat="43.05177533385647" lon="11.490691344097682"><ele>589.0</ele><time>2026-04-11T13:51:12Z</time></trkpt><trkpt lat="43.051864415389986" lon="11.490776019043553"><ele>585.0</ele><time>2026-04-11T13:51:13Z</time></trkpt><trkpt lat="43.05195525007578" lon="11.49086636878275"><ele>581.0</ele><time>2026-04-11T13:51:14Z</time></trkpt><trkpt lat="43.052052899842515" lon="11.490945370280281"><ele>577.0</ele><time>2026-04-11T13:51:15Z</time></trkpt><trkpt lat="43.052165016631484" lon="11.490998207985005"><ele>573.0</ele><time>2026-04-11T13:51:16Z</time></trkpt><trkpt lat="43.05228310261786" lon="11.491019862207494"><ele>573.0</ele><time>2026-04-11T13:51:17Z</time></trkpt><trkpt lat="43.05240278454074" lon="11.490999686872202"><ele>573.0</ele><time>2026-04-11T13:51:18Z</time></trkpt><trkpt lat="43.052518686125914" lon="11.490949624571579"><ele>573.0</ele><time>2026-04-11T13:51:19Z</time></trkpt><trkpt lat="43.052630314012404" lon="11.49088632815325"><ele>573.0</ele><time>2026-04-11T13:51:20Z</time></trkpt><trkpt lat="43.05273799570099" lon="11.49081763036692"><ele>574.0</ele><time>2026-04-11T13:51:21Z</time></trkpt><trkpt lat="43.05284798938687" lon="11.490754662837137"><ele>575.0</ele><time>2026-04-11T13:51:22Z</time></trkpt><trkpt lat="43.052950696925144" lon="11.490675712522542"><ele>576.0</ele><time>2026-04-11T13:51:23Z</time></trkpt><trkpt lat="43.05303910216042" lon="11.490566826390793"><ele>577.0</ele><time>2026-04-11T13:51:24Z</time></trkpt><trkpt lat="43.053107946176354" lon="11.49043675017439"><ele>579.8000000000001</ele><time>2026-04-11T13:51:25Z</time></trkpt><trkpt lat="43.0531562580865" lon="11.490295793940529"><ele>582.6</ele><time>2026-04-11T13:51:26Z</time></trkpt><trkpt lat="43.05319214257907" lon="11.490151556037683"><ele>585.4000000000001</ele><time>2026-04-11T13:51:27Z</time></trkpt><trkpt lat="43.053221372181" lon="11.490006669681494"><ele>588.2</ele><time>2026-04-11T13:51:28Z</time></trkpt><trkpt lat="43.05324656697534" lon="11.489863512087904"><ele>591.0</ele><time>2026-04-11T13:51:29Z</time></trkpt><trkpt lat="43.05327169978671" lon="11.489721865777012"><ele>586.6</ele><time>2026-04-11T13:51:30Z</time></trkpt><trkpt lat="43.05329456937049" lon="11.489579796527595"><ele>582.2</ele><time>2026-04-11T13:51:31Z</time></trkpt><trkpt lat="43.053318782813626" lon="11.48944098467277"><ele>577.8</ele><time>2026-04-11T13:51:32Z</time></trkpt><trkpt lat="43.0533476082053" lon="11.489303861387624"><ele>573.4</ele><time>2026-04-11T13:51:33Z</time></trkpt><trkpt lat="43.05338777572523" lon="11.489173190203823"><ele>569.0</ele><time>2026-04-11T13:51:34Z</time></trkpt><trkpt lat="43.0534524092818" lon="11.489060568586797"><ele>569.0</ele><time>2026-04-11T13:51:35Z</time></trkpt><trkpt lat="43.05353824013311" lon="11.488973134682338"><ele>569.0</ele><time>2026-04-11T13:51:36Z</time></trkpt><trkpt lat="43.053634383418206" lon="11.488908200449243"><ele>569.0</ele><time>2026-04-11T13:51:37Z</time></trkpt><trkpt lat="43.05373619762638" lon="11.488863056092557"><ele>569.0</ele><time>2026-04-11T13:51:38Z</time></trkpt><trkpt lat="43.05383986076157" lon="11.488829118328129"><ele>569.0</ele><time>2026-04-11T13:51:39Z</time></trkpt><trkpt lat="43.053943445463055" lon="11.488796894371399"><ele>569.0</ele><time>2026-04-11T13:51:40Z</time></trkpt><trkpt lat="43.05404479459943" lon="11.48876301256729"><ele>569.0</ele><time>2026-04-11T13:51:41Z</time></trkpt><trkpt lat="43.054145146125045" lon="11.488728851938436"><ele>569.0</ele><time>2026-04-11T13:51:42Z</time></trkpt><trkpt lat="43.05423775876049" lon="11.488699704191564"><ele>569.0</ele><time>2026-04-11T13:51:43Z</time></trkpt><trkpt lat="43.05432668287995" lon="11.48868727120603"><ele>569.0</ele><time>2026-04-11T13:51:44Z</time></trkpt><trkpt lat="43.054417518313045" lon="11.488683127531605"><ele>568.3333333333333</ele><time>2026-04-11T13:51:45Z</time></trkpt><trkpt lat="43.05450912665326" lon="11.488695191343734"><ele>567.6666666666666</ele><time>2026-04-11T13:51:46Z</time></trkpt><trkpt lat="43.05460001126037" lon="11.488724147258107"><ele>567.0</ele><time>2026-04-11T13:51:47Z</time></trkpt><trkpt lat="43.054684405798724" lon="11.488784919063363"><ele>566.3333333333334</ele><time>2026-04-11T13:51:48Z</time></trkpt><trkpt lat="43.054762556402466" lon="11.488831092268272"><ele>565.6666666666667</ele><time>2026-04-11T13:51:49Z</time></trkpt><trkpt lat="43.054834120592965" lon="11.488879172655787"><ele>565.0</ele><time>2026-04-11T13:51:50Z</time></trkpt><trkpt lat="43.05490398688072" lon="11.488908309927696"><ele>562.6</ele><time>2026-04-11T13:51:51Z</time></trkpt><trkpt lat="43.05495645210319" lon="11.488966725473786"><ele>560.2</ele><time>2026-04-11T13:51:52Z</time></trkpt><trkpt lat="43.05503804645844" lon="11.489065927841478"><ele>557.8</ele><time>2026-04-11T13:51:54Z</time></trkpt><trkpt lat="43.05513254698121" lon="11.489134028942686"><ele>555.4</ele><time>2026-04-11T13:51:56Z</time></trkpt><trkpt lat="43.055245643587476" lon="11.489086324846989"><ele>553.0</ele><time>2026-04-11T13:51:58Z</time></trkpt><trkpt lat="43.05531026883292" lon="11.489089269483044"><ele>553.0</ele><time>2026-04-11T13:51:59Z</time></trkpt><trkpt lat="43.05537215382945" lon="11.489058627891847"><ele>553.0</ele><time>2026-04-11T13:52:00Z</time></trkpt><trkpt lat="43.05543711519184" lon="11.4890351114407"><ele>553.0</ele><time>2026-04-11T13:52:01Z</time></trkpt><trkpt lat="43.0555045469057" lon="11.489008519012062"><ele>553.0</ele><time>2026-04-11T13:52:02Z</time></trkpt><trkpt lat="43.05557318024974" lon="11.488981214993993"><ele>553.0</ele><time>2026-04-11T13:52:03Z</time></trkpt><trkpt lat="43.055644130879664" lon="11.488956444769414"><ele>553.0</ele><time>2026-04-11T13:52:04Z</time></trkpt><trkpt lat="43.05571766900809" lon="11.488954316592046"><ele>553.0</ele><time>2026-04-11T13:52:05Z</time></trkpt><trkpt lat="43.055781523817565" lon="11.488986466693234"><ele>552.3333333333334</ele><time>2026-04-11T13:52:06Z</time></trkpt><trkpt lat="43.055835718120804" lon="11.489038713318667"><ele>551.6666666666667</ele><time>2026-04-11T13:52:07Z</time></trkpt><trkpt lat="43.0559316117133" lon="11.489073106565419"><ele>551.0</ele><time>2026-04-11T13:52:09Z</time></trkpt><trkpt lat="43.05596891549115" lon="11.489172802852492"><ele>550.3333333333334</ele><time>2026-04-11T13:52:11Z</time></trkpt><trkpt lat="43.05603766129229" lon="11.48920785756526"><ele>549.6666666666666</ele><time>2026-04-11T13:52:16Z</time></trkpt><trkpt lat="43.05607848071425" lon="11.48927756059521"><ele>549.0</ele><time>2026-04-11T13:52:21Z</time></trkpt><trkpt lat="43.05613648600182" lon="11.489326552000598"><ele>549.0</ele><time>2026-04-11T13:52:26Z</time></trkpt><trkpt lat="43.05620811546601" lon="11.489372766913489"><ele>549.0</ele><time>2026-04-11T13:52:32Z</time></trkpt><trkpt lat="43.056261593497666" lon="11.489430095175406"><ele>549.0</ele><time>2026-04-11T13:52:36Z</time></trkpt><trkpt lat="43.05632051768828" lon="11.489464564184328"><ele>549.0</ele><time>2026-04-11T13:52:40Z</time></trkpt><trkpt lat="43.05639629871898" lon="11.489489306583774"><ele>549.0</ele><time>2026-04-11T13:52:46Z</time></trkpt><trkpt lat="43.05646760130669" lon="11.489521356561612"><ele>549.0</ele><time>2026-04-11T13:52:50Z</time></trkpt><trkpt lat="43.056513478276386" lon="11.489594373408858"><ele>549.0</ele><time>2026-04-11T13:52:54Z</time></trkpt><trkpt lat="43.056552333705035" lon="11.489669023929542"><ele>549.0</ele><time>2026-04-11T13:52:59.001Z</time></trkpt><trkpt lat="43.056611899531376" lon="11.489712349298669"><ele>549.0</ele><time>2026-04-11T13:53:05.001Z</time></trkpt><trkpt lat="43.05656477331415" lon="11.489644590221019"><ele>549.0</ele><time>2026-04-11T13:53:09.001Z</time></trkpt><trkpt lat="43.056520243324165" lon="11.489558156095578"><ele>549.0</ele><time>2026-04-11T13:53:13.001Z</time></trkpt><trkpt lat="43.05645927660422" lon="11.489496933746322"><ele>549.0</ele><time>2026-04-11T13:53:16.001Z</time></trkpt><trkpt lat="43.05645344134066" lon="11.489407394366278"><ele>549.0</ele><time>2026-04-11T13:53:18.001Z</time></trkpt><trkpt lat="43.056516105362405" lon="11.48934438782274"><ele>549.0</ele><time>2026-04-11T13:53:20.001Z</time></trkpt><trkpt lat="43.05659967721769" lon="11.48931991813499"><ele>549.0</ele><time>2026-04-11T13:53:22.001Z</time></trkpt><trkpt lat="43.05667065857162" lon="11.4893020889954"><ele>549.0</ele><time>2026-04-11T13:53:24Z</time></trkpt><trkpt lat="43.05673398460042" lon="11.48928746909226"><ele>549.0</ele><time>2026-04-11T13:53:26Z</time></trkpt><trkpt lat="43.056745591011946" lon="11.48917919444552"><ele>549.0</ele><time>2026-04-11T13:53:29Z</time></trkpt><trkpt lat="43.05668181652061" lon="11.489146953160802"><ele>549.0</ele><time>2026-04-11T13:53:31Z</time></trkpt><trkpt lat="43.05660774856849" lon="11.489105854847553"><ele>549.0</ele><time>2026-04-11T13:53:34Z</time></trkpt><trkpt lat="43.05657973278169" lon="11.489020379326641"><ele>549.0</ele><time>2026-04-11T13:53:46Z</time></trkpt><trkpt lat="43.05658313180721" lon="11.488930439483559"><ele>549.0</ele><time>2026-04-11T13:54:04Z</time></trkpt><trkpt lat="43.05656980091571" lon="11.489024755248025"><ele>549.0</ele><time>2026-04-11T14:07:42.001Z</time></trkpt><trkpt lat="43.05658616568982" lon="11.489111790471432"><ele>549.0</ele><time>2026-04-11T14:07:45.001Z</time></trkpt><trkpt lat="43.056649948016684" lon="11.489169023016176"><ele>549.0</ele><time>2026-04-11T14:07:50.001Z</time></trkpt><trkpt lat="43.05672085535146" lon="11.489175223864484"><ele>549.0</ele><time>2026-04-11T14:07:55.001Z</time></trkpt><trkpt lat="43.056773656381154" lon="11.48924201876605"><ele>549.0</ele><time>2026-04-11T14:08:00.001Z</time></trkpt><trkpt lat="43.05683452211903" lon="11.489270636692835"><ele>549.0</ele><time>2026-04-11T14:08:03.001Z</time></trkpt><trkpt lat="43.05690374367621" lon="11.489232129309745"><ele>549.1666666666666</ele><time>2026-04-11T14:08:06.001Z</time></trkpt><trkpt lat="43.05697218721197" lon="11.489204718353223"><ele>549.3333333333334</ele><time>2026-04-11T14:08:09.001Z</time></trkpt><trkpt lat="43.05703076236538" lon="11.489164274386486"><ele>549.5</ele><time>2026-04-11T14:08:12.001Z</time></trkpt><trkpt lat="43.05701127190269" lon="11.48904876843059"><ele>549.6666666666667</ele><time>2026-04-11T14:08:15.001Z</time></trkpt><trkpt lat="43.05696990036299" lon="11.488963546751046"><ele>549.8333333333334</ele><time>2026-04-11T14:08:17Z</time></trkpt><trkpt lat="43.05691623051816" lon="11.488877145099682"><ele>550.0</ele><time>2026-04-11T14:08:19Z</time></trkpt><trkpt lat="43.056867380435165" lon="11.488809556282396"><ele>547.2</ele><time>2026-04-11T14:08:21Z</time></trkpt><trkpt lat="43.05685011003648" lon="11.488710118614632"><ele>544.4</ele><time>2026-04-11T14:08:23Z</time></trkpt><trkpt lat="43.056888277157014" lon="11.488570443701256"><ele>541.6</ele><time>2026-04-11T14:08:25Z</time></trkpt><trkpt lat="43.0569407199155" lon="11.488451455607967"><ele>538.8</ele><time>2026-04-11T14:08:27Z</time></trkpt><trkpt lat="43.05701886739311" lon="11.488341940227969"><ele>536.0</ele><time>2026-04-11T14:08:29Z</time></trkpt><trkpt lat="43.057074219010396" lon="11.488220191142268"><ele>536.0</ele><time>2026-04-11T14:08:31Z</time></trkpt><trkpt lat="43.05712675321069" lon="11.488106675042257"><ele>536.0</ele><time>2026-04-11T14:08:33Z</time></trkpt><trkpt lat="43.05718212993313" lon="11.488002510899811"><ele>536.0</ele><time>2026-04-11T14:08:35Z</time></trkpt><trkpt lat="43.05723129077563" lon="11.487901125543662"><ele>536.0</ele><time>2026-04-11T14:08:37Z</time></trkpt><trkpt lat="43.057280530839854" lon="11.487811520944103"><ele>536.0</ele><time>2026-04-11T14:08:39Z</time></trkpt><trkpt lat="43.05732661037782" lon="11.487717088260709"><ele>536.0</ele><time>2026-04-11T14:08:41Z</time></trkpt><trkpt lat="43.05737638857825" lon="11.48762212514246"><ele>536.8333333333333</ele><time>2026-04-11T14:08:43Z</time></trkpt><trkpt lat="43.05742621002209" lon="11.487530250685122"><ele>537.6666666666666</ele><time>2026-04-11T14:08:45Z</time></trkpt><trkpt lat="43.057483119278565" lon="11.487440738209369"><ele>538.5</ele><time>2026-04-11T14:08:47Z</time></trkpt><trkpt lat="43.05754476159392" lon="11.48736069634146"><ele>539.3333333333334</ele><time>2026-04-11T14:08:49Z</time></trkpt><trkpt lat="43.05761532055469" lon="11.487290183904756"><ele>540.1666666666667</ele><time>2026-04-11T14:08:51Z</time></trkpt><trkpt lat="43.057680085839486" lon="11.487211100605943"><ele>541.0</ele><time>2026-04-11T14:08:53Z</time></trkpt><trkpt lat="43.05774115714401" lon="11.487138011680608"><ele>538.1666666666667</ele><time>2026-04-11T14:08:55Z</time></trkpt><trkpt lat="43.05780226731867" lon="11.487069030066655"><ele>535.3333333333334</ele><time>2026-04-11T14:08:57Z</time></trkpt><trkpt lat="43.05786696673103" lon="11.48699782087322"><ele>532.5</ele><time>2026-04-11T14:08:59Z</time></trkpt><trkpt lat="43.05792497139259" lon="11.486927443734986"><ele>529.6666666666666</ele><time>2026-04-11T14:09:01Z</time></trkpt><trkpt lat="43.057986207993636" lon="11.48686011485155"><ele>526.8333333333333</ele><time>2026-04-11T14:09:03Z</time></trkpt><trkpt lat="43.05804641068278" lon="11.486787552807089"><ele>524.0</ele><time>2026-04-11T14:09:05Z</time></trkpt><trkpt lat="43.0581045402549" lon="11.486718830135441"><ele>524.0</ele><time>2026-04-11T14:09:07Z</time></trkpt><trkpt lat="43.05816550413079" lon="11.486647716621107"><ele>524.0</ele><time>2026-04-11T14:09:09Z</time></trkpt><trkpt lat="43.0582217385408" lon="11.486572897702931"><ele>524.0</ele><time>2026-04-11T14:09:11Z</time></trkpt><trkpt lat="43.05828514212453" lon="11.486508523035875"><ele>524.0</ele><time>2026-04-11T14:09:13Z</time></trkpt><trkpt lat="43.058350227324425" lon="11.48644225111146"><ele>524.0</ele><time>2026-04-11T14:09:15Z</time></trkpt><trkpt lat="43.058415487781275" lon="11.486377770625786"><ele>524.0</ele><time>2026-04-11T14:09:17Z</time></trkpt><trkpt lat="43.058488004034004" lon="11.486325012128576"><ele>524.5</ele><time>2026-04-11T14:09:19Z</time></trkpt><trkpt lat="43.05856709108166" lon="11.486280497558289"><ele>525.0</ele><time>2026-04-11T14:09:21Z</time></trkpt><trkpt lat="43.05864250067592" lon="11.486224362312266"><ele>525.5</ele><time>2026-04-11T14:09:23Z</time></trkpt><trkpt lat="43.05871953000438" lon="11.486174532658488"><ele>526.0</ele><time>2026-04-11T14:09:25Z</time></trkpt><trkpt lat="43.05880093707238" lon="11.486141110361103"><ele>526.5</ele><time>2026-04-11T14:09:27Z</time></trkpt><trkpt lat="43.058885066409516" lon="11.486144692554086"><ele>527.0</ele><time>2026-04-11T14:09:29Z</time></trkpt><trkpt lat="43.05896901601529" lon="11.486151313022495"><ele>527.0</ele><time>2026-04-11T14:09:31Z</time></trkpt><trkpt lat="43.05904709863229" lon="11.486162919841663"><ele>527.0</ele><time>2026-04-11T14:09:33Z</time></trkpt><trkpt lat="43.05912246680497" lon="11.486190962715986"><ele>527.0</ele><time>2026-04-11T14:09:35Z</time></trkpt><trkpt lat="43.05919684817554" lon="11.486227698915705"><ele>527.0</ele><time>2026-04-11T14:09:37Z</time></trkpt><trkpt lat="43.059270666828574" lon="11.486248143448432"><ele>527.0</ele><time>2026-04-11T14:09:39Z</time></trkpt><trkpt lat="43.05933921918423" lon="11.486277307583842"><ele>527.0</ele><time>2026-04-11T14:09:41Z</time></trkpt><trkpt lat="43.05940610570318" lon="11.48631203349606"><ele>531.5</ele><time>2026-04-11T14:09:43Z</time></trkpt><trkpt lat="43.059470100550854" lon="11.486345160646055"><ele>536.0</ele><time>2026-04-11T14:09:45.001Z</time></trkpt><trkpt lat="43.05953185871403" lon="11.486368027044833"><ele>540.5</ele><time>2026-04-11T14:09:47.001Z</time></trkpt><trkpt lat="43.059618928399146" lon="11.486407662182142"><ele>545.0</ele><time>2026-04-11T14:09:50.001Z</time></trkpt><trkpt lat="43.059704969295666" lon="11.486443755835667"><ele>549.5</ele><time>2026-04-11T14:09:53.001Z</time></trkpt><trkpt lat="43.05978282633679" lon="11.486480236386253"><ele>554.0</ele><time>2026-04-11T14:09:56.001Z</time></trkpt><trkpt lat="43.05986223921935" lon="11.486513493341851"><ele>554.0</ele><time>2026-04-11T14:09:59.001Z</time></trkpt><trkpt lat="43.059944632194934" lon="11.486550977866527"><ele>554.0</ele><time>2026-04-11T14:10:02.001Z</time></trkpt><trkpt lat="43.060027453228614" lon="11.486582908725138"><ele>554.0</ele><time>2026-04-11T14:10:05.001Z</time></trkpt><trkpt lat="43.060113989438506" lon="11.486618753045263"><ele>554.0</ele><time>2026-04-11T14:10:08.001Z</time></trkpt><trkpt lat="43.06019586773421" lon="11.486664577297464"><ele>554.0</ele><time>2026-04-11T14:10:11.001Z</time></trkpt><trkpt lat="43.06027741184772" lon="11.486707688479642"><ele>554.0</ele><time>2026-04-11T14:10:14.001Z</time></trkpt><trkpt lat="43.060355084816926" lon="11.486746855980432"><ele>553.8333333333333</ele><time>2026-04-11T14:10:17Z</time></trkpt><trkpt lat="43.06042119123449" lon="11.48681620754716"><ele>553.6666666666666</ele><time>2026-04-11T14:10:20Z</time></trkpt><trkpt lat="43.06048745284294" lon="11.486885910444569"><ele>553.5</ele><time>2026-04-11T14:10:23Z</time></trkpt><trkpt lat="43.06054751331391" lon="11.48692235745222"><ele>553.3333333333334</ele><time>2026-04-11T14:10:25Z</time></trkpt><trkpt lat="43.060584969608165" lon="11.487016675488624"><ele>553.1666666666667</ele><time>2026-04-11T14:10:27Z</time></trkpt><trkpt lat="43.06062665431071" lon="11.48713624576902"><ele>553.0</ele><time>2026-04-11T14:10:29Z</time></trkpt><trkpt lat="43.06063367775697" lon="11.487305000445403"><ele>553.5</ele><time>2026-04-11T14:10:31Z</time></trkpt><trkpt lat="43.0606329947083" lon="11.487403549060353"><ele>554.0</ele><time>2026-04-11T14:10:32Z</time></trkpt><trkpt lat="43.06063595255616" lon="11.487513455099066"><ele>554.5</ele><time>2026-04-11T14:10:33Z</time></trkpt><trkpt lat="43.06064393181588" lon="11.487631265268627"><ele>555.0</ele><time>2026-04-11T14:10:34Z</time></trkpt><trkpt lat="43.06064985441624" lon="11.48774807146081"><ele>555.5</ele><time>2026-04-11T14:10:35Z</time></trkpt><trkpt lat="43.06065528461181" lon="11.487869804023806"><ele>556.0</ele><time>2026-04-11T14:10:36Z</time></trkpt><trkpt lat="43.06066057780269" lon="11.488000256794644"><ele>556.0</ele><time>2026-04-11T14:10:37Z</time></trkpt><trkpt lat="43.06066923569592" lon="11.488132663215508"><ele>556.0</ele><time>2026-04-11T14:10:38Z</time></trkpt><trkpt lat="43.060674983729356" lon="11.488266128810233"><ele>556.0</ele><time>2026-04-11T14:10:39Z</time></trkpt><trkpt lat="43.060681549617485" lon="11.488398160456965"><ele>556.0</ele><time>2026-04-11T14:10:40Z</time></trkpt><trkpt lat="43.06068678502106" lon="11.488536234073308"><ele>556.0</ele><time>2026-04-11T14:10:41Z</time></trkpt><trkpt lat="43.060698156787296" lon="11.488677590172815"><ele>553.8</ele><time>2026-04-11T14:10:42Z</time></trkpt><trkpt lat="43.060702291040506" lon="11.488822172216814"><ele>551.6</ele><time>2026-04-11T14:10:43Z</time></trkpt><trkpt lat="43.060702794114775" lon="11.488972562025165"><ele>549.4</ele><time>2026-04-11T14:10:44Z</time></trkpt><trkpt lat="43.060707375016754" lon="11.489116950244162"><ele>547.2</ele><time>2026-04-11T14:10:45Z</time></trkpt><trkpt lat="43.0607088717727" lon="11.489245721812377"><ele>545.0</ele><time>2026-04-11T14:10:46Z</time></trkpt><trkpt lat="43.06071546460358" lon="11.48936512746689"><ele>545.0</ele><time>2026-04-11T14:10:47Z</time></trkpt><trkpt lat="43.06072433263836" lon="11.4894696988176"><ele>545.0</ele><time>2026-04-11T14:10:48Z</time></trkpt><trkpt lat="43.06073149646142" lon="11.489562348385606"><ele>545.0</ele><time>2026-04-11T14:10:49Z</time></trkpt><trkpt lat="43.06073515330697" lon="11.489706311092364"><ele>545.0</ele><time>2026-04-11T14:10:51Z</time></trkpt><trkpt lat="43.0606686234779" lon="11.4897913158149"><ele>545.0</ele><time>2026-04-11T14:10:53Z</time></trkpt><trkpt lat="43.06058493831231" lon="11.489833527285974"><ele>545.0</ele><time>2026-04-11T14:10:55Z</time></trkpt><trkpt lat="43.060540338087925" lon="11.489898374451139"><ele>542.2</ele><time>2026-04-11T14:10:57Z</time></trkpt><trkpt lat="43.06057408810388" lon="11.489996201885237"><ele>539.4</ele><time>2026-04-11T14:10:59Z</time></trkpt><trkpt lat="43.060637798774785" lon="11.49008700412483"><ele>536.6</ele><time>2026-04-11T14:11:01Z</time></trkpt><trkpt lat="43.06066253934722" lon="11.490171723653832"><ele>533.8</ele><time>2026-04-11T14:11:03Z</time></trkpt><trkpt lat="43.060664185718686" lon="11.490263926794025"><ele>531.0</ele><time>2026-04-11T14:11:18Z</time></trkpt><trkpt lat="43.0606703209047" lon="11.490500963184111"><ele>528.0</ele><time>2026-04-11T14:11:24Z</time></trkpt><trkpt lat="43.06070456368245" lon="11.490635998909173"><ele>525.0</ele><time>2026-04-11T14:11:26Z</time></trkpt><trkpt lat="43.06073196100334" lon="11.490749729707085"><ele>522.0</ele><time>2026-04-11T14:11:28Z</time></trkpt><trkpt lat="43.060748123240344" lon="11.490860130260002"><ele>519.0</ele><time>2026-04-11T14:11:30Z</time></trkpt><trkpt lat="43.0607854836277" lon="11.490935478312094"><ele>516.0</ele><time>2026-04-11T14:11:32Z</time></trkpt><trkpt lat="43.06089830188885" lon="11.490954755794691"><ele>516.0</ele><time>2026-04-11T14:11:35Z</time></trkpt><trkpt lat="43.061000545863685" lon="11.49090604038947"><ele>516.0</ele><time>2026-04-11T14:11:37Z</time></trkpt><trkpt lat="43.06109959512825" lon="11.490904832877511"><ele>516.0</ele><time>2026-04-11T14:11:39Z</time></trkpt><trkpt lat="43.06117615636611" lon="11.490857546303628"><ele>516.0</ele><time>2026-04-11T14:11:41Z</time></trkpt><trkpt lat="43.06125051417596" lon="11.490812586280153"><ele>516.0</ele><time>2026-04-11T14:11:43Z</time></trkpt><trkpt lat="43.06133994604834" lon="11.490753259162124"><ele>516.0</ele><time>2026-04-11T14:11:45Z</time></trkpt><trkpt lat="43.061421754061044" lon="11.490714880353151"><ele>516.0</ele><time>2026-04-11T14:11:47Z</time></trkpt><trkpt lat="43.0614933778812" lon="11.490663350197778"><ele>516.0</ele><time>2026-04-11T14:11:49Z</time></trkpt><trkpt lat="43.06156810176734" lon="11.490624029635274"><ele>516.0</ele><time>2026-04-11T14:11:51.001Z</time></trkpt><trkpt lat="43.061632966987354" lon="11.490578505864692"><ele>516.0</ele><time>2026-04-11T14:11:53.001Z</time></trkpt><trkpt lat="43.06168559575181" lon="11.490513207655209"><ele>516.0</ele><time>2026-04-11T14:11:55.001Z</time></trkpt><trkpt lat="43.06172608954512" lon="11.490444732893014"><ele>514.2</ele><time>2026-04-11T14:11:57.001Z</time></trkpt><trkpt lat="43.06178362233829" lon="11.490351697133917"><ele>512.4000000000001</ele><time>2026-04-11T14:11:59.001Z</time></trkpt><trkpt lat="43.061824742508776" lon="11.490277303352844"><ele>510.6</ele><time>2026-04-11T14:12:01.001Z</time></trkpt><trkpt lat="43.06189702427018" lon="11.49017138806137"><ele>508.8</ele><time>2026-04-11T14:12:03.001Z</time></trkpt><trkpt lat="43.06195665638535" lon="11.490056088406181"><ele>507.0</ele><time>2026-04-11T14:12:05.001Z</time></trkpt><trkpt lat="43.062028485358134" lon="11.48992567125462"><ele>507.0</ele><time>2026-04-11T14:12:07.001Z</time></trkpt><trkpt lat="43.062060526940215" lon="11.489765502189506"><ele>507.00000000000006</ele><time>2026-04-11T14:12:09.001Z</time></trkpt><trkpt lat="43.06209936061517" lon="11.489625987938732"><ele>507.00000000000006</ele><time>2026-04-11T14:12:11.001Z</time></trkpt><trkpt lat="43.062128607196506" lon="11.489502931730982"><ele>507.0</ele><time>2026-04-11T14:12:13.001Z</time></trkpt><trkpt lat="43.062148031853255" lon="11.4894031708483"><ele>507.0</ele><time>2026-04-11T14:12:15Z</time></trkpt><trkpt lat="43.062189535281554" lon="11.489299156812386"><ele>507.20000000000005</ele><time>2026-04-11T14:12:54Z</time></trkpt><trkpt lat="43.06221377165965" lon="11.489217805190878"><ele>507.40000000000003</ele><time>2026-04-11T14:12:56Z</time></trkpt><trkpt lat="43.06224817575908" lon="11.489132708599998"><ele>507.59999999999997</ele><time>2026-04-11T14:12:58Z</time></trkpt><trkpt lat="43.06227767723574" lon="11.488996799024257"><ele>507.79999999999995</ele><time>2026-04-11T14:13:00Z</time></trkpt><trkpt lat="43.062302228305235" lon="11.488858402567011"><ele>508.0</ele><time>2026-04-11T14:13:02Z</time></trkpt><trkpt lat="43.06232969822804" lon="11.488685658468416"><ele>508.00000000000006</ele><time>2026-04-11T14:13:04Z</time></trkpt><trkpt lat="43.06234117270665" lon="11.488576910655143"><ele>508.0</ele><time>2026-04-11T14:13:05Z</time></trkpt><trkpt lat="43.06234115722652" lon="11.488469357975765"><ele>508.0</ele><time>2026-04-11T14:13:06Z</time></trkpt><trkpt lat="43.06235217123971" lon="11.488346436318128"><ele>508.0</ele><time>2026-04-11T14:13:07Z</time></trkpt><trkpt lat="43.06235205272822" lon="11.488224607594809"><ele>508.00000000000006</ele><time>2026-04-11T14:13:08Z</time></trkpt><trkpt lat="43.06234413888032" lon="11.488115466547283"><ele>508.0</ele><time>2026-04-11T14:13:09Z</time></trkpt><trkpt lat="43.062340432357765" lon="11.488014235602858"><ele>508.00000000000006</ele><time>2026-04-11T14:13:10Z</time></trkpt><trkpt lat="43.0623489299444" lon="11.487927005219623"><ele>508.0</ele><time>2026-04-11T14:13:11Z</time></trkpt><trkpt lat="43.06236779908814" lon="11.48778734047139"><ele>508.0</ele><time>2026-04-11T14:13:13Z</time></trkpt><trkpt lat="43.06239465427605" lon="11.487708375396435"><ele>508.0</ele><time>2026-04-11T14:13:14Z</time></trkpt><trkpt lat="43.0624236744605" lon="11.487611185357679"><ele>508.00000000000006</ele><time>2026-04-11T14:13:16Z</time></trkpt><trkpt lat="43.06244507555653" lon="11.487515022921055"><ele>508.0</ele><time>2026-04-11T14:13:18Z</time></trkpt><trkpt lat="43.06247749970204" lon="11.487403325254414"><ele>498.59999999999997</ele><time>2026-04-11T14:13:20Z</time></trkpt><trkpt lat="43.062523403879645" lon="11.487299548959493"><ele>489.19999999999993</ele><time>2026-04-11T14:13:22Z</time></trkpt><trkpt lat="43.06258571099615" lon="11.487202614499186"><ele>479.8</ele><time>2026-04-11T14:13:24Z</time></trkpt><trkpt lat="43.06263014206027" lon="11.487096611998465"><ele>470.4</ele><time>2026-04-11T14:13:26Z</time></trkpt><trkpt lat="43.062680023444244" lon="11.487001326928759"><ele>461.0</ele><time>2026-04-11T14:13:28Z</time></trkpt><trkpt lat="43.062741668244385" lon="11.48687948462156"><ele>461.0</ele><time>2026-04-11T14:13:30Z</time></trkpt><trkpt lat="43.06280196184132" lon="11.486751738221356"><ele>461.0</ele><time>2026-04-11T14:13:32Z</time></trkpt><trkpt lat="43.06285237810764" lon="11.486610893981291"><ele>461.0</ele><time>2026-04-11T14:13:34Z</time></trkpt><trkpt lat="43.06290341519226" lon="11.486509876384993"><ele>461.0</ele><time>2026-04-11T14:13:36Z</time></trkpt><trkpt lat="43.06297040091137" lon="11.486423708913904"><ele>461.0</ele><time>2026-04-11T14:13:38Z</time></trkpt><trkpt lat="43.063087514205826" lon="11.486477392888306"><ele>461.0</ele><time>2026-04-11T14:13:40Z</time></trkpt><trkpt lat="43.063130991240165" lon="11.486561045840793"><ele>461.0</ele><time>2026-04-11T14:13:41Z</time></trkpt><trkpt lat="43.06317225845596" lon="11.486628528116183"><ele>461.0</ele><time>2026-04-11T14:13:42Z</time></trkpt><trkpt lat="43.06324777771714" lon="11.486748976976306"><ele>461.0</ele><time>2026-04-11T14:13:44Z</time></trkpt><trkpt lat="43.063331002529374" lon="11.486838425480746"><ele>461.0</ele><time>2026-04-11T14:13:46Z</time></trkpt><trkpt lat="43.06340956519452" lon="11.48693186193639"><ele>454.4</ele><time>2026-04-11T14:13:48Z</time></trkpt><trkpt lat="43.063515621016634" lon="11.486961609943553"><ele>447.8</ele><time>2026-04-11T14:13:50Z</time></trkpt><trkpt lat="43.06361928077685" lon="11.486954575488975"><ele>441.19999999999993</ele><time>2026-04-11T14:13:52Z</time></trkpt><trkpt lat="43.06373468088713" lon="11.486958500867456"><ele>434.59999999999997</ele><time>2026-04-11T14:13:54Z</time></trkpt><trkpt lat="43.06381862192067" lon="11.486944200447642"><ele>428.0</ele><time>2026-04-11T14:13:56Z</time></trkpt><trkpt lat="43.06389297167739" lon="11.48691846112161"><ele>428.0</ele><time>2026-04-11T14:13:58.001Z</time></trkpt><trkpt lat="43.06397345921171" lon="11.4869132979918"><ele>427.99999999999994</ele><time>2026-04-11T14:14:01.001Z</time></trkpt><trkpt lat="43.06400077715403" lon="11.487052659492845"><ele>427.99999999999994</ele><time>2026-04-11T14:14:03.001Z</time></trkpt><trkpt lat="43.06398515616472" lon="11.487153326758138"><ele>428.0</ele><time>2026-04-11T14:14:04.001Z</time></trkpt><trkpt lat="43.06401661720736" lon="11.487316367845237"><ele>428.0</ele><time>2026-04-11T14:14:06.001Z</time></trkpt><trkpt lat="43.064103348803094" lon="11.487464991472589"><ele>423.8333333333333</ele><time>2026-04-11T14:14:08Z</time></trkpt><trkpt lat="43.064146657481714" lon="11.487544401787586"><ele>419.66666666666663</ele><time>2026-04-11T14:14:09Z</time></trkpt><trkpt lat="43.06418534993901" lon="11.487614279542685"><ele>415.5</ele><time>2026-04-11T14:14:10Z</time></trkpt><trkpt lat="43.06422401570493" lon="11.487686760082125"><ele>411.33333333333337</ele><time>2026-04-11T14:14:11Z</time></trkpt><trkpt lat="43.06428164482004" lon="11.487827899940704"><ele>407.1666666666667</ele><time>2026-04-11T14:14:13Z</time></trkpt><trkpt lat="43.06433873823042" lon="11.487959636917985"><ele>403.0</ele><time>2026-04-11T14:14:15Z</time></trkpt><trkpt lat="43.06438828173344" lon="11.4880931428937"><ele>403.0</ele><time>2026-04-11T14:14:17Z</time></trkpt><trkpt lat="43.064415425235744" lon="11.488238706330122"><ele>403.0</ele><time>2026-04-11T14:14:19Z</time></trkpt><trkpt lat="43.06445748147017" lon="11.488362495976332"><ele>403.0</ele><time>2026-04-11T14:14:21Z</time></trkpt><trkpt lat="43.06449225173201" lon="11.488474632178445"><ele>403.0</ele><time>2026-04-11T14:14:23Z</time></trkpt><trkpt lat="43.06448790466274" lon="11.48860137474033"><ele>403.0</ele><time>2026-04-11T14:14:25Z</time></trkpt><trkpt lat="43.06446238286081" lon="11.488686336349334"><ele>401.0</ele><time>2026-04-11T14:14:26Z</time></trkpt><trkpt lat="43.06441770895506" lon="11.488829182461426"><ele>399.0</ele><time>2026-04-11T14:14:28Z</time></trkpt><trkpt lat="43.064390910455124" lon="11.48894582178877"><ele>397.0</ele><time>2026-04-11T14:14:30Z</time></trkpt><trkpt lat="43.06437878474528" lon="11.489066278586666"><ele>395.0</ele><time>2026-04-11T14:14:32Z</time></trkpt><trkpt lat="43.064355809574934" lon="11.489180333965766"><ele>393.0</ele><time>2026-04-11T14:14:34Z</time></trkpt><trkpt lat="43.06434047779233" lon="11.48931656330673"><ele>393.0</ele><time>2026-04-11T14:14:36Z</time></trkpt><trkpt lat="43.06432053675274" lon="11.489454002034933"><ele>393.0</ele><time>2026-04-11T14:14:38Z</time></trkpt><trkpt lat="43.064313442625036" lon="11.489560910857817"><ele>393.0</ele><time>2026-04-11T14:14:40Z</time></trkpt><trkpt lat="43.064330644958545" lon="11.489687568707147"><ele>393.0</ele><time>2026-04-11T14:14:43Z</time></trkpt><trkpt lat="43.064349616952235" lon="11.489778417216934"><ele>393.0</ele><time>2026-04-11T14:14:45Z</time></trkpt><trkpt lat="43.064424894687654" lon="11.489847616946278"><ele>393.0</ele><time>2026-04-11T14:14:47Z</time></trkpt><trkpt lat="43.06448816905936" lon="11.489861659295945"><ele>393.0</ele><time>2026-04-11T14:14:54Z</time></trkpt><trkpt lat="43.06456847677249" lon="11.489726578332112"><ele>393.0</ele><time>2026-04-11T14:14:56Z</time></trkpt><trkpt lat="43.06463179911489" lon="11.489667289798238"><ele>393.0</ele><time>2026-04-11T14:14:57Z</time></trkpt><trkpt lat="43.06471710827458" lon="11.489639067126138"><ele>393.0</ele><time>2026-04-11T14:14:58Z</time></trkpt><trkpt lat="43.06478463598232" lon="11.489581866236536"><ele>393.0</ele><time>2026-04-11T14:14:59Z</time></trkpt><trkpt lat="43.0648415237145" lon="11.489495538701876"><ele>393.0</ele><time>2026-04-11T14:15:00Z</time></trkpt><trkpt lat="43.06489290167102" lon="11.489390810383016"><ele>393.0</ele><time>2026-04-11T14:15:01Z</time></trkpt><trkpt lat="43.06493356836995" lon="11.489290372501342"><ele>393.0</ele><time>2026-04-11T14:15:02Z</time></trkpt><trkpt lat="43.06498571715995" lon="11.489203513894278"><ele>393.0</ele><time>2026-04-11T14:15:03Z</time></trkpt><trkpt lat="43.06503364243932" lon="11.489123418910829"><ele>393.0</ele><time>2026-04-11T14:15:04Z</time></trkpt><trkpt lat="43.065077055691496" lon="11.489039768020238"><ele>393.0</ele><time>2026-04-11T14:15:05Z</time></trkpt><trkpt lat="43.06513287092763" lon="11.48896405091383"><ele>388.2</ele><time>2026-04-11T14:15:06Z</time></trkpt><trkpt lat="43.06519699902125" lon="11.488893188682114"><ele>383.4</ele><time>2026-04-11T14:15:07Z</time></trkpt><trkpt lat="43.06525887398716" lon="11.488840659107336"><ele>378.59999999999997</ele><time>2026-04-11T14:15:08Z</time></trkpt><trkpt lat="43.06533988480863" lon="11.48875837844154"><ele>373.79999999999995</ele><time>2026-04-11T14:15:10Z</time></trkpt><trkpt lat="43.06542970630693" lon="11.488678773302373"><ele>369.0</ele><time>2026-04-11T14:15:12Z</time></trkpt><trkpt lat="43.065522356799356" lon="11.488588754737489"><ele>369.0</ele><time>2026-04-11T14:15:14Z</time></trkpt><trkpt lat="43.06559251613693" lon="11.488507667089367"><ele>369.0</ele><time>2026-04-11T14:15:16Z</time></trkpt><trkpt lat="43.06564546918607" lon="11.488451499146146"><ele>369.0</ele><time>2026-04-11T14:15:18Z</time></trkpt><trkpt lat="43.06571102013255" lon="11.488401312111305"><ele>369.0</ele><time>2026-04-11T14:15:44Z</time></trkpt><trkpt lat="43.0657701933569" lon="11.488353885525617"><ele>369.0</ele><time>2026-04-11T14:15:46Z</time></trkpt><trkpt lat="43.06584280365934" lon="11.488301618655449"><ele>369.0</ele><time>2026-04-11T14:15:48Z</time></trkpt><trkpt lat="43.06590671241365" lon="11.488240528271785"><ele>364.6666666666667</ele><time>2026-04-11T14:15:50Z</time></trkpt><trkpt lat="43.06597413034224" lon="11.48819357453858"><ele>360.3333333333333</ele><time>2026-04-11T14:15:52Z</time></trkpt><trkpt lat="43.066068164602626" lon="11.488203290951143"><ele>356.0</ele><time>2026-04-11T14:15:54Z</time></trkpt><trkpt lat="43.0661319996156" lon="11.48824085083105"><ele>351.66666666666663</ele><time>2026-04-11T14:15:55Z</time></trkpt><trkpt lat="43.06619105440417" lon="11.488278036786467"><ele>347.3333333333333</ele><time>2026-04-11T14:15:56Z</time></trkpt><trkpt lat="43.0662849828945" lon="11.488346567470352"><ele>343.0</ele><time>2026-04-11T14:15:58Z</time></trkpt><trkpt lat="43.06639623284717" lon="11.48840376547362"><ele>343.0</ele><time>2026-04-11T14:16:00Z</time></trkpt><trkpt lat="43.06649038245487" lon="11.488435666665131"><ele>343.0</ele><time>2026-04-11T14:16:01.999Z</time></trkpt><trkpt lat="43.06655989473095" lon="11.488340766391165"><ele>343.0</ele><time>2026-04-11T14:16:04Z</time></trkpt><trkpt lat="43.06658839537262" lon="11.48825528152537"><ele>343.0</ele><time>2026-04-11T14:16:05Z</time></trkpt><trkpt lat="43.066694451896886" lon="11.48815877748249"><ele>343.0</ele><time>2026-04-11T14:16:07Z</time></trkpt><trkpt lat="43.0667731380745" lon="11.488165256653351"><ele>339.5</ele><time>2026-04-11T14:16:08Z</time></trkpt><trkpt lat="43.06684839560408" lon="11.488174819419555"><ele>336.0</ele><time>2026-04-11T14:16:09Z</time></trkpt><trkpt lat="43.06692297764275" lon="11.488179464685588"><ele>332.5</ele><time>2026-04-11T14:16:10Z</time></trkpt><trkpt lat="43.06699749931559" lon="11.488178157109374"><ele>329.0</ele><time>2026-04-11T14:16:11Z</time></trkpt><trkpt lat="43.06708178236487" lon="11.488181128354912"><ele>325.5</ele><time>2026-04-11T14:16:12Z</time></trkpt><trkpt lat="43.06717153958428" lon="11.4881880468088"><ele>322.0</ele><time>2026-04-11T14:16:13Z</time></trkpt><trkpt lat="43.0672664329087" lon="11.488191421754784"><ele>322.0</ele><time>2026-04-11T14:16:14Z</time></trkpt><trkpt lat="43.06736308520917" lon="11.488199494280567"><ele>322.0</ele><time>2026-04-11T14:16:15Z</time></trkpt><trkpt lat="43.0674609366049" lon="11.488203722517122"><ele>322.0</ele><time>2026-04-11T14:16:16Z</time></trkpt><trkpt lat="43.06758164403446" lon="11.488213379906156"><ele>322.0</ele><time>2026-04-11T14:16:17Z</time></trkpt><trkpt lat="43.06771028448581" lon="11.488218643893545"><ele>322.0</ele><time>2026-04-11T14:16:18Z</time></trkpt><trkpt lat="43.06781993967117" lon="11.488215558461581"><ele>319.40000000000003</ele><time>2026-04-11T14:16:19Z</time></trkpt><trkpt lat="43.067935392879434" lon="11.488229596132404"><ele>316.8</ele><time>2026-04-11T14:16:20Z</time></trkpt><trkpt lat="43.068047520796746" lon="11.488246321687809"><ele>314.2</ele><time>2026-04-11T14:16:21Z</time></trkpt><trkpt lat="43.06815591036279" lon="11.488242759075215"><ele>311.6</ele><time>2026-04-11T14:16:22Z</time></trkpt><trkpt lat="43.06825946919315" lon="11.488245499002549"><ele>309.0</ele><time>2026-04-11T14:16:23Z</time></trkpt><trkpt lat="43.068363854855" lon="11.488254949683583"><ele>306.8</ele><time>2026-04-11T14:16:24Z</time></trkpt><trkpt lat="43.06846326133436" lon="11.488247150677054"><ele>304.59999999999997</ele><time>2026-04-11T14:16:25Z</time></trkpt><trkpt lat="43.06855953107031" lon="11.488243036862391"><ele>302.4</ele><time>2026-04-11T14:16:26Z</time></trkpt><trkpt lat="43.068655354250005" lon="11.488234194793483"><ele>300.2</ele><time>2026-04-11T14:16:27Z</time></trkpt><trkpt lat="43.06875445007778" lon="11.488236447706575"><ele>298.0</ele><time>2026-04-11T14:16:28Z</time></trkpt><trkpt lat="43.06885400881124" lon="11.48824882895587"><ele>298.0</ele><time>2026-04-11T14:16:29Z</time></trkpt><trkpt lat="43.06896351044175" lon="11.488243445889202"><ele>298.0</ele><time>2026-04-11T14:16:30Z</time></trkpt><trkpt lat="43.069067767889095" lon="11.488245225111697"><ele>298.0</ele><time>2026-04-11T14:16:31Z</time></trkpt><trkpt lat="43.06918026323511" lon="11.488225642390583"><ele>298.0</ele><time>2026-04-11T14:16:32Z</time></trkpt><trkpt lat="43.06929652385255" lon="11.488203355456466"><ele>298.0</ele><time>2026-04-11T14:16:33Z</time></trkpt><trkpt lat="43.06940790040973" lon="11.488189417523182"><ele>296.0</ele><time>2026-04-11T14:16:34Z</time></trkpt><trkpt lat="43.06951628955046" lon="11.488175453404827"><ele>294.0</ele><time>2026-04-11T14:16:35Z</time></trkpt><trkpt lat="43.069629602500385" lon="11.488151226968087"><ele>292.0</ele><time>2026-04-11T14:16:36Z</time></trkpt><trkpt lat="43.06974675242867" lon="11.488136620642171"><ele>290.0</ele><time>2026-04-11T14:16:37Z</time></trkpt><trkpt lat="43.06986912633229" lon="11.488126182613613"><ele>287.5</ele><time>2026-04-11T14:16:38Z</time></trkpt><trkpt lat="43.0699883605219" lon="11.488108395564169"><ele>285.0</ele><time>2026-04-11T14:16:39Z</time></trkpt><trkpt lat="43.070112260373726" lon="11.488095444607138"><ele>282.5</ele><time>2026-04-11T14:16:40Z</time></trkpt><trkpt lat="43.07023356728824" lon="11.488088682495068"><ele>280.0</ele><time>2026-04-11T14:16:41Z</time></trkpt><trkpt lat="43.07035877791185" lon="11.488076424802536"><ele>280.0</ele><time>2026-04-11T14:16:42Z</time></trkpt><trkpt lat="43.07048575048058" lon="11.488067549734483"><ele>280.0</ele><time>2026-04-11T14:16:43Z</time></trkpt><trkpt lat="43.07062187473818" lon="11.48805762155646"><ele>280.0</ele><time>2026-04-11T14:16:44Z</time></trkpt><trkpt lat="43.07075014395619" lon="11.48802322025913"><ele>280.0</ele><time>2026-04-11T14:16:45Z</time></trkpt><trkpt lat="43.070876939483604" lon="11.487990168553727"><ele>277.25</ele><time>2026-04-11T14:16:46Z</time></trkpt><trkpt lat="43.0710083367893" lon="11.48794911836028"><ele>274.5</ele><time>2026-04-11T14:16:47Z</time></trkpt><trkpt lat="43.07113256951189" lon="11.48790472285614"><ele>271.75</ele><time>2026-04-11T14:16:48Z</time></trkpt><trkpt lat="43.07125770270648" lon="11.487860429492644"><ele>269.0</ele><time>2026-04-11T14:16:49Z</time></trkpt><trkpt lat="43.07137440043699" lon="11.487800626318425"><ele>268.5</ele><time>2026-04-11T14:16:50Z</time></trkpt><trkpt lat="43.07148525212612" lon="11.487738497504596"><ele>268.0</ele><time>2026-04-11T14:16:51Z</time></trkpt><trkpt lat="43.07160116702813" lon="11.48769018809968"><ele>267.5</ele><time>2026-04-11T14:16:52Z</time></trkpt><trkpt lat="43.071704019805935" lon="11.4876393981354"><ele>267.0</ele><time>2026-04-11T14:16:53Z</time></trkpt><trkpt lat="43.07180986273532" lon="11.487582952463168"><ele>266.0</ele><time>2026-04-11T14:16:54Z</time></trkpt><trkpt lat="43.07191603443467" lon="11.487534638903547"><ele>265.0</ele><time>2026-04-11T14:16:55Z</time></trkpt><trkpt lat="43.07202173916893" lon="11.487484034279648"><ele>264.0</ele><time>2026-04-11T14:16:56Z</time></trkpt><trkpt lat="43.07212966625598" lon="11.48745019877569"><ele>263.0</ele><time>2026-04-11T14:16:57Z</time></trkpt><trkpt lat="43.07223952188562" lon="11.48741319893862"><ele>262.0</ele><time>2026-04-11T14:16:58Z</time></trkpt><trkpt lat="43.07235815939166" lon="11.487391752573691"><ele>260.5</ele><time>2026-04-11T14:16:59Z</time></trkpt><trkpt lat="43.072480289933246" lon="11.487372289036024"><ele>259.0</ele><time>2026-04-11T14:17:00Z</time></trkpt><trkpt lat="43.072601594389305" lon="11.48735227276575"><ele>257.5</ele><time>2026-04-11T14:17:01Z</time></trkpt><trkpt lat="43.07272513425237" lon="11.487335044230754"><ele>256.0</ele><time>2026-04-11T14:17:02Z</time></trkpt><trkpt lat="43.072853409101754" lon="11.487316505624609"><ele>256.0</ele><time>2026-04-11T14:17:03Z</time></trkpt><trkpt lat="43.072982114067685" lon="11.48729096855773"><ele>256.0</ele><time>2026-04-11T14:17:04Z</time></trkpt><trkpt lat="43.07310439865325" lon="11.48727434030451"><ele>256.0</ele><time>2026-04-11T14:17:05Z</time></trkpt><trkpt lat="43.07323497143361" lon="11.487256065832625"><ele>256.0</ele><time>2026-04-11T14:17:06Z</time></trkpt><trkpt lat="43.07335794851576" lon="11.487230799770582"><ele>254.75</ele><time>2026-04-11T14:17:07Z</time></trkpt><trkpt lat="43.07348043578771" lon="11.487212259473994"><ele>253.5</ele><time>2026-04-11T14:17:08Z</time></trkpt><trkpt lat="43.07360389158975" lon="11.487181798284757"><ele>252.25</ele><time>2026-04-11T14:17:09Z</time></trkpt><trkpt lat="43.07372991567463" lon="11.487164186266845"><ele>251.0</ele><time>2026-04-11T14:17:10Z</time></trkpt><trkpt lat="43.07384793991471" lon="11.487137940784681"><ele>251.00000000000003</ele><time>2026-04-11T14:17:11Z</time></trkpt><trkpt lat="43.073949765939915" lon="11.487127475663415"><ele>251.0</ele><time>2026-04-11T14:17:12Z</time></trkpt><trkpt lat="43.07403792054648" lon="11.487118244035887"><ele>251.0</ele><time>2026-04-11T14:17:13Z</time></trkpt><trkpt lat="43.07411170855203" lon="11.487114880172234"><ele>251.0</ele><time>2026-04-11T14:17:14Z</time></trkpt><trkpt lat="43.07417458344961" lon="11.487097273639707"><ele>251.00000000000003</ele><time>2026-04-11T14:17:15Z</time></trkpt><trkpt lat="43.07426073610576" lon="11.487085343410326"><ele>251.0</ele><time>2026-04-11T14:17:17Z</time></trkpt><trkpt lat="43.07432030770177" lon="11.487043038854035"><ele>250.16666666666669</ele><time>2026-04-11T14:17:33Z</time></trkpt><trkpt lat="43.074384265916066" lon="11.486968346349455"><ele>249.33333333333334</ele><time>2026-04-11T14:17:36Z</time></trkpt><trkpt lat="43.07443340649099" lon="11.486907543611393"><ele>248.5</ele><time>2026-04-11T14:17:38Z</time></trkpt><trkpt lat="43.07448922578389" lon="11.486828940375432"><ele>247.66666666666669</ele><time>2026-04-11T14:17:40Z</time></trkpt><trkpt lat="43.07455162816571" lon="11.486763613284625"><ele>246.83333333333334</ele><time>2026-04-11T14:17:42Z</time></trkpt><trkpt lat="43.07461973728412" lon="11.48671087321313"><ele>246.0</ele><time>2026-04-11T14:17:44Z</time></trkpt><trkpt lat="43.07468320167513" lon="11.486672813390568"><ele>246.0</ele><time>2026-04-11T14:17:46Z</time></trkpt><trkpt lat="43.07475756412171" lon="11.48669715224239"><ele>246.0</ele><time>2026-04-11T14:17:48Z</time></trkpt><trkpt lat="43.07482891904722" lon="11.486755977005608"><ele>246.0</ele><time>2026-04-11T14:17:50Z</time></trkpt><trkpt lat="43.074898438378135" lon="11.486796332907126"><ele>246.0</ele><time>2026-04-11T14:17:52Z</time></trkpt><trkpt lat="43.07496548548355" lon="11.486850880700048"><ele>246.0</ele><time>2026-04-11T14:17:54Z</time></trkpt><trkpt lat="43.07503131622599" lon="11.486907921407955"><ele>246.0</ele><time>2026-04-11T14:17:56Z</time></trkpt><trkpt lat="43.07510593923335" lon="11.486963870247502"><ele>246.0</ele><time>2026-04-11T14:17:58Z</time></trkpt><trkpt lat="43.07517651073527" lon="11.487015666602677"><ele>246.0</ele><time>2026-04-11T14:18:00Z</time></trkpt><trkpt lat="43.07524715399539" lon="11.487067119948707"><ele>246.0</ele><time>2026-04-11T14:18:01.999Z</time></trkpt><trkpt lat="43.07531358320091" lon="11.487120664191233"><ele>246.0</ele><time>2026-04-11T14:18:03.999Z</time></trkpt><trkpt lat="43.0753790936985" lon="11.487174486414379"><ele>246.0</ele><time>2026-04-11T14:18:05.999Z</time></trkpt><trkpt lat="43.07544339681862" lon="11.487223108679826"><ele>246.0</ele><time>2026-04-11T14:18:07.999Z</time></trkpt><trkpt lat="43.07550907593472" lon="11.48725898701175"><ele>246.0</ele><time>2026-04-11T14:18:10Z</time></trkpt><trkpt lat="43.07557646589161" lon="11.487307814471851"><ele>246.0</ele><time>2026-04-11T14:18:12Z</time></trkpt><trkpt lat="43.075636100131334" lon="11.487359927281394"><ele>246.0</ele><time>2026-04-11T14:18:14Z</time></trkpt><trkpt lat="43.07570785188631" lon="11.48737844116404"><ele>246.0</ele><time>2026-04-11T14:18:16Z</time></trkpt><trkpt lat="43.07576861742802" lon="11.48740598950486"><ele>246.0</ele><time>2026-04-11T14:18:18Z</time></trkpt><trkpt lat="43.07586393040512" lon="11.487421174609299"><ele>246.0</ele><time>2026-04-11T14:18:21Z</time></trkpt><trkpt lat="43.075947927134" lon="11.487429744322739"><ele>246.5</ele><time>2026-04-11T14:18:24Z</time></trkpt><trkpt lat="43.07601867685642" lon="11.487427228660767"><ele>247.0</ele><time>2026-04-11T14:18:27Z</time></trkpt><trkpt lat="43.07609595754703" lon="11.487412445155822"><ele>247.5</ele><time>2026-04-11T14:18:31Z</time></trkpt><trkpt lat="43.07617586670685" lon="11.487402680312963"><ele>248.0</ele><time>2026-04-11T14:18:35Z</time></trkpt><trkpt lat="43.07624591127234" lon="11.487391133668737"><ele>248.5</ele><time>2026-04-11T14:18:38Z</time></trkpt><trkpt lat="43.076330453353606" lon="11.487377504775788"><ele>249.0</ele><time>2026-04-11T14:18:41Z</time></trkpt><trkpt lat="43.076416050111995" lon="11.48737379383658"><ele>249.0</ele><time>2026-04-11T14:18:44Z</time></trkpt><trkpt lat="43.07650668012678" lon="11.487352901866801"><ele>249.0</ele><time>2026-04-11T14:18:47Z</time></trkpt><trkpt lat="43.07659619516525" lon="11.48734492416501"><ele>249.0</ele><time>2026-04-11T14:18:50Z</time></trkpt><trkpt lat="43.07668352599763" lon="11.487325706776149"><ele>249.0</ele><time>2026-04-11T14:18:53Z</time></trkpt><trkpt lat="43.07674738108691" lon="11.487324694883755"><ele>249.0</ele><time>2026-04-11T14:18:55Z</time></trkpt><trkpt lat="43.07681287897671" lon="11.487322585258092"><ele>249.0</ele><time>2026-04-11T14:18:57Z</time></trkpt><trkpt lat="43.076888292602824" lon="11.487307076405093"><ele>249.5</ele><time>2026-04-11T14:18:59Z</time></trkpt><trkpt lat="43.076969078318264" lon="11.48729976554111"><ele>250.0</ele><time>2026-04-11T14:19:01Z</time></trkpt><trkpt lat="43.07704188845062" lon="11.487298504813728"><ele>250.5</ele><time>2026-04-11T14:19:03Z</time></trkpt><trkpt lat="43.077127571205494" lon="11.487289311703726"><ele>251.0</ele><time>2026-04-11T14:19:05Z</time></trkpt><trkpt lat="43.07720973165516" lon="11.487296667954752"><ele>251.5</ele><time>2026-04-11T14:19:07Z</time></trkpt><trkpt lat="43.077313757296956" lon="11.487306143192912"><ele>252.0</ele><time>2026-04-11T14:19:09Z</time></trkpt><trkpt lat="43.077385883278254" lon="11.487382215874089"><ele>251.83333333333334</ele><time>2026-04-11T14:19:11Z</time></trkpt><trkpt lat="43.07744826108151" lon="11.48751835756008"><ele>251.66666666666669</ele><time>2026-04-11T14:19:13Z</time></trkpt><trkpt lat="43.07745421105314" lon="11.487609201652312"><ele>251.5</ele><time>2026-04-11T14:19:14Z</time></trkpt><trkpt lat="43.07745940952593" lon="11.487699626503554"><ele>251.33333333333334</ele><time>2026-04-11T14:19:15Z</time></trkpt><trkpt lat="43.077458430076334" lon="11.487799846472894"><ele>251.16666666666669</ele><time>2026-04-11T14:19:16Z</time></trkpt><trkpt lat="43.07745114622627" lon="11.487906132964499"><ele>251.0</ele><time>2026-04-11T14:19:17Z</time></trkpt><trkpt lat="43.07744204977805" lon="11.488007936227826"><ele>250.66666666666669</ele><time>2026-04-11T14:19:18Z</time></trkpt><trkpt lat="43.07742612085976" lon="11.488110391600264"><ele>250.33333333333334</ele><time>2026-04-11T14:19:19Z</time></trkpt><trkpt lat="43.07741013826604" lon="11.488213384541881"><ele>250.0</ele><time>2026-04-11T14:19:20Z</time></trkpt><trkpt lat="43.07739707865427" lon="11.488315523322482"><ele>249.66666666666669</ele><time>2026-04-11T14:19:21Z</time></trkpt><trkpt lat="43.07737847031728" lon="11.48842543950028"><ele>249.33333333333334</ele><time>2026-04-11T14:19:22Z</time></trkpt><trkpt lat="43.077360127937126" lon="11.488529464870846"><ele>249.0</ele><time>2026-04-11T14:19:23Z</time></trkpt><trkpt lat="43.077332357288746" lon="11.48862947207586"><ele>249.0</ele><time>2026-04-11T14:19:24Z</time></trkpt><trkpt lat="43.07731325704123" lon="11.488729408755983"><ele>249.0</ele><time>2026-04-11T14:19:25Z</time></trkpt><trkpt lat="43.0772895140256" lon="11.488836311100819"><ele>249.0</ele><time>2026-04-11T14:19:26Z</time></trkpt><trkpt lat="43.0772670481068" lon="11.488935044476392"><ele>249.0</ele><time>2026-04-11T14:19:27Z</time></trkpt><trkpt lat="43.07725749012284" lon="11.489044292133016"><ele>249.0</ele><time>2026-04-11T14:19:28Z</time></trkpt><trkpt lat="43.077267723256405" lon="11.489157382217222"><ele>249.0</ele><time>2026-04-11T14:19:29Z</time></trkpt><trkpt lat="43.07730009614914" lon="11.489262873127501"><ele>248.66666666666666</ele><time>2026-04-11T14:19:30Z</time></trkpt><trkpt lat="43.07734658410933" lon="11.48935510774136"><ele>248.33333333333331</ele><time>2026-04-11T14:19:31Z</time></trkpt><trkpt lat="43.07739383917775" lon="11.489427677358261"><ele>248.0</ele><time>2026-04-11T14:19:32Z</time></trkpt><trkpt lat="43.07742851655587" lon="11.48950830235498"><ele>247.66666666666666</ele><time>2026-04-11T14:19:33Z</time></trkpt><trkpt lat="43.07746399196848" lon="11.489664185050488"><ele>247.33333333333331</ele><time>2026-04-11T14:19:35Z</time></trkpt><trkpt lat="43.077468652232525" lon="11.48979722453852"><ele>247.0</ele><time>2026-04-11T14:19:37Z</time></trkpt><trkpt lat="43.07746973564489" lon="11.489924852876534"><ele>247.0</ele><time>2026-04-11T14:19:39Z</time></trkpt><trkpt lat="43.077480328259455" lon="11.490056550056693"><ele>247.0</ele><time>2026-04-11T14:19:41Z</time></trkpt><trkpt lat="43.077487743679505" lon="11.490186633168683"><ele>247.0</ele><time>2026-04-11T14:19:43Z</time></trkpt><trkpt lat="43.07748697584338" lon="11.490310161736737"><ele>247.0</ele><time>2026-04-11T14:19:45Z</time></trkpt><trkpt lat="43.07748272550435" lon="11.490433985362639"><ele>247.0</ele><time>2026-04-11T14:19:47Z</time></trkpt><trkpt lat="43.07749213539106" lon="11.490550953074008"><ele>246.99999999999997</ele><time>2026-04-11T14:19:49Z</time></trkpt><trkpt lat="43.07749130088271" lon="11.490672672858505"><ele>247.0</ele><time>2026-04-11T14:19:51Z</time></trkpt><trkpt lat="43.07749517028151" lon="11.490785204544578"><ele>247.0</ele><time>2026-04-11T14:19:53Z</time></trkpt><trkpt lat="43.0775096795511" lon="11.490887566526066"><ele>247.0</ele><time>2026-04-11T14:19:55Z</time></trkpt><trkpt lat="43.07755251053216" lon="11.49097540393096"><ele>246.99999999999997</ele><time>2026-04-11T14:19:57Z</time></trkpt><trkpt lat="43.0776387353587" lon="11.49104064044714"><ele>247.0</ele><time>2026-04-11T14:19:58.999Z</time></trkpt><trkpt lat="43.07770206359397" lon="11.491050792744542"><ele>247.0</ele><time>2026-04-11T14:19:59.999Z</time></trkpt><trkpt lat="43.07783436378931" lon="11.491078037632322"><ele>247.0</ele><time>2026-04-11T14:20:01.999Z</time></trkpt><trkpt lat="43.07791106677784" lon="11.491091869108354"><ele>247.0</ele><time>2026-04-11T14:20:02.999Z</time></trkpt><trkpt lat="43.077984855401965" lon="11.491111051985094"><ele>247.0</ele><time>2026-04-11T14:20:03.999Z</time></trkpt><trkpt lat="43.07809189184022" lon="11.491157165919947"><ele>247.0</ele><time>2026-04-11T14:20:05.999Z</time></trkpt><trkpt lat="43.07816479416397" lon="11.491178042756506"><ele>247.0</ele><time>2026-04-11T14:20:08.999Z</time></trkpt><trkpt lat="43.078222835602595" lon="11.491053679304349"><ele>247.0</ele><time>2026-04-11T14:20:11.999Z</time></trkpt><trkpt lat="43.078252898091044" lon="11.490926125251091"><ele>247.0</ele><time>2026-04-11T14:20:13.999Z</time></trkpt><trkpt lat="43.0783068646463" lon="11.490785076974404"><ele>247.0</ele><time>2026-04-11T14:20:16Z</time></trkpt><trkpt lat="43.07837110773971" lon="11.490628581504131"><ele>246.0</ele><time>2026-04-11T14:20:18Z</time></trkpt><trkpt lat="43.07840584408342" lon="11.49054627576973"><ele>245.0</ele><time>2026-04-11T14:20:19Z</time></trkpt><trkpt lat="43.07843611863512" lon="11.490460398678382"><ele>244.0</ele><time>2026-04-11T14:20:20Z</time></trkpt><trkpt lat="43.07846810833609" lon="11.490367909911214"><ele>243.0</ele><time>2026-04-11T14:20:21Z</time></trkpt><trkpt lat="43.078497037024974" lon="11.49027350732451"><ele>242.0</ele><time>2026-04-11T14:20:22Z</time></trkpt><trkpt lat="43.07851417784963" lon="11.490172990954353"><ele>241.0</ele><time>2026-04-11T14:20:23Z</time></trkpt><trkpt lat="43.07852586198825" lon="11.490068071003092"><ele>240.0</ele><time>2026-04-11T14:20:24Z</time></trkpt><trkpt lat="43.07852761479768" lon="11.489961419608525"><ele>240.0</ele><time>2026-04-11T14:20:25Z</time></trkpt><trkpt lat="43.07851850947193" lon="11.489852600839322"><ele>240.0</ele><time>2026-04-11T14:20:26Z</time></trkpt><trkpt lat="43.078499972676745" lon="11.489744957947153"><ele>240.0</ele><time>2026-04-11T14:20:27Z</time></trkpt><trkpt lat="43.078470251721455" lon="11.489640246978274"><ele>240.0</ele><time>2026-04-11T14:20:28Z</time></trkpt><trkpt lat="43.07843519353667" lon="11.489534301966785"><ele>240.0</ele><time>2026-04-11T14:20:29Z</time></trkpt><trkpt lat="43.07840503600947" lon="11.489426426158408"><ele>240.0</ele><time>2026-04-11T14:20:30Z</time></trkpt><trkpt lat="43.07837768998256" lon="11.489312400637619"><ele>239.6</ele><time>2026-04-11T14:20:31Z</time></trkpt><trkpt lat="43.07836009896822" lon="11.48919147149155"><ele>239.2</ele><time>2026-04-11T14:20:32Z</time></trkpt><trkpt lat="43.07835691241409" lon="11.489064513252186"><ele>238.8</ele><time>2026-04-11T14:20:33Z</time></trkpt><trkpt lat="43.07836513241477" lon="11.488936176793539"><ele>238.4</ele><time>2026-04-11T14:20:34Z</time></trkpt><trkpt lat="43.078389490968654" lon="11.488812089521003"><ele>238.0</ele><time>2026-04-11T14:20:35Z</time></trkpt><trkpt lat="43.07843514877282" lon="11.488696113254584"><ele>238.0</ele><time>2026-04-11T14:20:36Z</time></trkpt><trkpt lat="43.078497998618204" lon="11.48859516174836"><ele>238.0</ele><time>2026-04-11T14:20:37Z</time></trkpt><trkpt lat="43.07857512128589" lon="11.4885119713272"><ele>238.0</ele><time>2026-04-11T14:20:38Z</time></trkpt><trkpt lat="43.078664825177874" lon="11.488450222584966"><ele>238.0</ele><time>2026-04-11T14:20:39Z</time></trkpt><trkpt lat="43.07875938859149" lon="11.488402429321"><ele>238.0</ele><time>2026-04-11T14:20:40Z</time></trkpt><trkpt lat="43.07885396320385" lon="11.488350166930072"><ele>238.0</ele><time>2026-04-11T14:20:41Z</time></trkpt><trkpt lat="43.07894702389417" lon="11.488285843033744"><ele>238.0</ele><time>2026-04-11T14:20:42Z</time></trkpt><trkpt lat="43.07904151533543" lon="11.488215472692158"><ele>238.0</ele><time>2026-04-11T14:20:43Z</time></trkpt><trkpt lat="43.0791384154653" lon="11.488149671713515"><ele>238.0</ele><time>2026-04-11T14:20:44Z</time></trkpt><trkpt lat="43.07923653343529" lon="11.488079198257227"><ele>238.0</ele><time>2026-04-11T14:20:45Z</time></trkpt><trkpt lat="43.079333474798624" lon="11.488006156112005"><ele>238.0</ele><time>2026-04-11T14:20:46Z</time></trkpt><trkpt lat="43.07943112375597" lon="11.487925812158782"><ele>238.0</ele><time>2026-04-11T14:20:47Z</time></trkpt><trkpt lat="43.079529748784815" lon="11.48785038211812"><ele>238.0</ele><time>2026-04-11T14:20:48Z</time></trkpt><trkpt lat="43.079622896056975" lon="11.487768851224557"><ele>238.0</ele><time>2026-04-11T14:20:49Z</time></trkpt><trkpt lat="43.07971558674129" lon="11.487682375022406"><ele>238.0</ele><time>2026-04-11T14:20:50Z</time></trkpt><trkpt lat="43.07980442381665" lon="11.487590627928967"><ele>238.0</ele><time>2026-04-11T14:20:51Z</time></trkpt><trkpt lat="43.07988647656705" lon="11.487484526021694"><ele>238.0</ele><time>2026-04-11T14:20:52Z</time></trkpt><trkpt lat="43.0799570245238" lon="11.487364169892933"><ele>238.0</ele><time>2026-04-11T14:20:53Z</time></trkpt><trkpt lat="43.0800178810788" lon="11.487235171840902"><ele>238.0</ele><time>2026-04-11T14:20:54Z</time></trkpt><trkpt lat="43.08007117646596" lon="11.48710274313192"><ele>236.0</ele><time>2026-04-11T14:20:55Z</time></trkpt><trkpt lat="43.08012519768755" lon="11.486965591885955"><ele>234.0</ele><time>2026-04-11T14:20:56Z</time></trkpt><trkpt lat="43.08017808970561" lon="11.486832701885648"><ele>232.0</ele><time>2026-04-11T14:20:57Z</time></trkpt><trkpt lat="43.08024216197408" lon="11.486707838875164"><ele>230.0</ele><time>2026-04-11T14:20:58Z</time></trkpt><trkpt lat="43.08031269037872" lon="11.48657887988712"><ele>230.0</ele><time>2026-04-11T14:20:59Z</time></trkpt><trkpt lat="43.0803981601051" lon="11.486464544565644"><ele>230.0</ele><time>2026-04-11T14:21:00Z</time></trkpt><trkpt lat="43.08048272909046" lon="11.486354444232266"><ele>230.0</ele><time>2026-04-11T14:21:01Z</time></trkpt><trkpt lat="43.08057233467153" lon="11.486253152243007"><ele>230.0</ele><time>2026-04-11T14:21:02Z</time></trkpt><trkpt lat="43.08066206887546" lon="11.48615346242658"><ele>231.25</ele><time>2026-04-11T14:21:03Z</time></trkpt><trkpt lat="43.08074619324252" lon="11.486046204974873"><ele>232.5</ele><time>2026-04-11T14:21:04Z</time></trkpt><trkpt lat="43.080824484449764" lon="11.485929375322964"><ele>233.75</ele><time>2026-04-11T14:21:05Z</time></trkpt><trkpt lat="43.0808965798137" lon="11.485804065843812"><ele>235.0</ele><time>2026-04-11T14:21:06Z</time></trkpt><trkpt lat="43.08095757599304" lon="11.48567124293456"><ele>230.5</ele><time>2026-04-11T14:21:07Z</time></trkpt><trkpt lat="43.08100375478385" lon="11.485524757054918"><ele>226.0</ele><time>2026-04-11T14:21:08Z</time></trkpt><trkpt lat="43.08103655321581" lon="11.485373697693133"><ele>221.5</ele><time>2026-04-11T14:21:09Z</time></trkpt><trkpt lat="43.08105593591279" lon="11.485218705319992"><ele>217.0</ele><time>2026-04-11T14:21:10Z</time></trkpt><trkpt lat="43.081075889361585" lon="11.48506728899032"><ele>217.0</ele><time>2026-04-11T14:21:11Z</time></trkpt><trkpt lat="43.08109517806903" lon="11.484912501915398"><ele>217.0</ele><time>2026-04-11T14:21:12Z</time></trkpt><trkpt lat="43.081114556132995" lon="11.484760656236983"><ele>217.0</ele><time>2026-04-11T14:21:13Z</time></trkpt><trkpt lat="43.08114382663655" lon="11.484607017396776"><ele>217.0</ele><time>2026-04-11T14:21:14Z</time></trkpt><trkpt lat="43.08119849294941" lon="11.484464006777559"><ele>217.25</ele><time>2026-04-11T14:21:15Z</time></trkpt><trkpt lat="43.08128252107314" lon="11.484349523763862"><ele>217.5</ele><time>2026-04-11T14:21:16Z</time></trkpt><trkpt lat="43.08139165026142" lon="11.484278507646254"><ele>217.75</ele><time>2026-04-11T14:21:17Z</time></trkpt><trkpt lat="43.08150674727932" lon="11.484257498433063"><ele>218.0</ele><time>2026-04-11T14:21:18Z</time></trkpt><trkpt lat="43.08161999179496" lon="11.484270134237995"><ele>216.25</ele><time>2026-04-11T14:21:19Z</time></trkpt><trkpt lat="43.08173105818196" lon="11.48431448803103"><ele>214.5</ele><time>2026-04-11T14:21:20Z</time></trkpt><trkpt lat="43.08183734980856" lon="11.484372651091387"><ele>212.75</ele><time>2026-04-11T14:21:21Z</time></trkpt><trkpt lat="43.081944560751914" lon="11.484431771209039"><ele>211.0</ele><time>2026-04-11T14:21:22Z</time></trkpt><trkpt lat="43.082053465251995" lon="11.484485011291536"><ele>211.0</ele><time>2026-04-11T14:21:23Z</time></trkpt><trkpt lat="43.08216423530173" lon="11.484534578435843"><ele>211.0</ele><time>2026-04-11T14:21:24Z</time></trkpt><trkpt lat="43.082277934461736" lon="11.484578444052328"><ele>211.0</ele><time>2026-04-11T14:21:25Z</time></trkpt><trkpt lat="43.082393457897815" lon="11.484617486335134"><ele>211.0</ele><time>2026-04-11T14:21:26Z</time></trkpt><trkpt lat="43.082513907581976" lon="11.484636589259216"><ele>209.5</ele><time>2026-04-11T14:21:27Z</time></trkpt><trkpt lat="43.08263793381428" lon="11.48463015822347"><ele>208.0</ele><time>2026-04-11T14:21:28Z</time></trkpt><trkpt lat="43.082761545549744" lon="11.484602533161048"><ele>206.5</ele><time>2026-04-11T14:21:29Z</time></trkpt><trkpt lat="43.0828850023622" lon="11.48455687600601"><ele>205.0</ele><time>2026-04-11T14:21:30Z</time></trkpt><trkpt lat="43.083010413889035" lon="11.484499045067734"><ele>205.0</ele><time>2026-04-11T14:21:31Z</time></trkpt><trkpt lat="43.08313377770581" lon="11.484433483771884"><ele>205.0</ele><time>2026-04-11T14:21:32Z</time></trkpt><trkpt lat="43.08326012005067" lon="11.484368310093766"><ele>205.0</ele><time>2026-04-11T14:21:33Z</time></trkpt><trkpt lat="43.083390331549225" lon="11.484301480821832"><ele>205.0</ele><time>2026-04-11T14:21:34Z</time></trkpt><trkpt lat="43.083523638606536" lon="11.484241375344302"><ele>202.25</ele><time>2026-04-11T14:21:35Z</time></trkpt><trkpt lat="43.08366036069548" lon="11.484185395468016"><ele>199.5</ele><time>2026-04-11T14:21:36Z</time></trkpt><trkpt lat="43.083801152746034" lon="11.484136539586398"><ele>196.75</ele><time>2026-04-11T14:21:37Z</time></trkpt><trkpt lat="43.083948203205296" lon="11.484118573685063"><ele>194.0</ele><time>2026-04-11T14:21:38Z</time></trkpt><trkpt lat="43.0840965759243" lon="11.484115767283848"><ele>191.33333333333334</ele><time>2026-04-11T14:21:39Z</time></trkpt><trkpt lat="43.084244950721526" lon="11.48410663968942"><ele>188.66666666666669</ele><time>2026-04-11T14:21:40Z</time></trkpt><trkpt lat="43.084397018890094" lon="11.484091110078422"><ele>186.0</ele><time>2026-04-11T14:21:41Z</time></trkpt><trkpt lat="43.084548931037055" lon="11.484073532849552"><ele>186.0</ele><time>2026-04-11T14:21:42Z</time></trkpt><trkpt lat="43.08470248555875" lon="11.484055332887255"><ele>186.0</ele><time>2026-04-11T14:21:43Z</time></trkpt><trkpt lat="43.084858165748464" lon="11.484043892238146"><ele>186.0</ele><time>2026-04-11T14:21:44Z</time></trkpt><trkpt lat="43.085015840340176" lon="11.48403378262111"><ele>183.33333333333334</ele><time>2026-04-11T14:21:45Z</time></trkpt><trkpt lat="43.085174444164245" lon="11.484021938047194"><ele>180.66666666666669</ele><time>2026-04-11T14:21:46Z</time></trkpt><trkpt lat="43.085334400413736" lon="11.484003394687678"><ele>178.0</ele><time>2026-04-11T14:21:47Z</time></trkpt><trkpt lat="43.085495217142736" lon="11.483986564379673"><ele>178.0</ele><time>2026-04-11T14:21:48Z</time></trkpt><trkpt lat="43.08565631303696" lon="11.48397175834144"><ele>178.0</ele><time>2026-04-11T14:21:49Z</time></trkpt><trkpt lat="43.08581734812256" lon="11.483957883860796"><ele>178.0</ele><time>2026-04-11T14:21:50Z</time></trkpt><trkpt lat="43.085977483697164" lon="11.483944054388544"><ele>175.0</ele><time>2026-04-11T14:21:51Z</time></trkpt><trkpt lat="43.086136497232566" lon="11.483924787385968"><ele>172.0</ele><time>2026-04-11T14:21:52Z</time></trkpt><trkpt lat="43.0862937882288" lon="11.483924866588652"><ele>169.0</ele><time>2026-04-11T14:21:53Z</time></trkpt><trkpt lat="43.086449045745155" lon="11.483938670918567"><ele>167.66666666666669</ele><time>2026-04-11T14:21:54Z</time></trkpt><trkpt lat="43.086597994305876" lon="11.483979619794516"><ele>166.33333333333334</ele><time>2026-04-11T14:21:55Z</time></trkpt><trkpt lat="43.086746912907145" lon="11.48404583532556"><ele>165.0</ele><time>2026-04-11T14:21:56Z</time></trkpt><trkpt lat="43.08688051261631" lon="11.484141475101081"><ele>165.0</ele><time>2026-04-11T14:21:57Z</time></trkpt><trkpt lat="43.08699903442731" lon="11.484265196012819"><ele>165.0</ele><time>2026-04-11T14:21:58Z</time></trkpt><trkpt lat="43.087108611888446" lon="11.484402546094529"><ele>165.0</ele><time>2026-04-11T14:21:59Z</time></trkpt><trkpt lat="43.087208747608074" lon="11.484552110906758"><ele>165.0</ele><time>2026-04-11T14:22:00Z</time></trkpt><trkpt lat="43.08729797029134" lon="11.484713052751587"><ele>164.5</ele><time>2026-04-11T14:22:01Z</time></trkpt><trkpt lat="43.087387517049024" lon="11.48486849641963"><ele>164.0</ele><time>2026-04-11T14:22:02Z</time></trkpt><trkpt lat="43.08748086177135" lon="11.485018377275942"><ele>163.5</ele><time>2026-04-11T14:22:03Z</time></trkpt><trkpt lat="43.087570624701165" lon="11.485168640048295"><ele>163.0</ele><time>2026-04-11T14:22:04Z</time></trkpt><trkpt lat="43.087657106720314" lon="11.485318113875358"><ele>161.75</ele><time>2026-04-11T14:22:05Z</time></trkpt><trkpt lat="43.08774273190801" lon="11.48546342489792"><ele>160.5</ele><time>2026-04-11T14:22:05.999Z</time></trkpt><trkpt lat="43.08782817869024" lon="11.485605609593799"><ele>159.25</ele><time>2026-04-11T14:22:06.999Z</time></trkpt><trkpt lat="43.08791280969144" lon="11.485744349213777"><ele>158.0</ele><time>2026-04-11T14:22:07.999Z</time></trkpt><trkpt lat="43.08799258439865" lon="11.485882975035677"><ele>158.0</ele><time>2026-04-11T14:22:08.999Z</time></trkpt><trkpt lat="43.088073925900396" lon="11.486013713401642"><ele>158.0</ele><time>2026-04-11T14:22:09.999Z</time></trkpt><trkpt lat="43.088154524710845" lon="11.486139773248624"><ele>158.0</ele><time>2026-04-11T14:22:10.999Z</time></trkpt><trkpt lat="43.08823337779463" lon="11.486263059854826"><ele>158.0</ele><time>2026-04-11T14:22:11.999Z</time></trkpt><trkpt lat="43.088313032333936" lon="11.486382064022953"><ele>158.0</ele><time>2026-04-11T14:22:12.999Z</time></trkpt><trkpt lat="43.088399618499764" lon="11.486485458639061"><ele>158.0</ele><time>2026-04-11T14:22:13.999Z</time></trkpt><trkpt lat="43.088491192001115" lon="11.486572298494462"><ele>158.0</ele><time>2026-04-11T14:22:14.999Z</time></trkpt><trkpt lat="43.08858906513373" lon="11.486647499551536"><ele>158.0</ele><time>2026-04-11T14:22:15.999Z</time></trkpt><trkpt lat="43.08869114759796" lon="11.486707680141578"><ele>158.0</ele><time>2026-04-11T14:22:16.999Z</time></trkpt><trkpt lat="43.08879706633056" lon="11.486743191830943"><ele>158.0</ele><time>2026-04-11T14:22:17.999Z</time></trkpt><trkpt lat="43.088902848400096" lon="11.486766308146157"><ele>158.0</ele><time>2026-04-11T14:22:18.999Z</time></trkpt><trkpt lat="43.089006787609904" lon="11.486775393914137"><ele>158.0</ele><time>2026-04-11T14:22:19.999Z</time></trkpt><trkpt lat="43.089110238398995" lon="11.486771843348217"><ele>158.0</ele><time>2026-04-11T14:22:21Z</time></trkpt><trkpt lat="43.089206664341624" lon="11.486755696976408"><ele>158.0</ele><time>2026-04-11T14:22:22Z</time></trkpt><trkpt lat="43.089308499942" lon="11.486737328253755"><ele>158.0</ele><time>2026-04-11T14:22:23Z</time></trkpt><trkpt lat="43.08941309980006" lon="11.486721992272885"><ele>158.0</ele><time>2026-04-11T14:22:24Z</time></trkpt><trkpt lat="43.08951298959987" lon="11.486706990426343"><ele>158.0</ele><time>2026-04-11T14:22:25Z</time></trkpt><trkpt lat="43.08961151666296" lon="11.486696730286845"><ele>158.0</ele><time>2026-04-11T14:22:26Z</time></trkpt><trkpt lat="43.0897084946418" lon="11.486685896087343"><ele>158.0</ele><time>2026-04-11T14:22:27Z</time></trkpt><trkpt lat="43.08979864909351" lon="11.486669564824552"><ele>158.0</ele><time>2026-04-11T14:22:28Z</time></trkpt><trkpt lat="43.08988932580567" lon="11.486655533798203"><ele>158.0</ele><time>2026-04-11T14:22:29Z</time></trkpt><trkpt lat="43.08998023877407" lon="11.486646054573843"><ele>158.0</ele><time>2026-04-11T14:22:30Z</time></trkpt><trkpt lat="43.090069788952924" lon="11.486636861869348"><ele>158.0</ele><time>2026-04-11T14:22:31Z</time></trkpt><trkpt lat="43.09015672800997" lon="11.486624387063605"><ele>158.0</ele><time>2026-04-11T14:22:32Z</time></trkpt><trkpt lat="43.0902408065249" lon="11.486604834488194"><ele>158.0</ele><time>2026-04-11T14:22:33Z</time></trkpt><trkpt lat="43.09032834116558" lon="11.486602809223932"><ele>158.0</ele><time>2026-04-11T14:22:34Z</time></trkpt><trkpt lat="43.090415020239824" lon="11.486591583993283"><ele>158.0</ele><time>2026-04-11T14:22:35Z</time></trkpt><trkpt lat="43.090504093744606" lon="11.486580098186904"><ele>158.0</ele><time>2026-04-11T14:22:36Z</time></trkpt><trkpt lat="43.09059507458038" lon="11.486566743136414"><ele>158.0</ele><time>2026-04-11T14:22:37Z</time></trkpt><trkpt lat="43.090689658606784" lon="11.486549465635926"><ele>157.8</ele><time>2026-04-11T14:22:38Z</time></trkpt><trkpt lat="43.09078182148099" lon="11.486531481222269"><ele>157.60000000000002</ele><time>2026-04-11T14:22:39Z</time></trkpt><trkpt lat="43.09087627704931" lon="11.486517010349646"><ele>157.39999999999998</ele><time>2026-04-11T14:22:40Z</time></trkpt><trkpt lat="43.09097253052515" lon="11.486504985245254"><ele>157.2</ele><time>2026-04-11T14:22:41Z</time></trkpt><trkpt lat="43.091070275817366" lon="11.486496477585584"><ele>157.0</ele><time>2026-04-11T14:22:42Z</time></trkpt><trkpt lat="43.09116591566918" lon="11.48648202228199"><ele>157.0</ele><time>2026-04-11T14:22:43Z</time></trkpt><trkpt lat="43.09126100887226" lon="11.48646515356319"><ele>157.0</ele><time>2026-04-11T14:22:44Z</time></trkpt><trkpt lat="43.0913587340445" lon="11.486448248098144"><ele>157.0</ele><time>2026-04-11T14:22:45Z</time></trkpt><trkpt lat="43.09145537386748" lon="11.486436471946627"><ele>157.0</ele><time>2026-04-11T14:22:46Z</time></trkpt><trkpt lat="43.09154998886793" lon="11.486423974108344"><ele>157.0</ele><time>2026-04-11T14:22:47Z</time></trkpt><trkpt lat="43.091643878482564" lon="11.486410609408978"><ele>156.4</ele><time>2026-04-11T14:22:48Z</time></trkpt><trkpt lat="43.091738040410426" lon="11.486397571764837"><ele>155.79999999999998</ele><time>2026-04-11T14:22:49Z</time></trkpt><trkpt lat="43.091831738580936" lon="11.486384622389837"><ele>155.2</ele><time>2026-04-11T14:22:50Z</time></trkpt><trkpt lat="43.091928268808964" lon="11.486374090337412"><ele>154.6</ele><time>2026-04-11T14:22:51Z</time></trkpt><trkpt lat="43.09202071137769" lon="11.486362639265227"><ele>154.0</ele><time>2026-04-11T14:22:52Z</time></trkpt><trkpt lat="43.09211530420784" lon="11.48634619241245"><ele>154.0</ele><time>2026-04-11T14:22:53Z</time></trkpt><trkpt lat="43.09220834535999" lon="11.486329582411855"><ele>154.0</ele><time>2026-04-11T14:22:54Z</time></trkpt><trkpt lat="43.092302698041685" lon="11.486318603700274"><ele>154.0</ele><time>2026-04-11T14:22:55Z</time></trkpt><trkpt lat="43.09239761946741" lon="11.486305507371915"><ele>154.0</ele><time>2026-04-11T14:22:56Z</time></trkpt><trkpt lat="43.09249216361316" lon="11.486293873568062"><ele>154.0</ele><time>2026-04-11T14:22:57Z</time></trkpt><trkpt lat="43.09258773343333" lon="11.486281914609105"><ele>154.2</ele><time>2026-04-11T14:22:58Z</time></trkpt><trkpt lat="43.09268519406063" lon="11.48626595030723"><ele>154.4</ele><time>2026-04-11T14:22:59Z</time></trkpt><trkpt lat="43.09278210490217" lon="11.486253073741741"><ele>154.6</ele><time>2026-04-11T14:23:00Z</time></trkpt><trkpt lat="43.092877787650764" lon="11.48623824699568"><ele>154.8</ele><time>2026-04-11T14:23:01Z</time></trkpt><trkpt lat="43.09297467867172" lon="11.486223661313108"><ele>155.0</ele><time>2026-04-11T14:23:02Z</time></trkpt><trkpt lat="43.09307056082635" lon="11.486206570427345"><ele>155.0</ele><time>2026-04-11T14:23:03Z</time></trkpt><trkpt lat="43.09316636046961" lon="11.48619318661177"><ele>155.0</ele><time>2026-04-11T14:23:04Z</time></trkpt><trkpt lat="43.09326298743699" lon="11.486179137593833"><ele>155.0</ele><time>2026-04-11T14:23:05Z</time></trkpt><trkpt lat="43.093361492099135" lon="11.48616619248878"><ele>155.0</ele><time>2026-04-11T14:23:06Z</time></trkpt><trkpt lat="43.09345977045985" lon="11.48615076275229"><ele>155.0</ele><time>2026-04-11T14:23:07Z</time></trkpt><trkpt lat="43.09355811584577" lon="11.486138588532349"><ele>155.4</ele><time>2026-04-11T14:23:08Z</time></trkpt><trkpt lat="43.093654535205204" lon="11.486127349385516"><ele>155.8</ele><time>2026-04-11T14:23:09Z</time></trkpt><trkpt lat="43.093752302372266" lon="11.486112917521446"><ele>156.2</ele><time>2026-04-11T14:23:10Z</time></trkpt><trkpt lat="43.093848616113824" lon="11.486100765013674"><ele>156.6</ele><time>2026-04-11T14:23:11Z</time></trkpt><trkpt lat="43.09394562898596" lon="11.486085308345492"><ele>157.0</ele><time>2026-04-11T14:23:12Z</time></trkpt><trkpt lat="43.09404421722718" lon="11.486067266432467"><ele>156.79999999999998</ele><time>2026-04-11T14:23:13Z</time></trkpt><trkpt lat="43.09414307152826" lon="11.486041891798575"><ele>156.6</ele><time>2026-04-11T14:23:14Z</time></trkpt><trkpt lat="43.09424139287271" lon="11.48601582113977"><ele>156.39999999999998</ele><time>2026-04-11T14:23:15Z</time></trkpt><trkpt lat="43.09433750778587" lon="11.48598081008676"><ele>156.2</ele><time>2026-04-11T14:23:16Z</time></trkpt><trkpt lat="43.094432622991384" lon="11.485939505443044"><ele>156.0</ele><time>2026-04-11T14:23:17Z</time></trkpt><trkpt lat="43.09452577630747" lon="11.485900546566342"><ele>156.0</ele><time>2026-04-11T14:23:18Z</time></trkpt><trkpt lat="43.09462001976705" lon="11.485860359199254"><ele>156.0</ele><time>2026-04-11T14:23:19Z</time></trkpt><trkpt lat="43.09471665503711" lon="11.48582437667503"><ele>156.0</ele><time>2026-04-11T14:23:20Z</time></trkpt><trkpt lat="43.09481418611214" lon="11.485781012883503"><ele>156.0</ele><time>2026-04-11T14:23:21Z</time></trkpt><trkpt lat="43.09490885847683" lon="11.485731674881524"><ele>156.0</ele><time>2026-04-11T14:23:22Z</time></trkpt><trkpt lat="43.095003376625655" lon="11.48568972928209"><ele>155.0</ele><time>2026-04-11T14:23:23Z</time></trkpt><trkpt lat="43.095098877178486" lon="11.48565275280461"><ele>154.0</ele><time>2026-04-11T14:23:24Z</time></trkpt><trkpt lat="43.095195025074744" lon="11.48561234927099"><ele>153.0</ele><time>2026-04-11T14:23:25Z</time></trkpt><trkpt lat="43.095288278716374" lon="11.485576781796382"><ele>152.0</ele><time>2026-04-11T14:23:26Z</time></trkpt><trkpt lat="43.09538311634082" lon="11.485541597454644"><ele>151.0</ele><time>2026-04-11T14:23:27Z</time></trkpt><trkpt lat="43.09547398419133" lon="11.48550988282594"><ele>151.0</ele><time>2026-04-11T14:23:28Z</time></trkpt><trkpt lat="43.095565635134534" lon="11.48547740999076"><ele>151.0</ele><time>2026-04-11T14:23:29Z</time></trkpt><trkpt lat="43.09565823537637" lon="11.485449499633443"><ele>151.0</ele><time>2026-04-11T14:23:30Z</time></trkpt><trkpt lat="43.095746872825444" lon="11.485422720419367"><ele>151.0</ele><time>2026-04-11T14:23:31Z</time></trkpt><trkpt lat="43.095833569246984" lon="11.485392310281886"><ele>151.0</ele><time>2026-04-11T14:23:32Z</time></trkpt><trkpt lat="43.09592056866035" lon="11.485354080222335"><ele>151.33333333333334</ele><time>2026-04-11T14:23:33Z</time></trkpt><trkpt lat="43.096002087301144" lon="11.48530882094139"><ele>151.66666666666669</ele><time>2026-04-11T14:23:34Z</time></trkpt><trkpt lat="43.09607858634343" lon="11.48525653519574"><ele>152.0</ele><time>2026-04-11T14:23:35Z</time></trkpt><trkpt lat="43.09615276603876" lon="11.485207873128266"><ele>152.33333333333334</ele><time>2026-04-11T14:23:36Z</time></trkpt><trkpt lat="43.09622539926448" lon="11.48515308510641"><ele>152.66666666666666</ele><time>2026-04-11T14:23:37Z</time></trkpt><trkpt lat="43.09629570143854" lon="11.485101151703832"><ele>153.0</ele><time>2026-04-11T14:23:38Z</time></trkpt><trkpt lat="43.09636388119372" lon="11.485050276810975"><ele>153.0</ele><time>2026-04-11T14:23:39Z</time></trkpt><trkpt lat="43.09643005497874" lon="11.484995659621264"><ele>153.0</ele><time>2026-04-11T14:23:40Z</time></trkpt><trkpt lat="43.096491316155415" lon="11.484936520235529"><ele>153.0</ele><time>2026-04-11T14:23:41Z</time></trkpt><trkpt lat="43.09655384689677" lon="11.484877162709378"><ele>153.0</ele><time>2026-04-11T14:23:42Z</time></trkpt><trkpt lat="43.09661610640701" lon="11.484823307670316"><ele>153.0</ele><time>2026-04-11T14:23:43Z</time></trkpt><trkpt lat="43.09668183689122" lon="11.484768046344778"><ele>153.0</ele><time>2026-04-11T14:23:44Z</time></trkpt><trkpt lat="43.096744469033446" lon="11.484712816830664"><ele>152.71428571428572</ele><time>2026-04-11T14:23:45Z</time></trkpt><trkpt lat="43.09680780794416" lon="11.484656142225697"><ele>152.42857142857144</ele><time>2026-04-11T14:23:46Z</time></trkpt><trkpt lat="43.096868810828276" lon="11.484598248744616"><ele>152.14285714285717</ele><time>2026-04-11T14:23:47Z</time></trkpt><trkpt lat="43.096930148627145" lon="11.484541303319427"><ele>151.85714285714286</ele><time>2026-04-11T14:23:48Z</time></trkpt><trkpt lat="43.09699444753977" lon="11.484486184651358"><ele>151.57142857142858</ele><time>2026-04-11T14:23:49Z</time></trkpt><trkpt lat="43.09705702430741" lon="11.484431111821529"><ele>151.2857142857143</ele><time>2026-04-11T14:23:50Z</time></trkpt><trkpt lat="43.09711836982809" lon="11.48437577111313"><ele>151.0</ele><time>2026-04-11T14:23:51Z</time></trkpt><trkpt lat="43.09718458964025" lon="11.484316836382476"><ele>151.0</ele><time>2026-04-11T14:23:52Z</time></trkpt><trkpt lat="43.097248681790745" lon="11.484259069581988"><ele>151.0</ele><time>2026-04-11T14:23:53Z</time></trkpt><trkpt lat="43.09731595471998" lon="11.484202670167567"><ele>151.0</ele><time>2026-04-11T14:23:54Z</time></trkpt><trkpt lat="43.097383468803336" lon="11.48414550545423"><ele>151.0</ele><time>2026-04-11T14:23:55Z</time></trkpt><trkpt lat="43.09745053079878" lon="11.484090393033965"><ele>151.0</ele><time>2026-04-11T14:23:56Z</time></trkpt><trkpt lat="43.09751741276489" lon="11.484035399957834"><ele>151.0</ele><time>2026-04-11T14:23:57Z</time></trkpt><trkpt lat="43.097585410609256" lon="11.483984475065848"><ele>151.0</ele><time>2026-04-11T14:23:58Z</time></trkpt><trkpt lat="43.09765544653497" lon="11.483938029702674"><ele>151.0</ele><time>2026-04-11T14:23:59Z</time></trkpt><trkpt lat="43.09772810466115" lon="11.48389017347399"><ele>151.0</ele><time>2026-04-11T14:24:00Z</time></trkpt><trkpt lat="43.09780059618125" lon="11.483846695404418"><ele>151.0</ele><time>2026-04-11T14:24:01Z</time></trkpt><trkpt lat="43.09787583778637" lon="11.483808249843234"><ele>151.0</ele><time>2026-04-11T14:24:02Z</time></trkpt><trkpt lat="43.09795423483976" lon="11.48377151916894"><ele>151.0</ele><time>2026-04-11T14:24:03Z</time></trkpt><trkpt lat="43.09803235454433" lon="11.483742088055672"><ele>151.5</ele><time>2026-04-11T14:24:04Z</time></trkpt><trkpt lat="43.09811498548436" lon="11.48370337340631"><ele>152.0</ele><time>2026-04-11T14:24:05Z</time></trkpt><trkpt lat="43.09819508865846" lon="11.483664199795426"><ele>152.5</ele><time>2026-04-11T14:24:06Z</time></trkpt><trkpt lat="43.09827494229432" lon="11.483622819368296"><ele>153.0</ele><time>2026-04-11T14:24:07Z</time></trkpt><trkpt lat="43.098354287278724" lon="11.483581586518087"><ele>153.5</ele><time>2026-04-11T14:24:08Z</time></trkpt><trkpt lat="43.09843356919575" lon="11.483541620097132"><ele>154.0</ele><time>2026-04-11T14:24:09Z</time></trkpt><trkpt lat="43.09851643811657" lon="11.48350567909123"><ele>153.0</ele><time>2026-04-11T14:24:10Z</time></trkpt><trkpt lat="43.09860025220669" lon="11.48347146368961"><ele>152.0</ele><time>2026-04-11T14:24:11Z</time></trkpt><trkpt lat="43.098686457347476" lon="11.48344124727021"><ele>151.0</ele><time>2026-04-11T14:24:11.999Z</time></trkpt><trkpt lat="43.098773475975975" lon="11.483408533124143"><ele>150.0</ele><time>2026-04-11T14:24:12.999Z</time></trkpt><trkpt lat="43.09886143120977" lon="11.483385122273123"><ele>149.0</ele><time>2026-04-11T14:24:13.999Z</time></trkpt><trkpt lat="43.09895283555287" lon="11.483365589876325"><ele>148.0</ele><time>2026-04-11T14:24:14.999Z</time></trkpt><trkpt lat="43.09904425758757" lon="11.483353463673557"><ele>147.66666666666669</ele><time>2026-04-11T14:24:15.999Z</time></trkpt><trkpt lat="43.09913527608238" lon="11.483349728414726"><ele>147.33333333333334</ele><time>2026-04-11T14:24:16.999Z</time></trkpt><trkpt lat="43.09922517982258" lon="11.48334400436779"><ele>147.0</ele><time>2026-04-11T14:24:17.999Z</time></trkpt><trkpt lat="43.09931468039556" lon="11.483345298369349"><ele>146.66666666666666</ele><time>2026-04-11T14:24:18.999Z</time></trkpt><trkpt lat="43.099403663790135" lon="11.483345645945276"><ele>146.33333333333331</ele><time>2026-04-11T14:24:19.999Z</time></trkpt><trkpt lat="43.099491563417004" lon="11.48334143744078"><ele>146.0</ele><time>2026-04-11T14:24:20.999Z</time></trkpt><trkpt lat="43.09957736725046" lon="11.483336119668035"><ele>146.0</ele><time>2026-04-11T14:24:21.999Z</time></trkpt><trkpt lat="43.09966324444432" lon="11.483325741704402"><ele>146.0</ele><time>2026-04-11T14:24:22.999Z</time></trkpt><trkpt lat="43.09974888176069" lon="11.48331207211807"><ele>146.0</ele><time>2026-04-11T14:24:23.999Z</time></trkpt><trkpt lat="43.09983131913694" lon="11.48328411193173"><ele>146.0</ele><time>2026-04-11T14:24:24.999Z</time></trkpt><trkpt lat="43.09990904396395" lon="11.483239771293638"><ele>146.0</ele><time>2026-04-11T14:24:25.999Z</time></trkpt><trkpt lat="43.099979561300664" lon="11.483184986456378"><ele>146.0</ele><time>2026-04-11T14:24:27Z</time></trkpt><trkpt lat="43.10004296685633" lon="11.483117309162388"><ele>145.83333333333331</ele><time>2026-04-11T14:24:28Z</time></trkpt><trkpt lat="43.100104572760124" lon="11.483047835989064"><ele>145.66666666666666</ele><time>2026-04-11T14:24:29Z</time></trkpt><trkpt lat="43.10016487403019" lon="11.482975219825297"><ele>145.5</ele><time>2026-04-11T14:24:30Z</time></trkpt><trkpt lat="43.10022257850832" lon="11.482898447881153"><ele>145.33333333333334</ele><time>2026-04-11T14:24:31Z</time></trkpt><trkpt lat="43.100278628064224" lon="11.482821637105898"><ele>145.16666666666669</ele><time>2026-04-11T14:24:32Z</time></trkpt><trkpt lat="43.100333762338806" lon="11.482746495642509"><ele>145.0</ele><time>2026-04-11T14:24:33Z</time></trkpt><trkpt lat="43.10039093076346" lon="11.482672101934835"><ele>145.0</ele><time>2026-04-11T14:24:34Z</time></trkpt><trkpt lat="43.10044935726524" lon="11.482597845174835"><ele>145.0</ele><time>2026-04-11T14:24:35Z</time></trkpt><trkpt lat="43.10050546698343" lon="11.48252425054191"><ele>145.0</ele><time>2026-04-11T14:24:36Z</time></trkpt><trkpt lat="43.10056330225964" lon="11.482451829318329"><ele>145.0</ele><time>2026-04-11T14:24:37Z</time></trkpt><trkpt lat="43.1006177864202" lon="11.4823788100009"><ele>145.0</ele><time>2026-04-11T14:24:38Z</time></trkpt><trkpt lat="43.10067330428038" lon="11.482306081743497"><ele>145.0</ele><time>2026-04-11T14:24:39Z</time></trkpt><trkpt lat="43.1007275990237" lon="11.482234844345"><ele>144.71428571428572</ele><time>2026-04-11T14:24:40Z</time></trkpt><trkpt lat="43.10078370330623" lon="11.482165662587779"><ele>144.42857142857144</ele><time>2026-04-11T14:24:41Z</time></trkpt><trkpt lat="43.100836507868934" lon="11.482094959033533"><ele>144.14285714285714</ele><time>2026-04-11T14:24:42Z</time></trkpt><trkpt lat="43.10089053721497" lon="11.482026249648051"><ele>143.85714285714286</ele><time>2026-04-11T14:24:43Z</time></trkpt><trkpt lat="43.10094292711998" lon="11.481956744804835"><ele>143.57142857142856</ele><time>2026-04-11T14:24:44Z</time></trkpt><trkpt lat="43.100994946041055" lon="11.481888924205988"><ele>143.28571428571428</ele><time>2026-04-11T14:24:45Z</time></trkpt><trkpt lat="43.10104469298007" lon="11.481819229902646"><ele>143.0</ele><time>2026-04-11T14:24:46Z</time></trkpt><trkpt lat="43.10109521200303" lon="11.481753244172292"><ele>143.0</ele><time>2026-04-11T14:24:47Z</time></trkpt><trkpt lat="43.10114594022905" lon="11.48168672818695"><ele>143.0</ele><time>2026-04-11T14:24:48Z</time></trkpt><trkpt lat="43.101196877747405" lon="11.48162258503517"><ele>143.0</ele><time>2026-04-11T14:24:49Z</time></trkpt><trkpt lat="43.10124631424289" lon="11.481560217294517"><ele>143.0</ele><time>2026-04-11T14:24:50Z</time></trkpt><trkpt lat="43.101295188570184" lon="11.481499938157564"><ele>143.0</ele><time>2026-04-11T14:24:51Z</time></trkpt><trkpt lat="43.10134408265047" lon="11.481442341260093"><ele>143.0</ele><time>2026-04-11T14:24:52Z</time></trkpt><trkpt lat="43.101430577247555" lon="11.481328553773645"><ele>143.0</ele><time>2026-04-11T14:24:54Z</time></trkpt><trkpt lat="43.10151643630272" lon="11.481224304343788"><ele>143.0</ele><time>2026-04-11T14:24:56Z</time></trkpt><trkpt lat="43.101596883935244" lon="11.481116144131535"><ele>143.0</ele><time>2026-04-11T14:24:58Z</time></trkpt><trkpt lat="43.10167878605054" lon="11.48101169980941"><ele>143.0</ele><time>2026-04-11T14:25:00Z</time></trkpt><trkpt lat="43.10175811059276" lon="11.480911269689914"><ele>143.0</ele><time>2026-04-11T14:25:02Z</time></trkpt><trkpt lat="43.10183168792929" lon="11.480816609752242"><ele>143.20000000000002</ele><time>2026-04-11T14:25:04Z</time></trkpt><trkpt lat="43.10190928387312" lon="11.480724982125961"><ele>143.4</ele><time>2026-04-11T14:25:06Z</time></trkpt><trkpt lat="43.101994758416375" lon="11.480641970411956"><ele>143.60000000000002</ele><time>2026-04-11T14:25:08Z</time></trkpt><trkpt lat="43.1020807735317" lon="11.480561082393278"><ele>143.8</ele><time>2026-04-11T14:25:10Z</time></trkpt><trkpt lat="43.10217717529348" lon="11.480493505850436"><ele>144.0</ele><time>2026-04-11T14:25:12Z</time></trkpt><trkpt lat="43.10227162237385" lon="11.480413912896605"><ele>144.2</ele><time>2026-04-11T14:25:14Z</time></trkpt><trkpt lat="43.10236566781535" lon="11.480334872542018"><ele>144.4</ele><time>2026-04-11T14:25:16Z</time></trkpt><trkpt lat="43.10246132439759" lon="11.480259699789393"><ele>144.6</ele><time>2026-04-11T14:25:18Z</time></trkpt><trkpt lat="43.1025560017474" lon="11.48018097712032"><ele>144.8</ele><time>2026-04-11T14:25:20Z</time></trkpt><trkpt lat="43.102655286491235" lon="11.480108426076388"><ele>145.0</ele><time>2026-04-11T14:25:22Z</time></trkpt><trkpt lat="43.10275014124249" lon="11.480028623966014"><ele>145.0</ele><time>2026-04-11T14:25:24Z</time></trkpt><trkpt lat="43.10284332354351" lon="11.4799495681711"><ele>145.0</ele><time>2026-04-11T14:25:26Z</time></trkpt><trkpt lat="43.10293664835803" lon="11.479879589663005"><ele>145.0</ele><time>2026-04-11T14:25:28Z</time></trkpt><trkpt lat="43.103027105742406" lon="11.479809561702885"><ele>145.0</ele><time>2026-04-11T14:25:30Z</time></trkpt><trkpt lat="43.10311500784566" lon="11.479736590480666"><ele>145.0</ele><time>2026-04-11T14:25:32Z</time></trkpt><trkpt lat="43.1032066983025" lon="11.47966928861852"><ele>146.4</ele><time>2026-04-11T14:25:34Z</time></trkpt><trkpt lat="43.10330412433674" lon="11.479609075770956"><ele>147.8</ele><time>2026-04-11T14:25:36Z</time></trkpt><trkpt lat="43.103402116304906" lon="11.479551337031127"><ele>149.2</ele><time>2026-04-11T14:25:38Z</time></trkpt><trkpt lat="43.10350457748502" lon="11.479504364396687"><ele>150.6</ele><time>2026-04-11T14:25:40Z</time></trkpt><trkpt lat="43.10360940138673" lon="11.479458828253891"><ele>152.0</ele><time>2026-04-11T14:25:42Z</time></trkpt><trkpt lat="43.10371749924298" lon="11.479431367097503"><ele>152.25</ele><time>2026-04-11T14:25:44Z</time></trkpt><trkpt lat="43.103828592603136" lon="11.479416466324208"><ele>152.5</ele><time>2026-04-11T14:25:46Z</time></trkpt><trkpt lat="43.1039438028673" lon="11.479409483978953"><ele>152.75</ele><time>2026-04-11T14:25:48Z</time></trkpt><trkpt lat="43.10406240048685" lon="11.479409608199726"><ele>153.0</ele><time>2026-04-11T14:25:50Z</time></trkpt><trkpt lat="43.10418067755563" lon="11.47940202038085"><ele>153.0</ele><time>2026-04-11T14:25:52Z</time></trkpt><trkpt lat="43.10430117566435" lon="11.479396301205755"><ele>153.0</ele><time>2026-04-11T14:25:54Z</time></trkpt><trkpt lat="43.10442563560047" lon="11.479395272752708"><ele>153.0</ele><time>2026-04-11T14:25:56Z</time></trkpt><trkpt lat="43.10448985728608" lon="11.479390467976327"><ele>153.0</ele><time>2026-04-11T14:25:57Z</time></trkpt><trkpt lat="43.10455433747551" lon="11.479384666247897"><ele>153.0</ele><time>2026-04-11T14:25:58Z</time></trkpt><trkpt lat="43.10461946293602" lon="11.479378427669806"><ele>153.0</ele><time>2026-04-11T14:25:59Z</time></trkpt><trkpt lat="43.10468697200716" lon="11.47937607109146"><ele>153.0</ele><time>2026-04-11T14:26:00Z</time></trkpt><trkpt lat="43.104757351687326" lon="11.47937553086958"><ele>153.0</ele><time>2026-04-11T14:26:01Z</time></trkpt><trkpt lat="43.10482908620658" lon="11.479373368310421"><ele>153.0</ele><time>2026-04-11T14:26:02Z</time></trkpt><trkpt lat="43.10490171718158" lon="11.479371928247243"><ele>153.0</ele><time>2026-04-11T14:26:03Z</time></trkpt><trkpt lat="43.10498137303198" lon="11.479363963230936"><ele>153.0</ele><time>2026-04-11T14:26:04Z</time></trkpt><trkpt lat="43.105055412905784" lon="11.479361301698319"><ele>153.0</ele><time>2026-04-11T14:26:05Z</time></trkpt><trkpt lat="43.105133068405976" lon="11.47935589249924"><ele>153.0</ele><time>2026-04-11T14:26:06Z</time></trkpt><trkpt lat="43.105210832922054" lon="11.479349340261827"><ele>152.0</ele><time>2026-04-11T14:26:07Z</time></trkpt><trkpt lat="43.10529255401057" lon="11.479350097523845"><ele>151.0</ele><time>2026-04-11T14:26:08Z</time></trkpt><trkpt lat="43.1053794718724" lon="11.479345647591742"><ele>150.0</ele><time>2026-04-11T14:26:09Z</time></trkpt><trkpt lat="43.105463743040985" lon="11.479340611517772"><ele>149.0</ele><time>2026-04-11T14:26:10Z</time></trkpt><trkpt lat="43.10555271683032" lon="11.479336168138593"><ele>148.0</ele><time>2026-04-11T14:26:11Z</time></trkpt><trkpt lat="43.105638967912626" lon="11.479336555402021"><ele>147.0</ele><time>2026-04-11T14:26:11.999Z</time></trkpt><trkpt lat="43.1057314856532" lon="11.479329670440302"><ele>145.79999999999998</ele><time>2026-04-11T14:26:12.999Z</time></trkpt><trkpt lat="43.10582162655068" lon="11.47932733469031"><ele>144.6</ele><time>2026-04-11T14:26:13.999Z</time></trkpt><trkpt lat="43.10591239170262" lon="11.479327973057135"><ele>143.39999999999998</ele><time>2026-04-11T14:26:14.999Z</time></trkpt><trkpt lat="43.1060028119085" lon="11.479322589570765"><ele>142.2</ele><time>2026-04-11T14:26:15.999Z</time></trkpt><trkpt lat="43.1060960906323" lon="11.479316621992547"><ele>141.0</ele><time>2026-04-11T14:26:16.999Z</time></trkpt><trkpt lat="43.106189924514354" lon="11.47931391412067"><ele>141.0</ele><time>2026-04-11T14:26:17.999Z</time></trkpt><trkpt lat="43.10628336465537" lon="11.479314122534557"><ele>141.0</ele><time>2026-04-11T14:26:18.999Z</time></trkpt><trkpt lat="43.10637613395715" lon="11.479310584115648"><ele>141.0</ele><time>2026-04-11T14:26:19.999Z</time></trkpt><trkpt lat="43.10646769861002" lon="11.479306031467562"><ele>141.0</ele><time>2026-04-11T14:26:20.999Z</time></trkpt><trkpt lat="43.10655784588554" lon="11.479300244168732"><ele>141.0</ele><time>2026-04-11T14:26:21.999Z</time></trkpt><trkpt lat="43.10664968976089" lon="11.47929826049975"><ele>140.2</ele><time>2026-04-11T14:26:22.999Z</time></trkpt><trkpt lat="43.10674289588673" lon="11.479293552780874"><ele>139.39999999999998</ele><time>2026-04-11T14:26:23.999Z</time></trkpt><trkpt lat="43.10683047801646" lon="11.479290585693326"><ele>138.6</ele><time>2026-04-11T14:26:24.999Z</time></trkpt><trkpt lat="43.10692694142033" lon="11.479279681372857"><ele>137.79999999999998</ele><time>2026-04-11T14:26:25.999Z</time></trkpt><trkpt lat="43.1070193855288" lon="11.47927866843351"><ele>137.0</ele><time>2026-04-11T14:26:26.999Z</time></trkpt><trkpt lat="43.10711418802082" lon="11.479274561617611"><ele>137.0</ele><time>2026-04-11T14:26:27.999Z</time></trkpt><trkpt lat="43.10720688952701" lon="11.479266475418434"><ele>137.0</ele><time>2026-04-11T14:26:28.999Z</time></trkpt><trkpt lat="43.10730029643344" lon="11.47926443166356"><ele>137.0</ele><time>2026-04-11T14:26:29.999Z</time></trkpt><trkpt lat="43.107392586461984" lon="11.479259524499483"><ele>137.0</ele><time>2026-04-11T14:26:30.999Z</time></trkpt><trkpt lat="43.10748362768802" lon="11.479255966792225"><ele>137.0</ele><time>2026-04-11T14:26:31.999Z</time></trkpt><trkpt lat="43.107574597404984" lon="11.479255514009383"><ele>137.16666666666666</ele><time>2026-04-11T14:26:33Z</time></trkpt><trkpt lat="43.10766436909094" lon="11.47925396169406"><ele>137.33333333333331</ele><time>2026-04-11T14:26:34Z</time></trkpt><trkpt lat="43.10775085264531" lon="11.479250778905152"><ele>137.5</ele><time>2026-04-11T14:26:35Z</time></trkpt><trkpt lat="43.10783630304313" lon="11.479245454580418"><ele>137.66666666666666</ele><time>2026-04-11T14:26:36Z</time></trkpt><trkpt lat="43.10791835513216" lon="11.479243673651892"><ele>137.83333333333334</ele><time>2026-04-11T14:26:37Z</time></trkpt><trkpt lat="43.107998168642716" lon="11.479244466484955"><ele>138.0</ele><time>2026-04-11T14:26:38Z</time></trkpt><trkpt lat="43.108078044893745" lon="11.479247159941126"><ele>138.0</ele><time>2026-04-11T14:26:39Z</time></trkpt><trkpt lat="43.10815651685851" lon="11.479246029567637"><ele>138.0</ele><time>2026-04-11T14:26:40Z</time></trkpt><trkpt lat="43.10823303530289" lon="11.479247785241807"><ele>138.0</ele><time>2026-04-11T14:26:41Z</time></trkpt><trkpt lat="43.10830731319169" lon="11.47925058337794"><ele>138.0</ele><time>2026-04-11T14:26:42Z</time></trkpt><trkpt lat="43.108379346993985" lon="11.479250081628663"><ele>138.0</ele><time>2026-04-11T14:26:43Z</time></trkpt><trkpt lat="43.10844896788081" lon="11.479254152374924"><ele>138.0</ele><time>2026-04-11T14:26:44Z</time></trkpt><trkpt lat="43.108515456766504" lon="11.47926091402469"><ele>138.0</ele><time>2026-04-11T14:26:45Z</time></trkpt><trkpt lat="43.108579890661936" lon="11.479264300971387"><ele>138.6</ele><time>2026-04-11T14:26:46Z</time></trkpt><trkpt lat="43.1086428639872" lon="11.47927297158399"><ele>139.20000000000002</ele><time>2026-04-11T14:26:47Z</time></trkpt><trkpt lat="43.10876258616989" lon="11.479288663111229"><ele>139.8</ele><time>2026-04-11T14:26:49Z</time></trkpt><trkpt lat="43.10887907483542" lon="11.479296511451723"><ele>140.4</ele><time>2026-04-11T14:26:51Z</time></trkpt><trkpt lat="43.10899072204686" lon="11.479301974102334"><ele>141.0</ele><time>2026-04-11T14:26:53Z</time></trkpt><trkpt lat="43.109097097480884" lon="11.479311056199407"><ele>142.0</ele><time>2026-04-11T14:26:55Z</time></trkpt><trkpt lat="43.10920297003654" lon="11.479315007616028"><ele>143.0</ele><time>2026-04-11T14:26:57Z</time></trkpt><trkpt lat="43.10930343067646" lon="11.479318231257151"><ele>144.0</ele><time>2026-04-11T14:26:59Z</time></trkpt><trkpt lat="43.109402252935425" lon="11.479335212169897"><ele>145.0</ele><time>2026-04-11T14:27:01Z</time></trkpt><trkpt lat="43.109497761398565" lon="11.479341201993785"><ele>146.0</ele><time>2026-04-11T14:27:03Z</time></trkpt><trkpt lat="43.109594687516115" lon="11.479350905610064"><ele>146.0</ele><time>2026-04-11T14:27:05Z</time></trkpt><trkpt lat="43.10969411776162" lon="11.4793576430804"><ele>146.0</ele><time>2026-04-11T14:27:07Z</time></trkpt><trkpt lat="43.1097949892932" lon="11.479363016208922"><ele>146.0</ele><time>2026-04-11T14:27:09Z</time></trkpt><trkpt lat="43.10989538867397" lon="11.479368670748325"><ele>146.0</ele><time>2026-04-11T14:27:11Z</time></trkpt><trkpt lat="43.10999452720823" lon="11.47937284337829"><ele>146.0</ele><time>2026-04-11T14:27:13Z</time></trkpt><trkpt lat="43.110093475218996" lon="11.479375527580894"><ele>146.6</ele><time>2026-04-11T14:27:15Z</time></trkpt><trkpt lat="43.11019108664137" lon="11.479381761610542"><ele>147.2</ele><time>2026-04-11T14:27:17Z</time></trkpt><trkpt lat="43.11028738259757" lon="11.479390984901793"><ele>147.8</ele><time>2026-04-11T14:27:19Z</time></trkpt><trkpt lat="43.11038314005235" lon="11.479399907648249"><ele>148.4</ele><time>2026-04-11T14:27:21Z</time></trkpt><trkpt lat="43.1104761995489" lon="11.47941011945921"><ele>149.0</ele><time>2026-04-11T14:27:23Z</time></trkpt><trkpt lat="43.11057215738175" lon="11.479416360238835"><ele>149.0</ele><time>2026-04-11T14:27:25Z</time></trkpt><trkpt lat="43.11066321876039" lon="11.479419655251021"><ele>149.0</ele><time>2026-04-11T14:27:27Z</time></trkpt><trkpt lat="43.110756028888815" lon="11.47942200432094"><ele>149.0</ele><time>2026-04-11T14:27:29Z</time></trkpt><trkpt lat="43.11084424112308" lon="11.479433213125352"><ele>149.0</ele><time>2026-04-11T14:27:31Z</time></trkpt><trkpt lat="43.11093113433857" lon="11.479436114158046"><ele>149.0</ele><time>2026-04-11T14:27:33Z</time></trkpt><trkpt lat="43.111020505060104" lon="11.479442691906572"><ele>149.0</ele><time>2026-04-11T14:27:35Z</time></trkpt><trkpt lat="43.11110872483821" lon="11.479445246755711"><ele>149.5</ele><time>2026-04-11T14:27:37Z</time></trkpt><trkpt lat="43.11119499615451" lon="11.479459075701257"><ele>150.0</ele><time>2026-04-11T14:27:39Z</time></trkpt><trkpt lat="43.111282051457536" lon="11.479468825536225"><ele>150.5</ele><time>2026-04-11T14:27:41Z</time></trkpt><trkpt lat="43.11135652125137" lon="11.479496693519314"><ele>151.0</ele><time>2026-04-11T14:27:43Z</time></trkpt><trkpt lat="43.11143179940439" lon="11.479521536552824"><ele>151.5</ele><time>2026-04-11T14:27:45Z</time></trkpt><trkpt lat="43.1115053502356" lon="11.479544411723236"><ele>152.0</ele><time>2026-04-11T14:27:47Z</time></trkpt><trkpt lat="43.111578281174744" lon="11.47957394888394"><ele>152.28571428571428</ele><time>2026-04-11T14:27:49Z</time></trkpt><trkpt lat="43.11165379548743" lon="11.479601894214422"><ele>152.57142857142858</ele><time>2026-04-11T14:27:51Z</time></trkpt><trkpt lat="43.11172814090965" lon="11.479622946959978"><ele>152.85714285714286</ele><time>2026-04-11T14:27:53Z</time></trkpt><trkpt lat="43.111799368156916" lon="11.479655894419304"><ele>153.14285714285714</ele><time>2026-04-11T14:27:55Z</time></trkpt><trkpt lat="43.11186915447999" lon="11.479680262885497"><ele>153.42857142857144</ele><time>2026-04-11T14:27:57Z</time></trkpt><trkpt lat="43.11193842053568" lon="11.479704832164737"><ele>153.71428571428572</ele><time>2026-04-11T14:27:59Z</time></trkpt><trkpt lat="43.11200772578698" lon="11.47973180545133"><ele>154.0</ele><time>2026-04-11T14:28:01Z</time></trkpt><trkpt lat="43.112080865751054" lon="11.479760851290857"><ele>154.0</ele><time>2026-04-11T14:28:03Z</time></trkpt><trkpt lat="43.1121556545765" lon="11.479790506902056"><ele>154.0</ele><time>2026-04-11T14:28:05Z</time></trkpt><trkpt lat="43.11222830242975" lon="11.479820002409658"><ele>154.0</ele><time>2026-04-11T14:28:07Z</time></trkpt><trkpt lat="43.11230345877468" lon="11.479852712341225"><ele>154.0</ele><time>2026-04-11T14:28:09Z</time></trkpt><trkpt lat="43.112378128990755" lon="11.479883689123048"><ele>154.0</ele><time>2026-04-11T14:28:11Z</time></trkpt><trkpt lat="43.112451589397025" lon="11.47990805676771"><ele>154.0</ele><time>2026-04-11T14:28:13Z</time></trkpt><trkpt lat="43.11252556359766" lon="11.479941970056124"><ele>154.16666666666669</ele><time>2026-04-11T14:28:15Z</time></trkpt><trkpt lat="43.11259873623494" lon="11.479972654958654"><ele>154.33333333333334</ele><time>2026-04-11T14:28:17Z</time></trkpt><trkpt lat="43.11267168702509" lon="11.480002438200822"><ele>154.5</ele><time>2026-04-11T14:28:19Z</time></trkpt><trkpt lat="43.11274341377839" lon="11.48002883590113"><ele>154.66666666666666</ele><time>2026-04-11T14:28:20.999Z</time></trkpt><trkpt lat="43.11281864474072" lon="11.480054963704633"><ele>154.83333333333331</ele><time>2026-04-11T14:28:22.999Z</time></trkpt><trkpt lat="43.11289292812666" lon="11.480078637158282"><ele>155.0</ele><time>2026-04-11T14:28:24.999Z</time></trkpt><trkpt lat="43.11296886132287" lon="11.48010214347883"><ele>155.0</ele><time>2026-04-11T14:28:26.999Z</time></trkpt><trkpt lat="43.113043029651806" lon="11.480130270732722"><ele>155.0</ele><time>2026-04-11T14:28:28.999Z</time></trkpt><trkpt lat="43.11312418035813" lon="11.480148316767712"><ele>155.0</ele><time>2026-04-11T14:28:30.999Z</time></trkpt><trkpt lat="43.113205623222676" lon="11.480160363209682"><ele>155.0</ele><time>2026-04-11T14:28:32.999Z</time></trkpt><trkpt lat="43.11328977897717" lon="11.480172555142941"><ele>155.0</ele><time>2026-04-11T14:28:34.999Z</time></trkpt><trkpt lat="43.11337627700099" lon="11.480189579212304"><ele>155.0</ele><time>2026-04-11T14:28:36.999Z</time></trkpt><trkpt lat="43.11345967263397" lon="11.480213000975704"><ele>155.83333333333331</ele><time>2026-04-11T14:28:39Z</time></trkpt><trkpt lat="43.113543510043904" lon="11.480230858226555"><ele>156.66666666666666</ele><time>2026-04-11T14:28:41Z</time></trkpt><trkpt lat="43.11362774002155" lon="11.480246594230634"><ele>157.5</ele><time>2026-04-11T14:28:43Z</time></trkpt><trkpt lat="43.11371143419528" lon="11.480259434903786"><ele>158.33333333333334</ele><time>2026-04-11T14:28:45Z</time></trkpt><trkpt lat="43.11379457312015" lon="11.480261488284802"><ele>159.16666666666669</ele><time>2026-04-11T14:28:47Z</time></trkpt><trkpt lat="43.11387963986428" lon="11.48027952077612"><ele>160.0</ele><time>2026-04-11T14:28:49Z</time></trkpt><trkpt lat="43.11396609507001" lon="11.480299073085478"><ele>160.0</ele><time>2026-04-11T14:28:51Z</time></trkpt><trkpt lat="43.11405646625259" lon="11.480307374874592"><ele>160.0</ele><time>2026-04-11T14:28:53Z</time></trkpt><trkpt lat="43.11414203917574" lon="11.480324661976573"><ele>160.0</ele><time>2026-04-11T14:28:55Z</time></trkpt><trkpt lat="43.11423074145815" lon="11.48033132350458"><ele>160.0</ele><time>2026-04-11T14:28:57Z</time></trkpt><trkpt lat="43.11432126952924" lon="11.480346952776392"><ele>160.0</ele><time>2026-04-11T14:28:59Z</time></trkpt><trkpt lat="43.11441289682043" lon="11.48036222030221"><ele>160.0</ele><time>2026-04-11T14:29:01Z</time></trkpt><trkpt lat="43.114511359478" lon="11.480376434239904"><ele>161.0</ele><time>2026-04-11T14:29:03Z</time></trkpt><trkpt lat="43.11460941289806" lon="11.480395242481672"><ele>162.0</ele><time>2026-04-11T14:29:05Z</time></trkpt><trkpt lat="43.11471648113558" lon="11.480419265593657"><ele>163.0</ele><time>2026-04-11T14:29:07Z</time></trkpt><trkpt lat="43.11482886587811" lon="11.480433176986207"><ele>164.0</ele><time>2026-04-11T14:29:09Z</time></trkpt><trkpt lat="43.11494734333451" lon="11.480456113247474"><ele>165.0</ele><time>2026-04-11T14:29:11Z</time></trkpt><trkpt lat="43.11506613843738" lon="11.480477929511625"><ele>165.00000000000003</ele><time>2026-04-11T14:29:13Z</time></trkpt><trkpt lat="43.11512892915514" lon="11.480491957160217"><ele>165.0</ele><time>2026-04-11T14:29:14Z</time></trkpt><trkpt lat="43.1151917763999" lon="11.480507790784214"><ele>165.0</ele><time>2026-04-11T14:29:15Z</time></trkpt><trkpt lat="43.11525390444671" lon="11.4805250615458"><ele>165.0</ele><time>2026-04-11T14:29:16Z</time></trkpt><trkpt lat="43.11531735371709" lon="11.480545496557736"><ele>165.0</ele><time>2026-04-11T14:29:17Z</time></trkpt><trkpt lat="43.115380618029455" lon="11.480568268101626"><ele>165.00000000000003</ele><time>2026-04-11T14:29:18Z</time></trkpt><trkpt lat="43.115445248304" lon="11.480592860331008"><ele>165.0</ele><time>2026-04-11T14:29:19Z</time></trkpt><trkpt lat="43.11550977642398" lon="11.480621027805368"><ele>165.00000000000003</ele><time>2026-04-11T14:29:20Z</time></trkpt><trkpt lat="43.11557608935842" lon="11.480649551548746"><ele>165.0</ele><time>2026-04-11T14:29:21Z</time></trkpt><trkpt lat="43.11564531077308" lon="11.480680498024018"><ele>165.0</ele><time>2026-04-11T14:29:22Z</time></trkpt><trkpt lat="43.1157125363836" lon="11.480712211534458"><ele>165.0</ele><time>2026-04-11T14:29:23Z</time></trkpt><trkpt lat="43.11578421593727" lon="11.480740869882748"><ele>165.0</ele><time>2026-04-11T14:29:24Z</time></trkpt><trkpt lat="43.11585978660526" lon="11.480773707012778"><ele>165.00000000000003</ele><time>2026-04-11T14:29:25Z</time></trkpt><trkpt lat="43.11593628958143" lon="11.480808821752705"><ele>165.0</ele><time>2026-04-11T14:29:26Z</time></trkpt><trkpt lat="43.11601697459248" lon="11.480843050622639"><ele>164.4</ele><time>2026-04-11T14:29:27Z</time></trkpt><trkpt lat="43.11609947916618" lon="11.480879468559932"><ele>163.8</ele><time>2026-04-11T14:29:28Z</time></trkpt><trkpt lat="43.116184356164126" lon="11.480919388416142"><ele>163.2</ele><time>2026-04-11T14:29:29Z</time></trkpt><trkpt lat="43.116271515846336" lon="11.48095828195299"><ele>162.6</ele><time>2026-04-11T14:29:30Z</time></trkpt><trkpt lat="43.116361219221076" lon="11.48100196093792"><ele>162.0</ele><time>2026-04-11T14:29:31Z</time></trkpt><trkpt lat="43.116453798177034" lon="11.481042222101987"><ele>162.0</ele><time>2026-04-11T14:29:32Z</time></trkpt><trkpt lat="43.116548939614326" lon="11.48108643166391"><ele>162.0</ele><time>2026-04-11T14:29:33Z</time></trkpt><trkpt lat="43.11664716711841" lon="11.481128710226232"><ele>162.0</ele><time>2026-04-11T14:29:34Z</time></trkpt><trkpt lat="43.11674755001645" lon="11.481172416152054"><ele>162.0</ele><time>2026-04-11T14:29:35Z</time></trkpt><trkpt lat="43.116850179738215" lon="11.481217005031318"><ele>162.0</ele><time>2026-04-11T14:29:36Z</time></trkpt><trkpt lat="43.11695500216242" lon="11.481265392659324"><ele>160.75</ele><time>2026-04-11T14:29:37Z</time></trkpt><trkpt lat="43.117062127163685" lon="11.48131119439107"><ele>159.5</ele><time>2026-04-11T14:29:38Z</time></trkpt><trkpt lat="43.117171304198074" lon="11.481358565646548"><ele>158.25</ele><time>2026-04-11T14:29:39Z</time></trkpt><trkpt lat="43.11728139196765" lon="11.48140861352904"><ele>157.0</ele><time>2026-04-11T14:29:40Z</time></trkpt><trkpt lat="43.11739243983069" lon="11.481457302867971"><ele>154.25</ele><time>2026-04-11T14:29:41Z</time></trkpt><trkpt lat="43.11750547554004" lon="11.481503808739214"><ele>151.5</ele><time>2026-04-11T14:29:42Z</time></trkpt><trkpt lat="43.117616472660075" lon="11.481553714148943"><ele>148.75</ele><time>2026-04-11T14:29:43Z</time></trkpt><trkpt lat="43.11772596402273" lon="11.481607106196607"><ele>146.0</ele><time>2026-04-11T14:29:44Z</time></trkpt><trkpt lat="43.117838382546175" lon="11.481657304554096"><ele>146.0</ele><time>2026-04-11T14:29:45Z</time></trkpt><trkpt lat="43.117950824448386" lon="11.481704871006519"><ele>146.0</ele><time>2026-04-11T14:29:46Z</time></trkpt><trkpt lat="43.118064262568865" lon="11.481753865106331"><ele>146.0</ele><time>2026-04-11T14:29:47Z</time></trkpt><trkpt lat="43.11817692241076" lon="11.48180559752888"><ele>146.0</ele><time>2026-04-11T14:29:48Z</time></trkpt><trkpt lat="43.11828925747402" lon="11.481856964679283"><ele>145.0</ele><time>2026-04-11T14:29:49Z</time></trkpt><trkpt lat="43.11839959873681" lon="11.481912314427154"><ele>144.0</ele><time>2026-04-11T14:29:50Z</time></trkpt><trkpt lat="43.11850727342278" lon="11.481979999886947"><ele>143.0</ele><time>2026-04-11T14:29:51Z</time></trkpt><trkpt lat="43.11860536643447" lon="11.482068216751413"><ele>142.0</ele><time>2026-04-11T14:29:52Z</time></trkpt><trkpt lat="43.11868776707272" lon="11.482174961610488"><ele>141.79999999999998</ele><time>2026-04-11T14:29:53Z</time></trkpt><trkpt lat="43.118755657314644" lon="11.482294723796429"><ele>141.6</ele><time>2026-04-11T14:29:54Z</time></trkpt><trkpt lat="43.11880916300619" lon="11.482425160200375"><ele>141.39999999999998</ele><time>2026-04-11T14:29:55Z</time></trkpt><trkpt lat="43.11884959194192" lon="11.482561347636501"><ele>141.2</ele><time>2026-04-11T14:29:56Z</time></trkpt><trkpt lat="43.11887424729348" lon="11.482703259269565"><ele>141.0</ele><time>2026-04-11T14:29:57Z</time></trkpt><trkpt lat="43.11888169068521" lon="11.48284562194444"><ele>141.33333333333334</ele><time>2026-04-11T14:29:58Z</time></trkpt><trkpt lat="43.11887442297169" lon="11.482981677601575"><ele>141.66666666666666</ele><time>2026-04-11T14:29:59Z</time></trkpt><trkpt lat="43.11885636585237" lon="11.483106702299995"><ele>142.0</ele><time>2026-04-11T14:30:00Z</time></trkpt><trkpt lat="43.11884103693611" lon="11.483229166611531"><ele>142.33333333333331</ele><time>2026-04-11T14:30:01Z</time></trkpt><trkpt lat="43.11883623163318" lon="11.48334488503507"><ele>142.66666666666666</ele><time>2026-04-11T14:30:02Z</time></trkpt><trkpt lat="43.1188517342232" lon="11.483444237199105"><ele>143.0</ele><time>2026-04-11T14:30:03Z</time></trkpt><trkpt lat="43.118889447214315" lon="11.483518106856039"><ele>143.0</ele><time>2026-04-11T14:30:04Z</time></trkpt><trkpt lat="43.119016978887274" lon="11.483551465321375"><ele>143.0</ele><time>2026-04-11T14:30:06Z</time></trkpt><trkpt lat="43.119081742152154" lon="11.483553826278476"><ele>143.0</ele><time>2026-04-11T14:30:07Z</time></trkpt><trkpt lat="43.11919461520033" lon="11.483560354413775"><ele>143.0</ele><time>2026-04-11T14:30:09Z</time></trkpt><trkpt lat="43.11930878470292" lon="11.483534036132994"><ele>143.0</ele><time>2026-04-11T14:30:11Z</time></trkpt><trkpt lat="43.119430281460204" lon="11.48351847516781"><ele>142.85714285714283</ele><time>2026-04-11T14:30:13Z</time></trkpt><trkpt lat="43.11949463390515" lon="11.483503731052055"><ele>142.71428571428572</ele><time>2026-04-11T14:30:14Z</time></trkpt><trkpt lat="43.11955945827152" lon="11.483491400675756"><ele>142.57142857142856</ele><time>2026-04-11T14:30:15Z</time></trkpt><trkpt lat="43.11962494346104" lon="11.483480520852641"><ele>142.42857142857142</ele><time>2026-04-11T14:30:16Z</time></trkpt><trkpt lat="43.11969035973426" lon="11.483466346942732"><ele>142.28571428571428</ele><time>2026-04-11T14:30:17Z</time></trkpt><trkpt lat="43.119756927361365" lon="11.48345125158453"><ele>142.14285714285714</ele><time>2026-04-11T14:30:18Z</time></trkpt><trkpt lat="43.119823383985654" lon="11.48344041820995"><ele>142.0</ele><time>2026-04-11T14:30:19Z</time></trkpt><trkpt lat="43.11989056104933" lon="11.483430998982902"><ele>142.0</ele><time>2026-04-11T14:30:20Z</time></trkpt><trkpt lat="43.119960015081304" lon="11.483419074210346"><ele>142.0</ele><time>2026-04-11T14:30:21Z</time></trkpt><trkpt lat="43.120026922590476" lon="11.483408714957264"><ele>142.0</ele><time>2026-04-11T14:30:22Z</time></trkpt><trkpt lat="43.12009429086545" lon="11.483396772059834"><ele>142.0</ele><time>2026-04-11T14:30:23Z</time></trkpt><trkpt lat="43.1201607880978" lon="11.483389087983184"><ele>142.0</ele><time>2026-04-11T14:30:24Z</time></trkpt><trkpt lat="43.12022891005503" lon="11.483376046362254"><ele>142.0</ele><time>2026-04-11T14:30:24.999Z</time></trkpt><trkpt lat="43.12029185617657" lon="11.483374284597083"><ele>142.0</ele><time>2026-04-11T14:30:25.999Z</time></trkpt><trkpt lat="43.12035572553819" lon="11.48336748905249"><ele>142.0</ele><time>2026-04-11T14:30:26.999Z</time></trkpt><trkpt lat="43.12041878725943" lon="11.483358888236365"><ele>142.0</ele><time>2026-04-11T14:30:27.999Z</time></trkpt><trkpt lat="43.1205397900831" lon="11.483348861606288"><ele>142.0</ele><time>2026-04-11T14:30:29.999Z</time></trkpt><trkpt lat="43.120660804431644" lon="11.483342349131144"><ele>142.0</ele><time>2026-04-11T14:30:31.999Z</time></trkpt><trkpt lat="43.12078065594317" lon="11.483336476638085"><ele>142.0</ele><time>2026-04-11T14:30:33.999Z</time></trkpt><trkpt lat="43.12089873992055" lon="11.483328363927429"><ele>142.25</ele><time>2026-04-11T14:30:35.999Z</time></trkpt><trkpt lat="43.12101503341575" lon="11.483320220729404"><ele>142.5</ele><time>2026-04-11T14:30:37.999Z</time></trkpt><trkpt lat="43.12113099824173" lon="11.48330795976448"><ele>142.75</ele><time>2026-04-11T14:30:39.999Z</time></trkpt><trkpt lat="43.121248135701904" lon="11.483300466441323"><ele>143.0</ele><time>2026-04-11T14:30:41.999Z</time></trkpt><trkpt lat="43.12136316827829" lon="11.48329050368114"><ele>143.0</ele><time>2026-04-11T14:30:43.999Z</time></trkpt><trkpt lat="43.121479960273916" lon="11.483277650667382"><ele>143.0</ele><time>2026-04-11T14:30:46Z</time></trkpt><trkpt lat="43.121596260775384" lon="11.48326757587429"><ele>143.0</ele><time>2026-04-11T14:30:48Z</time></trkpt><trkpt lat="43.12171289778897" lon="11.483256817768707"><ele>143.0</ele><time>2026-04-11T14:30:50Z</time></trkpt><trkpt lat="43.121830485835034" lon="11.483247136622158"><ele>143.25</ele><time>2026-04-11T14:30:52Z</time></trkpt><trkpt lat="43.12194814305068" lon="11.483238287402393"><ele>143.5</ele><time>2026-04-11T14:30:54Z</time></trkpt><trkpt lat="43.12206784546131" lon="11.483228489305516"><ele>143.75</ele><time>2026-04-11T14:30:56Z</time></trkpt><trkpt lat="43.122184490837334" lon="11.483212879952966"><ele>144.0</ele><time>2026-04-11T14:30:58Z</time></trkpt><trkpt lat="43.122302074092815" lon="11.483203590700429"><ele>144.6</ele><time>2026-04-11T14:31:00Z</time></trkpt><trkpt lat="43.12242241937086" lon="11.48319306846341"><ele>145.2</ele><time>2026-04-11T14:31:02Z</time></trkpt><trkpt lat="43.12254204175501" lon="11.48317820086617"><ele>145.79999999999998</ele><time>2026-04-11T14:31:04Z</time></trkpt><trkpt lat="43.12266491926168" lon="11.483167869367158"><ele>146.4</ele><time>2026-04-11T14:31:06Z</time></trkpt><trkpt lat="43.12273045308377" lon="11.483162447030404"><ele>147.0</ele><time>2026-04-11T14:31:07Z</time></trkpt><trkpt lat="43.12279653856602" lon="11.483158144186437"><ele>147.0</ele><time>2026-04-11T14:31:08Z</time></trkpt><trkpt lat="43.12286170230119" lon="11.483156453218886"><ele>147.0</ele><time>2026-04-11T14:31:09Z</time></trkpt><trkpt lat="43.12292858160021" lon="11.483148598684606"><ele>147.0</ele><time>2026-04-11T14:31:10Z</time></trkpt><trkpt lat="43.1229963464268" lon="11.483140983445244"><ele>147.0</ele><time>2026-04-11T14:31:11Z</time></trkpt><trkpt lat="43.123064662708494" lon="11.48313362644177"><ele>147.0</ele><time>2026-04-11T14:31:12Z</time></trkpt><trkpt lat="43.12313333443234" lon="11.483126145518602"><ele>147.0</ele><time>2026-04-11T14:31:13Z</time></trkpt><trkpt lat="43.12319974920746" lon="11.483119076465877"><ele>147.0</ele><time>2026-04-11T14:31:14Z</time></trkpt><trkpt lat="43.12327268643045" lon="11.48311431994544"><ele>146.71428571428572</ele><time>2026-04-11T14:31:15Z</time></trkpt><trkpt lat="43.123342407002006" lon="11.483106866706752"><ele>146.42857142857144</ele><time>2026-04-11T14:31:16Z</time></trkpt><trkpt lat="43.12341258645496" lon="11.483099196597275"><ele>146.14285714285714</ele><time>2026-04-11T14:31:17Z</time></trkpt><trkpt lat="43.123483104660025" lon="11.483093658909473"><ele>145.85714285714286</ele><time>2026-04-11T14:31:18Z</time></trkpt><trkpt lat="43.12355541875673" lon="11.483088150420711"><ele>145.57142857142858</ele><time>2026-04-11T14:31:19Z</time></trkpt><trkpt lat="43.123626299341744" lon="11.483084500906706"><ele>145.28571428571428</ele><time>2026-04-11T14:31:20Z</time></trkpt><trkpt lat="43.12369754811968" lon="11.483076595074138"><ele>145.0</ele><time>2026-04-11T14:31:21Z</time></trkpt><trkpt lat="43.12376910430381" lon="11.483068469860816"><ele>145.0</ele><time>2026-04-11T14:31:22Z</time></trkpt><trkpt lat="43.12384174565373" lon="11.483058674412607"><ele>145.0</ele><time>2026-04-11T14:31:23Z</time></trkpt><trkpt lat="43.12391243871532" lon="11.483052743672216"><ele>145.0</ele><time>2026-04-11T14:31:24Z</time></trkpt><trkpt lat="43.1239833707543" lon="11.483050187757883"><ele>145.0</ele><time>2026-04-11T14:31:25Z</time></trkpt><trkpt lat="43.12405406703264" lon="11.48304458421818"><ele>145.0</ele><time>2026-04-11T14:31:26Z</time></trkpt><trkpt lat="43.124127684569665" lon="11.483036225574768"><ele>145.0</ele><time>2026-04-11T14:31:27Z</time></trkpt><trkpt lat="43.12420057383588" lon="11.483029709265614"><ele>145.0</ele><time>2026-04-11T14:31:28Z</time></trkpt><trkpt lat="43.12427403373372" lon="11.48302062039213"><ele>144.66666666666669</ele><time>2026-04-11T14:31:29Z</time></trkpt><trkpt lat="43.12434903506239" lon="11.483014462443254"><ele>144.33333333333334</ele><time>2026-04-11T14:31:30Z</time></trkpt><trkpt lat="43.124424010406415" lon="11.483005582622996"><ele>144.0</ele><time>2026-04-11T14:31:31Z</time></trkpt><trkpt lat="43.124500787388996" lon="11.483001904130814"><ele>143.66666666666666</ele><time>2026-04-11T14:31:32Z</time></trkpt><trkpt lat="43.12457732722653" lon="11.482996322687146"><ele>143.33333333333331</ele><time>2026-04-11T14:31:33Z</time></trkpt><trkpt lat="43.124655284299536" lon="11.48298935912039"><ele>143.0</ele><time>2026-04-11T14:31:34Z</time></trkpt><trkpt lat="43.12473047622016" lon="11.48298298251554"><ele>143.0</ele><time>2026-04-11T14:31:35Z</time></trkpt><trkpt lat="43.124808737869266" lon="11.48297687203744"><ele>143.0</ele><time>2026-04-11T14:31:36Z</time></trkpt><trkpt lat="43.1248840519098" lon="11.482968781554645"><ele>143.0</ele><time>2026-04-11T14:31:37Z</time></trkpt><trkpt lat="43.12496127200513" lon="11.482962447390143"><ele>143.0</ele><time>2026-04-11T14:31:38Z</time></trkpt><trkpt lat="43.125036699953576" lon="11.482954049173502"><ele>143.0</ele><time>2026-04-11T14:31:39Z</time></trkpt><trkpt lat="43.1251127159592" lon="11.482945949612358"><ele>143.0</ele><time>2026-04-11T14:31:40Z</time></trkpt><trkpt lat="43.12518796731042" lon="11.482938481213857"><ele>143.0</ele><time>2026-04-11T14:31:41Z</time></trkpt><trkpt lat="43.125264735206876" lon="11.482932329716"><ele>143.0</ele><time>2026-04-11T14:31:42Z</time></trkpt><trkpt lat="43.125341538300646" lon="11.482929368159136"><ele>143.0</ele><time>2026-04-11T14:31:43Z</time></trkpt><trkpt lat="43.125418575429656" lon="11.48292542038228"><ele>143.0</ele><time>2026-04-11T14:31:44Z</time></trkpt><trkpt lat="43.12549669441673" lon="11.482918038350814"><ele>143.0</ele><time>2026-04-11T14:31:45Z</time></trkpt><trkpt lat="43.12557378466127" lon="11.482912577387587"><ele>143.0</ele><time>2026-04-11T14:31:46Z</time></trkpt><trkpt lat="43.12565086705785" lon="11.482903053752956"><ele>142.83333333333331</ele><time>2026-04-11T14:31:47Z</time></trkpt><trkpt lat="43.125726624788555" lon="11.482893508205025"><ele>142.66666666666666</ele><time>2026-04-11T14:31:48Z</time></trkpt><trkpt lat="43.12580259878445" lon="11.482885346180458"><ele>142.5</ele><time>2026-04-11T14:31:49Z</time></trkpt><trkpt lat="43.12587901292815" lon="11.482876164785063"><ele>142.33333333333334</ele><time>2026-04-11T14:31:50Z</time></trkpt><trkpt lat="43.12595601000451" lon="11.482873834992388"><ele>142.16666666666669</ele><time>2026-04-11T14:31:51Z</time></trkpt><trkpt lat="43.12603239827883" lon="11.482867504219257"><ele>142.0</ele><time>2026-04-11T14:31:52Z</time></trkpt><trkpt lat="43.126107597708774" lon="11.482859444909666"><ele>142.0</ele><time>2026-04-11T14:31:53Z</time></trkpt><trkpt lat="43.126182938884384" lon="11.482851351097167"><ele>142.0</ele><time>2026-04-11T14:31:54Z</time></trkpt><trkpt lat="43.126257764286606" lon="11.482846383055547"><ele>142.0</ele><time>2026-04-11T14:31:55Z</time></trkpt><trkpt lat="43.12633363565206" lon="11.482840181021032"><ele>142.0</ele><time>2026-04-11T14:31:56Z</time></trkpt><trkpt lat="43.126408724564705" lon="11.482834892945888"><ele>142.0</ele><time>2026-04-11T14:31:57Z</time></trkpt><trkpt lat="43.12648282890192" lon="11.482830604187379"><ele>142.0</ele><time>2026-04-11T14:31:58Z</time></trkpt><trkpt lat="43.12655586561527" lon="11.482822232847607"><ele>142.0</ele><time>2026-04-11T14:31:59Z</time></trkpt><trkpt lat="43.12662988188359" lon="11.48281622255324"><ele>142.28571428571428</ele><time>2026-04-11T14:32:00Z</time></trkpt><trkpt lat="43.12670346021295" lon="11.482807577475695"><ele>142.57142857142856</ele><time>2026-04-11T14:32:01Z</time></trkpt><trkpt lat="43.12677615861129" lon="11.48280037547292"><ele>142.85714285714286</ele><time>2026-04-11T14:32:02Z</time></trkpt><trkpt lat="43.12685016999788" lon="11.482796418574905"><ele>143.14285714285714</ele><time>2026-04-11T14:32:03Z</time></trkpt><trkpt lat="43.126922657876364" lon="11.482787956144467"><ele>143.42857142857144</ele><time>2026-04-11T14:32:04Z</time></trkpt><trkpt lat="43.126995573896025" lon="11.48278100395551"><ele>143.71428571428572</ele><time>2026-04-11T14:32:05Z</time></trkpt><trkpt lat="43.12706846771787" lon="11.482774544528985"><ele>144.0</ele><time>2026-04-11T14:32:06Z</time></trkpt><trkpt lat="43.12714240361489" lon="11.48276828458735"><ele>144.00000000000003</ele><time>2026-04-11T14:32:07Z</time></trkpt><trkpt lat="43.127215683037676" lon="11.48276401817012"><ele>144.0</ele><time>2026-04-11T14:32:08Z</time></trkpt><trkpt lat="43.12728848042081" lon="11.482757622957543"><ele>144.0</ele><time>2026-04-11T14:32:09Z</time></trkpt><trkpt lat="43.12736018892187" lon="11.48275002540618"><ele>144.0</ele><time>2026-04-11T14:32:10Z</time></trkpt><trkpt lat="43.12743210451063" lon="11.482741719433708"><ele>144.0</ele><time>2026-04-11T14:32:11Z</time></trkpt><trkpt lat="43.12750521187547" lon="11.482737100493456"><ele>144.00000000000003</ele><time>2026-04-11T14:32:12Z</time></trkpt><trkpt lat="43.12757654120702" lon="11.48273165560066"><ele>144.0</ele><time>2026-04-11T14:32:13Z</time></trkpt><trkpt lat="43.127648357259105" lon="11.482725764553791"><ele>144.14285714285717</ele><time>2026-04-11T14:32:14Z</time></trkpt><trkpt lat="43.127719358395765" lon="11.482717983586124"><ele>144.28571428571428</ele><time>2026-04-11T14:32:15Z</time></trkpt><trkpt lat="43.127791325122935" lon="11.482709309511227"><ele>144.42857142857144</ele><time>2026-04-11T14:32:16Z</time></trkpt><trkpt lat="43.12786473177439" lon="11.482703779413358"><ele>144.57142857142858</ele><time>2026-04-11T14:32:17Z</time></trkpt><trkpt lat="43.127937288062434" lon="11.482700023064314"><ele>144.71428571428572</ele><time>2026-04-11T14:32:18Z</time></trkpt><trkpt lat="43.1280099424966" lon="11.482692194175955"><ele>144.85714285714286</ele><time>2026-04-11T14:32:19Z</time></trkpt><trkpt lat="43.128082677005985" lon="11.482682069053203"><ele>145.0</ele><time>2026-04-11T14:32:20Z</time></trkpt><trkpt lat="43.128156904682044" lon="11.482678068350129"><ele>145.0</ele><time>2026-04-11T14:32:21Z</time></trkpt><trkpt lat="43.128230254134095" lon="11.482670167415172"><ele>145.0</ele><time>2026-04-11T14:32:22Z</time></trkpt><trkpt lat="43.128302865980274" lon="11.482665880730835"><ele>145.0</ele><time>2026-04-11T14:32:23Z</time></trkpt><trkpt lat="43.12837596082305" lon="11.482658471313325"><ele>145.0</ele><time>2026-04-11T14:32:24Z</time></trkpt><trkpt lat="43.1284463399443" lon="11.482650215008677"><ele>145.0</ele><time>2026-04-11T14:32:25Z</time></trkpt><trkpt lat="43.12851899792569" lon="11.482645131326173"><ele>145.0</ele><time>2026-04-11T14:32:26Z</time></trkpt><trkpt lat="43.12859054559001" lon="11.48263919578893"><ele>145.0</ele><time>2026-04-11T14:32:27Z</time></trkpt><trkpt lat="43.128661402827404" lon="11.482630702052644"><ele>145.0</ele><time>2026-04-11T14:32:28Z</time></trkpt><trkpt lat="43.12873236414856" lon="11.482624834645343"><ele>145.0</ele><time>2026-04-11T14:32:29Z</time></trkpt><trkpt lat="43.12880449274052" lon="11.482619198739838"><ele>145.0</ele><time>2026-04-11T14:32:30Z</time></trkpt><trkpt lat="43.128876605255144" lon="11.482617388143748"><ele>145.0</ele><time>2026-04-11T14:32:30.999Z</time></trkpt><trkpt lat="43.12894812281932" lon="11.482609419321138"><ele>145.0</ele><time>2026-04-11T14:32:31.999Z</time></trkpt><trkpt lat="43.129020230366436" lon="11.48260065722429"><ele>145.0</ele><time>2026-04-11T14:32:32.999Z</time></trkpt><trkpt lat="43.12909174524785" lon="11.48259463601499"><ele>145.0</ele><time>2026-04-11T14:32:33.999Z</time></trkpt><trkpt lat="43.12916521695367" lon="11.482588546727396"><ele>144.85714285714286</ele><time>2026-04-11T14:32:34.999Z</time></trkpt><trkpt lat="43.12923903247385" lon="11.482587407098082"><ele>144.71428571428572</ele><time>2026-04-11T14:32:35.999Z</time></trkpt><trkpt lat="43.129312990344104" lon="11.482576579763041"><ele>144.57142857142858</ele><time>2026-04-11T14:32:36.999Z</time></trkpt><trkpt lat="43.12939046698768" lon="11.482570531153812"><ele>144.42857142857144</ele><time>2026-04-11T14:32:37.999Z</time></trkpt><trkpt lat="43.1294632678752" lon="11.48256172471915"><ele>144.28571428571428</ele><time>2026-04-11T14:32:38.999Z</time></trkpt><trkpt lat="43.129538856967145" lon="11.482552570988771"><ele>144.14285714285717</ele><time>2026-04-11T14:32:39.999Z</time></trkpt><trkpt lat="43.12961247309749" lon="11.482547679942723"><ele>144.0</ele><time>2026-04-11T14:32:40.999Z</time></trkpt><trkpt lat="43.12968995281886" lon="11.482545124509388"><ele>144.00000000000003</ele><time>2026-04-11T14:32:41.999Z</time></trkpt><trkpt lat="43.129762313835165" lon="11.482541191557978"><ele>144.0</ele><time>2026-04-11T14:32:42.999Z</time></trkpt><trkpt lat="43.12983488291429" lon="11.482533218977656"><ele>144.0</ele><time>2026-04-11T14:32:43.999Z</time></trkpt><trkpt lat="43.12990015755129" lon="11.48252568762418"><ele>144.0</ele><time>2026-04-11T14:32:44.999Z</time></trkpt><trkpt lat="43.12997538469252" lon="11.48251445911885"><ele>144.0</ele><time>2026-04-11T14:32:45.999Z</time></trkpt><trkpt lat="43.13005123856775" lon="11.48251326599703"><ele>144.00000000000003</ele><time>2026-04-11T14:32:46.999Z</time></trkpt><trkpt lat="43.130125670145254" lon="11.48250952028659"><ele>144.0</ele><time>2026-04-11T14:32:47.999Z</time></trkpt><trkpt lat="43.13019849768061" lon="11.482505436287674"><ele>143.71428571428572</ele><time>2026-04-11T14:32:48.999Z</time></trkpt><trkpt lat="43.130273047390055" lon="11.482503073422658"><ele>143.42857142857144</ele><time>2026-04-11T14:32:49.999Z</time></trkpt><trkpt lat="43.13034687272766" lon="11.482500129573895"><ele>143.14285714285714</ele><time>2026-04-11T14:32:51Z</time></trkpt><trkpt lat="43.130420390670864" lon="11.482493630581832"><ele>142.85714285714286</ele><time>2026-04-11T14:32:52Z</time></trkpt><trkpt lat="43.13049424196897" lon="11.482489300273867"><ele>142.57142857142856</ele><time>2026-04-11T14:32:53Z</time></trkpt><trkpt lat="43.13056795863624" lon="11.482481625218329"><ele>142.28571428571428</ele><time>2026-04-11T14:32:54Z</time></trkpt><trkpt lat="43.130641555780755" lon="11.482476990683823"><ele>142.0</ele><time>2026-04-11T14:32:55Z</time></trkpt><trkpt lat="43.13071424051093" lon="11.48246938468109"><ele>141.85714285714286</ele><time>2026-04-11T14:32:56Z</time></trkpt><trkpt lat="43.130786705160844" lon="11.482461451820107"><ele>141.7142857142857</ele><time>2026-04-11T14:32:57Z</time></trkpt><trkpt lat="43.13085805434396" lon="11.48245545860807"><ele>141.57142857142856</ele><time>2026-04-11T14:32:58Z</time></trkpt><trkpt lat="43.13092947308191" lon="11.482448889430952"><ele>141.42857142857142</ele><time>2026-04-11T14:32:59Z</time></trkpt><trkpt lat="43.13100021240395" lon="11.48244330745148"><ele>141.28571428571428</ele><time>2026-04-11T14:33:00Z</time></trkpt><trkpt lat="43.131072445751876" lon="11.482439400671556"><ele>141.14285714285714</ele><time>2026-04-11T14:33:01Z</time></trkpt><trkpt lat="43.13114374948321" lon="11.482433593581785"><ele>141.0</ele><time>2026-04-11T14:33:02Z</time></trkpt><trkpt lat="43.13121478294566" lon="11.482427880538319"><ele>141.0</ele><time>2026-04-11T14:33:03Z</time></trkpt><trkpt lat="43.13128413361402" lon="11.482421486948509"><ele>141.0</ele><time>2026-04-11T14:33:04Z</time></trkpt><trkpt lat="43.131351799642715" lon="11.482409050265758"><ele>141.0</ele><time>2026-04-11T14:33:05Z</time></trkpt><trkpt lat="43.131417909991846" lon="11.482400290916406"><ele>141.0</ele><time>2026-04-11T14:33:06Z</time></trkpt><trkpt lat="43.13148398703909" lon="11.482393714003"><ele>141.0</ele><time>2026-04-11T14:33:07Z</time></trkpt><trkpt lat="43.131546895850576" lon="11.482376711046177"><ele>141.0</ele><time>2026-04-11T14:33:08Z</time></trkpt><trkpt lat="43.13161320318664" lon="11.482382241540797"><ele>141.0</ele><time>2026-04-11T14:33:09Z</time></trkpt><trkpt lat="43.13167884486825" lon="11.482377121804841"><ele>141.6</ele><time>2026-04-11T14:33:10Z</time></trkpt><trkpt lat="43.13174377982417" lon="11.48237807880228"><ele>142.2</ele><time>2026-04-11T14:33:11Z</time></trkpt><trkpt lat="43.131872158490694" lon="11.48238335941403"><ele>142.8</ele><time>2026-04-11T14:33:13Z</time></trkpt><trkpt lat="43.13199247108844" lon="11.482404026834432"><ele>143.4</ele><time>2026-04-11T14:33:15Z</time></trkpt><trkpt lat="43.132088617251235" lon="11.482425250965358"><ele>144.0</ele><time>2026-04-11T14:33:17Z</time></trkpt><trkpt lat="43.132173701932565" lon="11.482447135426368"><ele>144.0</ele><time>2026-04-11T14:33:19Z</time></trkpt><trkpt lat="43.13223877087436" lon="11.482384212527561"><ele>144.0</ele><time>2026-04-11T14:33:21Z</time></trkpt><trkpt lat="43.13228552646955" lon="11.482304505598146"><ele>144.0</ele><time>2026-04-11T14:33:23Z</time></trkpt><trkpt lat="43.13236468123904" lon="11.482297523624869"><ele>144.0</ele><time>2026-04-11T14:33:25Z</time></trkpt><trkpt lat="43.13244797136942" lon="11.48229768959459"><ele>144.0</ele><time>2026-04-11T14:33:27Z</time></trkpt><trkpt lat="43.13252799896684" lon="11.482297983748044"><ele>144.0</ele><time>2026-04-11T14:33:29Z</time></trkpt><trkpt lat="43.132618727831755" lon="11.482297150869211"><ele>143.8</ele><time>2026-04-11T14:33:31Z</time></trkpt><trkpt lat="43.13271327631856" lon="11.482279480859253"><ele>143.60000000000002</ele><time>2026-04-11T14:33:33Z</time></trkpt><trkpt lat="43.13280273781271" lon="11.482262037877163"><ele>143.4</ele><time>2026-04-11T14:33:35Z</time></trkpt><trkpt lat="43.13289487990575" lon="11.482245850363427"><ele>143.20000000000002</ele><time>2026-04-11T14:33:37Z</time></trkpt><trkpt lat="43.1330525166359" lon="11.482254448027627"><ele>143.0</ele><time>2026-04-11T14:33:40Z</time></trkpt><trkpt lat="43.13315284977278" lon="11.482239551124183"><ele>143.4</ele><time>2026-04-11T14:33:42Z</time></trkpt><trkpt lat="43.13324845659867" lon="11.48222559075515"><ele>143.8</ele><time>2026-04-11T14:33:44Z</time></trkpt><trkpt lat="43.13334208379866" lon="11.482223795373308"><ele>144.2</ele><time>2026-04-11T14:33:46Z</time></trkpt><trkpt lat="43.13345004612484" lon="11.482214319169328"><ele>144.6</ele><time>2026-04-11T14:33:48Z</time></trkpt><trkpt lat="43.133553040824346" lon="11.48222612026107"><ele>145.0</ele><time>2026-04-11T14:33:50Z</time></trkpt><trkpt lat="43.1336488135405" lon="11.482217795369216"><ele>145.0</ele><time>2026-04-11T14:33:52Z</time></trkpt><trkpt lat="43.13374587258774" lon="11.482193214197622"><ele>145.0</ele><time>2026-04-11T14:33:54Z</time></trkpt><trkpt lat="43.13384853608519" lon="11.48218332189441"><ele>145.0</ele><time>2026-04-11T14:33:56Z</time></trkpt><trkpt lat="43.1339488688595" lon="11.482191534422507"><ele>145.0</ele><time>2026-04-11T14:33:58Z</time></trkpt><trkpt lat="43.13405036263139" lon="11.482182616908986"><ele>145.0</ele><time>2026-04-11T14:34:00Z</time></trkpt><trkpt lat="43.13414843502544" lon="11.482174820595166"><ele>144.8</ele><time>2026-04-11T14:34:02Z</time></trkpt><trkpt lat="43.13425120851076" lon="11.482165416362639"><ele>144.6</ele><time>2026-04-11T14:34:04Z</time></trkpt><trkpt lat="43.134351800918004" lon="11.482155317933723"><ele>144.4</ele><time>2026-04-11T14:34:06Z</time></trkpt><trkpt lat="43.13445156896793" lon="11.482145302263591"><ele>144.2</ele><time>2026-04-11T14:34:08Z</time></trkpt><trkpt lat="43.134546854675214" lon="11.482135683677235"><ele>144.0</ele><time>2026-04-11T14:34:10Z</time></trkpt><trkpt lat="43.134626606539975" lon="11.48215347877666"><ele>144.0</ele><time>2026-04-11T14:34:12Z</time></trkpt><trkpt lat="43.13462607301156" lon="11.48227809736899"><ele>144.0</ele><time>2026-04-11T14:34:14Z</time></trkpt><trkpt lat="43.13463229180625" lon="11.482403213595349"><ele>144.0</ele><time>2026-04-11T14:34:16Z</time></trkpt><trkpt lat="43.134651460067786" lon="11.482529005892959"><ele>144.0</ele><time>2026-04-11T14:34:18Z</time></trkpt><trkpt lat="43.13465485396223" lon="11.482654012556521"><ele>144.0</ele><time>2026-04-11T14:34:20Z</time></trkpt><trkpt lat="43.13464900868337" lon="11.482755338738189"><ele>144.0</ele><time>2026-04-11T14:34:22Z</time></trkpt><trkpt lat="43.134763517670464" lon="11.482799157039292"><ele>144.0</ele><time>2026-04-11T14:34:26Z</time></trkpt><trkpt lat="43.13484037695069" lon="11.482811908342104"><ele>144.0</ele><time>2026-04-11T14:34:28Z</time></trkpt><trkpt lat="43.13492455081818" lon="11.482812564241165"><ele>144.0</ele><time>2026-04-11T14:34:30Z</time></trkpt><trkpt lat="43.13501731298446" lon="11.482813287064564"><ele>144.0</ele><time>2026-04-11T14:34:32Z</time></trkpt><trkpt lat="43.135113476356494" lon="11.482814036389833"><ele>144.0</ele><time>2026-04-11T14:34:34Z</time></trkpt><trkpt lat="43.135202601998074" lon="11.482814730874978"><ele>144.0</ele><time>2026-04-11T14:34:35.999Z</time></trkpt><trkpt lat="43.135290615558255" lon="11.482815416697076"><ele>144.14285714285717</ele><time>2026-04-11T14:34:37.999Z</time></trkpt><trkpt lat="43.135364571512504" lon="11.48281557002916"><ele>144.28571428571428</ele><time>2026-04-11T14:34:39.999Z</time></trkpt><trkpt lat="43.13543241324432" lon="11.482811935652027"><ele>144.42857142857144</ele><time>2026-04-11T14:34:41.999Z</time></trkpt><trkpt lat="43.13549941905749" lon="11.482808346034055"><ele>144.57142857142858</ele><time>2026-04-11T14:34:43.999Z</time></trkpt><trkpt lat="43.135564607386364" lon="11.48280485376882"><ele>144.71428571428572</ele><time>2026-04-11T14:34:45.999Z</time></trkpt><trkpt lat="43.135631523703495" lon="11.482801268931121"><ele>144.85714285714286</ele><time>2026-04-11T14:34:47.999Z</time></trkpt><trkpt lat="43.13569902384367" lon="11.48279765281766"><ele>145.0</ele><time>2026-04-11T14:34:49.999Z</time></trkpt><trkpt lat="43.13576092387343" lon="11.482730576153276"><ele>145.28571428571428</ele><time>2026-04-11T14:34:51.999Z</time></trkpt><trkpt lat="43.13582571673009" lon="11.482722399400913"><ele>145.57142857142858</ele><time>2026-04-11T14:34:53.999Z</time></trkpt><trkpt lat="43.13588941007709" lon="11.482713800585014"><ele>145.85714285714286</ele><time>2026-04-11T14:34:55.999Z</time></trkpt><trkpt lat="43.13595483891727" lon="11.482706925241283"><ele>146.14285714285714</ele><time>2026-04-11T14:34:58Z</time></trkpt><trkpt lat="43.136034465947006" lon="11.482690063603544"><ele>146.42857142857144</ele><time>2026-04-11T14:35:00Z</time></trkpt><trkpt lat="43.136113148676785" lon="11.482670859086564"><ele>146.71428571428572</ele><time>2026-04-11T14:35:02Z</time></trkpt><trkpt lat="43.13619845586154" lon="11.48264530156401"><ele>147.0</ele><time>2026-04-11T14:35:04Z</time></trkpt><trkpt lat="43.13627624344708" lon="11.482636070795126"><ele>147.0</ele><time>2026-04-11T14:35:06Z</time></trkpt><trkpt lat="43.136365980316555" lon="11.482634696404164"><ele>147.0</ele><time>2026-04-11T14:35:08Z</time></trkpt><trkpt lat="43.136448500222905" lon="11.482609778929138"><ele>147.0</ele><time>2026-04-11T14:35:10Z</time></trkpt><trkpt lat="43.13652359425599" lon="11.482585721882566"><ele>147.0</ele><time>2026-04-11T14:35:12Z</time></trkpt><trkpt lat="43.13660246995041" lon="11.482578381742778"><ele>147.0</ele><time>2026-04-11T14:35:14Z</time></trkpt><trkpt lat="43.13668028222291" lon="11.482570143960647"><ele>147.0</ele><time>2026-04-11T14:35:16Z</time></trkpt><trkpt lat="43.13675715296666" lon="11.482508624904392"><ele>147.0</ele><time>2026-04-11T14:35:19Z</time></trkpt><trkpt lat="43.13676530289626" lon="11.482402546647352"><ele>147.0</ele><time>2026-04-11T14:35:22Z</time></trkpt><trkpt lat="43.136755156977934" lon="11.482284563904361"><ele>147.0</ele><time>2026-04-11T14:35:25Z</time></trkpt><trkpt lat="43.13675083995352" lon="11.482195449779606"><ele>147.0</ele><time>2026-04-11T14:35:27Z</time></trkpt><trkpt lat="43.136735537733614" lon="11.482082219184331"><ele>147.0</ele><time>2026-04-11T14:35:30Z</time></trkpt><trkpt lat="43.13675247972714" lon="11.481996959213653"><ele>147.0</ele><time>2026-04-11T14:35:33Z</time></trkpt><trkpt lat="43.136828317619845" lon="11.481941387742827"><ele>147.0</ele><time>2026-04-11T14:36:18Z</time></trkpt><trkpt lat="43.13693853333333" lon="11.4819732"><ele>147.0</ele><time>2026-04-11T14:36:54.474Z</time></trkpt><trkpt lat="43.13696771666667" lon="11.482054416666665"><ele>147.0</ele><time>2026-04-11T14:37:09.571Z</time></trkpt><trkpt lat="43.137120137011856" lon="11.48210508639019"><ele>147.0</ele><time>2026-04-11T14:38:21.068Z</time></trkpt><trkpt lat="43.13704275059672" lon="11.482120655358168"><ele>147.0</ele><time>2026-04-11T14:38:24.999Z</time></trkpt><trkpt lat="43.13695964505314" lon="11.482152373258335"><ele>147.0</ele><time>2026-04-11T14:38:41Z</time></trkpt><trkpt lat="43.137022655955114" lon="11.482166321445328"><ele>147.0</ele><time>2026-04-11T14:39:33.999Z</time></trkpt><trkpt lat="43.13703083358293" lon="11.482069097541963"><ele>147.0</ele><time>2026-04-11T14:39:45.999Z</time></trkpt><trkpt lat="43.13700923068248" lon="11.481978201279553"><ele>147.0</ele><time>2026-04-11T14:39:54.999Z</time></trkpt><trkpt lat="43.13703178086472" lon="11.481886962187318"><ele>147.0</ele><time>2026-04-11T14:40:03.999Z</time></trkpt><trkpt lat="43.13708682322378" lon="11.481835644600055"><ele>147.0</ele><time>2026-04-11T14:40:15.999Z</time></trkpt><trkpt lat="43.13715657317033" lon="11.481817499919826"><ele>147.0</ele><time>2026-04-11T14:40:23.999Z</time></trkpt><trkpt lat="43.137225638699526" lon="11.481824935604132"><ele>147.0</ele><time>2026-04-11T14:40:47Z</time></trkpt><trkpt lat="43.13729179384594" lon="11.481832904465639"><ele>147.0</ele><time>2026-04-11T14:40:56Z</time></trkpt><trkpt lat="43.137361862348094" lon="11.481836858492894"><ele>147.0</ele><time>2026-04-11T14:41:05Z</time></trkpt><trkpt lat="43.13742264769562" lon="11.481806506071438"><ele>146.0</ele><time>2026-04-11T14:41:13Z</time></trkpt><trkpt lat="43.1374825879971" lon="11.481778029857876"><ele>146.0</ele><time>2026-04-11T14:41:20Z</time></trkpt><trkpt lat="43.137526770506035" lon="11.481709801345982"><ele>146.0</ele><time>2026-04-11T14:46:55Z</time></trkpt></trkseg></trk></gpx>